<?xml version="1.0" encoding="UTF-8" standalone="no" ?>
<gpx xmlns="http://www.topografix.com/GPX/1/1" xmlns:xsi="http://www.w3.org/2001/XMLSchema-instance" xsi:schemaLocation="http://www.topografix.com/GPX/1/1 http://www.topografix.com/GPX/1/1/gpx.xsd" version="1.1" creator="VisuGPX - https://www.visugpx.com">
  <metadata>
    <name>Spok</name>
    <desc><![CDATA[S

S]]></desc>
  </metadata>
  <trk>
    <name><![CDATA[S]]></name>
    <cmt><![CDATA[S]]></cmt>
    <desc><![CDATA[S]]></desc>
    <trkseg>
      <trkpt lat="46.22354" lon="4.47226">
        <ele>757.634</ele>
        <time>2021-04-03T10:34:42Z</time>
      </trkpt>
      <trkpt lat="46.22348" lon="4.4723">
        <ele>762.055</ele>
        <time>2021-04-03T10:36:52Z</time>
      </trkpt>
      <trkpt lat="46.22334" lon="4.47235">
        <ele>762.01</ele>
        <time>2021-04-03T10:36:54Z</time>
      </trkpt>
      <trkpt lat="46.22325" lon="4.47238">
        <ele>762.808</ele>
        <time>2021-04-03T10:36:55Z</time>
      </trkpt>
      <trkpt lat="46.22311" lon="4.47239">
        <ele>763.999</ele>
        <time>2021-04-03T10:36:57Z</time>
      </trkpt>
      <trkpt lat="46.22303" lon="4.47239">
        <ele>764.592</ele>
        <time>2021-04-03T10:36:58Z</time>
      </trkpt>
      <trkpt lat="46.22291" lon="4.47243">
        <ele>764.611</ele>
        <time>2021-04-03T10:37:00Z</time>
      </trkpt>
      <trkpt lat="46.22286" lon="4.47246">
        <ele>764.533</ele>
        <time>2021-04-03T10:37:01Z</time>
      </trkpt>
      <trkpt lat="46.22275" lon="4.47251">
        <ele>764.835</ele>
        <time>2021-04-03T10:37:03Z</time>
      </trkpt>
      <trkpt lat="46.2227" lon="4.47253">
        <ele>765.161</ele>
        <time>2021-04-03T10:37:04Z</time>
      </trkpt>
      <trkpt lat="46.22259" lon="4.47257">
        <ele>765.128</ele>
        <time>2021-04-03T10:37:06Z</time>
      </trkpt>
      <trkpt lat="46.22254" lon="4.47262">
        <ele>765.465</ele>
        <time>2021-04-03T10:37:07Z</time>
      </trkpt>
      <trkpt lat="46.22247" lon="4.47266">
        <ele>765.011</ele>
        <time>2021-04-03T10:37:08Z</time>
      </trkpt>
      <trkpt lat="46.22239" lon="4.47268">
        <ele>764.921</ele>
        <time>2021-04-03T10:37:09Z</time>
      </trkpt>
      <trkpt lat="46.2223" lon="4.4727">
        <ele>764.203</ele>
        <time>2021-04-03T10:37:10Z</time>
      </trkpt>
      <trkpt lat="46.22216" lon="4.47273">
        <ele>763.408</ele>
        <time>2021-04-03T10:37:12Z</time>
      </trkpt>
      <trkpt lat="46.2221" lon="4.47274">
        <ele>762.657</ele>
        <time>2021-04-03T10:37:13Z</time>
      </trkpt>
      <trkpt lat="46.22197" lon="4.47274">
        <ele>761.71</ele>
        <time>2021-04-03T10:37:15Z</time>
      </trkpt>
      <trkpt lat="46.2218" lon="4.47273">
        <ele>760.489</ele>
        <time>2021-04-03T10:37:17Z</time>
      </trkpt>
      <trkpt lat="46.22171" lon="4.47274">
        <ele>759.111</ele>
        <time>2021-04-03T10:37:18Z</time>
      </trkpt>
      <trkpt lat="46.22164" lon="4.47276">
        <ele>758.223</ele>
        <time>2021-04-03T10:37:19Z</time>
      </trkpt>
      <trkpt lat="46.2215" lon="4.47277">
        <ele>757.579</ele>
        <time>2021-04-03T10:37:21Z</time>
      </trkpt>
      <trkpt lat="46.22145" lon="4.47277">
        <ele>757.096</ele>
        <time>2021-04-03T10:37:22Z</time>
      </trkpt>
      <trkpt lat="46.22137" lon="4.47279">
        <ele>757.043</ele>
        <time>2021-04-03T10:37:24Z</time>
      </trkpt>
      <trkpt lat="46.22128" lon="4.47274">
        <ele>757.287</ele>
        <time>2021-04-03T10:37:26Z</time>
      </trkpt>
      <trkpt lat="46.22116" lon="4.47271">
        <ele>757.542</ele>
        <time>2021-04-03T10:37:28Z</time>
      </trkpt>
      <trkpt lat="46.2211" lon="4.47273">
        <ele>757.326</ele>
        <time>2021-04-03T10:37:29Z</time>
      </trkpt>
      <trkpt lat="46.22105" lon="4.47275">
        <ele>757.308</ele>
        <time>2021-04-03T10:37:31Z</time>
      </trkpt>
      <trkpt lat="46.221" lon="4.47278">
        <ele>757.584</ele>
        <time>2021-04-03T10:38:03Z</time>
      </trkpt>
      <trkpt lat="46.22088" lon="4.47281">
        <ele>758.317</ele>
        <time>2021-04-03T10:38:05Z</time>
      </trkpt>
      <trkpt lat="46.22081" lon="4.47283">
        <ele>758.666</ele>
        <time>2021-04-03T10:38:06Z</time>
      </trkpt>
      <trkpt lat="46.22067" lon="4.47287">
        <ele>759.028</ele>
        <time>2021-04-03T10:38:08Z</time>
      </trkpt>
      <trkpt lat="46.22058" lon="4.47289">
        <ele>759.61</ele>
        <time>2021-04-03T10:38:09Z</time>
      </trkpt>
      <trkpt lat="46.2205" lon="4.47291">
        <ele>759.866</ele>
        <time>2021-04-03T10:38:10Z</time>
      </trkpt>
      <trkpt lat="46.22042" lon="4.47291">
        <ele>760.393</ele>
        <time>2021-04-03T10:38:11Z</time>
      </trkpt>
      <trkpt lat="46.22035" lon="4.47289">
        <ele>760.88</ele>
        <time>2021-04-03T10:38:12Z</time>
      </trkpt>
      <trkpt lat="46.22023" lon="4.47281">
        <ele>761.343</ele>
        <time>2021-04-03T10:38:14Z</time>
      </trkpt>
      <trkpt lat="46.22005" lon="4.47268">
        <ele>761.764</ele>
        <time>2021-04-03T10:38:16Z</time>
      </trkpt>
      <trkpt lat="46.21985" lon="4.47254">
        <ele>762.51</ele>
        <time>2021-04-03T10:38:18Z</time>
      </trkpt>
      <trkpt lat="46.21963" lon="4.47239">
        <ele>763.108</ele>
        <time>2021-04-03T10:38:20Z</time>
      </trkpt>
      <trkpt lat="46.21942" lon="4.4722">
        <ele>765.07</ele>
        <time>2021-04-03T10:38:22Z</time>
      </trkpt>
      <trkpt lat="46.21934" lon="4.47209">
        <ele>767.063</ele>
        <time>2021-04-03T10:38:23Z</time>
      </trkpt>
      <trkpt lat="46.21917" lon="4.4719">
        <ele>768.762</ele>
        <time>2021-04-03T10:38:25Z</time>
      </trkpt>
      <trkpt lat="46.21898" lon="4.47177">
        <ele>771.444</ele>
        <time>2021-04-03T10:38:27Z</time>
      </trkpt>
      <trkpt lat="46.21877" lon="4.47164">
        <ele>774.126</ele>
        <time>2021-04-03T10:38:29Z</time>
      </trkpt>
      <trkpt lat="46.21867" lon="4.47159">
        <ele>776.312</ele>
        <time>2021-04-03T10:38:30Z</time>
      </trkpt>
      <trkpt lat="46.21844" lon="4.47146">
        <ele>779.219</ele>
        <time>2021-04-03T10:38:32Z</time>
      </trkpt>
      <trkpt lat="46.21823" lon="4.4714">
        <ele>781.996</ele>
        <time>2021-04-03T10:38:34Z</time>
      </trkpt>
      <trkpt lat="46.21811" lon="4.47146">
        <ele>783.978</ele>
        <time>2021-04-03T10:38:36Z</time>
      </trkpt>
      <trkpt lat="46.21805" lon="4.47151">
        <ele>785.533</ele>
        <time>2021-04-03T10:38:37Z</time>
      </trkpt>
      <trkpt lat="46.21797" lon="4.47158">
        <ele>787.126</ele>
        <time>2021-04-03T10:38:38Z</time>
      </trkpt>
      <trkpt lat="46.21779" lon="4.47173">
        <ele>789.708</ele>
        <time>2021-04-03T10:38:40Z</time>
      </trkpt>
      <trkpt lat="46.21762" lon="4.47191">
        <ele>792.233</ele>
        <time>2021-04-03T10:38:42Z</time>
      </trkpt>
      <trkpt lat="46.21755" lon="4.47196">
        <ele>794.636</ele>
        <time>2021-04-03T10:38:43Z</time>
      </trkpt>
      <trkpt lat="46.21747" lon="4.47204">
        <ele>796.275</ele>
        <time>2021-04-03T10:38:45Z</time>
      </trkpt>
      <trkpt lat="46.21745" lon="4.47212">
        <ele>797.437</ele>
        <time>2021-04-03T10:38:47Z</time>
      </trkpt>
      <trkpt lat="46.21745" lon="4.47219">
        <ele>798.699</ele>
        <time>2021-04-03T10:38:48Z</time>
      </trkpt>
      <trkpt lat="46.21744" lon="4.47239">
        <ele>799.115</ele>
        <time>2021-04-03T10:38:50Z</time>
      </trkpt>
      <trkpt lat="46.21743" lon="4.47265">
        <ele>800.582</ele>
        <time>2021-04-03T10:38:52Z</time>
      </trkpt>
      <trkpt lat="46.21745" lon="4.4729">
        <ele>802.619</ele>
        <time>2021-04-03T10:38:54Z</time>
      </trkpt>
      <trkpt lat="46.21745" lon="4.47302">
        <ele>804.451</ele>
        <time>2021-04-03T10:38:55Z</time>
      </trkpt>
      <trkpt lat="46.2174" lon="4.47319">
        <ele>806.601</ele>
        <time>2021-04-03T10:38:57Z</time>
      </trkpt>
      <trkpt lat="46.21734" lon="4.4732">
        <ele>808.311</ele>
        <time>2021-04-03T10:38:59Z</time>
      </trkpt>
      <trkpt lat="46.21731" lon="4.47324">
        <ele>809.408</ele>
        <time>2021-04-03T10:39:00Z</time>
      </trkpt>
      <trkpt lat="46.21726" lon="4.47332">
        <ele>809.611</ele>
        <time>2021-04-03T10:39:01Z</time>
      </trkpt>
      <trkpt lat="46.21721" lon="4.47339">
        <ele>809.794</ele>
        <time>2021-04-03T10:39:02Z</time>
      </trkpt>
      <trkpt lat="46.21716" lon="4.47348">
        <ele>808.793</ele>
        <time>2021-04-03T10:39:04Z</time>
      </trkpt>
      <trkpt lat="46.2171" lon="4.47355">
        <ele>809.085</ele>
        <time>2021-04-03T10:39:06Z</time>
      </trkpt>
      <trkpt lat="46.21703" lon="4.47365">
        <ele>810.087</ele>
        <time>2021-04-03T10:39:08Z</time>
      </trkpt>
      <trkpt lat="46.21702" lon="4.47374">
        <ele>810.663</ele>
        <time>2021-04-03T10:39:10Z</time>
      </trkpt>
      <trkpt lat="46.21698" lon="4.47386">
        <ele>806.64</ele>
        <time>2021-04-03T10:39:12Z</time>
      </trkpt>
      <trkpt lat="46.21693" lon="4.47393">
        <ele>805.327</ele>
        <time>2021-04-03T10:39:13Z</time>
      </trkpt>
      <trkpt lat="46.21681" lon="4.4741">
        <ele>806.568</ele>
        <time>2021-04-03T10:39:15Z</time>
      </trkpt>
      <trkpt lat="46.21669" lon="4.47436">
        <ele>807.642</ele>
        <time>2021-04-03T10:39:17Z</time>
      </trkpt>
      <trkpt lat="46.21659" lon="4.47455">
        <ele>810.226</ele>
        <time>2021-04-03T10:39:19Z</time>
      </trkpt>
      <trkpt lat="46.21651" lon="4.47467">
        <ele>811.008</ele>
        <time>2021-04-03T10:39:21Z</time>
      </trkpt>
      <trkpt lat="46.21648" lon="4.47474">
        <ele>811.182</ele>
        <time>2021-04-03T10:39:22Z</time>
      </trkpt>
      <trkpt lat="46.21644" lon="4.4748">
        <ele>811.175</ele>
        <time>2021-04-03T10:39:23Z</time>
      </trkpt>
      <trkpt lat="46.21639" lon="4.47489">
        <ele>810.934</ele>
        <time>2021-04-03T10:39:24Z</time>
      </trkpt>
      <trkpt lat="46.21627" lon="4.47511">
        <ele>811.666</ele>
        <time>2021-04-03T10:39:26Z</time>
      </trkpt>
      <trkpt lat="46.21621" lon="4.47527">
        <ele>812.828</ele>
        <time>2021-04-03T10:39:28Z</time>
      </trkpt>
      <trkpt lat="46.21612" lon="4.47544">
        <ele>813.444</ele>
        <time>2021-04-03T10:39:30Z</time>
      </trkpt>
      <trkpt lat="46.216" lon="4.47563">
        <ele>813.431</ele>
        <time>2021-04-03T10:39:32Z</time>
      </trkpt>
      <trkpt lat="46.21588" lon="4.47582">
        <ele>813.138</ele>
        <time>2021-04-03T10:39:34Z</time>
      </trkpt>
      <trkpt lat="46.21577" lon="4.47601">
        <ele>813.628</ele>
        <time>2021-04-03T10:39:36Z</time>
      </trkpt>
      <trkpt lat="46.21572" lon="4.47611">
        <ele>814.289</ele>
        <time>2021-04-03T10:39:37Z</time>
      </trkpt>
      <trkpt lat="46.21566" lon="4.47622">
        <ele>815.017</ele>
        <time>2021-04-03T10:39:38Z</time>
      </trkpt>
      <trkpt lat="46.21557" lon="4.47634">
        <ele>815.208</ele>
        <time>2021-04-03T10:39:39Z</time>
      </trkpt>
      <trkpt lat="46.21544" lon="4.47655">
        <ele>814.668</ele>
        <time>2021-04-03T10:39:41Z</time>
      </trkpt>
      <trkpt lat="46.21533" lon="4.4767">
        <ele>814.561</ele>
        <time>2021-04-03T10:39:43Z</time>
      </trkpt>
      <trkpt lat="46.21528" lon="4.47676">
        <ele>814.58</ele>
        <time>2021-04-03T10:39:44Z</time>
      </trkpt>
      <trkpt lat="46.21522" lon="4.47682">
        <ele>814.682</ele>
        <time>2021-04-03T10:39:45Z</time>
      </trkpt>
      <trkpt lat="46.21515" lon="4.4769">
        <ele>814.584</ele>
        <time>2021-04-03T10:39:46Z</time>
      </trkpt>
      <trkpt lat="46.21501" lon="4.47704">
        <ele>814.81</ele>
        <time>2021-04-03T10:39:48Z</time>
      </trkpt>
      <trkpt lat="46.21485" lon="4.47723">
        <ele>814.637</ele>
        <time>2021-04-03T10:39:50Z</time>
      </trkpt>
      <trkpt lat="46.21478" lon="4.47736">
        <ele>815.094</ele>
        <time>2021-04-03T10:39:51Z</time>
      </trkpt>
      <trkpt lat="46.21471" lon="4.47749">
        <ele>815.482</ele>
        <time>2021-04-03T10:39:52Z</time>
      </trkpt>
      <trkpt lat="46.2146" lon="4.47772">
        <ele>816.043</ele>
        <time>2021-04-03T10:39:54Z</time>
      </trkpt>
      <trkpt lat="46.21457" lon="4.47782">
        <ele>817.117</ele>
        <time>2021-04-03T10:39:55Z</time>
      </trkpt>
      <trkpt lat="46.21445" lon="4.47807">
        <ele>818.408</ele>
        <time>2021-04-03T10:39:57Z</time>
      </trkpt>
      <trkpt lat="46.2144" lon="4.47818">
        <ele>819.114</ele>
        <time>2021-04-03T10:39:58Z</time>
      </trkpt>
      <trkpt lat="46.21431" lon="4.47842">
        <ele>821.287</ele>
        <time>2021-04-03T10:40:00Z</time>
      </trkpt>
      <trkpt lat="46.21426" lon="4.47855">
        <ele>820.656</ele>
        <time>2021-04-03T10:40:01Z</time>
      </trkpt>
      <trkpt lat="46.2142" lon="4.47867">
        <ele>821.168</ele>
        <time>2021-04-03T10:40:02Z</time>
      </trkpt>
      <trkpt lat="46.21407" lon="4.47884">
        <ele>822.91</ele>
        <time>2021-04-03T10:40:04Z</time>
      </trkpt>
      <trkpt lat="46.214" lon="4.47889">
        <ele>824.796</ele>
        <time>2021-04-03T10:40:05Z</time>
      </trkpt>
      <trkpt lat="46.21392" lon="4.47893">
        <ele>826.743</ele>
        <time>2021-04-03T10:40:06Z</time>
      </trkpt>
      <trkpt lat="46.21377" lon="4.47904">
        <ele>828.75</ele>
        <time>2021-04-03T10:40:08Z</time>
      </trkpt>
      <trkpt lat="46.21367" lon="4.4792">
        <ele>831.094</ele>
        <time>2021-04-03T10:40:10Z</time>
      </trkpt>
      <trkpt lat="46.21361" lon="4.47928">
        <ele>833.557</ele>
        <time>2021-04-03T10:40:12Z</time>
      </trkpt>
      <trkpt lat="46.21356" lon="4.47933">
        <ele>834.722</ele>
        <time>2021-04-03T10:40:13Z</time>
      </trkpt>
      <trkpt lat="46.21346" lon="4.4794">
        <ele>835.308</ele>
        <time>2021-04-03T10:40:15Z</time>
      </trkpt>
      <trkpt lat="46.2134" lon="4.47945">
        <ele>836.215</ele>
        <time>2021-04-03T10:40:16Z</time>
      </trkpt>
      <trkpt lat="46.2133" lon="4.47958">
        <ele>838.628</ele>
        <time>2021-04-03T10:40:18Z</time>
      </trkpt>
      <trkpt lat="46.21325" lon="4.4797">
        <ele>841.117</ele>
        <time>2021-04-03T10:40:20Z</time>
      </trkpt>
      <trkpt lat="46.21318" lon="4.47981">
        <ele>839.189</ele>
        <time>2021-04-03T10:40:22Z</time>
      </trkpt>
      <trkpt lat="46.21308" lon="4.47998">
        <ele>841.061</ele>
        <time>2021-04-03T10:40:24Z</time>
      </trkpt>
      <trkpt lat="46.21294" lon="4.4801">
        <ele>840.277</ele>
        <time>2021-04-03T10:40:26Z</time>
      </trkpt>
      <trkpt lat="46.21282" lon="4.48024">
        <ele>843.744</ele>
        <time>2021-04-03T10:40:28Z</time>
      </trkpt>
      <trkpt lat="46.21277" lon="4.48034">
        <ele>847.771</ele>
        <time>2021-04-03T10:40:29Z</time>
      </trkpt>
      <trkpt lat="46.21271" lon="4.48046">
        <ele>847.013</ele>
        <time>2021-04-03T10:40:30Z</time>
      </trkpt>
      <trkpt lat="46.21265" lon="4.48057">
        <ele>848.743</ele>
        <time>2021-04-03T10:40:31Z</time>
      </trkpt>
      <trkpt lat="46.21254" lon="4.48076">
        <ele>852.507</ele>
        <time>2021-04-03T10:40:33Z</time>
      </trkpt>
      <trkpt lat="46.2125" lon="4.48083">
        <ele>854.808</ele>
        <time>2021-04-03T10:40:34Z</time>
      </trkpt>
      <trkpt lat="46.21246" lon="4.48091">
        <ele>856.287</ele>
        <time>2021-04-03T10:40:35Z</time>
      </trkpt>
      <trkpt lat="46.21241" lon="4.48114">
        <ele>859.31</ele>
        <time>2021-04-03T10:40:37Z</time>
      </trkpt>
      <trkpt lat="46.21239" lon="4.48128">
        <ele>862.959</ele>
        <time>2021-04-03T10:40:38Z</time>
      </trkpt>
      <trkpt lat="46.21235" lon="4.48151">
        <ele>866.791</ele>
        <time>2021-04-03T10:40:40Z</time>
      </trkpt>
      <trkpt lat="46.21226" lon="4.48173">
        <ele>870.083</ele>
        <time>2021-04-03T10:40:42Z</time>
      </trkpt>
      <trkpt lat="46.21218" lon="4.48184">
        <ele>873.339</ele>
        <time>2021-04-03T10:40:43Z</time>
      </trkpt>
      <trkpt lat="46.21209" lon="4.48197">
        <ele>875.246</ele>
        <time>2021-04-03T10:40:44Z</time>
      </trkpt>
      <trkpt lat="46.21201" lon="4.48213">
        <ele>877.153</ele>
        <time>2021-04-03T10:40:45Z</time>
      </trkpt>
      <trkpt lat="46.21194" lon="4.48225">
        <ele>878.766</ele>
        <time>2021-04-03T10:40:46Z</time>
      </trkpt>
      <trkpt lat="46.21184" lon="4.48245">
        <ele>880.429</ele>
        <time>2021-04-03T10:40:48Z</time>
      </trkpt>
      <trkpt lat="46.21179" lon="4.48253">
        <ele>881.821</ele>
        <time>2021-04-03T10:40:49Z</time>
      </trkpt>
      <trkpt lat="46.21175" lon="4.48258">
        <ele>882.908</ele>
        <time>2021-04-03T10:40:50Z</time>
      </trkpt>
      <trkpt lat="46.21174" lon="4.48252">
        <ele>883.532</ele>
        <time>2021-04-03T10:41:03Z</time>
      </trkpt>
      <trkpt lat="46.2117" lon="4.48243">
        <ele>884.265</ele>
        <time>2021-04-03T10:41:06Z</time>
      </trkpt>
      <trkpt lat="46.21165" lon="4.48233">
        <ele>888.294</ele>
        <time>2021-04-03T10:41:08Z</time>
      </trkpt>
      <trkpt lat="46.21161" lon="4.48228">
        <ele>890.916</ele>
        <time>2021-04-03T10:41:09Z</time>
      </trkpt>
      <trkpt lat="46.21157" lon="4.48221">
        <ele>892.278</ele>
        <time>2021-04-03T10:41:10Z</time>
      </trkpt>
      <trkpt lat="46.21147" lon="4.4821">
        <ele>894.194</ele>
        <time>2021-04-03T10:41:12Z</time>
      </trkpt>
      <trkpt lat="46.21134" lon="4.48204">
        <ele>894.351</ele>
        <time>2021-04-03T10:41:14Z</time>
      </trkpt>
      <trkpt lat="46.21121" lon="4.48197">
        <ele>895.198</ele>
        <time>2021-04-03T10:41:16Z</time>
      </trkpt>
      <trkpt lat="46.21109" lon="4.48191">
        <ele>894.465</ele>
        <time>2021-04-03T10:41:18Z</time>
      </trkpt>
      <trkpt lat="46.21098" lon="4.48183">
        <ele>893.668</ele>
        <time>2021-04-03T10:41:20Z</time>
      </trkpt>
      <trkpt lat="46.21089" lon="4.4817">
        <ele>893.414</ele>
        <time>2021-04-03T10:41:22Z</time>
      </trkpt>
      <trkpt lat="46.21077" lon="4.4816">
        <ele>892.308</ele>
        <time>2021-04-03T10:41:24Z</time>
      </trkpt>
      <trkpt lat="46.21064" lon="4.48157">
        <ele>891.432</ele>
        <time>2021-04-03T10:41:26Z</time>
      </trkpt>
      <trkpt lat="46.21048" lon="4.48149">
        <ele>890.275</ele>
        <time>2021-04-03T10:41:28Z</time>
      </trkpt>
      <trkpt lat="46.21033" lon="4.48144">
        <ele>889.034</ele>
        <time>2021-04-03T10:41:30Z</time>
      </trkpt>
      <trkpt lat="46.21019" lon="4.48137">
        <ele>887.966</ele>
        <time>2021-04-03T10:41:32Z</time>
      </trkpt>
      <trkpt lat="46.21014" lon="4.4813">
        <ele>887.518</ele>
        <time>2021-04-03T10:41:33Z</time>
      </trkpt>
      <trkpt lat="46.2101" lon="4.48126">
        <ele>887.244</ele>
        <time>2021-04-03T10:41:34Z</time>
      </trkpt>
      <trkpt lat="46.21006" lon="4.48112">
        <ele>886.511</ele>
        <time>2021-04-03T10:41:36Z</time>
      </trkpt>
      <trkpt lat="46.21002" lon="4.48104">
        <ele>885.098</ele>
        <time>2021-04-03T10:41:37Z</time>
      </trkpt>
      <trkpt lat="46.20999" lon="4.48097">
        <ele>883.736</ele>
        <time>2021-04-03T10:41:38Z</time>
      </trkpt>
      <trkpt lat="46.20995" lon="4.48089">
        <ele>882.017</ele>
        <time>2021-04-03T10:41:39Z</time>
      </trkpt>
      <trkpt lat="46.20989" lon="4.48073">
        <ele>881.118</ele>
        <time>2021-04-03T10:41:41Z</time>
      </trkpt>
      <trkpt lat="46.20986" lon="4.48065">
        <ele>879.308</ele>
        <time>2021-04-03T10:41:43Z</time>
      </trkpt>
      <trkpt lat="46.20984" lon="4.48059">
        <ele>877.719</ele>
        <time>2021-04-03T10:41:45Z</time>
      </trkpt>
      <trkpt lat="46.2098" lon="4.4805">
        <ele>876.912</ele>
        <time>2021-04-03T10:41:47Z</time>
      </trkpt>
      <trkpt lat="46.20981" lon="4.48043">
        <ele>876.371</ele>
        <time>2021-04-03T10:41:49Z</time>
      </trkpt>
      <trkpt lat="46.20977" lon="4.48035">
        <ele>876.593</ele>
        <time>2021-04-03T10:41:51Z</time>
      </trkpt>
      <trkpt lat="46.20967" lon="4.48024">
        <ele>876.455</ele>
        <time>2021-04-03T10:41:53Z</time>
      </trkpt>
      <trkpt lat="46.20959" lon="4.4801">
        <ele>875.441</ele>
        <time>2021-04-03T10:41:55Z</time>
      </trkpt>
      <trkpt lat="46.20955" lon="4.48001">
        <ele>873.828</ele>
        <time>2021-04-03T10:41:56Z</time>
      </trkpt>
      <trkpt lat="46.20948" lon="4.47981">
        <ele>871.995</ele>
        <time>2021-04-03T10:41:58Z</time>
      </trkpt>
      <trkpt lat="46.2094" lon="4.47962">
        <ele>870.392</ele>
        <time>2021-04-03T10:42:00Z</time>
      </trkpt>
      <trkpt lat="46.20937" lon="4.47955">
        <ele>869.373</ele>
        <time>2021-04-03T10:42:01Z</time>
      </trkpt>
      <trkpt lat="46.20928" lon="4.47941">
        <ele>867.92</ele>
        <time>2021-04-03T10:42:03Z</time>
      </trkpt>
      <trkpt lat="46.20925" lon="4.47931">
        <ele>867.308</ele>
        <time>2021-04-03T10:42:04Z</time>
      </trkpt>
      <trkpt lat="46.2092" lon="4.47906">
        <ele>866.475</ele>
        <time>2021-04-03T10:42:06Z</time>
      </trkpt>
      <trkpt lat="46.20918" lon="4.47894">
        <ele>865.538</ele>
        <time>2021-04-03T10:42:07Z</time>
      </trkpt>
      <trkpt lat="46.20914" lon="4.47874">
        <ele>865.577</ele>
        <time>2021-04-03T10:42:09Z</time>
      </trkpt>
      <trkpt lat="46.20912" lon="4.47864">
        <ele>863.859</ele>
        <time>2021-04-03T10:42:10Z</time>
      </trkpt>
      <trkpt lat="46.20911" lon="4.47855">
        <ele>861.041</ele>
        <time>2021-04-03T10:42:11Z</time>
      </trkpt>
      <trkpt lat="46.20907" lon="4.47845">
        <ele>859.187</ele>
        <time>2021-04-03T10:42:12Z</time>
      </trkpt>
      <trkpt lat="46.209" lon="4.47827">
        <ele>855.544</ele>
        <time>2021-04-03T10:42:14Z</time>
      </trkpt>
      <trkpt lat="46.20894" lon="4.47809">
        <ele>851.831</ele>
        <time>2021-04-03T10:42:16Z</time>
      </trkpt>
      <trkpt lat="46.20887" lon="4.47792">
        <ele>849.269</ele>
        <time>2021-04-03T10:42:18Z</time>
      </trkpt>
      <trkpt lat="46.20881" lon="4.47779">
        <ele>846.204</ele>
        <time>2021-04-03T10:42:20Z</time>
      </trkpt>
      <trkpt lat="46.20879" lon="4.47771">
        <ele>844.424</ele>
        <time>2021-04-03T10:42:23Z</time>
      </trkpt>
      <trkpt lat="46.20875" lon="4.47766">
        <ele>840.908</ele>
        <time>2021-04-03T10:42:37Z</time>
      </trkpt>
      <trkpt lat="46.20877" lon="4.47775">
        <ele>838.712</ele>
        <time>2021-04-03T10:42:41Z</time>
      </trkpt>
      <trkpt lat="46.20887" lon="4.4779">
        <ele>837.715</ele>
        <time>2021-04-03T10:42:42Z</time>
      </trkpt>
      <trkpt lat="46.20892" lon="4.47801">
        <ele>837.414</ele>
        <time>2021-04-03T10:42:43Z</time>
      </trkpt>
      <trkpt lat="46.20897" lon="4.47809">
        <ele>837.576</ele>
        <time>2021-04-03T10:42:44Z</time>
      </trkpt>
      <trkpt lat="46.20907" lon="4.47831">
        <ele>837.598</ele>
        <time>2021-04-03T10:42:46Z</time>
      </trkpt>
      <trkpt lat="46.20912" lon="4.47846">
        <ele>837.624</ele>
        <time>2021-04-03T10:42:47Z</time>
      </trkpt>
      <trkpt lat="46.2092" lon="4.47868">
        <ele>839.131</ele>
        <time>2021-04-03T10:42:49Z</time>
      </trkpt>
      <trkpt lat="46.20922" lon="4.47878">
        <ele>840.058</ele>
        <time>2021-04-03T10:42:50Z</time>
      </trkpt>
      <trkpt lat="46.20923" lon="4.47889">
        <ele>841.888</ele>
        <time>2021-04-03T10:42:51Z</time>
      </trkpt>
      <trkpt lat="46.20924" lon="4.47905">
        <ele>843.024</ele>
        <time>2021-04-03T10:42:52Z</time>
      </trkpt>
      <trkpt lat="46.20928" lon="4.47937">
        <ele>843.426</ele>
        <time>2021-04-03T10:42:54Z</time>
      </trkpt>
      <trkpt lat="46.20933" lon="4.47951">
        <ele>844.208</ele>
        <time>2021-04-03T10:42:55Z</time>
      </trkpt>
      <trkpt lat="46.20943" lon="4.4797">
        <ele>846.544</ele>
        <time>2021-04-03T10:42:57Z</time>
      </trkpt>
      <trkpt lat="46.20948" lon="4.47981">
        <ele>848.977</ele>
        <time>2021-04-03T10:42:58Z</time>
      </trkpt>
      <trkpt lat="46.20961" lon="4.48011">
        <ele>851.326</ele>
        <time>2021-04-03T10:43:00Z</time>
      </trkpt>
      <trkpt lat="46.20973" lon="4.48034">
        <ele>853.898</ele>
        <time>2021-04-03T10:43:02Z</time>
      </trkpt>
      <trkpt lat="46.20979" lon="4.48045">
        <ele>857.25</ele>
        <time>2021-04-03T10:43:03Z</time>
      </trkpt>
      <trkpt lat="46.2099" lon="4.48067">
        <ele>860.146</ele>
        <time>2021-04-03T10:43:05Z</time>
      </trkpt>
      <trkpt lat="46.20993" lon="4.48077">
        <ele>862.463</ele>
        <time>2021-04-03T10:43:06Z</time>
      </trkpt>
      <trkpt lat="46.20996" lon="4.48088">
        <ele>863.69</ele>
        <time>2021-04-03T10:43:07Z</time>
      </trkpt>
      <trkpt lat="46.20999" lon="4.481">
        <ele>864.672</ele>
        <time>2021-04-03T10:43:08Z</time>
      </trkpt>
      <trkpt lat="46.21008" lon="4.48116">
        <ele>866.913</ele>
        <time>2021-04-03T10:43:10Z</time>
      </trkpt>
      <trkpt lat="46.21009" lon="4.48123">
        <ele>869.414</ele>
        <time>2021-04-03T10:43:12Z</time>
      </trkpt>
      <trkpt lat="46.21002" lon="4.48125">
        <ele>872.308</ele>
        <time>2021-04-03T10:43:15Z</time>
      </trkpt>
      <trkpt lat="46.20994" lon="4.48125">
        <ele>876.313</ele>
        <time>2021-04-03T10:43:17Z</time>
      </trkpt>
      <trkpt lat="46.20986" lon="4.48124">
        <ele>878.816</ele>
        <time>2021-04-03T10:43:19Z</time>
      </trkpt>
      <trkpt lat="46.2098" lon="4.48123">
        <ele>880.625</ele>
        <time>2021-04-03T10:43:21Z</time>
      </trkpt>
      <trkpt lat="46.20975" lon="4.48122">
        <ele>882.897</ele>
        <time>2021-04-03T10:43:23Z</time>
      </trkpt>
      <trkpt lat="46.20962" lon="4.48116">
        <ele>883.979</ele>
        <time>2021-04-03T10:43:28Z</time>
      </trkpt>
      <trkpt lat="46.20942" lon="4.48107">
        <ele>885.845</ele>
        <time>2021-04-03T10:43:30Z</time>
      </trkpt>
      <trkpt lat="46.20921" lon="4.48097">
        <ele>886.452</ele>
        <time>2021-04-03T10:43:32Z</time>
      </trkpt>
      <trkpt lat="46.20911" lon="4.4809">
        <ele>886.649</ele>
        <time>2021-04-03T10:43:33Z</time>
      </trkpt>
      <trkpt lat="46.20895" lon="4.48079">
        <ele>886.943</ele>
        <time>2021-04-03T10:43:35Z</time>
      </trkpt>
      <trkpt lat="46.20881" lon="4.4807">
        <ele>887.464</ele>
        <time>2021-04-03T10:43:37Z</time>
      </trkpt>
      <trkpt lat="46.20864" lon="4.48063">
        <ele>888.01</ele>
        <time>2021-04-03T10:43:39Z</time>
      </trkpt>
      <trkpt lat="46.20849" lon="4.48054">
        <ele>888.208</ele>
        <time>2021-04-03T10:43:41Z</time>
      </trkpt>
      <trkpt lat="46.20832" lon="4.48041">
        <ele>888.09</ele>
        <time>2021-04-03T10:43:43Z</time>
      </trkpt>
      <trkpt lat="46.2082" lon="4.48029">
        <ele>887.123</ele>
        <time>2021-04-03T10:43:45Z</time>
      </trkpt>
      <trkpt lat="46.20814" lon="4.48024">
        <ele>886.472</ele>
        <time>2021-04-03T10:43:46Z</time>
      </trkpt>
      <trkpt lat="46.20807" lon="4.48021">
        <ele>885.764</ele>
        <time>2021-04-03T10:43:47Z</time>
      </trkpt>
      <trkpt lat="46.20794" lon="4.48017">
        <ele>885.186</ele>
        <time>2021-04-03T10:43:49Z</time>
      </trkpt>
      <trkpt lat="46.20789" lon="4.48017">
        <ele>885.062</ele>
        <time>2021-04-03T10:43:50Z</time>
      </trkpt>
      <trkpt lat="46.20783" lon="4.48018">
        <ele>885.729</ele>
        <time>2021-04-03T10:43:51Z</time>
      </trkpt>
      <trkpt lat="46.20777" lon="4.4802">
        <ele>886.186</ele>
        <time>2021-04-03T10:43:52Z</time>
      </trkpt>
      <trkpt lat="46.20771" lon="4.4802">
        <ele>886.415</ele>
        <time>2021-04-03T10:43:54Z</time>
      </trkpt>
      <trkpt lat="46.20765" lon="4.48021">
        <ele>886.665</ele>
        <time>2021-04-03T10:43:56Z</time>
      </trkpt>
      <trkpt lat="46.20757" lon="4.48019">
        <ele>884.011</ele>
        <time>2021-04-03T10:43:58Z</time>
      </trkpt>
      <trkpt lat="46.20748" lon="4.48019">
        <ele>884.108</ele>
        <time>2021-04-03T10:44:00Z</time>
      </trkpt>
      <trkpt lat="46.20743" lon="4.4802">
        <ele>885.037</ele>
        <time>2021-04-03T10:44:03Z</time>
      </trkpt>
      <trkpt lat="46.20739" lon="4.4802">
        <ele>888.37</ele>
        <time>2021-04-03T10:44:04Z</time>
      </trkpt>
      <trkpt lat="46.20731" lon="4.48022">
        <ele>889.969</ele>
        <time>2021-04-03T10:44:05Z</time>
      </trkpt>
      <trkpt lat="46.20725" lon="4.48022">
        <ele>890.911</ele>
        <time>2021-04-03T10:44:06Z</time>
      </trkpt>
      <trkpt lat="46.2072" lon="4.48022">
        <ele>892.313</ele>
        <time>2021-04-03T10:44:07Z</time>
      </trkpt>
      <trkpt lat="46.20714" lon="4.48018">
        <ele>892.619</ele>
        <time>2021-04-03T10:44:10Z</time>
      </trkpt>
      <trkpt lat="46.20709" lon="4.48019">
        <ele>892.896</ele>
        <time>2021-04-03T10:44:12Z</time>
      </trkpt>
      <trkpt lat="46.20704" lon="4.48019">
        <ele>895.073</ele>
        <time>2021-04-03T10:44:31Z</time>
      </trkpt>
      <trkpt lat="46.20696" lon="4.48022">
        <ele>896.573</ele>
        <time>2021-04-03T10:44:40Z</time>
      </trkpt>
      <trkpt lat="46.2069" lon="4.48022">
        <ele>897.585</ele>
        <time>2021-04-03T10:44:41Z</time>
      </trkpt>
      <trkpt lat="46.20681" lon="4.48026">
        <ele>898.213</ele>
        <time>2021-04-03T10:44:42Z</time>
      </trkpt>
      <trkpt lat="46.20658" lon="4.48042">
        <ele>898.608</ele>
        <time>2021-04-03T10:44:44Z</time>
      </trkpt>
      <trkpt lat="46.20649" lon="4.48049">
        <ele>894.633</ele>
        <time>2021-04-03T10:44:45Z</time>
      </trkpt>
      <trkpt lat="46.20641" lon="4.48055">
        <ele>890.626</ele>
        <time>2021-04-03T10:44:46Z</time>
      </trkpt>
      <trkpt lat="46.20629" lon="4.48066">
        <ele>888.335</ele>
        <time>2021-04-03T10:44:48Z</time>
      </trkpt>
      <trkpt lat="46.20618" lon="4.48075">
        <ele>888.317</ele>
        <time>2021-04-03T10:44:50Z</time>
      </trkpt>
      <trkpt lat="46.20614" lon="4.4808">
        <ele>888.549</ele>
        <time>2021-04-03T10:44:51Z</time>
      </trkpt>
      <trkpt lat="46.20608" lon="4.4809">
        <ele>889.045</ele>
        <time>2021-04-03T10:44:53Z</time>
      </trkpt>
      <trkpt lat="46.2061" lon="4.48099">
        <ele>892.082</ele>
        <time>2021-04-03T10:45:08Z</time>
      </trkpt>
      <trkpt lat="46.20613" lon="4.48109">
        <ele>894.349</ele>
        <time>2021-04-03T10:45:10Z</time>
      </trkpt>
      <trkpt lat="46.20616" lon="4.48114">
        <ele>897.484</ele>
        <time>2021-04-03T10:45:13Z</time>
      </trkpt>
      <trkpt lat="46.20621" lon="4.4812">
        <ele>899.907</ele>
        <time>2021-04-03T10:45:15Z</time>
      </trkpt>
      <trkpt lat="46.20625" lon="4.48127">
        <ele>901.617</ele>
        <time>2021-04-03T10:45:17Z</time>
      </trkpt>
      <trkpt lat="46.2063" lon="4.48132">
        <ele>902.908</ele>
        <time>2021-04-03T10:45:18Z</time>
      </trkpt>
      <trkpt lat="46.20633" lon="4.48137">
        <ele>904.584</ele>
        <time>2021-04-03T10:45:19Z</time>
      </trkpt>
      <trkpt lat="46.20638" lon="4.4814">
        <ele>905.827</ele>
        <time>2021-04-03T10:45:20Z</time>
      </trkpt>
      <trkpt lat="46.20647" lon="4.48145">
        <ele>907.526</ele>
        <time>2021-04-03T10:45:22Z</time>
      </trkpt>
      <trkpt lat="46.20658" lon="4.48153">
        <ele>909.428</ele>
        <time>2021-04-03T10:45:24Z</time>
      </trkpt>
      <trkpt lat="46.20663" lon="4.48157">
        <ele>910.94</ele>
        <time>2021-04-03T10:45:25Z</time>
      </trkpt>
      <trkpt lat="46.20666" lon="4.48163">
        <ele>912.576</ele>
        <time>2021-04-03T10:45:26Z</time>
      </trkpt>
      <trkpt lat="46.20671" lon="4.4817">
        <ele>913.473</ele>
        <time>2021-04-03T10:45:27Z</time>
      </trkpt>
      <trkpt lat="46.20681" lon="4.4818">
        <ele>914.98</ele>
        <time>2021-04-03T10:45:29Z</time>
      </trkpt>
      <trkpt lat="46.20688" lon="4.48187">
        <ele>916.169</ele>
        <time>2021-04-03T10:45:31Z</time>
      </trkpt>
      <trkpt lat="46.20697" lon="4.48193">
        <ele>917.304</ele>
        <time>2021-04-03T10:45:33Z</time>
      </trkpt>
      <trkpt lat="46.20702" lon="4.48198">
        <ele>918.024</ele>
        <time>2021-04-03T10:45:34Z</time>
      </trkpt>
      <trkpt lat="46.20708" lon="4.48205">
        <ele>919.108</ele>
        <time>2021-04-03T10:45:36Z</time>
      </trkpt>
      <trkpt lat="46.2071" lon="4.48217">
        <ele>919.462</ele>
        <time>2021-04-03T10:45:38Z</time>
      </trkpt>
      <trkpt lat="46.20711" lon="4.48227">
        <ele>920.485</ele>
        <time>2021-04-03T10:45:40Z</time>
      </trkpt>
      <trkpt lat="46.20704" lon="4.48246">
        <ele>921.454</ele>
        <time>2021-04-03T10:45:42Z</time>
      </trkpt>
      <trkpt lat="46.20697" lon="4.48261">
        <ele>921.666</ele>
        <time>2021-04-03T10:45:43Z</time>
      </trkpt>
      <trkpt lat="46.20682" lon="4.48291">
        <ele>922.858</ele>
        <time>2021-04-03T10:45:45Z</time>
      </trkpt>
      <trkpt lat="46.20666" lon="4.48318">
        <ele>924.584</ele>
        <time>2021-04-03T10:45:47Z</time>
      </trkpt>
      <trkpt lat="46.20658" lon="4.4833">
        <ele>925.481</ele>
        <time>2021-04-03T10:45:48Z</time>
      </trkpt>
      <trkpt lat="46.20644" lon="4.48348">
        <ele>927.558</ele>
        <time>2021-04-03T10:45:50Z</time>
      </trkpt>
      <trkpt lat="46.20628" lon="4.4837">
        <ele>928.539</ele>
        <time>2021-04-03T10:45:52Z</time>
      </trkpt>
      <trkpt lat="46.20618" lon="4.48382">
        <ele>928.801</ele>
        <time>2021-04-03T10:45:53Z</time>
      </trkpt>
      <trkpt lat="46.20609" lon="4.48394">
        <ele>928.921</ele>
        <time>2021-04-03T10:45:54Z</time>
      </trkpt>
      <trkpt lat="46.20601" lon="4.48406">
        <ele>929.708</ele>
        <time>2021-04-03T10:45:55Z</time>
      </trkpt>
      <trkpt lat="46.20595" lon="4.48418">
        <ele>930.679</ele>
        <time>2021-04-03T10:45:56Z</time>
      </trkpt>
      <trkpt lat="46.20582" lon="4.48434">
        <ele>931.712</ele>
        <time>2021-04-03T10:45:58Z</time>
      </trkpt>
      <trkpt lat="46.20575" lon="4.48448">
        <ele>933.351</ele>
        <time>2021-04-03T10:46:00Z</time>
      </trkpt>
      <trkpt lat="46.2057" lon="4.4847">
        <ele>934.343</ele>
        <time>2021-04-03T10:46:02Z</time>
      </trkpt>
      <trkpt lat="46.20562" lon="4.485">
        <ele>930.375</ele>
        <time>2021-04-03T10:46:04Z</time>
      </trkpt>
      <trkpt lat="46.20553" lon="4.48525">
        <ele>926.341</ele>
        <time>2021-04-03T10:46:06Z</time>
      </trkpt>
      <trkpt lat="46.20545" lon="4.48546">
        <ele>925.438</ele>
        <time>2021-04-03T10:46:08Z</time>
      </trkpt>
      <trkpt lat="46.20541" lon="4.48554">
        <ele>925.865</ele>
        <time>2021-04-03T10:46:09Z</time>
      </trkpt>
      <trkpt lat="46.20534" lon="4.48567">
        <ele>927.338</ele>
        <time>2021-04-03T10:46:11Z</time>
      </trkpt>
      <trkpt lat="46.20531" lon="4.48575">
        <ele>930.37</ele>
        <time>2021-04-03T10:46:13Z</time>
      </trkpt>
      <trkpt lat="46.20528" lon="4.48584">
        <ele>933.417</ele>
        <time>2021-04-03T10:46:15Z</time>
      </trkpt>
      <trkpt lat="46.20522" lon="4.48593">
        <ele>936.008</ele>
        <time>2021-04-03T10:46:17Z</time>
      </trkpt>
      <trkpt lat="46.20513" lon="4.48601">
        <ele>939.299</ele>
        <time>2021-04-03T10:46:19Z</time>
      </trkpt>
      <trkpt lat="46.20507" lon="4.48605">
        <ele>941.862</ele>
        <time>2021-04-03T10:46:20Z</time>
      </trkpt>
      <trkpt lat="46.20495" lon="4.48614">
        <ele>943.041</ele>
        <time>2021-04-03T10:46:22Z</time>
      </trkpt>
      <trkpt lat="46.20489" lon="4.4862">
        <ele>944.233</ele>
        <time>2021-04-03T10:46:23Z</time>
      </trkpt>
      <trkpt lat="46.20485" lon="4.48627">
        <ele>944.915</ele>
        <time>2021-04-03T10:46:24Z</time>
      </trkpt>
      <trkpt lat="46.20483" lon="4.48633">
        <ele>940.991</ele>
        <time>2021-04-03T10:46:25Z</time>
      </trkpt>
      <trkpt lat="46.20482" lon="4.4864">
        <ele>937.898</ele>
        <time>2021-04-03T10:46:26Z</time>
      </trkpt>
      <trkpt lat="46.20481" lon="4.48659">
        <ele>938.765</ele>
        <time>2021-04-03T10:46:29Z</time>
      </trkpt>
      <trkpt lat="46.20481" lon="4.4867">
        <ele>940.982</ele>
        <time>2021-04-03T10:46:30Z</time>
      </trkpt>
      <trkpt lat="46.2048" lon="4.48692">
        <ele>942.743</ele>
        <time>2021-04-03T10:46:32Z</time>
      </trkpt>
      <trkpt lat="46.2048" lon="4.48704">
        <ele>943.917</ele>
        <time>2021-04-03T10:46:33Z</time>
      </trkpt>
      <trkpt lat="46.20482" lon="4.48724">
        <ele>944.308</ele>
        <time>2021-04-03T10:46:35Z</time>
      </trkpt>
      <trkpt lat="46.20486" lon="4.48742">
        <ele>944.294</ele>
        <time>2021-04-03T10:46:37Z</time>
      </trkpt>
      <trkpt lat="46.20487" lon="4.48749">
        <ele>943.747</ele>
        <time>2021-04-03T10:46:38Z</time>
      </trkpt>
      <trkpt lat="46.20489" lon="4.48756">
        <ele>943.786</ele>
        <time>2021-04-03T10:46:39Z</time>
      </trkpt>
      <trkpt lat="46.20491" lon="4.48763">
        <ele>943.528</ele>
        <time>2021-04-03T10:46:40Z</time>
      </trkpt>
      <trkpt lat="46.20495" lon="4.48778">
        <ele>943.93</ele>
        <time>2021-04-03T10:46:42Z</time>
      </trkpt>
      <trkpt lat="46.20503" lon="4.48792">
        <ele>943.436</ele>
        <time>2021-04-03T10:46:44Z</time>
      </trkpt>
      <trkpt lat="46.20506" lon="4.48809">
        <ele>943.983</ele>
        <time>2021-04-03T10:46:46Z</time>
      </trkpt>
      <trkpt lat="46.20506" lon="4.48818">
        <ele>944.33</ele>
        <time>2021-04-03T10:46:47Z</time>
      </trkpt>
      <trkpt lat="46.20506" lon="4.48827">
        <ele>943.617</ele>
        <time>2021-04-03T10:46:48Z</time>
      </trkpt>
      <trkpt lat="46.20505" lon="4.48844">
        <ele>942.287</ele>
        <time>2021-04-03T10:46:50Z</time>
      </trkpt>
      <trkpt lat="46.20501" lon="4.48862">
        <ele>940.415</ele>
        <time>2021-04-03T10:46:52Z</time>
      </trkpt>
      <trkpt lat="46.20501" lon="4.48862">
        <ele>940.408</ele>
        <time>2021-04-03T10:46:52Z</time>
      </trkpt>
      <trkpt lat="46.20497" lon="4.48872">
        <ele>939.647</ele>
        <time>2021-04-03T10:46:53Z</time>
      </trkpt>
      <trkpt lat="46.20487" lon="4.48891">
        <ele>938.32</ele>
        <time>2021-04-03T10:46:55Z</time>
      </trkpt>
      <trkpt lat="46.20481" lon="4.48903">
        <ele>937.289</ele>
        <time>2021-04-03T10:46:56Z</time>
      </trkpt>
      <trkpt lat="46.20478" lon="4.48914">
        <ele>936.161</ele>
        <time>2021-04-03T10:46:57Z</time>
      </trkpt>
      <trkpt lat="46.20475" lon="4.48924">
        <ele>934.813</ele>
        <time>2021-04-03T10:46:58Z</time>
      </trkpt>
      <trkpt lat="46.20468" lon="4.48941">
        <ele>932.359</ele>
        <time>2021-04-03T10:47:00Z</time>
      </trkpt>
      <trkpt lat="46.20465" lon="4.4895">
        <ele>930.626</ele>
        <time>2021-04-03T10:47:01Z</time>
      </trkpt>
      <trkpt lat="46.20458" lon="4.48969">
        <ele>929.833</ele>
        <time>2021-04-03T10:47:03Z</time>
      </trkpt>
      <trkpt lat="46.20447" lon="4.48987">
        <ele>928.579</ele>
        <time>2021-04-03T10:47:05Z</time>
      </trkpt>
      <trkpt lat="46.20441" lon="4.48996">
        <ele>927.305</ele>
        <time>2021-04-03T10:47:06Z</time>
      </trkpt>
      <trkpt lat="46.20432" lon="4.49014">
        <ele>926.625</ele>
        <time>2021-04-03T10:47:08Z</time>
      </trkpt>
      <trkpt lat="46.20424" lon="4.49032">
        <ele>925.308</ele>
        <time>2021-04-03T10:47:10Z</time>
      </trkpt>
      <trkpt lat="46.20417" lon="4.49041">
        <ele>923.823</ele>
        <time>2021-04-03T10:47:11Z</time>
      </trkpt>
      <trkpt lat="46.20411" lon="4.49049">
        <ele>923.366</ele>
        <time>2021-04-03T10:47:12Z</time>
      </trkpt>
      <trkpt lat="46.20403" lon="4.49067">
        <ele>922.925</ele>
        <time>2021-04-03T10:47:14Z</time>
      </trkpt>
      <trkpt lat="46.204" lon="4.49077">
        <ele>922.777</ele>
        <time>2021-04-03T10:47:15Z</time>
      </trkpt>
      <trkpt lat="46.20396" lon="4.49088">
        <ele>923.049</ele>
        <time>2021-04-03T10:47:16Z</time>
      </trkpt>
      <trkpt lat="46.20388" lon="4.49111">
        <ele>922.245</ele>
        <time>2021-04-03T10:47:18Z</time>
      </trkpt>
      <trkpt lat="46.20381" lon="4.49136">
        <ele>921.872</ele>
        <time>2021-04-03T10:47:20Z</time>
      </trkpt>
      <trkpt lat="46.20379" lon="4.49147">
        <ele>920.859</ele>
        <time>2021-04-03T10:47:21Z</time>
      </trkpt>
      <trkpt lat="46.20374" lon="4.49166">
        <ele>919.628</ele>
        <time>2021-04-03T10:47:23Z</time>
      </trkpt>
      <trkpt lat="46.20367" lon="4.49188">
        <ele>918.589</ele>
        <time>2021-04-03T10:47:25Z</time>
      </trkpt>
      <trkpt lat="46.20362" lon="4.492">
        <ele>917.417</ele>
        <time>2021-04-03T10:47:26Z</time>
      </trkpt>
      <trkpt lat="46.20353" lon="4.4922">
        <ele>917.008</ele>
        <time>2021-04-03T10:47:28Z</time>
      </trkpt>
      <trkpt lat="46.20347" lon="4.49231">
        <ele>916.468</ele>
        <time>2021-04-03T10:47:29Z</time>
      </trkpt>
      <trkpt lat="46.20337" lon="4.49246">
        <ele>916.021</ele>
        <time>2021-04-03T10:47:31Z</time>
      </trkpt>
      <trkpt lat="46.20324" lon="4.49262">
        <ele>915.09</ele>
        <time>2021-04-03T10:47:33Z</time>
      </trkpt>
      <trkpt lat="46.20311" lon="4.49278">
        <ele>914.082</ele>
        <time>2021-04-03T10:47:35Z</time>
      </trkpt>
      <trkpt lat="46.20305" lon="4.49285">
        <ele>913.564</ele>
        <time>2021-04-03T10:47:36Z</time>
      </trkpt>
      <trkpt lat="46.20294" lon="4.493">
        <ele>912.58</ele>
        <time>2021-04-03T10:47:38Z</time>
      </trkpt>
      <trkpt lat="46.20285" lon="4.49306">
        <ele>910.747</ele>
        <time>2021-04-03T10:47:39Z</time>
      </trkpt>
      <trkpt lat="46.20268" lon="4.49316">
        <ele>908.724</ele>
        <time>2021-04-03T10:47:41Z</time>
      </trkpt>
      <trkpt lat="46.20259" lon="4.4932">
        <ele>907.386</ele>
        <time>2021-04-03T10:47:42Z</time>
      </trkpt>
      <trkpt lat="46.20251" lon="4.49325">
        <ele>906.26</ele>
        <time>2021-04-03T10:47:43Z</time>
      </trkpt>
      <trkpt lat="46.20236" lon="4.49338">
        <ele>905.026</ele>
        <time>2021-04-03T10:47:45Z</time>
      </trkpt>
      <trkpt lat="46.2022" lon="4.49362">
        <ele>902.908</ele>
        <time>2021-04-03T10:47:47Z</time>
      </trkpt>
      <trkpt lat="46.20211" lon="4.49372">
        <ele>901.374</ele>
        <time>2021-04-03T10:47:48Z</time>
      </trkpt>
      <trkpt lat="46.20192" lon="4.49393">
        <ele>900.297</ele>
        <time>2021-04-03T10:47:50Z</time>
      </trkpt>
      <trkpt lat="46.20173" lon="4.49409">
        <ele>899.786</ele>
        <time>2021-04-03T10:47:52Z</time>
      </trkpt>
      <trkpt lat="46.20163" lon="4.49415">
        <ele>899.518</ele>
        <time>2021-04-03T10:47:53Z</time>
      </trkpt>
      <trkpt lat="46.20147" lon="4.49426">
        <ele>898.65</ele>
        <time>2021-04-03T10:47:55Z</time>
      </trkpt>
      <trkpt lat="46.20132" lon="4.49437">
        <ele>898.076</ele>
        <time>2021-04-03T10:47:57Z</time>
      </trkpt>
      <trkpt lat="46.20124" lon="4.49444">
        <ele>896.543</ele>
        <time>2021-04-03T10:47:58Z</time>
      </trkpt>
      <trkpt lat="46.20116" lon="4.49449">
        <ele>895.62</ele>
        <time>2021-04-03T10:47:59Z</time>
      </trkpt>
      <trkpt lat="46.201" lon="4.49458">
        <ele>894.832</ele>
        <time>2021-04-03T10:48:01Z</time>
      </trkpt>
      <trkpt lat="46.20093" lon="4.49461">
        <ele>893.992</ele>
        <time>2021-04-03T10:48:02Z</time>
      </trkpt>
      <trkpt lat="46.20081" lon="4.49471">
        <ele>893.411</ele>
        <time>2021-04-03T10:48:04Z</time>
      </trkpt>
      <trkpt lat="46.20077" lon="4.49478">
        <ele>893.208</ele>
        <time>2021-04-03T10:48:05Z</time>
      </trkpt>
      <trkpt lat="46.2007" lon="4.49494">
        <ele>893.929</ele>
        <time>2021-04-03T10:48:07Z</time>
      </trkpt>
      <trkpt lat="46.20068" lon="4.49504">
        <ele>894.082</ele>
        <time>2021-04-03T10:48:08Z</time>
      </trkpt>
      <trkpt lat="46.20064" lon="4.49521">
        <ele>894.571</ele>
        <time>2021-04-03T10:48:10Z</time>
      </trkpt>
      <trkpt lat="46.20063" lon="4.4953">
        <ele>894.443</ele>
        <time>2021-04-03T10:48:11Z</time>
      </trkpt>
      <trkpt lat="46.20057" lon="4.49554">
        <ele>893.935</ele>
        <time>2021-04-03T10:48:13Z</time>
      </trkpt>
      <trkpt lat="46.20055" lon="4.49578">
        <ele>893.861</ele>
        <time>2021-04-03T10:48:15Z</time>
      </trkpt>
      <trkpt lat="46.20055" lon="4.49592">
        <ele>893.798</ele>
        <time>2021-04-03T10:48:16Z</time>
      </trkpt>
      <trkpt lat="46.20052" lon="4.49606">
        <ele>893.275</ele>
        <time>2021-04-03T10:48:17Z</time>
      </trkpt>
      <trkpt lat="46.2005" lon="4.49627">
        <ele>892.931</ele>
        <time>2021-04-03T10:48:19Z</time>
      </trkpt>
      <trkpt lat="46.20048" lon="4.49646">
        <ele>891.261</ele>
        <time>2021-04-03T10:48:21Z</time>
      </trkpt>
      <trkpt lat="46.20042" lon="4.49667">
        <ele>890.607</ele>
        <time>2021-04-03T10:48:23Z</time>
      </trkpt>
      <trkpt lat="46.20033" lon="4.49687">
        <ele>889.408</ele>
        <time>2021-04-03T10:48:25Z</time>
      </trkpt>
      <trkpt lat="46.20028" lon="4.49696">
        <ele>888.689</ele>
        <time>2021-04-03T10:48:26Z</time>
      </trkpt>
      <trkpt lat="46.20019" lon="4.49715">
        <ele>889.242</ele>
        <time>2021-04-03T10:48:28Z</time>
      </trkpt>
      <trkpt lat="46.20016" lon="4.49723">
        <ele>888.721</ele>
        <time>2021-04-03T10:48:29Z</time>
      </trkpt>
      <trkpt lat="46.20011" lon="4.49731">
        <ele>887.683</ele>
        <time>2021-04-03T10:48:30Z</time>
      </trkpt>
      <trkpt lat="46.20002" lon="4.49747">
        <ele>887.135</ele>
        <time>2021-04-03T10:48:32Z</time>
      </trkpt>
      <trkpt lat="46.19993" lon="4.49762">
        <ele>886.041</ele>
        <time>2021-04-03T10:48:34Z</time>
      </trkpt>
      <trkpt lat="46.19989" lon="4.4977">
        <ele>884.038</ele>
        <time>2021-04-03T10:48:35Z</time>
      </trkpt>
      <trkpt lat="46.19984" lon="4.49787">
        <ele>888.065</ele>
        <time>2021-04-03T10:48:37Z</time>
      </trkpt>
      <trkpt lat="46.19983" lon="4.49794">
        <ele>891.193</ele>
        <time>2021-04-03T10:48:38Z</time>
      </trkpt>
      <trkpt lat="46.19982" lon="4.49803">
        <ele>890.865</ele>
        <time>2021-04-03T10:48:40Z</time>
      </trkpt>
      <trkpt lat="46.19987" lon="4.49809">
        <ele>890.621</ele>
        <time>2021-04-03T10:48:48Z</time>
      </trkpt>
      <trkpt lat="46.19989" lon="4.49817">
        <ele>886.608</ele>
        <time>2021-04-03T10:48:49Z</time>
      </trkpt>
      <trkpt lat="46.19996" lon="4.49839">
        <ele>883.185</ele>
        <time>2021-04-03T10:48:51Z</time>
      </trkpt>
      <trkpt lat="46.19999" lon="4.49851">
        <ele>881.028</ele>
        <time>2021-04-03T10:48:52Z</time>
      </trkpt>
      <trkpt lat="46.20006" lon="4.49876">
        <ele>880.047</ele>
        <time>2021-04-03T10:48:54Z</time>
      </trkpt>
      <trkpt lat="46.20009" lon="4.49888">
        <ele>879.539</ele>
        <time>2021-04-03T10:48:55Z</time>
      </trkpt>
      <trkpt lat="46.20017" lon="4.4991">
        <ele>879.151</ele>
        <time>2021-04-03T10:48:57Z</time>
      </trkpt>
      <trkpt lat="46.20021" lon="4.49921">
        <ele>878.617</ele>
        <time>2021-04-03T10:48:58Z</time>
      </trkpt>
      <trkpt lat="46.2003" lon="4.49949">
        <ele>877.254</ele>
        <time>2021-04-03T10:49:00Z</time>
      </trkpt>
      <trkpt lat="46.20036" lon="4.4998">
        <ele>874.731</ele>
        <time>2021-04-03T10:49:02Z</time>
      </trkpt>
      <trkpt lat="46.20038" lon="4.49995">
        <ele>873.212</ele>
        <time>2021-04-03T10:49:03Z</time>
      </trkpt>
      <trkpt lat="46.2004" lon="4.5001">
        <ele>872.532</ele>
        <time>2021-04-03T10:49:04Z</time>
      </trkpt>
      <trkpt lat="46.20043" lon="4.50042">
        <ele>870.905</ele>
        <time>2021-04-03T10:49:06Z</time>
      </trkpt>
      <trkpt lat="46.20044" lon="4.50057">
        <ele>868.308</ele>
        <time>2021-04-03T10:49:07Z</time>
      </trkpt>
      <trkpt lat="46.20047" lon="4.50088">
        <ele>866.987</ele>
        <time>2021-04-03T10:49:09Z</time>
      </trkpt>
      <trkpt lat="46.20048" lon="4.50102">
        <ele>865.75</ele>
        <time>2021-04-03T10:49:10Z</time>
      </trkpt>
      <trkpt lat="46.2005" lon="4.50115">
        <ele>864.749</ele>
        <time>2021-04-03T10:49:11Z</time>
      </trkpt>
      <trkpt lat="46.20053" lon="4.50136">
        <ele>862.891</ele>
        <time>2021-04-03T10:49:13Z</time>
      </trkpt>
      <trkpt lat="46.20054" lon="4.50142">
        <ele>861.633</ele>
        <time>2021-04-03T10:49:14Z</time>
      </trkpt>
      <trkpt lat="46.20056" lon="4.50148">
        <ele>861.429</ele>
        <time>2021-04-03T10:49:15Z</time>
      </trkpt>
      <trkpt lat="46.2006" lon="4.50152">
        <ele>861.156</ele>
        <time>2021-04-03T10:49:16Z</time>
      </trkpt>
      <trkpt lat="46.20071" lon="4.50155">
        <ele>862.233</ele>
        <time>2021-04-03T10:49:18Z</time>
      </trkpt>
      <trkpt lat="46.20076" lon="4.50152">
        <ele>863.726</ele>
        <time>2021-04-03T10:49:19Z</time>
      </trkpt>
      <trkpt lat="46.20082" lon="4.50149">
        <ele>864.847</ele>
        <time>2021-04-03T10:49:20Z</time>
      </trkpt>
      <trkpt lat="46.20094" lon="4.50141">
        <ele>864.711</ele>
        <time>2021-04-03T10:49:22Z</time>
      </trkpt>
      <trkpt lat="46.201" lon="4.50136">
        <ele>865.508</ele>
        <time>2021-04-03T10:49:24Z</time>
      </trkpt>
      <trkpt lat="46.20103" lon="4.50131">
        <ele>866.188</ele>
        <time>2021-04-03T10:49:25Z</time>
      </trkpt>
      <trkpt lat="46.20109" lon="4.50122">
        <ele>866.211</ele>
        <time>2021-04-03T10:49:27Z</time>
      </trkpt>
      <trkpt lat="46.20112" lon="4.50112">
        <ele>867.57</ele>
        <time>2021-04-03T10:49:28Z</time>
      </trkpt>
      <trkpt lat="46.20115" lon="4.50091">
        <ele>868.542</ele>
        <time>2021-04-03T10:49:30Z</time>
      </trkpt>
      <trkpt lat="46.2012" lon="4.50083">
        <ele>869.534</ele>
        <time>2021-04-03T10:49:31Z</time>
      </trkpt>
      <trkpt lat="46.20127" lon="4.50077">
        <ele>869.63</ele>
        <time>2021-04-03T10:49:32Z</time>
      </trkpt>
      <trkpt lat="46.20142" lon="4.50064">
        <ele>869.447</ele>
        <time>2021-04-03T10:49:34Z</time>
      </trkpt>
      <trkpt lat="46.20157" lon="4.50055">
        <ele>869.944</ele>
        <time>2021-04-03T10:49:36Z</time>
      </trkpt>
      <trkpt lat="46.20171" lon="4.50056">
        <ele>870.011</ele>
        <time>2021-04-03T10:49:38Z</time>
      </trkpt>
      <trkpt lat="46.20177" lon="4.50058">
        <ele>870.521</ele>
        <time>2021-04-03T10:49:39Z</time>
      </trkpt>
      <trkpt lat="46.20188" lon="4.50063">
        <ele>871.103</ele>
        <time>2021-04-03T10:49:41Z</time>
      </trkpt>
      <trkpt lat="46.20193" lon="4.50066">
        <ele>872.308</ele>
        <time>2021-04-03T10:49:42Z</time>
      </trkpt>
      <trkpt lat="46.20206" lon="4.50065">
        <ele>872.497</ele>
        <time>2021-04-03T10:49:44Z</time>
      </trkpt>
      <trkpt lat="46.20212" lon="4.50063">
        <ele>872.99</ele>
        <time>2021-04-03T10:49:45Z</time>
      </trkpt>
      <trkpt lat="46.20218" lon="4.50061">
        <ele>872.679</ele>
        <time>2021-04-03T10:49:46Z</time>
      </trkpt>
      <trkpt lat="46.2023" lon="4.50064">
        <ele>872.151</ele>
        <time>2021-04-03T10:49:48Z</time>
      </trkpt>
      <trkpt lat="46.20234" lon="4.50064">
        <ele>872.053</ele>
        <time>2021-04-03T10:49:49Z</time>
      </trkpt>
      <trkpt lat="46.20241" lon="4.50065">
        <ele>871.669</ele>
        <time>2021-04-03T10:49:51Z</time>
      </trkpt>
      <trkpt lat="46.20248" lon="4.50066">
        <ele>871.166</ele>
        <time>2021-04-03T10:49:53Z</time>
      </trkpt>
      <trkpt lat="46.20253" lon="4.50064">
        <ele>871.193</ele>
        <time>2021-04-03T10:49:55Z</time>
      </trkpt>
      <trkpt lat="46.20261" lon="4.50058">
        <ele>870.973</ele>
        <time>2021-04-03T10:49:57Z</time>
      </trkpt>
      <trkpt lat="46.20269" lon="4.50047">
        <ele>871.085</ele>
        <time>2021-04-03T10:49:59Z</time>
      </trkpt>
      <trkpt lat="46.20273" lon="4.50042">
        <ele>870.813</ele>
        <time>2021-04-03T10:50:00Z</time>
      </trkpt>
      <trkpt lat="46.2028" lon="4.50036">
        <ele>870.508</ele>
        <time>2021-04-03T10:50:02Z</time>
      </trkpt>
      <trkpt lat="46.20292" lon="4.50033">
        <ele>870.133</ele>
        <time>2021-04-03T10:50:04Z</time>
      </trkpt>
      <trkpt lat="46.20301" lon="4.50026">
        <ele>869.816</ele>
        <time>2021-04-03T10:50:06Z</time>
      </trkpt>
      <trkpt lat="46.20312" lon="4.5002">
        <ele>869.045</ele>
        <time>2021-04-03T10:50:08Z</time>
      </trkpt>
      <trkpt lat="46.20317" lon="4.50018">
        <ele>868.157</ele>
        <time>2021-04-03T10:50:09Z</time>
      </trkpt>
      <trkpt lat="46.20325" lon="4.50014">
        <ele>866.139</ele>
        <time>2021-04-03T10:50:11Z</time>
      </trkpt>
      <trkpt lat="46.20331" lon="4.50013">
        <ele>864.555</ele>
        <time>2021-04-03T10:50:12Z</time>
      </trkpt>
      <trkpt lat="46.2034" lon="4.50013">
        <ele>862.972</ele>
        <time>2021-04-03T10:50:14Z</time>
      </trkpt>
      <trkpt lat="46.20349" lon="4.50018">
        <ele>861.419</ele>
        <time>2021-04-03T10:50:16Z</time>
      </trkpt>
      <trkpt lat="46.2036" lon="4.50026">
        <ele>859.875</ele>
        <time>2021-04-03T10:50:18Z</time>
      </trkpt>
      <trkpt lat="46.2037" lon="4.50038">
        <ele>858.528</ele>
        <time>2021-04-03T10:50:20Z</time>
      </trkpt>
      <trkpt lat="46.20381" lon="4.50056">
        <ele>856.32</ele>
        <time>2021-04-03T10:50:22Z</time>
      </trkpt>
      <trkpt lat="46.20391" lon="4.50087">
        <ele>852.308</ele>
        <time>2021-04-03T10:50:24Z</time>
      </trkpt>
      <trkpt lat="46.20403" lon="4.5011">
        <ele>850.063</ele>
        <time>2021-04-03T10:50:26Z</time>
      </trkpt>
      <trkpt lat="46.20416" lon="4.50119">
        <ele>848.296</ele>
        <time>2021-04-03T10:50:28Z</time>
      </trkpt>
      <trkpt lat="46.20433" lon="4.50118">
        <ele>846.795</ele>
        <time>2021-04-03T10:50:30Z</time>
      </trkpt>
      <trkpt lat="46.20442" lon="4.50116">
        <ele>845.197</ele>
        <time>2021-04-03T10:50:31Z</time>
      </trkpt>
      <trkpt lat="46.20458" lon="4.50114">
        <ele>843.859</ele>
        <time>2021-04-03T10:50:33Z</time>
      </trkpt>
      <trkpt lat="46.20471" lon="4.50112">
        <ele>842.255</ele>
        <time>2021-04-03T10:50:35Z</time>
      </trkpt>
      <trkpt lat="46.20478" lon="4.50112">
        <ele>840.862</ele>
        <time>2021-04-03T10:50:36Z</time>
      </trkpt>
      <trkpt lat="46.20485" lon="4.50109">
        <ele>839.669</ele>
        <time>2021-04-03T10:50:37Z</time>
      </trkpt>
      <trkpt lat="46.20493" lon="4.50105">
        <ele>838.089</ele>
        <time>2021-04-03T10:50:38Z</time>
      </trkpt>
      <trkpt lat="46.20501" lon="4.50103">
        <ele>836.606</ele>
        <time>2021-04-03T10:50:39Z</time>
      </trkpt>
      <trkpt lat="46.20518" lon="4.50106">
        <ele>834.326</ele>
        <time>2021-04-03T10:50:41Z</time>
      </trkpt>
      <trkpt lat="46.20534" lon="4.5011">
        <ele>830.908</ele>
        <time>2021-04-03T10:50:43Z</time>
      </trkpt>
      <trkpt lat="46.20546" lon="4.5012">
        <ele>828.344</ele>
        <time>2021-04-03T10:50:45Z</time>
      </trkpt>
      <trkpt lat="46.20551" lon="4.50127">
        <ele>826.717</ele>
        <time>2021-04-03T10:50:46Z</time>
      </trkpt>
      <trkpt lat="46.20556" lon="4.50136">
        <ele>825.786</ele>
        <time>2021-04-03T10:50:47Z</time>
      </trkpt>
      <trkpt lat="46.20566" lon="4.50154">
        <ele>825.368</ele>
        <time>2021-04-03T10:50:49Z</time>
      </trkpt>
      <trkpt lat="46.2057" lon="4.50162">
        <ele>824.93</ele>
        <time>2021-04-03T10:50:50Z</time>
      </trkpt>
      <trkpt lat="46.20575" lon="4.5018">
        <ele>825.386</ele>
        <time>2021-04-03T10:50:52Z</time>
      </trkpt>
      <trkpt lat="46.20579" lon="4.50191">
        <ele>825.823</ele>
        <time>2021-04-03T10:50:53Z</time>
      </trkpt>
      <trkpt lat="46.20586" lon="4.50211">
        <ele>825.91</ele>
        <time>2021-04-03T10:50:55Z</time>
      </trkpt>
      <trkpt lat="46.20591" lon="4.50228">
        <ele>826.362</ele>
        <time>2021-04-03T10:50:57Z</time>
      </trkpt>
      <trkpt lat="46.20589" lon="4.50245">
        <ele>826.783</ele>
        <time>2021-04-03T10:50:59Z</time>
      </trkpt>
      <trkpt lat="46.20586" lon="4.50255">
        <ele>827.111</ele>
        <time>2021-04-03T10:51:00Z</time>
      </trkpt>
      <trkpt lat="46.20582" lon="4.50264">
        <ele>828.108</ele>
        <time>2021-04-03T10:51:01Z</time>
      </trkpt>
      <trkpt lat="46.20579" lon="4.50273">
        <ele>828.832</ele>
        <time>2021-04-03T10:51:02Z</time>
      </trkpt>
      <trkpt lat="46.20577" lon="4.5028">
        <ele>829.115</ele>
        <time>2021-04-03T10:51:03Z</time>
      </trkpt>
      <trkpt lat="46.20579" lon="4.50289">
        <ele>829.374</ele>
        <time>2021-04-03T10:51:05Z</time>
      </trkpt>
      <trkpt lat="46.2058" lon="4.50296">
        <ele>828.526</ele>
        <time>2021-04-03T10:51:06Z</time>
      </trkpt>
      <trkpt lat="46.20581" lon="4.50305">
        <ele>828.058</ele>
        <time>2021-04-03T10:51:07Z</time>
      </trkpt>
      <trkpt lat="46.20582" lon="4.50313">
        <ele>827.394</ele>
        <time>2021-04-03T10:51:08Z</time>
      </trkpt>
      <trkpt lat="46.20586" lon="4.50333">
        <ele>826.061</ele>
        <time>2021-04-03T10:51:10Z</time>
      </trkpt>
      <trkpt lat="46.2059" lon="4.50351">
        <ele>824.948</ele>
        <time>2021-04-03T10:51:12Z</time>
      </trkpt>
      <trkpt lat="46.20589" lon="4.50361">
        <ele>824.087</ele>
        <time>2021-04-03T10:51:13Z</time>
      </trkpt>
      <trkpt lat="46.20587" lon="4.50382">
        <ele>822.342</ele>
        <time>2021-04-03T10:51:15Z</time>
      </trkpt>
      <trkpt lat="46.20594" lon="4.50401">
        <ele>820.726</ele>
        <time>2021-04-03T10:51:17Z</time>
      </trkpt>
      <trkpt lat="46.206" lon="4.50412">
        <ele>818.708</ele>
        <time>2021-04-03T10:51:18Z</time>
      </trkpt>
      <trkpt lat="46.20609" lon="4.50437">
        <ele>817.094</ele>
        <time>2021-04-03T10:51:20Z</time>
      </trkpt>
      <trkpt lat="46.20619" lon="4.50465">
        <ele>815.737</ele>
        <time>2021-04-03T10:51:22Z</time>
      </trkpt>
      <trkpt lat="46.2062" lon="4.50478">
        <ele>814.286</ele>
        <time>2021-04-03T10:51:23Z</time>
      </trkpt>
      <trkpt lat="46.20621" lon="4.50503">
        <ele>811.738</ele>
        <time>2021-04-03T10:51:25Z</time>
      </trkpt>
      <trkpt lat="46.20621" lon="4.50515">
        <ele>809.49</ele>
        <time>2021-04-03T10:51:26Z</time>
      </trkpt>
      <trkpt lat="46.20623" lon="4.50527">
        <ele>807.716</ele>
        <time>2021-04-03T10:51:27Z</time>
      </trkpt>
      <trkpt lat="46.20626" lon="4.50551">
        <ele>805.493</ele>
        <time>2021-04-03T10:51:29Z</time>
      </trkpt>
      <trkpt lat="46.20629" lon="4.50575">
        <ele>803.24</ele>
        <time>2021-04-03T10:51:31Z</time>
      </trkpt>
      <trkpt lat="46.20627" lon="4.50586">
        <ele>806.144</ele>
        <time>2021-04-03T10:51:32Z</time>
      </trkpt>
      <trkpt lat="46.20623" lon="4.50608">
        <ele>803.905</ele>
        <time>2021-04-03T10:51:34Z</time>
      </trkpt>
      <trkpt lat="46.20618" lon="4.50629">
        <ele>800.115</ele>
        <time>2021-04-03T10:51:36Z</time>
      </trkpt>
      <trkpt lat="46.20616" lon="4.50639">
        <ele>796.508</ele>
        <time>2021-04-03T10:51:37Z</time>
      </trkpt>
      <trkpt lat="46.20614" lon="4.50646">
        <ele>794.07</ele>
        <time>2021-04-03T10:51:38Z</time>
      </trkpt>
      <trkpt lat="46.20607" lon="4.5066">
        <ele>792.563</ele>
        <time>2021-04-03T10:51:40Z</time>
      </trkpt>
      <trkpt lat="46.20602" lon="4.50671">
        <ele>790.912</ele>
        <time>2021-04-03T10:51:42Z</time>
      </trkpt>
      <trkpt lat="46.20602" lon="4.50679">
        <ele>790.014</ele>
        <time>2021-04-03T10:51:45Z</time>
      </trkpt>
      <trkpt lat="46.20606" lon="4.50683">
        <ele>789.276</ele>
        <time>2021-04-03T10:51:47Z</time>
      </trkpt>
      <trkpt lat="46.20614" lon="4.50691">
        <ele>787.252</ele>
        <time>2021-04-03T10:51:49Z</time>
      </trkpt>
      <trkpt lat="46.20623" lon="4.507">
        <ele>785.879</ele>
        <time>2021-04-03T10:51:51Z</time>
      </trkpt>
      <trkpt lat="46.20628" lon="4.50705">
        <ele>784.866</ele>
        <time>2021-04-03T10:51:52Z</time>
      </trkpt>
      <trkpt lat="46.20633" lon="4.50708">
        <ele>784.146</ele>
        <time>2021-04-03T10:51:53Z</time>
      </trkpt>
      <trkpt lat="46.20639" lon="4.50712">
        <ele>783.288</ele>
        <time>2021-04-03T10:51:54Z</time>
      </trkpt>
      <trkpt lat="46.20651" lon="4.50719">
        <ele>782.016</ele>
        <time>2021-04-03T10:51:56Z</time>
      </trkpt>
      <trkpt lat="46.20657" lon="4.5072">
        <ele>781.308</ele>
        <time>2021-04-03T10:51:57Z</time>
      </trkpt>
      <trkpt lat="46.20661" lon="4.50722">
        <ele>780.01</ele>
        <time>2021-04-03T10:51:59Z</time>
      </trkpt>
      <trkpt lat="46.20666" lon="4.50724">
        <ele>779.033</ele>
        <time>2021-04-03T10:52:01Z</time>
      </trkpt>
      <trkpt lat="46.20682" lon="4.50728">
        <ele>776.432</ele>
        <time>2021-04-03T10:52:03Z</time>
      </trkpt>
      <trkpt lat="46.20688" lon="4.5073">
        <ele>774.564</ele>
        <time>2021-04-03T10:52:04Z</time>
      </trkpt>
      <trkpt lat="46.20693" lon="4.50732">
        <ele>771.736</ele>
        <time>2021-04-03T10:52:05Z</time>
      </trkpt>
      <trkpt lat="46.20702" lon="4.50732">
        <ele>768.352</ele>
        <time>2021-04-03T10:52:07Z</time>
      </trkpt>
      <trkpt lat="46.20709" lon="4.50736">
        <ele>765.969</ele>
        <time>2021-04-03T10:52:09Z</time>
      </trkpt>
      <trkpt lat="46.20721" lon="4.5074">
        <ele>764.226</ele>
        <time>2021-04-03T10:52:11Z</time>
      </trkpt>
      <trkpt lat="46.20728" lon="4.50746">
        <ele>763.112</ele>
        <time>2021-04-03T10:52:12Z</time>
      </trkpt>
      <trkpt lat="46.20734" lon="4.50752">
        <ele>762.532</ele>
        <time>2021-04-03T10:52:13Z</time>
      </trkpt>
      <trkpt lat="46.20744" lon="4.50761">
        <ele>761.105</ele>
        <time>2021-04-03T10:52:15Z</time>
      </trkpt>
      <trkpt lat="46.20749" lon="4.50763">
        <ele>760.508</ele>
        <time>2021-04-03T10:52:16Z</time>
      </trkpt>
      <trkpt lat="46.20755" lon="4.50769">
        <ele>759.087</ele>
        <time>2021-04-03T10:52:18Z</time>
      </trkpt>
      <trkpt lat="46.20762" lon="4.50772">
        <ele>757.43</ele>
        <time>2021-04-03T10:52:19Z</time>
      </trkpt>
      <trkpt lat="46.20769" lon="4.50777">
        <ele>753.469</ele>
        <time>2021-04-03T10:52:21Z</time>
      </trkpt>
      <trkpt lat="46.20774" lon="4.50778">
        <ele>750.351</ele>
        <time>2021-04-03T10:52:22Z</time>
      </trkpt>
      <trkpt lat="46.20781" lon="4.50781">
        <ele>747.393</ele>
        <time>2021-04-03T10:52:24Z</time>
      </trkpt>
      <trkpt lat="46.20789" lon="4.50782">
        <ele>744.859</ele>
        <time>2021-04-03T10:52:26Z</time>
      </trkpt>
      <trkpt lat="46.20793" lon="4.50783">
        <ele>743.216</ele>
        <time>2021-04-03T10:52:27Z</time>
      </trkpt>
      <trkpt lat="46.20799" lon="4.50785">
        <ele>741.833</ele>
        <time>2021-04-03T10:52:28Z</time>
      </trkpt>
      <trkpt lat="46.2081" lon="4.50791">
        <ele>740.645</ele>
        <time>2021-04-03T10:52:30Z</time>
      </trkpt>
      <trkpt lat="46.20823" lon="4.50798">
        <ele>738.447</ele>
        <time>2021-04-03T10:52:32Z</time>
      </trkpt>
      <trkpt lat="46.20831" lon="4.50804">
        <ele>736.111</ele>
        <time>2021-04-03T10:52:34Z</time>
      </trkpt>
      <trkpt lat="46.20834" lon="4.50808">
        <ele>733.608</ele>
        <time>2021-04-03T10:52:36Z</time>
      </trkpt>
      <trkpt lat="46.20839" lon="4.50811">
        <ele>732.28</ele>
        <time>2021-04-03T10:52:38Z</time>
      </trkpt>
      <trkpt lat="46.20844" lon="4.50813">
        <ele>731.453</ele>
        <time>2021-04-03T10:52:40Z</time>
      </trkpt>
      <trkpt lat="46.20845" lon="4.5082">
        <ele>730.962</ele>
        <time>2021-04-03T10:52:43Z</time>
      </trkpt>
      <trkpt lat="46.20846" lon="4.50828">
        <ele>726.994</ele>
        <time>2021-04-03T10:52:45Z</time>
      </trkpt>
      <trkpt lat="46.20847" lon="4.50835">
        <ele>722.996</ele>
        <time>2021-04-03T10:52:47Z</time>
      </trkpt>
      <trkpt lat="46.20849" lon="4.50842">
        <ele>718.912</ele>
        <time>2021-04-03T10:53:29Z</time>
      </trkpt>
      <trkpt lat="46.20852" lon="4.50851">
        <ele>714.979</ele>
        <time>2021-04-03T10:53:32Z</time>
      </trkpt>
      <trkpt lat="46.20853" lon="4.5086">
        <ele>710.926</ele>
        <time>2021-04-03T10:53:33Z</time>
      </trkpt>
      <trkpt lat="46.20854" lon="4.5087">
        <ele>707.387</ele>
        <time>2021-04-03T10:53:34Z</time>
      </trkpt>
      <trkpt lat="46.20856" lon="4.50886">
        <ele>704.742</ele>
        <time>2021-04-03T10:53:36Z</time>
      </trkpt>
      <trkpt lat="46.20858" lon="4.50894">
        <ele>702.926</ele>
        <time>2021-04-03T10:53:37Z</time>
      </trkpt>
      <trkpt lat="46.2086" lon="4.50904">
        <ele>701.408</ele>
        <time>2021-04-03T10:53:38Z</time>
      </trkpt>
      <trkpt lat="46.20862" lon="4.50924">
        <ele>699.674</ele>
        <time>2021-04-03T10:53:40Z</time>
      </trkpt>
      <trkpt lat="46.20864" lon="4.50933">
        <ele>697.277</ele>
        <time>2021-04-03T10:53:42Z</time>
      </trkpt>
      <trkpt lat="46.20868" lon="4.50938">
        <ele>695.696</ele>
        <time>2021-04-03T10:53:44Z</time>
      </trkpt>
      <trkpt lat="46.20874" lon="4.50938">
        <ele>694.778</ele>
        <time>2021-04-03T10:53:46Z</time>
      </trkpt>
      <trkpt lat="46.20881" lon="4.50937">
        <ele>692.75</ele>
        <time>2021-04-03T10:53:48Z</time>
      </trkpt>
      <trkpt lat="46.20885" lon="4.50938">
        <ele>691.066</ele>
        <time>2021-04-03T10:53:49Z</time>
      </trkpt>
      <trkpt lat="46.20892" lon="4.50937">
        <ele>689.953</ele>
        <time>2021-04-03T10:53:50Z</time>
      </trkpt>
      <trkpt lat="46.20904" lon="4.50931">
        <ele>689.84</ele>
        <time>2021-04-03T10:53:52Z</time>
      </trkpt>
      <trkpt lat="46.20919" lon="4.50923">
        <ele>689.931</ele>
        <time>2021-04-03T10:53:54Z</time>
      </trkpt>
      <trkpt lat="46.20926" lon="4.50924">
        <ele>689.861</ele>
        <time>2021-04-03T10:53:55Z</time>
      </trkpt>
      <trkpt lat="46.20933" lon="4.50931">
        <ele>688.107</ele>
        <time>2021-04-03T10:53:56Z</time>
      </trkpt>
      <trkpt lat="46.20945" lon="4.50952">
        <ele>685.408</ele>
        <time>2021-04-03T10:53:58Z</time>
      </trkpt>
      <trkpt lat="46.20955" lon="4.50975">
        <ele>682.859</ele>
        <time>2021-04-03T10:54:00Z</time>
      </trkpt>
      <trkpt lat="46.20954" lon="4.50985">
        <ele>681.222</ele>
        <time>2021-04-03T10:54:01Z</time>
      </trkpt>
      <trkpt lat="46.20953" lon="4.50995">
        <ele>678.821</ele>
        <time>2021-04-03T10:54:02Z</time>
      </trkpt>
      <trkpt lat="46.20949" lon="4.51017">
        <ele>677.523</ele>
        <time>2021-04-03T10:54:04Z</time>
      </trkpt>
      <trkpt lat="46.20944" lon="4.51039">
        <ele>676.075</ele>
        <time>2021-04-03T10:54:06Z</time>
      </trkpt>
      <trkpt lat="46.20941" lon="4.51049">
        <ele>675.261</ele>
        <time>2021-04-03T10:54:07Z</time>
      </trkpt>
      <trkpt lat="46.20936" lon="4.51061">
        <ele>674.698</ele>
        <time>2021-04-03T10:54:08Z</time>
      </trkpt>
      <trkpt lat="46.20924" lon="4.51086">
        <ele>673.445</ele>
        <time>2021-04-03T10:54:10Z</time>
      </trkpt>
      <trkpt lat="46.20916" lon="4.5111">
        <ele>670.786</ele>
        <time>2021-04-03T10:54:12Z</time>
      </trkpt>
      <trkpt lat="46.20912" lon="4.51132">
        <ele>669.06</ele>
        <time>2021-04-03T10:54:14Z</time>
      </trkpt>
      <trkpt lat="46.20909" lon="4.51145">
        <ele>667.526</ele>
        <time>2021-04-03T10:54:15Z</time>
      </trkpt>
      <trkpt lat="46.20908" lon="4.51157">
        <ele>666.308</ele>
        <time>2021-04-03T10:54:16Z</time>
      </trkpt>
      <trkpt lat="46.20903" lon="4.51183">
        <ele>664.124</ele>
        <time>2021-04-03T10:54:18Z</time>
      </trkpt>
      <trkpt lat="46.20899" lon="4.51197">
        <ele>663.317</ele>
        <time>2021-04-03T10:54:19Z</time>
      </trkpt>
      <trkpt lat="46.20898" lon="4.51216">
        <ele>662.056</ele>
        <time>2021-04-03T10:54:21Z</time>
      </trkpt>
      <trkpt lat="46.20897" lon="4.51238">
        <ele>660.728</ele>
        <time>2021-04-03T10:54:23Z</time>
      </trkpt>
      <trkpt lat="46.20898" lon="4.51249">
        <ele>659.11</ele>
        <time>2021-04-03T10:54:24Z</time>
      </trkpt>
      <trkpt lat="46.20897" lon="4.51262">
        <ele>657.536</ele>
        <time>2021-04-03T10:54:25Z</time>
      </trkpt>
      <trkpt lat="46.20895" lon="4.51273">
        <ele>655.763</ele>
        <time>2021-04-03T10:54:26Z</time>
      </trkpt>
      <trkpt lat="46.20893" lon="4.51286">
        <ele>654.29</ele>
        <time>2021-04-03T10:54:27Z</time>
      </trkpt>
      <trkpt lat="46.20891" lon="4.51301">
        <ele>653.325</ele>
        <time>2021-04-03T10:54:28Z</time>
      </trkpt>
      <trkpt lat="46.20889" lon="4.51333">
        <ele>653.226</ele>
        <time>2021-04-03T10:54:30Z</time>
      </trkpt>
      <trkpt lat="46.20896" lon="4.5137">
        <ele>652.508</ele>
        <time>2021-04-03T10:54:32Z</time>
      </trkpt>
      <trkpt lat="46.20922" lon="4.51412">
        <ele>651.108</ele>
        <time>2021-04-03T10:54:34Z</time>
      </trkpt>
      <trkpt lat="46.20931" lon="4.51428">
        <ele>650.448</ele>
        <time>2021-04-03T10:54:35Z</time>
      </trkpt>
      <trkpt lat="46.20944" lon="4.51444">
        <ele>649.941</ele>
        <time>2021-04-03T10:54:37Z</time>
      </trkpt>
      <trkpt lat="46.20947" lon="4.51452">
        <ele>650.18</ele>
        <time>2021-04-03T10:54:39Z</time>
      </trkpt>
      <trkpt lat="46.20941" lon="4.51453">
        <ele>649.712</ele>
        <time>2021-04-03T10:55:01Z</time>
      </trkpt>
      <trkpt lat="46.20919" lon="4.51461">
        <ele>650.224</ele>
        <time>2021-04-03T10:55:02Z</time>
      </trkpt>
      <trkpt lat="46.20906" lon="4.51467">
        <ele>651.57</ele>
        <time>2021-04-03T10:55:03Z</time>
      </trkpt>
      <trkpt lat="46.20882" lon="4.51473">
        <ele>653.347</ele>
        <time>2021-04-03T10:55:05Z</time>
      </trkpt>
      <trkpt lat="46.20872" lon="4.51476">
        <ele>654.834</ele>
        <time>2021-04-03T10:55:06Z</time>
      </trkpt>
      <trkpt lat="46.20863" lon="4.51478">
        <ele>655.971</ele>
        <time>2021-04-03T10:55:07Z</time>
      </trkpt>
      <trkpt lat="46.20846" lon="4.5148">
        <ele>657.441</ele>
        <time>2021-04-03T10:55:09Z</time>
      </trkpt>
      <trkpt lat="46.20838" lon="4.51481">
        <ele>658.315</ele>
        <time>2021-04-03T10:55:10Z</time>
      </trkpt>
      <trkpt lat="46.2082" lon="4.51483">
        <ele>660.108</ele>
        <time>2021-04-03T10:55:12Z</time>
      </trkpt>
      <trkpt lat="46.2081" lon="4.51486">
        <ele>661.413</ele>
        <time>2021-04-03T10:55:13Z</time>
      </trkpt>
      <trkpt lat="46.2079" lon="4.51492">
        <ele>661.796</ele>
        <time>2021-04-03T10:55:15Z</time>
      </trkpt>
      <trkpt lat="46.20771" lon="4.51498">
        <ele>662.125</ele>
        <time>2021-04-03T10:55:17Z</time>
      </trkpt>
      <trkpt lat="46.20762" lon="4.51502">
        <ele>663.037</ele>
        <time>2021-04-03T10:55:18Z</time>
      </trkpt>
      <trkpt lat="46.20752" lon="4.51505">
        <ele>663.189</ele>
        <time>2021-04-03T10:55:19Z</time>
      </trkpt>
      <trkpt lat="46.20732" lon="4.51514">
        <ele>663.835</ele>
        <time>2021-04-03T10:55:21Z</time>
      </trkpt>
      <trkpt lat="46.20712" lon="4.51522">
        <ele>664.672</ele>
        <time>2021-04-03T10:55:23Z</time>
      </trkpt>
      <trkpt lat="46.20702" lon="4.51527">
        <ele>665.739</ele>
        <time>2021-04-03T10:55:24Z</time>
      </trkpt>
      <trkpt lat="46.20692" lon="4.51531">
        <ele>667.043</ele>
        <time>2021-04-03T10:55:25Z</time>
      </trkpt>
      <trkpt lat="46.20673" lon="4.51538">
        <ele>669.064</ele>
        <time>2021-04-03T10:55:27Z</time>
      </trkpt>
      <trkpt lat="46.20654" lon="4.51547">
        <ele>670.61</ele>
        <time>2021-04-03T10:55:29Z</time>
      </trkpt>
      <trkpt lat="46.20643" lon="4.51551">
        <ele>672.308</ele>
        <time>2021-04-03T10:55:30Z</time>
      </trkpt>
      <trkpt lat="46.20622" lon="4.51561">
        <ele>673.21</ele>
        <time>2021-04-03T10:55:32Z</time>
      </trkpt>
      <trkpt lat="46.20605" lon="4.51572">
        <ele>675.543</ele>
        <time>2021-04-03T10:55:34Z</time>
      </trkpt>
      <trkpt lat="46.20589" lon="4.5158">
        <ele>678.082</ele>
        <time>2021-04-03T10:55:36Z</time>
      </trkpt>
      <trkpt lat="46.20576" lon="4.51584">
        <ele>680.574</ele>
        <time>2021-04-03T10:55:38Z</time>
      </trkpt>
      <trkpt lat="46.20568" lon="4.51588">
        <ele>682.466</ele>
        <time>2021-04-03T10:55:39Z</time>
      </trkpt>
      <trkpt lat="46.20559" lon="4.5159">
        <ele>684.332</ele>
        <time>2021-04-03T10:55:40Z</time>
      </trkpt>
      <trkpt lat="46.20551" lon="4.51592">
        <ele>685.739</ele>
        <time>2021-04-03T10:55:41Z</time>
      </trkpt>
      <trkpt lat="46.20544" lon="4.51595">
        <ele>687.916</ele>
        <time>2021-04-03T10:55:42Z</time>
      </trkpt>
      <trkpt lat="46.20527" lon="4.51599">
        <ele>690.011</ele>
        <time>2021-04-03T10:55:44Z</time>
      </trkpt>
      <trkpt lat="46.20513" lon="4.51598">
        <ele>691.921</ele>
        <time>2021-04-03T10:55:46Z</time>
      </trkpt>
      <trkpt lat="46.20502" lon="4.51598">
        <ele>693.703</ele>
        <time>2021-04-03T10:55:47Z</time>
      </trkpt>
      <trkpt lat="46.20484" lon="4.51602">
        <ele>695.708</ele>
        <time>2021-04-03T10:55:49Z</time>
      </trkpt>
      <trkpt lat="46.20476" lon="4.51604">
        <ele>697.137</ele>
        <time>2021-04-03T10:55:50Z</time>
      </trkpt>
      <trkpt lat="46.20467" lon="4.51607">
        <ele>698.28</ele>
        <time>2021-04-03T10:55:51Z</time>
      </trkpt>
      <trkpt lat="46.20451" lon="4.51615">
        <ele>699.289</ele>
        <time>2021-04-03T10:55:53Z</time>
      </trkpt>
      <trkpt lat="46.20445" lon="4.51618">
        <ele>699.821</ele>
        <time>2021-04-03T10:55:54Z</time>
      </trkpt>
      <trkpt lat="46.20436" lon="4.51622">
        <ele>700.553</ele>
        <time>2021-04-03T10:55:56Z</time>
      </trkpt>
      <trkpt lat="46.2043" lon="4.51628">
        <ele>700.929</ele>
        <time>2021-04-03T10:55:58Z</time>
      </trkpt>
      <trkpt lat="46.20424" lon="4.51633">
        <ele>700.776</ele>
        <time>2021-04-03T10:56:00Z</time>
      </trkpt>
      <trkpt lat="46.20412" lon="4.51639">
        <ele>701.413</ele>
        <time>2021-04-03T10:56:02Z</time>
      </trkpt>
      <trkpt lat="46.20394" lon="4.51647">
        <ele>702.329</ele>
        <time>2021-04-03T10:56:04Z</time>
      </trkpt>
      <trkpt lat="46.20386" lon="4.5165">
        <ele>702.6</ele>
        <time>2021-04-03T10:56:05Z</time>
      </trkpt>
      <trkpt lat="46.20379" lon="4.51652">
        <ele>702.72</ele>
        <time>2021-04-03T10:56:06Z</time>
      </trkpt>
      <trkpt lat="46.20358" lon="4.51653">
        <ele>700.708</ele>
        <time>2021-04-03T10:56:08Z</time>
      </trkpt>
      <trkpt lat="46.2035" lon="4.51654">
        <ele>699.658</ele>
        <time>2021-04-03T10:56:09Z</time>
      </trkpt>
      <trkpt lat="46.20333" lon="4.51661">
        <ele>698.161</ele>
        <time>2021-04-03T10:56:11Z</time>
      </trkpt>
      <trkpt lat="46.20325" lon="4.51664">
        <ele>695.54</ele>
        <time>2021-04-03T10:56:12Z</time>
      </trkpt>
      <trkpt lat="46.20316" lon="4.51678">
        <ele>693.812</ele>
        <time>2021-04-03T10:56:14Z</time>
      </trkpt>
      <trkpt lat="46.20313" lon="4.51685">
        <ele>692.264</ele>
        <time>2021-04-03T10:56:15Z</time>
      </trkpt>
      <trkpt lat="46.20305" lon="4.51691">
        <ele>689.93</ele>
        <time>2021-04-03T10:56:17Z</time>
      </trkpt>
      <trkpt lat="46.203" lon="4.51691">
        <ele>688.537</ele>
        <time>2021-04-03T10:56:18Z</time>
      </trkpt>
      <trkpt lat="46.20287" lon="4.51681">
        <ele>687.524</ele>
        <time>2021-04-03T10:56:20Z</time>
      </trkpt>
      <trkpt lat="46.20281" lon="4.51674">
        <ele>686.584</ele>
        <time>2021-04-03T10:56:21Z</time>
      </trkpt>
      <trkpt lat="46.20267" lon="4.5166">
        <ele>685.607</ele>
        <time>2021-04-03T10:56:23Z</time>
      </trkpt>
      <trkpt lat="46.2026" lon="4.51651">
        <ele>684.017</ele>
        <time>2021-04-03T10:56:24Z</time>
      </trkpt>
      <trkpt lat="46.20247" lon="4.51633">
        <ele>682.608</ele>
        <time>2021-04-03T10:56:26Z</time>
      </trkpt>
      <trkpt lat="46.20241" lon="4.51625">
        <ele>681.254</ele>
        <time>2021-04-03T10:56:27Z</time>
      </trkpt>
      <trkpt lat="46.20234" lon="4.51617">
        <ele>680.037</ele>
        <time>2021-04-03T10:56:28Z</time>
      </trkpt>
      <trkpt lat="46.20227" lon="4.5161">
        <ele>679.526</ele>
        <time>2021-04-03T10:56:29Z</time>
      </trkpt>
      <trkpt lat="46.20221" lon="4.51607">
        <ele>678.778</ele>
        <time>2021-04-03T10:56:30Z</time>
      </trkpt>
      <trkpt lat="46.20215" lon="4.51608">
        <ele>678.25</ele>
        <time>2021-04-03T10:56:31Z</time>
      </trkpt>
      <trkpt lat="46.20211" lon="4.51609">
        <ele>677.996</ele>
        <time>2021-04-03T10:56:32Z</time>
      </trkpt>
      <trkpt lat="46.20205" lon="4.51607">
        <ele>676.773</ele>
        <time>2021-04-03T10:56:34Z</time>
      </trkpt>
      <trkpt lat="46.20199" lon="4.51602">
        <ele>675.24</ele>
        <time>2021-04-03T10:56:37Z</time>
      </trkpt>
      <trkpt lat="46.20186" lon="4.51594">
        <ele>674.255</ele>
        <time>2021-04-03T10:56:39Z</time>
      </trkpt>
      <trkpt lat="46.20171" lon="4.51587">
        <ele>672.307</ele>
        <time>2021-04-03T10:56:41Z</time>
      </trkpt>
      <trkpt lat="46.20162" lon="4.51585">
        <ele>670.817</ele>
        <time>2021-04-03T10:56:42Z</time>
      </trkpt>
      <trkpt lat="46.20146" lon="4.51581">
        <ele>670.408</ele>
        <time>2021-04-03T10:56:44Z</time>
      </trkpt>
      <trkpt lat="46.20139" lon="4.51578">
        <ele>670.041</ele>
        <time>2021-04-03T10:56:45Z</time>
      </trkpt>
      <trkpt lat="46.20132" lon="4.51576">
        <ele>669.724</ele>
        <time>2021-04-03T10:56:46Z</time>
      </trkpt>
      <trkpt lat="46.20127" lon="4.51578">
        <ele>668.113</ele>
        <time>2021-04-03T10:56:49Z</time>
      </trkpt>
      <trkpt lat="46.20114" lon="4.51577">
        <ele>665.895</ele>
        <time>2021-04-03T10:56:52Z</time>
      </trkpt>
      <trkpt lat="46.20107" lon="4.51577">
        <ele>664.187</ele>
        <time>2021-04-03T10:56:53Z</time>
      </trkpt>
      <trkpt lat="46.20091" lon="4.51573">
        <ele>662.443</ele>
        <time>2021-04-03T10:56:55Z</time>
      </trkpt>
      <trkpt lat="46.2008" lon="4.51554">
        <ele>660.44</ele>
        <time>2021-04-03T10:56:57Z</time>
      </trkpt>
      <trkpt lat="46.20074" lon="4.51535">
        <ele>657.227</ele>
        <time>2021-04-03T10:56:59Z</time>
      </trkpt>
      <trkpt lat="46.20071" lon="4.51527">
        <ele>655.082</ele>
        <time>2021-04-03T10:57:00Z</time>
      </trkpt>
      <trkpt lat="46.20067" lon="4.51519">
        <ele>653.943</ele>
        <time>2021-04-03T10:57:01Z</time>
      </trkpt>
      <trkpt lat="46.20059" lon="4.51501">
        <ele>654.617</ele>
        <time>2021-04-03T10:57:03Z</time>
      </trkpt>
      <trkpt lat="46.20049" lon="4.51487">
        <ele>654.608</ele>
        <time>2021-04-03T10:57:05Z</time>
      </trkpt>
      <trkpt lat="46.20036" lon="4.51484">
        <ele>653.724</ele>
        <time>2021-04-03T10:57:07Z</time>
      </trkpt>
      <trkpt lat="46.2003" lon="4.51486">
        <ele>652.587</ele>
        <time>2021-04-03T10:57:08Z</time>
      </trkpt>
      <trkpt lat="46.20025" lon="4.5149">
        <ele>651.446</ele>
        <time>2021-04-03T10:57:09Z</time>
      </trkpt>
      <trkpt lat="46.20019" lon="4.51496">
        <ele>650.158</ele>
        <time>2021-04-03T10:57:10Z</time>
      </trkpt>
      <trkpt lat="46.20017" lon="4.51503">
        <ele>648.99</ele>
        <time>2021-04-03T10:57:12Z</time>
      </trkpt>
      <trkpt lat="46.20016" lon="4.51514">
        <ele>648.366</ele>
        <time>2021-04-03T10:57:18Z</time>
      </trkpt>
      <trkpt lat="46.2001" lon="4.51536">
        <ele>647.153</ele>
        <time>2021-04-03T10:57:20Z</time>
      </trkpt>
      <trkpt lat="46.20004" lon="4.51548">
        <ele>646.13</ele>
        <time>2021-04-03T10:57:21Z</time>
      </trkpt>
      <trkpt lat="46.19997" lon="4.51559">
        <ele>645.515</ele>
        <time>2021-04-03T10:57:22Z</time>
      </trkpt>
      <trkpt lat="46.19978" lon="4.51581">
        <ele>645.365</ele>
        <time>2021-04-03T10:57:24Z</time>
      </trkpt>
      <trkpt lat="46.19962" lon="4.516">
        <ele>644.511</ele>
        <time>2021-04-03T10:57:26Z</time>
      </trkpt>
      <trkpt lat="46.1995" lon="4.51613">
        <ele>644.108</ele>
        <time>2021-04-03T10:57:28Z</time>
      </trkpt>
      <trkpt lat="46.19938" lon="4.51633">
        <ele>643.527</ele>
        <time>2021-04-03T10:57:30Z</time>
      </trkpt>
      <trkpt lat="46.19928" lon="4.51654">
        <ele>642.13</ele>
        <time>2021-04-03T10:57:32Z</time>
      </trkpt>
      <trkpt lat="46.19921" lon="4.51672">
        <ele>640.869</ele>
        <time>2021-04-03T10:57:34Z</time>
      </trkpt>
      <trkpt lat="46.19918" lon="4.51692">
        <ele>639.521</ele>
        <time>2021-04-03T10:57:36Z</time>
      </trkpt>
      <trkpt lat="46.19914" lon="4.5171">
        <ele>639.683</ele>
        <time>2021-04-03T10:57:38Z</time>
      </trkpt>
      <trkpt lat="46.19914" lon="4.51728">
        <ele>637.369</ele>
        <time>2021-04-03T10:57:40Z</time>
      </trkpt>
      <trkpt lat="46.19911" lon="4.51746">
        <ele>634.246</ele>
        <time>2021-04-03T10:57:42Z</time>
      </trkpt>
      <trkpt lat="46.19906" lon="4.51761">
        <ele>631.923</ele>
        <time>2021-04-03T10:57:44Z</time>
      </trkpt>
      <trkpt lat="46.19901" lon="4.51769">
        <ele>630.445</ele>
        <time>2021-04-03T10:57:45Z</time>
      </trkpt>
      <trkpt lat="46.19888" lon="4.51788">
        <ele>629.447</ele>
        <time>2021-04-03T10:57:47Z</time>
      </trkpt>
      <trkpt lat="46.19872" lon="4.51809">
        <ele>627.511</ele>
        <time>2021-04-03T10:57:49Z</time>
      </trkpt>
      <trkpt lat="46.19865" lon="4.5182">
        <ele>625.608</ele>
        <time>2021-04-03T10:57:50Z</time>
      </trkpt>
      <trkpt lat="46.19851" lon="4.5184">
        <ele>624.91</ele>
        <time>2021-04-03T10:57:52Z</time>
      </trkpt>
      <trkpt lat="46.19843" lon="4.51848">
        <ele>624.083</ele>
        <time>2021-04-03T10:57:53Z</time>
      </trkpt>
      <trkpt lat="46.19837" lon="4.51853">
        <ele>623.142</ele>
        <time>2021-04-03T10:57:54Z</time>
      </trkpt>
      <trkpt lat="46.1983" lon="4.5186">
        <ele>622.474</ele>
        <time>2021-04-03T10:57:56Z</time>
      </trkpt>
      <trkpt lat="46.19826" lon="4.51864">
        <ele>620.736</ele>
        <time>2021-04-03T10:57:58Z</time>
      </trkpt>
      <trkpt lat="46.19819" lon="4.51873">
        <ele>619.842</ele>
        <time>2021-04-03T10:58:00Z</time>
      </trkpt>
      <trkpt lat="46.19809" lon="4.51884">
        <ele>618.159</ele>
        <time>2021-04-03T10:58:02Z</time>
      </trkpt>
      <trkpt lat="46.19797" lon="4.51886">
        <ele>615.986</ele>
        <time>2021-04-03T10:58:04Z</time>
      </trkpt>
      <trkpt lat="46.1979" lon="4.51888">
        <ele>614.171</ele>
        <time>2021-04-03T10:58:05Z</time>
      </trkpt>
      <trkpt lat="46.19771" lon="4.51893">
        <ele>612.241</ele>
        <time>2021-04-03T10:58:07Z</time>
      </trkpt>
      <trkpt lat="46.19762" lon="4.51893">
        <ele>611.115</ele>
        <time>2021-04-03T10:58:08Z</time>
      </trkpt>
      <trkpt lat="46.19744" lon="4.51893">
        <ele>610.608</ele>
        <time>2021-04-03T10:58:10Z</time>
      </trkpt>
      <trkpt lat="46.19728" lon="4.51892">
        <ele>609.273</ele>
        <time>2021-04-03T10:58:12Z</time>
      </trkpt>
      <trkpt lat="46.19713" lon="4.51894">
        <ele>607.786</ele>
        <time>2021-04-03T10:58:14Z</time>
      </trkpt>
      <trkpt lat="46.19695" lon="4.51902">
        <ele>606.015</ele>
        <time>2021-04-03T10:58:16Z</time>
      </trkpt>
      <trkpt lat="46.1968" lon="4.51906">
        <ele>603.557</ele>
        <time>2021-04-03T10:58:18Z</time>
      </trkpt>
      <trkpt lat="46.19672" lon="4.5191">
        <ele>601.699</ele>
        <time>2021-04-03T10:58:19Z</time>
      </trkpt>
      <trkpt lat="46.19652" lon="4.51923">
        <ele>600.295</ele>
        <time>2021-04-03T10:58:21Z</time>
      </trkpt>
      <trkpt lat="46.19642" lon="4.5193">
        <ele>598.452</ele>
        <time>2021-04-03T10:58:22Z</time>
      </trkpt>
      <trkpt lat="46.19622" lon="4.51943">
        <ele>597.079</ele>
        <time>2021-04-03T10:58:24Z</time>
      </trkpt>
      <trkpt lat="46.1961" lon="4.51949">
        <ele>595.581</ele>
        <time>2021-04-03T10:58:25Z</time>
      </trkpt>
      <trkpt lat="46.19585" lon="4.51961">
        <ele>594.161</ele>
        <time>2021-04-03T10:58:27Z</time>
      </trkpt>
      <trkpt lat="46.19574" lon="4.51968">
        <ele>593.117</ele>
        <time>2021-04-03T10:58:28Z</time>
      </trkpt>
      <trkpt lat="46.19553" lon="4.51979">
        <ele>591.708</ele>
        <time>2021-04-03T10:58:30Z</time>
      </trkpt>
      <trkpt lat="46.19536" lon="4.51988">
        <ele>589.834</ele>
        <time>2021-04-03T10:58:32Z</time>
      </trkpt>
      <trkpt lat="46.19521" lon="4.51986">
        <ele>587.387</ele>
        <time>2021-04-03T10:58:34Z</time>
      </trkpt>
      <trkpt lat="46.19516" lon="4.51982">
        <ele>584.856</ele>
        <time>2021-04-03T10:58:36Z</time>
      </trkpt>
      <trkpt lat="46.19506" lon="4.51986">
        <ele>583.538</ele>
        <time>2021-04-03T10:58:38Z</time>
      </trkpt>
      <trkpt lat="46.19495" lon="4.51992">
        <ele>582.41</ele>
        <time>2021-04-03T10:58:40Z</time>
      </trkpt>
      <trkpt lat="46.1949" lon="4.51994">
        <ele>581.396</ele>
        <time>2021-04-03T10:58:41Z</time>
      </trkpt>
      <trkpt lat="46.19485" lon="4.51997">
        <ele>580.353</ele>
        <time>2021-04-03T10:58:42Z</time>
      </trkpt>
      <trkpt lat="46.19476" lon="4.52002">
        <ele>579.41</ele>
        <time>2021-04-03T10:58:44Z</time>
      </trkpt>
      <trkpt lat="46.19469" lon="4.52007">
        <ele>578.974</ele>
        <time>2021-04-03T10:58:46Z</time>
      </trkpt>
      <trkpt lat="46.19461" lon="4.52013">
        <ele>578.256</ele>
        <time>2021-04-03T10:58:48Z</time>
      </trkpt>
      <trkpt lat="46.19456" lon="4.52019">
        <ele>577.621</ele>
        <time>2021-04-03T10:58:50Z</time>
      </trkpt>
      <trkpt lat="46.19452" lon="4.52024">
        <ele>577.508</ele>
        <time>2021-04-03T10:58:52Z</time>
      </trkpt>
      <trkpt lat="46.19441" lon="4.52033">
        <ele>577.773</ele>
        <time>2021-04-03T10:59:06Z</time>
      </trkpt>
      <trkpt lat="46.19434" lon="4.52042">
        <ele>577.816</ele>
        <time>2021-04-03T10:59:07Z</time>
      </trkpt>
      <trkpt lat="46.19423" lon="4.52057">
        <ele>577.745</ele>
        <time>2021-04-03T10:59:09Z</time>
      </trkpt>
      <trkpt lat="46.1942" lon="4.52068">
        <ele>577.077</ele>
        <time>2021-04-03T10:59:10Z</time>
      </trkpt>
      <trkpt lat="46.19417" lon="4.52096">
        <ele>576.399</ele>
        <time>2021-04-03T10:59:12Z</time>
      </trkpt>
      <trkpt lat="46.19413" lon="4.52145">
        <ele>574.365</ele>
        <time>2021-04-03T10:59:14Z</time>
      </trkpt>
      <trkpt lat="46.1941" lon="4.52198">
        <ele>572.072</ele>
        <time>2021-04-03T10:59:16Z</time>
      </trkpt>
      <trkpt lat="46.19408" lon="4.52242">
        <ele>569.369</ele>
        <time>2021-04-03T10:59:18Z</time>
      </trkpt>
      <trkpt lat="46.19406" lon="4.52282">
        <ele>566.777</ele>
        <time>2021-04-03T10:59:20Z</time>
      </trkpt>
      <trkpt lat="46.19405" lon="4.52318">
        <ele>564.361</ele>
        <time>2021-04-03T10:59:22Z</time>
      </trkpt>
      <trkpt lat="46.19406" lon="4.52348">
        <ele>562.227</ele>
        <time>2021-04-03T10:59:24Z</time>
      </trkpt>
      <trkpt lat="46.1941" lon="4.52377">
        <ele>560.208</ele>
        <time>2021-04-03T10:59:26Z</time>
      </trkpt>
      <trkpt lat="46.19418" lon="4.52399">
        <ele>559.173</ele>
        <time>2021-04-03T10:59:28Z</time>
      </trkpt>
      <trkpt lat="46.19428" lon="4.52415">
        <ele>557.686</ele>
        <time>2021-04-03T10:59:30Z</time>
      </trkpt>
      <trkpt lat="46.19441" lon="4.52434">
        <ele>557.135</ele>
        <time>2021-04-03T10:59:32Z</time>
      </trkpt>
      <trkpt lat="46.19448" lon="4.52446">
        <ele>556.877</ele>
        <time>2021-04-03T10:59:33Z</time>
      </trkpt>
      <trkpt lat="46.19453" lon="4.52457">
        <ele>556.519</ele>
        <time>2021-04-03T10:59:34Z</time>
      </trkpt>
      <trkpt lat="46.19457" lon="4.52482">
        <ele>556.555</ele>
        <time>2021-04-03T10:59:36Z</time>
      </trkpt>
      <trkpt lat="46.19458" lon="4.5251">
        <ele>556.752</ele>
        <time>2021-04-03T10:59:38Z</time>
      </trkpt>
      <trkpt lat="46.19461" lon="4.52525">
        <ele>556.329</ele>
        <time>2021-04-03T10:59:39Z</time>
      </trkpt>
      <trkpt lat="46.1947" lon="4.52557">
        <ele>556.193</ele>
        <time>2021-04-03T10:59:41Z</time>
      </trkpt>
      <trkpt lat="46.19472" lon="4.52569">
        <ele>556.165</ele>
        <time>2021-04-03T10:59:42Z</time>
      </trkpt>
      <trkpt lat="46.19472" lon="4.52579">
        <ele>555.721</ele>
        <time>2021-04-03T10:59:43Z</time>
      </trkpt>
      <trkpt lat="46.19471" lon="4.52591">
        <ele>555.208</ele>
        <time>2021-04-03T10:59:44Z</time>
      </trkpt>
      <trkpt lat="46.19468" lon="4.52613">
        <ele>554.685</ele>
        <time>2021-04-03T10:59:46Z</time>
      </trkpt>
      <trkpt lat="46.19463" lon="4.52635">
        <ele>553.538</ele>
        <time>2021-04-03T10:59:48Z</time>
      </trkpt>
      <trkpt lat="46.19457" lon="4.52655">
        <ele>552.537</ele>
        <time>2021-04-03T10:59:50Z</time>
      </trkpt>
      <trkpt lat="46.1945" lon="4.52673">
        <ele>552.359</ele>
        <time>2021-04-03T10:59:52Z</time>
      </trkpt>
      <trkpt lat="46.19443" lon="4.52688">
        <ele>551.521</ele>
        <time>2021-04-03T10:59:54Z</time>
      </trkpt>
      <trkpt lat="46.19441" lon="4.52698">
        <ele>551.637</ele>
        <time>2021-04-03T10:59:55Z</time>
      </trkpt>
      <trkpt lat="46.19438" lon="4.52711">
        <ele>551.894</ele>
        <time>2021-04-03T10:59:56Z</time>
      </trkpt>
      <trkpt lat="46.19436" lon="4.52739">
        <ele>550.861</ele>
        <time>2021-04-03T10:59:58Z</time>
      </trkpt>
      <trkpt lat="46.19426" lon="4.52771">
        <ele>550.179</ele>
        <time>2021-04-03T11:00:00Z</time>
      </trkpt>
      <trkpt lat="46.19423" lon="4.52785">
        <ele>549.805</ele>
        <time>2021-04-03T11:00:01Z</time>
      </trkpt>
      <trkpt lat="46.19421" lon="4.52801">
        <ele>549.725</ele>
        <time>2021-04-03T11:00:02Z</time>
      </trkpt>
      <trkpt lat="46.19413" lon="4.52833">
        <ele>549.908</ele>
        <time>2021-04-03T11:00:04Z</time>
      </trkpt>
      <trkpt lat="46.19407" lon="4.5286">
        <ele>548.823</ele>
        <time>2021-04-03T11:00:06Z</time>
      </trkpt>
      <trkpt lat="46.19401" lon="4.52886">
        <ele>547.456</ele>
        <time>2021-04-03T11:00:08Z</time>
      </trkpt>
      <trkpt lat="46.19396" lon="4.52899">
        <ele>546.655</ele>
        <time>2021-04-03T11:00:09Z</time>
      </trkpt>
      <trkpt lat="46.19385" lon="4.52925">
        <ele>545.887</ele>
        <time>2021-04-03T11:00:11Z</time>
      </trkpt>
      <trkpt lat="46.1938" lon="4.52937">
        <ele>545.299</ele>
        <time>2021-04-03T11:00:12Z</time>
      </trkpt>
      <trkpt lat="46.19375" lon="4.52947">
        <ele>545.065</ele>
        <time>2021-04-03T11:00:13Z</time>
      </trkpt>
      <trkpt lat="46.19369" lon="4.52958">
        <ele>544.532</ele>
        <time>2021-04-03T11:00:14Z</time>
      </trkpt>
      <trkpt lat="46.19356" lon="4.52986">
        <ele>544.219</ele>
        <time>2021-04-03T11:00:16Z</time>
      </trkpt>
      <trkpt lat="46.19344" lon="4.5301">
        <ele>543.897</ele>
        <time>2021-04-03T11:00:18Z</time>
      </trkpt>
      <trkpt lat="46.19334" lon="4.5303">
        <ele>543.723</ele>
        <time>2021-04-03T11:00:20Z</time>
      </trkpt>
      <trkpt lat="46.19319" lon="4.53053">
        <ele>543.625</ele>
        <time>2021-04-03T11:00:22Z</time>
      </trkpt>
      <trkpt lat="46.19303" lon="4.53078">
        <ele>544.408</ele>
        <time>2021-04-03T11:00:24Z</time>
      </trkpt>
      <trkpt lat="46.19297" lon="4.53092">
        <ele>544.825</ele>
        <time>2021-04-03T11:00:25Z</time>
      </trkpt>
      <trkpt lat="46.19284" lon="4.53122">
        <ele>544.028</ele>
        <time>2021-04-03T11:00:27Z</time>
      </trkpt>
      <trkpt lat="46.19278" lon="4.53137">
        <ele>543.487</ele>
        <time>2021-04-03T11:00:28Z</time>
      </trkpt>
      <trkpt lat="46.19266" lon="4.53163">
        <ele>543.449</ele>
        <time>2021-04-03T11:00:30Z</time>
      </trkpt>
      <trkpt lat="46.19255" lon="4.53189">
        <ele>543.191</ele>
        <time>2021-04-03T11:00:32Z</time>
      </trkpt>
      <trkpt lat="46.19241" lon="4.53214">
        <ele>542.457</ele>
        <time>2021-04-03T11:00:34Z</time>
      </trkpt>
      <trkpt lat="46.19224" lon="4.53237">
        <ele>539.374</ele>
        <time>2021-04-03T11:00:36Z</time>
      </trkpt>
      <trkpt lat="46.19202" lon="4.53262">
        <ele>537.151</ele>
        <time>2021-04-03T11:00:38Z</time>
      </trkpt>
      <trkpt lat="46.19186" lon="4.53289">
        <ele>535.017</ele>
        <time>2021-04-03T11:00:40Z</time>
      </trkpt>
      <trkpt lat="46.19181" lon="4.53302">
        <ele>533.887</ele>
        <time>2021-04-03T11:00:41Z</time>
      </trkpt>
      <trkpt lat="46.19175" lon="4.53328">
        <ele>533.115</ele>
        <time>2021-04-03T11:00:43Z</time>
      </trkpt>
      <trkpt lat="46.19172" lon="4.53341">
        <ele>532.308</ele>
        <time>2021-04-03T11:00:44Z</time>
      </trkpt>
      <trkpt lat="46.19164" lon="4.53364">
        <ele>531.937</ele>
        <time>2021-04-03T11:00:46Z</time>
      </trkpt>
      <trkpt lat="46.1916" lon="4.53377">
        <ele>531.91</ele>
        <time>2021-04-03T11:00:47Z</time>
      </trkpt>
      <trkpt lat="46.19152" lon="4.53406">
        <ele>532.199</ele>
        <time>2021-04-03T11:00:49Z</time>
      </trkpt>
      <trkpt lat="46.19146" lon="4.53422">
        <ele>532.361</ele>
        <time>2021-04-03T11:00:50Z</time>
      </trkpt>
      <trkpt lat="46.19134" lon="4.53454">
        <ele>532.193</ele>
        <time>2021-04-03T11:00:52Z</time>
      </trkpt>
      <trkpt lat="46.1913" lon="4.53471">
        <ele>532.079</ele>
        <time>2021-04-03T11:00:53Z</time>
      </trkpt>
      <trkpt lat="46.19119" lon="4.53497">
        <ele>529.866</ele>
        <time>2021-04-03T11:00:55Z</time>
      </trkpt>
      <trkpt lat="46.19116" lon="4.53523">
        <ele>528.183</ele>
        <time>2021-04-03T11:00:57Z</time>
      </trkpt>
      <trkpt lat="46.19116" lon="4.53556">
        <ele>527.242</ele>
        <time>2021-04-03T11:00:59Z</time>
      </trkpt>
      <trkpt lat="46.19118" lon="4.53592">
        <ele>526.822</ele>
        <time>2021-04-03T11:01:01Z</time>
      </trkpt>
      <trkpt lat="46.19117" lon="4.53621">
        <ele>527.414</ele>
        <time>2021-04-03T11:01:03Z</time>
      </trkpt>
      <trkpt lat="46.19115" lon="4.53632">
        <ele>527.708</ele>
        <time>2021-04-03T11:01:04Z</time>
      </trkpt>
      <trkpt lat="46.19113" lon="4.53647">
        <ele>527.97</ele>
        <time>2021-04-03T11:01:06Z</time>
      </trkpt>
      <trkpt lat="46.19104" lon="4.53649">
        <ele>528.993</ele>
        <time>2021-04-03T11:01:12Z</time>
      </trkpt>
      <trkpt lat="46.19098" lon="4.5365">
        <ele>529.512</ele>
        <time>2021-04-03T11:01:13Z</time>
      </trkpt>
      <trkpt lat="46.19093" lon="4.53652">
        <ele>529.644</ele>
        <time>2021-04-03T11:01:14Z</time>
      </trkpt>
      <trkpt lat="46.19088" lon="4.53648">
        <ele>529.646</ele>
        <time>2021-04-03T11:01:17Z</time>
      </trkpt>
      <trkpt lat="46.19084" lon="4.53652">
        <ele>529.782</ele>
        <time>2021-04-03T11:01:18Z</time>
      </trkpt>
      <trkpt lat="46.19084" lon="4.5366">
        <ele>529.759</ele>
        <time>2021-04-03T11:01:20Z</time>
      </trkpt>
      <trkpt lat="46.19083" lon="4.53658">
        <ele>533.776</ele>
        <time>2021-04-03T11:16:51Z</time>
      </trkpt>
      <trkpt lat="46.19076" lon="4.53656">
        <ele>529.278</ele>
        <time>2021-04-03T11:19:28Z</time>
      </trkpt>
      <trkpt lat="46.1907" lon="4.53655">
        <ele>528.833</ele>
        <time>2021-04-03T11:19:30Z</time>
      </trkpt>
      <trkpt lat="46.19065" lon="4.53653">
        <ele>528.326</ele>
        <time>2021-04-03T11:19:32Z</time>
      </trkpt>
      <trkpt lat="46.19058" lon="4.53653">
        <ele>527.408</ele>
        <time>2021-04-03T11:19:34Z</time>
      </trkpt>
      <trkpt lat="46.19054" lon="4.53658">
        <ele>526.633</ele>
        <time>2021-04-03T11:19:38Z</time>
      </trkpt>
      <trkpt lat="46.19062" lon="4.53655">
        <ele>526.766</ele>
        <time>2021-04-03T11:19:42Z</time>
      </trkpt>
      <trkpt lat="46.1907" lon="4.53654">
        <ele>527.135</ele>
        <time>2021-04-03T11:19:44Z</time>
      </trkpt>
      <trkpt lat="46.19077" lon="4.53654">
        <ele>527.967</ele>
        <time>2021-04-03T11:19:46Z</time>
      </trkpt>
      <trkpt lat="46.19087" lon="4.53653">
        <ele>528.649</ele>
        <time>2021-04-03T11:19:48Z</time>
      </trkpt>
      <trkpt lat="46.19093" lon="4.53652">
        <ele>529.065</ele>
        <time>2021-04-03T11:19:50Z</time>
      </trkpt>
      <trkpt lat="46.191" lon="4.5365">
        <ele>529.322</ele>
        <time>2021-04-03T11:19:52Z</time>
      </trkpt>
      <trkpt lat="46.19107" lon="4.53649">
        <ele>529.569</ele>
        <time>2021-04-03T11:19:54Z</time>
      </trkpt>
      <trkpt lat="46.19114" lon="4.53644">
        <ele>529.468</ele>
        <time>2021-04-03T11:19:58Z</time>
      </trkpt>
      <trkpt lat="46.1912" lon="4.53672">
        <ele>529.442</ele>
        <time>2021-04-03T11:20:12Z</time>
      </trkpt>
      <trkpt lat="46.1912" lon="4.53692">
        <ele>529.926</ele>
        <time>2021-04-03T11:20:14Z</time>
      </trkpt>
      <trkpt lat="46.19121" lon="4.5371">
        <ele>529.908</ele>
        <time>2021-04-03T11:20:16Z</time>
      </trkpt>
      <trkpt lat="46.19123" lon="4.53729">
        <ele>529.872</ele>
        <time>2021-04-03T11:20:18Z</time>
      </trkpt>
      <trkpt lat="46.19121" lon="4.5375">
        <ele>529.335</ele>
        <time>2021-04-03T11:20:20Z</time>
      </trkpt>
      <trkpt lat="46.19118" lon="4.53766">
        <ele>530.194</ele>
        <time>2021-04-03T11:20:22Z</time>
      </trkpt>
      <trkpt lat="46.19119" lon="4.53775">
        <ele>529.916</ele>
        <time>2021-04-03T11:20:24Z</time>
      </trkpt>
      <trkpt lat="46.19115" lon="4.53795">
        <ele>529.788</ele>
        <time>2021-04-03T11:20:26Z</time>
      </trkpt>
      <trkpt lat="46.19107" lon="4.53818">
        <ele>530.044</ele>
        <time>2021-04-03T11:20:28Z</time>
      </trkpt>
      <trkpt lat="46.19099" lon="4.53838">
        <ele>528.941</ele>
        <time>2021-04-03T11:20:30Z</time>
      </trkpt>
      <trkpt lat="46.19091" lon="4.53861">
        <ele>527.348</ele>
        <time>2021-04-03T11:20:32Z</time>
      </trkpt>
      <trkpt lat="46.19079" lon="4.53881">
        <ele>525.987</ele>
        <time>2021-04-03T11:20:34Z</time>
      </trkpt>
      <trkpt lat="46.19068" lon="4.53901">
        <ele>523.942</ele>
        <time>2021-04-03T11:20:36Z</time>
      </trkpt>
      <trkpt lat="46.19062" lon="4.53914">
        <ele>522.326</ele>
        <time>2021-04-03T11:20:38Z</time>
      </trkpt>
      <trkpt lat="46.19053" lon="4.53927">
        <ele>520.308</ele>
        <time>2021-04-03T11:20:40Z</time>
      </trkpt>
      <trkpt lat="46.19042" lon="4.53943">
        <ele>517.344</ele>
        <time>2021-04-03T11:20:42Z</time>
      </trkpt>
      <trkpt lat="46.19033" lon="4.53961">
        <ele>515.247</ele>
        <time>2021-04-03T11:20:44Z</time>
      </trkpt>
      <trkpt lat="46.19027" lon="4.53977">
        <ele>513.196</ele>
        <time>2021-04-03T11:20:46Z</time>
      </trkpt>
      <trkpt lat="46.19022" lon="4.53991">
        <ele>511.578</ele>
        <time>2021-04-03T11:20:48Z</time>
      </trkpt>
      <trkpt lat="46.19015" lon="4.54009">
        <ele>509.37</ele>
        <time>2021-04-03T11:20:50Z</time>
      </trkpt>
      <trkpt lat="46.1901" lon="4.54032">
        <ele>505.776</ele>
        <time>2021-04-03T11:20:52Z</time>
      </trkpt>
      <trkpt lat="46.19006" lon="4.54056">
        <ele>502.753</ele>
        <time>2021-04-03T11:20:54Z</time>
      </trkpt>
      <trkpt lat="46.18998" lon="4.54081">
        <ele>499.98</ele>
        <time>2021-04-03T11:20:56Z</time>
      </trkpt>
      <trkpt lat="46.18996" lon="4.54103">
        <ele>497.392</ele>
        <time>2021-04-03T11:20:58Z</time>
      </trkpt>
      <trkpt lat="46.18997" lon="4.54124">
        <ele>495.973</ele>
        <time>2021-04-03T11:21:00Z</time>
      </trkpt>
      <trkpt lat="46.18994" lon="4.54144">
        <ele>494.62</ele>
        <time>2021-04-03T11:21:02Z</time>
      </trkpt>
      <trkpt lat="46.18993" lon="4.54155">
        <ele>492.708</ele>
        <time>2021-04-03T11:21:04Z</time>
      </trkpt>
      <trkpt lat="46.18995" lon="4.54162">
        <ele>492.125</ele>
        <time>2021-04-03T11:21:08Z</time>
      </trkpt>
      <trkpt lat="46.18996" lon="4.54173">
        <ele>490.978</ele>
        <time>2021-04-03T11:21:12Z</time>
      </trkpt>
      <trkpt lat="46.18994" lon="4.5418">
        <ele>488.997</ele>
        <time>2021-04-03T11:21:24Z</time>
      </trkpt>
      <trkpt lat="46.18993" lon="4.54188">
        <ele>486.579</ele>
        <time>2021-04-03T11:21:28Z</time>
      </trkpt>
      <trkpt lat="46.18992" lon="4.54197">
        <ele>483.981</ele>
        <time>2021-04-03T11:21:32Z</time>
      </trkpt>
      <trkpt lat="46.1899" lon="4.54208">
        <ele>481.127</ele>
        <time>2021-04-03T11:21:36Z</time>
      </trkpt>
      <trkpt lat="46.18989" lon="4.54216">
        <ele>478.784</ele>
        <time>2021-04-03T11:21:38Z</time>
      </trkpt>
      <trkpt lat="46.18986" lon="4.54225">
        <ele>475.221</ele>
        <time>2021-04-03T11:21:42Z</time>
      </trkpt>
      <trkpt lat="46.18982" lon="4.54237">
        <ele>473.152</ele>
        <time>2021-04-03T11:21:46Z</time>
      </trkpt>
      <trkpt lat="46.18978" lon="4.54242">
        <ele>471.853</ele>
        <time>2021-04-03T11:21:48Z</time>
      </trkpt>
      <trkpt lat="46.18974" lon="4.54249">
        <ele>471.108</ele>
        <time>2021-04-03T11:21:50Z</time>
      </trkpt>
      <trkpt lat="46.18969" lon="4.54254">
        <ele>469.708</ele>
        <time>2021-04-03T11:21:52Z</time>
      </trkpt>
      <trkpt lat="46.18964" lon="4.5426">
        <ele>467.721</ele>
        <time>2021-04-03T11:21:54Z</time>
      </trkpt>
      <trkpt lat="46.18959" lon="4.54264">
        <ele>465.654</ele>
        <time>2021-04-03T11:21:56Z</time>
      </trkpt>
      <trkpt lat="46.18954" lon="4.5427">
        <ele>464.173</ele>
        <time>2021-04-03T11:21:58Z</time>
      </trkpt>
      <trkpt lat="46.18948" lon="4.54276">
        <ele>462.665</ele>
        <time>2021-04-03T11:22:00Z</time>
      </trkpt>
      <trkpt lat="46.18939" lon="4.54282">
        <ele>461.917</ele>
        <time>2021-04-03T11:22:02Z</time>
      </trkpt>
      <trkpt lat="46.1893" lon="4.54288">
        <ele>460.593</ele>
        <time>2021-04-03T11:22:04Z</time>
      </trkpt>
      <trkpt lat="46.18925" lon="4.54289">
        <ele>459.49</ele>
        <time>2021-04-03T11:22:06Z</time>
      </trkpt>
      <trkpt lat="46.18918" lon="4.5429">
        <ele>458.027</ele>
        <time>2021-04-03T11:22:08Z</time>
      </trkpt>
      <trkpt lat="46.18912" lon="4.54288">
        <ele>456.062</ele>
        <time>2021-04-03T11:22:10Z</time>
      </trkpt>
      <trkpt lat="46.18904" lon="4.54288">
        <ele>454.283</ele>
        <time>2021-04-03T11:22:12Z</time>
      </trkpt>
      <trkpt lat="46.18897" lon="4.54296">
        <ele>451.911</ele>
        <time>2021-04-03T11:22:14Z</time>
      </trkpt>
      <trkpt lat="46.18892" lon="4.54308">
        <ele>449.708</ele>
        <time>2021-04-03T11:22:16Z</time>
      </trkpt>
      <trkpt lat="46.1889" lon="4.54319">
        <ele>447.632</ele>
        <time>2021-04-03T11:22:18Z</time>
      </trkpt>
      <trkpt lat="46.1889" lon="4.54331">
        <ele>445.895</ele>
        <time>2021-04-03T11:22:20Z</time>
      </trkpt>
      <trkpt lat="46.1889" lon="4.54344">
        <ele>445.074</ele>
        <time>2021-04-03T11:22:22Z</time>
      </trkpt>
      <trkpt lat="46.1889" lon="4.5435">
        <ele>444.216</ele>
        <time>2021-04-03T11:22:24Z</time>
      </trkpt>
      <trkpt lat="46.18888" lon="4.54357">
        <ele>444.848</ele>
        <time>2021-04-03T11:22:30Z</time>
      </trkpt>
      <trkpt lat="46.18883" lon="4.54365">
        <ele>445.344</ele>
        <time>2021-04-03T11:22:32Z</time>
      </trkpt>
      <trkpt lat="46.18875" lon="4.5437">
        <ele>444.911</ele>
        <time>2021-04-03T11:22:34Z</time>
      </trkpt>
      <trkpt lat="46.18859" lon="4.54369">
        <ele>444.648</ele>
        <time>2021-04-03T11:22:36Z</time>
      </trkpt>
      <trkpt lat="46.1884" lon="4.54374">
        <ele>443.786</ele>
        <time>2021-04-03T11:22:38Z</time>
      </trkpt>
      <trkpt lat="46.18821" lon="4.54381">
        <ele>442.56</ele>
        <time>2021-04-03T11:22:40Z</time>
      </trkpt>
      <trkpt lat="46.18805" lon="4.54388">
        <ele>440.626</ele>
        <time>2021-04-03T11:22:42Z</time>
      </trkpt>
      <trkpt lat="46.18793" lon="4.54395">
        <ele>439.208</ele>
        <time>2021-04-03T11:22:44Z</time>
      </trkpt>
      <trkpt lat="46.18786" lon="4.54398">
        <ele>438.174</ele>
        <time>2021-04-03T11:22:46Z</time>
      </trkpt>
      <trkpt lat="46.18776" lon="4.54413">
        <ele>436.737</ele>
        <time>2021-04-03T11:22:50Z</time>
      </trkpt>
      <trkpt lat="46.18765" lon="4.54438">
        <ele>435.326</ele>
        <time>2021-04-03T11:22:52Z</time>
      </trkpt>
      <trkpt lat="46.18753" lon="4.54464">
        <ele>433.838</ele>
        <time>2021-04-03T11:22:54Z</time>
      </trkpt>
      <trkpt lat="46.18742" lon="4.54489">
        <ele>432.49</ele>
        <time>2021-04-03T11:22:56Z</time>
      </trkpt>
      <trkpt lat="46.18733" lon="4.54512">
        <ele>430.926</ele>
        <time>2021-04-03T11:22:58Z</time>
      </trkpt>
      <trkpt lat="46.18725" lon="4.54534">
        <ele>429.473</ele>
        <time>2021-04-03T11:23:00Z</time>
      </trkpt>
      <trkpt lat="46.18716" lon="4.54558">
        <ele>428.01</ele>
        <time>2021-04-03T11:23:02Z</time>
      </trkpt>
      <trkpt lat="46.18708" lon="4.54585">
        <ele>426.719</ele>
        <time>2021-04-03T11:23:04Z</time>
      </trkpt>
      <trkpt lat="46.18702" lon="4.54609">
        <ele>425.609</ele>
        <time>2021-04-03T11:23:06Z</time>
      </trkpt>
      <trkpt lat="46.18701" lon="4.54631">
        <ele>424.619</ele>
        <time>2021-04-03T11:23:08Z</time>
      </trkpt>
      <trkpt lat="46.18704" lon="4.54646">
        <ele>424.108</ele>
        <time>2021-04-03T11:23:10Z</time>
      </trkpt>
      <trkpt lat="46.18709" lon="4.54648">
        <ele>424.767</ele>
        <time>2021-04-03T11:23:14Z</time>
      </trkpt>
      <trkpt lat="46.18729" lon="4.54661">
        <ele>423.94</ele>
        <time>2021-04-03T11:23:18Z</time>
      </trkpt>
      <trkpt lat="46.18744" lon="4.54672">
        <ele>423.069</ele>
        <time>2021-04-03T11:23:20Z</time>
      </trkpt>
      <trkpt lat="46.18762" lon="4.54685">
        <ele>421.951</ele>
        <time>2021-04-03T11:23:22Z</time>
      </trkpt>
      <trkpt lat="46.18783" lon="4.54695">
        <ele>420.783</ele>
        <time>2021-04-03T11:23:24Z</time>
      </trkpt>
      <trkpt lat="46.18804" lon="4.54699">
        <ele>419.599</ele>
        <time>2021-04-03T11:23:26Z</time>
      </trkpt>
      <trkpt lat="46.18822" lon="4.54702">
        <ele>418.126</ele>
        <time>2021-04-03T11:23:28Z</time>
      </trkpt>
      <trkpt lat="46.18838" lon="4.54709">
        <ele>416.663</ele>
        <time>2021-04-03T11:23:30Z</time>
      </trkpt>
      <trkpt lat="46.1885" lon="4.54724">
        <ele>415.968</ele>
        <time>2021-04-03T11:23:32Z</time>
      </trkpt>
      <trkpt lat="46.18858" lon="4.54745">
        <ele>415.342</ele>
        <time>2021-04-03T11:23:34Z</time>
      </trkpt>
      <trkpt lat="46.18861" lon="4.54767">
        <ele>415.226</ele>
        <time>2021-04-03T11:23:36Z</time>
      </trkpt>
      <trkpt lat="46.18854" lon="4.54788">
        <ele>415.008</ele>
        <time>2021-04-03T11:23:38Z</time>
      </trkpt>
      <trkpt lat="46.18839" lon="4.54808">
        <ele>414.152</ele>
        <time>2021-04-03T11:23:40Z</time>
      </trkpt>
      <trkpt lat="46.1882" lon="4.54832">
        <ele>413.735</ele>
        <time>2021-04-03T11:23:42Z</time>
      </trkpt>
      <trkpt lat="46.18796" lon="4.54865">
        <ele>413.194</ele>
        <time>2021-04-03T11:23:44Z</time>
      </trkpt>
      <trkpt lat="46.18648" lon="4.54995">
        <ele>411.246</ele>
        <time>2021-04-03T11:23:52Z</time>
      </trkpt>
      <trkpt lat="46.18619" lon="4.55006">
        <ele>410.798</ele>
        <time>2021-04-03T11:23:54Z</time>
      </trkpt>
      <trkpt lat="46.18602" lon="4.55011">
        <ele>410.414</ele>
        <time>2021-04-03T11:23:56Z</time>
      </trkpt>
      <trkpt lat="46.18596" lon="4.55018">
        <ele>410.381</ele>
        <time>2021-04-03T11:23:58Z</time>
      </trkpt>
      <trkpt lat="46.18599" lon="4.55024">
        <ele>410.198</ele>
        <time>2021-04-03T11:24:00Z</time>
      </trkpt>
      <trkpt lat="46.18605" lon="4.55027">
        <ele>409.261</ele>
        <time>2021-04-03T11:24:12Z</time>
      </trkpt>
      <trkpt lat="46.18616" lon="4.55024">
        <ele>408.921</ele>
        <time>2021-04-03T11:24:14Z</time>
      </trkpt>
      <trkpt lat="46.18635" lon="4.55016">
        <ele>408.713</ele>
        <time>2021-04-03T11:24:16Z</time>
      </trkpt>
      <trkpt lat="46.18657" lon="4.55006">
        <ele>412.708</ele>
        <time>2021-04-03T11:24:18Z</time>
      </trkpt>
      <trkpt lat="46.18681" lon="4.54993">
        <ele>416.062</ele>
        <time>2021-04-03T11:24:20Z</time>
      </trkpt>
      <trkpt lat="46.18712" lon="4.54972">
        <ele>417.055</ele>
        <time>2021-04-03T11:24:22Z</time>
      </trkpt>
      <trkpt lat="46.18863" lon="4.5481">
        <ele>418.974</ele>
        <time>2021-04-03T11:24:30Z</time>
      </trkpt>
      <trkpt lat="46.18888" lon="4.54776">
        <ele>421.166</ele>
        <time>2021-04-03T11:24:32Z</time>
      </trkpt>
      <trkpt lat="46.18906" lon="4.54751">
        <ele>422.958</ele>
        <time>2021-04-03T11:24:34Z</time>
      </trkpt>
      <trkpt lat="46.18925" lon="4.54731">
        <ele>424.414</ele>
        <time>2021-04-03T11:24:36Z</time>
      </trkpt>
      <trkpt lat="46.18948" lon="4.54719">
        <ele>426.141</ele>
        <time>2021-04-03T11:24:38Z</time>
      </trkpt>
      <trkpt lat="46.18973" lon="4.54724">
        <ele>427.638</ele>
        <time>2021-04-03T11:24:40Z</time>
      </trkpt>
      <trkpt lat="46.18994" lon="4.54746">
        <ele>428.747</ele>
        <time>2021-04-03T11:24:42Z</time>
      </trkpt>
      <trkpt lat="46.19003" lon="4.54774">
        <ele>430.229</ele>
        <time>2021-04-03T11:24:44Z</time>
      </trkpt>
      <trkpt lat="46.19" lon="4.54787">
        <ele>430.921</ele>
        <time>2021-04-03T11:24:46Z</time>
      </trkpt>
      <trkpt lat="46.18993" lon="4.54782">
        <ele>431.408</ele>
        <time>2021-04-03T11:24:48Z</time>
      </trkpt>
      <trkpt lat="46.18984" lon="4.54777">
        <ele>431.61</ele>
        <time>2021-04-03T11:24:50Z</time>
      </trkpt>
      <trkpt lat="46.18973" lon="4.54768">
        <ele>432.793</ele>
        <time>2021-04-03T11:24:52Z</time>
      </trkpt>
      <trkpt lat="46.18968" lon="4.54766">
        <ele>433.942</ele>
        <time>2021-04-03T11:24:54Z</time>
      </trkpt>
      <trkpt lat="46.18962" lon="4.5477">
        <ele>435.674</ele>
        <time>2021-04-03T11:24:56Z</time>
      </trkpt>
      <trkpt lat="46.18956" lon="4.54777">
        <ele>437.226</ele>
        <time>2021-04-03T11:24:58Z</time>
      </trkpt>
      <trkpt lat="46.18947" lon="4.54778">
        <ele>439.382</ele>
        <time>2021-04-03T11:25:00Z</time>
      </trkpt>
      <trkpt lat="46.18937" lon="4.54781">
        <ele>441.459</ele>
        <time>2021-04-03T11:25:02Z</time>
      </trkpt>
      <trkpt lat="46.18934" lon="4.54792">
        <ele>443.356</ele>
        <time>2021-04-03T11:25:04Z</time>
      </trkpt>
      <trkpt lat="46.18929" lon="4.54807">
        <ele>445.788</ele>
        <time>2021-04-03T11:25:06Z</time>
      </trkpt>
      <trkpt lat="46.18922" lon="4.54827">
        <ele>448.324</ele>
        <time>2021-04-03T11:25:08Z</time>
      </trkpt>
      <trkpt lat="46.18916" lon="4.54847">
        <ele>450.426</ele>
        <time>2021-04-03T11:25:10Z</time>
      </trkpt>
      <trkpt lat="46.18912" lon="4.54862">
        <ele>452.208</ele>
        <time>2021-04-03T11:25:12Z</time>
      </trkpt>
      <trkpt lat="46.18913" lon="4.5487">
        <ele>453.354</ele>
        <time>2021-04-03T11:25:22Z</time>
      </trkpt>
      <trkpt lat="46.18921" lon="4.54873">
        <ele>457.357</ele>
        <time>2021-04-03T11:25:24Z</time>
      </trkpt>
      <trkpt lat="46.1893" lon="4.54873">
        <ele>461.346</ele>
        <time>2021-04-03T11:25:26Z</time>
      </trkpt>
      <trkpt lat="46.18941" lon="4.54875">
        <ele>463.968</ele>
        <time>2021-04-03T11:25:28Z</time>
      </trkpt>
      <trkpt lat="46.18948" lon="4.54886">
        <ele>465.46</ele>
        <time>2021-04-03T11:25:30Z</time>
      </trkpt>
      <trkpt lat="46.1895" lon="4.54899">
        <ele>466.766</ele>
        <time>2021-04-03T11:25:32Z</time>
      </trkpt>
      <trkpt lat="46.18956" lon="4.54915">
        <ele>469.013</ele>
        <time>2021-04-03T11:25:34Z</time>
      </trkpt>
      <trkpt lat="46.18964" lon="4.54934">
        <ele>471.31</ele>
        <time>2021-04-03T11:25:36Z</time>
      </trkpt>
      <trkpt lat="46.18971" lon="4.54958">
        <ele>473.741</ele>
        <time>2021-04-03T11:25:38Z</time>
      </trkpt>
      <trkpt lat="46.18977" lon="4.54985">
        <ele>476.081</ele>
        <time>2021-04-03T11:25:40Z</time>
      </trkpt>
      <trkpt lat="46.18982" lon="4.55015">
        <ele>479.709</ele>
        <time>2021-04-03T11:25:42Z</time>
      </trkpt>
      <trkpt lat="46.18989" lon="4.55053">
        <ele>483.708</ele>
        <time>2021-04-03T11:25:44Z</time>
      </trkpt>
      <trkpt lat="46.18994" lon="4.55078">
        <ele>487.72</ele>
        <time>2021-04-03T11:25:46Z</time>
      </trkpt>
      <trkpt lat="46.18998" lon="4.55099">
        <ele>491.723</ele>
        <time>2021-04-03T11:25:48Z</time>
      </trkpt>
      <trkpt lat="46.19002" lon="4.55128">
        <ele>495.752</ele>
        <time>2021-04-03T11:25:50Z</time>
      </trkpt>
      <trkpt lat="46.19005" lon="4.55155">
        <ele>499.714</ele>
        <time>2021-04-03T11:25:52Z</time>
      </trkpt>
      <trkpt lat="46.19009" lon="4.55183">
        <ele>503.736</ele>
        <time>2021-04-03T11:25:54Z</time>
      </trkpt>
      <trkpt lat="46.19013" lon="4.55209">
        <ele>507.122</ele>
        <time>2021-04-03T11:25:56Z</time>
      </trkpt>
      <trkpt lat="46.19016" lon="4.55228">
        <ele>509.539</ele>
        <time>2021-04-03T11:25:58Z</time>
      </trkpt>
      <trkpt lat="46.19017" lon="4.55236">
        <ele>507.586</ele>
        <time>2021-04-03T11:26:00Z</time>
      </trkpt>
      <trkpt lat="46.19021" lon="4.55259">
        <ele>509.929</ele>
        <time>2021-04-03T11:26:02Z</time>
      </trkpt>
      <trkpt lat="46.1903" lon="4.55284">
        <ele>513.9</ele>
        <time>2021-04-03T11:26:04Z</time>
      </trkpt>
      <trkpt lat="46.19034" lon="4.55313">
        <ele>517.92</ele>
        <time>2021-04-03T11:26:06Z</time>
      </trkpt>
      <trkpt lat="46.19038" lon="4.55344">
        <ele>521.908</ele>
        <time>2021-04-03T11:26:08Z</time>
      </trkpt>
      <trkpt lat="46.19045" lon="4.55372">
        <ele>525.958</ele>
        <time>2021-04-03T11:26:10Z</time>
      </trkpt>
      <trkpt lat="46.19055" lon="4.55392">
        <ele>529.921</ele>
        <time>2021-04-03T11:26:12Z</time>
      </trkpt>
      <trkpt lat="46.19065" lon="4.55411">
        <ele>525.94</ele>
        <time>2021-04-03T11:26:14Z</time>
      </trkpt>
      <trkpt lat="46.19073" lon="4.55432">
        <ele>521.962</ele>
        <time>2021-04-03T11:26:16Z</time>
      </trkpt>
      <trkpt lat="46.19082" lon="4.55462">
        <ele>525.944</ele>
        <time>2021-04-03T11:26:18Z</time>
      </trkpt>
      <trkpt lat="46.1909" lon="4.55497">
        <ele>529.97</ele>
        <time>2021-04-03T11:26:20Z</time>
      </trkpt>
      <trkpt lat="46.19091" lon="4.55528">
        <ele>533.987</ele>
        <time>2021-04-03T11:26:22Z</time>
      </trkpt>
      <trkpt lat="46.19093" lon="4.55571">
        <ele>537.984</ele>
        <time>2021-04-03T11:26:24Z</time>
      </trkpt>
      <trkpt lat="46.19105" lon="4.55694">
        <ele>541.999</ele>
        <time>2021-04-03T11:26:30Z</time>
      </trkpt>
      <trkpt lat="46.19108" lon="4.55727">
        <ele>545.907</ele>
        <time>2021-04-03T11:26:32Z</time>
      </trkpt>
      <trkpt lat="46.19112" lon="4.55762">
        <ele>549.927</ele>
        <time>2021-04-03T11:26:34Z</time>
      </trkpt>
      <trkpt lat="46.19114" lon="4.55786">
        <ele>553.908</ele>
        <time>2021-04-03T11:26:36Z</time>
      </trkpt>
      <trkpt lat="46.19116" lon="4.55811">
        <ele>557.975</ele>
        <time>2021-04-03T11:26:38Z</time>
      </trkpt>
      <trkpt lat="46.19119" lon="4.55831">
        <ele>561.968</ele>
        <time>2021-04-03T11:26:40Z</time>
      </trkpt>
      <trkpt lat="46.19121" lon="4.55841">
        <ele>565.967</ele>
        <time>2021-04-03T11:26:42Z</time>
      </trkpt>
      <trkpt lat="46.19129" lon="4.55854">
        <ele>569.969</ele>
        <time>2021-04-03T11:27:00Z</time>
      </trkpt>
      <trkpt lat="46.19133" lon="4.5587">
        <ele>573.931</ele>
        <time>2021-04-03T11:27:02Z</time>
      </trkpt>
      <trkpt lat="46.19138" lon="4.55884">
        <ele>577.937</ele>
        <time>2021-04-03T11:27:04Z</time>
      </trkpt>
      <trkpt lat="46.19146" lon="4.55901">
        <ele>581.914</ele>
        <time>2021-04-03T11:27:06Z</time>
      </trkpt>
      <trkpt lat="46.19149" lon="4.55921">
        <ele>585.951</ele>
        <time>2021-04-03T11:27:08Z</time>
      </trkpt>
      <trkpt lat="46.19149" lon="4.55939">
        <ele>589.933</ele>
        <time>2021-04-03T11:27:10Z</time>
      </trkpt>
      <trkpt lat="46.19152" lon="4.5596">
        <ele>593.923</ele>
        <time>2021-04-03T11:27:12Z</time>
      </trkpt>
      <trkpt lat="46.1916" lon="4.55981">
        <ele>597.915</ele>
        <time>2021-04-03T11:27:14Z</time>
      </trkpt>
      <trkpt lat="46.19167" lon="4.56">
        <ele>601.908</ele>
        <time>2021-04-03T11:27:16Z</time>
      </trkpt>
      <trkpt lat="46.19172" lon="4.56021">
        <ele>605.959</ele>
        <time>2021-04-03T11:27:18Z</time>
      </trkpt>
      <trkpt lat="46.19181" lon="4.56039">
        <ele>608.032</ele>
        <time>2021-04-03T11:27:20Z</time>
      </trkpt>
      <trkpt lat="46.19187" lon="4.56058">
        <ele>609.771</ele>
        <time>2021-04-03T11:27:22Z</time>
      </trkpt>
      <trkpt lat="46.19191" lon="4.56078">
        <ele>610.763</ele>
        <time>2021-04-03T11:27:24Z</time>
      </trkpt>
      <trkpt lat="46.19196" lon="4.56092">
        <ele>614.715</ele>
        <time>2021-04-03T11:27:26Z</time>
      </trkpt>
      <trkpt lat="46.19202" lon="4.56109">
        <ele>618.771</ele>
        <time>2021-04-03T11:27:28Z</time>
      </trkpt>
      <trkpt lat="46.19207" lon="4.56119">
        <ele>622.088</ele>
        <time>2021-04-03T11:27:30Z</time>
      </trkpt>
      <trkpt lat="46.19212" lon="4.56127">
        <ele>624.465</ele>
        <time>2021-04-03T11:27:32Z</time>
      </trkpt>
      <trkpt lat="46.19219" lon="4.56144">
        <ele>626.961</ele>
        <time>2021-04-03T11:27:36Z</time>
      </trkpt>
      <trkpt lat="46.19232" lon="4.56168">
        <ele>629.521</ele>
        <time>2021-04-03T11:27:38Z</time>
      </trkpt>
      <trkpt lat="46.19245" lon="4.56187">
        <ele>632.313</ele>
        <time>2021-04-03T11:27:40Z</time>
      </trkpt>
      <trkpt lat="46.19258" lon="4.56208">
        <ele>635.208</ele>
        <time>2021-04-03T11:27:42Z</time>
      </trkpt>
      <trkpt lat="46.19272" lon="4.56227">
        <ele>638.432</ele>
        <time>2021-04-03T11:27:44Z</time>
      </trkpt>
      <trkpt lat="46.19283" lon="4.56242">
        <ele>641.775</ele>
        <time>2021-04-03T11:27:46Z</time>
      </trkpt>
      <trkpt lat="46.19292" lon="4.56251">
        <ele>644.094</ele>
        <time>2021-04-03T11:27:48Z</time>
      </trkpt>
      <trkpt lat="46.19305" lon="4.56265">
        <ele>645.616</ele>
        <time>2021-04-03T11:27:50Z</time>
      </trkpt>
      <trkpt lat="46.19318" lon="4.56283">
        <ele>647.358</ele>
        <time>2021-04-03T11:27:52Z</time>
      </trkpt>
      <trkpt lat="46.19333" lon="4.56297">
        <ele>648.744</ele>
        <time>2021-04-03T11:27:54Z</time>
      </trkpt>
      <trkpt lat="46.19346" lon="4.56306">
        <ele>649.911</ele>
        <time>2021-04-03T11:27:56Z</time>
      </trkpt>
      <trkpt lat="46.19356" lon="4.56312">
        <ele>651.288</ele>
        <time>2021-04-03T11:27:58Z</time>
      </trkpt>
      <trkpt lat="46.19363" lon="4.56322">
        <ele>651.842</ele>
        <time>2021-04-03T11:28:00Z</time>
      </trkpt>
      <trkpt lat="46.1937" lon="4.56341">
        <ele>652.122</ele>
        <time>2021-04-03T11:28:02Z</time>
      </trkpt>
      <trkpt lat="46.19375" lon="4.5636">
        <ele>652.214</ele>
        <time>2021-04-03T11:28:04Z</time>
      </trkpt>
      <trkpt lat="46.19379" lon="4.56378">
        <ele>652.808</ele>
        <time>2021-04-03T11:28:06Z</time>
      </trkpt>
      <trkpt lat="46.19383" lon="4.56385">
        <ele>653.78</ele>
        <time>2021-04-03T11:28:08Z</time>
      </trkpt>
      <trkpt lat="46.19388" lon="4.5639">
        <ele>654.633</ele>
        <time>2021-04-03T11:28:11Z</time>
      </trkpt>
      <trkpt lat="46.19393" lon="4.56388">
        <ele>657.392</ele>
        <time>2021-04-03T11:28:18Z</time>
      </trkpt>
      <trkpt lat="46.19398" lon="4.56397">
        <ele>659.674</ele>
        <time>2021-04-03T11:28:24Z</time>
      </trkpt>
      <trkpt lat="46.19401" lon="4.56405">
        <ele>661.226</ele>
        <time>2021-04-03T11:28:26Z</time>
      </trkpt>
      <trkpt lat="46.19405" lon="4.5641">
        <ele>662.542</ele>
        <time>2021-04-03T11:28:28Z</time>
      </trkpt>
      <trkpt lat="46.19414" lon="4.56414">
        <ele>664.189</ele>
        <time>2021-04-03T11:28:40Z</time>
      </trkpt>
      <trkpt lat="46.19422" lon="4.56413">
        <ele>665.346</ele>
        <time>2021-04-03T11:28:42Z</time>
      </trkpt>
      <trkpt lat="46.19434" lon="4.56414">
        <ele>666.475</ele>
        <time>2021-04-03T11:28:44Z</time>
      </trkpt>
      <trkpt lat="46.19445" lon="4.56419">
        <ele>667.428</ele>
        <time>2021-04-03T11:28:46Z</time>
      </trkpt>
      <trkpt lat="46.19455" lon="4.56422">
        <ele>668.32</ele>
        <time>2021-04-03T11:28:48Z</time>
      </trkpt>
      <trkpt lat="46.19465" lon="4.56427">
        <ele>669.308</ele>
        <time>2021-04-03T11:28:50Z</time>
      </trkpt>
      <trkpt lat="46.19475" lon="4.56436">
        <ele>669.913</ele>
        <time>2021-04-03T11:28:52Z</time>
      </trkpt>
      <trkpt lat="46.19484" lon="4.56442">
        <ele>670.216</ele>
        <time>2021-04-03T11:28:54Z</time>
      </trkpt>
      <trkpt lat="46.19499" lon="4.56443">
        <ele>671.815</ele>
        <time>2021-04-03T11:28:58Z</time>
      </trkpt>
      <trkpt lat="46.19505" lon="4.56438">
        <ele>673.647</ele>
        <time>2021-04-03T11:29:00Z</time>
      </trkpt>
      <trkpt lat="46.19514" lon="4.56427">
        <ele>675.639</ele>
        <time>2021-04-03T11:29:02Z</time>
      </trkpt>
      <trkpt lat="46.19517" lon="4.56414">
        <ele>676.625</ele>
        <time>2021-04-03T11:29:04Z</time>
      </trkpt>
      <trkpt lat="46.1952" lon="4.56406">
        <ele>677.212</ele>
        <time>2021-04-03T11:29:08Z</time>
      </trkpt>
      <trkpt lat="46.19522" lon="4.56399">
        <ele>678.519</ele>
        <time>2021-04-03T11:29:10Z</time>
      </trkpt>
      <trkpt lat="46.19527" lon="4.56389">
        <ele>679.639</ele>
        <time>2021-04-03T11:29:12Z</time>
      </trkpt>
      <trkpt lat="46.19531" lon="4.56374">
        <ele>682.101</ele>
        <time>2021-04-03T11:29:14Z</time>
      </trkpt>
      <trkpt lat="46.19532" lon="4.56366">
        <ele>682.521</ele>
        <time>2021-04-03T11:29:16Z</time>
      </trkpt>
      <trkpt lat="46.19537" lon="4.56352">
        <ele>682.808</ele>
        <time>2021-04-03T11:29:26Z</time>
      </trkpt>
      <trkpt lat="46.19545" lon="4.5633">
        <ele>680.179</ele>
        <time>2021-04-03T11:29:28Z</time>
      </trkpt>
      <trkpt lat="46.19555" lon="4.56303">
        <ele>680.422</ele>
        <time>2021-04-03T11:29:30Z</time>
      </trkpt>
      <trkpt lat="46.19566" lon="4.5627">
        <ele>681.741</ele>
        <time>2021-04-03T11:29:32Z</time>
      </trkpt>
      <trkpt lat="46.19576" lon="4.56246">
        <ele>682.413</ele>
        <time>2021-04-03T11:29:34Z</time>
      </trkpt>
      <trkpt lat="46.19584" lon="4.5624">
        <ele>683.275</ele>
        <time>2021-04-03T11:29:36Z</time>
      </trkpt>
      <trkpt lat="46.19586" lon="4.56248">
        <ele>684.541</ele>
        <time>2021-04-03T11:29:38Z</time>
      </trkpt>
      <trkpt lat="46.19591" lon="4.56262">
        <ele>686.068</ele>
        <time>2021-04-03T11:29:40Z</time>
      </trkpt>
      <trkpt lat="46.19598" lon="4.56288">
        <ele>687.575</ele>
        <time>2021-04-03T11:29:42Z</time>
      </trkpt>
      <trkpt lat="46.19609" lon="4.5632">
        <ele>689.174</ele>
        <time>2021-04-03T11:29:44Z</time>
      </trkpt>
      <trkpt lat="46.19622" lon="4.5635">
        <ele>690.056</ele>
        <time>2021-04-03T11:29:46Z</time>
      </trkpt>
      <trkpt lat="46.1963" lon="4.56367">
        <ele>690.621</ele>
        <time>2021-04-03T11:29:48Z</time>
      </trkpt>
      <trkpt lat="46.19635" lon="4.56386">
        <ele>686.708</ele>
        <time>2021-04-03T11:29:50Z</time>
      </trkpt>
      <trkpt lat="46.19632" lon="4.56413">
        <ele>687.223</ele>
        <time>2021-04-03T11:29:52Z</time>
      </trkpt>
      <trkpt lat="46.19626" lon="4.56441">
        <ele>689.756</ele>
        <time>2021-04-03T11:29:54Z</time>
      </trkpt>
      <trkpt lat="46.19624" lon="4.5646">
        <ele>691.855</ele>
        <time>2021-04-03T11:29:56Z</time>
      </trkpt>
      <trkpt lat="46.19633" lon="4.56475">
        <ele>695.767</ele>
        <time>2021-04-03T11:29:58Z</time>
      </trkpt>
      <trkpt lat="46.19646" lon="4.56485">
        <ele>699.539</ele>
        <time>2021-04-03T11:30:00Z</time>
      </trkpt>
      <trkpt lat="46.19648" lon="4.56499">
        <ele>703.275</ele>
        <time>2021-04-03T11:30:02Z</time>
      </trkpt>
      <trkpt lat="46.19648" lon="4.56515">
        <ele>706.282</ele>
        <time>2021-04-03T11:30:04Z</time>
      </trkpt>
      <trkpt lat="46.19652" lon="4.56519">
        <ele>709.959</ele>
        <time>2021-04-03T11:30:24Z</time>
      </trkpt>
      <trkpt lat="46.1966" lon="4.56523">
        <ele>711.719</ele>
        <time>2021-04-03T11:30:26Z</time>
      </trkpt>
      <trkpt lat="46.19674" lon="4.56528">
        <ele>713.309</ele>
        <time>2021-04-03T11:30:28Z</time>
      </trkpt>
      <trkpt lat="46.19689" lon="4.56531">
        <ele>714.419</ele>
        <time>2021-04-03T11:30:30Z</time>
      </trkpt>
      <trkpt lat="46.19704" lon="4.56533">
        <ele>715.508</ele>
        <time>2021-04-03T11:30:32Z</time>
      </trkpt>
      <trkpt lat="46.19716" lon="4.56532">
        <ele>716.227</ele>
        <time>2021-04-03T11:30:34Z</time>
      </trkpt>
      <trkpt lat="46.19725" lon="4.56532">
        <ele>717.86</ele>
        <time>2021-04-03T11:30:36Z</time>
      </trkpt>
      <trkpt lat="46.19734" lon="4.56531">
        <ele>719.639</ele>
        <time>2021-04-03T11:30:40Z</time>
      </trkpt>
      <trkpt lat="46.19742" lon="4.56527">
        <ele>721.091</ele>
        <time>2021-04-03T11:30:42Z</time>
      </trkpt>
      <trkpt lat="46.19756" lon="4.56522">
        <ele>722.193</ele>
        <time>2021-04-03T11:30:44Z</time>
      </trkpt>
      <trkpt lat="46.19774" lon="4.56513">
        <ele>723.579</ele>
        <time>2021-04-03T11:30:46Z</time>
      </trkpt>
      <trkpt lat="46.19788" lon="4.56503">
        <ele>724.376</ele>
        <time>2021-04-03T11:30:48Z</time>
      </trkpt>
      <trkpt lat="46.19801" lon="4.56489">
        <ele>724.663</ele>
        <time>2021-04-03T11:30:50Z</time>
      </trkpt>
      <trkpt lat="46.19815" lon="4.56473">
        <ele>724.765</ele>
        <time>2021-04-03T11:30:52Z</time>
      </trkpt>
      <trkpt lat="46.1983" lon="4.56454">
        <ele>724.568</ele>
        <time>2021-04-03T11:30:54Z</time>
      </trkpt>
      <trkpt lat="46.19846" lon="4.56439">
        <ele>724.314</ele>
        <time>2021-04-03T11:30:56Z</time>
      </trkpt>
      <trkpt lat="46.19861" lon="4.56428">
        <ele>724.608</ele>
        <time>2021-04-03T11:30:58Z</time>
      </trkpt>
      <trkpt lat="46.19876" lon="4.56415">
        <ele>724.372</ele>
        <time>2021-04-03T11:31:00Z</time>
      </trkpt>
      <trkpt lat="46.19891" lon="4.56409">
        <ele>724.345</ele>
        <time>2021-04-03T11:31:02Z</time>
      </trkpt>
      <trkpt lat="46.19905" lon="4.56412">
        <ele>724.364</ele>
        <time>2021-04-03T11:31:04Z</time>
      </trkpt>
      <trkpt lat="46.19917" lon="4.5642">
        <ele>724.546</ele>
        <time>2021-04-03T11:31:06Z</time>
      </trkpt>
      <trkpt lat="46.19929" lon="4.56428">
        <ele>724.888</ele>
        <time>2021-04-03T11:31:08Z</time>
      </trkpt>
      <trkpt lat="46.19943" lon="4.56435">
        <ele>724.354</ele>
        <time>2021-04-03T11:31:10Z</time>
      </trkpt>
      <trkpt lat="46.1996" lon="4.56441">
        <ele>724.971</ele>
        <time>2021-04-03T11:31:12Z</time>
      </trkpt>
      <trkpt lat="46.19975" lon="4.56441">
        <ele>724.658</ele>
        <time>2021-04-03T11:31:14Z</time>
      </trkpt>
      <trkpt lat="46.19989" lon="4.56441">
        <ele>724.079</ele>
        <time>2021-04-03T11:31:16Z</time>
      </trkpt>
      <trkpt lat="46.20003" lon="4.56436">
        <ele>722.005</ele>
        <time>2021-04-03T11:31:18Z</time>
      </trkpt>
      <trkpt lat="46.20022" lon="4.56426">
        <ele>720.525</ele>
        <time>2021-04-03T11:31:20Z</time>
      </trkpt>
      <trkpt lat="46.20047" lon="4.56413">
        <ele>719.708</ele>
        <time>2021-04-03T11:31:22Z</time>
      </trkpt>
      <trkpt lat="46.2007" lon="4.56398">
        <ele>719.613</ele>
        <time>2021-04-03T11:31:24Z</time>
      </trkpt>
      <trkpt lat="46.20093" lon="4.56379">
        <ele>719.436</ele>
        <time>2021-04-03T11:31:26Z</time>
      </trkpt>
      <trkpt lat="46.2012" lon="4.56358">
        <ele>720.055</ele>
        <time>2021-04-03T11:31:28Z</time>
      </trkpt>
      <trkpt lat="46.20148" lon="4.56336">
        <ele>720.927</ele>
        <time>2021-04-03T11:31:30Z</time>
      </trkpt>
      <trkpt lat="46.20175" lon="4.56318">
        <ele>722.239</ele>
        <time>2021-04-03T11:31:32Z</time>
      </trkpt>
      <trkpt lat="46.20201" lon="4.56301">
        <ele>723.665</ele>
        <time>2021-04-03T11:31:34Z</time>
      </trkpt>
      <trkpt lat="46.20221" lon="4.56289">
        <ele>719.682</ele>
        <time>2021-04-03T11:31:36Z</time>
      </trkpt>
      <trkpt lat="46.20243" lon="4.56279">
        <ele>722.259</ele>
        <time>2021-04-03T11:31:38Z</time>
      </trkpt>
      <trkpt lat="46.20262" lon="4.5628">
        <ele>724.881</ele>
        <time>2021-04-03T11:31:40Z</time>
      </trkpt>
      <trkpt lat="46.20279" lon="4.5629">
        <ele>726.861</ele>
        <time>2021-04-03T11:31:42Z</time>
      </trkpt>
      <trkpt lat="46.20292" lon="4.56304">
        <ele>728.017</ele>
        <time>2021-04-03T11:31:44Z</time>
      </trkpt>
      <trkpt lat="46.20301" lon="4.56315">
        <ele>728.708</ele>
        <time>2021-04-03T11:31:46Z</time>
      </trkpt>
      <trkpt lat="46.20309" lon="4.5633">
        <ele>724.734</ele>
        <time>2021-04-03T11:31:48Z</time>
      </trkpt>
      <trkpt lat="46.20317" lon="4.56346">
        <ele>722.737</ele>
        <time>2021-04-03T11:31:50Z</time>
      </trkpt>
      <trkpt lat="46.20328" lon="4.56359">
        <ele>721.866</ele>
        <time>2021-04-03T11:31:52Z</time>
      </trkpt>
      <trkpt lat="46.20341" lon="4.5637">
        <ele>721.178</ele>
        <time>2021-04-03T11:31:54Z</time>
      </trkpt>
      <trkpt lat="46.20355" lon="4.56377">
        <ele>719.95</ele>
        <time>2021-04-03T11:31:56Z</time>
      </trkpt>
      <trkpt lat="46.20369" lon="4.5638">
        <ele>719.366</ele>
        <time>2021-04-03T11:31:58Z</time>
      </trkpt>
      <trkpt lat="46.20383" lon="4.56382">
        <ele>718.263</ele>
        <time>2021-04-03T11:32:00Z</time>
      </trkpt>
      <trkpt lat="46.20396" lon="4.56382">
        <ele>717.94</ele>
        <time>2021-04-03T11:32:02Z</time>
      </trkpt>
      <trkpt lat="46.20409" lon="4.56378">
        <ele>718.275</ele>
        <time>2021-04-03T11:32:04Z</time>
      </trkpt>
      <trkpt lat="46.20422" lon="4.5637">
        <ele>714.228</ele>
        <time>2021-04-03T11:32:06Z</time>
      </trkpt>
      <trkpt lat="46.20438" lon="4.56361">
        <ele>714.32</ele>
        <time>2021-04-03T11:32:08Z</time>
      </trkpt>
      <trkpt lat="46.20452" lon="4.56352">
        <ele>715.708</ele>
        <time>2021-04-03T11:32:10Z</time>
      </trkpt>
      <trkpt lat="46.20467" lon="4.56348">
        <ele>717.513</ele>
        <time>2021-04-03T11:32:12Z</time>
      </trkpt>
      <trkpt lat="46.20479" lon="4.56346">
        <ele>718.536</ele>
        <time>2021-04-03T11:32:14Z</time>
      </trkpt>
      <trkpt lat="46.2049" lon="4.56342">
        <ele>719.415</ele>
        <time>2021-04-03T11:32:16Z</time>
      </trkpt>
      <trkpt lat="46.20504" lon="4.56335">
        <ele>720.257</ele>
        <time>2021-04-03T11:32:18Z</time>
      </trkpt>
      <trkpt lat="46.20517" lon="4.56332">
        <ele>719.519</ele>
        <time>2021-04-03T11:32:20Z</time>
      </trkpt>
      <trkpt lat="46.20532" lon="4.56331">
        <ele>719.165</ele>
        <time>2021-04-03T11:32:22Z</time>
      </trkpt>
      <trkpt lat="46.20546" lon="4.56329">
        <ele>715.112</ele>
        <time>2021-04-03T11:32:24Z</time>
      </trkpt>
      <trkpt lat="46.2056" lon="4.56327">
        <ele>711.129</ele>
        <time>2021-04-03T11:32:26Z</time>
      </trkpt>
      <trkpt lat="46.20575" lon="4.56326">
        <ele>708.125</ele>
        <time>2021-04-03T11:32:28Z</time>
      </trkpt>
      <trkpt lat="46.20589" lon="4.56331">
        <ele>706.426</ele>
        <time>2021-04-03T11:32:30Z</time>
      </trkpt>
      <trkpt lat="46.20602" lon="4.56336">
        <ele>705.708</ele>
        <time>2021-04-03T11:32:32Z</time>
      </trkpt>
      <trkpt lat="46.20614" lon="4.56339">
        <ele>705.708</ele>
        <time>2021-04-03T11:32:34Z</time>
      </trkpt>
      <trkpt lat="46.20623" lon="4.56343">
        <ele>706.278</ele>
        <time>2021-04-03T11:32:36Z</time>
      </trkpt>
      <trkpt lat="46.20633" lon="4.56345">
        <ele>705.951</ele>
        <time>2021-04-03T11:32:38Z</time>
      </trkpt>
      <trkpt lat="46.20642" lon="4.56345">
        <ele>706.16</ele>
        <time>2021-04-03T11:32:40Z</time>
      </trkpt>
      <trkpt lat="46.20651" lon="4.56347">
        <ele>706.662</ele>
        <time>2021-04-03T11:32:44Z</time>
      </trkpt>
      <trkpt lat="46.20657" lon="4.56349">
        <ele>707.644</ele>
        <time>2021-04-03T11:33:00Z</time>
      </trkpt>
      <trkpt lat="46.2067" lon="4.56351">
        <ele>708.41</ele>
        <time>2021-04-03T11:33:02Z</time>
      </trkpt>
      <trkpt lat="46.20687" lon="4.56351">
        <ele>709.687</ele>
        <time>2021-04-03T11:33:04Z</time>
      </trkpt>
      <trkpt lat="46.20704" lon="4.56355">
        <ele>710.764</ele>
        <time>2021-04-03T11:33:06Z</time>
      </trkpt>
      <trkpt lat="46.20719" lon="4.56359">
        <ele>711.639</ele>
        <time>2021-04-03T11:33:08Z</time>
      </trkpt>
      <trkpt lat="46.20733" lon="4.5636">
        <ele>712.901</ele>
        <time>2021-04-03T11:33:10Z</time>
      </trkpt>
      <trkpt lat="46.20743" lon="4.56351">
        <ele>713.621</ele>
        <time>2021-04-03T11:33:12Z</time>
      </trkpt>
      <trkpt lat="46.20751" lon="4.56335">
        <ele>714.508</ele>
        <time>2021-04-03T11:33:14Z</time>
      </trkpt>
      <trkpt lat="46.20759" lon="4.56317">
        <ele>715.229</ele>
        <time>2021-04-03T11:33:16Z</time>
      </trkpt>
      <trkpt lat="46.20766" lon="4.56298">
        <ele>715.872</ele>
        <time>2021-04-03T11:33:18Z</time>
      </trkpt>
      <trkpt lat="46.20772" lon="4.56281">
        <ele>716.881</ele>
        <time>2021-04-03T11:33:20Z</time>
      </trkpt>
      <trkpt lat="46.20777" lon="4.56262">
        <ele>717.493</ele>
        <time>2021-04-03T11:33:22Z</time>
      </trkpt>
      <trkpt lat="46.20779" lon="4.56245">
        <ele>718.285</ele>
        <time>2021-04-03T11:33:24Z</time>
      </trkpt>
      <trkpt lat="46.20775" lon="4.56231">
        <ele>719.831</ele>
        <time>2021-04-03T11:33:26Z</time>
      </trkpt>
      <trkpt lat="46.20771" lon="4.56215">
        <ele>721.168</ele>
        <time>2021-04-03T11:33:28Z</time>
      </trkpt>
      <trkpt lat="46.2077" lon="4.56191">
        <ele>722.345</ele>
        <time>2021-04-03T11:33:30Z</time>
      </trkpt>
      <trkpt lat="46.20768" lon="4.56167">
        <ele>723.485</ele>
        <time>2021-04-03T11:33:32Z</time>
      </trkpt>
      <trkpt lat="46.2077" lon="4.56146">
        <ele>724.989</ele>
        <time>2021-04-03T11:33:34Z</time>
      </trkpt>
      <trkpt lat="46.20777" lon="4.5613">
        <ele>726.317</ele>
        <time>2021-04-03T11:33:36Z</time>
      </trkpt>
      <trkpt lat="46.20786" lon="4.56108">
        <ele>727.508</ele>
        <time>2021-04-03T11:33:38Z</time>
      </trkpt>
      <trkpt lat="46.208" lon="4.56084">
        <ele>728.914</ele>
        <time>2021-04-03T11:33:40Z</time>
      </trkpt>
      <trkpt lat="46.20819" lon="4.56056">
        <ele>729.627</ele>
        <time>2021-04-03T11:33:42Z</time>
      </trkpt>
      <trkpt lat="46.20839" lon="4.56023">
        <ele>731.216</ele>
        <time>2021-04-03T11:33:44Z</time>
      </trkpt>
      <trkpt lat="46.20855" lon="4.55995">
        <ele>733.658</ele>
        <time>2021-04-03T11:33:46Z</time>
      </trkpt>
      <trkpt lat="46.20868" lon="4.5597">
        <ele>735.31</ele>
        <time>2021-04-03T11:33:48Z</time>
      </trkpt>
      <trkpt lat="46.20879" lon="4.55942">
        <ele>731.316</ele>
        <time>2021-04-03T11:33:50Z</time>
      </trkpt>
      <trkpt lat="46.20889" lon="4.55915">
        <ele>731.813</ele>
        <time>2021-04-03T11:33:52Z</time>
      </trkpt>
      <trkpt lat="46.20899" lon="4.55888">
        <ele>734.41</ele>
        <time>2021-04-03T11:33:54Z</time>
      </trkpt>
      <trkpt lat="46.20911" lon="4.5586">
        <ele>736.092</ele>
        <time>2021-04-03T11:33:56Z</time>
      </trkpt>
      <trkpt lat="46.20921" lon="4.55834">
        <ele>737.073</ele>
        <time>2021-04-03T11:33:58Z</time>
      </trkpt>
      <trkpt lat="46.20931" lon="4.55809">
        <ele>735.62</ele>
        <time>2021-04-03T11:34:00Z</time>
      </trkpt>
      <trkpt lat="46.20939" lon="4.55788">
        <ele>737.208</ele>
        <time>2021-04-03T11:34:02Z</time>
      </trkpt>
      <trkpt lat="46.20946" lon="4.55765">
        <ele>736.955</ele>
        <time>2021-04-03T11:34:04Z</time>
      </trkpt>
      <trkpt lat="46.20956" lon="4.55745">
        <ele>740.018</ele>
        <time>2021-04-03T11:34:06Z</time>
      </trkpt>
      <trkpt lat="46.20963" lon="4.55727">
        <ele>743.247</ele>
        <time>2021-04-03T11:34:08Z</time>
      </trkpt>
      <trkpt lat="46.20973" lon="4.55709">
        <ele>746.379</ele>
        <time>2021-04-03T11:34:10Z</time>
      </trkpt>
      <trkpt lat="46.20985" lon="4.5569">
        <ele>748.221</ele>
        <time>2021-04-03T11:34:12Z</time>
      </trkpt>
      <trkpt lat="46.20993" lon="4.5567">
        <ele>744.247</ele>
        <time>2021-04-03T11:34:14Z</time>
      </trkpt>
      <trkpt lat="46.21" lon="4.5565">
        <ele>740.294</ele>
        <time>2021-04-03T11:34:16Z</time>
      </trkpt>
      <trkpt lat="46.21005" lon="4.5563">
        <ele>739.991</ele>
        <time>2021-04-03T11:34:18Z</time>
      </trkpt>
      <trkpt lat="46.21014" lon="4.55611">
        <ele>739.839</ele>
        <time>2021-04-03T11:34:20Z</time>
      </trkpt>
      <trkpt lat="46.21022" lon="4.55594">
        <ele>739.601</ele>
        <time>2021-04-03T11:34:22Z</time>
      </trkpt>
      <trkpt lat="46.21028" lon="4.55574">
        <ele>739.521</ele>
        <time>2021-04-03T11:34:24Z</time>
      </trkpt>
      <trkpt lat="46.21032" lon="4.55551">
        <ele>739.408</ele>
        <time>2021-04-03T11:34:26Z</time>
      </trkpt>
      <trkpt lat="46.21034" lon="4.55528">
        <ele>739.319</ele>
        <time>2021-04-03T11:34:28Z</time>
      </trkpt>
      <trkpt lat="46.2104" lon="4.55508">
        <ele>735.312</ele>
        <time>2021-04-03T11:34:30Z</time>
      </trkpt>
      <trkpt lat="46.2105" lon="4.55485">
        <ele>734.841</ele>
        <time>2021-04-03T11:34:32Z</time>
      </trkpt>
      <trkpt lat="46.21061" lon="4.55457">
        <ele>734.753</ele>
        <time>2021-04-03T11:34:34Z</time>
      </trkpt>
      <trkpt lat="46.21072" lon="4.55432">
        <ele>734.775</ele>
        <time>2021-04-03T11:34:36Z</time>
      </trkpt>
      <trkpt lat="46.21081" lon="4.5541">
        <ele>734.611</ele>
        <time>2021-04-03T11:34:38Z</time>
      </trkpt>
      <trkpt lat="46.21091" lon="4.5539">
        <ele>734.168</ele>
        <time>2021-04-03T11:34:40Z</time>
      </trkpt>
      <trkpt lat="46.21104" lon="4.55371">
        <ele>733.765</ele>
        <time>2021-04-03T11:34:42Z</time>
      </trkpt>
      <trkpt lat="46.21114" lon="4.55357">
        <ele>733.682</ele>
        <time>2021-04-03T11:34:44Z</time>
      </trkpt>
      <trkpt lat="46.21121" lon="4.55347">
        <ele>733.743</ele>
        <time>2021-04-03T11:34:46Z</time>
      </trkpt>
      <trkpt lat="46.21127" lon="4.55347">
        <ele>734.517</ele>
        <time>2021-04-03T11:34:50Z</time>
      </trkpt>
      <trkpt lat="46.21132" lon="4.55365">
        <ele>734.708</ele>
        <time>2021-04-03T11:34:54Z</time>
      </trkpt>
      <trkpt lat="46.21136" lon="4.55382">
        <ele>733.384</ele>
        <time>2021-04-03T11:34:56Z</time>
      </trkpt>
      <trkpt lat="46.21139" lon="4.55401">
        <ele>732.367</ele>
        <time>2021-04-03T11:34:58Z</time>
      </trkpt>
      <trkpt lat="46.21145" lon="4.55425">
        <ele>730.916</ele>
        <time>2021-04-03T11:35:00Z</time>
      </trkpt>
      <trkpt lat="46.21151" lon="4.55457">
        <ele>726.948</ele>
        <time>2021-04-03T11:35:02Z</time>
      </trkpt>
      <trkpt lat="46.21156" lon="4.55499">
        <ele>722.96</ele>
        <time>2021-04-03T11:35:04Z</time>
      </trkpt>
      <trkpt lat="46.21159" lon="4.55538">
        <ele>721.276</ele>
        <time>2021-04-03T11:35:06Z</time>
      </trkpt>
      <trkpt lat="46.21159" lon="4.55579">
        <ele>720.283</ele>
        <time>2021-04-03T11:35:08Z</time>
      </trkpt>
      <trkpt lat="46.21151" lon="4.5579">
        <ele>719.02</ele>
        <time>2021-04-03T11:35:16Z</time>
      </trkpt>
      <trkpt lat="46.21159" lon="4.55837">
        <ele>716.357</ele>
        <time>2021-04-03T11:35:18Z</time>
      </trkpt>
      <trkpt lat="46.21167" lon="4.55898">
        <ele>713.5</ele>
        <time>2021-04-03T11:35:20Z</time>
      </trkpt>
      <trkpt lat="46.21172" lon="4.55948">
        <ele>712.22</ele>
        <time>2021-04-03T11:35:22Z</time>
      </trkpt>
      <trkpt lat="46.21197" lon="4.56165">
        <ele>709.408</ele>
        <time>2021-04-03T11:35:30Z</time>
      </trkpt>
      <trkpt lat="46.21201" lon="4.56201">
        <ele>706.871</ele>
        <time>2021-04-03T11:35:32Z</time>
      </trkpt>
      <trkpt lat="46.21206" lon="4.56238">
        <ele>703.544</ele>
        <time>2021-04-03T11:35:34Z</time>
      </trkpt>
      <trkpt lat="46.21208" lon="4.56289">
        <ele>700.563</ele>
        <time>2021-04-03T11:35:36Z</time>
      </trkpt>
      <trkpt lat="46.21219" lon="4.56438">
        <ele>697.745</ele>
        <time>2021-04-03T11:35:42Z</time>
      </trkpt>
      <trkpt lat="46.21224" lon="4.56474">
        <ele>695.917</ele>
        <time>2021-04-03T11:35:44Z</time>
      </trkpt>
      <trkpt lat="46.21227" lon="4.56506">
        <ele>693.763</ele>
        <time>2021-04-03T11:35:46Z</time>
      </trkpt>
      <trkpt lat="46.21231" lon="4.56541">
        <ele>692.44</ele>
        <time>2021-04-03T11:35:48Z</time>
      </trkpt>
      <trkpt lat="46.21238" lon="4.56577">
        <ele>691.327</ele>
        <time>2021-04-03T11:35:50Z</time>
      </trkpt>
      <trkpt lat="46.21246" lon="4.56608">
        <ele>695.378</ele>
        <time>2021-04-03T11:35:52Z</time>
      </trkpt>
      <trkpt lat="46.21259" lon="4.56635">
        <ele>699.233</ele>
        <time>2021-04-03T11:35:54Z</time>
      </trkpt>
      <trkpt lat="46.21273" lon="4.56659">
        <ele>703.226</ele>
        <time>2021-04-03T11:35:56Z</time>
      </trkpt>
      <trkpt lat="46.21289" lon="4.56682">
        <ele>703.108</ele>
        <time>2021-04-03T11:35:58Z</time>
      </trkpt>
      <trkpt lat="46.21309" lon="4.56711">
        <ele>699.173</ele>
        <time>2021-04-03T11:36:00Z</time>
      </trkpt>
      <trkpt lat="46.21331" lon="4.5674">
        <ele>695.336</ele>
        <time>2021-04-03T11:36:02Z</time>
      </trkpt>
      <trkpt lat="46.2135" lon="4.56766">
        <ele>691.395</ele>
        <time>2021-04-03T11:36:04Z</time>
      </trkpt>
      <trkpt lat="46.2137" lon="4.5679">
        <ele>688.257</ele>
        <time>2021-04-03T11:36:06Z</time>
      </trkpt>
      <trkpt lat="46.21391" lon="4.56806">
        <ele>686.399</ele>
        <time>2021-04-03T11:36:08Z</time>
      </trkpt>
      <trkpt lat="46.21409" lon="4.56816">
        <ele>684.965</ele>
        <time>2021-04-03T11:36:10Z</time>
      </trkpt>
      <trkpt lat="46.21425" lon="4.56826">
        <ele>683.132</ele>
        <time>2021-04-03T11:36:12Z</time>
      </trkpt>
      <trkpt lat="46.21438" lon="4.56836">
        <ele>681.469</ele>
        <time>2021-04-03T11:36:14Z</time>
      </trkpt>
      <trkpt lat="46.21452" lon="4.5684">
        <ele>679.977</ele>
        <time>2021-04-03T11:36:16Z</time>
      </trkpt>
      <trkpt lat="46.21476" lon="4.56845">
        <ele>678.361</ele>
        <time>2021-04-03T11:36:18Z</time>
      </trkpt>
      <trkpt lat="46.2151" lon="4.56854">
        <ele>676.527</ele>
        <time>2021-04-03T11:36:20Z</time>
      </trkpt>
      <trkpt lat="46.21666" lon="4.56938">
        <ele>675.508</ele>
        <time>2021-04-03T11:36:28Z</time>
      </trkpt>
      <trkpt lat="46.21696" lon="4.56953">
        <ele>675.193</ele>
        <time>2021-04-03T11:36:30Z</time>
      </trkpt>
      <trkpt lat="46.21722" lon="4.56972">
        <ele>674.736</ele>
        <time>2021-04-03T11:36:32Z</time>
      </trkpt>
      <trkpt lat="46.21751" lon="4.56997">
        <ele>674.985</ele>
        <time>2021-04-03T11:36:34Z</time>
      </trkpt>
      <trkpt lat="46.21841" lon="4.57095">
        <ele>673.747</ele>
        <time>2021-04-03T11:36:40Z</time>
      </trkpt>
      <trkpt lat="46.21864" lon="4.57127">
        <ele>672.329</ele>
        <time>2021-04-03T11:36:42Z</time>
      </trkpt>
      <trkpt lat="46.21889" lon="4.57161">
        <ele>670.985</ele>
        <time>2021-04-03T11:36:44Z</time>
      </trkpt>
      <trkpt lat="46.21945" lon="4.57262">
        <ele>669.082</ele>
        <time>2021-04-03T11:36:50Z</time>
      </trkpt>
      <trkpt lat="46.21955" lon="4.57289">
        <ele>668.029</ele>
        <time>2021-04-03T11:36:52Z</time>
      </trkpt>
      <trkpt lat="46.21968" lon="4.5731">
        <ele>667.141</ele>
        <time>2021-04-03T11:36:54Z</time>
      </trkpt>
      <trkpt lat="46.21982" lon="4.5733">
        <ele>666.081</ele>
        <time>2021-04-03T11:36:56Z</time>
      </trkpt>
      <trkpt lat="46.21993" lon="4.57357">
        <ele>665.309</ele>
        <time>2021-04-03T11:36:58Z</time>
      </trkpt>
      <trkpt lat="46.22001" lon="4.57387">
        <ele>664.308</ele>
        <time>2021-04-03T11:37:00Z</time>
      </trkpt>
      <trkpt lat="46.22009" lon="4.57412">
        <ele>663.44</ele>
        <time>2021-04-03T11:37:02Z</time>
      </trkpt>
      <trkpt lat="46.22017" lon="4.57435">
        <ele>662.633</ele>
        <time>2021-04-03T11:37:04Z</time>
      </trkpt>
      <trkpt lat="46.22027" lon="4.57457">
        <ele>661.652</ele>
        <time>2021-04-03T11:37:06Z</time>
      </trkpt>
      <trkpt lat="46.2204" lon="4.57478">
        <ele>659.764</ele>
        <time>2021-04-03T11:37:08Z</time>
      </trkpt>
      <trkpt lat="46.22055" lon="4.575">
        <ele>658.576</ele>
        <time>2021-04-03T11:37:10Z</time>
      </trkpt>
      <trkpt lat="46.22073" lon="4.57521">
        <ele>657.072</ele>
        <time>2021-04-03T11:37:12Z</time>
      </trkpt>
      <trkpt lat="46.22091" lon="4.57547">
        <ele>654.559</ele>
        <time>2021-04-03T11:37:14Z</time>
      </trkpt>
      <trkpt lat="46.22107" lon="4.57573">
        <ele>654.326</ele>
        <time>2021-04-03T11:37:16Z</time>
      </trkpt>
      <trkpt lat="46.2212" lon="4.57592">
        <ele>652.962</ele>
        <time>2021-04-03T11:37:18Z</time>
      </trkpt>
      <trkpt lat="46.22128" lon="4.57607">
        <ele>652.083</ele>
        <time>2021-04-03T11:37:20Z</time>
      </trkpt>
      <trkpt lat="46.22133" lon="4.57618">
        <ele>651.311</ele>
        <time>2021-04-03T11:37:22Z</time>
      </trkpt>
      <trkpt lat="46.22125" lon="4.57625">
        <ele>655.308</ele>
        <time>2021-04-03T11:37:26Z</time>
      </trkpt>
      <trkpt lat="46.22099" lon="4.57617">
        <ele>653.942</ele>
        <time>2021-04-03T11:37:30Z</time>
      </trkpt>
      <trkpt lat="46.22079" lon="4.57605">
        <ele>652.825</ele>
        <time>2021-04-03T11:37:32Z</time>
      </trkpt>
      <trkpt lat="46.22062" lon="4.57596">
        <ele>651.934</ele>
        <time>2021-04-03T11:37:34Z</time>
      </trkpt>
      <trkpt lat="46.22046" lon="4.57589">
        <ele>650.536</ele>
        <time>2021-04-03T11:37:36Z</time>
      </trkpt>
      <trkpt lat="46.2203" lon="4.57582">
        <ele>649.558</ele>
        <time>2021-04-03T11:37:38Z</time>
      </trkpt>
      <trkpt lat="46.22017" lon="4.57575">
        <ele>648.514</ele>
        <time>2021-04-03T11:37:40Z</time>
      </trkpt>
      <trkpt lat="46.22004" lon="4.57568">
        <ele>647.631</ele>
        <time>2021-04-03T11:37:42Z</time>
      </trkpt>
      <trkpt lat="46.21992" lon="4.57562">
        <ele>646.518</ele>
        <time>2021-04-03T11:37:44Z</time>
      </trkpt>
      <trkpt lat="46.2198" lon="4.57557">
        <ele>645.687</ele>
        <time>2021-04-03T11:37:46Z</time>
      </trkpt>
      <trkpt lat="46.2197" lon="4.57548">
        <ele>644.742</ele>
        <time>2021-04-03T11:37:48Z</time>
      </trkpt>
      <trkpt lat="46.21961" lon="4.57537">
        <ele>643.426</ele>
        <time>2021-04-03T11:37:50Z</time>
      </trkpt>
      <trkpt lat="46.21954" lon="4.57522">
        <ele>641.708</ele>
        <time>2021-04-03T11:37:52Z</time>
      </trkpt>
      <trkpt lat="46.21946" lon="4.57503">
        <ele>640.364</ele>
        <time>2021-04-03T11:37:54Z</time>
      </trkpt>
      <trkpt lat="46.21936" lon="4.57488">
        <ele>639.037</ele>
        <time>2021-04-03T11:37:56Z</time>
      </trkpt>
      <trkpt lat="46.21924" lon="4.57477">
        <ele>638.136</ele>
        <time>2021-04-03T11:37:58Z</time>
      </trkpt>
      <trkpt lat="46.21912" lon="4.57468">
        <ele>637.558</ele>
        <time>2021-04-03T11:38:00Z</time>
      </trkpt>
      <trkpt lat="46.21899" lon="4.57462">
        <ele>636.91</ele>
        <time>2021-04-03T11:38:02Z</time>
      </trkpt>
      <trkpt lat="46.21886" lon="4.57456">
        <ele>636.626</ele>
        <time>2021-04-03T11:38:04Z</time>
      </trkpt>
      <trkpt lat="46.21867" lon="4.57448">
        <ele>635.913</ele>
        <time>2021-04-03T11:38:06Z</time>
      </trkpt>
      <trkpt lat="46.21848" lon="4.57444">
        <ele>635.45</ele>
        <time>2021-04-03T11:38:08Z</time>
      </trkpt>
      <trkpt lat="46.21828" lon="4.57447">
        <ele>634.984</ele>
        <time>2021-04-03T11:38:10Z</time>
      </trkpt>
      <trkpt lat="46.21811" lon="4.57449">
        <ele>634.607</ele>
        <time>2021-04-03T11:38:12Z</time>
      </trkpt>
      <trkpt lat="46.21796" lon="4.57448">
        <ele>634.617</ele>
        <time>2021-04-03T11:38:14Z</time>
      </trkpt>
      <trkpt lat="46.21782" lon="4.57446">
        <ele>633.708</ele>
        <time>2021-04-03T11:38:16Z</time>
      </trkpt>
      <trkpt lat="46.21769" lon="4.57445">
        <ele>635.064</ele>
        <time>2021-04-03T11:38:18Z</time>
      </trkpt>
      <trkpt lat="46.21757" lon="4.57447">
        <ele>634.137</ele>
        <time>2021-04-03T11:38:20Z</time>
      </trkpt>
      <trkpt lat="46.21744" lon="4.57455">
        <ele>632.786</ele>
        <time>2021-04-03T11:38:22Z</time>
      </trkpt>
      <trkpt lat="46.21731" lon="4.57464">
        <ele>631.548</ele>
        <time>2021-04-03T11:38:24Z</time>
      </trkpt>
      <trkpt lat="46.2172" lon="4.57474">
        <ele>630.33</ele>
        <time>2021-04-03T11:38:26Z</time>
      </trkpt>
      <trkpt lat="46.2171" lon="4.57484">
        <ele>629.396</ele>
        <time>2021-04-03T11:38:28Z</time>
      </trkpt>
      <trkpt lat="46.21704" lon="4.57492">
        <ele>628.633</ele>
        <time>2021-04-03T11:38:30Z</time>
      </trkpt>
      <trkpt lat="46.21701" lon="4.57501">
        <ele>630.78</ele>
        <time>2021-04-03T11:38:35Z</time>
      </trkpt>
      <trkpt lat="46.21687" lon="4.57518">
        <ele>631.957</ele>
        <time>2021-04-03T11:38:38Z</time>
      </trkpt>
      <trkpt lat="46.21677" lon="4.57529">
        <ele>632.7</ele>
        <time>2021-04-03T11:38:40Z</time>
      </trkpt>
      <trkpt lat="46.21667" lon="4.57537">
        <ele>633.12</ele>
        <time>2021-04-03T11:38:42Z</time>
      </trkpt>
      <trkpt lat="46.21661" lon="4.57537">
        <ele>633.408</ele>
        <time>2021-04-03T11:38:44Z</time>
      </trkpt>
      <trkpt lat="46.21646" lon="4.57538">
        <ele>633.681</ele>
        <time>2021-04-03T11:38:46Z</time>
      </trkpt>
      <trkpt lat="46.21632" lon="4.57537">
        <ele>633.774</ele>
        <time>2021-04-03T11:38:48Z</time>
      </trkpt>
      <trkpt lat="46.21617" lon="4.57538">
        <ele>633.883</ele>
        <time>2021-04-03T11:38:50Z</time>
      </trkpt>
      <trkpt lat="46.21598" lon="4.57538">
        <ele>633.975</ele>
        <time>2021-04-03T11:38:52Z</time>
      </trkpt>
      <trkpt lat="46.21576" lon="4.57537">
        <ele>633.977</ele>
        <time>2021-04-03T11:38:54Z</time>
      </trkpt>
      <trkpt lat="46.21555" lon="4.57533">
        <ele>633.973</ele>
        <time>2021-04-03T11:38:56Z</time>
      </trkpt>
      <trkpt lat="46.21528" lon="4.57528">
        <ele>633.91</ele>
        <time>2021-04-03T11:38:58Z</time>
      </trkpt>
      <trkpt lat="46.21502" lon="4.57524">
        <ele>633.987</ele>
        <time>2021-04-03T11:39:00Z</time>
      </trkpt>
      <trkpt lat="46.2148" lon="4.57522">
        <ele>633.972</ele>
        <time>2021-04-03T11:39:02Z</time>
      </trkpt>
      <trkpt lat="46.2146" lon="4.5752">
        <ele>633.913</ele>
        <time>2021-04-03T11:39:04Z</time>
      </trkpt>
      <trkpt lat="46.21443" lon="4.57517">
        <ele>633.914</ele>
        <time>2021-04-03T11:39:06Z</time>
      </trkpt>
      <trkpt lat="46.21428" lon="4.5751">
        <ele>633.908</ele>
        <time>2021-04-03T11:39:08Z</time>
      </trkpt>
      <trkpt lat="46.21416" lon="4.57502">
        <ele>633.933</ele>
        <time>2021-04-03T11:39:10Z</time>
      </trkpt>
      <trkpt lat="46.21404" lon="4.57493">
        <ele>633.956</ele>
        <time>2021-04-03T11:39:12Z</time>
      </trkpt>
      <trkpt lat="46.21395" lon="4.57496">
        <ele>633.955</ele>
        <time>2021-04-03T11:39:14Z</time>
      </trkpt>
      <trkpt lat="46.21394" lon="4.57504">
        <ele>633.997</ele>
        <time>2021-04-03T11:39:16Z</time>
      </trkpt>
      <trkpt lat="46.21388" lon="4.57517">
        <ele>633.969</ele>
        <time>2021-04-03T11:39:18Z</time>
      </trkpt>
      <trkpt lat="46.21376" lon="4.5755">
        <ele>633.955</ele>
        <time>2021-04-03T11:39:22Z</time>
      </trkpt>
      <trkpt lat="46.21366" lon="4.57576">
        <ele>633.932</ele>
        <time>2021-04-03T11:39:24Z</time>
      </trkpt>
      <trkpt lat="46.21355" lon="4.57602">
        <ele>633.959</ele>
        <time>2021-04-03T11:39:26Z</time>
      </trkpt>
      <trkpt lat="46.21343" lon="4.57634">
        <ele>633.997</ele>
        <time>2021-04-03T11:39:28Z</time>
      </trkpt>
      <trkpt lat="46.21336" lon="4.5766">
        <ele>633.923</ele>
        <time>2021-04-03T11:39:30Z</time>
      </trkpt>
      <trkpt lat="46.21334" lon="4.57676">
        <ele>633.925</ele>
        <time>2021-04-03T11:39:32Z</time>
      </trkpt>
      <trkpt lat="46.21332" lon="4.57689">
        <ele>633.908</ele>
        <time>2021-04-03T11:39:36Z</time>
      </trkpt>
      <trkpt lat="46.21329" lon="4.57708">
        <ele>629.975</ele>
        <time>2021-04-03T11:39:38Z</time>
      </trkpt>
      <trkpt lat="46.21326" lon="4.57731">
        <ele>627.318</ele>
        <time>2021-04-03T11:39:40Z</time>
      </trkpt>
      <trkpt lat="46.21325" lon="4.57752">
        <ele>626.187</ele>
        <time>2021-04-03T11:39:42Z</time>
      </trkpt>
      <trkpt lat="46.21323" lon="4.57774">
        <ele>625.649</ele>
        <time>2021-04-03T11:39:44Z</time>
      </trkpt>
      <trkpt lat="46.21318" lon="4.57798">
        <ele>626.931</ele>
        <time>2021-04-03T11:39:46Z</time>
      </trkpt>
      <trkpt lat="46.21318" lon="4.57821">
        <ele>628.287</ele>
        <time>2021-04-03T11:39:48Z</time>
      </trkpt>
      <trkpt lat="46.21315" lon="4.57848">
        <ele>631.274</ele>
        <time>2021-04-03T11:39:50Z</time>
      </trkpt>
      <trkpt lat="46.21312" lon="4.5787">
        <ele>633.021</ele>
        <time>2021-04-03T11:39:52Z</time>
      </trkpt>
      <trkpt lat="46.21309" lon="4.57897">
        <ele>634.961</ele>
        <time>2021-04-03T11:39:54Z</time>
      </trkpt>
      <trkpt lat="46.21306" lon="4.57921">
        <ele>636.421</ele>
        <time>2021-04-03T11:39:56Z</time>
      </trkpt>
      <trkpt lat="46.213" lon="4.57946">
        <ele>637.213</ele>
        <time>2021-04-03T11:39:58Z</time>
      </trkpt>
      <trkpt lat="46.21297" lon="4.57967">
        <ele>637.508</ele>
        <time>2021-04-03T11:40:00Z</time>
      </trkpt>
      <trkpt lat="46.21302" lon="4.5799">
        <ele>637.742</ele>
        <time>2021-04-03T11:40:02Z</time>
      </trkpt>
      <trkpt lat="46.21304" lon="4.58012">
        <ele>637.295</ele>
        <time>2021-04-03T11:40:04Z</time>
      </trkpt>
      <trkpt lat="46.21302" lon="4.58038">
        <ele>636.774</ele>
        <time>2021-04-03T11:40:06Z</time>
      </trkpt>
      <trkpt lat="46.21299" lon="4.5806">
        <ele>636.086</ele>
        <time>2021-04-03T11:40:08Z</time>
      </trkpt>
      <trkpt lat="46.21295" lon="4.58079">
        <ele>636.218</ele>
        <time>2021-04-03T11:40:10Z</time>
      </trkpt>
      <trkpt lat="46.21295" lon="4.58098">
        <ele>638.514</ele>
        <time>2021-04-03T11:40:12Z</time>
      </trkpt>
      <trkpt lat="46.21293" lon="4.58129">
        <ele>640.741</ele>
        <time>2021-04-03T11:40:14Z</time>
      </trkpt>
      <trkpt lat="46.21285" lon="4.58171">
        <ele>642.298</ele>
        <time>2021-04-03T11:40:16Z</time>
      </trkpt>
      <trkpt lat="46.21277" lon="4.58203">
        <ele>642.885</ele>
        <time>2021-04-03T11:40:18Z</time>
      </trkpt>
      <trkpt lat="46.21269" lon="4.58229">
        <ele>643.589</ele>
        <time>2021-04-03T11:40:20Z</time>
      </trkpt>
      <trkpt lat="46.2126" lon="4.58252">
        <ele>644.617</ele>
        <time>2021-04-03T11:40:22Z</time>
      </trkpt>
      <trkpt lat="46.21248" lon="4.58279">
        <ele>646.108</ele>
        <time>2021-04-03T11:40:24Z</time>
      </trkpt>
      <trkpt lat="46.2124" lon="4.58299">
        <ele>647.534</ele>
        <time>2021-04-03T11:40:26Z</time>
      </trkpt>
      <trkpt lat="46.21237" lon="4.58325">
        <ele>647.967</ele>
        <time>2021-04-03T11:40:28Z</time>
      </trkpt>
      <trkpt lat="46.21232" lon="4.58345">
        <ele>647.836</ele>
        <time>2021-04-03T11:40:30Z</time>
      </trkpt>
      <trkpt lat="46.21226" lon="4.58364">
        <ele>648.038</ele>
        <time>2021-04-03T11:40:32Z</time>
      </trkpt>
      <trkpt lat="46.21216" lon="4.58383">
        <ele>648.66</ele>
        <time>2021-04-03T11:40:34Z</time>
      </trkpt>
      <trkpt lat="46.21209" lon="4.58407">
        <ele>648.566</ele>
        <time>2021-04-03T11:40:36Z</time>
      </trkpt>
      <trkpt lat="46.21201" lon="4.5843">
        <ele>649.973</ele>
        <time>2021-04-03T11:40:38Z</time>
      </trkpt>
      <trkpt lat="46.21192" lon="4.58451">
        <ele>650.25</ele>
        <time>2021-04-03T11:40:40Z</time>
      </trkpt>
      <trkpt lat="46.21185" lon="4.58467">
        <ele>652.392</ele>
        <time>2021-04-03T11:40:42Z</time>
      </trkpt>
      <trkpt lat="46.21178" lon="4.58479">
        <ele>654.373</ele>
        <time>2021-04-03T11:40:44Z</time>
      </trkpt>
      <trkpt lat="46.21168" lon="4.58487">
        <ele>656.12</ele>
        <time>2021-04-03T11:40:46Z</time>
      </trkpt>
      <trkpt lat="46.21163" lon="4.58498">
        <ele>657.108</ele>
        <time>2021-04-03T11:40:48Z</time>
      </trkpt>
      <trkpt lat="46.21162" lon="4.58516">
        <ele>658.915</ele>
        <time>2021-04-03T11:40:50Z</time>
      </trkpt>
      <trkpt lat="46.21159" lon="4.58539">
        <ele>660.018</ele>
        <time>2021-04-03T11:40:52Z</time>
      </trkpt>
      <trkpt lat="46.2115" lon="4.58562">
        <ele>662.897</ele>
        <time>2021-04-03T11:40:54Z</time>
      </trkpt>
      <trkpt lat="46.21143" lon="4.58588">
        <ele>665.289</ele>
        <time>2021-04-03T11:40:56Z</time>
      </trkpt>
      <trkpt lat="46.21135" lon="4.58617">
        <ele>666.881</ele>
        <time>2021-04-03T11:40:58Z</time>
      </trkpt>
      <trkpt lat="46.21128" lon="4.58641">
        <ele>668.787</ele>
        <time>2021-04-03T11:41:00Z</time>
      </trkpt>
      <trkpt lat="46.2112" lon="4.58657">
        <ele>670.434</ele>
        <time>2021-04-03T11:41:02Z</time>
      </trkpt>
      <trkpt lat="46.21117" lon="4.58667">
        <ele>671.411</ele>
        <time>2021-04-03T11:41:04Z</time>
      </trkpt>
      <trkpt lat="46.21123" lon="4.58668">
        <ele>674.665</ele>
        <time>2021-04-03T11:41:09Z</time>
      </trkpt>
      <trkpt lat="46.21122" lon="4.5868">
        <ele>676.968</ele>
        <time>2021-04-03T11:41:24Z</time>
      </trkpt>
      <trkpt lat="46.21124" lon="4.58704">
        <ele>676.814</ele>
        <time>2021-04-03T11:41:28Z</time>
      </trkpt>
      <trkpt lat="46.2112" lon="4.58725">
        <ele>675.708</ele>
        <time>2021-04-03T11:41:30Z</time>
      </trkpt>
      <trkpt lat="46.21114" lon="4.58747">
        <ele>675.192</ele>
        <time>2021-04-03T11:41:32Z</time>
      </trkpt>
      <trkpt lat="46.21106" lon="4.58773">
        <ele>674.045</ele>
        <time>2021-04-03T11:41:34Z</time>
      </trkpt>
      <trkpt lat="46.21101" lon="4.58798">
        <ele>672.274</ele>
        <time>2021-04-03T11:41:36Z</time>
      </trkpt>
      <trkpt lat="46.21103" lon="4.58823">
        <ele>671.116</ele>
        <time>2021-04-03T11:41:38Z</time>
      </trkpt>
      <trkpt lat="46.21112" lon="4.58842">
        <ele>670.458</ele>
        <time>2021-04-03T11:41:40Z</time>
      </trkpt>
      <trkpt lat="46.21123" lon="4.58857">
        <ele>669.884</ele>
        <time>2021-04-03T11:41:42Z</time>
      </trkpt>
      <trkpt lat="46.21135" lon="4.58869">
        <ele>667.961</ele>
        <time>2021-04-03T11:41:44Z</time>
      </trkpt>
      <trkpt lat="46.21143" lon="4.58891">
        <ele>666.648</ele>
        <time>2021-04-03T11:41:46Z</time>
      </trkpt>
      <trkpt lat="46.21147" lon="4.58911">
        <ele>664.163</ele>
        <time>2021-04-03T11:41:48Z</time>
      </trkpt>
      <trkpt lat="46.21149" lon="4.58929">
        <ele>662.544</ele>
        <time>2021-04-03T11:41:50Z</time>
      </trkpt>
      <trkpt lat="46.21146" lon="4.58951">
        <ele>660.118</ele>
        <time>2021-04-03T11:41:52Z</time>
      </trkpt>
      <trkpt lat="46.21149" lon="4.58976">
        <ele>658.008</ele>
        <time>2021-04-03T11:41:54Z</time>
      </trkpt>
      <trkpt lat="46.21155" lon="4.58996">
        <ele>655.152</ele>
        <time>2021-04-03T11:41:56Z</time>
      </trkpt>
      <trkpt lat="46.21163" lon="4.59014">
        <ele>651.575</ele>
        <time>2021-04-03T11:41:58Z</time>
      </trkpt>
      <trkpt lat="46.2117" lon="4.59041">
        <ele>647.814</ele>
        <time>2021-04-03T11:42:00Z</time>
      </trkpt>
      <trkpt lat="46.21177" lon="4.59058">
        <ele>644.156</ele>
        <time>2021-04-03T11:42:02Z</time>
      </trkpt>
      <trkpt lat="46.21186" lon="4.59075">
        <ele>641.328</ele>
        <time>2021-04-03T11:42:04Z</time>
      </trkpt>
      <trkpt lat="46.21189" lon="4.5909">
        <ele>638.654</ele>
        <time>2021-04-03T11:42:06Z</time>
      </trkpt>
      <trkpt lat="46.21182" lon="4.59097">
        <ele>634.821</ele>
        <time>2021-04-03T11:42:08Z</time>
      </trkpt>
      <trkpt lat="46.21167" lon="4.591">
        <ele>631.618</ele>
        <time>2021-04-03T11:42:10Z</time>
      </trkpt>
      <trkpt lat="46.21153" lon="4.59098">
        <ele>629.131</ele>
        <time>2021-04-03T11:42:12Z</time>
      </trkpt>
      <trkpt lat="46.21138" lon="4.59098">
        <ele>626.661</ele>
        <time>2021-04-03T11:42:14Z</time>
      </trkpt>
      <trkpt lat="46.21126" lon="4.5909">
        <ele>624.307</ele>
        <time>2021-04-03T11:42:16Z</time>
      </trkpt>
      <trkpt lat="46.21118" lon="4.59079">
        <ele>622.108</ele>
        <time>2021-04-03T11:42:18Z</time>
      </trkpt>
      <trkpt lat="46.21109" lon="4.59067">
        <ele>621.689</ele>
        <time>2021-04-03T11:42:20Z</time>
      </trkpt>
      <trkpt lat="46.211" lon="4.59054">
        <ele>620.462</ele>
        <time>2021-04-03T11:42:22Z</time>
      </trkpt>
      <trkpt lat="46.2109" lon="4.59038">
        <ele>619.691</ele>
        <time>2021-04-03T11:42:24Z</time>
      </trkpt>
      <trkpt lat="46.2108" lon="4.59022">
        <ele>618.243</ele>
        <time>2021-04-03T11:42:26Z</time>
      </trkpt>
      <trkpt lat="46.2107" lon="4.59009">
        <ele>616.795</ele>
        <time>2021-04-03T11:42:28Z</time>
      </trkpt>
      <trkpt lat="46.21059" lon="4.59002">
        <ele>614.971</ele>
        <time>2021-04-03T11:42:30Z</time>
      </trkpt>
      <trkpt lat="46.21048" lon="4.58991">
        <ele>613.868</ele>
        <time>2021-04-03T11:42:32Z</time>
      </trkpt>
      <trkpt lat="46.21035" lon="4.58982">
        <ele>613.085</ele>
        <time>2021-04-03T11:42:34Z</time>
      </trkpt>
      <trkpt lat="46.21026" lon="4.58972">
        <ele>611.543</ele>
        <time>2021-04-03T11:42:36Z</time>
      </trkpt>
      <trkpt lat="46.21016" lon="4.58977">
        <ele>610.164</ele>
        <time>2021-04-03T11:42:40Z</time>
      </trkpt>
      <trkpt lat="46.21007" lon="4.58987">
        <ele>608.81</ele>
        <time>2021-04-03T11:42:42Z</time>
      </trkpt>
      <trkpt lat="46.20995" lon="4.58997">
        <ele>607.508</ele>
        <time>2021-04-03T11:42:44Z</time>
      </trkpt>
      <trkpt lat="46.20984" lon="4.59005">
        <ele>606.33</ele>
        <time>2021-04-03T11:42:46Z</time>
      </trkpt>
      <trkpt lat="46.20975" lon="4.59013">
        <ele>605.473</ele>
        <time>2021-04-03T11:42:48Z</time>
      </trkpt>
      <trkpt lat="46.20971" lon="4.59027">
        <ele>605.572</ele>
        <time>2021-04-03T11:42:50Z</time>
      </trkpt>
      <trkpt lat="46.20966" lon="4.59041">
        <ele>605.264</ele>
        <time>2021-04-03T11:42:52Z</time>
      </trkpt>
      <trkpt lat="46.20966" lon="4.59053">
        <ele>604.656</ele>
        <time>2021-04-03T11:42:54Z</time>
      </trkpt>
      <trkpt lat="46.20968" lon="4.5906">
        <ele>605.332</ele>
        <time>2021-04-03T11:42:56Z</time>
      </trkpt>
      <trkpt lat="46.20969" lon="4.59076">
        <ele>606.729</ele>
        <time>2021-04-03T11:42:58Z</time>
      </trkpt>
      <trkpt lat="46.20967" lon="4.59088">
        <ele>608.136</ele>
        <time>2021-04-03T11:43:00Z</time>
      </trkpt>
      <trkpt lat="46.20967" lon="4.59118">
        <ele>610.655</ele>
        <time>2021-04-03T11:43:04Z</time>
      </trkpt>
      <trkpt lat="46.20964" lon="4.5913">
        <ele>612.207</ele>
        <time>2021-04-03T11:43:06Z</time>
      </trkpt>
      <trkpt lat="46.20954" lon="4.5916">
        <ele>612.417</ele>
        <time>2021-04-03T11:43:10Z</time>
      </trkpt>
      <trkpt lat="46.20947" lon="4.59179">
        <ele>611.708</ele>
        <time>2021-04-03T11:43:12Z</time>
      </trkpt>
      <trkpt lat="46.20941" lon="4.59194">
        <ele>611.421</ele>
        <time>2021-04-03T11:43:14Z</time>
      </trkpt>
      <trkpt lat="46.20934" lon="4.59212">
        <ele>611.174</ele>
        <time>2021-04-03T11:43:16Z</time>
      </trkpt>
      <trkpt lat="46.20928" lon="4.59227">
        <ele>610.113</ele>
        <time>2021-04-03T11:43:18Z</time>
      </trkpt>
      <trkpt lat="46.20924" lon="4.59244">
        <ele>609.865</ele>
        <time>2021-04-03T11:43:20Z</time>
      </trkpt>
      <trkpt lat="46.20918" lon="4.59264">
        <ele>608.367</ele>
        <time>2021-04-03T11:43:22Z</time>
      </trkpt>
      <trkpt lat="46.20912" lon="4.59283">
        <ele>607.393</ele>
        <time>2021-04-03T11:43:24Z</time>
      </trkpt>
      <trkpt lat="46.20907" lon="4.59299">
        <ele>606.04</ele>
        <time>2021-04-03T11:43:26Z</time>
      </trkpt>
      <trkpt lat="46.20899" lon="4.59314">
        <ele>604.927</ele>
        <time>2021-04-03T11:43:28Z</time>
      </trkpt>
      <trkpt lat="46.20892" lon="4.59324">
        <ele>603.143</ele>
        <time>2021-04-03T11:43:30Z</time>
      </trkpt>
      <trkpt lat="46.20887" lon="4.59342">
        <ele>601.364</ele>
        <time>2021-04-03T11:43:32Z</time>
      </trkpt>
      <trkpt lat="46.20883" lon="4.5936">
        <ele>599.71</ele>
        <time>2021-04-03T11:43:34Z</time>
      </trkpt>
      <trkpt lat="46.20878" lon="4.59377">
        <ele>598.308</ele>
        <time>2021-04-03T11:43:36Z</time>
      </trkpt>
      <trkpt lat="46.20875" lon="4.59394">
        <ele>597.65</ele>
        <time>2021-04-03T11:43:38Z</time>
      </trkpt>
      <trkpt lat="46.2087" lon="4.59413">
        <ele>594.833</ele>
        <time>2021-04-03T11:43:40Z</time>
      </trkpt>
      <trkpt lat="46.20862" lon="4.5943">
        <ele>593.462</ele>
        <time>2021-04-03T11:43:42Z</time>
      </trkpt>
      <trkpt lat="46.20857" lon="4.59448">
        <ele>592.534</ele>
        <time>2021-04-03T11:43:44Z</time>
      </trkpt>
      <trkpt lat="46.20853" lon="4.59465">
        <ele>591.676</ele>
        <time>2021-04-03T11:43:46Z</time>
      </trkpt>
      <trkpt lat="46.20851" lon="4.59482">
        <ele>590.532</ele>
        <time>2021-04-03T11:43:48Z</time>
      </trkpt>
      <trkpt lat="46.20849" lon="4.59498">
        <ele>589.219</ele>
        <time>2021-04-03T11:43:50Z</time>
      </trkpt>
      <trkpt lat="46.20845" lon="4.59509">
        <ele>586.436</ele>
        <time>2021-04-03T11:43:52Z</time>
      </trkpt>
      <trkpt lat="46.20844" lon="4.59522">
        <ele>583.469</ele>
        <time>2021-04-03T11:43:56Z</time>
      </trkpt>
      <trkpt lat="46.20836" lon="4.5954">
        <ele>581.004</ele>
        <time>2021-04-03T11:44:00Z</time>
      </trkpt>
      <trkpt lat="46.2083" lon="4.59554">
        <ele>579.224</ele>
        <time>2021-04-03T11:44:02Z</time>
      </trkpt>
      <trkpt lat="46.20823" lon="4.59565">
        <ele>576.608</ele>
        <time>2021-04-03T11:44:04Z</time>
      </trkpt>
      <trkpt lat="46.20812" lon="4.59573">
        <ele>574.812</ele>
        <time>2021-04-03T11:44:06Z</time>
      </trkpt>
      <trkpt lat="46.20801" lon="4.59579">
        <ele>573.935</ele>
        <time>2021-04-03T11:44:08Z</time>
      </trkpt>
      <trkpt lat="46.2079" lon="4.59584">
        <ele>572.824</ele>
        <time>2021-04-03T11:44:10Z</time>
      </trkpt>
      <trkpt lat="46.20781" lon="4.59584">
        <ele>571.866</ele>
        <time>2021-04-03T11:44:12Z</time>
      </trkpt>
      <trkpt lat="46.20767" lon="4.59582">
        <ele>571.278</ele>
        <time>2021-04-03T11:44:14Z</time>
      </trkpt>
      <trkpt lat="46.20749" lon="4.59577">
        <ele>571.494</ele>
        <time>2021-04-03T11:44:16Z</time>
      </trkpt>
      <trkpt lat="46.20729" lon="4.5957">
        <ele>571.471</ele>
        <time>2021-04-03T11:44:18Z</time>
      </trkpt>
      <trkpt lat="46.20708" lon="4.59561">
        <ele>571.398</ele>
        <time>2021-04-03T11:44:20Z</time>
      </trkpt>
      <trkpt lat="46.20686" lon="4.59552">
        <ele>571.458</ele>
        <time>2021-04-03T11:44:22Z</time>
      </trkpt>
      <trkpt lat="46.20667" lon="4.59555">
        <ele>572.152</ele>
        <time>2021-04-03T11:44:24Z</time>
      </trkpt>
      <trkpt lat="46.20649" lon="4.59556">
        <ele>572.617</ele>
        <time>2021-04-03T11:44:26Z</time>
      </trkpt>
      <trkpt lat="46.2064" lon="4.59557">
        <ele>573.308</ele>
        <time>2021-04-03T11:44:28Z</time>
      </trkpt>
      <trkpt lat="46.20635" lon="4.59564">
        <ele>573.691</ele>
        <time>2021-04-03T11:44:39Z</time>
      </trkpt>
      <trkpt lat="46.20621" lon="4.59539">
        <ele>575.174</ele>
        <time>2021-04-03T11:44:42Z</time>
      </trkpt>
      <trkpt lat="46.2061" lon="4.59528">
        <ele>576.273</ele>
        <time>2021-04-03T11:44:44Z</time>
      </trkpt>
      <trkpt lat="46.20594" lon="4.59523">
        <ele>577.285</ele>
        <time>2021-04-03T11:44:46Z</time>
      </trkpt>
      <trkpt lat="46.20578" lon="4.59521">
        <ele>577.797</ele>
        <time>2021-04-03T11:44:48Z</time>
      </trkpt>
      <trkpt lat="46.20566" lon="4.59515">
        <ele>579.193</ele>
        <time>2021-04-03T11:44:50Z</time>
      </trkpt>
      <trkpt lat="46.20558" lon="4.59511">
        <ele>579.67</ele>
        <time>2021-04-03T11:44:52Z</time>
      </trkpt>
      <trkpt lat="46.20554" lon="4.59508">
        <ele>580.367</ele>
        <time>2021-04-03T11:44:54Z</time>
      </trkpt>
      <trkpt lat="46.20549" lon="4.59505">
        <ele>580.782</ele>
        <time>2021-04-03T11:44:56Z</time>
      </trkpt>
      <trkpt lat="46.20544" lon="4.59499">
        <ele>581.443</ele>
        <time>2021-04-03T11:44:59Z</time>
      </trkpt>
      <trkpt lat="46.2054" lon="4.59504">
        <ele>581.517</ele>
        <time>2021-04-03T11:45:02Z</time>
      </trkpt>
      <trkpt lat="46.20551" lon="4.59505">
        <ele>581.508</ele>
        <time>2021-04-03T11:45:06Z</time>
      </trkpt>
      <trkpt lat="46.20566" lon="4.59514">
        <ele>581.094</ele>
        <time>2021-04-03T11:45:08Z</time>
      </trkpt>
      <trkpt lat="46.20581" lon="4.59522">
        <ele>580.637</ele>
        <time>2021-04-03T11:45:10Z</time>
      </trkpt>
      <trkpt lat="46.20595" lon="4.59524">
        <ele>580.336</ele>
        <time>2021-04-03T11:45:12Z</time>
      </trkpt>
      <trkpt lat="46.20607" lon="4.59525">
        <ele>579.768</ele>
        <time>2021-04-03T11:45:14Z</time>
      </trkpt>
      <trkpt lat="46.20617" lon="4.59528">
        <ele>578.89</ele>
        <time>2021-04-03T11:45:16Z</time>
      </trkpt>
      <trkpt lat="46.20625" lon="4.59538">
        <ele>577.646</ele>
        <time>2021-04-03T11:45:18Z</time>
      </trkpt>
      <trkpt lat="46.20631" lon="4.5955">
        <ele>576.823</ele>
        <time>2021-04-03T11:45:20Z</time>
      </trkpt>
      <trkpt lat="46.20637" lon="4.59558">
        <ele>576.09</ele>
        <time>2021-04-03T11:45:22Z</time>
      </trkpt>
      <trkpt lat="46.20635" lon="4.59565">
        <ele>575.313</ele>
        <time>2021-04-03T11:45:24Z</time>
      </trkpt>
      <trkpt lat="46.20631" lon="4.59575">
        <ele>575.043</ele>
        <time>2021-04-03T11:45:26Z</time>
      </trkpt>
      <trkpt lat="46.20625" lon="4.59588">
        <ele>574.307</ele>
        <time>2021-04-03T11:45:28Z</time>
      </trkpt>
      <trkpt lat="46.20616" lon="4.596">
        <ele>573.508</ele>
        <time>2021-04-03T11:45:30Z</time>
      </trkpt>
      <trkpt lat="46.20606" lon="4.59609">
        <ele>572.157</ele>
        <time>2021-04-03T11:45:32Z</time>
      </trkpt>
      <trkpt lat="46.20594" lon="4.59614">
        <ele>570.85</ele>
        <time>2021-04-03T11:45:34Z</time>
      </trkpt>
      <trkpt lat="46.20584" lon="4.59621">
        <ele>569.499</ele>
        <time>2021-04-03T11:45:36Z</time>
      </trkpt>
      <trkpt lat="46.20573" lon="4.59629">
        <ele>567.821</ele>
        <time>2021-04-03T11:45:38Z</time>
      </trkpt>
      <trkpt lat="46.20563" lon="4.59636">
        <ele>566.043</ele>
        <time>2021-04-03T11:45:40Z</time>
      </trkpt>
      <trkpt lat="46.20552" lon="4.59641">
        <ele>564.819</ele>
        <time>2021-04-03T11:45:42Z</time>
      </trkpt>
      <trkpt lat="46.20542" lon="4.59649">
        <ele>563.586</ele>
        <time>2021-04-03T11:45:44Z</time>
      </trkpt>
      <trkpt lat="46.20533" lon="4.59654">
        <ele>562.273</ele>
        <time>2021-04-03T11:45:46Z</time>
      </trkpt>
      <trkpt lat="46.20524" lon="4.59657">
        <ele>560.765</ele>
        <time>2021-04-03T11:45:48Z</time>
      </trkpt>
      <trkpt lat="46.20515" lon="4.59663">
        <ele>559.468</ele>
        <time>2021-04-03T11:45:50Z</time>
      </trkpt>
      <trkpt lat="46.20505" lon="4.59666">
        <ele>558.314</ele>
        <time>2021-04-03T11:45:52Z</time>
      </trkpt>
      <trkpt lat="46.20495" lon="4.5967">
        <ele>557.308</ele>
        <time>2021-04-03T11:45:54Z</time>
      </trkpt>
      <trkpt lat="46.20489" lon="4.5967">
        <ele>555.792</ele>
        <time>2021-04-03T11:45:56Z</time>
      </trkpt>
      <trkpt lat="46.20476" lon="4.59672">
        <ele>554.485</ele>
        <time>2021-04-03T11:45:58Z</time>
      </trkpt>
      <trkpt lat="46.20463" lon="4.5968">
        <ele>552.824</ele>
        <time>2021-04-03T11:46:00Z</time>
      </trkpt>
      <trkpt lat="46.20451" lon="4.59685">
        <ele>551.066</ele>
        <time>2021-04-03T11:46:02Z</time>
      </trkpt>
      <trkpt lat="46.20441" lon="4.59688">
        <ele>549.378</ele>
        <time>2021-04-03T11:46:04Z</time>
      </trkpt>
      <trkpt lat="46.20431" lon="4.5969">
        <ele>548.184</ele>
        <time>2021-04-03T11:46:06Z</time>
      </trkpt>
      <trkpt lat="46.20427" lon="4.59695">
        <ele>547.461</ele>
        <time>2021-04-03T11:46:08Z</time>
      </trkpt>
      <trkpt lat="46.2042" lon="4.59708">
        <ele>550.538</ele>
        <time>2021-04-03T11:46:10Z</time>
      </trkpt>
      <trkpt lat="46.20416" lon="4.59727">
        <ele>551.197</ele>
        <time>2021-04-03T11:46:12Z</time>
      </trkpt>
      <trkpt lat="46.20415" lon="4.59745">
        <ele>549.823</ele>
        <time>2021-04-03T11:46:14Z</time>
      </trkpt>
      <trkpt lat="46.20415" lon="4.5976">
        <ele>548.025</ele>
        <time>2021-04-03T11:46:16Z</time>
      </trkpt>
      <trkpt lat="46.20416" lon="4.59766">
        <ele>546.908</ele>
        <time>2021-04-03T11:46:18Z</time>
      </trkpt>
      <trkpt lat="46.20415" lon="4.59781">
        <ele>545.435</ele>
        <time>2021-04-03T11:46:21Z</time>
      </trkpt>
      <trkpt lat="46.20408" lon="4.5981">
        <ele>545.358</ele>
        <time>2021-04-03T11:46:24Z</time>
      </trkpt>
      <trkpt lat="46.20405" lon="4.59823">
        <ele>545.177</ele>
        <time>2021-04-03T11:46:26Z</time>
      </trkpt>
      <trkpt lat="46.20402" lon="4.59831">
        <ele>545.189</ele>
        <time>2021-04-03T11:46:29Z</time>
      </trkpt>
      <trkpt lat="46.20401" lon="4.59839">
        <ele>545.151</ele>
        <time>2021-04-03T11:46:30Z</time>
      </trkpt>
      <trkpt lat="46.204" lon="4.59846">
        <ele>545.217</ele>
        <time>2021-04-03T11:46:31Z</time>
      </trkpt>
      <trkpt lat="46.20396" lon="4.59851">
        <ele>545.174</ele>
        <time>2021-04-03T11:46:34Z</time>
      </trkpt>
      <trkpt lat="46.20388" lon="4.59854">
        <ele>545.371</ele>
        <time>2021-04-03T11:47:02Z</time>
      </trkpt>
      <trkpt lat="46.20371" lon="4.59861">
        <ele>545.072</ele>
        <time>2021-04-03T11:47:04Z</time>
      </trkpt>
      <trkpt lat="46.20351" lon="4.59871">
        <ele>545.113</ele>
        <time>2021-04-03T11:47:06Z</time>
      </trkpt>
      <trkpt lat="46.20332" lon="4.59883">
        <ele>545.914</ele>
        <time>2021-04-03T11:47:08Z</time>
      </trkpt>
      <trkpt lat="46.20312" lon="4.59898">
        <ele>546.908</ele>
        <time>2021-04-03T11:47:10Z</time>
      </trkpt>
      <trkpt lat="46.20295" lon="4.59918">
        <ele>547.753</ele>
        <time>2021-04-03T11:47:12Z</time>
      </trkpt>
      <trkpt lat="46.20283" lon="4.59933">
        <ele>549.786</ele>
        <time>2021-04-03T11:47:14Z</time>
      </trkpt>
      <trkpt lat="46.20271" lon="4.59937">
        <ele>550.965</ele>
        <time>2021-04-03T11:47:16Z</time>
      </trkpt>
      <trkpt lat="46.20258" lon="4.59942">
        <ele>551.387</ele>
        <time>2021-04-03T11:47:18Z</time>
      </trkpt>
      <trkpt lat="46.20243" lon="4.59943">
        <ele>553.049</ele>
        <time>2021-04-03T11:47:20Z</time>
      </trkpt>
      <trkpt lat="46.20227" lon="4.59955">
        <ele>553.575</ele>
        <time>2021-04-03T11:47:22Z</time>
      </trkpt>
      <trkpt lat="46.2021" lon="4.59972">
        <ele>554.172</ele>
        <time>2021-04-03T11:47:24Z</time>
      </trkpt>
      <trkpt lat="46.20193" lon="4.59992">
        <ele>554.869</ele>
        <time>2021-04-03T11:47:26Z</time>
      </trkpt>
      <trkpt lat="46.2018" lon="4.60009">
        <ele>556.811</ele>
        <time>2021-04-03T11:47:28Z</time>
      </trkpt>
      <trkpt lat="46.20165" lon="4.60022">
        <ele>558.621</ele>
        <time>2021-04-03T11:47:30Z</time>
      </trkpt>
      <trkpt lat="46.20149" lon="4.60041">
        <ele>560.703</ele>
        <time>2021-04-03T11:47:32Z</time>
      </trkpt>
      <trkpt lat="46.20136" lon="4.60062">
        <ele>562.708</ele>
        <time>2021-04-03T11:47:34Z</time>
      </trkpt>
      <trkpt lat="46.20123" lon="4.60076">
        <ele>564.487</ele>
        <time>2021-04-03T11:47:36Z</time>
      </trkpt>
      <trkpt lat="46.20111" lon="4.60093">
        <ele>566.82</ele>
        <time>2021-04-03T11:47:38Z</time>
      </trkpt>
      <trkpt lat="46.20102" lon="4.6011">
        <ele>568.159</ele>
        <time>2021-04-03T11:47:40Z</time>
      </trkpt>
      <trkpt lat="46.20089" lon="4.60136">
        <ele>568.861</ele>
        <time>2021-04-03T11:47:42Z</time>
      </trkpt>
      <trkpt lat="46.20075" lon="4.60168">
        <ele>569.783</ele>
        <time>2021-04-03T11:47:44Z</time>
      </trkpt>
      <trkpt lat="46.20061" lon="4.60197">
        <ele>571.349</ele>
        <time>2021-04-03T11:47:46Z</time>
      </trkpt>
      <trkpt lat="46.2005" lon="4.6022">
        <ele>573.896</ele>
        <time>2021-04-03T11:47:48Z</time>
      </trkpt>
      <trkpt lat="46.20033" lon="4.60246">
        <ele>575.913</ele>
        <time>2021-04-03T11:47:50Z</time>
      </trkpt>
      <trkpt lat="46.20019" lon="4.60266">
        <ele>577.843</ele>
        <time>2021-04-03T11:47:52Z</time>
      </trkpt>
      <trkpt lat="46.20004" lon="4.60287">
        <ele>580.664</ele>
        <time>2021-04-03T11:47:54Z</time>
      </trkpt>
      <trkpt lat="46.19987" lon="4.60307">
        <ele>582.31</ele>
        <time>2021-04-03T11:47:56Z</time>
      </trkpt>
      <trkpt lat="46.19972" lon="4.60323">
        <ele>584.408</ele>
        <time>2021-04-03T11:47:58Z</time>
      </trkpt>
      <trkpt lat="46.1996" lon="4.60333">
        <ele>586.87</ele>
        <time>2021-04-03T11:48:00Z</time>
      </trkpt>
      <trkpt lat="46.19943" lon="4.60332">
        <ele>588.773</ele>
        <time>2021-04-03T11:48:02Z</time>
      </trkpt>
      <trkpt lat="46.19925" lon="4.60328">
        <ele>590.532</ele>
        <time>2021-04-03T11:48:04Z</time>
      </trkpt>
      <trkpt lat="46.19904" lon="4.60329">
        <ele>592.744</ele>
        <time>2021-04-03T11:48:06Z</time>
      </trkpt>
      <trkpt lat="46.19886" lon="4.60335">
        <ele>595.436</ele>
        <time>2021-04-03T11:48:08Z</time>
      </trkpt>
      <trkpt lat="46.19869" lon="4.60353">
        <ele>598.432</ele>
        <time>2021-04-03T11:48:10Z</time>
      </trkpt>
      <trkpt lat="46.19856" lon="4.60363">
        <ele>602.199</ele>
        <time>2021-04-03T11:48:12Z</time>
      </trkpt>
      <trkpt lat="46.19843" lon="4.60366">
        <ele>605.556</ele>
        <time>2021-04-03T11:48:14Z</time>
      </trkpt>
      <trkpt lat="46.19826" lon="4.60371">
        <ele>608.457</ele>
        <time>2021-04-03T11:48:16Z</time>
      </trkpt>
      <trkpt lat="46.19809" lon="4.60379">
        <ele>610.3</ele>
        <time>2021-04-03T11:48:18Z</time>
      </trkpt>
      <trkpt lat="46.19793" lon="4.60379">
        <ele>613.62</ele>
        <time>2021-04-03T11:48:20Z</time>
      </trkpt>
      <trkpt lat="46.19773" lon="4.60378">
        <ele>616.008</ele>
        <time>2021-04-03T11:48:22Z</time>
      </trkpt>
      <trkpt lat="46.19756" lon="4.60375">
        <ele>618.931</ele>
        <time>2021-04-03T11:48:24Z</time>
      </trkpt>
      <trkpt lat="46.1974" lon="4.60371">
        <ele>621.674</ele>
        <time>2021-04-03T11:48:26Z</time>
      </trkpt>
      <trkpt lat="46.19725" lon="4.60368">
        <ele>624.363</ele>
        <time>2021-04-03T11:48:28Z</time>
      </trkpt>
      <trkpt lat="46.1971" lon="4.60362">
        <ele>627.245</ele>
        <time>2021-04-03T11:48:30Z</time>
      </trkpt>
      <trkpt lat="46.19687" lon="4.60363">
        <ele>629.187</ele>
        <time>2021-04-03T11:48:32Z</time>
      </trkpt>
      <trkpt lat="46.19667" lon="4.6036">
        <ele>630.943</ele>
        <time>2021-04-03T11:48:34Z</time>
      </trkpt>
      <trkpt lat="46.19648" lon="4.60353">
        <ele>632.31</ele>
        <time>2021-04-03T11:48:36Z</time>
      </trkpt>
      <trkpt lat="46.19629" lon="4.60347">
        <ele>636.357</ele>
        <time>2021-04-03T11:48:38Z</time>
      </trkpt>
      <trkpt lat="46.19612" lon="4.60344">
        <ele>640.335</ele>
        <time>2021-04-03T11:48:40Z</time>
      </trkpt>
      <trkpt lat="46.19593" lon="4.60341">
        <ele>644.386</ele>
        <time>2021-04-03T11:48:42Z</time>
      </trkpt>
      <trkpt lat="46.19577" lon="4.60346">
        <ele>647.914</ele>
        <time>2021-04-03T11:48:44Z</time>
      </trkpt>
      <trkpt lat="46.19564" lon="4.6035">
        <ele>650.708</ele>
        <time>2021-04-03T11:48:46Z</time>
      </trkpt>
      <trkpt lat="46.1955" lon="4.60356">
        <ele>652.139</ele>
        <time>2021-04-03T11:48:48Z</time>
      </trkpt>
      <trkpt lat="46.1954" lon="4.60361">
        <ele>654.142</ele>
        <time>2021-04-03T11:48:50Z</time>
      </trkpt>
      <trkpt lat="46.19534" lon="4.60366">
        <ele>657.381</ele>
        <time>2021-04-03T11:48:54Z</time>
      </trkpt>
      <trkpt lat="46.19524" lon="4.60395">
        <ele>659.113</ele>
        <time>2021-04-03T11:48:58Z</time>
      </trkpt>
      <trkpt lat="46.19522" lon="4.60423">
        <ele>660.835</ele>
        <time>2021-04-03T11:49:00Z</time>
      </trkpt>
      <trkpt lat="46.19519" lon="4.60452">
        <ele>662.351</ele>
        <time>2021-04-03T11:49:02Z</time>
      </trkpt>
      <trkpt lat="46.19516" lon="4.6048">
        <ele>660.518</ele>
        <time>2021-04-03T11:49:04Z</time>
      </trkpt>
      <trkpt lat="46.19513" lon="4.60509">
        <ele>662.075</ele>
        <time>2021-04-03T11:49:06Z</time>
      </trkpt>
      <trkpt lat="46.19511" lon="4.60539">
        <ele>664.377</ele>
        <time>2021-04-03T11:49:08Z</time>
      </trkpt>
      <trkpt lat="46.1951" lon="4.60564">
        <ele>666.461</ele>
        <time>2021-04-03T11:49:10Z</time>
      </trkpt>
      <trkpt lat="46.19508" lon="4.60585">
        <ele>667.927</ele>
        <time>2021-04-03T11:49:12Z</time>
      </trkpt>
      <trkpt lat="46.19507" lon="4.60605">
        <ele>669.408</ele>
        <time>2021-04-03T11:49:14Z</time>
      </trkpt>
      <trkpt lat="46.19505" lon="4.60628">
        <ele>671.183</ele>
        <time>2021-04-03T11:49:16Z</time>
      </trkpt>
      <trkpt lat="46.19504" lon="4.60648">
        <ele>672.726</ele>
        <time>2021-04-03T11:49:18Z</time>
      </trkpt>
      <trkpt lat="46.19501" lon="4.60656">
        <ele>674.415</ele>
        <time>2021-04-03T11:49:20Z</time>
      </trkpt>
      <trkpt lat="46.19498" lon="4.6065">
        <ele>675.997</ele>
        <time>2021-04-03T11:49:22Z</time>
      </trkpt>
      <trkpt lat="46.19491" lon="4.60642">
        <ele>677.399</ele>
        <time>2021-04-03T11:49:24Z</time>
      </trkpt>
      <trkpt lat="46.19474" lon="4.60631">
        <ele>679.525</ele>
        <time>2021-04-03T11:49:26Z</time>
      </trkpt>
      <trkpt lat="46.19457" lon="4.60622">
        <ele>675.542</ele>
        <time>2021-04-03T11:49:28Z</time>
      </trkpt>
      <trkpt lat="46.19447" lon="4.60618">
        <ele>675.699</ele>
        <time>2021-04-03T11:49:30Z</time>
      </trkpt>
      <trkpt lat="46.19446" lon="4.60611">
        <ele>676.639</ele>
        <time>2021-04-03T11:49:32Z</time>
      </trkpt>
      <trkpt lat="46.19449" lon="4.60599">
        <ele>677.901</ele>
        <time>2021-04-03T11:49:34Z</time>
      </trkpt>
      <trkpt lat="46.19447" lon="4.6058">
        <ele>679.321</ele>
        <time>2021-04-03T11:49:36Z</time>
      </trkpt>
      <trkpt lat="46.19442" lon="4.60562">
        <ele>681.008</ele>
        <time>2021-04-03T11:49:38Z</time>
      </trkpt>
      <trkpt lat="46.19432" lon="4.60552">
        <ele>682.849</ele>
        <time>2021-04-03T11:49:40Z</time>
      </trkpt>
      <trkpt lat="46.19421" lon="4.60549">
        <ele>683.822</ele>
        <time>2021-04-03T11:49:42Z</time>
      </trkpt>
      <trkpt lat="46.19415" lon="4.60552">
        <ele>683.971</ele>
        <time>2021-04-03T11:49:44Z</time>
      </trkpt>
      <trkpt lat="46.19404" lon="4.60549">
        <ele>685.573</ele>
        <time>2021-04-03T11:49:46Z</time>
      </trkpt>
      <trkpt lat="46.19392" lon="4.60547">
        <ele>687.995</ele>
        <time>2021-04-03T11:49:48Z</time>
      </trkpt>
      <trkpt lat="46.19381" lon="4.60546">
        <ele>691.991</ele>
        <time>2021-04-03T11:50:12Z</time>
      </trkpt>
      <trkpt lat="46.19369" lon="4.60546">
        <ele>694.318</ele>
        <time>2021-04-03T11:50:14Z</time>
      </trkpt>
      <trkpt lat="46.19356" lon="4.60544">
        <ele>695.725</ele>
        <time>2021-04-03T11:50:16Z</time>
      </trkpt>
      <trkpt lat="46.19346" lon="4.60536">
        <ele>696.673</ele>
        <time>2021-04-03T11:50:18Z</time>
      </trkpt>
      <trkpt lat="46.19339" lon="4.60528">
        <ele>697.185</ele>
        <time>2021-04-03T11:50:20Z</time>
      </trkpt>
      <trkpt lat="46.19332" lon="4.60517">
        <ele>697.413</ele>
        <time>2021-04-03T11:50:22Z</time>
      </trkpt>
      <trkpt lat="46.19325" lon="4.60504">
        <ele>697.608</ele>
        <time>2021-04-03T11:50:24Z</time>
      </trkpt>
      <trkpt lat="46.19315" lon="4.6049">
        <ele>697.793</ele>
        <time>2021-04-03T11:50:26Z</time>
      </trkpt>
      <trkpt lat="46.19306" lon="4.60477">
        <ele>697.826</ele>
        <time>2021-04-03T11:50:28Z</time>
      </trkpt>
      <trkpt lat="46.193" lon="4.60466">
        <ele>697.985</ele>
        <time>2021-04-03T11:50:30Z</time>
      </trkpt>
      <trkpt lat="46.19295" lon="4.60461">
        <ele>697.917</ele>
        <time>2021-04-03T11:50:32Z</time>
      </trkpt>
      <trkpt lat="46.1929" lon="4.60455">
        <ele>697.949</ele>
        <time>2021-04-03T11:50:35Z</time>
      </trkpt>
      <trkpt lat="46.19287" lon="4.60443">
        <ele>697.915</ele>
        <time>2021-04-03T11:50:38Z</time>
      </trkpt>
      <trkpt lat="46.19284" lon="4.60432">
        <ele>697.982</ele>
        <time>2021-04-03T11:50:40Z</time>
      </trkpt>
      <trkpt lat="46.19279" lon="4.60416">
        <ele>697.939</ele>
        <time>2021-04-03T11:50:42Z</time>
      </trkpt>
      <trkpt lat="46.1928" lon="4.60408">
        <ele>697.944</ele>
        <time>2021-04-03T11:50:44Z</time>
      </trkpt>
      <trkpt lat="46.19281" lon="4.60396">
        <ele>697.905</ele>
        <time>2021-04-03T11:50:46Z</time>
      </trkpt>
      <trkpt lat="46.1928" lon="4.60385">
        <ele>697.915</ele>
        <time>2021-04-03T11:50:48Z</time>
      </trkpt>
      <trkpt lat="46.19277" lon="4.60368">
        <ele>697.908</ele>
        <time>2021-04-03T11:50:50Z</time>
      </trkpt>
      <trkpt lat="46.19271" lon="4.60351">
        <ele>697.94</ele>
        <time>2021-04-03T11:50:52Z</time>
      </trkpt>
      <trkpt lat="46.19262" lon="4.60337">
        <ele>697.973</ele>
        <time>2021-04-03T11:50:54Z</time>
      </trkpt>
      <trkpt lat="46.19258" lon="4.60318">
        <ele>697.932</ele>
        <time>2021-04-03T11:50:56Z</time>
      </trkpt>
      <trkpt lat="46.19252" lon="4.60295">
        <ele>697.944</ele>
        <time>2021-04-03T11:50:58Z</time>
      </trkpt>
      <trkpt lat="46.19243" lon="4.60283">
        <ele>697.936</ele>
        <time>2021-04-03T11:51:00Z</time>
      </trkpt>
      <trkpt lat="46.19233" lon="4.60273">
        <ele>697.962</ele>
        <time>2021-04-03T11:51:02Z</time>
      </trkpt>
      <trkpt lat="46.19222" lon="4.60267">
        <ele>697.939</ele>
        <time>2021-04-03T11:51:04Z</time>
      </trkpt>
      <trkpt lat="46.19207" lon="4.60259">
        <ele>697.926</ele>
        <time>2021-04-03T11:51:06Z</time>
      </trkpt>
      <trkpt lat="46.19189" lon="4.60246">
        <ele>697.966</ele>
        <time>2021-04-03T11:51:08Z</time>
      </trkpt>
      <trkpt lat="46.19173" lon="4.60234">
        <ele>697.929</ele>
        <time>2021-04-03T11:51:10Z</time>
      </trkpt>
      <trkpt lat="46.19166" lon="4.6023">
        <ele>697.921</ele>
        <time>2021-04-03T11:51:12Z</time>
      </trkpt>
      <trkpt lat="46.19153" lon="4.60228">
        <ele>697.908</ele>
        <time>2021-04-03T11:51:22Z</time>
      </trkpt>
      <trkpt lat="46.19138" lon="4.6022">
        <ele>701.962</ele>
        <time>2021-04-03T11:51:24Z</time>
      </trkpt>
      <trkpt lat="46.19121" lon="4.60212">
        <ele>705.965</ele>
        <time>2021-04-03T11:51:26Z</time>
      </trkpt>
      <trkpt lat="46.19107" lon="4.60212">
        <ele>709.984</ele>
        <time>2021-04-03T11:51:28Z</time>
      </trkpt>
      <trkpt lat="46.19094" lon="4.60208">
        <ele>713.996</ele>
        <time>2021-04-03T11:51:30Z</time>
      </trkpt>
      <trkpt lat="46.19079" lon="4.60198">
        <ele>717.918</ele>
        <time>2021-04-03T11:51:32Z</time>
      </trkpt>
      <trkpt lat="46.19069" lon="4.60192">
        <ele>721.994</ele>
        <time>2021-04-03T11:51:34Z</time>
      </trkpt>
      <trkpt lat="46.19065" lon="4.60198">
        <ele>725.981</ele>
        <time>2021-04-03T11:51:38Z</time>
      </trkpt>
      <trkpt lat="46.19069" lon="4.60212">
        <ele>729.968</ele>
        <time>2021-04-03T11:51:40Z</time>
      </trkpt>
      <trkpt lat="46.19067" lon="4.60226">
        <ele>733.942</ele>
        <time>2021-04-03T11:51:42Z</time>
      </trkpt>
      <trkpt lat="46.19062" lon="4.60237">
        <ele>737.922</ele>
        <time>2021-04-03T11:51:44Z</time>
      </trkpt>
      <trkpt lat="46.19057" lon="4.60233">
        <ele>741.914</ele>
        <time>2021-04-03T11:51:46Z</time>
      </trkpt>
      <trkpt lat="46.19051" lon="4.60228">
        <ele>745.908</ele>
        <time>2021-04-03T11:51:56Z</time>
      </trkpt>
      <trkpt lat="46.19048" lon="4.60222">
        <ele>749.91</ele>
        <time>2021-04-03T11:51:58Z</time>
      </trkpt>
      <trkpt lat="46.19049" lon="4.60214">
        <ele>753.933</ele>
        <time>2021-04-03T11:52:01Z</time>
      </trkpt>
      <trkpt lat="46.19054" lon="4.6021">
        <ele>757.992</ele>
        <time>2021-04-03T11:52:02Z</time>
      </trkpt>
      <trkpt lat="46.19073" lon="4.60212">
        <ele>761.914</ele>
        <time>2021-04-03T11:52:04Z</time>
      </trkpt>
      <trkpt lat="46.19067" lon="4.60215">
        <ele>765.996</ele>
        <time>2021-04-03T11:52:22Z</time>
      </trkpt>
      <trkpt lat="46.19062" lon="4.6022">
        <ele>769.952</ele>
        <time>2021-04-03T11:52:23Z</time>
      </trkpt>
      <trkpt lat="46.19056" lon="4.6023">
        <ele>773.949</ele>
        <time>2021-04-03T11:52:26Z</time>
      </trkpt>
      <trkpt lat="46.19061" lon="4.60224">
        <ele>777.946</ele>
        <time>2021-04-03T11:52:32Z</time>
      </trkpt>
      <trkpt lat="46.19064" lon="4.60218">
        <ele>780.799</ele>
        <time>2021-04-03T11:52:50Z</time>
      </trkpt>
      <trkpt lat="46.19065" lon="4.60211">
        <ele>783.107</ele>
        <time>2021-04-03T11:52:58Z</time>
      </trkpt>
      <trkpt lat="46.19059" lon="4.60205">
        <ele>785.027</ele>
        <time>2021-04-03T11:53:03Z</time>
      </trkpt>
      <trkpt lat="46.19054" lon="4.60205">
        <ele>786.908</ele>
        <time>2021-04-03T11:53:05Z</time>
      </trkpt>
      <trkpt lat="46.19051" lon="4.60217">
        <ele>788.525</ele>
        <time>2021-04-03T11:53:07Z</time>
      </trkpt>
      <trkpt lat="46.19051" lon="4.60229">
        <ele>789.258</ele>
        <time>2021-04-03T11:53:09Z</time>
      </trkpt>
      <trkpt lat="46.19053" lon="4.60238">
        <ele>789.877</ele>
        <time>2021-04-03T11:53:12Z</time>
      </trkpt>
      <trkpt lat="46.19057" lon="4.60233">
        <ele>792.289</ele>
        <time>2021-04-03T11:53:22Z</time>
      </trkpt>
      <trkpt lat="46.19064" lon="4.60237">
        <ele>793.751</ele>
        <time>2021-04-03T11:54:44Z</time>
      </trkpt>
      <trkpt lat="46.19069" lon="4.60225">
        <ele>793.997</ele>
        <time>2021-04-03T11:54:48Z</time>
      </trkpt>
      <trkpt lat="46.19073" lon="4.60213">
        <ele>793.724</ele>
        <time>2021-04-03T11:54:50Z</time>
      </trkpt>
      <trkpt lat="46.19071" lon="4.60204">
        <ele>793.671</ele>
        <time>2021-04-03T11:54:52Z</time>
      </trkpt>
      <trkpt lat="46.19067" lon="4.60207">
        <ele>792.751</ele>
        <time>2021-04-03T11:54:54Z</time>
      </trkpt>
      <trkpt lat="46.19059" lon="4.6021">
        <ele>792.401</ele>
        <time>2021-04-03T11:54:56Z</time>
      </trkpt>
      <trkpt lat="46.19053" lon="4.60211">
        <ele>792.611</ele>
        <time>2021-04-03T11:54:58Z</time>
      </trkpt>
      <trkpt lat="46.19056" lon="4.60203">
        <ele>791.008</ele>
        <time>2021-04-03T11:55:04Z</time>
      </trkpt>
      <trkpt lat="46.19062" lon="4.60202">
        <ele>789.711</ele>
        <time>2021-04-03T11:55:06Z</time>
      </trkpt>
      <trkpt lat="46.19066" lon="4.60207">
        <ele>788.644</ele>
        <time>2021-04-03T11:55:08Z</time>
      </trkpt>
      <trkpt lat="46.19071" lon="4.60213">
        <ele>788.173</ele>
        <time>2021-04-03T11:55:12Z</time>
      </trkpt>
      <trkpt lat="46.19072" lon="4.60206">
        <ele>787.955</ele>
        <time>2021-04-03T11:55:16Z</time>
      </trkpt>
      <trkpt lat="46.19069" lon="4.602">
        <ele>787.727</ele>
        <time>2021-04-03T11:55:22Z</time>
      </trkpt>
      <trkpt lat="46.19062" lon="4.60198">
        <ele>787.633</ele>
        <time>2021-04-03T11:55:24Z</time>
      </trkpt>
      <trkpt lat="46.19052" lon="4.60192">
        <ele>787.77</ele>
        <time>2021-04-03T11:55:26Z</time>
      </trkpt>
      <trkpt lat="46.1904" lon="4.60187">
        <ele>788.527</ele>
        <time>2021-04-03T11:55:28Z</time>
      </trkpt>
      <trkpt lat="46.19023" lon="4.60181">
        <ele>788.733</ele>
        <time>2021-04-03T11:55:30Z</time>
      </trkpt>
      <trkpt lat="46.19001" lon="4.60177">
        <ele>788.823</ele>
        <time>2021-04-03T11:55:32Z</time>
      </trkpt>
      <trkpt lat="46.1898" lon="4.60172">
        <ele>789.115</ele>
        <time>2021-04-03T11:55:34Z</time>
      </trkpt>
      <trkpt lat="46.18963" lon="4.60168">
        <ele>789.508</ele>
        <time>2021-04-03T11:55:36Z</time>
      </trkpt>
      <trkpt lat="46.18949" lon="4.60169">
        <ele>789.589</ele>
        <time>2021-04-03T11:55:38Z</time>
      </trkpt>
      <trkpt lat="46.18935" lon="4.60174">
        <ele>789.352</ele>
        <time>2021-04-03T11:55:40Z</time>
      </trkpt>
      <trkpt lat="46.1892" lon="4.60182">
        <ele>790.361</ele>
        <time>2021-04-03T11:55:42Z</time>
      </trkpt>
      <trkpt lat="46.18907" lon="4.60182">
        <ele>790.653</ele>
        <time>2021-04-03T11:55:44Z</time>
      </trkpt>
      <trkpt lat="46.18896" lon="4.60186">
        <ele>791.365</ele>
        <time>2021-04-03T11:55:46Z</time>
      </trkpt>
      <trkpt lat="46.18884" lon="4.60196">
        <ele>792.331</ele>
        <time>2021-04-03T11:55:48Z</time>
      </trkpt>
      <trkpt lat="46.18869" lon="4.60202">
        <ele>793.988</ele>
        <time>2021-04-03T11:55:50Z</time>
      </trkpt>
      <trkpt lat="46.1885" lon="4.60207">
        <ele>794.695</ele>
        <time>2021-04-03T11:55:52Z</time>
      </trkpt>
      <trkpt lat="46.18835" lon="4.60207">
        <ele>795.247</ele>
        <time>2021-04-03T11:55:54Z</time>
      </trkpt>
      <trkpt lat="46.1882" lon="4.60211">
        <ele>796.529</ele>
        <time>2021-04-03T11:55:56Z</time>
      </trkpt>
      <trkpt lat="46.18803" lon="4.60219">
        <ele>797.221</ele>
        <time>2021-04-03T11:55:58Z</time>
      </trkpt>
      <trkpt lat="46.18784" lon="4.60224">
        <ele>798.008</ele>
        <time>2021-04-03T11:56:00Z</time>
      </trkpt>
      <trkpt lat="46.18769" lon="4.6023">
        <ele>799.53</ele>
        <time>2021-04-03T11:56:02Z</time>
      </trkpt>
      <trkpt lat="46.18753" lon="4.60237">
        <ele>800.183</ele>
        <time>2021-04-03T11:56:04Z</time>
      </trkpt>
      <trkpt lat="46.18738" lon="4.60239">
        <ele>800.672</ele>
        <time>2021-04-03T11:56:06Z</time>
      </trkpt>
      <trkpt lat="46.18722" lon="4.60243">
        <ele>800.714</ele>
        <time>2021-04-03T11:56:08Z</time>
      </trkpt>
      <trkpt lat="46.18708" lon="4.60238">
        <ele>800.976</ele>
        <time>2021-04-03T11:56:10Z</time>
      </trkpt>
      <trkpt lat="46.18694" lon="4.60237">
        <ele>801.492</ele>
        <time>2021-04-03T11:56:12Z</time>
      </trkpt>
      <trkpt lat="46.18679" lon="4.60236">
        <ele>801.629</ele>
        <time>2021-04-03T11:56:14Z</time>
      </trkpt>
      <trkpt lat="46.18665" lon="4.60234">
        <ele>801.436</ele>
        <time>2021-04-03T11:56:16Z</time>
      </trkpt>
      <trkpt lat="46.18649" lon="4.60236">
        <ele>802.553</ele>
        <time>2021-04-03T11:56:18Z</time>
      </trkpt>
      <trkpt lat="46.18635" lon="4.60242">
        <ele>803.304</ele>
        <time>2021-04-03T11:56:20Z</time>
      </trkpt>
      <trkpt lat="46.18621" lon="4.60253">
        <ele>803.114</ele>
        <time>2021-04-03T11:56:22Z</time>
      </trkpt>
      <trkpt lat="46.18607" lon="4.60253">
        <ele>802.708</ele>
        <time>2021-04-03T11:56:24Z</time>
      </trkpt>
      <trkpt lat="46.18589" lon="4.60248">
        <ele>802.561</ele>
        <time>2021-04-03T11:56:26Z</time>
      </trkpt>
      <trkpt lat="46.18575" lon="4.60248">
        <ele>802.444</ele>
        <time>2021-04-03T11:56:28Z</time>
      </trkpt>
      <trkpt lat="46.18561" lon="4.6025">
        <ele>803.343</ele>
        <time>2021-04-03T11:56:30Z</time>
      </trkpt>
      <trkpt lat="46.18547" lon="4.60245">
        <ele>804.395</ele>
        <time>2021-04-03T11:56:32Z</time>
      </trkpt>
      <trkpt lat="46.18531" lon="4.60238">
        <ele>804.697</ele>
        <time>2021-04-03T11:56:34Z</time>
      </trkpt>
      <trkpt lat="46.18511" lon="4.60229">
        <ele>804.723</ele>
        <time>2021-04-03T11:56:36Z</time>
      </trkpt>
      <trkpt lat="46.18496" lon="4.60226">
        <ele>805.71</ele>
        <time>2021-04-03T11:56:38Z</time>
      </trkpt>
      <trkpt lat="46.18483" lon="4.60228">
        <ele>808.067</ele>
        <time>2021-04-03T11:56:40Z</time>
      </trkpt>
      <trkpt lat="46.18468" lon="4.60238">
        <ele>810.529</ele>
        <time>2021-04-03T11:56:42Z</time>
      </trkpt>
      <trkpt lat="46.18451" lon="4.60247">
        <ele>812.3</ele>
        <time>2021-04-03T11:56:44Z</time>
      </trkpt>
      <trkpt lat="46.18434" lon="4.60256">
        <ele>813.32</ele>
        <time>2021-04-03T11:56:46Z</time>
      </trkpt>
      <trkpt lat="46.18422" lon="4.60258">
        <ele>813.608</ele>
        <time>2021-04-03T11:56:48Z</time>
      </trkpt>
      <trkpt lat="46.18409" lon="4.60253">
        <ele>813.328</ele>
        <time>2021-04-03T11:56:50Z</time>
      </trkpt>
      <trkpt lat="46.18396" lon="4.60246">
        <ele>813.321</ele>
        <time>2021-04-03T11:56:52Z</time>
      </trkpt>
      <trkpt lat="46.18384" lon="4.60237">
        <ele>813.78</ele>
        <time>2021-04-03T11:56:54Z</time>
      </trkpt>
      <trkpt lat="46.18369" lon="4.60226">
        <ele>814.542</ele>
        <time>2021-04-03T11:56:56Z</time>
      </trkpt>
      <trkpt lat="46.18358" lon="4.60216">
        <ele>815.014</ele>
        <time>2021-04-03T11:56:58Z</time>
      </trkpt>
      <trkpt lat="46.18346" lon="4.60202">
        <ele>815.98</ele>
        <time>2021-04-03T11:57:00Z</time>
      </trkpt>
      <trkpt lat="46.18334" lon="4.60185">
        <ele>816.297</ele>
        <time>2021-04-03T11:57:02Z</time>
      </trkpt>
      <trkpt lat="46.18327" lon="4.60173">
        <ele>816.384</ele>
        <time>2021-04-03T11:57:04Z</time>
      </trkpt>
      <trkpt lat="46.18316" lon="4.60168">
        <ele>816.859</ele>
        <time>2021-04-03T11:57:06Z</time>
      </trkpt>
      <trkpt lat="46.18304" lon="4.60157">
        <ele>818.203</ele>
        <time>2021-04-03T11:57:08Z</time>
      </trkpt>
      <trkpt lat="46.18294" lon="4.60145">
        <ele>819.723</ele>
        <time>2021-04-03T11:57:10Z</time>
      </trkpt>
      <trkpt lat="46.18284" lon="4.60138">
        <ele>820.808</ele>
        <time>2021-04-03T11:57:12Z</time>
      </trkpt>
      <trkpt lat="46.1827" lon="4.60132">
        <ele>819.121</ele>
        <time>2021-04-03T11:57:14Z</time>
      </trkpt>
      <trkpt lat="46.18263" lon="4.60137">
        <ele>820.354</ele>
        <time>2021-04-03T11:57:18Z</time>
      </trkpt>
      <trkpt lat="46.18262" lon="4.60145">
        <ele>821.823</ele>
        <time>2021-04-03T11:57:20Z</time>
      </trkpt>
      <trkpt lat="46.18263" lon="4.60156">
        <ele>823.375</ele>
        <time>2021-04-03T11:57:22Z</time>
      </trkpt>
      <trkpt lat="46.18265" lon="4.60163">
        <ele>824.697</ele>
        <time>2021-04-03T11:57:24Z</time>
      </trkpt>
      <trkpt lat="46.18265" lon="4.60175">
        <ele>825.793</ele>
        <time>2021-04-03T11:57:26Z</time>
      </trkpt>
      <trkpt lat="46.18266" lon="4.60182">
        <ele>827.27</ele>
        <time>2021-04-03T11:57:30Z</time>
      </trkpt>
      <trkpt lat="46.18265" lon="4.60199">
        <ele>829.097</ele>
        <time>2021-04-03T11:57:52Z</time>
      </trkpt>
      <trkpt lat="46.1827" lon="4.60219">
        <ele>830.832</ele>
        <time>2021-04-03T11:57:54Z</time>
      </trkpt>
      <trkpt lat="46.18275" lon="4.60238">
        <ele>831.792</ele>
        <time>2021-04-03T11:57:56Z</time>
      </trkpt>
      <trkpt lat="46.18278" lon="4.60247">
        <ele>832.711</ele>
        <time>2021-04-03T11:57:58Z</time>
      </trkpt>
      <trkpt lat="46.18283" lon="4.60262">
        <ele>833.808</ele>
        <time>2021-04-03T11:58:00Z</time>
      </trkpt>
      <trkpt lat="46.18291" lon="4.60277">
        <ele>834.329</ele>
        <time>2021-04-03T11:58:02Z</time>
      </trkpt>
      <trkpt lat="46.18298" lon="4.60288">
        <ele>834.772</ele>
        <time>2021-04-03T11:58:04Z</time>
      </trkpt>
      <trkpt lat="46.18302" lon="4.60299">
        <ele>834.941</ele>
        <time>2021-04-03T11:58:06Z</time>
      </trkpt>
      <trkpt lat="46.18304" lon="4.6031">
        <ele>834.443</ele>
        <time>2021-04-03T11:58:10Z</time>
      </trkpt>
      <trkpt lat="46.18301" lon="4.60303">
        <ele>833.875</ele>
        <time>2021-04-03T11:58:20Z</time>
      </trkpt>
      <trkpt lat="46.18298" lon="4.60297">
        <ele>833.241</ele>
        <time>2021-04-03T11:58:22Z</time>
      </trkpt>
      <trkpt lat="46.18293" lon="4.60285">
        <ele>832.838</ele>
        <time>2021-04-03T11:58:24Z</time>
      </trkpt>
      <trkpt lat="46.18286" lon="4.60268">
        <ele>832.395</ele>
        <time>2021-04-03T11:58:26Z</time>
      </trkpt>
      <trkpt lat="46.18278" lon="4.60249">
        <ele>832.071</ele>
        <time>2021-04-03T11:58:28Z</time>
      </trkpt>
      <trkpt lat="46.18273" lon="4.60227">
        <ele>831.441</ele>
        <time>2021-04-03T11:58:30Z</time>
      </trkpt>
      <trkpt lat="46.18267" lon="4.60205">
        <ele>830.815</ele>
        <time>2021-04-03T11:58:32Z</time>
      </trkpt>
      <trkpt lat="46.18264" lon="4.60184">
        <ele>830.008</ele>
        <time>2021-04-03T11:58:34Z</time>
      </trkpt>
      <trkpt lat="46.18264" lon="4.60164">
        <ele>829.213</ele>
        <time>2021-04-03T11:58:36Z</time>
      </trkpt>
      <trkpt lat="46.18263" lon="4.60145">
        <ele>828.876</ele>
        <time>2021-04-03T11:58:38Z</time>
      </trkpt>
      <trkpt lat="46.18259" lon="4.60129">
        <ele>828.275</ele>
        <time>2021-04-03T11:58:40Z</time>
      </trkpt>
      <trkpt lat="46.18253" lon="4.60112">
        <ele>828.297</ele>
        <time>2021-04-03T11:58:42Z</time>
      </trkpt>
      <trkpt lat="46.18246" lon="4.60092">
        <ele>828.329</ele>
        <time>2021-04-03T11:58:44Z</time>
      </trkpt>
      <trkpt lat="46.18239" lon="4.60072">
        <ele>828.155</ele>
        <time>2021-04-03T11:58:46Z</time>
      </trkpt>
      <trkpt lat="46.18228" lon="4.60061">
        <ele>827.672</ele>
        <time>2021-04-03T11:58:48Z</time>
      </trkpt>
      <trkpt lat="46.18217" lon="4.60051">
        <ele>826.929</ele>
        <time>2021-04-03T11:58:50Z</time>
      </trkpt>
      <trkpt lat="46.18208" lon="4.60039">
        <ele>826.411</ele>
        <time>2021-04-03T11:58:52Z</time>
      </trkpt>
      <trkpt lat="46.182" lon="4.60031">
        <ele>826.521</ele>
        <time>2021-04-03T11:58:54Z</time>
      </trkpt>
      <trkpt lat="46.18193" lon="4.60027">
        <ele>825.803</ele>
        <time>2021-04-03T11:58:58Z</time>
      </trkpt>
      <trkpt lat="46.18188" lon="4.60024">
        <ele>825.408</ele>
        <time>2021-04-03T11:58:59Z</time>
      </trkpt>
      <trkpt lat="46.18171" lon="4.6002">
        <ele>825.187</ele>
        <time>2021-04-03T11:59:02Z</time>
      </trkpt>
      <trkpt lat="46.18162" lon="4.60021">
        <ele>824.25</ele>
        <time>2021-04-03T11:59:04Z</time>
      </trkpt>
      <trkpt lat="46.18158" lon="4.60031">
        <ele>823.699</ele>
        <time>2021-04-03T11:59:06Z</time>
      </trkpt>
      <trkpt lat="46.1816" lon="4.60045">
        <ele>822.921</ele>
        <time>2021-04-03T11:59:08Z</time>
      </trkpt>
      <trkpt lat="46.18166" lon="4.6006">
        <ele>822.293</ele>
        <time>2021-04-03T11:59:10Z</time>
      </trkpt>
      <trkpt lat="46.18171" lon="4.60081">
        <ele>822.129</ele>
        <time>2021-04-03T11:59:12Z</time>
      </trkpt>
      <trkpt lat="46.18178" lon="4.60104">
        <ele>822.266</ele>
        <time>2021-04-03T11:59:14Z</time>
      </trkpt>
      <trkpt lat="46.18185" lon="4.60123">
        <ele>822.593</ele>
        <time>2021-04-03T11:59:16Z</time>
      </trkpt>
      <trkpt lat="46.18188" lon="4.6014">
        <ele>822.223</ele>
        <time>2021-04-03T11:59:18Z</time>
      </trkpt>
      <trkpt lat="46.18186" lon="4.60149">
        <ele>820.583</ele>
        <time>2021-04-03T11:59:22Z</time>
      </trkpt>
      <trkpt lat="46.18191" lon="4.60174">
        <ele>817.811</ele>
        <time>2021-04-03T11:59:24Z</time>
      </trkpt>
      <trkpt lat="46.18194" lon="4.60191">
        <ele>816.108</ele>
        <time>2021-04-03T11:59:26Z</time>
      </trkpt>
      <trkpt lat="46.18197" lon="4.60205">
        <ele>815.228</ele>
        <time>2021-04-03T11:59:28Z</time>
      </trkpt>
      <trkpt lat="46.18199" lon="4.60221">
        <ele>814.731</ele>
        <time>2021-04-03T11:59:30Z</time>
      </trkpt>
      <trkpt lat="46.18199" lon="4.60238">
        <ele>814.25</ele>
        <time>2021-04-03T11:59:32Z</time>
      </trkpt>
      <trkpt lat="46.18198" lon="4.60259">
        <ele>814.212</ele>
        <time>2021-04-03T11:59:34Z</time>
      </trkpt>
      <trkpt lat="46.18199" lon="4.60278">
        <ele>813.524</ele>
        <time>2021-04-03T11:59:36Z</time>
      </trkpt>
      <trkpt lat="46.18194" lon="4.60293">
        <ele>813.18</ele>
        <time>2021-04-03T11:59:38Z</time>
      </trkpt>
      <trkpt lat="46.18192" lon="4.60306">
        <ele>812.797</ele>
        <time>2021-04-03T11:59:40Z</time>
      </trkpt>
      <trkpt lat="46.18192" lon="4.60314">
        <ele>811.674</ele>
        <time>2021-04-03T11:59:42Z</time>
      </trkpt>
      <trkpt lat="46.18189" lon="4.60325">
        <ele>810.716</ele>
        <time>2021-04-03T11:59:44Z</time>
      </trkpt>
      <trkpt lat="46.18186" lon="4.60338">
        <ele>810.076</ele>
        <time>2021-04-03T11:59:46Z</time>
      </trkpt>
      <trkpt lat="46.18185" lon="4.60345">
        <ele>809.613</ele>
        <time>2021-04-03T11:59:48Z</time>
      </trkpt>
      <trkpt lat="46.18177" lon="4.60359">
        <ele>809.508</ele>
        <time>2021-04-03T11:59:50Z</time>
      </trkpt>
      <trkpt lat="46.1817" lon="4.60369">
        <ele>809.887</ele>
        <time>2021-04-03T11:59:52Z</time>
      </trkpt>
      <trkpt lat="46.18173" lon="4.60376">
        <ele>810.02</ele>
        <time>2021-04-03T11:59:54Z</time>
      </trkpt>
      <trkpt lat="46.18177" lon="4.60388">
        <ele>811.059</ele>
        <time>2021-04-03T11:59:56Z</time>
      </trkpt>
      <trkpt lat="46.18182" lon="4.60405">
        <ele>812.351</ele>
        <time>2021-04-03T11:59:58Z</time>
      </trkpt>
      <trkpt lat="46.18181" lon="4.60413">
        <ele>813.623</ele>
        <time>2021-04-03T12:00:01Z</time>
      </trkpt>
      <trkpt lat="46.18182" lon="4.60421">
        <ele>814.439</ele>
        <time>2021-04-03T12:00:03Z</time>
      </trkpt>
      <trkpt lat="46.18186" lon="4.6043">
        <ele>815.946</ele>
        <time>2021-04-03T12:00:05Z</time>
      </trkpt>
      <trkpt lat="46.18191" lon="4.60434">
        <ele>816.163</ele>
        <time>2021-04-03T12:00:06Z</time>
      </trkpt>
      <trkpt lat="46.18196" lon="4.60438">
        <ele>816.241</ele>
        <time>2021-04-03T12:00:08Z</time>
      </trkpt>
      <trkpt lat="46.18203" lon="4.60439">
        <ele>816.381</ele>
        <time>2021-04-03T12:00:11Z</time>
      </trkpt>
      <trkpt lat="46.1821" lon="4.60445">
        <ele>816.609</ele>
        <time>2021-04-03T12:00:13Z</time>
      </trkpt>
      <trkpt lat="46.18213" lon="4.60451">
        <ele>817.308</ele>
        <time>2021-04-03T12:00:15Z</time>
      </trkpt>
      <trkpt lat="46.18217" lon="4.60456">
        <ele>817.77</ele>
        <time>2021-04-03T12:00:16Z</time>
      </trkpt>
      <trkpt lat="46.1822" lon="4.6046">
        <ele>818.153</ele>
        <time>2021-04-03T12:00:17Z</time>
      </trkpt>
      <trkpt lat="46.18225" lon="4.60469">
        <ele>818.052</ele>
        <time>2021-04-03T12:00:20Z</time>
      </trkpt>
      <trkpt lat="46.18232" lon="4.60492">
        <ele>818.254</ele>
        <time>2021-04-03T12:00:22Z</time>
      </trkpt>
      <trkpt lat="46.18239" lon="4.60507">
        <ele>820.036</ele>
        <time>2021-04-03T12:00:24Z</time>
      </trkpt>
      <trkpt lat="46.18249" lon="4.60532">
        <ele>821.452</ele>
        <time>2021-04-03T12:00:28Z</time>
      </trkpt>
      <trkpt lat="46.18253" lon="4.60537">
        <ele>822.389</ele>
        <time>2021-04-03T12:00:30Z</time>
      </trkpt>
      <trkpt lat="46.18251" lon="4.60555">
        <ele>820.676</ele>
        <time>2021-04-03T12:00:34Z</time>
      </trkpt>
      <trkpt lat="46.1825" lon="4.60563">
        <ele>820.337</ele>
        <time>2021-04-03T12:00:35Z</time>
      </trkpt>
      <trkpt lat="46.1825" lon="4.60571">
        <ele>819.549</ele>
        <time>2021-04-03T12:00:36Z</time>
      </trkpt>
      <trkpt lat="46.18247" lon="4.60583">
        <ele>818.813</ele>
        <time>2021-04-03T12:00:38Z</time>
      </trkpt>
      <trkpt lat="46.18245" lon="4.6059">
        <ele>818.408</ele>
        <time>2021-04-03T12:00:40Z</time>
      </trkpt>
      <trkpt lat="46.18241" lon="4.60598">
        <ele>818.489</ele>
        <time>2021-04-03T12:00:41Z</time>
      </trkpt>
      <trkpt lat="46.18235" lon="4.60606">
        <ele>817.422</ele>
        <time>2021-04-03T12:00:44Z</time>
      </trkpt>
      <trkpt lat="46.18226" lon="4.60609">
        <ele>816.771</ele>
        <time>2021-04-03T12:00:47Z</time>
      </trkpt>
      <trkpt lat="46.1822" lon="4.6061">
        <ele>816.323</ele>
        <time>2021-04-03T12:00:48Z</time>
      </trkpt>
      <trkpt lat="46.18215" lon="4.6061">
        <ele>816.625</ele>
        <time>2021-04-03T12:00:49Z</time>
      </trkpt>
      <trkpt lat="46.1821" lon="4.60611">
        <ele>816.551</ele>
        <time>2021-04-03T12:00:51Z</time>
      </trkpt>
      <trkpt lat="46.18204" lon="4.60613">
        <ele>816.438</ele>
        <time>2021-04-03T12:00:52Z</time>
      </trkpt>
      <trkpt lat="46.18182" lon="4.60624">
        <ele>815.475</ele>
        <time>2021-04-03T12:00:54Z</time>
      </trkpt>
      <trkpt lat="46.18169" lon="4.60632">
        <ele>815.066</ele>
        <time>2021-04-03T12:00:56Z</time>
      </trkpt>
      <trkpt lat="46.18161" lon="4.60634">
        <ele>814.729</ele>
        <time>2021-04-03T12:00:58Z</time>
      </trkpt>
      <trkpt lat="46.18157" lon="4.60641">
        <ele>814.121</ele>
        <time>2021-04-03T12:00:59Z</time>
      </trkpt>
      <trkpt lat="46.18152" lon="4.60643">
        <ele>814.408</ele>
        <time>2021-04-03T12:01:00Z</time>
      </trkpt>
      <trkpt lat="46.18142" lon="4.60644">
        <ele>814.032</ele>
        <time>2021-04-03T12:01:04Z</time>
      </trkpt>
      <trkpt lat="46.1814" lon="4.60637">
        <ele>812.675</ele>
        <time>2021-04-03T12:01:18Z</time>
      </trkpt>
      <trkpt lat="46.18137" lon="4.60642">
        <ele>811.444</ele>
        <time>2021-04-03T12:01:40Z</time>
      </trkpt>
      <trkpt lat="46.18131" lon="4.60645">
        <ele>810.786</ele>
        <time>2021-04-03T12:01:41Z</time>
      </trkpt>
      <trkpt lat="46.1811" lon="4.60654">
        <ele>810.048</ele>
        <time>2021-04-03T12:01:44Z</time>
      </trkpt>
      <trkpt lat="46.18099" lon="4.6066">
        <ele>809.934</ele>
        <time>2021-04-03T12:01:46Z</time>
      </trkpt>
      <trkpt lat="46.18089" lon="4.60668">
        <ele>810.261</ele>
        <time>2021-04-03T12:01:48Z</time>
      </trkpt>
      <trkpt lat="46.18079" lon="4.60675">
        <ele>810.918</ele>
        <time>2021-04-03T12:01:50Z</time>
      </trkpt>
      <trkpt lat="46.18073" lon="4.60677">
        <ele>812.141</ele>
        <time>2021-04-03T12:01:52Z</time>
      </trkpt>
      <trkpt lat="46.18059" lon="4.60682">
        <ele>812.981</ele>
        <time>2021-04-03T12:01:54Z</time>
      </trkpt>
      <trkpt lat="46.18043" lon="4.6069">
        <ele>813.909</ele>
        <time>2021-04-03T12:01:56Z</time>
      </trkpt>
      <trkpt lat="46.18032" lon="4.60696">
        <ele>815.008</ele>
        <time>2021-04-03T12:01:58Z</time>
      </trkpt>
      <trkpt lat="46.18028" lon="4.607">
        <ele>815.73</ele>
        <time>2021-04-03T12:02:00Z</time>
      </trkpt>
      <trkpt lat="46.18018" lon="4.60708">
        <ele>816.173</ele>
        <time>2021-04-03T12:02:02Z</time>
      </trkpt>
      <trkpt lat="46.18006" lon="4.60714">
        <ele>815.832</ele>
        <time>2021-04-03T12:02:04Z</time>
      </trkpt>
      <trkpt lat="46.17996" lon="4.60723">
        <ele>815.634</ele>
        <time>2021-04-03T12:02:06Z</time>
      </trkpt>
      <trkpt lat="46.17986" lon="4.60735">
        <ele>814.886</ele>
        <time>2021-04-03T12:02:08Z</time>
      </trkpt>
      <trkpt lat="46.17977" lon="4.60746">
        <ele>814.132</ele>
        <time>2021-04-03T12:02:10Z</time>
      </trkpt>
      <trkpt lat="46.17969" lon="4.60757">
        <ele>813.239</ele>
        <time>2021-04-03T12:02:12Z</time>
      </trkpt>
      <trkpt lat="46.17961" lon="4.60768">
        <ele>812.166</ele>
        <time>2021-04-03T12:02:14Z</time>
      </trkpt>
      <trkpt lat="46.17955" lon="4.6078">
        <ele>811.159</ele>
        <time>2021-04-03T12:02:16Z</time>
      </trkpt>
      <trkpt lat="46.17946" lon="4.6079">
        <ele>810.703</ele>
        <time>2021-04-03T12:02:18Z</time>
      </trkpt>
      <trkpt lat="46.17936" lon="4.60798">
        <ele>809.823</ele>
        <time>2021-04-03T12:02:20Z</time>
      </trkpt>
      <trkpt lat="46.17926" lon="4.60807">
        <ele>808.808</ele>
        <time>2021-04-03T12:02:22Z</time>
      </trkpt>
      <trkpt lat="46.17917" lon="4.60816">
        <ele>808.671</ele>
        <time>2021-04-03T12:02:24Z</time>
      </trkpt>
      <trkpt lat="46.17909" lon="4.60825">
        <ele>808.534</ele>
        <time>2021-04-03T12:02:26Z</time>
      </trkpt>
      <trkpt lat="46.17899" lon="4.60838">
        <ele>808.133</ele>
        <time>2021-04-03T12:02:28Z</time>
      </trkpt>
      <trkpt lat="46.17892" lon="4.60849">
        <ele>807.835</ele>
        <time>2021-04-03T12:02:30Z</time>
      </trkpt>
      <trkpt lat="46.17885" lon="4.60862">
        <ele>807.997</ele>
        <time>2021-04-03T12:02:32Z</time>
      </trkpt>
      <trkpt lat="46.17879" lon="4.60873">
        <ele>808.283</ele>
        <time>2021-04-03T12:02:34Z</time>
      </trkpt>
      <trkpt lat="46.17882" lon="4.60882">
        <ele>808.74</ele>
        <time>2021-04-03T12:02:38Z</time>
      </trkpt>
      <trkpt lat="46.17903" lon="4.60891">
        <ele>810.297</ele>
        <time>2021-04-03T12:02:42Z</time>
      </trkpt>
      <trkpt lat="46.17916" lon="4.60897">
        <ele>812.126</ele>
        <time>2021-04-03T12:02:44Z</time>
      </trkpt>
      <trkpt lat="46.17933" lon="4.60904">
        <ele>813.847</ele>
        <time>2021-04-03T12:02:46Z</time>
      </trkpt>
      <trkpt lat="46.17947" lon="4.60912">
        <ele>815.511</ele>
        <time>2021-04-03T12:02:48Z</time>
      </trkpt>
      <trkpt lat="46.17955" lon="4.60915">
        <ele>817.208</ele>
        <time>2021-04-03T12:02:50Z</time>
      </trkpt>
      <trkpt lat="46.17958" lon="4.60908">
        <ele>818.948</ele>
        <time>2021-04-03T12:02:52Z</time>
      </trkpt>
      <trkpt lat="46.17969" lon="4.60907">
        <ele>820.551</ele>
        <time>2021-04-03T12:02:54Z</time>
      </trkpt>
      <trkpt lat="46.17984" lon="4.60906">
        <ele>822.37</ele>
        <time>2021-04-03T12:02:56Z</time>
      </trkpt>
      <trkpt lat="46.18001" lon="4.609">
        <ele>823.812</ele>
        <time>2021-04-03T12:02:58Z</time>
      </trkpt>
      <trkpt lat="46.1802" lon="4.60895">
        <ele>824.614</ele>
        <time>2021-04-03T12:03:00Z</time>
      </trkpt>
      <trkpt lat="46.18032" lon="4.60888">
        <ele>825.88</ele>
        <time>2021-04-03T12:03:02Z</time>
      </trkpt>
      <trkpt lat="46.18037" lon="4.60885">
        <ele>826.787</ele>
        <time>2021-04-03T12:03:06Z</time>
      </trkpt>
      <trkpt lat="46.18041" lon="4.60884">
        <ele>827.614</ele>
        <time>2021-04-03T12:03:08Z</time>
      </trkpt>
      <trkpt lat="46.18046" lon="4.60888">
        <ele>828.158</ele>
        <time>2021-04-03T12:03:22Z</time>
      </trkpt>
      <trkpt lat="46.18049" lon="4.60899">
        <ele>827.952</ele>
        <time>2021-04-03T12:03:26Z</time>
      </trkpt>
      <trkpt lat="46.18052" lon="4.60905">
        <ele>828.017</ele>
        <time>2021-04-03T12:03:28Z</time>
      </trkpt>
      <trkpt lat="46.1806" lon="4.60909">
        <ele>828.108</ele>
        <time>2021-04-03T12:03:32Z</time>
      </trkpt>
      <trkpt lat="46.18065" lon="4.60906">
        <ele>828.231</ele>
        <time>2021-04-03T12:03:34Z</time>
      </trkpt>
      <trkpt lat="46.1807" lon="4.60896">
        <ele>828.314</ele>
        <time>2021-04-03T12:03:38Z</time>
      </trkpt>
      <trkpt lat="46.18075" lon="4.60893">
        <ele>829.333</ele>
        <time>2021-04-03T12:03:40Z</time>
      </trkpt>
      <trkpt lat="46.18083" lon="4.60895">
        <ele>830.035</ele>
        <time>2021-04-03T12:03:44Z</time>
      </trkpt>
      <trkpt lat="46.18089" lon="4.60895">
        <ele>830.467</ele>
        <time>2021-04-03T12:03:46Z</time>
      </trkpt>
      <trkpt lat="46.18092" lon="4.6089">
        <ele>831.533</ele>
        <time>2021-04-03T12:03:47Z</time>
      </trkpt>
      <trkpt lat="46.18096" lon="4.60885">
        <ele>831.16</ele>
        <time>2021-04-03T12:03:49Z</time>
      </trkpt>
      <trkpt lat="46.18091" lon="4.60887">
        <ele>830.867</ele>
        <time>2021-04-03T12:03:58Z</time>
      </trkpt>
      <trkpt lat="46.18094" lon="4.60879">
        <ele>830.212</ele>
        <time>2021-04-03T12:04:06Z</time>
      </trkpt>
      <trkpt lat="46.18096" lon="4.60872">
        <ele>832.532</ele>
        <time>2021-04-03T12:04:09Z</time>
      </trkpt>
      <trkpt lat="46.18096" lon="4.60865">
        <ele>833.305</ele>
        <time>2021-04-03T12:04:12Z</time>
      </trkpt>
      <trkpt lat="46.18098" lon="4.6086">
        <ele>833.708</ele>
        <time>2021-04-03T12:04:15Z</time>
      </trkpt>
      <trkpt lat="46.18103" lon="4.60864">
        <ele>833.247</ele>
        <time>2021-04-03T12:04:20Z</time>
      </trkpt>
      <trkpt lat="46.18106" lon="4.6087">
        <ele>833.24</ele>
        <time>2021-04-03T12:04:23Z</time>
      </trkpt>
      <trkpt lat="46.18113" lon="4.60875">
        <ele>833.699</ele>
        <time>2021-04-03T12:04:26Z</time>
      </trkpt>
      <trkpt lat="46.18117" lon="4.60876">
        <ele>833.551</ele>
        <time>2021-04-03T12:04:27Z</time>
      </trkpt>
      <trkpt lat="46.18122" lon="4.60879">
        <ele>833.123</ele>
        <time>2021-04-03T12:04:31Z</time>
      </trkpt>
      <trkpt lat="46.18127" lon="4.60878">
        <ele>832.649</ele>
        <time>2021-04-03T12:04:33Z</time>
      </trkpt>
      <trkpt lat="46.18133" lon="4.60879">
        <ele>832.496</ele>
        <time>2021-04-03T12:04:35Z</time>
      </trkpt>
      <trkpt lat="46.18138" lon="4.60881">
        <ele>832.253</ele>
        <time>2021-04-03T12:04:36Z</time>
      </trkpt>
      <trkpt lat="46.18148" lon="4.60883">
        <ele>832.243</ele>
        <time>2021-04-03T12:04:39Z</time>
      </trkpt>
      <trkpt lat="46.18153" lon="4.60883">
        <ele>832.764</ele>
        <time>2021-04-03T12:04:40Z</time>
      </trkpt>
      <trkpt lat="46.18162" lon="4.60882">
        <ele>832.71</ele>
        <time>2021-04-03T12:04:43Z</time>
      </trkpt>
      <trkpt lat="46.18174" lon="4.60885">
        <ele>832.908</ele>
        <time>2021-04-03T12:04:46Z</time>
      </trkpt>
      <trkpt lat="46.18188" lon="4.60892">
        <ele>833.13</ele>
        <time>2021-04-03T12:04:48Z</time>
      </trkpt>
      <trkpt lat="46.18197" lon="4.60897">
        <ele>833.853</ele>
        <time>2021-04-03T12:04:50Z</time>
      </trkpt>
      <trkpt lat="46.18201" lon="4.60901">
        <ele>834.282</ele>
        <time>2021-04-03T12:04:55Z</time>
      </trkpt>
      <trkpt lat="46.18204" lon="4.60897">
        <ele>834.454</ele>
        <time>2021-04-03T12:04:58Z</time>
      </trkpt>
      <trkpt lat="46.18209" lon="4.60895">
        <ele>834.596</ele>
        <time>2021-04-03T12:05:00Z</time>
      </trkpt>
      <trkpt lat="46.18206" lon="4.60902">
        <ele>832.942</ele>
        <time>2021-04-03T12:05:17Z</time>
      </trkpt>
      <trkpt lat="46.18202" lon="4.60906">
        <ele>831.169</ele>
        <time>2021-04-03T12:05:19Z</time>
      </trkpt>
      <trkpt lat="46.18194" lon="4.60909">
        <ele>830.486</ele>
        <time>2021-04-03T12:05:20Z</time>
      </trkpt>
      <trkpt lat="46.18188" lon="4.60911">
        <ele>830.382</ele>
        <time>2021-04-03T12:05:22Z</time>
      </trkpt>
      <trkpt lat="46.18194" lon="4.60916">
        <ele>832.743</ele>
        <time>2021-04-03T12:06:02Z</time>
      </trkpt>
      <trkpt lat="46.18195" lon="4.60925">
        <ele>834.217</ele>
        <time>2021-04-03T12:06:05Z</time>
      </trkpt>
      <trkpt lat="46.18195" lon="4.60933">
        <ele>834.908</ele>
        <time>2021-04-03T12:06:07Z</time>
      </trkpt>
      <trkpt lat="46.18201" lon="4.6094">
        <ele>837.414</ele>
        <time>2021-04-03T12:06:24Z</time>
      </trkpt>
      <trkpt lat="46.18203" lon="4.60949">
        <ele>839.137</ele>
        <time>2021-04-03T12:06:28Z</time>
      </trkpt>
      <trkpt lat="46.18207" lon="4.60956">
        <ele>839.676</ele>
        <time>2021-04-03T12:06:30Z</time>
      </trkpt>
      <trkpt lat="46.18211" lon="4.60965">
        <ele>840.418</ele>
        <time>2021-04-03T12:06:32Z</time>
      </trkpt>
      <trkpt lat="46.18214" lon="4.60979">
        <ele>840.37</ele>
        <time>2021-04-03T12:06:34Z</time>
      </trkpt>
      <trkpt lat="46.18216" lon="4.60991">
        <ele>840.296</ele>
        <time>2021-04-03T12:06:36Z</time>
      </trkpt>
      <trkpt lat="46.18218" lon="4.61001">
        <ele>839.563</ele>
        <time>2021-04-03T12:06:38Z</time>
      </trkpt>
      <trkpt lat="46.1822" lon="4.6101">
        <ele>837.49</ele>
        <time>2021-04-03T12:06:40Z</time>
      </trkpt>
      <trkpt lat="46.18222" lon="4.6102">
        <ele>837.448</ele>
        <time>2021-04-03T12:06:42Z</time>
      </trkpt>
      <trkpt lat="46.18225" lon="4.61035">
        <ele>837.961</ele>
        <time>2021-04-03T12:06:44Z</time>
      </trkpt>
      <trkpt lat="46.18226" lon="4.61048">
        <ele>837.917</ele>
        <time>2021-04-03T12:06:46Z</time>
      </trkpt>
      <trkpt lat="46.18228" lon="4.6106">
        <ele>838.408</ele>
        <time>2021-04-03T12:06:48Z</time>
      </trkpt>
      <trkpt lat="46.18231" lon="4.6107">
        <ele>839.69</ele>
        <time>2021-04-03T12:06:50Z</time>
      </trkpt>
      <trkpt lat="46.18235" lon="4.61081">
        <ele>841.283</ele>
        <time>2021-04-03T12:06:52Z</time>
      </trkpt>
      <trkpt lat="46.18239" lon="4.61087">
        <ele>842.812</ele>
        <time>2021-04-03T12:06:54Z</time>
      </trkpt>
      <trkpt lat="46.18241" lon="4.61096">
        <ele>843.964</ele>
        <time>2021-04-03T12:06:56Z</time>
      </trkpt>
      <trkpt lat="46.18242" lon="4.61109">
        <ele>843.646</ele>
        <time>2021-04-03T12:07:00Z</time>
      </trkpt>
      <trkpt lat="46.18242" lon="4.61117">
        <ele>843.072</ele>
        <time>2021-04-03T12:07:02Z</time>
      </trkpt>
      <trkpt lat="46.18239" lon="4.61124">
        <ele>843.169</ele>
        <time>2021-04-03T12:07:04Z</time>
      </trkpt>
      <trkpt lat="46.18238" lon="4.61131">
        <ele>842.416</ele>
        <time>2021-04-03T12:07:08Z</time>
      </trkpt>
      <trkpt lat="46.18234" lon="4.61137">
        <ele>843.019</ele>
        <time>2021-04-03T12:07:14Z</time>
      </trkpt>
      <trkpt lat="46.18227" lon="4.61139">
        <ele>843.409</ele>
        <time>2021-04-03T12:07:16Z</time>
      </trkpt>
      <trkpt lat="46.18218" lon="4.61142">
        <ele>843.519</ele>
        <time>2021-04-03T12:07:18Z</time>
      </trkpt>
      <trkpt lat="46.18206" lon="4.61147">
        <ele>843.908</ele>
        <time>2021-04-03T12:07:20Z</time>
      </trkpt>
      <trkpt lat="46.18195" lon="4.61148">
        <ele>844.457</ele>
        <time>2021-04-03T12:07:22Z</time>
      </trkpt>
      <trkpt lat="46.18184" lon="4.61151">
        <ele>844.72</ele>
        <time>2021-04-03T12:07:24Z</time>
      </trkpt>
      <trkpt lat="46.18179" lon="4.61154">
        <ele>844.879</ele>
        <time>2021-04-03T12:07:26Z</time>
      </trkpt>
      <trkpt lat="46.18174" lon="4.61161">
        <ele>845.021</ele>
        <time>2021-04-03T12:07:28Z</time>
      </trkpt>
      <trkpt lat="46.18165" lon="4.61174">
        <ele>845.013</ele>
        <time>2021-04-03T12:07:30Z</time>
      </trkpt>
      <trkpt lat="46.18158" lon="4.61191">
        <ele>844.999</ele>
        <time>2021-04-03T12:07:32Z</time>
      </trkpt>
      <trkpt lat="46.18156" lon="4.61203">
        <ele>844.766</ele>
        <time>2021-04-03T12:07:34Z</time>
      </trkpt>
      <trkpt lat="46.18153" lon="4.61218">
        <ele>843.513</ele>
        <time>2021-04-03T12:07:36Z</time>
      </trkpt>
      <trkpt lat="46.18151" lon="4.61226">
        <ele>843.032</ele>
        <time>2021-04-03T12:07:38Z</time>
      </trkpt>
      <trkpt lat="46.18145" lon="4.61233">
        <ele>843.292</ele>
        <time>2021-04-03T12:07:46Z</time>
      </trkpt>
      <trkpt lat="46.18152" lon="4.61235">
        <ele>843.411</ele>
        <time>2021-04-03T12:08:00Z</time>
      </trkpt>
      <trkpt lat="46.18158" lon="4.61234">
        <ele>843.708</ele>
        <time>2021-04-03T12:08:02Z</time>
      </trkpt>
      <trkpt lat="46.18167" lon="4.61241">
        <ele>843.599</ele>
        <time>2021-04-03T12:08:06Z</time>
      </trkpt>
      <trkpt lat="46.18174" lon="4.61247">
        <ele>842.832</ele>
        <time>2021-04-03T12:08:08Z</time>
      </trkpt>
      <trkpt lat="46.18181" lon="4.61249">
        <ele>841.711</ele>
        <time>2021-04-03T12:08:10Z</time>
      </trkpt>
      <trkpt lat="46.18188" lon="4.61251">
        <ele>841.323</ele>
        <time>2021-04-03T12:08:12Z</time>
      </trkpt>
      <trkpt lat="46.18193" lon="4.61253">
        <ele>840.245</ele>
        <time>2021-04-03T12:08:14Z</time>
      </trkpt>
      <trkpt lat="46.18199" lon="4.61256">
        <ele>839.491</ele>
        <time>2021-04-03T12:08:16Z</time>
      </trkpt>
      <trkpt lat="46.18206" lon="4.61259">
        <ele>839.038</ele>
        <time>2021-04-03T12:08:18Z</time>
      </trkpt>
      <trkpt lat="46.18211" lon="4.6126">
        <ele>838.565</ele>
        <time>2021-04-03T12:08:20Z</time>
      </trkpt>
      <trkpt lat="46.18219" lon="4.61258">
        <ele>838.794</ele>
        <time>2021-04-03T12:08:22Z</time>
      </trkpt>
      <trkpt lat="46.1823" lon="4.61259">
        <ele>838.957</ele>
        <time>2021-04-03T12:08:24Z</time>
      </trkpt>
      <trkpt lat="46.18237" lon="4.6126">
        <ele>838.622</ele>
        <time>2021-04-03T12:08:28Z</time>
      </trkpt>
      <trkpt lat="46.18243" lon="4.61265">
        <ele>839.008</ele>
        <time>2021-04-03T12:08:30Z</time>
      </trkpt>
      <trkpt lat="46.18249" lon="4.61267">
        <ele>839.465</ele>
        <time>2021-04-03T12:08:32Z</time>
      </trkpt>
      <trkpt lat="46.18256" lon="4.61275">
        <ele>839.458</ele>
        <time>2021-04-03T12:08:46Z</time>
      </trkpt>
      <trkpt lat="46.18262" lon="4.61279">
        <ele>838.277</ele>
        <time>2021-04-03T12:08:50Z</time>
      </trkpt>
      <trkpt lat="46.18267" lon="4.61283">
        <ele>837.099</ele>
        <time>2021-04-03T12:08:52Z</time>
      </trkpt>
      <trkpt lat="46.18277" lon="4.61289">
        <ele>837.061</ele>
        <time>2021-04-03T12:08:54Z</time>
      </trkpt>
      <trkpt lat="46.1829" lon="4.61294">
        <ele>837.137</ele>
        <time>2021-04-03T12:08:56Z</time>
      </trkpt>
      <trkpt lat="46.18296" lon="4.61298">
        <ele>837.374</ele>
        <time>2021-04-03T12:08:58Z</time>
      </trkpt>
      <trkpt lat="46.18304" lon="4.61304">
        <ele>837.771</ele>
        <time>2021-04-03T12:09:00Z</time>
      </trkpt>
      <trkpt lat="46.18312" lon="4.61309">
        <ele>837.381</ele>
        <time>2021-04-03T12:09:02Z</time>
      </trkpt>
      <trkpt lat="46.18317" lon="4.61313">
        <ele>836.761</ele>
        <time>2021-04-03T12:09:04Z</time>
      </trkpt>
      <trkpt lat="46.18324" lon="4.61316">
        <ele>836.217</ele>
        <time>2021-04-03T12:09:06Z</time>
      </trkpt>
      <trkpt lat="46.18333" lon="4.6132">
        <ele>835.208</ele>
        <time>2021-04-03T12:09:08Z</time>
      </trkpt>
      <trkpt lat="46.1834" lon="4.61324">
        <ele>834.344</ele>
        <time>2021-04-03T12:09:10Z</time>
      </trkpt>
      <trkpt lat="46.18346" lon="4.6133">
        <ele>832.887</ele>
        <time>2021-04-03T12:09:12Z</time>
      </trkpt>
      <trkpt lat="46.1835" lon="4.61333">
        <ele>832.066</ele>
        <time>2021-04-03T12:09:14Z</time>
      </trkpt>
      <trkpt lat="46.18355" lon="4.61336">
        <ele>831.598</ele>
        <time>2021-04-03T12:09:16Z</time>
      </trkpt>
      <trkpt lat="46.1836" lon="4.6134">
        <ele>830.46</ele>
        <time>2021-04-03T12:09:17Z</time>
      </trkpt>
      <trkpt lat="46.18369" lon="4.61345">
        <ele>829.046</ele>
        <time>2021-04-03T12:09:19Z</time>
      </trkpt>
      <trkpt lat="46.18378" lon="4.61344">
        <ele>828.263</ele>
        <time>2021-04-03T12:09:22Z</time>
      </trkpt>
      <trkpt lat="46.18381" lon="4.61351">
        <ele>827.14</ele>
        <time>2021-04-03T12:09:25Z</time>
      </trkpt>
      <trkpt lat="46.18398" lon="4.61355">
        <ele>826.153</ele>
        <time>2021-04-03T12:09:30Z</time>
      </trkpt>
      <trkpt lat="46.18415" lon="4.61354">
        <ele>825.404</ele>
        <time>2021-04-03T12:09:32Z</time>
      </trkpt>
      <trkpt lat="46.1843" lon="4.61353">
        <ele>825.214</ele>
        <time>2021-04-03T12:09:34Z</time>
      </trkpt>
      <trkpt lat="46.18442" lon="4.61348">
        <ele>825.308</ele>
        <time>2021-04-03T12:09:36Z</time>
      </trkpt>
      <trkpt lat="46.1846" lon="4.61337">
        <ele>825.721</ele>
        <time>2021-04-03T12:09:38Z</time>
      </trkpt>
      <trkpt lat="46.18485" lon="4.61314">
        <ele>826.334</ele>
        <time>2021-04-03T12:09:40Z</time>
      </trkpt>
      <trkpt lat="46.18515" lon="4.61286">
        <ele>827.163</ele>
        <time>2021-04-03T12:09:42Z</time>
      </trkpt>
      <trkpt lat="46.18539" lon="4.61264">
        <ele>826.825</ele>
        <time>2021-04-03T12:09:44Z</time>
      </trkpt>
      <trkpt lat="46.18555" lon="4.6125">
        <ele>826.717</ele>
        <time>2021-04-03T12:09:46Z</time>
      </trkpt>
      <trkpt lat="46.18572" lon="4.61237">
        <ele>824.863</ele>
        <time>2021-04-03T12:09:48Z</time>
      </trkpt>
      <trkpt lat="46.18586" lon="4.61227">
        <ele>822.84</ele>
        <time>2021-04-03T12:09:50Z</time>
      </trkpt>
      <trkpt lat="46.18598" lon="4.61221">
        <ele>821.547</ele>
        <time>2021-04-03T12:09:52Z</time>
      </trkpt>
      <trkpt lat="46.18605" lon="4.61216">
        <ele>820.576</ele>
        <time>2021-04-03T12:09:54Z</time>
      </trkpt>
      <trkpt lat="46.18614" lon="4.61232">
        <ele>817.99</ele>
        <time>2021-04-03T12:09:58Z</time>
      </trkpt>
      <trkpt lat="46.18628" lon="4.61247">
        <ele>815.619</ele>
        <time>2021-04-03T12:10:00Z</time>
      </trkpt>
      <trkpt lat="46.18642" lon="4.61264">
        <ele>813.608</ele>
        <time>2021-04-03T12:10:02Z</time>
      </trkpt>
      <trkpt lat="46.18656" lon="4.61281">
        <ele>811.973</ele>
        <time>2021-04-03T12:10:04Z</time>
      </trkpt>
      <trkpt lat="46.18669" lon="4.61297">
        <ele>810.386</ele>
        <time>2021-04-03T12:10:06Z</time>
      </trkpt>
      <trkpt lat="46.18682" lon="4.6131">
        <ele>808.555</ele>
        <time>2021-04-03T12:10:08Z</time>
      </trkpt>
      <trkpt lat="46.18694" lon="4.61326">
        <ele>807.817</ele>
        <time>2021-04-03T12:10:10Z</time>
      </trkpt>
      <trkpt lat="46.18704" lon="4.6134">
        <ele>805.819</ele>
        <time>2021-04-03T12:10:12Z</time>
      </trkpt>
      <trkpt lat="46.18714" lon="4.61349">
        <ele>804.465</ele>
        <time>2021-04-03T12:10:14Z</time>
      </trkpt>
      <trkpt lat="46.18719" lon="4.61351">
        <ele>802.722</ele>
        <time>2021-04-03T12:10:16Z</time>
      </trkpt>
      <trkpt lat="46.1873" lon="4.61359">
        <ele>800.699</ele>
        <time>2021-04-03T12:10:18Z</time>
      </trkpt>
      <trkpt lat="46.18743" lon="4.61363">
        <ele>799.822</ele>
        <time>2021-04-03T12:10:20Z</time>
      </trkpt>
      <trkpt lat="46.18753" lon="4.61367">
        <ele>798.962</ele>
        <time>2021-04-03T12:10:22Z</time>
      </trkpt>
      <trkpt lat="46.18762" lon="4.61372">
        <ele>798.108</ele>
        <time>2021-04-03T12:10:24Z</time>
      </trkpt>
      <trkpt lat="46.18766" lon="4.61374">
        <ele>797.608</ele>
        <time>2021-04-03T12:10:25Z</time>
      </trkpt>
      <trkpt lat="46.18782" lon="4.61384">
        <ele>797.318</ele>
        <time>2021-04-03T12:10:28Z</time>
      </trkpt>
      <trkpt lat="46.18792" lon="4.61389">
        <ele>797.081</ele>
        <time>2021-04-03T12:10:30Z</time>
      </trkpt>
      <trkpt lat="46.188" lon="4.61388">
        <ele>796.67</ele>
        <time>2021-04-03T12:10:33Z</time>
      </trkpt>
      <trkpt lat="46.18806" lon="4.6139">
        <ele>796.452</ele>
        <time>2021-04-03T12:10:34Z</time>
      </trkpt>
      <trkpt lat="46.18823" lon="4.61406">
        <ele>796.234</ele>
        <time>2021-04-03T12:10:36Z</time>
      </trkpt>
      <trkpt lat="46.18832" lon="4.61411">
        <ele>796.61</ele>
        <time>2021-04-03T12:10:38Z</time>
      </trkpt>
      <trkpt lat="46.18837" lon="4.61414">
        <ele>796.897</ele>
        <time>2021-04-03T12:10:39Z</time>
      </trkpt>
      <trkpt lat="46.1884" lon="4.61421">
        <ele>796.144</ele>
        <time>2021-04-03T12:10:41Z</time>
      </trkpt>
      <trkpt lat="46.18845" lon="4.61421">
        <ele>794.928</ele>
        <time>2021-04-03T12:10:43Z</time>
      </trkpt>
      <trkpt lat="46.1885" lon="4.61422">
        <ele>794.289</ele>
        <time>2021-04-03T12:10:44Z</time>
      </trkpt>
      <trkpt lat="46.18861" lon="4.61429">
        <ele>790.317</ele>
        <time>2021-04-03T12:10:46Z</time>
      </trkpt>
      <trkpt lat="46.1887" lon="4.61437">
        <ele>787.208</ele>
        <time>2021-04-03T12:10:48Z</time>
      </trkpt>
      <trkpt lat="46.1888" lon="4.61447">
        <ele>784.168</ele>
        <time>2021-04-03T12:10:50Z</time>
      </trkpt>
      <trkpt lat="46.18889" lon="4.61453">
        <ele>781.661</ele>
        <time>2021-04-03T12:10:52Z</time>
      </trkpt>
      <trkpt lat="46.18898" lon="4.6146">
        <ele>779.65</ele>
        <time>2021-04-03T12:10:54Z</time>
      </trkpt>
      <trkpt lat="46.18904" lon="4.61461">
        <ele>777.892</ele>
        <time>2021-04-03T12:10:56Z</time>
      </trkpt>
      <trkpt lat="46.18909" lon="4.61468">
        <ele>776.634</ele>
        <time>2021-04-03T12:10:58Z</time>
      </trkpt>
      <trkpt lat="46.18918" lon="4.61478">
        <ele>775.82</ele>
        <time>2021-04-03T12:11:00Z</time>
      </trkpt>
      <trkpt lat="46.18927" lon="4.61485">
        <ele>774.477</ele>
        <time>2021-04-03T12:11:02Z</time>
      </trkpt>
      <trkpt lat="46.18936" lon="4.61496">
        <ele>772.944</ele>
        <time>2021-04-03T12:11:04Z</time>
      </trkpt>
      <trkpt lat="46.18949" lon="4.61508">
        <ele>771.954</ele>
        <time>2021-04-03T12:11:06Z</time>
      </trkpt>
      <trkpt lat="46.18961" lon="4.61521">
        <ele>771.256</ele>
        <time>2021-04-03T12:11:08Z</time>
      </trkpt>
      <trkpt lat="46.18972" lon="4.6153">
        <ele>770.711</ele>
        <time>2021-04-03T12:11:10Z</time>
      </trkpt>
      <trkpt lat="46.18984" lon="4.61536">
        <ele>769.608</ele>
        <time>2021-04-03T12:11:12Z</time>
      </trkpt>
      <trkpt lat="46.18994" lon="4.61545">
        <ele>768.591</ele>
        <time>2021-04-03T12:11:14Z</time>
      </trkpt>
      <trkpt lat="46.19007" lon="4.61554">
        <ele>766.984</ele>
        <time>2021-04-03T12:11:16Z</time>
      </trkpt>
      <trkpt lat="46.19019" lon="4.61559">
        <ele>765.753</ele>
        <time>2021-04-03T12:11:18Z</time>
      </trkpt>
      <trkpt lat="46.19029" lon="4.61562">
        <ele>763.635</ele>
        <time>2021-04-03T12:11:20Z</time>
      </trkpt>
      <trkpt lat="46.19039" lon="4.61569">
        <ele>762.447</ele>
        <time>2021-04-03T12:11:22Z</time>
      </trkpt>
      <trkpt lat="46.1905" lon="4.61577">
        <ele>760.593</ele>
        <time>2021-04-03T12:11:24Z</time>
      </trkpt>
      <trkpt lat="46.19061" lon="4.61586">
        <ele>759.06</ele>
        <time>2021-04-03T12:11:26Z</time>
      </trkpt>
      <trkpt lat="46.19074" lon="4.61599">
        <ele>757.417</ele>
        <time>2021-04-03T12:11:28Z</time>
      </trkpt>
      <trkpt lat="46.19085" lon="4.6161">
        <ele>756.033</ele>
        <time>2021-04-03T12:11:30Z</time>
      </trkpt>
      <trkpt lat="46.19096" lon="4.61617">
        <ele>754.723</ele>
        <time>2021-04-03T12:11:32Z</time>
      </trkpt>
      <trkpt lat="46.19107" lon="4.61625">
        <ele>753.815</ele>
        <time>2021-04-03T12:11:34Z</time>
      </trkpt>
      <trkpt lat="46.19118" lon="4.61631">
        <ele>752.908</ele>
        <time>2021-04-03T12:11:36Z</time>
      </trkpt>
      <trkpt lat="46.19128" lon="4.61638">
        <ele>752.129</ele>
        <time>2021-04-03T12:11:38Z</time>
      </trkpt>
      <trkpt lat="46.19138" lon="4.61645">
        <ele>751.732</ele>
        <time>2021-04-03T12:11:40Z</time>
      </trkpt>
      <trkpt lat="46.19147" lon="4.61649">
        <ele>751.071</ele>
        <time>2021-04-03T12:11:42Z</time>
      </trkpt>
      <trkpt lat="46.19155" lon="4.61652">
        <ele>750.533</ele>
        <time>2021-04-03T12:11:44Z</time>
      </trkpt>
      <trkpt lat="46.19165" lon="4.61666">
        <ele>750.075</ele>
        <time>2021-04-03T12:11:48Z</time>
      </trkpt>
      <trkpt lat="46.19175" lon="4.61684">
        <ele>749.571</ele>
        <time>2021-04-03T12:11:50Z</time>
      </trkpt>
      <trkpt lat="46.19189" lon="4.6171">
        <ele>749.298</ele>
        <time>2021-04-03T12:11:52Z</time>
      </trkpt>
      <trkpt lat="46.19201" lon="4.61737">
        <ele>748.445</ele>
        <time>2021-04-03T12:11:54Z</time>
      </trkpt>
      <trkpt lat="46.19209" lon="4.61759">
        <ele>748.043</ele>
        <time>2021-04-03T12:11:56Z</time>
      </trkpt>
      <trkpt lat="46.19213" lon="4.61776">
        <ele>747.764</ele>
        <time>2021-04-03T12:11:58Z</time>
      </trkpt>
      <trkpt lat="46.19216" lon="4.61789">
        <ele>746.71</ele>
        <time>2021-04-03T12:12:00Z</time>
      </trkpt>
      <trkpt lat="46.19223" lon="4.61804">
        <ele>745.808</ele>
        <time>2021-04-03T12:12:02Z</time>
      </trkpt>
      <trkpt lat="46.19231" lon="4.61821">
        <ele>745.04</ele>
        <time>2021-04-03T12:12:04Z</time>
      </trkpt>
      <trkpt lat="46.19236" lon="4.61833">
        <ele>744.443</ele>
        <time>2021-04-03T12:12:06Z</time>
      </trkpt>
      <trkpt lat="46.19238" lon="4.61841">
        <ele>744.562</ele>
        <time>2021-04-03T12:12:10Z</time>
      </trkpt>
      <trkpt lat="46.1924" lon="4.61858">
        <ele>744.964</ele>
        <time>2021-04-03T12:12:12Z</time>
      </trkpt>
      <trkpt lat="46.19242" lon="4.61889">
        <ele>745.486</ele>
        <time>2021-04-03T12:12:14Z</time>
      </trkpt>
      <trkpt lat="46.19244" lon="4.61916">
        <ele>746.162</ele>
        <time>2021-04-03T12:12:16Z</time>
      </trkpt>
      <trkpt lat="46.19247" lon="4.61943">
        <ele>746.459</ele>
        <time>2021-04-03T12:12:18Z</time>
      </trkpt>
      <trkpt lat="46.19255" lon="4.61967">
        <ele>746.956</ele>
        <time>2021-04-03T12:12:20Z</time>
      </trkpt>
      <trkpt lat="46.19261" lon="4.6199">
        <ele>747.269</ele>
        <time>2021-04-03T12:12:22Z</time>
      </trkpt>
      <trkpt lat="46.19266" lon="4.62013">
        <ele>747.604</ele>
        <time>2021-04-03T12:12:24Z</time>
      </trkpt>
      <trkpt lat="46.19273" lon="4.62036">
        <ele>748.024</ele>
        <time>2021-04-03T12:12:26Z</time>
      </trkpt>
      <trkpt lat="46.19282" lon="4.62059">
        <ele>748.508</ele>
        <time>2021-04-03T12:12:28Z</time>
      </trkpt>
      <trkpt lat="46.19292" lon="4.62082">
        <ele>749.132</ele>
        <time>2021-04-03T12:12:30Z</time>
      </trkpt>
      <trkpt lat="46.19301" lon="4.62101">
        <ele>749.975</ele>
        <time>2021-04-03T12:12:32Z</time>
      </trkpt>
      <trkpt lat="46.1931" lon="4.62123">
        <ele>750.334</ele>
        <time>2021-04-03T12:12:34Z</time>
      </trkpt>
      <trkpt lat="46.19315" lon="4.62145">
        <ele>750.366</ele>
        <time>2021-04-03T12:12:36Z</time>
      </trkpt>
      <trkpt lat="46.19321" lon="4.62164">
        <ele>750.458</ele>
        <time>2021-04-03T12:12:38Z</time>
      </trkpt>
      <trkpt lat="46.19331" lon="4.62183">
        <ele>750.184</ele>
        <time>2021-04-03T12:12:40Z</time>
      </trkpt>
      <trkpt lat="46.19349" lon="4.62204">
        <ele>749.921</ele>
        <time>2021-04-03T12:12:42Z</time>
      </trkpt>
      <trkpt lat="46.1937" lon="4.62225">
        <ele>749.948</ele>
        <time>2021-04-03T12:12:44Z</time>
      </trkpt>
      <trkpt lat="46.19386" lon="4.62244">
        <ele>750.082</ele>
        <time>2021-04-03T12:12:46Z</time>
      </trkpt>
      <trkpt lat="46.19394" lon="4.6227">
        <ele>749.243</ele>
        <time>2021-04-03T12:12:48Z</time>
      </trkpt>
      <trkpt lat="46.19399" lon="4.62308">
        <ele>748.317</ele>
        <time>2021-04-03T12:12:50Z</time>
      </trkpt>
      <trkpt lat="46.19403" lon="4.62347">
        <ele>748.008</ele>
        <time>2021-04-03T12:12:52Z</time>
      </trkpt>
      <trkpt lat="46.19406" lon="4.62379">
        <ele>748.194</ele>
        <time>2021-04-03T12:12:54Z</time>
      </trkpt>
      <trkpt lat="46.19404" lon="4.62411">
        <ele>748.377</ele>
        <time>2021-04-03T12:12:56Z</time>
      </trkpt>
      <trkpt lat="46.19403" lon="4.62451">
        <ele>749.056</ele>
        <time>2021-04-03T12:12:58Z</time>
      </trkpt>
      <trkpt lat="46.19406" lon="4.62498">
        <ele>749.838</ele>
        <time>2021-04-03T12:13:00Z</time>
      </trkpt>
      <trkpt lat="46.19407" lon="4.62536">
        <ele>750.71</ele>
        <time>2021-04-03T12:13:02Z</time>
      </trkpt>
      <trkpt lat="46.19409" lon="4.62569">
        <ele>751.576</ele>
        <time>2021-04-03T12:13:04Z</time>
      </trkpt>
      <trkpt lat="46.19413" lon="4.62603">
        <ele>752.253</ele>
        <time>2021-04-03T12:13:06Z</time>
      </trkpt>
      <trkpt lat="46.19417" lon="4.6263">
        <ele>752.49</ele>
        <time>2021-04-03T12:13:08Z</time>
      </trkpt>
      <trkpt lat="46.19418" lon="4.62651">
        <ele>752.639</ele>
        <time>2021-04-03T12:13:10Z</time>
      </trkpt>
      <trkpt lat="46.1942" lon="4.62667">
        <ele>756.601</ele>
        <time>2021-04-03T12:13:12Z</time>
      </trkpt>
      <trkpt lat="46.19427" lon="4.62674">
        <ele>756.521</ele>
        <time>2021-04-03T12:13:14Z</time>
      </trkpt>
      <trkpt lat="46.19432" lon="4.62672">
        <ele>755.308</ele>
        <time>2021-04-03T12:13:18Z</time>
      </trkpt>
      <trkpt lat="46.19435" lon="4.62666">
        <ele>754.089</ele>
        <time>2021-04-03T12:13:26Z</time>
      </trkpt>
      <trkpt lat="46.19439" lon="4.62654">
        <ele>758.052</ele>
        <time>2021-04-03T12:13:28Z</time>
      </trkpt>
      <trkpt lat="46.19444" lon="4.62636">
        <ele>758.481</ele>
        <time>2021-04-03T12:13:30Z</time>
      </trkpt>
      <trkpt lat="46.19451" lon="4.62614">
        <ele>757.933</ele>
        <time>2021-04-03T12:13:32Z</time>
      </trkpt>
      <trkpt lat="46.1946" lon="4.62592">
        <ele>757.795</ele>
        <time>2021-04-03T12:13:34Z</time>
      </trkpt>
      <trkpt lat="46.19471" lon="4.62576">
        <ele>758.441</ele>
        <time>2021-04-03T12:13:36Z</time>
      </trkpt>
      <trkpt lat="46.1948" lon="4.62566">
        <ele>759.558</ele>
        <time>2021-04-03T12:13:38Z</time>
      </trkpt>
      <trkpt lat="46.19492" lon="4.62556">
        <ele>760.255</ele>
        <time>2021-04-03T12:13:40Z</time>
      </trkpt>
      <trkpt lat="46.19505" lon="4.62546">
        <ele>761.513</ele>
        <time>2021-04-03T12:13:42Z</time>
      </trkpt>
      <trkpt lat="46.19516" lon="4.62542">
        <ele>762.043</ele>
        <time>2021-04-03T12:13:44Z</time>
      </trkpt>
      <trkpt lat="46.19527" lon="4.62547">
        <ele>762.607</ele>
        <time>2021-04-03T12:13:46Z</time>
      </trkpt>
      <trkpt lat="46.19537" lon="4.62555">
        <ele>763.508</ele>
        <time>2021-04-03T12:13:48Z</time>
      </trkpt>
      <trkpt lat="46.19547" lon="4.62561">
        <ele>765.257</ele>
        <time>2021-04-03T12:13:50Z</time>
      </trkpt>
      <trkpt lat="46.19559" lon="4.62567">
        <ele>767.35</ele>
        <time>2021-04-03T12:13:52Z</time>
      </trkpt>
      <trkpt lat="46.19573" lon="4.62565">
        <ele>769.179</ele>
        <time>2021-04-03T12:13:54Z</time>
      </trkpt>
      <trkpt lat="46.19586" lon="4.62561">
        <ele>771.091</ele>
        <time>2021-04-03T12:13:56Z</time>
      </trkpt>
      <trkpt lat="46.19593" lon="4.62568">
        <ele>772.533</ele>
        <time>2021-04-03T12:14:00Z</time>
      </trkpt>
      <trkpt lat="46.196" lon="4.62589">
        <ele>773.539</ele>
        <time>2021-04-03T12:14:04Z</time>
      </trkpt>
      <trkpt lat="46.19606" lon="4.62594">
        <ele>774.186</ele>
        <time>2021-04-03T12:14:06Z</time>
      </trkpt>
      <trkpt lat="46.19611" lon="4.62598">
        <ele>774.423</ele>
        <time>2021-04-03T12:14:08Z</time>
      </trkpt>
      <trkpt lat="46.19616" lon="4.62601">
        <ele>775.091</ele>
        <time>2021-04-03T12:14:10Z</time>
      </trkpt>
      <trkpt lat="46.19624" lon="4.62603">
        <ele>775.081</ele>
        <time>2021-04-03T12:14:12Z</time>
      </trkpt>
      <trkpt lat="46.19632" lon="4.62608">
        <ele>775.119</ele>
        <time>2021-04-03T12:14:16Z</time>
      </trkpt>
      <trkpt lat="46.19631" lon="4.62601">
        <ele>775.708</ele>
        <time>2021-04-03T12:14:22Z</time>
      </trkpt>
      <trkpt lat="46.19625" lon="4.62599">
        <ele>776.635</ele>
        <time>2021-04-03T12:14:24Z</time>
      </trkpt>
      <trkpt lat="46.1962" lon="4.62596">
        <ele>777.698</ele>
        <time>2021-04-03T12:14:26Z</time>
      </trkpt>
      <trkpt lat="46.19616" lon="4.62592">
        <ele>778.157</ele>
        <time>2021-04-03T12:14:28Z</time>
      </trkpt>
      <trkpt lat="46.19609" lon="4.62586">
        <ele>778.699</ele>
        <time>2021-04-03T12:14:30Z</time>
      </trkpt>
      <trkpt lat="46.19601" lon="4.6258">
        <ele>779.381</ele>
        <time>2021-04-03T12:14:32Z</time>
      </trkpt>
      <trkpt lat="46.19595" lon="4.62567">
        <ele>780.127</ele>
        <time>2021-04-03T12:14:34Z</time>
      </trkpt>
      <trkpt lat="46.19595" lon="4.62558">
        <ele>781.654</ele>
        <time>2021-04-03T12:14:36Z</time>
      </trkpt>
      <trkpt lat="46.19603" lon="4.62551">
        <ele>783.041</ele>
        <time>2021-04-03T12:14:38Z</time>
      </trkpt>
      <trkpt lat="46.19617" lon="4.62541">
        <ele>783.866</ele>
        <time>2021-04-03T12:14:40Z</time>
      </trkpt>
      <trkpt lat="46.19629" lon="4.62528">
        <ele>785.229</ele>
        <time>2021-04-03T12:14:42Z</time>
      </trkpt>
      <trkpt lat="46.19643" lon="4.62518">
        <ele>786.721</ele>
        <time>2021-04-03T12:14:44Z</time>
      </trkpt>
      <trkpt lat="46.19659" lon="4.62509">
        <ele>787.608</ele>
        <time>2021-04-03T12:14:46Z</time>
      </trkpt>
      <trkpt lat="46.19674" lon="4.62498">
        <ele>788.612</ele>
        <time>2021-04-03T12:14:48Z</time>
      </trkpt>
      <trkpt lat="46.19691" lon="4.62487">
        <ele>792.625</ele>
        <time>2021-04-03T12:14:50Z</time>
      </trkpt>
      <trkpt lat="46.19709" lon="4.62479">
        <ele>795.144</ele>
        <time>2021-04-03T12:14:52Z</time>
      </trkpt>
      <trkpt lat="46.19729" lon="4.62472">
        <ele>795.216</ele>
        <time>2021-04-03T12:14:54Z</time>
      </trkpt>
      <trkpt lat="46.19745" lon="4.62468">
        <ele>795.048</ele>
        <time>2021-04-03T12:14:56Z</time>
      </trkpt>
      <trkpt lat="46.19761" lon="4.62465">
        <ele>794.984</ele>
        <time>2021-04-03T12:14:58Z</time>
      </trkpt>
      <trkpt lat="46.1978" lon="4.6246">
        <ele>794.941</ele>
        <time>2021-04-03T12:15:00Z</time>
      </trkpt>
      <trkpt lat="46.19797" lon="4.62455">
        <ele>794.798</ele>
        <time>2021-04-03T12:15:02Z</time>
      </trkpt>
      <trkpt lat="46.19815" lon="4.62454">
        <ele>795.166</ele>
        <time>2021-04-03T12:15:04Z</time>
      </trkpt>
      <trkpt lat="46.19836" lon="4.62456">
        <ele>795.129</ele>
        <time>2021-04-03T12:15:06Z</time>
      </trkpt>
      <trkpt lat="46.19856" lon="4.62458">
        <ele>795.521</ele>
        <time>2021-04-03T12:15:08Z</time>
      </trkpt>
      <trkpt lat="46.19872" lon="4.62452">
        <ele>796.408</ele>
        <time>2021-04-03T12:15:10Z</time>
      </trkpt>
      <trkpt lat="46.19884" lon="4.62444">
        <ele>797.682</ele>
        <time>2021-04-03T12:15:12Z</time>
      </trkpt>
      <trkpt lat="46.19895" lon="4.62445">
        <ele>798.425</ele>
        <time>2021-04-03T12:15:14Z</time>
      </trkpt>
      <trkpt lat="46.19908" lon="4.6245">
        <ele>798.674</ele>
        <time>2021-04-03T12:15:16Z</time>
      </trkpt>
      <trkpt lat="46.19922" lon="4.62459">
        <ele>798.526</ele>
        <time>2021-04-03T12:15:18Z</time>
      </trkpt>
      <trkpt lat="46.19939" lon="4.62478">
        <ele>798.458</ele>
        <time>2021-04-03T12:15:20Z</time>
      </trkpt>
      <trkpt lat="46.19964" lon="4.62493">
        <ele>798.784</ele>
        <time>2021-04-03T12:15:22Z</time>
      </trkpt>
      <trkpt lat="46.19986" lon="4.62502">
        <ele>797.881</ele>
        <time>2021-04-03T12:15:24Z</time>
      </trkpt>
      <trkpt lat="46.20003" lon="4.62515">
        <ele>797.228</ele>
        <time>2021-04-03T12:15:26Z</time>
      </trkpt>
      <trkpt lat="46.20019" lon="4.62522">
        <ele>796.247</ele>
        <time>2021-04-03T12:15:28Z</time>
      </trkpt>
      <trkpt lat="46.20033" lon="4.62528">
        <ele>795.029</ele>
        <time>2021-04-03T12:15:30Z</time>
      </trkpt>
      <trkpt lat="46.2005" lon="4.62527">
        <ele>793.721</ele>
        <time>2021-04-03T12:15:32Z</time>
      </trkpt>
      <trkpt lat="46.20067" lon="4.62529">
        <ele>792.008</ele>
        <time>2021-04-03T12:15:34Z</time>
      </trkpt>
      <trkpt lat="46.20083" lon="4.62537">
        <ele>791.17</ele>
        <time>2021-04-03T12:15:36Z</time>
      </trkpt>
      <trkpt lat="46.20097" lon="4.62545">
        <ele>790.843</ele>
        <time>2021-04-03T12:15:38Z</time>
      </trkpt>
      <trkpt lat="46.20116" lon="4.62552">
        <ele>790.572</ele>
        <time>2021-04-03T12:15:40Z</time>
      </trkpt>
      <trkpt lat="46.20132" lon="4.62565">
        <ele>790.174</ele>
        <time>2021-04-03T12:15:42Z</time>
      </trkpt>
      <trkpt lat="46.20144" lon="4.62576">
        <ele>790.156</ele>
        <time>2021-04-03T12:15:44Z</time>
      </trkpt>
      <trkpt lat="46.20151" lon="4.62588">
        <ele>789.482</ele>
        <time>2021-04-03T12:15:46Z</time>
      </trkpt>
      <trkpt lat="46.20159" lon="4.62605">
        <ele>788.939</ele>
        <time>2021-04-03T12:15:48Z</time>
      </trkpt>
      <trkpt lat="46.20171" lon="4.62631">
        <ele>788.866</ele>
        <time>2021-04-03T12:15:50Z</time>
      </trkpt>
      <trkpt lat="46.20182" lon="4.62648">
        <ele>789.091</ele>
        <time>2021-04-03T12:15:52Z</time>
      </trkpt>
      <trkpt lat="46.20193" lon="4.62666">
        <ele>789.481</ele>
        <time>2021-04-03T12:15:54Z</time>
      </trkpt>
      <trkpt lat="46.20203" lon="4.62683">
        <ele>790.119</ele>
        <time>2021-04-03T12:15:56Z</time>
      </trkpt>
      <trkpt lat="46.20213" lon="4.62694">
        <ele>790.108</ele>
        <time>2021-04-03T12:15:58Z</time>
      </trkpt>
      <trkpt lat="46.20224" lon="4.62702">
        <ele>790.235</ele>
        <time>2021-04-03T12:16:00Z</time>
      </trkpt>
      <trkpt lat="46.20229" lon="4.62714">
        <ele>790.548</ele>
        <time>2021-04-03T12:16:02Z</time>
      </trkpt>
      <trkpt lat="46.20236" lon="4.62728">
        <ele>790.317</ele>
        <time>2021-04-03T12:16:04Z</time>
      </trkpt>
      <trkpt lat="46.20245" lon="4.62738">
        <ele>789.689</ele>
        <time>2021-04-03T12:16:06Z</time>
      </trkpt>
      <trkpt lat="46.20257" lon="4.6275">
        <ele>789.351</ele>
        <time>2021-04-03T12:16:08Z</time>
      </trkpt>
      <trkpt lat="46.2027" lon="4.62761">
        <ele>788.987</ele>
        <time>2021-04-03T12:16:10Z</time>
      </trkpt>
      <trkpt lat="46.20281" lon="4.6277">
        <ele>789.234</ele>
        <time>2021-04-03T12:16:12Z</time>
      </trkpt>
      <trkpt lat="46.20289" lon="4.62782">
        <ele>788.181</ele>
        <time>2021-04-03T12:16:14Z</time>
      </trkpt>
      <trkpt lat="46.203" lon="4.62793">
        <ele>787.615</ele>
        <time>2021-04-03T12:16:16Z</time>
      </trkpt>
      <trkpt lat="46.20314" lon="4.62803">
        <ele>787.765</ele>
        <time>2021-04-03T12:16:18Z</time>
      </trkpt>
      <trkpt lat="46.20325" lon="4.62814">
        <ele>788.211</ele>
        <time>2021-04-03T12:16:20Z</time>
      </trkpt>
      <trkpt lat="46.20334" lon="4.62825">
        <ele>788.608</ele>
        <time>2021-04-03T12:16:22Z</time>
      </trkpt>
      <trkpt lat="46.20342" lon="4.62835">
        <ele>788.817</ele>
        <time>2021-04-03T12:16:24Z</time>
      </trkpt>
      <trkpt lat="46.20346" lon="4.62849">
        <ele>789.38</ele>
        <time>2021-04-03T12:16:26Z</time>
      </trkpt>
      <trkpt lat="46.20347" lon="4.62863">
        <ele>787.639</ele>
        <time>2021-04-03T12:16:28Z</time>
      </trkpt>
      <trkpt lat="46.20346" lon="4.6287">
        <ele>786.521</ele>
        <time>2021-04-03T12:16:30Z</time>
      </trkpt>
      <trkpt lat="46.20351" lon="4.62879">
        <ele>784.923</ele>
        <time>2021-04-03T12:16:32Z</time>
      </trkpt>
      <trkpt lat="46.20363" lon="4.62886">
        <ele>783.629</ele>
        <time>2021-04-03T12:16:34Z</time>
      </trkpt>
      <trkpt lat="46.20376" lon="4.62889">
        <ele>783.056</ele>
        <time>2021-04-03T12:16:36Z</time>
      </trkpt>
      <trkpt lat="46.20388" lon="4.62896">
        <ele>782.973</ele>
        <time>2021-04-03T12:16:38Z</time>
      </trkpt>
      <trkpt lat="46.20405" lon="4.62907">
        <ele>782.669</ele>
        <time>2021-04-03T12:16:40Z</time>
      </trkpt>
      <trkpt lat="46.20433" lon="4.62923">
        <ele>783.404</ele>
        <time>2021-04-03T12:16:42Z</time>
      </trkpt>
      <trkpt lat="46.20464" lon="4.62942">
        <ele>784.924</ele>
        <time>2021-04-03T12:16:44Z</time>
      </trkpt>
      <trkpt lat="46.20485" lon="4.62953">
        <ele>786.708</ele>
        <time>2021-04-03T12:16:46Z</time>
      </trkpt>
      <trkpt lat="46.20505" lon="4.62965">
        <ele>788.942</ele>
        <time>2021-04-03T12:16:48Z</time>
      </trkpt>
      <trkpt lat="46.20525" lon="4.62978">
        <ele>791.295</ele>
        <time>2021-04-03T12:16:50Z</time>
      </trkpt>
      <trkpt lat="46.20542" lon="4.62986">
        <ele>793.774</ele>
        <time>2021-04-03T12:16:52Z</time>
      </trkpt>
      <trkpt lat="46.20556" lon="4.62987">
        <ele>795.286</ele>
        <time>2021-04-03T12:16:54Z</time>
      </trkpt>
      <trkpt lat="46.20572" lon="4.62981">
        <ele>796.558</ele>
        <time>2021-04-03T12:16:56Z</time>
      </trkpt>
      <trkpt lat="46.20587" lon="4.62976">
        <ele>797.734</ele>
        <time>2021-04-03T12:16:58Z</time>
      </trkpt>
      <trkpt lat="46.20602" lon="4.62976">
        <ele>798.771</ele>
        <time>2021-04-03T12:17:00Z</time>
      </trkpt>
      <trkpt lat="46.20614" lon="4.6298">
        <ele>799.218</ele>
        <time>2021-04-03T12:17:02Z</time>
      </trkpt>
      <trkpt lat="46.20626" lon="4.62991">
        <ele>799.766</ele>
        <time>2021-04-03T12:17:04Z</time>
      </trkpt>
      <trkpt lat="46.20639" lon="4.62992">
        <ele>799.729</ele>
        <time>2021-04-03T12:17:06Z</time>
      </trkpt>
      <trkpt lat="46.20653" lon="4.62994">
        <ele>799.721</ele>
        <time>2021-04-03T12:17:08Z</time>
      </trkpt>
      <trkpt lat="46.20664" lon="4.62998">
        <ele>799.508</ele>
        <time>2021-04-03T12:17:10Z</time>
      </trkpt>
      <trkpt lat="46.20676" lon="4.62999">
        <ele>799.922</ele>
        <time>2021-04-03T12:17:12Z</time>
      </trkpt>
      <trkpt lat="46.20694" lon="4.62995">
        <ele>800.665</ele>
        <time>2021-04-03T12:17:14Z</time>
      </trkpt>
      <trkpt lat="46.20712" lon="4.62993">
        <ele>801.824</ele>
        <time>2021-04-03T12:17:16Z</time>
      </trkpt>
      <trkpt lat="46.20729" lon="4.62995">
        <ele>802.426</ele>
        <time>2021-04-03T12:17:18Z</time>
      </trkpt>
      <trkpt lat="46.20744" lon="4.62995">
        <ele>802.438</ele>
        <time>2021-04-03T12:17:20Z</time>
      </trkpt>
      <trkpt lat="46.20758" lon="4.62996">
        <ele>802.684</ele>
        <time>2021-04-03T12:17:22Z</time>
      </trkpt>
      <trkpt lat="46.20773" lon="4.62998">
        <ele>803.511</ele>
        <time>2021-04-03T12:17:24Z</time>
      </trkpt>
      <trkpt lat="46.20784" lon="4.62992">
        <ele>804.698</ele>
        <time>2021-04-03T12:17:26Z</time>
      </trkpt>
      <trkpt lat="46.20795" lon="4.62984">
        <ele>805.679</ele>
        <time>2021-04-03T12:17:28Z</time>
      </trkpt>
      <trkpt lat="46.20812" lon="4.62983">
        <ele>805.605</ele>
        <time>2021-04-03T12:17:30Z</time>
      </trkpt>
      <trkpt lat="46.20832" lon="4.62983">
        <ele>805.425</ele>
        <time>2021-04-03T12:17:32Z</time>
      </trkpt>
      <trkpt lat="46.20849" lon="4.62982">
        <ele>804.708</ele>
        <time>2021-04-03T12:17:34Z</time>
      </trkpt>
      <trkpt lat="46.20865" lon="4.62982">
        <ele>803.483</ele>
        <time>2021-04-03T12:17:36Z</time>
      </trkpt>
      <trkpt lat="46.20881" lon="4.62987">
        <ele>801.796</ele>
        <time>2021-04-03T12:17:38Z</time>
      </trkpt>
      <trkpt lat="46.20899" lon="4.62991">
        <ele>800.045</ele>
        <time>2021-04-03T12:17:40Z</time>
      </trkpt>
      <trkpt lat="46.20916" lon="4.6299">
        <ele>799.067</ele>
        <time>2021-04-03T12:17:42Z</time>
      </trkpt>
      <trkpt lat="46.20932" lon="4.62988">
        <ele>798.219</ele>
        <time>2021-04-03T12:17:44Z</time>
      </trkpt>
      <trkpt lat="46.20945" lon="4.62986">
        <ele>794.255</ele>
        <time>2021-04-03T12:17:46Z</time>
      </trkpt>
      <trkpt lat="46.2096" lon="4.62983">
        <ele>790.872</ele>
        <time>2021-04-03T12:17:48Z</time>
      </trkpt>
      <trkpt lat="46.20976" lon="4.62986">
        <ele>789.139</ele>
        <time>2021-04-03T12:17:50Z</time>
      </trkpt>
      <trkpt lat="46.20992" lon="4.62993">
        <ele>788.461</ele>
        <time>2021-04-03T12:17:52Z</time>
      </trkpt>
      <trkpt lat="46.21007" lon="4.63">
        <ele>788.321</ele>
        <time>2021-04-03T12:17:54Z</time>
      </trkpt>
      <trkpt lat="46.2102" lon="4.63005">
        <ele>788.113</ele>
        <time>2021-04-03T12:17:56Z</time>
      </trkpt>
      <trkpt lat="46.21034" lon="4.62995">
        <ele>788.008</ele>
        <time>2021-04-03T12:17:58Z</time>
      </trkpt>
      <trkpt lat="46.21045" lon="4.6298">
        <ele>785.022</ele>
        <time>2021-04-03T12:18:00Z</time>
      </trkpt>
      <trkpt lat="46.21056" lon="4.62961">
        <ele>784.775</ele>
        <time>2021-04-03T12:18:02Z</time>
      </trkpt>
      <trkpt lat="46.21067" lon="4.62945">
        <ele>785.144</ele>
        <time>2021-04-03T12:18:04Z</time>
      </trkpt>
      <trkpt lat="46.21078" lon="4.62932">
        <ele>784.736</ele>
        <time>2021-04-03T12:18:06Z</time>
      </trkpt>
      <trkpt lat="46.21089" lon="4.62918">
        <ele>783.658</ele>
        <time>2021-04-03T12:18:08Z</time>
      </trkpt>
      <trkpt lat="46.211" lon="4.62904">
        <ele>782.244</ele>
        <time>2021-04-03T12:18:10Z</time>
      </trkpt>
      <trkpt lat="46.2111" lon="4.6289">
        <ele>780.691</ele>
        <time>2021-04-03T12:18:12Z</time>
      </trkpt>
      <trkpt lat="46.21118" lon="4.62882">
        <ele>778.918</ele>
        <time>2021-04-03T12:18:14Z</time>
      </trkpt>
      <trkpt lat="46.21126" lon="4.62878">
        <ele>777.364</ele>
        <time>2021-04-03T12:18:16Z</time>
      </trkpt>
      <trkpt lat="46.2113" lon="4.62881">
        <ele>775.906</ele>
        <time>2021-04-03T12:18:18Z</time>
      </trkpt>
      <trkpt lat="46.21134" lon="4.62889">
        <ele>774.216</ele>
        <time>2021-04-03T12:18:58Z</time>
      </trkpt>
      <trkpt lat="46.2114" lon="4.62899">
        <ele>772.908</ele>
        <time>2021-04-03T12:19:00Z</time>
      </trkpt>
      <trkpt lat="46.21151" lon="4.62911">
        <ele>772.152</ele>
        <time>2021-04-03T12:19:02Z</time>
      </trkpt>
      <trkpt lat="46.21168" lon="4.62919">
        <ele>771.715</ele>
        <time>2021-04-03T12:19:04Z</time>
      </trkpt>
      <trkpt lat="46.21187" lon="4.62928">
        <ele>771.134</ele>
        <time>2021-04-03T12:19:06Z</time>
      </trkpt>
      <trkpt lat="46.21203" lon="4.6294">
        <ele>770.586</ele>
        <time>2021-04-03T12:19:08Z</time>
      </trkpt>
      <trkpt lat="46.21218" lon="4.62954">
        <ele>766.568</ele>
        <time>2021-04-03T12:19:10Z</time>
      </trkpt>
      <trkpt lat="46.21236" lon="4.6297">
        <ele>763.864</ele>
        <time>2021-04-03T12:19:12Z</time>
      </trkpt>
      <trkpt lat="46.21254" lon="4.62986">
        <ele>762.831</ele>
        <time>2021-04-03T12:19:14Z</time>
      </trkpt>
      <trkpt lat="46.21272" lon="4.63001">
        <ele>760.628</ele>
        <time>2021-04-03T12:19:16Z</time>
      </trkpt>
      <trkpt lat="46.21288" lon="4.63013">
        <ele>759.461</ele>
        <time>2021-04-03T12:19:18Z</time>
      </trkpt>
      <trkpt lat="46.21304" lon="4.63022">
        <ele>758.021</ele>
        <time>2021-04-03T12:19:20Z</time>
      </trkpt>
      <trkpt lat="46.21323" lon="4.63024">
        <ele>756.813</ele>
        <time>2021-04-03T12:19:22Z</time>
      </trkpt>
      <trkpt lat="46.21342" lon="4.63021">
        <ele>755.108</ele>
        <time>2021-04-03T12:19:24Z</time>
      </trkpt>
      <trkpt lat="46.21363" lon="4.63017">
        <ele>753.952</ele>
        <time>2021-04-03T12:19:26Z</time>
      </trkpt>
      <trkpt lat="46.21383" lon="4.63012">
        <ele>753.155</ele>
        <time>2021-04-03T12:19:28Z</time>
      </trkpt>
      <trkpt lat="46.214" lon="4.63008">
        <ele>752.524</ele>
        <time>2021-04-03T12:19:30Z</time>
      </trkpt>
      <trkpt lat="46.21415" lon="4.63006">
        <ele>750.476</ele>
        <time>2021-04-03T12:19:32Z</time>
      </trkpt>
      <trkpt lat="46.21429" lon="4.62994">
        <ele>748.738</ele>
        <time>2021-04-03T12:19:34Z</time>
      </trkpt>
      <trkpt lat="46.21445" lon="4.62974">
        <ele>747.474</ele>
        <time>2021-04-03T12:19:36Z</time>
      </trkpt>
      <trkpt lat="46.21462" lon="4.6295">
        <ele>747.621</ele>
        <time>2021-04-03T12:19:38Z</time>
      </trkpt>
      <trkpt lat="46.21476" lon="4.62921">
        <ele>748.028</ele>
        <time>2021-04-03T12:19:40Z</time>
      </trkpt>
      <trkpt lat="46.21496" lon="4.62881">
        <ele>748.259</ele>
        <time>2021-04-03T12:19:43Z</time>
      </trkpt>
      <trkpt lat="46.21501" lon="4.62874">
        <ele>748.303</ele>
        <time>2021-04-03T12:19:44Z</time>
      </trkpt>
      <trkpt lat="46.2151" lon="4.62864">
        <ele>748.423</ele>
        <time>2021-04-03T12:19:46Z</time>
      </trkpt>
      <trkpt lat="46.21517" lon="4.62859">
        <ele>748.408</ele>
        <time>2021-04-03T12:19:48Z</time>
      </trkpt>
      <trkpt lat="46.21523" lon="4.62845">
        <ele>748.421</ele>
        <time>2021-04-03T12:19:58Z</time>
      </trkpt>
      <trkpt lat="46.21533" lon="4.62828">
        <ele>752.464</ele>
        <time>2021-04-03T12:20:00Z</time>
      </trkpt>
      <trkpt lat="46.21542" lon="4.62812">
        <ele>755.363</ele>
        <time>2021-04-03T12:20:02Z</time>
      </trkpt>
      <trkpt lat="46.21554" lon="4.62786">
        <ele>757.195</ele>
        <time>2021-04-03T12:20:04Z</time>
      </trkpt>
      <trkpt lat="46.21567" lon="4.62754">
        <ele>758.817</ele>
        <time>2021-04-03T12:20:06Z</time>
      </trkpt>
      <trkpt lat="46.21578" lon="4.6272">
        <ele>761.773</ele>
        <time>2021-04-03T12:20:08Z</time>
      </trkpt>
      <trkpt lat="46.21587" lon="4.62691">
        <ele>763.62</ele>
        <time>2021-04-03T12:20:10Z</time>
      </trkpt>
      <trkpt lat="46.21602" lon="4.62665">
        <ele>764.427</ele>
        <time>2021-04-03T12:20:12Z</time>
      </trkpt>
      <trkpt lat="46.2162" lon="4.62639">
        <ele>764.541</ele>
        <time>2021-04-03T12:20:14Z</time>
      </trkpt>
      <trkpt lat="46.21629" lon="4.62616">
        <ele>764.681</ele>
        <time>2021-04-03T12:20:16Z</time>
      </trkpt>
      <trkpt lat="46.21637" lon="4.62605">
        <ele>765.009</ele>
        <time>2021-04-03T12:20:18Z</time>
      </trkpt>
      <trkpt lat="46.21648" lon="4.62601">
        <ele>766.208</ele>
        <time>2021-04-03T12:20:20Z</time>
      </trkpt>
      <trkpt lat="46.21658" lon="4.62599">
        <ele>767.02</ele>
        <time>2021-04-03T12:20:22Z</time>
      </trkpt>
      <trkpt lat="46.21668" lon="4.62599">
        <ele>767.623</ele>
        <time>2021-04-03T12:20:24Z</time>
      </trkpt>
      <trkpt lat="46.21673" lon="4.62601">
        <ele>768.772</ele>
        <time>2021-04-03T12:20:26Z</time>
      </trkpt>
      <trkpt lat="46.21679" lon="4.62602">
        <ele>769.344</ele>
        <time>2021-04-03T12:20:28Z</time>
      </trkpt>
      <trkpt lat="46.21684" lon="4.62605">
        <ele>769.746</ele>
        <time>2021-04-03T12:20:29Z</time>
      </trkpt>
      <trkpt lat="46.21701" lon="4.62611">
        <ele>771.152</ele>
        <time>2021-04-03T12:20:32Z</time>
      </trkpt>
      <trkpt lat="46.21713" lon="4.62613">
        <ele>772.189</ele>
        <time>2021-04-03T12:20:34Z</time>
      </trkpt>
      <trkpt lat="46.21724" lon="4.62613">
        <ele>772.856</ele>
        <time>2021-04-03T12:20:36Z</time>
      </trkpt>
      <trkpt lat="46.21734" lon="4.62615">
        <ele>773.189</ele>
        <time>2021-04-03T12:20:38Z</time>
      </trkpt>
      <trkpt lat="46.21744" lon="4.62616">
        <ele>772.606</ele>
        <time>2021-04-03T12:20:40Z</time>
      </trkpt>
      <trkpt lat="46.21757" lon="4.62617">
        <ele>771.826</ele>
        <time>2021-04-03T12:20:42Z</time>
      </trkpt>
      <trkpt lat="46.21768" lon="4.62617">
        <ele>771.008</ele>
        <time>2021-04-03T12:20:44Z</time>
      </trkpt>
      <trkpt lat="46.21773" lon="4.62617">
        <ele>770.694</ele>
        <time>2021-04-03T12:20:46Z</time>
      </trkpt>
      <trkpt lat="46.21782" lon="4.62616">
        <ele>770.237</ele>
        <time>2021-04-03T12:20:48Z</time>
      </trkpt>
      <trkpt lat="46.21791" lon="4.62615">
        <ele>770.446</ele>
        <time>2021-04-03T12:20:50Z</time>
      </trkpt>
      <trkpt lat="46.21813" lon="4.6261">
        <ele>770.348</ele>
        <time>2021-04-03T12:20:54Z</time>
      </trkpt>
      <trkpt lat="46.21825" lon="4.62616">
        <ele>770.67</ele>
        <time>2021-04-03T12:20:56Z</time>
      </trkpt>
      <trkpt lat="46.21841" lon="4.62619">
        <ele>771.216</ele>
        <time>2021-04-03T12:20:58Z</time>
      </trkpt>
      <trkpt lat="46.21855" lon="4.62622">
        <ele>771.423</ele>
        <time>2021-04-03T12:21:00Z</time>
      </trkpt>
      <trkpt lat="46.21869" lon="4.62624">
        <ele>771.29</ele>
        <time>2021-04-03T12:21:02Z</time>
      </trkpt>
      <trkpt lat="46.21882" lon="4.6263">
        <ele>771.275</ele>
        <time>2021-04-03T12:21:04Z</time>
      </trkpt>
      <trkpt lat="46.21897" lon="4.62635">
        <ele>771.428</ele>
        <time>2021-04-03T12:21:06Z</time>
      </trkpt>
      <trkpt lat="46.2191" lon="4.62641">
        <ele>771.32</ele>
        <time>2021-04-03T12:21:08Z</time>
      </trkpt>
      <trkpt lat="46.21922" lon="4.62644">
        <ele>768.808</ele>
        <time>2021-04-03T12:21:10Z</time>
      </trkpt>
      <trkpt lat="46.21933" lon="4.62643">
        <ele>767.043</ele>
        <time>2021-04-03T12:21:12Z</time>
      </trkpt>
      <trkpt lat="46.21943" lon="4.62637">
        <ele>765.986</ele>
        <time>2021-04-03T12:21:14Z</time>
      </trkpt>
      <trkpt lat="46.21953" lon="4.62632">
        <ele>765.075</ele>
        <time>2021-04-03T12:21:16Z</time>
      </trkpt>
      <trkpt lat="46.21963" lon="4.62626">
        <ele>764.617</ele>
        <time>2021-04-03T12:21:18Z</time>
      </trkpt>
      <trkpt lat="46.21971" lon="4.62623">
        <ele>765.049</ele>
        <time>2021-04-03T12:21:20Z</time>
      </trkpt>
      <trkpt lat="46.2198" lon="4.62623">
        <ele>765.665</ele>
        <time>2021-04-03T12:21:24Z</time>
      </trkpt>
      <trkpt lat="46.21987" lon="4.62623">
        <ele>766.032</ele>
        <time>2021-04-03T12:21:26Z</time>
      </trkpt>
      <trkpt lat="46.22002" lon="4.62623">
        <ele>766.219</ele>
        <time>2021-04-03T12:21:28Z</time>
      </trkpt>
      <trkpt lat="46.2202" lon="4.62628">
        <ele>762.265</ele>
        <time>2021-04-03T12:21:30Z</time>
      </trkpt>
      <trkpt lat="46.2204" lon="4.62632">
        <ele>758.268</ele>
        <time>2021-04-03T12:21:32Z</time>
      </trkpt>
      <trkpt lat="46.22056" lon="4.62631">
        <ele>756.214</ele>
        <time>2021-04-03T12:21:34Z</time>
      </trkpt>
      <trkpt lat="46.2207" lon="4.62627">
        <ele>757.308</ele>
        <time>2021-04-03T12:21:36Z</time>
      </trkpt>
      <trkpt lat="46.22081" lon="4.62622">
        <ele>757.962</ele>
        <time>2021-04-03T12:21:38Z</time>
      </trkpt>
      <trkpt lat="46.22094" lon="4.62621">
        <ele>758.325</ele>
        <time>2021-04-03T12:21:40Z</time>
      </trkpt>
      <trkpt lat="46.22111" lon="4.6262">
        <ele>758.574</ele>
        <time>2021-04-03T12:21:42Z</time>
      </trkpt>
      <trkpt lat="46.22126" lon="4.62613">
        <ele>758.626</ele>
        <time>2021-04-03T12:21:44Z</time>
      </trkpt>
      <trkpt lat="46.22139" lon="4.626">
        <ele>758.798</ele>
        <time>2021-04-03T12:21:46Z</time>
      </trkpt>
      <trkpt lat="46.22155" lon="4.62585">
        <ele>754.754</ele>
        <time>2021-04-03T12:21:48Z</time>
      </trkpt>
      <trkpt lat="46.22169" lon="4.62575">
        <ele>750.781</ele>
        <time>2021-04-03T12:21:50Z</time>
      </trkpt>
      <trkpt lat="46.22181" lon="4.62574">
        <ele>751.098</ele>
        <time>2021-04-03T12:21:52Z</time>
      </trkpt>
      <trkpt lat="46.22187" lon="4.62578">
        <ele>751.377</ele>
        <time>2021-04-03T12:21:54Z</time>
      </trkpt>
      <trkpt lat="46.22202" lon="4.62583">
        <ele>752.961</ele>
        <time>2021-04-03T12:21:56Z</time>
      </trkpt>
      <trkpt lat="46.22257" lon="4.62578">
        <ele>748.927</ele>
        <time>2021-04-03T12:22:03Z</time>
      </trkpt>
      <trkpt lat="46.22267" lon="4.62575">
        <ele>744.908</ele>
        <time>2021-04-03T12:22:05Z</time>
      </trkpt>
      <trkpt lat="46.22274" lon="4.62568">
        <ele>740.973</ele>
        <time>2021-04-03T12:22:07Z</time>
      </trkpt>
      <trkpt lat="46.22283" lon="4.6257">
        <ele>736.986</ele>
        <time>2021-04-03T12:22:11Z</time>
      </trkpt>
      <trkpt lat="46.22294" lon="4.62569">
        <ele>732.965</ele>
        <time>2021-04-03T12:22:13Z</time>
      </trkpt>
      <trkpt lat="46.223" lon="4.62567">
        <ele>728.977</ele>
        <time>2021-04-03T12:22:15Z</time>
      </trkpt>
      <trkpt lat="46.22315" lon="4.62565">
        <ele>724.999</ele>
        <time>2021-04-03T12:22:17Z</time>
      </trkpt>
      <trkpt lat="46.22325" lon="4.62565">
        <ele>720.925</ele>
        <time>2021-04-03T12:22:19Z</time>
      </trkpt>
      <trkpt lat="46.22329" lon="4.62562">
        <ele>716.912</ele>
        <time>2021-04-03T12:22:21Z</time>
      </trkpt>
      <trkpt lat="46.22338" lon="4.6256">
        <ele>712.939</ele>
        <time>2021-04-03T12:22:23Z</time>
      </trkpt>
      <trkpt lat="46.22343" lon="4.6256">
        <ele>708.927</ele>
        <time>2021-04-03T12:22:25Z</time>
      </trkpt>
      <trkpt lat="46.22351" lon="4.62557">
        <ele>705.868</ele>
        <time>2021-04-03T12:22:27Z</time>
      </trkpt>
      <trkpt lat="46.22355" lon="4.62558">
        <ele>703.914</ele>
        <time>2021-04-03T12:22:28Z</time>
      </trkpt>
      <trkpt lat="46.22361" lon="4.62556">
        <ele>702.808</ele>
        <time>2021-04-03T12:22:31Z</time>
      </trkpt>
      <trkpt lat="46.22365" lon="4.6255">
        <ele>702.178</ele>
        <time>2021-04-03T12:22:34Z</time>
      </trkpt>
      <trkpt lat="46.22368" lon="4.62545">
        <ele>701.761</ele>
        <time>2021-04-03T12:23:01Z</time>
      </trkpt>
      <trkpt lat="46.22372" lon="4.62548">
        <ele>701.54</ele>
        <time>2021-04-03T12:23:31Z</time>
      </trkpt>
      <trkpt lat="46.22375" lon="4.62541">
        <ele>701.422</ele>
        <time>2021-04-03T12:23:55Z</time>
      </trkpt>
      <trkpt lat="46.22376" lon="4.62534">
        <ele>701.374</ele>
        <time>2021-04-03T12:23:59Z</time>
      </trkpt>
      <trkpt lat="46.2238" lon="4.62529">
        <ele>705.39</ele>
        <time>2021-04-03T12:24:03Z</time>
      </trkpt>
      <trkpt lat="46.22383" lon="4.62522">
        <ele>709.317</ele>
        <time>2021-04-03T12:24:21Z</time>
      </trkpt>
      <trkpt lat="46.22381" lon="4.62512">
        <ele>713.354</ele>
        <time>2021-04-03T12:24:23Z</time>
      </trkpt>
      <trkpt lat="46.22374" lon="4.62504">
        <ele>717.358</ele>
        <time>2021-04-03T12:24:25Z</time>
      </trkpt>
      <trkpt lat="46.2237" lon="4.62498">
        <ele>721.352</ele>
        <time>2021-04-03T12:24:27Z</time>
      </trkpt>
      <trkpt lat="46.22367" lon="4.62492">
        <ele>725.317</ele>
        <time>2021-04-03T12:24:29Z</time>
      </trkpt>
      <trkpt lat="46.22365" lon="4.62486">
        <ele>729.308</ele>
        <time>2021-04-03T12:24:41Z</time>
      </trkpt>
      <trkpt lat="46.22368" lon="4.62474">
        <ele>733.371</ele>
        <time>2021-04-03T12:24:53Z</time>
      </trkpt>
      <trkpt lat="46.22369" lon="4.62467">
        <ele>737.344</ele>
        <time>2021-04-03T12:24:55Z</time>
      </trkpt>
      <trkpt lat="46.2237" lon="4.62455">
        <ele>741.343</ele>
        <time>2021-04-03T12:24:59Z</time>
      </trkpt>
      <trkpt lat="46.22375" lon="4.62451">
        <ele>745.325</ele>
        <time>2021-04-03T12:25:01Z</time>
      </trkpt>
      <trkpt lat="46.22378" lon="4.62446">
        <ele>749.347</ele>
        <time>2021-04-03T12:25:03Z</time>
      </trkpt>
      <trkpt lat="46.22383" lon="4.62441">
        <ele>753.383</ele>
        <time>2021-04-03T12:25:05Z</time>
      </trkpt>
      <trkpt lat="46.22397" lon="4.6244">
        <ele>757.38</ele>
        <time>2021-04-03T12:25:07Z</time>
      </trkpt>
      <trkpt lat="46.2241" lon="4.6244">
        <ele>761.317</ele>
        <time>2021-04-03T12:25:09Z</time>
      </trkpt>
      <trkpt lat="46.2242" lon="4.62441">
        <ele>765.363</ele>
        <time>2021-04-03T12:25:11Z</time>
      </trkpt>
      <trkpt lat="46.22425" lon="4.62438">
        <ele>769.344</ele>
        <time>2021-04-03T12:25:13Z</time>
      </trkpt>
      <trkpt lat="46.2244" lon="4.62428">
        <ele>773.318</ele>
        <time>2021-04-03T12:25:15Z</time>
      </trkpt>
      <trkpt lat="46.22454" lon="4.62422">
        <ele>777.308</ele>
        <time>2021-04-03T12:25:17Z</time>
      </trkpt>
      <trkpt lat="46.22468" lon="4.62421">
        <ele>779.722</ele>
        <time>2021-04-03T12:25:19Z</time>
      </trkpt>
      <trkpt lat="46.22482" lon="4.62419">
        <ele>783.365</ele>
        <time>2021-04-03T12:25:21Z</time>
      </trkpt>
      <trkpt lat="46.22495" lon="4.62416">
        <ele>784.554</ele>
        <time>2021-04-03T12:25:23Z</time>
      </trkpt>
      <trkpt lat="46.22507" lon="4.62415">
        <ele>784.576</ele>
        <time>2021-04-03T12:25:25Z</time>
      </trkpt>
      <trkpt lat="46.2252" lon="4.62417">
        <ele>782.958</ele>
        <time>2021-04-03T12:25:27Z</time>
      </trkpt>
      <trkpt lat="46.22532" lon="4.62419">
        <ele>781.764</ele>
        <time>2021-04-03T12:25:29Z</time>
      </trkpt>
      <trkpt lat="46.2255" lon="4.62427">
        <ele>778.551</ele>
        <time>2021-04-03T12:25:31Z</time>
      </trkpt>
      <trkpt lat="46.22564" lon="4.62432">
        <ele>777.038</ele>
        <time>2021-04-03T12:25:33Z</time>
      </trkpt>
      <trkpt lat="46.22583" lon="4.62432">
        <ele>777.311</ele>
        <time>2021-04-03T12:25:35Z</time>
      </trkpt>
      <trkpt lat="46.22599" lon="4.6243">
        <ele>776.821</ele>
        <time>2021-04-03T12:25:37Z</time>
      </trkpt>
      <trkpt lat="46.22614" lon="4.62424">
        <ele>775.203</ele>
        <time>2021-04-03T12:25:39Z</time>
      </trkpt>
      <trkpt lat="46.22629" lon="4.62415">
        <ele>773.908</ele>
        <time>2021-04-03T12:25:41Z</time>
      </trkpt>
      <trkpt lat="46.22642" lon="4.62399">
        <ele>772.727</ele>
        <time>2021-04-03T12:25:43Z</time>
      </trkpt>
      <trkpt lat="46.22654" lon="4.62389">
        <ele>770.89</ele>
        <time>2021-04-03T12:25:45Z</time>
      </trkpt>
      <trkpt lat="46.22671" lon="4.62382">
        <ele>768.929</ele>
        <time>2021-04-03T12:25:47Z</time>
      </trkpt>
      <trkpt lat="46.22688" lon="4.62379">
        <ele>767.521</ele>
        <time>2021-04-03T12:25:49Z</time>
      </trkpt>
      <trkpt lat="46.22704" lon="4.62382">
        <ele>766.063</ele>
        <time>2021-04-03T12:25:51Z</time>
      </trkpt>
      <trkpt lat="46.22718" lon="4.62383">
        <ele>765.129</ele>
        <time>2021-04-03T12:25:53Z</time>
      </trkpt>
      <trkpt lat="46.22733" lon="4.62383">
        <ele>761.116</ele>
        <time>2021-04-03T12:25:55Z</time>
      </trkpt>
      <trkpt lat="46.22747" lon="4.62383">
        <ele>757.183</ele>
        <time>2021-04-03T12:25:57Z</time>
      </trkpt>
      <trkpt lat="46.22757" lon="4.62383">
        <ele>753.178</ele>
        <time>2021-04-03T12:25:59Z</time>
      </trkpt>
      <trkpt lat="46.22768" lon="4.62382">
        <ele>754.133</ele>
        <time>2021-04-03T12:26:01Z</time>
      </trkpt>
      <trkpt lat="46.2278" lon="4.62378">
        <ele>754.826</ele>
        <time>2021-04-03T12:26:03Z</time>
      </trkpt>
      <trkpt lat="46.22791" lon="4.62373">
        <ele>754.008</ele>
        <time>2021-04-03T12:26:05Z</time>
      </trkpt>
      <trkpt lat="46.22803" lon="4.62367">
        <ele>752.373</ele>
        <time>2021-04-03T12:26:07Z</time>
      </trkpt>
      <trkpt lat="46.22815" lon="4.62359">
        <ele>749.736</ele>
        <time>2021-04-03T12:26:09Z</time>
      </trkpt>
      <trkpt lat="46.22826" lon="4.62352">
        <ele>747.825</ele>
        <time>2021-04-03T12:26:11Z</time>
      </trkpt>
      <trkpt lat="46.22837" lon="4.62344">
        <ele>744.597</ele>
        <time>2021-04-03T12:26:13Z</time>
      </trkpt>
      <trkpt lat="46.22846" lon="4.62332">
        <ele>742.179</ele>
        <time>2021-04-03T12:26:15Z</time>
      </trkpt>
      <trkpt lat="46.22852" lon="4.62321">
        <ele>739.445</ele>
        <time>2021-04-03T12:26:17Z</time>
      </trkpt>
      <trkpt lat="46.22861" lon="4.62311">
        <ele>737.172</ele>
        <time>2021-04-03T12:26:19Z</time>
      </trkpt>
      <trkpt lat="46.22871" lon="4.62306">
        <ele>733.389</ele>
        <time>2021-04-03T12:26:21Z</time>
      </trkpt>
      <trkpt lat="46.22884" lon="4.62306">
        <ele>730.446</ele>
        <time>2021-04-03T12:26:23Z</time>
      </trkpt>
      <trkpt lat="46.22899" lon="4.62313">
        <ele>728.488</ele>
        <time>2021-04-03T12:26:25Z</time>
      </trkpt>
      <trkpt lat="46.22912" lon="4.62322">
        <ele>725.816</ele>
        <time>2021-04-03T12:26:27Z</time>
      </trkpt>
      <trkpt lat="46.22923" lon="4.62333">
        <ele>723.708</ele>
        <time>2021-04-03T12:26:29Z</time>
      </trkpt>
      <trkpt lat="46.22933" lon="4.62345">
        <ele>721.91</ele>
        <time>2021-04-03T12:26:31Z</time>
      </trkpt>
      <trkpt lat="46.22946" lon="4.62355">
        <ele>720.193</ele>
        <time>2021-04-03T12:26:33Z</time>
      </trkpt>
      <trkpt lat="46.22955" lon="4.62367">
        <ele>717.552</ele>
        <time>2021-04-03T12:26:35Z</time>
      </trkpt>
      <trkpt lat="46.22965" lon="4.62379">
        <ele>715.444</ele>
        <time>2021-04-03T12:26:37Z</time>
      </trkpt>
      <trkpt lat="46.22977" lon="4.62395">
        <ele>712.656</ele>
        <time>2021-04-03T12:26:39Z</time>
      </trkpt>
      <trkpt lat="46.22991" lon="4.62411">
        <ele>709.242</ele>
        <time>2021-04-03T12:26:41Z</time>
      </trkpt>
      <trkpt lat="46.23004" lon="4.62425">
        <ele>706.669</ele>
        <time>2021-04-03T12:26:43Z</time>
      </trkpt>
      <trkpt lat="46.23016" lon="4.62435">
        <ele>705.116</ele>
        <time>2021-04-03T12:26:45Z</time>
      </trkpt>
      <trkpt lat="46.23029" lon="4.62446">
        <ele>702.632</ele>
        <time>2021-04-03T12:26:47Z</time>
      </trkpt>
      <trkpt lat="46.23041" lon="4.62455">
        <ele>700.692</ele>
        <time>2021-04-03T12:26:49Z</time>
      </trkpt>
      <trkpt lat="46.2305" lon="4.62458">
        <ele>699.811</ele>
        <time>2021-04-03T12:26:51Z</time>
      </trkpt>
      <trkpt lat="46.23054" lon="4.62453">
        <ele>699.308</ele>
        <time>2021-04-03T12:27:16Z</time>
      </trkpt>
      <trkpt lat="46.23058" lon="4.62458">
        <ele>695.359</ele>
        <time>2021-04-03T12:27:18Z</time>
      </trkpt>
      <trkpt lat="46.23071" lon="4.6247">
        <ele>694.642</ele>
        <time>2021-04-03T12:27:21Z</time>
      </trkpt>
      <trkpt lat="46.23081" lon="4.62469">
        <ele>693.511</ele>
        <time>2021-04-03T12:27:23Z</time>
      </trkpt>
      <trkpt lat="46.23095" lon="4.62465">
        <ele>692.943</ele>
        <time>2021-04-03T12:27:25Z</time>
      </trkpt>
      <trkpt lat="46.23111" lon="4.62459">
        <ele>692.665</ele>
        <time>2021-04-03T12:27:27Z</time>
      </trkpt>
      <trkpt lat="46.23131" lon="4.62446">
        <ele>692.461</ele>
        <time>2021-04-03T12:27:29Z</time>
      </trkpt>
      <trkpt lat="46.23152" lon="4.62429">
        <ele>692.398</ele>
        <time>2021-04-03T12:27:31Z</time>
      </trkpt>
      <trkpt lat="46.23171" lon="4.62408">
        <ele>688.375</ele>
        <time>2021-04-03T12:27:33Z</time>
      </trkpt>
      <trkpt lat="46.23188" lon="4.62395">
        <ele>684.364</ele>
        <time>2021-04-03T12:27:35Z</time>
      </trkpt>
      <trkpt lat="46.23207" lon="4.62384">
        <ele>680.306</ele>
        <time>2021-04-03T12:27:37Z</time>
      </trkpt>
      <trkpt lat="46.23229" lon="4.62372">
        <ele>676.716</ele>
        <time>2021-04-03T12:27:39Z</time>
      </trkpt>
      <trkpt lat="46.2325" lon="4.6236">
        <ele>677.108</ele>
        <time>2021-04-03T12:27:41Z</time>
      </trkpt>
      <trkpt lat="46.2327" lon="4.62347">
        <ele>678.922</ele>
        <time>2021-04-03T12:27:43Z</time>
      </trkpt>
      <trkpt lat="46.23288" lon="4.62332">
        <ele>681.315</ele>
        <time>2021-04-03T12:27:45Z</time>
      </trkpt>
      <trkpt lat="46.23308" lon="4.62316">
        <ele>682.984</ele>
        <time>2021-04-03T12:27:47Z</time>
      </trkpt>
      <trkpt lat="46.2333" lon="4.623">
        <ele>682.726</ele>
        <time>2021-04-03T12:27:49Z</time>
      </trkpt>
      <trkpt lat="46.23352" lon="4.62287">
        <ele>682.358</ele>
        <time>2021-04-03T12:27:51Z</time>
      </trkpt>
      <trkpt lat="46.23373" lon="4.62275">
        <ele>683.134</ele>
        <time>2021-04-03T12:27:53Z</time>
      </trkpt>
      <trkpt lat="46.23392" lon="4.6226">
        <ele>683.121</ele>
        <time>2021-04-03T12:27:55Z</time>
      </trkpt>
      <trkpt lat="46.23413" lon="4.62249">
        <ele>683.348</ele>
        <time>2021-04-03T12:27:57Z</time>
      </trkpt>
      <trkpt lat="46.23433" lon="4.62243">
        <ele>684.185</ele>
        <time>2021-04-03T12:27:59Z</time>
      </trkpt>
      <trkpt lat="46.23451" lon="4.62245">
        <ele>686.989</ele>
        <time>2021-04-03T12:28:01Z</time>
      </trkpt>
      <trkpt lat="46.23466" lon="4.62248">
        <ele>688.717</ele>
        <time>2021-04-03T12:28:03Z</time>
      </trkpt>
      <trkpt lat="46.2348" lon="4.62257">
        <ele>689.708</ele>
        <time>2021-04-03T12:28:05Z</time>
      </trkpt>
      <trkpt lat="46.23493" lon="4.62261">
        <ele>689.164</ele>
        <time>2021-04-03T12:28:07Z</time>
      </trkpt>
      <trkpt lat="46.23511" lon="4.62268">
        <ele>689.577</ele>
        <time>2021-04-03T12:28:09Z</time>
      </trkpt>
      <trkpt lat="46.23535" lon="4.62286">
        <ele>689.046</ele>
        <time>2021-04-03T12:28:11Z</time>
      </trkpt>
      <trkpt lat="46.23559" lon="4.62303">
        <ele>690.128</ele>
        <time>2021-04-03T12:28:13Z</time>
      </trkpt>
      <trkpt lat="46.23575" lon="4.62314">
        <ele>691.01</ele>
        <time>2021-04-03T12:28:15Z</time>
      </trkpt>
      <trkpt lat="46.23594" lon="4.62328">
        <ele>691.636</ele>
        <time>2021-04-03T12:28:17Z</time>
      </trkpt>
      <trkpt lat="46.23613" lon="4.62339">
        <ele>691.963</ele>
        <time>2021-04-03T12:28:19Z</time>
      </trkpt>
      <trkpt lat="46.23631" lon="4.62342">
        <ele>692.21</ele>
        <time>2021-04-03T12:28:21Z</time>
      </trkpt>
      <trkpt lat="46.23653" lon="4.62341">
        <ele>693.757</ele>
        <time>2021-04-03T12:28:23Z</time>
      </trkpt>
      <trkpt lat="46.23674" lon="4.6234">
        <ele>694.7</ele>
        <time>2021-04-03T12:28:25Z</time>
      </trkpt>
      <trkpt lat="46.23692" lon="4.62341">
        <ele>694.82</ele>
        <time>2021-04-03T12:28:27Z</time>
      </trkpt>
      <trkpt lat="46.23708" lon="4.6234">
        <ele>693.808</ele>
        <time>2021-04-03T12:28:29Z</time>
      </trkpt>
      <trkpt lat="46.23725" lon="4.62329">
        <ele>692.391</ele>
        <time>2021-04-03T12:28:31Z</time>
      </trkpt>
      <trkpt lat="46.23743" lon="4.6232">
        <ele>690.914</ele>
        <time>2021-04-03T12:28:33Z</time>
      </trkpt>
      <trkpt lat="46.23759" lon="4.62312">
        <ele>689.023</ele>
        <time>2021-04-03T12:28:35Z</time>
      </trkpt>
      <trkpt lat="46.23776" lon="4.62298">
        <ele>687.365</ele>
        <time>2021-04-03T12:28:37Z</time>
      </trkpt>
      <trkpt lat="46.23795" lon="4.62284">
        <ele>686.457</ele>
        <time>2021-04-03T12:28:39Z</time>
      </trkpt>
      <trkpt lat="46.23813" lon="4.62269">
        <ele>685.933</ele>
        <time>2021-04-03T12:28:41Z</time>
      </trkpt>
      <trkpt lat="46.2383" lon="4.6226">
        <ele>684.87</ele>
        <time>2021-04-03T12:28:43Z</time>
      </trkpt>
      <trkpt lat="46.23846" lon="4.62255">
        <ele>684.057</ele>
        <time>2021-04-03T12:28:45Z</time>
      </trkpt>
      <trkpt lat="46.23861" lon="4.62248">
        <ele>682.671</ele>
        <time>2021-04-03T12:28:47Z</time>
      </trkpt>
      <trkpt lat="46.23875" lon="4.62241">
        <ele>681.341</ele>
        <time>2021-04-03T12:28:49Z</time>
      </trkpt>
      <trkpt lat="46.2389" lon="4.62235">
        <ele>679.115</ele>
        <time>2021-04-03T12:28:51Z</time>
      </trkpt>
      <trkpt lat="46.23906" lon="4.62235">
        <ele>676.908</ele>
        <time>2021-04-03T12:28:53Z</time>
      </trkpt>
      <trkpt lat="46.23922" lon="4.6224">
        <ele>675.453</ele>
        <time>2021-04-03T12:28:55Z</time>
      </trkpt>
      <trkpt lat="46.23937" lon="4.62243">
        <ele>672.896</ele>
        <time>2021-04-03T12:28:57Z</time>
      </trkpt>
      <trkpt lat="46.23951" lon="4.62241">
        <ele>670.185</ele>
        <time>2021-04-03T12:28:59Z</time>
      </trkpt>
      <trkpt lat="46.23963" lon="4.62236">
        <ele>668.717</ele>
        <time>2021-04-03T12:29:01Z</time>
      </trkpt>
      <trkpt lat="46.2397" lon="4.62233">
        <ele>667.079</ele>
        <time>2021-04-03T12:29:03Z</time>
      </trkpt>
      <trkpt lat="46.23965" lon="4.62233">
        <ele>665.925</ele>
        <time>2021-04-03T12:29:21Z</time>
      </trkpt>
      <trkpt lat="46.23968" lon="4.62226">
        <ele>665.052</ele>
        <time>2021-04-03T12:29:25Z</time>
      </trkpt>
      <trkpt lat="46.23968" lon="4.62208">
        <ele>663.649</ele>
        <time>2021-04-03T12:29:27Z</time>
      </trkpt>
      <trkpt lat="46.23969" lon="4.6218">
        <ele>662.938</ele>
        <time>2021-04-03T12:29:29Z</time>
      </trkpt>
      <trkpt lat="46.23972" lon="4.6215">
        <ele>662.27</ele>
        <time>2021-04-03T12:29:31Z</time>
      </trkpt>
      <trkpt lat="46.23976" lon="4.62126">
        <ele>660.917</ele>
        <time>2021-04-03T12:29:33Z</time>
      </trkpt>
      <trkpt lat="46.23979" lon="4.62106">
        <ele>659.708</ele>
        <time>2021-04-03T12:29:35Z</time>
      </trkpt>
      <trkpt lat="46.23983" lon="4.62093">
        <ele>659.359</ele>
        <time>2021-04-03T12:29:37Z</time>
      </trkpt>
      <trkpt lat="46.23976" lon="4.62096">
        <ele>658.892</ele>
        <time>2021-04-03T12:29:45Z</time>
      </trkpt>
      <trkpt lat="46.23974" lon="4.6211">
        <ele>658.621</ele>
        <time>2021-04-03T12:29:47Z</time>
      </trkpt>
      <trkpt lat="46.23969" lon="4.6213">
        <ele>659.253</ele>
        <time>2021-04-03T12:29:49Z</time>
      </trkpt>
      <trkpt lat="46.23965" lon="4.62155">
        <ele>660.055</ele>
        <time>2021-04-03T12:29:51Z</time>
      </trkpt>
      <trkpt lat="46.23963" lon="4.62182">
        <ele>660.651</ele>
        <time>2021-04-03T12:29:53Z</time>
      </trkpt>
      <trkpt lat="46.23964" lon="4.62203">
        <ele>661.598</ele>
        <time>2021-04-03T12:29:55Z</time>
      </trkpt>
      <trkpt lat="46.23965" lon="4.62217">
        <ele>662.545</ele>
        <time>2021-04-03T12:29:57Z</time>
      </trkpt>
      <trkpt lat="46.23958" lon="4.62218">
        <ele>664.349</ele>
        <time>2021-04-03T12:30:01Z</time>
      </trkpt>
      <trkpt lat="46.23951" lon="4.6221">
        <ele>665.002</ele>
        <time>2021-04-03T12:30:03Z</time>
      </trkpt>
      <trkpt lat="46.23938" lon="4.62195">
        <ele>665.322</ele>
        <time>2021-04-03T12:30:05Z</time>
      </trkpt>
      <trkpt lat="46.23918" lon="4.62171">
        <ele>665.908</ele>
        <time>2021-04-03T12:30:07Z</time>
      </trkpt>
      <trkpt lat="46.23897" lon="4.62145">
        <ele>666.48</ele>
        <time>2021-04-03T12:30:09Z</time>
      </trkpt>
      <trkpt lat="46.23878" lon="4.62124">
        <ele>666.713</ele>
        <time>2021-04-03T12:30:11Z</time>
      </trkpt>
      <trkpt lat="46.2386" lon="4.62111">
        <ele>667.392</ele>
        <time>2021-04-03T12:30:13Z</time>
      </trkpt>
      <trkpt lat="46.23842" lon="4.62102">
        <ele>667.714</ele>
        <time>2021-04-03T12:30:15Z</time>
      </trkpt>
      <trkpt lat="46.2383" lon="4.62097">
        <ele>666.436</ele>
        <time>2021-04-03T12:30:17Z</time>
      </trkpt>
      <trkpt lat="46.23813" lon="4.62098">
        <ele>665.652</ele>
        <time>2021-04-03T12:30:19Z</time>
      </trkpt>
      <trkpt lat="46.23796" lon="4.62108">
        <ele>665.559</ele>
        <time>2021-04-03T12:30:21Z</time>
      </trkpt>
      <trkpt lat="46.23776" lon="4.62119">
        <ele>665.816</ele>
        <time>2021-04-03T12:30:23Z</time>
      </trkpt>
      <trkpt lat="46.23753" lon="4.62133">
        <ele>667.028</ele>
        <time>2021-04-03T12:30:25Z</time>
      </trkpt>
      <trkpt lat="46.23729" lon="4.62144">
        <ele>667.289</ele>
        <time>2021-04-03T12:30:27Z</time>
      </trkpt>
      <trkpt lat="46.23709" lon="4.62154">
        <ele>666.317</ele>
        <time>2021-04-03T12:30:29Z</time>
      </trkpt>
      <trkpt lat="46.23689" lon="4.62159">
        <ele>665.708</ele>
        <time>2021-04-03T12:30:31Z</time>
      </trkpt>
      <trkpt lat="46.2367" lon="4.62159">
        <ele>663.688</ele>
        <time>2021-04-03T12:30:33Z</time>
      </trkpt>
      <trkpt lat="46.23649" lon="4.62155">
        <ele>661.661</ele>
        <time>2021-04-03T12:30:35Z</time>
      </trkpt>
      <trkpt lat="46.23628" lon="4.62148">
        <ele>660.41</ele>
        <time>2021-04-03T12:30:37Z</time>
      </trkpt>
      <trkpt lat="46.2361" lon="4.62138">
        <ele>659.452</ele>
        <time>2021-04-03T12:30:39Z</time>
      </trkpt>
      <trkpt lat="46.23595" lon="4.62124">
        <ele>658.414</ele>
        <time>2021-04-03T12:30:41Z</time>
      </trkpt>
      <trkpt lat="46.23583" lon="4.62105">
        <ele>658.62</ele>
        <time>2021-04-03T12:30:43Z</time>
      </trkpt>
      <trkpt lat="46.23573" lon="4.62084">
        <ele>658.437</ele>
        <time>2021-04-03T12:30:45Z</time>
      </trkpt>
      <trkpt lat="46.23565" lon="4.62057">
        <ele>658.744</ele>
        <time>2021-04-03T12:30:47Z</time>
      </trkpt>
      <trkpt lat="46.23564" lon="4.62024">
        <ele>658.862</ele>
        <time>2021-04-03T12:30:49Z</time>
      </trkpt>
      <trkpt lat="46.23569" lon="4.61991">
        <ele>657.783</ele>
        <time>2021-04-03T12:30:51Z</time>
      </trkpt>
      <trkpt lat="46.23571" lon="4.61963">
        <ele>657.011</ele>
        <time>2021-04-03T12:30:53Z</time>
      </trkpt>
      <trkpt lat="46.23567" lon="4.61937">
        <ele>653.008</ele>
        <time>2021-04-03T12:30:55Z</time>
      </trkpt>
      <trkpt lat="46.23557" lon="4.61908">
        <ele>649.022</ele>
        <time>2021-04-03T12:30:57Z</time>
      </trkpt>
      <trkpt lat="46.23545" lon="4.61881">
        <ele>645.075</ele>
        <time>2021-04-03T12:30:59Z</time>
      </trkpt>
      <trkpt lat="46.23533" lon="4.61855">
        <ele>641.854</ele>
        <time>2021-04-03T12:31:01Z</time>
      </trkpt>
      <trkpt lat="46.23513" lon="4.61826">
        <ele>640.446</ele>
        <time>2021-04-03T12:31:03Z</time>
      </trkpt>
      <trkpt lat="46.23492" lon="4.61799">
        <ele>641.788</ele>
        <time>2021-04-03T12:31:05Z</time>
      </trkpt>
      <trkpt lat="46.23474" lon="4.61768">
        <ele>642.664</ele>
        <time>2021-04-03T12:31:07Z</time>
      </trkpt>
      <trkpt lat="46.23456" lon="4.6174">
        <ele>646.631</ele>
        <time>2021-04-03T12:31:09Z</time>
      </trkpt>
      <trkpt lat="46.23442" lon="4.61719">
        <ele>650.688</ele>
        <time>2021-04-03T12:31:11Z</time>
      </trkpt>
      <trkpt lat="46.23429" lon="4.61709">
        <ele>652.257</ele>
        <time>2021-04-03T12:31:13Z</time>
      </trkpt>
      <trkpt lat="46.23409" lon="4.61694">
        <ele>651.6</ele>
        <time>2021-04-03T12:31:15Z</time>
      </trkpt>
      <trkpt lat="46.2339" lon="4.61681">
        <ele>649.02</ele>
        <time>2021-04-03T12:31:17Z</time>
      </trkpt>
      <trkpt lat="46.23369" lon="4.61674">
        <ele>645.708</ele>
        <time>2021-04-03T12:31:19Z</time>
      </trkpt>
      <trkpt lat="46.23349" lon="4.61673">
        <ele>644.351</ele>
        <time>2021-04-03T12:31:21Z</time>
      </trkpt>
      <trkpt lat="46.23335" lon="4.61676">
        <ele>642.834</ele>
        <time>2021-04-03T12:31:23Z</time>
      </trkpt>
      <trkpt lat="46.23322" lon="4.6168">
        <ele>641.423</ele>
        <time>2021-04-03T12:31:25Z</time>
      </trkpt>
      <trkpt lat="46.23306" lon="4.61688">
        <ele>639.285</ele>
        <time>2021-04-03T12:31:27Z</time>
      </trkpt>
      <trkpt lat="46.23289" lon="4.61703">
        <ele>636.227</ele>
        <time>2021-04-03T12:31:29Z</time>
      </trkpt>
      <trkpt lat="46.23269" lon="4.61716">
        <ele>634.043</ele>
        <time>2021-04-03T12:31:31Z</time>
      </trkpt>
      <trkpt lat="46.23254" lon="4.61731">
        <ele>631.53</ele>
        <time>2021-04-03T12:31:33Z</time>
      </trkpt>
      <trkpt lat="46.23243" lon="4.61749">
        <ele>629.317</ele>
        <time>2021-04-03T12:31:35Z</time>
      </trkpt>
      <trkpt lat="46.23233" lon="4.61769">
        <ele>627.242</ele>
        <time>2021-04-03T12:31:37Z</time>
      </trkpt>
      <trkpt lat="46.23224" lon="4.61792">
        <ele>625.922</ele>
        <time>2021-04-03T12:31:39Z</time>
      </trkpt>
      <trkpt lat="46.23215" lon="4.61811">
        <ele>625.614</ele>
        <time>2021-04-03T12:31:41Z</time>
      </trkpt>
      <trkpt lat="46.23208" lon="4.61823">
        <ele>625.808</ele>
        <time>2021-04-03T12:31:43Z</time>
      </trkpt>
      <trkpt lat="46.23202" lon="4.61828">
        <ele>625.32</ele>
        <time>2021-04-03T12:31:47Z</time>
      </trkpt>
      <trkpt lat="46.23199" lon="4.61847">
        <ele>624.773</ele>
        <time>2021-04-03T12:31:51Z</time>
      </trkpt>
      <trkpt lat="46.232" lon="4.61868">
        <ele>624.962</ele>
        <time>2021-04-03T12:31:53Z</time>
      </trkpt>
      <trkpt lat="46.23207" lon="4.61892">
        <ele>625.864</ele>
        <time>2021-04-03T12:31:55Z</time>
      </trkpt>
      <trkpt lat="46.23216" lon="4.61919">
        <ele>627.786</ele>
        <time>2021-04-03T12:31:57Z</time>
      </trkpt>
      <trkpt lat="46.23227" lon="4.61946">
        <ele>629.542</ele>
        <time>2021-04-03T12:31:59Z</time>
      </trkpt>
      <trkpt lat="46.23234" lon="4.61963">
        <ele>631.289</ele>
        <time>2021-04-03T12:32:01Z</time>
      </trkpt>
      <trkpt lat="46.23234" lon="4.61976">
        <ele>632.056</ele>
        <time>2021-04-03T12:32:03Z</time>
      </trkpt>
      <trkpt lat="46.23226" lon="4.61981">
        <ele>633.169</ele>
        <time>2021-04-03T12:32:05Z</time>
      </trkpt>
      <trkpt lat="46.23213" lon="4.61991">
        <ele>634.004</ele>
        <time>2021-04-03T12:32:07Z</time>
      </trkpt>
      <trkpt lat="46.23196" lon="4.62006">
        <ele>634.724</ele>
        <time>2021-04-03T12:32:09Z</time>
      </trkpt>
      <trkpt lat="46.23182" lon="4.62032">
        <ele>635.808</ele>
        <time>2021-04-03T12:32:11Z</time>
      </trkpt>
      <trkpt lat="46.2318" lon="4.62056">
        <ele>637.032</ele>
        <time>2021-04-03T12:32:13Z</time>
      </trkpt>
      <trkpt lat="46.23175" lon="4.62086">
        <ele>638.345</ele>
        <time>2021-04-03T12:32:15Z</time>
      </trkpt>
      <trkpt lat="46.23165" lon="4.62122">
        <ele>639.294</ele>
        <time>2021-04-03T12:32:17Z</time>
      </trkpt>
      <trkpt lat="46.23156" lon="4.62154">
        <ele>640.226</ele>
        <time>2021-04-03T12:32:19Z</time>
      </trkpt>
      <trkpt lat="46.23146" lon="4.62184">
        <ele>642.198</ele>
        <time>2021-04-03T12:32:21Z</time>
      </trkpt>
      <trkpt lat="46.23132" lon="4.62214">
        <ele>643.334</ele>
        <time>2021-04-03T12:32:23Z</time>
      </trkpt>
      <trkpt lat="46.23119" lon="4.62245">
        <ele>645.451</ele>
        <time>2021-04-03T12:32:25Z</time>
      </trkpt>
      <trkpt lat="46.23104" lon="4.62279">
        <ele>647.268</ele>
        <time>2021-04-03T12:32:27Z</time>
      </trkpt>
      <trkpt lat="46.2309" lon="4.62312">
        <ele>649.114</ele>
        <time>2021-04-03T12:32:29Z</time>
      </trkpt>
      <trkpt lat="46.23078" lon="4.62343">
        <ele>652.554</ele>
        <time>2021-04-03T12:32:31Z</time>
      </trkpt>
      <trkpt lat="46.23067" lon="4.62379">
        <ele>655.009</ele>
        <time>2021-04-03T12:32:33Z</time>
      </trkpt>
      <trkpt lat="46.23065" lon="4.62423">
        <ele>657.808</ele>
        <time>2021-04-03T12:32:35Z</time>
      </trkpt>
      <trkpt lat="46.23064" lon="4.62451">
        <ele>660.327</ele>
        <time>2021-04-03T12:32:37Z</time>
      </trkpt>
      <trkpt lat="46.23066" lon="4.62471">
        <ele>662.07</ele>
        <time>2021-04-03T12:32:39Z</time>
      </trkpt>
      <trkpt lat="46.23072" lon="4.62484">
        <ele>663.429</ele>
        <time>2021-04-03T12:32:41Z</time>
      </trkpt>
      <trkpt lat="46.23079" lon="4.62495">
        <ele>664.571</ele>
        <time>2021-04-03T12:32:43Z</time>
      </trkpt>
      <trkpt lat="46.23082" lon="4.62505">
        <ele>665.293</ele>
        <time>2021-04-03T12:32:45Z</time>
      </trkpt>
      <trkpt lat="46.2308" lon="4.62519">
        <ele>665.639</ele>
        <time>2021-04-03T12:32:53Z</time>
      </trkpt>
      <trkpt lat="46.23075" lon="4.62544">
        <ele>661.676</ele>
        <time>2021-04-03T12:32:55Z</time>
      </trkpt>
      <trkpt lat="46.23064" lon="4.62581">
        <ele>658.273</ele>
        <time>2021-04-03T12:32:57Z</time>
      </trkpt>
      <trkpt lat="46.23053" lon="4.62615">
        <ele>658.368</ele>
        <time>2021-04-03T12:32:59Z</time>
      </trkpt>
      <trkpt lat="46.23044" lon="4.62642">
        <ele>658.942</ele>
        <time>2021-04-03T12:33:01Z</time>
      </trkpt>
      <trkpt lat="46.23036" lon="4.62671">
        <ele>659.826</ele>
        <time>2021-04-03T12:33:03Z</time>
      </trkpt>
      <trkpt lat="46.23027" lon="4.62696">
        <ele>661.108</ele>
        <time>2021-04-03T12:33:05Z</time>
      </trkpt>
      <trkpt lat="46.23016" lon="4.62717">
        <ele>660.182</ele>
        <time>2021-04-03T12:33:07Z</time>
      </trkpt>
      <trkpt lat="46.2301" lon="4.62736">
        <ele>659.515</ele>
        <time>2021-04-03T12:33:09Z</time>
      </trkpt>
      <trkpt lat="46.23006" lon="4.62759">
        <ele>658.474</ele>
        <time>2021-04-03T12:33:11Z</time>
      </trkpt>
      <trkpt lat="46.23001" lon="4.62785">
        <ele>657.156</ele>
        <time>2021-04-03T12:33:13Z</time>
      </trkpt>
      <trkpt lat="46.22994" lon="4.62812">
        <ele>656.068</ele>
        <time>2021-04-03T12:33:15Z</time>
      </trkpt>
      <trkpt lat="46.22987" lon="4.62839">
        <ele>654.494</ele>
        <time>2021-04-03T12:33:17Z</time>
      </trkpt>
      <trkpt lat="46.2298" lon="4.62865">
        <ele>653.471</ele>
        <time>2021-04-03T12:33:19Z</time>
      </trkpt>
      <trkpt lat="46.22975" lon="4.62888">
        <ele>653.598</ele>
        <time>2021-04-03T12:33:21Z</time>
      </trkpt>
      <trkpt lat="46.2297" lon="4.629">
        <ele>653.547</ele>
        <time>2021-04-03T12:33:23Z</time>
      </trkpt>
      <trkpt lat="46.22961" lon="4.6291">
        <ele>653.029</ele>
        <time>2021-04-03T12:33:25Z</time>
      </trkpt>
      <trkpt lat="46.22951" lon="4.62918">
        <ele>652.221</ele>
        <time>2021-04-03T12:33:27Z</time>
      </trkpt>
      <trkpt lat="46.22941" lon="4.62932">
        <ele>651.908</ele>
        <time>2021-04-03T12:33:29Z</time>
      </trkpt>
      <trkpt lat="46.22924" lon="4.62951">
        <ele>651.79</ele>
        <time>2021-04-03T12:33:32Z</time>
      </trkpt>
      <trkpt lat="46.22916" lon="4.62952">
        <ele>651.653</ele>
        <time>2021-04-03T12:33:33Z</time>
      </trkpt>
      <trkpt lat="46.22904" lon="4.62953">
        <ele>651.582</ele>
        <time>2021-04-03T12:33:35Z</time>
      </trkpt>
      <trkpt lat="46.229" lon="4.62955">
        <ele>651.564</ele>
        <time>2021-04-03T12:33:37Z</time>
      </trkpt>
      <trkpt lat="46.22887" lon="4.62955">
        <ele>647.516</ele>
        <time>2021-04-03T12:33:39Z</time>
      </trkpt>
      <trkpt lat="46.22875" lon="4.62955">
        <ele>643.592</ele>
        <time>2021-04-03T12:33:41Z</time>
      </trkpt>
      <trkpt lat="46.22864" lon="4.62956">
        <ele>639.529</ele>
        <time>2021-04-03T12:33:43Z</time>
      </trkpt>
      <trkpt lat="46.22859" lon="4.62957">
        <ele>637.476</ele>
        <time>2021-04-03T12:33:45Z</time>
      </trkpt>
      <trkpt lat="46.22846" lon="4.62959">
        <ele>636.747</ele>
        <time>2021-04-03T12:33:47Z</time>
      </trkpt>
      <trkpt lat="46.22834" lon="4.62957">
        <ele>636.529</ele>
        <time>2021-04-03T12:33:49Z</time>
      </trkpt>
      <trkpt lat="46.22822" lon="4.62955">
        <ele>636.321</ele>
        <time>2021-04-03T12:33:51Z</time>
      </trkpt>
      <trkpt lat="46.22812" lon="4.62954">
        <ele>635.908</ele>
        <time>2021-04-03T12:33:53Z</time>
      </trkpt>
      <trkpt lat="46.22803" lon="4.62955">
        <ele>635.19</ele>
        <time>2021-04-03T12:33:55Z</time>
      </trkpt>
      <trkpt lat="46.22798" lon="4.62957">
        <ele>636.083</ele>
        <time>2021-04-03T12:33:59Z</time>
      </trkpt>
      <trkpt lat="46.228" lon="4.62966">
        <ele>638.162</ele>
        <time>2021-04-03T12:34:05Z</time>
      </trkpt>
      <trkpt lat="46.2281" lon="4.6297">
        <ele>639.094</ele>
        <time>2021-04-03T12:34:07Z</time>
      </trkpt>
      <trkpt lat="46.22819" lon="4.6298">
        <ele>639.146</ele>
        <time>2021-04-03T12:34:09Z</time>
      </trkpt>
      <trkpt lat="46.22831" lon="4.62991">
        <ele>638.922</ele>
        <time>2021-04-03T12:34:11Z</time>
      </trkpt>
      <trkpt lat="46.22846" lon="4.62998">
        <ele>638.529</ele>
        <time>2021-04-03T12:34:13Z</time>
      </trkpt>
      <trkpt lat="46.2286" lon="4.63003">
        <ele>637.926</ele>
        <time>2021-04-03T12:34:15Z</time>
      </trkpt>
      <trkpt lat="46.22871" lon="4.6301">
        <ele>636.171</ele>
        <time>2021-04-03T12:34:17Z</time>
      </trkpt>
      <trkpt lat="46.22876" lon="4.63017">
        <ele>634.841</ele>
        <time>2021-04-03T12:34:19Z</time>
      </trkpt>
      <trkpt lat="46.22886" lon="4.63026">
        <ele>633.915</ele>
        <time>2021-04-03T12:34:21Z</time>
      </trkpt>
      <trkpt lat="46.22893" lon="4.63032">
        <ele>633.208</ele>
        <time>2021-04-03T12:34:23Z</time>
      </trkpt>
      <trkpt lat="46.22905" lon="4.63041">
        <ele>633.043</ele>
        <time>2021-04-03T12:34:25Z</time>
      </trkpt>
      <trkpt lat="46.22915" lon="4.63047">
        <ele>632.496</ele>
        <time>2021-04-03T12:34:27Z</time>
      </trkpt>
      <trkpt lat="46.22926" lon="4.63051">
        <ele>632.265</ele>
        <time>2021-04-03T12:34:29Z</time>
      </trkpt>
      <trkpt lat="46.22935" lon="4.63056">
        <ele>631.737</ele>
        <time>2021-04-03T12:34:31Z</time>
      </trkpt>
      <trkpt lat="46.22946" lon="4.63063">
        <ele>631.359</ele>
        <time>2021-04-03T12:34:33Z</time>
      </trkpt>
      <trkpt lat="46.22959" lon="4.63075">
        <ele>631.195</ele>
        <time>2021-04-03T12:34:35Z</time>
      </trkpt>
      <trkpt lat="46.22969" lon="4.63094">
        <ele>630.082</ele>
        <time>2021-04-03T12:34:37Z</time>
      </trkpt>
      <trkpt lat="46.22974" lon="4.63115">
        <ele>629.129</ele>
        <time>2021-04-03T12:34:39Z</time>
      </trkpt>
      <trkpt lat="46.22968" lon="4.63133">
        <ele>625.538</ele>
        <time>2021-04-03T12:34:41Z</time>
      </trkpt>
      <trkpt lat="46.22966" lon="4.63144">
        <ele>623.27</ele>
        <time>2021-04-03T12:34:43Z</time>
      </trkpt>
      <trkpt lat="46.22962" lon="4.63144">
        <ele>621.817</ele>
        <time>2021-04-03T12:34:58Z</time>
      </trkpt>
      <trkpt lat="46.22967" lon="4.63153">
        <ele>621.008</ele>
        <time>2021-04-03T12:35:06Z</time>
      </trkpt>
      <trkpt lat="46.22971" lon="4.63156">
        <ele>620.569</ele>
        <time>2021-04-03T12:35:07Z</time>
      </trkpt>
      <trkpt lat="46.22978" lon="4.63158">
        <ele>620.322</ele>
        <time>2021-04-03T12:35:09Z</time>
      </trkpt>
      <trkpt lat="46.22984" lon="4.63157">
        <ele>619.911</ele>
        <time>2021-04-03T12:35:10Z</time>
      </trkpt>
      <trkpt lat="46.22995" lon="4.63152">
        <ele>619.473</ele>
        <time>2021-04-03T12:35:11Z</time>
      </trkpt>
      <trkpt lat="46.23007" lon="4.63132">
        <ele>618.395</ele>
        <time>2021-04-03T12:35:13Z</time>
      </trkpt>
      <trkpt lat="46.23021" lon="4.63104">
        <ele>615.031</ele>
        <time>2021-04-03T12:35:15Z</time>
      </trkpt>
      <trkpt lat="46.23035" lon="4.6307">
        <ele>613.188</ele>
        <time>2021-04-03T12:35:17Z</time>
      </trkpt>
      <trkpt lat="46.23046" lon="4.63046">
        <ele>609.935</ele>
        <time>2021-04-03T12:35:19Z</time>
      </trkpt>
      <trkpt lat="46.23057" lon="4.63025">
        <ele>606.885</ele>
        <time>2021-04-03T12:35:21Z</time>
      </trkpt>
      <trkpt lat="46.23073" lon="4.63004">
        <ele>604.789</ele>
        <time>2021-04-03T12:35:23Z</time>
      </trkpt>
      <trkpt lat="46.23089" lon="4.62987">
        <ele>602.117</ele>
        <time>2021-04-03T12:35:25Z</time>
      </trkpt>
      <trkpt lat="46.23103" lon="4.62974">
        <ele>600.608</ele>
        <time>2021-04-03T12:35:27Z</time>
      </trkpt>
      <trkpt lat="46.23113" lon="4.62962">
        <ele>599.524</ele>
        <time>2021-04-03T12:35:29Z</time>
      </trkpt>
      <trkpt lat="46.23121" lon="4.6295">
        <ele>598.887</ele>
        <time>2021-04-03T12:35:31Z</time>
      </trkpt>
      <trkpt lat="46.23127" lon="4.62939">
        <ele>598.346</ele>
        <time>2021-04-03T12:35:33Z</time>
      </trkpt>
      <trkpt lat="46.23133" lon="4.6293">
        <ele>597.298</ele>
        <time>2021-04-03T12:35:51Z</time>
      </trkpt>
      <trkpt lat="46.23129" lon="4.62932">
        <ele>595.76</ele>
        <time>2021-04-03T12:35:55Z</time>
      </trkpt>
      <trkpt lat="46.23121" lon="4.62944">
        <ele>594.326</ele>
        <time>2021-04-03T12:35:57Z</time>
      </trkpt>
      <trkpt lat="46.23112" lon="4.62959">
        <ele>593.343</ele>
        <time>2021-04-03T12:35:59Z</time>
      </trkpt>
      <trkpt lat="46.23103" lon="4.62974">
        <ele>592.96</ele>
        <time>2021-04-03T12:36:01Z</time>
      </trkpt>
      <trkpt lat="46.23093" lon="4.62987">
        <ele>592.684</ele>
        <time>2021-04-03T12:36:03Z</time>
      </trkpt>
      <trkpt lat="46.23081" lon="4.63002">
        <ele>592.507</ele>
        <time>2021-04-03T12:36:05Z</time>
      </trkpt>
      <trkpt lat="46.23068" lon="4.63015">
        <ele>593.117</ele>
        <time>2021-04-03T12:36:07Z</time>
      </trkpt>
      <trkpt lat="46.23053" lon="4.63031">
        <ele>593.808</ele>
        <time>2021-04-03T12:36:09Z</time>
      </trkpt>
      <trkpt lat="46.23033" lon="4.6306">
        <ele>594.264</ele>
        <time>2021-04-03T12:36:11Z</time>
      </trkpt>
      <trkpt lat="46.23014" lon="4.63096">
        <ele>595.367</ele>
        <time>2021-04-03T12:36:13Z</time>
      </trkpt>
      <trkpt lat="46.22977" lon="4.63166">
        <ele>598.036</ele>
        <time>2021-04-03T12:36:17Z</time>
      </trkpt>
      <trkpt lat="46.22967" lon="4.63169">
        <ele>600.278</ele>
        <time>2021-04-03T12:36:19Z</time>
      </trkpt>
      <trkpt lat="46.22958" lon="4.63162">
        <ele>602.28</ele>
        <time>2021-04-03T12:36:21Z</time>
      </trkpt>
      <trkpt lat="46.22951" lon="4.63154">
        <ele>604.016</ele>
        <time>2021-04-03T12:36:23Z</time>
      </trkpt>
      <trkpt lat="46.22943" lon="4.63148">
        <ele>605.683</ele>
        <time>2021-04-03T12:36:27Z</time>
      </trkpt>
      <trkpt lat="46.22929" lon="4.63143">
        <ele>607.98</ele>
        <time>2021-04-03T12:36:31Z</time>
      </trkpt>
      <trkpt lat="46.22925" lon="4.63135">
        <ele>610.036</ele>
        <time>2021-04-03T12:36:33Z</time>
      </trkpt>
      <trkpt lat="46.2292" lon="4.63125">
        <ele>611.317</ele>
        <time>2021-04-03T12:36:35Z</time>
      </trkpt>
      <trkpt lat="46.22917" lon="4.6312">
        <ele>612.218</ele>
        <time>2021-04-03T12:36:37Z</time>
      </trkpt>
      <trkpt lat="46.22909" lon="4.63117">
        <ele>612.708</ele>
        <time>2021-04-03T12:36:39Z</time>
      </trkpt>
      <trkpt lat="46.22902" lon="4.63114">
        <ele>613.179</ele>
        <time>2021-04-03T12:36:41Z</time>
      </trkpt>
      <trkpt lat="46.22895" lon="4.63114">
        <ele>613.112</ele>
        <time>2021-04-03T12:36:43Z</time>
      </trkpt>
      <trkpt lat="46.22888" lon="4.63116">
        <ele>613.281</ele>
        <time>2021-04-03T12:36:45Z</time>
      </trkpt>
      <trkpt lat="46.22883" lon="4.63119">
        <ele>613.593</ele>
        <time>2021-04-03T12:36:47Z</time>
      </trkpt>
      <trkpt lat="46.22876" lon="4.63127">
        <ele>613.515</ele>
        <time>2021-04-03T12:36:49Z</time>
      </trkpt>
      <trkpt lat="46.2287" lon="4.6313">
        <ele>613.561</ele>
        <time>2021-04-03T12:36:51Z</time>
      </trkpt>
      <trkpt lat="46.22863" lon="4.63131">
        <ele>613.848</ele>
        <time>2021-04-03T12:36:53Z</time>
      </trkpt>
      <trkpt lat="46.22855" lon="4.63131">
        <ele>617.045</ele>
        <time>2021-04-03T12:36:55Z</time>
      </trkpt>
      <trkpt lat="46.22863" lon="4.63131">
        <ele>617.897</ele>
        <time>2021-04-03T12:37:01Z</time>
      </trkpt>
      <trkpt lat="46.2288" lon="4.63121">
        <ele>616.723</ele>
        <time>2021-04-03T12:37:17Z</time>
      </trkpt>
      <trkpt lat="46.22884" lon="4.63115">
        <ele>616.125</ele>
        <time>2021-04-03T12:37:18Z</time>
      </trkpt>
      <trkpt lat="46.22908" lon="4.63112">
        <ele>616.708</ele>
        <time>2021-04-03T12:37:21Z</time>
      </trkpt>
      <trkpt lat="46.22919" lon="4.63129">
        <ele>616.845</ele>
        <time>2021-04-03T12:37:23Z</time>
      </trkpt>
      <trkpt lat="46.22928" lon="4.63142">
        <ele>617.538</ele>
        <time>2021-04-03T12:37:25Z</time>
      </trkpt>
      <trkpt lat="46.22955" lon="4.63147">
        <ele>616.427</ele>
        <time>2021-04-03T12:37:29Z</time>
      </trkpt>
      <trkpt lat="46.2296" lon="4.63145">
        <ele>615.869</ele>
        <time>2021-04-03T12:37:30Z</time>
      </trkpt>
      <trkpt lat="46.22963" lon="4.6314">
        <ele>615.231</ele>
        <time>2021-04-03T12:37:45Z</time>
      </trkpt>
      <trkpt lat="46.22968" lon="4.63137">
        <ele>615.057</ele>
        <time>2021-04-03T12:37:48Z</time>
      </trkpt>
      <trkpt lat="46.2297" lon="4.63131">
        <ele>614.824</ele>
        <time>2021-04-03T12:38:01Z</time>
      </trkpt>
      <trkpt lat="46.22965" lon="4.6313">
        <ele>615.991</ele>
        <time>2021-04-03T12:38:05Z</time>
      </trkpt>
      <trkpt lat="46.22959" lon="4.63124">
        <ele>615.791</ele>
        <time>2021-04-03T12:38:13Z</time>
      </trkpt>
      <trkpt lat="46.22963" lon="4.63128">
        <ele>616.381</ele>
        <time>2021-04-03T12:38:28Z</time>
      </trkpt>
      <trkpt lat="46.22967" lon="4.63123">
        <ele>616.819</ele>
        <time>2021-04-03T12:38:32Z</time>
      </trkpt>
      <trkpt lat="46.22967" lon="4.63115">
        <ele>616.908</ele>
        <time>2021-04-03T12:38:35Z</time>
      </trkpt>
      <trkpt lat="46.22971" lon="4.63118">
        <ele>617.215</ele>
        <time>2021-04-03T12:38:42Z</time>
      </trkpt>
      <trkpt lat="46.22972" lon="4.63127">
        <ele>617.298</ele>
        <time>2021-04-03T12:40:59Z</time>
      </trkpt>
      <trkpt lat="46.2297" lon="4.63135">
        <ele>616.537</ele>
        <time>2021-04-03T12:41:05Z</time>
      </trkpt>
      <trkpt lat="46.22969" lon="4.63142">
        <ele>616.379</ele>
        <time>2021-04-03T12:41:11Z</time>
      </trkpt>
      <trkpt lat="46.22968" lon="4.63149">
        <ele>616.241</ele>
        <time>2021-04-03T12:41:16Z</time>
      </trkpt>
      <trkpt lat="46.22972" lon="4.63156">
        <ele>616.867</ele>
        <time>2021-04-03T12:41:31Z</time>
      </trkpt>
      <trkpt lat="46.22976" lon="4.63158">
        <ele>616.654</ele>
        <time>2021-04-03T12:41:38Z</time>
      </trkpt>
      <trkpt lat="46.22981" lon="4.63158">
        <ele>617.761</ele>
        <time>2021-04-03T12:41:43Z</time>
      </trkpt>
      <trkpt lat="46.22976" lon="4.63159">
        <ele>617.875</ele>
        <time>2021-04-03T12:41:57Z</time>
      </trkpt>
      <trkpt lat="46.22971" lon="4.63157">
        <ele>618.228</ele>
        <time>2021-04-03T12:42:01Z</time>
      </trkpt>
      <trkpt lat="46.22967" lon="4.63162">
        <ele>618.12</ele>
        <time>2021-04-03T12:42:08Z</time>
      </trkpt>
      <trkpt lat="46.22965" lon="4.63168">
        <ele>618.008</ele>
        <time>2021-04-03T12:42:15Z</time>
      </trkpt>
      <trkpt lat="46.22961" lon="4.63173">
        <ele>617.373</ele>
        <time>2021-04-03T12:42:23Z</time>
      </trkpt>
      <trkpt lat="46.22961" lon="4.6318">
        <ele>617.366</ele>
        <time>2021-04-03T12:42:33Z</time>
      </trkpt>
      <trkpt lat="46.22962" lon="4.63186">
        <ele>616.815</ele>
        <time>2021-04-03T12:42:38Z</time>
      </trkpt>
      <trkpt lat="46.22967" lon="4.6319">
        <ele>616.047</ele>
        <time>2021-04-03T12:42:43Z</time>
      </trkpt>
      <trkpt lat="46.22964" lon="4.63183">
        <ele>615.229</ele>
        <time>2021-04-03T12:43:02Z</time>
      </trkpt>
      <trkpt lat="46.22961" lon="4.63177">
        <ele>614.615</ele>
        <time>2021-04-03T12:43:05Z</time>
      </trkpt>
      <trkpt lat="46.22961" lon="4.6317">
        <ele>614.442</ele>
        <time>2021-04-03T12:43:09Z</time>
      </trkpt>
      <trkpt lat="46.22966" lon="4.63165">
        <ele>616.039</ele>
        <time>2021-04-03T12:43:14Z</time>
      </trkpt>
      <trkpt lat="46.22969" lon="4.6316">
        <ele>617.144</ele>
        <time>2021-04-03T12:43:20Z</time>
      </trkpt>
      <trkpt lat="46.22974" lon="4.63119">
        <ele>660.205</ele>
        <time>2021-04-03T12:44:47Z</time>
      </trkpt>
      <trkpt lat="46.22971" lon="4.63128">
        <ele>637.215</ele>
        <time>2021-04-03T12:48:08Z</time>
      </trkpt>
      <trkpt lat="46.22969" lon="4.63136">
        <ele>617.708</ele>
        <time>2021-04-03T12:48:10Z</time>
      </trkpt>
      <trkpt lat="46.22969" lon="4.63145">
        <ele>617.38</ele>
        <time>2021-04-03T12:48:13Z</time>
      </trkpt>
      <trkpt lat="46.22976" lon="4.63151">
        <ele>616.473</ele>
        <time>2021-04-03T12:48:16Z</time>
      </trkpt>
      <trkpt lat="46.22983" lon="4.63156">
        <ele>615.242</ele>
        <time>2021-04-03T12:48:19Z</time>
      </trkpt>
      <trkpt lat="46.22984" lon="4.63163">
        <ele>613.934</ele>
        <time>2021-04-03T12:48:22Z</time>
      </trkpt>
      <trkpt lat="46.22982" lon="4.63171">
        <ele>613.556</ele>
        <time>2021-04-03T12:48:39Z</time>
      </trkpt>
      <trkpt lat="46.22977" lon="4.63174">
        <ele>613.052</ele>
        <time>2021-04-03T12:48:43Z</time>
      </trkpt>
      <trkpt lat="46.22973" lon="4.63179">
        <ele>614.049</ele>
        <time>2021-04-03T12:48:55Z</time>
      </trkpt>
      <trkpt lat="46.22971" lon="4.63186">
        <ele>613.326</ele>
        <time>2021-04-03T12:49:05Z</time>
      </trkpt>
      <trkpt lat="46.22971" lon="4.63194">
        <ele>612.369</ele>
        <time>2021-04-03T12:49:09Z</time>
      </trkpt>
      <trkpt lat="46.22975" lon="4.63198">
        <ele>612.404</ele>
        <time>2021-04-03T12:49:13Z</time>
      </trkpt>
      <trkpt lat="46.2298" lon="4.63204">
        <ele>611.624</ele>
        <time>2021-04-03T12:49:19Z</time>
      </trkpt>
      <trkpt lat="46.22976" lon="4.6321">
        <ele>610.808</ele>
        <time>2021-04-03T12:49:26Z</time>
      </trkpt>
      <trkpt lat="46.22977" lon="4.63217">
        <ele>608.042</ele>
        <time>2021-04-03T12:49:30Z</time>
      </trkpt>
      <trkpt lat="46.22976" lon="4.63224">
        <ele>607.045</ele>
        <time>2021-04-03T12:49:33Z</time>
      </trkpt>
      <trkpt lat="46.22975" lon="4.63231">
        <ele>606.384</ele>
        <time>2021-04-03T12:49:34Z</time>
      </trkpt>
      <trkpt lat="46.22973" lon="4.6324">
        <ele>605.366</ele>
        <time>2021-04-03T12:49:36Z</time>
      </trkpt>
      <trkpt lat="46.2297" lon="4.63252">
        <ele>604.568</ele>
        <time>2021-04-03T12:49:38Z</time>
      </trkpt>
      <trkpt lat="46.22966" lon="4.63256">
        <ele>604.644</ele>
        <time>2021-04-03T12:49:40Z</time>
      </trkpt>
      <trkpt lat="46.22961" lon="4.63264">
        <ele>604.451</ele>
        <time>2021-04-03T12:49:42Z</time>
      </trkpt>
      <trkpt lat="46.22955" lon="4.63274">
        <ele>604.078</ele>
        <time>2021-04-03T12:49:45Z</time>
      </trkpt>
      <trkpt lat="46.22953" lon="4.63281">
        <ele>603.599</ele>
        <time>2021-04-03T12:49:46Z</time>
      </trkpt>
      <trkpt lat="46.22952" lon="4.63288">
        <ele>603.007</ele>
        <time>2021-04-03T12:49:47Z</time>
      </trkpt>
      <trkpt lat="46.22952" lon="4.63298">
        <ele>602.727</ele>
        <time>2021-04-03T12:49:49Z</time>
      </trkpt>
      <trkpt lat="46.22955" lon="4.63326">
        <ele>602.808</ele>
        <time>2021-04-03T12:49:51Z</time>
      </trkpt>
      <trkpt lat="46.22955" lon="4.6334">
        <ele>602.615</ele>
        <time>2021-04-03T12:49:53Z</time>
      </trkpt>
      <trkpt lat="46.22958" lon="4.63349">
        <ele>602.598</ele>
        <time>2021-04-03T12:49:55Z</time>
      </trkpt>
      <trkpt lat="46.22961" lon="4.63355">
        <ele>603.087</ele>
        <time>2021-04-03T12:49:56Z</time>
      </trkpt>
      <trkpt lat="46.22963" lon="4.63364">
        <ele>603.489</ele>
        <time>2021-04-03T12:49:57Z</time>
      </trkpt>
      <trkpt lat="46.22963" lon="4.63372">
        <ele>603.651</ele>
        <time>2021-04-03T12:49:58Z</time>
      </trkpt>
      <trkpt lat="46.22966" lon="4.63381">
        <ele>602.917</ele>
        <time>2021-04-03T12:50:00Z</time>
      </trkpt>
      <trkpt lat="46.22968" lon="4.63391">
        <ele>603.814</ele>
        <time>2021-04-03T12:50:02Z</time>
      </trkpt>
      <trkpt lat="46.22973" lon="4.63401">
        <ele>602.691</ele>
        <time>2021-04-03T12:50:04Z</time>
      </trkpt>
      <trkpt lat="46.22978" lon="4.63411">
        <ele>601.363</ele>
        <time>2021-04-03T12:50:06Z</time>
      </trkpt>
      <trkpt lat="46.22982" lon="4.6342">
        <ele>599.544</ele>
        <time>2021-04-03T12:50:08Z</time>
      </trkpt>
      <trkpt lat="46.22985" lon="4.63426">
        <ele>598.418</ele>
        <time>2021-04-03T12:50:09Z</time>
      </trkpt>
      <trkpt lat="46.22992" lon="4.63428">
        <ele>598.308</ele>
        <time>2021-04-03T12:50:12Z</time>
      </trkpt>
      <trkpt lat="46.22998" lon="4.6343">
        <ele>598.152</ele>
        <time>2021-04-03T12:50:14Z</time>
      </trkpt>
      <trkpt lat="46.23004" lon="4.63438">
        <ele>597.555</ele>
        <time>2021-04-03T12:50:17Z</time>
      </trkpt>
      <trkpt lat="46.23005" lon="4.63446">
        <ele>595.184</ele>
        <time>2021-04-03T12:50:20Z</time>
      </trkpt>
      <trkpt lat="46.23001" lon="4.63452">
        <ele>592.956</ele>
        <time>2021-04-03T12:50:23Z</time>
      </trkpt>
      <trkpt lat="46.22999" lon="4.6346">
        <ele>591.468</ele>
        <time>2021-04-03T12:50:26Z</time>
      </trkpt>
      <trkpt lat="46.22997" lon="4.6347">
        <ele>589.954</ele>
        <time>2021-04-03T12:50:28Z</time>
      </trkpt>
      <trkpt lat="46.22992" lon="4.63479">
        <ele>588.441</ele>
        <time>2021-04-03T12:50:31Z</time>
      </trkpt>
      <trkpt lat="46.22988" lon="4.63484">
        <ele>586.318</ele>
        <time>2021-04-03T12:50:32Z</time>
      </trkpt>
      <trkpt lat="46.22985" lon="4.63489">
        <ele>584.627</ele>
        <time>2021-04-03T12:50:33Z</time>
      </trkpt>
      <trkpt lat="46.2298" lon="4.63497">
        <ele>583.668</ele>
        <time>2021-04-03T12:50:35Z</time>
      </trkpt>
      <trkpt lat="46.22976" lon="4.63505">
        <ele>582.714</ele>
        <time>2021-04-03T12:50:36Z</time>
      </trkpt>
      <trkpt lat="46.22974" lon="4.63512">
        <ele>581.908</ele>
        <time>2021-04-03T12:50:38Z</time>
      </trkpt>
      <trkpt lat="46.2297" lon="4.63523">
        <ele>581.088</ele>
        <time>2021-04-03T12:50:40Z</time>
      </trkpt>
      <trkpt lat="46.22968" lon="4.63532">
        <ele>579.851</ele>
        <time>2021-04-03T12:50:43Z</time>
      </trkpt>
      <trkpt lat="46.22964" lon="4.63538">
        <ele>578.02</ele>
        <time>2021-04-03T12:50:45Z</time>
      </trkpt>
      <trkpt lat="46.22958" lon="4.63543">
        <ele>576.552</ele>
        <time>2021-04-03T12:50:48Z</time>
      </trkpt>
      <trkpt lat="46.22956" lon="4.6355">
        <ele>574.884</ele>
        <time>2021-04-03T12:50:50Z</time>
      </trkpt>
      <trkpt lat="46.2295" lon="4.63558">
        <ele>573.94</ele>
        <time>2021-04-03T12:50:53Z</time>
      </trkpt>
      <trkpt lat="46.22945" lon="4.63562">
        <ele>572.097</ele>
        <time>2021-04-03T12:50:55Z</time>
      </trkpt>
      <trkpt lat="46.22942" lon="4.63568">
        <ele>570.674</ele>
        <time>2021-04-03T12:50:57Z</time>
      </trkpt>
      <trkpt lat="46.22944" lon="4.63576">
        <ele>570.477</ele>
        <time>2021-04-03T12:51:03Z</time>
      </trkpt>
      <trkpt lat="46.22949" lon="4.63582">
        <ele>569.961</ele>
        <time>2021-04-03T12:51:06Z</time>
      </trkpt>
      <trkpt lat="46.22954" lon="4.63582">
        <ele>568.527</ele>
        <time>2021-04-03T12:51:08Z</time>
      </trkpt>
      <trkpt lat="46.22961" lon="4.63583">
        <ele>568.008</ele>
        <time>2021-04-03T12:51:10Z</time>
      </trkpt>
      <trkpt lat="46.22969" lon="4.63581">
        <ele>567.263</ele>
        <time>2021-04-03T12:51:13Z</time>
      </trkpt>
      <trkpt lat="46.22974" lon="4.63581">
        <ele>566.766</ele>
        <time>2021-04-03T12:51:15Z</time>
      </trkpt>
      <trkpt lat="46.22982" lon="4.63581">
        <ele>565.855</ele>
        <time>2021-04-03T12:51:17Z</time>
      </trkpt>
      <trkpt lat="46.22989" lon="4.63582">
        <ele>565.187</ele>
        <time>2021-04-03T12:51:21Z</time>
      </trkpt>
      <trkpt lat="46.22987" lon="4.63589">
        <ele>564.859</ele>
        <time>2021-04-03T12:51:27Z</time>
      </trkpt>
      <trkpt lat="46.22983" lon="4.63593">
        <ele>564.235</ele>
        <time>2021-04-03T12:51:28Z</time>
      </trkpt>
      <trkpt lat="46.22978" lon="4.63598">
        <ele>563.872</ele>
        <time>2021-04-03T12:51:29Z</time>
      </trkpt>
      <trkpt lat="46.22959" lon="4.63615">
        <ele>563.469</ele>
        <time>2021-04-03T12:51:31Z</time>
      </trkpt>
      <trkpt lat="46.22944" lon="4.63619">
        <ele>562.788</ele>
        <time>2021-04-03T12:51:33Z</time>
      </trkpt>
      <trkpt lat="46.22929" lon="4.63613">
        <ele>561.924</ele>
        <time>2021-04-03T12:51:35Z</time>
      </trkpt>
      <trkpt lat="46.22913" lon="4.63598">
        <ele>560.926</ele>
        <time>2021-04-03T12:51:37Z</time>
      </trkpt>
      <trkpt lat="46.22899" lon="4.6358">
        <ele>560.008</ele>
        <time>2021-04-03T12:51:39Z</time>
      </trkpt>
      <trkpt lat="46.22887" lon="4.63563">
        <ele>559.024</ele>
        <time>2021-04-03T12:51:41Z</time>
      </trkpt>
      <trkpt lat="46.22876" lon="4.63546">
        <ele>558.337</ele>
        <time>2021-04-03T12:51:43Z</time>
      </trkpt>
      <trkpt lat="46.22863" lon="4.63527">
        <ele>557.296</ele>
        <time>2021-04-03T12:51:45Z</time>
      </trkpt>
      <trkpt lat="46.22851" lon="4.63503">
        <ele>555.528</ele>
        <time>2021-04-03T12:51:47Z</time>
      </trkpt>
      <trkpt lat="46.22842" lon="4.63479">
        <ele>554.34</ele>
        <time>2021-04-03T12:51:49Z</time>
      </trkpt>
      <trkpt lat="46.2283" lon="4.63458">
        <ele>553.436</ele>
        <time>2021-04-03T12:51:51Z</time>
      </trkpt>
      <trkpt lat="46.22815" lon="4.63442">
        <ele>551.163</ele>
        <time>2021-04-03T12:51:53Z</time>
      </trkpt>
      <trkpt lat="46.22797" lon="4.63434">
        <ele>549.96</ele>
        <time>2021-04-03T12:51:55Z</time>
      </trkpt>
      <trkpt lat="46.22778" lon="4.63432">
        <ele>549.258</ele>
        <time>2021-04-03T12:51:57Z</time>
      </trkpt>
      <trkpt lat="46.22762" lon="4.63434">
        <ele>549.052</ele>
        <time>2021-04-03T12:51:59Z</time>
      </trkpt>
      <trkpt lat="46.22756" lon="4.63435">
        <ele>548.717</ele>
        <time>2021-04-03T12:52:01Z</time>
      </trkpt>
      <trkpt lat="46.2276" lon="4.63442">
        <ele>548.508</ele>
        <time>2021-04-03T12:52:05Z</time>
      </trkpt>
      <trkpt lat="46.22775" lon="4.63445">
        <ele>549.081</ele>
        <time>2021-04-03T12:52:09Z</time>
      </trkpt>
      <trkpt lat="46.228" lon="4.63447">
        <ele>550.174</ele>
        <time>2021-04-03T12:52:13Z</time>
      </trkpt>
      <trkpt lat="46.2282" lon="4.63457">
        <ele>551.113</ele>
        <time>2021-04-03T12:52:15Z</time>
      </trkpt>
      <trkpt lat="46.22838" lon="4.6348">
        <ele>551.365</ele>
        <time>2021-04-03T12:52:17Z</time>
      </trkpt>
      <trkpt lat="46.22854" lon="4.63514">
        <ele>552.487</ele>
        <time>2021-04-03T12:52:19Z</time>
      </trkpt>
      <trkpt lat="46.22874" lon="4.63551">
        <ele>553.533</ele>
        <time>2021-04-03T12:52:21Z</time>
      </trkpt>
      <trkpt lat="46.22899" lon="4.63584">
        <ele>555.07</ele>
        <time>2021-04-03T12:52:23Z</time>
      </trkpt>
      <trkpt lat="46.22918" lon="4.6361">
        <ele>557.457</ele>
        <time>2021-04-03T12:52:25Z</time>
      </trkpt>
      <trkpt lat="46.22937" lon="4.63625">
        <ele>558.628</ele>
        <time>2021-04-03T12:52:27Z</time>
      </trkpt>
      <trkpt lat="46.22955" lon="4.63624">
        <ele>559.589</ele>
        <time>2021-04-03T12:52:29Z</time>
      </trkpt>
      <trkpt lat="46.2297" lon="4.63611">
        <ele>560.617</ele>
        <time>2021-04-03T12:52:31Z</time>
      </trkpt>
      <trkpt lat="46.22983" lon="4.63592">
        <ele>561.708</ele>
        <time>2021-04-03T12:52:33Z</time>
      </trkpt>
      <trkpt lat="46.22991" lon="4.63578">
        <ele>563.178</ele>
        <time>2021-04-03T12:52:35Z</time>
      </trkpt>
      <trkpt lat="46.22996" lon="4.63572">
        <ele>563.771</ele>
        <time>2021-04-03T12:52:39Z</time>
      </trkpt>
      <trkpt lat="46.22991" lon="4.6358">
        <ele>563.63</ele>
        <time>2021-04-03T12:53:24Z</time>
      </trkpt>
      <trkpt lat="46.22984" lon="4.63591">
        <ele>563.772</ele>
        <time>2021-04-03T12:53:25Z</time>
      </trkpt>
      <trkpt lat="46.22976" lon="4.63603">
        <ele>563.994</ele>
        <time>2021-04-03T12:53:27Z</time>
      </trkpt>
      <trkpt lat="46.22967" lon="4.63612">
        <ele>564.13</ele>
        <time>2021-04-03T12:53:29Z</time>
      </trkpt>
      <trkpt lat="46.22959" lon="4.6362">
        <ele>563.717</ele>
        <time>2021-04-03T12:53:31Z</time>
      </trkpt>
      <trkpt lat="46.22953" lon="4.63624">
        <ele>563.614</ele>
        <time>2021-04-03T12:53:35Z</time>
      </trkpt>
      <trkpt lat="46.22952" lon="4.63631">
        <ele>561.387</ele>
        <time>2021-04-03T12:53:46Z</time>
      </trkpt>
      <trkpt lat="46.22947" lon="4.63637">
        <ele>558.742</ele>
        <time>2021-04-03T12:53:49Z</time>
      </trkpt>
      <trkpt lat="46.22947" lon="4.63647">
        <ele>555.826</ele>
        <time>2021-04-03T12:53:53Z</time>
      </trkpt>
      <trkpt lat="46.22956" lon="4.63659">
        <ele>554.208</ele>
        <time>2021-04-03T12:53:59Z</time>
      </trkpt>
      <trkpt lat="46.22956" lon="4.63672">
        <ele>552.394</ele>
        <time>2021-04-03T12:54:03Z</time>
      </trkpt>
      <trkpt lat="46.22954" lon="4.63681">
        <ele>551.187</ele>
        <time>2021-04-03T12:54:05Z</time>
      </trkpt>
      <trkpt lat="46.22947" lon="4.63714">
        <ele>549.036</ele>
        <time>2021-04-03T12:54:07Z</time>
      </trkpt>
      <trkpt lat="46.22945" lon="4.63729">
        <ele>547.128</ele>
        <time>2021-04-03T12:54:09Z</time>
      </trkpt>
      <trkpt lat="46.22943" lon="4.63742">
        <ele>544.83</ele>
        <time>2021-04-03T12:54:11Z</time>
      </trkpt>
      <trkpt lat="46.22931" lon="4.63767">
        <ele>541.766</ele>
        <time>2021-04-03T12:54:15Z</time>
      </trkpt>
      <trkpt lat="46.22928" lon="4.63779">
        <ele>539.933</ele>
        <time>2021-04-03T12:54:17Z</time>
      </trkpt>
      <trkpt lat="46.22928" lon="4.63786">
        <ele>538.84</ele>
        <time>2021-04-03T12:54:18Z</time>
      </trkpt>
      <trkpt lat="46.22928" lon="4.63813">
        <ele>537.151</ele>
        <time>2021-04-03T12:54:21Z</time>
      </trkpt>
      <trkpt lat="46.22927" lon="4.6383">
        <ele>535.801</ele>
        <time>2021-04-03T12:54:23Z</time>
      </trkpt>
      <trkpt lat="46.22925" lon="4.6385">
        <ele>534.611</ele>
        <time>2021-04-03T12:54:25Z</time>
      </trkpt>
      <trkpt lat="46.22927" lon="4.6387">
        <ele>532.908</ele>
        <time>2021-04-03T12:54:27Z</time>
      </trkpt>
      <trkpt lat="46.22929" lon="4.63887">
        <ele>531.671</ele>
        <time>2021-04-03T12:54:29Z</time>
      </trkpt>
      <trkpt lat="46.22932" lon="4.63904">
        <ele>530.444</ele>
        <time>2021-04-03T12:54:31Z</time>
      </trkpt>
      <trkpt lat="46.22936" lon="4.63921">
        <ele>528.693</ele>
        <time>2021-04-03T12:54:33Z</time>
      </trkpt>
      <trkpt lat="46.22937" lon="4.63936">
        <ele>527.375</ele>
        <time>2021-04-03T12:54:35Z</time>
      </trkpt>
      <trkpt lat="46.22935" lon="4.63954">
        <ele>525.657</ele>
        <time>2021-04-03T12:54:37Z</time>
      </trkpt>
      <trkpt lat="46.22934" lon="4.63969">
        <ele>522.713</ele>
        <time>2021-04-03T12:54:39Z</time>
      </trkpt>
      <trkpt lat="46.22932" lon="4.6398">
        <ele>518.74</ele>
        <time>2021-04-03T12:54:41Z</time>
      </trkpt>
      <trkpt lat="46.2293" lon="4.63988">
        <ele>514.737</ele>
        <time>2021-04-03T12:54:43Z</time>
      </trkpt>
      <trkpt lat="46.22926" lon="4.64004">
        <ele>510.764</ele>
        <time>2021-04-03T12:54:45Z</time>
      </trkpt>
      <trkpt lat="46.22924" lon="4.64014">
        <ele>507.706</ele>
        <time>2021-04-03T12:54:47Z</time>
      </trkpt>
      <trkpt lat="46.22929" lon="4.64016">
        <ele>505.116</ele>
        <time>2021-04-03T12:54:51Z</time>
      </trkpt>
      <trkpt lat="46.22932" lon="4.6401">
        <ele>502.308</ele>
        <time>2021-04-03T12:54:57Z</time>
      </trkpt>
      <trkpt lat="46.22932" lon="4.64001">
        <ele>500.522</ele>
        <time>2021-04-03T12:54:59Z</time>
      </trkpt>
      <trkpt lat="46.22933" lon="4.63986">
        <ele>498.915</ele>
        <time>2021-04-03T12:55:01Z</time>
      </trkpt>
      <trkpt lat="46.22938" lon="4.63969">
        <ele>498.534</ele>
        <time>2021-04-03T12:55:03Z</time>
      </trkpt>
      <trkpt lat="46.22944" lon="4.63955">
        <ele>497.616</ele>
        <time>2021-04-03T12:55:05Z</time>
      </trkpt>
      <trkpt lat="46.22949" lon="4.63939">
        <ele>497.628</ele>
        <time>2021-04-03T12:55:07Z</time>
      </trkpt>
      <trkpt lat="46.2295" lon="4.63923">
        <ele>498.574</ele>
        <time>2021-04-03T12:55:09Z</time>
      </trkpt>
      <trkpt lat="46.22948" lon="4.63907">
        <ele>499.381</ele>
        <time>2021-04-03T12:55:11Z</time>
      </trkpt>
      <trkpt lat="46.22943" lon="4.63888">
        <ele>500.988</ele>
        <time>2021-04-03T12:55:13Z</time>
      </trkpt>
      <trkpt lat="46.22938" lon="4.6387">
        <ele>501.467</ele>
        <time>2021-04-03T12:55:15Z</time>
      </trkpt>
      <trkpt lat="46.22936" lon="4.63854">
        <ele>501.781</ele>
        <time>2021-04-03T12:55:17Z</time>
      </trkpt>
      <trkpt lat="46.22936" lon="4.63836">
        <ele>503.119</ele>
        <time>2021-04-03T12:55:19Z</time>
      </trkpt>
      <trkpt lat="46.22937" lon="4.63818">
        <ele>506.308</ele>
        <time>2021-04-03T12:55:21Z</time>
      </trkpt>
      <trkpt lat="46.22935" lon="4.63801">
        <ele>509.512</ele>
        <time>2021-04-03T12:55:25Z</time>
      </trkpt>
      <trkpt lat="46.22933" lon="4.63782">
        <ele>511.585</ele>
        <time>2021-04-03T12:55:27Z</time>
      </trkpt>
      <trkpt lat="46.22933" lon="4.63775">
        <ele>512.734</ele>
        <time>2021-04-03T12:55:29Z</time>
      </trkpt>
      <trkpt lat="46.22931" lon="4.63768">
        <ele>515.056</ele>
        <time>2021-04-03T12:55:47Z</time>
      </trkpt>
      <trkpt lat="46.22936" lon="4.63758">
        <ele>518.758</ele>
        <time>2021-04-03T12:55:53Z</time>
      </trkpt>
      <trkpt lat="46.2294" lon="4.63748">
        <ele>522.164</ele>
        <time>2021-04-03T12:55:55Z</time>
      </trkpt>
      <trkpt lat="46.22943" lon="4.63737">
        <ele>524.891</ele>
        <time>2021-04-03T12:55:57Z</time>
      </trkpt>
      <trkpt lat="46.22945" lon="4.63725">
        <ele>527.188</ele>
        <time>2021-04-03T12:55:59Z</time>
      </trkpt>
      <trkpt lat="46.22946" lon="4.63711">
        <ele>530.382</ele>
        <time>2021-04-03T12:56:01Z</time>
      </trkpt>
      <trkpt lat="46.22948" lon="4.63699">
        <ele>531.743</ele>
        <time>2021-04-03T12:56:03Z</time>
      </trkpt>
      <trkpt lat="46.22953" lon="4.63683">
        <ele>532.017</ele>
        <time>2021-04-03T12:56:05Z</time>
      </trkpt>
      <trkpt lat="46.22959" lon="4.63666">
        <ele>533.208</ele>
        <time>2021-04-03T12:56:07Z</time>
      </trkpt>
      <trkpt lat="46.22963" lon="4.63651">
        <ele>535.114</ele>
        <time>2021-04-03T12:56:09Z</time>
      </trkpt>
      <trkpt lat="46.22961" lon="4.63643">
        <ele>536.457</ele>
        <time>2021-04-03T12:56:11Z</time>
      </trkpt>
      <trkpt lat="46.22955" lon="4.63636">
        <ele>538.076</ele>
        <time>2021-04-03T12:56:13Z</time>
      </trkpt>
      <trkpt lat="46.22948" lon="4.6363">
        <ele>540.678</ele>
        <time>2021-04-03T12:56:15Z</time>
      </trkpt>
      <trkpt lat="46.22942" lon="4.63629">
        <ele>542.81</ele>
        <time>2021-04-03T12:56:17Z</time>
      </trkpt>
      <trkpt lat="46.22935" lon="4.63626">
        <ele>544.466</ele>
        <time>2021-04-03T12:56:21Z</time>
      </trkpt>
      <trkpt lat="46.22929" lon="4.63616">
        <ele>545.893</ele>
        <time>2021-04-03T12:56:51Z</time>
      </trkpt>
      <trkpt lat="46.22921" lon="4.63605">
        <ele>546.66</ele>
        <time>2021-04-03T12:56:53Z</time>
      </trkpt>
      <trkpt lat="46.22822" lon="4.63445">
        <ele>544.453</ele>
        <time>2021-04-03T12:57:01Z</time>
      </trkpt>
      <trkpt lat="46.22794" lon="4.63432">
        <ele>544.104</ele>
        <time>2021-04-03T12:57:03Z</time>
      </trkpt>
      <trkpt lat="46.22767" lon="4.63431">
        <ele>543.814</ele>
        <time>2021-04-03T12:57:05Z</time>
      </trkpt>
      <trkpt lat="46.22744" lon="4.63436">
        <ele>543.308</ele>
        <time>2021-04-03T12:57:07Z</time>
      </trkpt>
      <trkpt lat="46.22722" lon="4.63446">
        <ele>542.911</ele>
        <time>2021-04-03T12:57:09Z</time>
      </trkpt>
      <trkpt lat="46.22699" lon="4.63457">
        <ele>543.114</ele>
        <time>2021-04-03T12:57:11Z</time>
      </trkpt>
      <trkpt lat="46.22679" lon="4.63467">
        <ele>543.473</ele>
        <time>2021-04-03T12:57:13Z</time>
      </trkpt>
      <trkpt lat="46.22666" lon="4.63476">
        <ele>543.725</ele>
        <time>2021-04-03T12:57:15Z</time>
      </trkpt>
      <trkpt lat="46.22662" lon="4.6349">
        <ele>542.737</ele>
        <time>2021-04-03T12:57:17Z</time>
      </trkpt>
      <trkpt lat="46.22657" lon="4.63506">
        <ele>541.753</ele>
        <time>2021-04-03T12:57:19Z</time>
      </trkpt>
      <trkpt lat="46.22651" lon="4.63522">
        <ele>540.43</ele>
        <time>2021-04-03T12:57:21Z</time>
      </trkpt>
      <trkpt lat="46.22646" lon="4.63539">
        <ele>539.767</ele>
        <time>2021-04-03T12:57:23Z</time>
      </trkpt>
      <trkpt lat="46.2264" lon="4.63553">
        <ele>539.693</ele>
        <time>2021-04-03T12:57:25Z</time>
      </trkpt>
      <trkpt lat="46.22638" lon="4.63566">
        <ele>539.365</ele>
        <time>2021-04-03T12:57:27Z</time>
      </trkpt>
      <trkpt lat="46.22638" lon="4.63573">
        <ele>539.121</ele>
        <time>2021-04-03T12:57:29Z</time>
      </trkpt>
      <trkpt lat="46.22635" lon="4.63583">
        <ele>537.708</ele>
        <time>2021-04-03T12:57:31Z</time>
      </trkpt>
      <trkpt lat="46.22632" lon="4.63609">
        <ele>536.745</ele>
        <time>2021-04-03T12:57:35Z</time>
      </trkpt>
      <trkpt lat="46.2263" lon="4.6362">
        <ele>535.588</ele>
        <time>2021-04-03T12:57:37Z</time>
      </trkpt>
      <trkpt lat="46.22627" lon="4.6363">
        <ele>535.157</ele>
        <time>2021-04-03T12:57:39Z</time>
      </trkpt>
      <trkpt lat="46.22623" lon="4.63641">
        <ele>534.949</ele>
        <time>2021-04-03T12:57:41Z</time>
      </trkpt>
      <trkpt lat="46.22619" lon="4.63653">
        <ele>534.861</ele>
        <time>2021-04-03T12:57:43Z</time>
      </trkpt>
      <trkpt lat="46.22618" lon="4.63663">
        <ele>533.787</ele>
        <time>2021-04-03T12:57:45Z</time>
      </trkpt>
      <trkpt lat="46.22618" lon="4.6367">
        <ele>532.474</ele>
        <time>2021-04-03T12:57:47Z</time>
      </trkpt>
      <trkpt lat="46.22616" lon="4.63682">
        <ele>530.841</ele>
        <time>2021-04-03T12:57:49Z</time>
      </trkpt>
      <trkpt lat="46.22614" lon="4.63697">
        <ele>529.221</ele>
        <time>2021-04-03T12:57:51Z</time>
      </trkpt>
      <trkpt lat="46.22613" lon="4.63706">
        <ele>527.541</ele>
        <time>2021-04-03T12:57:53Z</time>
      </trkpt>
      <trkpt lat="46.22613" lon="4.63714">
        <ele>527.505</ele>
        <time>2021-04-03T12:58:13Z</time>
      </trkpt>
      <trkpt lat="46.2261" lon="4.63726">
        <ele>526.308</ele>
        <time>2021-04-03T12:58:15Z</time>
      </trkpt>
      <trkpt lat="46.22608" lon="4.63735">
        <ele>525.598</ele>
        <time>2021-04-03T12:58:17Z</time>
      </trkpt>
      <trkpt lat="46.22606" lon="4.63741">
        <ele>526.461</ele>
        <time>2021-04-03T12:58:29Z</time>
      </trkpt>
      <trkpt lat="46.22606" lon="4.63749">
        <ele>526.09</ele>
        <time>2021-04-03T12:59:01Z</time>
      </trkpt>
      <trkpt lat="46.22611" lon="4.6375">
        <ele>524.712</ele>
        <time>2021-04-03T12:59:11Z</time>
      </trkpt>
      <trkpt lat="46.22617" lon="4.6374">
        <ele>523.724</ele>
        <time>2021-04-03T12:59:33Z</time>
      </trkpt>
      <trkpt lat="46.22621" lon="4.63734">
        <ele>522.51</ele>
        <time>2021-04-03T12:59:35Z</time>
      </trkpt>
      <trkpt lat="46.22624" lon="4.63729">
        <ele>522.677</ele>
        <time>2021-04-03T12:59:37Z</time>
      </trkpt>
      <trkpt lat="46.22625" lon="4.63721">
        <ele>525.474</ele>
        <time>2021-04-03T12:59:47Z</time>
      </trkpt>
      <trkpt lat="46.22624" lon="4.6371">
        <ele>525.684</ele>
        <time>2021-04-03T12:59:57Z</time>
      </trkpt>
      <trkpt lat="46.22623" lon="4.637">
        <ele>525.907</ele>
        <time>2021-04-03T13:00:01Z</time>
      </trkpt>
      <trkpt lat="46.22618" lon="4.63697">
        <ele>526.717</ele>
        <time>2021-04-03T13:00:05Z</time>
      </trkpt>
      <trkpt lat="46.22619" lon="4.63691">
        <ele>527.608</ele>
        <time>2021-04-03T13:00:11Z</time>
      </trkpt>
      <trkpt lat="46.22619" lon="4.63683">
        <ele>527.294</ele>
        <time>2021-04-03T13:00:13Z</time>
      </trkpt>
      <trkpt lat="46.2262" lon="4.63672">
        <ele>526.887</ele>
        <time>2021-04-03T13:00:15Z</time>
      </trkpt>
      <trkpt lat="46.22623" lon="4.63662">
        <ele>525.876</ele>
        <time>2021-04-03T13:00:17Z</time>
      </trkpt>
      <trkpt lat="46.22626" lon="4.63649">
        <ele>526.138</ele>
        <time>2021-04-03T13:00:19Z</time>
      </trkpt>
      <trkpt lat="46.22628" lon="4.6364">
        <ele>526.37</ele>
        <time>2021-04-03T13:00:21Z</time>
      </trkpt>
      <trkpt lat="46.2263" lon="4.63632">
        <ele>526.456</ele>
        <time>2021-04-03T13:00:22Z</time>
      </trkpt>
      <trkpt lat="46.22628" lon="4.63618">
        <ele>527.613</ele>
        <time>2021-04-03T13:00:35Z</time>
      </trkpt>
      <trkpt lat="46.22631" lon="4.63608">
        <ele>528.96</ele>
        <time>2021-04-03T13:00:36Z</time>
      </trkpt>
      <trkpt lat="46.22636" lon="4.63589">
        <ele>529.048</ele>
        <time>2021-04-03T13:00:37Z</time>
      </trkpt>
      <trkpt lat="46.22639" lon="4.63573">
        <ele>531.161</ele>
        <time>2021-04-03T13:00:39Z</time>
      </trkpt>
      <trkpt lat="46.2264" lon="4.63559">
        <ele>532.317</ele>
        <time>2021-04-03T13:00:41Z</time>
      </trkpt>
      <trkpt lat="46.2264" lon="4.63551">
        <ele>533.008</ele>
        <time>2021-04-03T13:00:42Z</time>
      </trkpt>
      <trkpt lat="46.22648" lon="4.63529">
        <ele>535.05</ele>
        <time>2021-04-03T13:00:45Z</time>
      </trkpt>
      <trkpt lat="46.22657" lon="4.63508">
        <ele>537.233</ele>
        <time>2021-04-03T13:00:47Z</time>
      </trkpt>
      <trkpt lat="46.22667" lon="4.63489">
        <ele>538.212</ele>
        <time>2021-04-03T13:00:49Z</time>
      </trkpt>
      <trkpt lat="46.22674" lon="4.63479">
        <ele>538.744</ele>
        <time>2021-04-03T13:00:51Z</time>
      </trkpt>
      <trkpt lat="46.22667" lon="4.63481">
        <ele>539.246</ele>
        <time>2021-04-03T13:00:55Z</time>
      </trkpt>
      <trkpt lat="46.22646" lon="4.63497">
        <ele>539.762</ele>
        <time>2021-04-03T13:00:57Z</time>
      </trkpt>
      <trkpt lat="46.22632" lon="4.63519">
        <ele>540.179</ele>
        <time>2021-04-03T13:00:59Z</time>
      </trkpt>
      <trkpt lat="46.22622" lon="4.6354">
        <ele>540.256</ele>
        <time>2021-04-03T13:01:01Z</time>
      </trkpt>
      <trkpt lat="46.22614" lon="4.63558">
        <ele>539.982</ele>
        <time>2021-04-03T13:01:03Z</time>
      </trkpt>
      <trkpt lat="46.22605" lon="4.63574">
        <ele>539.743</ele>
        <time>2021-04-03T13:01:05Z</time>
      </trkpt>
      <trkpt lat="46.22597" lon="4.63593">
        <ele>539.217</ele>
        <time>2021-04-03T13:01:07Z</time>
      </trkpt>
      <trkpt lat="46.22588" lon="4.63615">
        <ele>538.808</ele>
        <time>2021-04-03T13:01:09Z</time>
      </trkpt>
      <trkpt lat="46.22578" lon="4.63635">
        <ele>538.694</ele>
        <time>2021-04-03T13:01:11Z</time>
      </trkpt>
      <trkpt lat="46.22567" lon="4.63653">
        <ele>538.097</ele>
        <time>2021-04-03T13:01:13Z</time>
      </trkpt>
      <trkpt lat="46.22553" lon="4.63669">
        <ele>538.046</ele>
        <time>2021-04-03T13:01:15Z</time>
      </trkpt>
      <trkpt lat="46.22535" lon="4.6368">
        <ele>537.648</ele>
        <time>2021-04-03T13:01:17Z</time>
      </trkpt>
      <trkpt lat="46.22512" lon="4.63686">
        <ele>537.11</ele>
        <time>2021-04-03T13:01:19Z</time>
      </trkpt>
      <trkpt lat="46.22489" lon="4.63694">
        <ele>536.416</ele>
        <time>2021-04-03T13:01:21Z</time>
      </trkpt>
      <trkpt lat="46.22467" lon="4.63702">
        <ele>536.073</ele>
        <time>2021-04-03T13:01:23Z</time>
      </trkpt>
      <trkpt lat="46.22446" lon="4.63705">
        <ele>535.72</ele>
        <time>2021-04-03T13:01:25Z</time>
      </trkpt>
      <trkpt lat="46.22428" lon="4.63704">
        <ele>535.114</ele>
        <time>2021-04-03T13:01:27Z</time>
      </trkpt>
      <trkpt lat="46.22412" lon="4.6371">
        <ele>534.754</ele>
        <time>2021-04-03T13:01:29Z</time>
      </trkpt>
      <trkpt lat="46.22399" lon="4.63729">
        <ele>534.009</ele>
        <time>2021-04-03T13:01:31Z</time>
      </trkpt>
      <trkpt lat="46.22387" lon="4.63752">
        <ele>533.208</ele>
        <time>2021-04-03T13:01:33Z</time>
      </trkpt>
      <trkpt lat="46.22374" lon="4.63773">
        <ele>533.417</ele>
        <time>2021-04-03T13:01:35Z</time>
      </trkpt>
      <trkpt lat="46.22362" lon="4.63791">
        <ele>533.46</ele>
        <time>2021-04-03T13:01:37Z</time>
      </trkpt>
      <trkpt lat="46.22351" lon="4.63808">
        <ele>532.799</ele>
        <time>2021-04-03T13:01:39Z</time>
      </trkpt>
      <trkpt lat="46.22339" lon="4.63826">
        <ele>531.951</ele>
        <time>2021-04-03T13:01:41Z</time>
      </trkpt>
      <trkpt lat="46.22325" lon="4.63847">
        <ele>531.173</ele>
        <time>2021-04-03T13:01:43Z</time>
      </trkpt>
      <trkpt lat="46.2231" lon="4.63868">
        <ele>529.839</ele>
        <time>2021-04-03T13:01:45Z</time>
      </trkpt>
      <trkpt lat="46.22296" lon="4.63886">
        <ele>528.966</ele>
        <time>2021-04-03T13:01:47Z</time>
      </trkpt>
      <trkpt lat="46.22286" lon="4.63902">
        <ele>528.383</ele>
        <time>2021-04-03T13:01:49Z</time>
      </trkpt>
      <trkpt lat="46.22282" lon="4.63915">
        <ele>527.989</ele>
        <time>2021-04-03T13:01:51Z</time>
      </trkpt>
      <trkpt lat="46.22283" lon="4.63931">
        <ele>526.806</ele>
        <time>2021-04-03T13:01:53Z</time>
      </trkpt>
      <trkpt lat="46.22283" lon="4.63947">
        <ele>524.626</ele>
        <time>2021-04-03T13:01:55Z</time>
      </trkpt>
      <trkpt lat="46.22288" lon="4.63965">
        <ele>522.808</ele>
        <time>2021-04-03T13:01:57Z</time>
      </trkpt>
      <trkpt lat="46.22295" lon="4.63978">
        <ele>521.474</ele>
        <time>2021-04-03T13:01:59Z</time>
      </trkpt>
      <trkpt lat="46.22306" lon="4.63988">
        <ele>520.197</ele>
        <time>2021-04-03T13:02:01Z</time>
      </trkpt>
      <trkpt lat="46.2232" lon="4.63993">
        <ele>519.286</ele>
        <time>2021-04-03T13:02:03Z</time>
      </trkpt>
      <trkpt lat="46.22336" lon="4.63991">
        <ele>518.238</ele>
        <time>2021-04-03T13:02:05Z</time>
      </trkpt>
      <trkpt lat="46.22351" lon="4.63983">
        <ele>517.49</ele>
        <time>2021-04-03T13:02:07Z</time>
      </trkpt>
      <trkpt lat="46.22363" lon="4.63967">
        <ele>516.256</ele>
        <time>2021-04-03T13:02:09Z</time>
      </trkpt>
      <trkpt lat="46.22377" lon="4.63956">
        <ele>515.253</ele>
        <time>2021-04-03T13:02:11Z</time>
      </trkpt>
      <trkpt lat="46.22392" lon="4.63947">
        <ele>514.36</ele>
        <time>2021-04-03T13:02:13Z</time>
      </trkpt>
      <trkpt lat="46.22406" lon="4.63935">
        <ele>512.819</ele>
        <time>2021-04-03T13:02:15Z</time>
      </trkpt>
      <trkpt lat="46.22421" lon="4.63924">
        <ele>511.609</ele>
        <time>2021-04-03T13:02:17Z</time>
      </trkpt>
      <trkpt lat="46.22435" lon="4.63914">
        <ele>510.619</ele>
        <time>2021-04-03T13:02:19Z</time>
      </trkpt>
      <trkpt lat="46.22451" lon="4.63906">
        <ele>509.008</ele>
        <time>2021-04-03T13:02:21Z</time>
      </trkpt>
      <trkpt lat="46.22467" lon="4.63899">
        <ele>507.497</ele>
        <time>2021-04-03T13:02:23Z</time>
      </trkpt>
      <trkpt lat="46.2248" lon="4.63894">
        <ele>505.91</ele>
        <time>2021-04-03T13:02:25Z</time>
      </trkpt>
      <trkpt lat="46.2249" lon="4.63894">
        <ele>508.339</ele>
        <time>2021-04-03T13:02:27Z</time>
      </trkpt>
      <trkpt lat="46.22494" lon="4.63897">
        <ele>508.611</ele>
        <time>2021-04-03T13:02:29Z</time>
      </trkpt>
      <trkpt lat="46.22505" lon="4.63898">
        <ele>507.473</ele>
        <time>2021-04-03T13:02:31Z</time>
      </trkpt>
      <trkpt lat="46.22515" lon="4.63904">
        <ele>505.869</ele>
        <time>2021-04-03T13:02:33Z</time>
      </trkpt>
      <trkpt lat="46.2252" lon="4.63916">
        <ele>503.696</ele>
        <time>2021-04-03T13:02:35Z</time>
      </trkpt>
      <trkpt lat="46.22526" lon="4.63933">
        <ele>500.663</ele>
        <time>2021-04-03T13:02:37Z</time>
      </trkpt>
      <trkpt lat="46.22533" lon="4.63959">
        <ele>498.348</ele>
        <time>2021-04-03T13:02:39Z</time>
      </trkpt>
      <trkpt lat="46.22541" lon="4.63982">
        <ele>496.061</ele>
        <time>2021-04-03T13:02:41Z</time>
      </trkpt>
      <trkpt lat="46.22552" lon="4.63994">
        <ele>493.317</ele>
        <time>2021-04-03T13:02:43Z</time>
      </trkpt>
      <trkpt lat="46.22565" lon="4.64004">
        <ele>490.608</ele>
        <time>2021-04-03T13:02:45Z</time>
      </trkpt>
      <trkpt lat="46.22575" lon="4.64015">
        <ele>487.84</ele>
        <time>2021-04-03T13:02:47Z</time>
      </trkpt>
      <trkpt lat="46.22586" lon="4.64027">
        <ele>484.623</ele>
        <time>2021-04-03T13:02:49Z</time>
      </trkpt>
      <trkpt lat="46.22598" lon="4.6404">
        <ele>481.472</ele>
        <time>2021-04-03T13:02:51Z</time>
      </trkpt>
      <trkpt lat="46.22611" lon="4.6405">
        <ele>478.414</ele>
        <time>2021-04-03T13:02:53Z</time>
      </trkpt>
      <trkpt lat="46.22622" lon="4.64057">
        <ele>475.916</ele>
        <time>2021-04-03T13:02:55Z</time>
      </trkpt>
      <trkpt lat="46.22629" lon="4.64066">
        <ele>473.582</ele>
        <time>2021-04-03T13:02:57Z</time>
      </trkpt>
      <trkpt lat="46.22632" lon="4.64078">
        <ele>471.629</ele>
        <time>2021-04-03T13:02:59Z</time>
      </trkpt>
      <trkpt lat="46.2263" lon="4.64084">
        <ele>469.946</ele>
        <time>2021-04-03T13:03:01Z</time>
      </trkpt>
      <trkpt lat="46.22628" lon="4.64097">
        <ele>468.212</ele>
        <time>2021-04-03T13:03:03Z</time>
      </trkpt>
      <trkpt lat="46.22622" lon="4.64112">
        <ele>466.732</ele>
        <time>2021-04-03T13:03:05Z</time>
      </trkpt>
      <trkpt lat="46.22614" lon="4.64121">
        <ele>465.405</ele>
        <time>2021-04-03T13:03:07Z</time>
      </trkpt>
      <trkpt lat="46.22612" lon="4.64128">
        <ele>463.408</ele>
        <time>2021-04-03T13:03:37Z</time>
      </trkpt>
      <trkpt lat="46.22606" lon="4.64136">
        <ele>462.137</ele>
        <time>2021-04-03T13:03:41Z</time>
      </trkpt>
      <trkpt lat="46.22599" lon="4.64145">
        <ele>461.13</ele>
        <time>2021-04-03T13:03:43Z</time>
      </trkpt>
      <trkpt lat="46.22584" lon="4.64157">
        <ele>460.329</ele>
        <time>2021-04-03T13:03:45Z</time>
      </trkpt>
      <trkpt lat="46.22564" lon="4.64167">
        <ele>459.461</ele>
        <time>2021-04-03T13:03:47Z</time>
      </trkpt>
      <trkpt lat="46.22547" lon="4.64178">
        <ele>458.233</ele>
        <time>2021-04-03T13:03:49Z</time>
      </trkpt>
      <trkpt lat="46.22534" lon="4.64197">
        <ele>456.689</ele>
        <time>2021-04-03T13:03:51Z</time>
      </trkpt>
      <trkpt lat="46.22524" lon="4.64223">
        <ele>455.176</ele>
        <time>2021-04-03T13:03:53Z</time>
      </trkpt>
      <trkpt lat="46.22517" lon="4.64251">
        <ele>453.573</ele>
        <time>2021-04-03T13:03:55Z</time>
      </trkpt>
      <trkpt lat="46.22509" lon="4.64276">
        <ele>452.434</ele>
        <time>2021-04-03T13:03:57Z</time>
      </trkpt>
      <trkpt lat="46.22501" lon="4.64298">
        <ele>451.055</ele>
        <time>2021-04-03T13:03:59Z</time>
      </trkpt>
      <trkpt lat="46.22497" lon="4.64314">
        <ele>449.01</ele>
        <time>2021-04-03T13:04:01Z</time>
      </trkpt>
      <trkpt lat="46.225" lon="4.64324">
        <ele>447.708</ele>
        <time>2021-04-03T13:04:03Z</time>
      </trkpt>
      <trkpt lat="46.22506" lon="4.64323">
        <ele>447.019</ele>
        <time>2021-04-03T13:04:05Z</time>
      </trkpt>
      <trkpt lat="46.22516" lon="4.64321">
        <ele>446.192</ele>
        <time>2021-04-03T13:04:07Z</time>
      </trkpt>
      <trkpt lat="46.2253" lon="4.64322">
        <ele>445.411</ele>
        <time>2021-04-03T13:04:09Z</time>
      </trkpt>
      <trkpt lat="46.22546" lon="4.64324">
        <ele>444.613</ele>
        <time>2021-04-03T13:04:11Z</time>
      </trkpt>
      <trkpt lat="46.22564" lon="4.64322">
        <ele>443.825</ele>
        <time>2021-04-03T13:04:13Z</time>
      </trkpt>
      <trkpt lat="46.22581" lon="4.64314">
        <ele>443.111</ele>
        <time>2021-04-03T13:04:15Z</time>
      </trkpt>
      <trkpt lat="46.22595" lon="4.64305">
        <ele>442.418</ele>
        <time>2021-04-03T13:04:17Z</time>
      </trkpt>
      <trkpt lat="46.22608" lon="4.64297">
        <ele>441.595</ele>
        <time>2021-04-03T13:04:19Z</time>
      </trkpt>
      <trkpt lat="46.2262" lon="4.64289">
        <ele>440.417</ele>
        <time>2021-04-03T13:04:21Z</time>
      </trkpt>
      <trkpt lat="46.22633" lon="4.64282">
        <ele>440.087</ele>
        <time>2021-04-03T13:04:23Z</time>
      </trkpt>
      <trkpt lat="46.22646" lon="4.64272">
        <ele>439.715</ele>
        <time>2021-04-03T13:04:25Z</time>
      </trkpt>
      <trkpt lat="46.22655" lon="4.64262">
        <ele>439.408</ele>
        <time>2021-04-03T13:04:27Z</time>
      </trkpt>
      <trkpt lat="46.22659" lon="4.64251">
        <ele>439.417</ele>
        <time>2021-04-03T13:04:29Z</time>
      </trkpt>
      <trkpt lat="46.22667" lon="4.64229">
        <ele>439.19</ele>
        <time>2021-04-03T13:04:33Z</time>
      </trkpt>
      <trkpt lat="46.22679" lon="4.6421">
        <ele>438.979</ele>
        <time>2021-04-03T13:04:35Z</time>
      </trkpt>
      <trkpt lat="46.22695" lon="4.64201">
        <ele>438.641</ele>
        <time>2021-04-03T13:04:37Z</time>
      </trkpt>
      <trkpt lat="46.2271" lon="4.642">
        <ele>438.443</ele>
        <time>2021-04-03T13:04:39Z</time>
      </trkpt>
      <trkpt lat="46.2272" lon="4.64202">
        <ele>438.399</ele>
        <time>2021-04-03T13:04:41Z</time>
      </trkpt>
      <trkpt lat="46.22721" lon="4.64212">
        <ele>438.466</ele>
        <time>2021-04-03T13:04:43Z</time>
      </trkpt>
      <trkpt lat="46.2272" lon="4.64225">
        <ele>437.013</ele>
        <time>2021-04-03T13:04:45Z</time>
      </trkpt>
      <trkpt lat="46.22714" lon="4.64244">
        <ele>435.684</ele>
        <time>2021-04-03T13:04:47Z</time>
      </trkpt>
      <trkpt lat="46.22706" lon="4.64258">
        <ele>434.107</ele>
        <time>2021-04-03T13:04:49Z</time>
      </trkpt>
      <trkpt lat="46.22697" lon="4.64262">
        <ele>432.817</ele>
        <time>2021-04-03T13:04:51Z</time>
      </trkpt>
      <trkpt lat="46.22689" lon="4.6427">
        <ele>431.608</ele>
        <time>2021-04-03T13:04:53Z</time>
      </trkpt>
      <trkpt lat="46.22684" lon="4.64281">
        <ele>430.544</ele>
        <time>2021-04-03T13:04:55Z</time>
      </trkpt>
      <trkpt lat="46.22681" lon="4.64301">
        <ele>429.097</ele>
        <time>2021-04-03T13:04:57Z</time>
      </trkpt>
      <trkpt lat="46.2268" lon="4.6433">
        <ele>427.036</ele>
        <time>2021-04-03T13:04:59Z</time>
      </trkpt>
      <trkpt lat="46.22684" lon="4.64361">
        <ele>425.498</ele>
        <time>2021-04-03T13:05:01Z</time>
      </trkpt>
      <trkpt lat="46.22689" lon="4.64389">
        <ele>424.08</ele>
        <time>2021-04-03T13:05:03Z</time>
      </trkpt>
      <trkpt lat="46.22686" lon="4.64415">
        <ele>422.716</ele>
        <time>2021-04-03T13:05:05Z</time>
      </trkpt>
      <trkpt lat="46.2268" lon="4.64435">
        <ele>422.123</ele>
        <time>2021-04-03T13:05:07Z</time>
      </trkpt>
      <trkpt lat="46.22677" lon="4.64443">
        <ele>421.41</ele>
        <time>2021-04-03T13:05:09Z</time>
      </trkpt>
      <trkpt lat="46.2268" lon="4.64467">
        <ele>420.656</ele>
        <time>2021-04-03T13:05:19Z</time>
      </trkpt>
      <trkpt lat="46.22685" lon="4.64489">
        <ele>420.159</ele>
        <time>2021-04-03T13:05:21Z</time>
      </trkpt>
      <trkpt lat="46.22689" lon="4.6451">
        <ele>419.814</ele>
        <time>2021-04-03T13:05:23Z</time>
      </trkpt>
      <trkpt lat="46.22693" lon="4.6453">
        <ele>419.708</ele>
        <time>2021-04-03T13:05:25Z</time>
      </trkpt>
      <trkpt lat="46.22697" lon="4.64551">
        <ele>419.681</ele>
        <time>2021-04-03T13:05:27Z</time>
      </trkpt>
      <trkpt lat="46.227" lon="4.6457">
        <ele>419.694</ele>
        <time>2021-04-03T13:05:29Z</time>
      </trkpt>
      <trkpt lat="46.22702" lon="4.64589">
        <ele>419.683</ele>
        <time>2021-04-03T13:05:31Z</time>
      </trkpt>
      <trkpt lat="46.22705" lon="4.64609">
        <ele>419.685</ele>
        <time>2021-04-03T13:05:33Z</time>
      </trkpt>
      <trkpt lat="46.22708" lon="4.64629">
        <ele>419.687</ele>
        <time>2021-04-03T13:05:35Z</time>
      </trkpt>
      <trkpt lat="46.22711" lon="4.64647">
        <ele>419.633</ele>
        <time>2021-04-03T13:05:37Z</time>
      </trkpt>
      <trkpt lat="46.22713" lon="4.64661">
        <ele>419.63</ele>
        <time>2021-04-03T13:05:41Z</time>
      </trkpt>
      <trkpt lat="46.22721" lon="4.64687">
        <ele>419.697</ele>
        <time>2021-04-03T13:05:45Z</time>
      </trkpt>
      <trkpt lat="46.22731" lon="4.64701">
        <ele>419.644</ele>
        <time>2021-04-03T13:05:47Z</time>
      </trkpt>
      <trkpt lat="46.22738" lon="4.64701">
        <ele>419.605</ele>
        <time>2021-04-03T13:05:49Z</time>
      </trkpt>
      <trkpt lat="46.22747" lon="4.64697">
        <ele>419.615</ele>
        <time>2021-04-03T13:05:51Z</time>
      </trkpt>
      <trkpt lat="46.22762" lon="4.64691">
        <ele>419.608</ele>
        <time>2021-04-03T13:05:53Z</time>
      </trkpt>
      <trkpt lat="46.22778" lon="4.64683">
        <ele>419.69</ele>
        <time>2021-04-03T13:05:55Z</time>
      </trkpt>
      <trkpt lat="46.2279" lon="4.64674">
        <ele>419.683</ele>
        <time>2021-04-03T13:05:57Z</time>
      </trkpt>
      <trkpt lat="46.22802" lon="4.64668">
        <ele>419.692</ele>
        <time>2021-04-03T13:05:59Z</time>
      </trkpt>
      <trkpt lat="46.22818" lon="4.64661">
        <ele>419.684</ele>
        <time>2021-04-03T13:06:01Z</time>
      </trkpt>
      <trkpt lat="46.22831" lon="4.64646">
        <ele>419.676</ele>
        <time>2021-04-03T13:06:03Z</time>
      </trkpt>
      <trkpt lat="46.2284" lon="4.64629">
        <ele>419.692</ele>
        <time>2021-04-03T13:06:05Z</time>
      </trkpt>
      <trkpt lat="46.22848" lon="4.64617">
        <ele>419.639</ele>
        <time>2021-04-03T13:06:07Z</time>
      </trkpt>
      <trkpt lat="46.22859" lon="4.64617">
        <ele>419.676</ele>
        <time>2021-04-03T13:06:09Z</time>
      </trkpt>
      <trkpt lat="46.22867" lon="4.64626">
        <ele>419.652</ele>
        <time>2021-04-03T13:06:11Z</time>
      </trkpt>
      <trkpt lat="46.22871" lon="4.64631">
        <ele>419.653</ele>
        <time>2021-04-03T13:06:15Z</time>
      </trkpt>
      <trkpt lat="46.22867" lon="4.6465">
        <ele>419.608</ele>
        <time>2021-04-03T13:06:23Z</time>
      </trkpt>
      <trkpt lat="46.22864" lon="4.64666">
        <ele>415.608</ele>
        <time>2021-04-03T13:06:25Z</time>
      </trkpt>
      <trkpt lat="46.22857" lon="4.64675">
        <ele>411.691</ele>
        <time>2021-04-03T13:06:27Z</time>
      </trkpt>
      <trkpt lat="46.22849" lon="4.64687">
        <ele>407.624</ele>
        <time>2021-04-03T13:06:29Z</time>
      </trkpt>
      <trkpt lat="46.2284" lon="4.64704">
        <ele>403.673</ele>
        <time>2021-04-03T13:06:31Z</time>
      </trkpt>
      <trkpt lat="46.22831" lon="4.64722">
        <ele>399.685</ele>
        <time>2021-04-03T13:06:33Z</time>
      </trkpt>
      <trkpt lat="46.22825" lon="4.64739">
        <ele>395.697</ele>
        <time>2021-04-03T13:06:35Z</time>
      </trkpt>
      <trkpt lat="46.22816" lon="4.64757">
        <ele>391.753</ele>
        <time>2021-04-03T13:06:37Z</time>
      </trkpt>
      <trkpt lat="46.22799" lon="4.64775">
        <ele>389.63</ele>
        <time>2021-04-03T13:06:39Z</time>
      </trkpt>
      <trkpt lat="46.22781" lon="4.64793">
        <ele>388.227</ele>
        <time>2021-04-03T13:06:41Z</time>
      </trkpt>
      <trkpt lat="46.22766" lon="4.6481">
        <ele>386.822</ele>
        <time>2021-04-03T13:06:43Z</time>
      </trkpt>
      <trkpt lat="46.22754" lon="4.64825">
        <ele>385.862</ele>
        <time>2021-04-03T13:06:45Z</time>
      </trkpt>
      <trkpt lat="46.22742" lon="4.64843">
        <ele>385.108</ele>
        <time>2021-04-03T13:06:47Z</time>
      </trkpt>
      <trkpt lat="46.22729" lon="4.64863">
        <ele>384.608</ele>
        <time>2021-04-03T13:06:49Z</time>
      </trkpt>
      <trkpt lat="46.22712" lon="4.64883">
        <ele>384.578</ele>
        <time>2021-04-03T13:06:51Z</time>
      </trkpt>
      <trkpt lat="46.22699" lon="4.649">
        <ele>384.281</ele>
        <time>2021-04-03T13:06:53Z</time>
      </trkpt>
      <trkpt lat="46.22689" lon="4.64912">
        <ele>383.68</ele>
        <time>2021-04-03T13:06:55Z</time>
      </trkpt>
      <trkpt lat="46.2268" lon="4.64915">
        <ele>382.762</ele>
        <time>2021-04-03T13:06:57Z</time>
      </trkpt>
      <trkpt lat="46.22671" lon="4.64912">
        <ele>381.374</ele>
        <time>2021-04-03T13:06:59Z</time>
      </trkpt>
      <trkpt lat="46.22668" lon="4.64917">
        <ele>380.05</ele>
        <time>2021-04-03T13:07:03Z</time>
      </trkpt>
      <trkpt lat="46.22664" lon="4.6492">
        <ele>379.387</ele>
        <time>2021-04-03T13:07:11Z</time>
      </trkpt>
      <trkpt lat="46.22659" lon="4.64932">
        <ele>379.564</ele>
        <time>2021-04-03T13:07:15Z</time>
      </trkpt>
      <trkpt lat="46.22655" lon="4.64948">
        <ele>379.838</ele>
        <time>2021-04-03T13:07:17Z</time>
      </trkpt>
      <trkpt lat="46.2265" lon="4.64964">
        <ele>380.27</ele>
        <time>2021-04-03T13:07:19Z</time>
      </trkpt>
      <trkpt lat="46.22646" lon="4.64976">
        <ele>380.117</ele>
        <time>2021-04-03T13:07:21Z</time>
      </trkpt>
      <trkpt lat="46.22637" lon="4.64992">
        <ele>380.308</ele>
        <time>2021-04-03T13:07:23Z</time>
      </trkpt>
      <trkpt lat="46.22624" lon="4.65016">
        <ele>381.179</ele>
        <time>2021-04-03T13:07:25Z</time>
      </trkpt>
      <trkpt lat="46.22612" lon="4.65036">
        <ele>382.442</ele>
        <time>2021-04-03T13:07:27Z</time>
      </trkpt>
      <trkpt lat="46.22619" lon="4.65039">
        <ele>383.341</ele>
        <time>2021-04-03T13:07:31Z</time>
      </trkpt>
      <trkpt lat="46.2263" lon="4.65033">
        <ele>383.753</ele>
        <time>2021-04-03T13:07:33Z</time>
      </trkpt>
      <trkpt lat="46.22645" lon="4.65021">
        <ele>383.715</ele>
        <time>2021-04-03T13:07:35Z</time>
      </trkpt>
      <trkpt lat="46.22659" lon="4.65011">
        <ele>385.221</ele>
        <time>2021-04-03T13:07:37Z</time>
      </trkpt>
      <trkpt lat="46.22669" lon="4.65004">
        <ele>387.348</ele>
        <time>2021-04-03T13:07:39Z</time>
      </trkpt>
      <trkpt lat="46.22681" lon="4.64995">
        <ele>388.575</ele>
        <time>2021-04-03T13:07:41Z</time>
      </trkpt>
      <trkpt lat="46.22692" lon="4.64984">
        <ele>391.221</ele>
        <time>2021-04-03T13:07:43Z</time>
      </trkpt>
      <trkpt lat="46.22693" lon="4.64996">
        <ele>393.641</ele>
        <time>2021-04-03T13:07:47Z</time>
      </trkpt>
      <trkpt lat="46.2267" lon="4.65028">
        <ele>395.905</ele>
        <time>2021-04-03T13:07:51Z</time>
      </trkpt>
      <trkpt lat="46.2266" lon="4.65046">
        <ele>397.708</ele>
        <time>2021-04-03T13:07:53Z</time>
      </trkpt>
      <trkpt lat="46.22653" lon="4.65065">
        <ele>399.448</ele>
        <time>2021-04-03T13:07:55Z</time>
      </trkpt>
      <trkpt lat="46.22645" lon="4.65081">
        <ele>400.571</ele>
        <time>2021-04-03T13:07:57Z</time>
      </trkpt>
      <trkpt lat="46.22651" lon="4.65081">
        <ele>402.46</ele>
        <time>2021-04-03T13:08:01Z</time>
      </trkpt>
      <trkpt lat="46.22658" lon="4.65079">
        <ele>403.522</ele>
        <time>2021-04-03T13:08:03Z</time>
      </trkpt>
      <trkpt lat="46.22669" lon="4.6508">
        <ele>404.874</ele>
        <time>2021-04-03T13:08:05Z</time>
      </trkpt>
      <trkpt lat="46.22682" lon="4.65084">
        <ele>407.31</ele>
        <time>2021-04-03T13:08:07Z</time>
      </trkpt>
      <trkpt lat="46.22692" lon="4.65084">
        <ele>409.997</ele>
        <time>2021-04-03T13:08:09Z</time>
      </trkpt>
      <trkpt lat="46.22698" lon="4.65099">
        <ele>413.914</ele>
        <time>2021-04-03T13:08:13Z</time>
      </trkpt>
      <trkpt lat="46.22697" lon="4.65117">
        <ele>416.482</ele>
        <time>2021-04-03T13:08:15Z</time>
      </trkpt>
      <trkpt lat="46.22693" lon="4.6513">
        <ele>418.743</ele>
        <time>2021-04-03T13:08:17Z</time>
      </trkpt>
      <trkpt lat="46.22688" lon="4.65131">
        <ele>421.317</ele>
        <time>2021-04-03T13:08:19Z</time>
      </trkpt>
      <trkpt lat="46.22684" lon="4.65132">
        <ele>422.908</ele>
        <time>2021-04-03T13:08:27Z</time>
      </trkpt>
      <trkpt lat="46.22678" lon="4.65144">
        <ele>426.714</ele>
        <time>2021-04-03T13:08:29Z</time>
      </trkpt>
      <trkpt lat="46.2267" lon="4.65161">
        <ele>430.427</ele>
        <time>2021-04-03T13:08:31Z</time>
      </trkpt>
      <trkpt lat="46.22661" lon="4.65192">
        <ele>433.196</ele>
        <time>2021-04-03T13:08:33Z</time>
      </trkpt>
      <trkpt lat="46.22648" lon="4.65234">
        <ele>434.778</ele>
        <time>2021-04-03T13:08:35Z</time>
      </trkpt>
      <trkpt lat="46.22637" lon="4.65268">
        <ele>436.26</ele>
        <time>2021-04-03T13:08:37Z</time>
      </trkpt>
      <trkpt lat="46.22624" lon="4.65294">
        <ele>439.046</ele>
        <time>2021-04-03T13:08:39Z</time>
      </trkpt>
      <trkpt lat="46.2261" lon="4.65317">
        <ele>442.033</ele>
        <time>2021-04-03T13:08:41Z</time>
      </trkpt>
      <trkpt lat="46.22602" lon="4.65338">
        <ele>443.64</ele>
        <time>2021-04-03T13:08:43Z</time>
      </trkpt>
      <trkpt lat="46.22596" lon="4.65364">
        <ele>444.841</ele>
        <time>2021-04-03T13:08:45Z</time>
      </trkpt>
      <trkpt lat="46.22589" lon="4.65392">
        <ele>446.781</ele>
        <time>2021-04-03T13:08:47Z</time>
      </trkpt>
      <trkpt lat="46.22581" lon="4.65419">
        <ele>449.909</ele>
        <time>2021-04-03T13:08:49Z</time>
      </trkpt>
      <trkpt lat="46.22576" lon="4.65439">
        <ele>452.708</ele>
        <time>2021-04-03T13:08:51Z</time>
      </trkpt>
      <trkpt lat="46.22575" lon="4.65449">
        <ele>455.36</ele>
        <time>2021-04-03T13:08:53Z</time>
      </trkpt>
      <trkpt lat="46.22569" lon="4.6546">
        <ele>458.563</ele>
        <time>2021-04-03T13:09:01Z</time>
      </trkpt>
      <trkpt lat="46.22566" lon="4.65479">
        <ele>460.722</ele>
        <time>2021-04-03T13:09:03Z</time>
      </trkpt>
      <trkpt lat="46.22565" lon="4.65496">
        <ele>462.514</ele>
        <time>2021-04-03T13:09:05Z</time>
      </trkpt>
      <trkpt lat="46.22562" lon="4.65512">
        <ele>463.676</ele>
        <time>2021-04-03T13:09:07Z</time>
      </trkpt>
      <trkpt lat="46.22561" lon="4.65528">
        <ele>463.152</ele>
        <time>2021-04-03T13:09:09Z</time>
      </trkpt>
      <trkpt lat="46.2256" lon="4.65544">
        <ele>462.389</ele>
        <time>2021-04-03T13:09:11Z</time>
      </trkpt>
      <trkpt lat="46.22559" lon="4.65564">
        <ele>461.546</ele>
        <time>2021-04-03T13:09:13Z</time>
      </trkpt>
      <trkpt lat="46.22559" lon="4.65586">
        <ele>460.499</ele>
        <time>2021-04-03T13:09:15Z</time>
      </trkpt>
      <trkpt lat="46.22558" lon="4.65616">
        <ele>460.507</ele>
        <time>2021-04-03T13:09:17Z</time>
      </trkpt>
      <trkpt lat="46.22556" lon="4.65641">
        <ele>460.927</ele>
        <time>2021-04-03T13:09:19Z</time>
      </trkpt>
      <trkpt lat="46.22553" lon="4.65659">
        <ele>460.908</ele>
        <time>2021-04-03T13:09:21Z</time>
      </trkpt>
      <trkpt lat="46.22551" lon="4.65681">
        <ele>460.535</ele>
        <time>2021-04-03T13:09:23Z</time>
      </trkpt>
      <trkpt lat="46.22554" lon="4.6571">
        <ele>460.878</ele>
        <time>2021-04-03T13:09:25Z</time>
      </trkpt>
      <trkpt lat="46.22556" lon="4.65738">
        <ele>460.517</ele>
        <time>2021-04-03T13:09:27Z</time>
      </trkpt>
      <trkpt lat="46.22555" lon="4.6576">
        <ele>459.149</ele>
        <time>2021-04-03T13:09:29Z</time>
      </trkpt>
      <trkpt lat="46.22545" lon="4.65774">
        <ele>459.731</ele>
        <time>2021-04-03T13:09:31Z</time>
      </trkpt>
      <trkpt lat="46.22531" lon="4.65789">
        <ele>459.437</ele>
        <time>2021-04-03T13:09:33Z</time>
      </trkpt>
      <trkpt lat="46.22517" lon="4.65805">
        <ele>457.954</ele>
        <time>2021-04-03T13:09:35Z</time>
      </trkpt>
      <trkpt lat="46.22506" lon="4.6582">
        <ele>457.051</ele>
        <time>2021-04-03T13:09:37Z</time>
      </trkpt>
      <trkpt lat="46.22497" lon="4.65833">
        <ele>456.018</ele>
        <time>2021-04-03T13:09:39Z</time>
      </trkpt>
      <trkpt lat="46.22492" lon="4.65854">
        <ele>455.398</ele>
        <time>2021-04-03T13:09:41Z</time>
      </trkpt>
      <trkpt lat="46.22489" lon="4.65878">
        <ele>455.117</ele>
        <time>2021-04-03T13:09:43Z</time>
      </trkpt>
      <trkpt lat="46.22492" lon="4.659">
        <ele>454.808</ele>
        <time>2021-04-03T13:09:45Z</time>
      </trkpt>
      <trkpt lat="46.22499" lon="4.65916">
        <ele>454.817</ele>
        <time>2021-04-03T13:09:47Z</time>
      </trkpt>
      <trkpt lat="46.22508" lon="4.65922">
        <ele>455.67</ele>
        <time>2021-04-03T13:09:55Z</time>
      </trkpt>
      <trkpt lat="46.22519" lon="4.65924">
        <ele>457.059</ele>
        <time>2021-04-03T13:09:57Z</time>
      </trkpt>
      <trkpt lat="46.22534" lon="4.65925">
        <ele>459.551</ele>
        <time>2021-04-03T13:09:59Z</time>
      </trkpt>
      <trkpt lat="46.22548" lon="4.65926">
        <ele>462.553</ele>
        <time>2021-04-03T13:10:01Z</time>
      </trkpt>
      <trkpt lat="46.22557" lon="4.65927">
        <ele>465.039</ele>
        <time>2021-04-03T13:10:05Z</time>
      </trkpt>
      <trkpt lat="46.22556" lon="4.65918">
        <ele>467.326</ele>
        <time>2021-04-03T13:10:33Z</time>
      </trkpt>
      <trkpt lat="46.22554" lon="4.65908">
        <ele>468.093</ele>
        <time>2021-04-03T13:10:35Z</time>
      </trkpt>
      <trkpt lat="46.22554" lon="4.65888">
        <ele>468.539</ele>
        <time>2021-04-03T13:10:37Z</time>
      </trkpt>
      <trkpt lat="46.22559" lon="4.65863">
        <ele>468.901</ele>
        <time>2021-04-03T13:10:39Z</time>
      </trkpt>
      <trkpt lat="46.22565" lon="4.65842">
        <ele>469.421</ele>
        <time>2021-04-03T13:10:41Z</time>
      </trkpt>
      <trkpt lat="46.22572" lon="4.65828">
        <ele>469.908</ele>
        <time>2021-04-03T13:10:43Z</time>
      </trkpt>
      <trkpt lat="46.22577" lon="4.65817">
        <ele>470.319</ele>
        <time>2021-04-03T13:10:45Z</time>
      </trkpt>
      <trkpt lat="46.22583" lon="4.65804">
        <ele>471.072</ele>
        <time>2021-04-03T13:10:47Z</time>
      </trkpt>
      <trkpt lat="46.2259" lon="4.65786">
        <ele>471.971</ele>
        <time>2021-04-03T13:10:49Z</time>
      </trkpt>
      <trkpt lat="46.22596" lon="4.65767">
        <ele>473.223</ele>
        <time>2021-04-03T13:10:51Z</time>
      </trkpt>
      <trkpt lat="46.22596" lon="4.65749">
        <ele>473.635</ele>
        <time>2021-04-03T13:10:53Z</time>
      </trkpt>
      <trkpt lat="46.22595" lon="4.6573">
        <ele>474.241</ele>
        <time>2021-04-03T13:10:55Z</time>
      </trkpt>
      <trkpt lat="46.22594" lon="4.65706">
        <ele>474.438</ele>
        <time>2021-04-03T13:10:57Z</time>
      </trkpt>
      <trkpt lat="46.22593" lon="4.65673">
        <ele>474.665</ele>
        <time>2021-04-03T13:10:59Z</time>
      </trkpt>
      <trkpt lat="46.22593" lon="4.65631">
        <ele>475.182</ele>
        <time>2021-04-03T13:11:01Z</time>
      </trkpt>
      <trkpt lat="46.22596" lon="4.65594">
        <ele>475.443</ele>
        <time>2021-04-03T13:11:03Z</time>
      </trkpt>
      <trkpt lat="46.22602" lon="4.65565">
        <ele>475.717</ele>
        <time>2021-04-03T13:11:05Z</time>
      </trkpt>
      <trkpt lat="46.22606" lon="4.65548">
        <ele>475.408</ele>
        <time>2021-04-03T13:11:07Z</time>
      </trkpt>
      <trkpt lat="46.22608" lon="4.6554">
        <ele>475.674</ele>
        <time>2021-04-03T13:11:11Z</time>
      </trkpt>
      <trkpt lat="46.22609" lon="4.65527">
        <ele>476.877</ele>
        <time>2021-04-03T13:11:15Z</time>
      </trkpt>
      <trkpt lat="46.2261" lon="4.65512">
        <ele>477.576</ele>
        <time>2021-04-03T13:11:17Z</time>
      </trkpt>
      <trkpt lat="46.22613" lon="4.6549">
        <ele>479.148</ele>
        <time>2021-04-03T13:11:19Z</time>
      </trkpt>
      <trkpt lat="46.22618" lon="4.65468">
        <ele>480.28</ele>
        <time>2021-04-03T13:11:21Z</time>
      </trkpt>
      <trkpt lat="46.22627" lon="4.65447">
        <ele>481.546</ele>
        <time>2021-04-03T13:11:23Z</time>
      </trkpt>
      <trkpt lat="46.22638" lon="4.65431">
        <ele>483.273</ele>
        <time>2021-04-03T13:11:25Z</time>
      </trkpt>
      <trkpt lat="46.22651" lon="4.65418">
        <ele>484.24</ele>
        <time>2021-04-03T13:11:27Z</time>
      </trkpt>
      <trkpt lat="46.2267" lon="4.65407">
        <ele>484.746</ele>
        <time>2021-04-03T13:11:29Z</time>
      </trkpt>
      <trkpt lat="46.22688" lon="4.65395">
        <ele>485.888</ele>
        <time>2021-04-03T13:11:31Z</time>
      </trkpt>
      <trkpt lat="46.227" lon="4.65387">
        <ele>487.716</ele>
        <time>2021-04-03T13:11:33Z</time>
      </trkpt>
      <trkpt lat="46.22711" lon="4.65378">
        <ele>489.408</ele>
        <time>2021-04-03T13:11:35Z</time>
      </trkpt>
      <trkpt lat="46.2272" lon="4.65369">
        <ele>490.37</ele>
        <time>2021-04-03T13:11:37Z</time>
      </trkpt>
      <trkpt lat="46.22731" lon="4.65362">
        <ele>491.283</ele>
        <time>2021-04-03T13:11:39Z</time>
      </trkpt>
      <trkpt lat="46.22747" lon="4.65348">
        <ele>492.462</ele>
        <time>2021-04-03T13:11:41Z</time>
      </trkpt>
      <trkpt lat="46.22766" lon="4.65335">
        <ele>493.324</ele>
        <time>2021-04-03T13:11:43Z</time>
      </trkpt>
      <trkpt lat="46.22784" lon="4.65326">
        <ele>494.246</ele>
        <time>2021-04-03T13:11:45Z</time>
      </trkpt>
      <trkpt lat="46.22798" lon="4.65319">
        <ele>495.122</ele>
        <time>2021-04-03T13:11:47Z</time>
      </trkpt>
      <trkpt lat="46.22807" lon="4.65314">
        <ele>496.629</ele>
        <time>2021-04-03T13:11:49Z</time>
      </trkpt>
      <trkpt lat="46.22812" lon="4.65309">
        <ele>498.226</ele>
        <time>2021-04-03T13:11:53Z</time>
      </trkpt>
      <trkpt lat="46.22815" lon="4.65301">
        <ele>501.176</ele>
        <time>2021-04-03T13:12:43Z</time>
      </trkpt>
      <trkpt lat="46.22834" lon="4.65294">
        <ele>501.99</ele>
        <time>2021-04-03T13:12:45Z</time>
      </trkpt>
      <trkpt lat="46.22866" lon="4.65288">
        <ele>501.119</ele>
        <time>2021-04-03T13:12:47Z</time>
      </trkpt>
      <trkpt lat="46.22959" lon="4.65247">
        <ele>502.408</ele>
        <time>2021-04-03T13:12:53Z</time>
      </trkpt>
      <trkpt lat="46.22976" lon="4.65237">
        <ele>503.473</ele>
        <time>2021-04-03T13:12:55Z</time>
      </trkpt>
      <trkpt lat="46.22983" lon="4.65212">
        <ele>504.466</ele>
        <time>2021-04-03T13:12:57Z</time>
      </trkpt>
      <trkpt lat="46.22982" lon="4.65172">
        <ele>506.565</ele>
        <time>2021-04-03T13:12:59Z</time>
      </trkpt>
      <trkpt lat="46.22983" lon="4.6514">
        <ele>507.767</ele>
        <time>2021-04-03T13:13:01Z</time>
      </trkpt>
      <trkpt lat="46.22993" lon="4.65116">
        <ele>509.569</ele>
        <time>2021-04-03T13:13:03Z</time>
      </trkpt>
      <trkpt lat="46.23008" lon="4.651">
        <ele>511.135</ele>
        <time>2021-04-03T13:13:05Z</time>
      </trkpt>
      <trkpt lat="46.23021" lon="4.6509">
        <ele>512.532</ele>
        <time>2021-04-03T13:13:07Z</time>
      </trkpt>
      <trkpt lat="46.23025" lon="4.65099">
        <ele>515.159</ele>
        <time>2021-04-03T13:13:11Z</time>
      </trkpt>
      <trkpt lat="46.23029" lon="4.65092">
        <ele>517.694</ele>
        <time>2021-04-03T13:13:32Z</time>
      </trkpt>
      <trkpt lat="46.23042" lon="4.65073">
        <ele>518.957</ele>
        <time>2021-04-03T13:13:35Z</time>
      </trkpt>
      <trkpt lat="46.23059" lon="4.65055">
        <ele>519.522</ele>
        <time>2021-04-03T13:13:37Z</time>
      </trkpt>
      <trkpt lat="46.23074" lon="4.6504">
        <ele>520.308</ele>
        <time>2021-04-03T13:13:39Z</time>
      </trkpt>
      <trkpt lat="46.23085" lon="4.65031">
        <ele>521.565</ele>
        <time>2021-04-03T13:13:41Z</time>
      </trkpt>
      <trkpt lat="46.23093" lon="4.65023">
        <ele>522.048</ele>
        <time>2021-04-03T13:13:43Z</time>
      </trkpt>
      <trkpt lat="46.23103" lon="4.65014">
        <ele>522.987</ele>
        <time>2021-04-03T13:13:45Z</time>
      </trkpt>
      <trkpt lat="46.23116" lon="4.65005">
        <ele>523.499</ele>
        <time>2021-04-03T13:13:47Z</time>
      </trkpt>
      <trkpt lat="46.23132" lon="4.65003">
        <ele>523.761</ele>
        <time>2021-04-03T13:13:49Z</time>
      </trkpt>
      <trkpt lat="46.2315" lon="4.65007">
        <ele>524.137</ele>
        <time>2021-04-03T13:13:51Z</time>
      </trkpt>
      <trkpt lat="46.23168" lon="4.65015">
        <ele>524.384</ele>
        <time>2021-04-03T13:13:53Z</time>
      </trkpt>
      <trkpt lat="46.23184" lon="4.65022">
        <ele>525.181</ele>
        <time>2021-04-03T13:13:55Z</time>
      </trkpt>
      <trkpt lat="46.23198" lon="4.65024">
        <ele>525.977</ele>
        <time>2021-04-03T13:13:57Z</time>
      </trkpt>
      <trkpt lat="46.23209" lon="4.65025">
        <ele>526.361</ele>
        <time>2021-04-03T13:13:59Z</time>
      </trkpt>
      <trkpt lat="46.23211" lon="4.65018">
        <ele>528.527</ele>
        <time>2021-04-03T13:14:07Z</time>
      </trkpt>
      <trkpt lat="46.23204" lon="4.65018">
        <ele>528.708</ele>
        <time>2021-04-03T13:14:17Z</time>
      </trkpt>
      <trkpt lat="46.23188" lon="4.65018">
        <ele>528.313</ele>
        <time>2021-04-03T13:14:19Z</time>
      </trkpt>
      <trkpt lat="46.2317" lon="4.65016">
        <ele>527.276</ele>
        <time>2021-04-03T13:14:21Z</time>
      </trkpt>
      <trkpt lat="46.23147" lon="4.65015">
        <ele>526.095</ele>
        <time>2021-04-03T13:14:23Z</time>
      </trkpt>
      <trkpt lat="46.23126" lon="4.65016">
        <ele>525.627</ele>
        <time>2021-04-03T13:14:25Z</time>
      </trkpt>
      <trkpt lat="46.23107" lon="4.65023">
        <ele>525.839</ele>
        <time>2021-04-03T13:14:27Z</time>
      </trkpt>
      <trkpt lat="46.23089" lon="4.65034">
        <ele>525.485</ele>
        <time>2021-04-03T13:14:29Z</time>
      </trkpt>
      <trkpt lat="46.23075" lon="4.65042">
        <ele>525.692</ele>
        <time>2021-04-03T13:14:31Z</time>
      </trkpt>
      <trkpt lat="46.2306" lon="4.65052">
        <ele>524.929</ele>
        <time>2021-04-03T13:14:33Z</time>
      </trkpt>
      <trkpt lat="46.23047" lon="4.65067">
        <ele>524.735</ele>
        <time>2021-04-03T13:14:35Z</time>
      </trkpt>
      <trkpt lat="46.23034" lon="4.65081">
        <ele>525.186</ele>
        <time>2021-04-03T13:14:37Z</time>
      </trkpt>
      <trkpt lat="46.23023" lon="4.65095">
        <ele>525.614</ele>
        <time>2021-04-03T13:14:39Z</time>
      </trkpt>
      <trkpt lat="46.23008" lon="4.65107">
        <ele>525.408</ele>
        <time>2021-04-03T13:14:41Z</time>
      </trkpt>
      <trkpt lat="46.22992" lon="4.65125">
        <ele>524.559</ele>
        <time>2021-04-03T13:14:43Z</time>
      </trkpt>
      <trkpt lat="46.22979" lon="4.65145">
        <ele>524.042</ele>
        <time>2021-04-03T13:14:45Z</time>
      </trkpt>
      <trkpt lat="46.22973" lon="4.6517">
        <ele>523.571</ele>
        <time>2021-04-03T13:14:47Z</time>
      </trkpt>
      <trkpt lat="46.22972" lon="4.65196">
        <ele>523.313</ele>
        <time>2021-04-03T13:14:49Z</time>
      </trkpt>
      <trkpt lat="46.22971" lon="4.65221">
        <ele>522.785</ele>
        <time>2021-04-03T13:14:51Z</time>
      </trkpt>
      <trkpt lat="46.22967" lon="4.65243">
        <ele>522.351</ele>
        <time>2021-04-03T13:14:53Z</time>
      </trkpt>
      <trkpt lat="46.22953" lon="4.65255">
        <ele>522.238</ele>
        <time>2021-04-03T13:14:55Z</time>
      </trkpt>
      <trkpt lat="46.22928" lon="4.65263">
        <ele>521.595</ele>
        <time>2021-04-03T13:14:57Z</time>
      </trkpt>
      <trkpt lat="46.22897" lon="4.65278">
        <ele>520.011</ele>
        <time>2021-04-03T13:14:59Z</time>
      </trkpt>
      <trkpt lat="46.22866" lon="4.65291">
        <ele>517.421</ele>
        <time>2021-04-03T13:15:01Z</time>
      </trkpt>
      <trkpt lat="46.22836" lon="4.65301">
        <ele>514.003</ele>
        <time>2021-04-03T13:15:03Z</time>
      </trkpt>
      <trkpt lat="46.22809" lon="4.65309">
        <ele>511.308</ele>
        <time>2021-04-03T13:15:05Z</time>
      </trkpt>
      <trkpt lat="46.22783" lon="4.65318">
        <ele>509.277</ele>
        <time>2021-04-03T13:15:07Z</time>
      </trkpt>
      <trkpt lat="46.22759" lon="4.65327">
        <ele>506.82</ele>
        <time>2021-04-03T13:15:09Z</time>
      </trkpt>
      <trkpt lat="46.22738" lon="4.65341">
        <ele>505.049</ele>
        <time>2021-04-03T13:15:11Z</time>
      </trkpt>
      <trkpt lat="46.22716" lon="4.65361">
        <ele>504.391</ele>
        <time>2021-04-03T13:15:13Z</time>
      </trkpt>
      <trkpt lat="46.22691" lon="4.6538">
        <ele>504.183</ele>
        <time>2021-04-03T13:15:15Z</time>
      </trkpt>
      <trkpt lat="46.22667" lon="4.65398">
        <ele>503.519</ele>
        <time>2021-04-03T13:15:17Z</time>
      </trkpt>
      <trkpt lat="46.22645" lon="4.65416">
        <ele>501.986</ele>
        <time>2021-04-03T13:15:19Z</time>
      </trkpt>
      <trkpt lat="46.22626" lon="4.65433">
        <ele>502.043</ele>
        <time>2021-04-03T13:15:21Z</time>
      </trkpt>
      <trkpt lat="46.22612" lon="4.65455">
        <ele>501.715</ele>
        <time>2021-04-03T13:15:23Z</time>
      </trkpt>
      <trkpt lat="46.22604" lon="4.65481">
        <ele>501.765</ele>
        <time>2021-04-03T13:15:25Z</time>
      </trkpt>
      <trkpt lat="46.22599" lon="4.65509">
        <ele>501.611</ele>
        <time>2021-04-03T13:15:27Z</time>
      </trkpt>
      <trkpt lat="46.22594" lon="4.65545">
        <ele>501.508</ele>
        <time>2021-04-03T13:15:29Z</time>
      </trkpt>
      <trkpt lat="46.2259" lon="4.65582">
        <ele>499.097</ele>
        <time>2021-04-03T13:15:31Z</time>
      </trkpt>
      <trkpt lat="46.22586" lon="4.65618">
        <ele>496.46</ele>
        <time>2021-04-03T13:15:33Z</time>
      </trkpt>
      <trkpt lat="46.22585" lon="4.65657">
        <ele>493.969</ele>
        <time>2021-04-03T13:15:35Z</time>
      </trkpt>
      <trkpt lat="46.22586" lon="4.65696">
        <ele>491.041</ele>
        <time>2021-04-03T13:15:37Z</time>
      </trkpt>
      <trkpt lat="46.22588" lon="4.65734">
        <ele>488.663</ele>
        <time>2021-04-03T13:15:39Z</time>
      </trkpt>
      <trkpt lat="46.22589" lon="4.65767">
        <ele>487.089</ele>
        <time>2021-04-03T13:15:41Z</time>
      </trkpt>
      <trkpt lat="46.22585" lon="4.65795">
        <ele>484.926</ele>
        <time>2021-04-03T13:15:43Z</time>
      </trkpt>
      <trkpt lat="46.22576" lon="4.65821">
        <ele>482.853</ele>
        <time>2021-04-03T13:15:45Z</time>
      </trkpt>
      <trkpt lat="46.22564" lon="4.65848">
        <ele>479.329</ele>
        <time>2021-04-03T13:15:47Z</time>
      </trkpt>
      <trkpt lat="46.22555" lon="4.65876">
        <ele>476.6</ele>
        <time>2021-04-03T13:15:49Z</time>
      </trkpt>
      <trkpt lat="46.22552" lon="4.65903">
        <ele>474.72</ele>
        <time>2021-04-03T13:15:51Z</time>
      </trkpt>
      <trkpt lat="46.22554" lon="4.65925">
        <ele>473.808</ele>
        <time>2021-04-03T13:15:53Z</time>
      </trkpt>
      <trkpt lat="46.2256" lon="4.65932">
        <ele>472.948</ele>
        <time>2021-04-03T13:15:55Z</time>
      </trkpt>
      <trkpt lat="46.22566" lon="4.65932">
        <ele>472.371</ele>
        <time>2021-04-03T13:16:03Z</time>
      </trkpt>
      <trkpt lat="46.22577" lon="4.65938">
        <ele>468.37</ele>
        <time>2021-04-03T13:16:07Z</time>
      </trkpt>
      <trkpt lat="46.2259" lon="4.65948">
        <ele>464.332</ele>
        <time>2021-04-03T13:16:09Z</time>
      </trkpt>
      <trkpt lat="46.22608" lon="4.6596">
        <ele>461.924</ele>
        <time>2021-04-03T13:16:11Z</time>
      </trkpt>
      <trkpt lat="46.22624" lon="4.65972">
        <ele>460.43</ele>
        <time>2021-04-03T13:16:13Z</time>
      </trkpt>
      <trkpt lat="46.22639" lon="4.65985">
        <ele>459.597</ele>
        <time>2021-04-03T13:16:15Z</time>
      </trkpt>
      <trkpt lat="46.22651" lon="4.65999">
        <ele>459.094</ele>
        <time>2021-04-03T13:16:17Z</time>
      </trkpt>
      <trkpt lat="46.22661" lon="4.66014">
        <ele>458.741</ele>
        <time>2021-04-03T13:16:19Z</time>
      </trkpt>
      <trkpt lat="46.22673" lon="4.66031">
        <ele>458.581</ele>
        <time>2021-04-03T13:16:21Z</time>
      </trkpt>
      <trkpt lat="46.22685" lon="4.66044">
        <ele>458.409</ele>
        <time>2021-04-03T13:16:23Z</time>
      </trkpt>
      <trkpt lat="46.22697" lon="4.66051">
        <ele>458.308</ele>
        <time>2021-04-03T13:16:25Z</time>
      </trkpt>
      <trkpt lat="46.22708" lon="4.66052">
        <ele>458.32</ele>
        <time>2021-04-03T13:16:27Z</time>
      </trkpt>
      <trkpt lat="46.22718" lon="4.66053">
        <ele>458.233</ele>
        <time>2021-04-03T13:16:29Z</time>
      </trkpt>
      <trkpt lat="46.22728" lon="4.66056">
        <ele>458.222</ele>
        <time>2021-04-03T13:16:31Z</time>
      </trkpt>
      <trkpt lat="46.22737" lon="4.66063">
        <ele>458.244</ele>
        <time>2021-04-03T13:16:33Z</time>
      </trkpt>
      <trkpt lat="46.22744" lon="4.66073">
        <ele>458.276</ele>
        <time>2021-04-03T13:16:35Z</time>
      </trkpt>
      <trkpt lat="46.22745" lon="4.6608">
        <ele>458.272</ele>
        <time>2021-04-03T13:16:37Z</time>
      </trkpt>
      <trkpt lat="46.22746" lon="4.66089">
        <ele>458.239</ele>
        <time>2021-04-03T13:16:39Z</time>
      </trkpt>
      <trkpt lat="46.22748" lon="4.66098">
        <ele>458.246</ele>
        <time>2021-04-03T13:16:43Z</time>
      </trkpt>
      <trkpt lat="46.22759" lon="4.66091">
        <ele>458.319</ele>
        <time>2021-04-03T13:16:55Z</time>
      </trkpt>
      <trkpt lat="46.22765" lon="4.66075">
        <ele>458.309</ele>
        <time>2021-04-03T13:16:57Z</time>
      </trkpt>
      <trkpt lat="46.22764" lon="4.6606">
        <ele>458.319</ele>
        <time>2021-04-03T13:16:59Z</time>
      </trkpt>
      <trkpt lat="46.22763" lon="4.66045">
        <ele>457.508</ele>
        <time>2021-04-03T13:17:01Z</time>
      </trkpt>
      <trkpt lat="46.22762" lon="4.66038">
        <ele>457.147</ele>
        <time>2021-04-03T13:17:03Z</time>
      </trkpt>
      <trkpt lat="46.22761" lon="4.66027">
        <ele>458.22</ele>
        <time>2021-04-03T13:17:15Z</time>
      </trkpt>
      <trkpt lat="46.2276" lon="4.66013">
        <ele>458.969</ele>
        <time>2021-04-03T13:17:17Z</time>
      </trkpt>
      <trkpt lat="46.22758" lon="4.66003">
        <ele>459.351</ele>
        <time>2021-04-03T13:17:19Z</time>
      </trkpt>
      <trkpt lat="46.22754" lon="4.65995">
        <ele>459.613</ele>
        <time>2021-04-03T13:17:21Z</time>
      </trkpt>
      <trkpt lat="46.2275" lon="4.65991">
        <ele>459.859</ele>
        <time>2021-04-03T13:17:23Z</time>
      </trkpt>
      <trkpt lat="46.22748" lon="4.65998">
        <ele>459.926</ele>
        <time>2021-04-03T13:18:23Z</time>
      </trkpt>
      <trkpt lat="46.22752" lon="4.66007">
        <ele>459.943</ele>
        <time>2021-04-03T13:18:27Z</time>
      </trkpt>
      <trkpt lat="46.22754" lon="4.66018">
        <ele>459.973</ele>
        <time>2021-04-03T13:18:29Z</time>
      </trkpt>
      <trkpt lat="46.22758" lon="4.66038">
        <ele>459.985</ele>
        <time>2021-04-03T13:18:31Z</time>
      </trkpt>
      <trkpt lat="46.22763" lon="4.66058">
        <ele>459.913</ele>
        <time>2021-04-03T13:18:33Z</time>
      </trkpt>
      <trkpt lat="46.22765" lon="4.66076">
        <ele>459.908</ele>
        <time>2021-04-03T13:18:35Z</time>
      </trkpt>
      <trkpt lat="46.22762" lon="4.6609">
        <ele>459.953</ele>
        <time>2021-04-03T13:18:37Z</time>
      </trkpt>
      <trkpt lat="46.22755" lon="4.66094">
        <ele>459.986</ele>
        <time>2021-04-03T13:18:39Z</time>
      </trkpt>
      <trkpt lat="46.22747" lon="4.66106">
        <ele>459.965</ele>
        <time>2021-04-03T13:18:41Z</time>
      </trkpt>
      <trkpt lat="46.22735" lon="4.6612">
        <ele>459.947</ele>
        <time>2021-04-03T13:18:43Z</time>
      </trkpt>
      <trkpt lat="46.22721" lon="4.66134">
        <ele>459.999</ele>
        <time>2021-04-03T13:18:45Z</time>
      </trkpt>
      <trkpt lat="46.22705" lon="4.66144">
        <ele>459.995</ele>
        <time>2021-04-03T13:18:47Z</time>
      </trkpt>
      <trkpt lat="46.22691" lon="4.66153">
        <ele>459.922</ele>
        <time>2021-04-03T13:18:49Z</time>
      </trkpt>
      <trkpt lat="46.22677" lon="4.66162">
        <ele>459.939</ele>
        <time>2021-04-03T13:18:51Z</time>
      </trkpt>
      <trkpt lat="46.22663" lon="4.66172">
        <ele>459.962</ele>
        <time>2021-04-03T13:18:53Z</time>
      </trkpt>
      <trkpt lat="46.2265" lon="4.66182">
        <ele>459.983</ele>
        <time>2021-04-03T13:18:55Z</time>
      </trkpt>
      <trkpt lat="46.22636" lon="4.66191">
        <ele>459.911</ele>
        <time>2021-04-03T13:18:57Z</time>
      </trkpt>
      <trkpt lat="46.22621" lon="4.66204">
        <ele>459.908</ele>
        <time>2021-04-03T13:18:59Z</time>
      </trkpt>
      <trkpt lat="46.22605" lon="4.66222">
        <ele>459.982</ele>
        <time>2021-04-03T13:19:01Z</time>
      </trkpt>
      <trkpt lat="46.22593" lon="4.6624">
        <ele>459.945</ele>
        <time>2021-04-03T13:19:03Z</time>
      </trkpt>
      <trkpt lat="46.22582" lon="4.66257">
        <ele>459.994</ele>
        <time>2021-04-03T13:19:05Z</time>
      </trkpt>
      <trkpt lat="46.22573" lon="4.66272">
        <ele>459.956</ele>
        <time>2021-04-03T13:19:07Z</time>
      </trkpt>
      <trkpt lat="46.22566" lon="4.66285">
        <ele>459.948</ele>
        <time>2021-04-03T13:19:09Z</time>
      </trkpt>
      <trkpt lat="46.22559" lon="4.663">
        <ele>459.914</ele>
        <time>2021-04-03T13:19:11Z</time>
      </trkpt>
      <trkpt lat="46.22553" lon="4.66313">
        <ele>459.991</ele>
        <time>2021-04-03T13:19:13Z</time>
      </trkpt>
      <trkpt lat="46.22553" lon="4.66323">
        <ele>459.998</ele>
        <time>2021-04-03T13:19:17Z</time>
      </trkpt>
      <trkpt lat="46.22572" lon="4.66321">
        <ele>459.972</ele>
        <time>2021-04-03T13:19:21Z</time>
      </trkpt>
      <trkpt lat="46.22585" lon="4.66316">
        <ele>459.913</ele>
        <time>2021-04-03T13:19:23Z</time>
      </trkpt>
      <trkpt lat="46.22599" lon="4.66308">
        <ele>455.914</ele>
        <time>2021-04-03T13:19:25Z</time>
      </trkpt>
      <trkpt lat="46.22614" lon="4.663">
        <ele>453.508</ele>
        <time>2021-04-03T13:19:27Z</time>
      </trkpt>
      <trkpt lat="46.2263" lon="4.66292">
        <ele>453.533</ele>
        <time>2021-04-03T13:19:29Z</time>
      </trkpt>
      <trkpt lat="46.22645" lon="4.66282">
        <ele>454.966</ele>
        <time>2021-04-03T13:19:31Z</time>
      </trkpt>
      <trkpt lat="46.22656" lon="4.66273">
        <ele>455.915</ele>
        <time>2021-04-03T13:19:33Z</time>
      </trkpt>
      <trkpt lat="46.2267" lon="4.66261">
        <ele>456.897</ele>
        <time>2021-04-03T13:19:35Z</time>
      </trkpt>
      <trkpt lat="46.22686" lon="4.66247">
        <ele>457.979</ele>
        <time>2021-04-03T13:19:37Z</time>
      </trkpt>
      <trkpt lat="46.22703" lon="4.66234">
        <ele>459.625</ele>
        <time>2021-04-03T13:19:39Z</time>
      </trkpt>
      <trkpt lat="46.22721" lon="4.66226">
        <ele>461.962</ele>
        <time>2021-04-03T13:19:41Z</time>
      </trkpt>
      <trkpt lat="46.22741" lon="4.66222">
        <ele>464.289</ele>
        <time>2021-04-03T13:19:43Z</time>
      </trkpt>
      <trkpt lat="46.22761" lon="4.66218">
        <ele>466.818</ele>
        <time>2021-04-03T13:19:45Z</time>
      </trkpt>
      <trkpt lat="46.22786" lon="4.66217">
        <ele>469.798</ele>
        <time>2021-04-03T13:19:47Z</time>
      </trkpt>
      <trkpt lat="46.22812" lon="4.66219">
        <ele>473.017</ele>
        <time>2021-04-03T13:19:49Z</time>
      </trkpt>
      <trkpt lat="46.22828" lon="4.66221">
        <ele>475.108</ele>
        <time>2021-04-03T13:19:51Z</time>
      </trkpt>
      <trkpt lat="46.22843" lon="4.66221">
        <ele>478.087</ele>
        <time>2021-04-03T13:19:53Z</time>
      </trkpt>
      <trkpt lat="46.22864" lon="4.66216">
        <ele>480.77</ele>
        <time>2021-04-03T13:19:55Z</time>
      </trkpt>
      <trkpt lat="46.22883" lon="4.66209">
        <ele>483.199</ele>
        <time>2021-04-03T13:19:57Z</time>
      </trkpt>
      <trkpt lat="46.22895" lon="4.66202">
        <ele>484.971</ele>
        <time>2021-04-03T13:19:59Z</time>
      </trkpt>
      <trkpt lat="46.22904" lon="4.66198">
        <ele>486.223</ele>
        <time>2021-04-03T13:20:01Z</time>
      </trkpt>
      <trkpt lat="46.22914" lon="4.66192">
        <ele>487.249</ele>
        <time>2021-04-03T13:20:03Z</time>
      </trkpt>
      <trkpt lat="46.22926" lon="4.66176">
        <ele>487.996</ele>
        <time>2021-04-03T13:20:05Z</time>
      </trkpt>
      <trkpt lat="46.22942" lon="4.66151">
        <ele>490.033</ele>
        <time>2021-04-03T13:20:07Z</time>
      </trkpt>
      <trkpt lat="46.22958" lon="4.66121">
        <ele>491.717</ele>
        <time>2021-04-03T13:20:09Z</time>
      </trkpt>
      <trkpt lat="46.22974" lon="4.66094">
        <ele>494.087</ele>
        <time>2021-04-03T13:20:11Z</time>
      </trkpt>
      <trkpt lat="46.22981" lon="4.66077">
        <ele>496.115</ele>
        <time>2021-04-03T13:20:13Z</time>
      </trkpt>
      <trkpt lat="46.22983" lon="4.66067">
        <ele>497.608</ele>
        <time>2021-04-03T13:20:15Z</time>
      </trkpt>
      <trkpt lat="46.22984" lon="4.66075">
        <ele>498.517</ele>
        <time>2021-04-03T13:20:27Z</time>
      </trkpt>
      <trkpt lat="46.22981" lon="4.66088">
        <ele>499.05</ele>
        <time>2021-04-03T13:20:31Z</time>
      </trkpt>
      <trkpt lat="46.22984" lon="4.66093">
        <ele>499.359</ele>
        <time>2021-04-03T13:20:33Z</time>
      </trkpt>
      <trkpt lat="46.22989" lon="4.66097">
        <ele>499.531</ele>
        <time>2021-04-03T13:20:39Z</time>
      </trkpt>
      <trkpt lat="46.22992" lon="4.66102">
        <ele>500.443</ele>
        <time>2021-04-03T13:20:41Z</time>
      </trkpt>
      <trkpt lat="46.22992" lon="4.66094">
        <ele>500.759</ele>
        <time>2021-04-03T13:20:49Z</time>
      </trkpt>
      <trkpt lat="46.22985" lon="4.6609">
        <ele>500.836</ele>
        <time>2021-04-03T13:20:51Z</time>
      </trkpt>
      <trkpt lat="46.2298" lon="4.66083">
        <ele>501.083</ele>
        <time>2021-04-03T13:20:53Z</time>
      </trkpt>
      <trkpt lat="46.22983" lon="4.66067">
        <ele>505.063</ele>
        <time>2021-04-03T13:20:57Z</time>
      </trkpt>
      <trkpt lat="46.2299" lon="4.6605">
        <ele>505.844</ele>
        <time>2021-04-03T13:20:59Z</time>
      </trkpt>
      <trkpt lat="46.23" lon="4.66032">
        <ele>506.318</ele>
        <time>2021-04-03T13:21:01Z</time>
      </trkpt>
      <trkpt lat="46.23012" lon="4.66019">
        <ele>506.808</ele>
        <time>2021-04-03T13:21:03Z</time>
      </trkpt>
      <trkpt lat="46.23024" lon="4.66005">
        <ele>507.512</ele>
        <time>2021-04-03T13:21:05Z</time>
      </trkpt>
      <trkpt lat="46.23033" lon="4.65991">
        <ele>508.115</ele>
        <time>2021-04-03T13:21:07Z</time>
      </trkpt>
      <trkpt lat="46.23037" lon="4.65974">
        <ele>509.884</ele>
        <time>2021-04-03T13:21:09Z</time>
      </trkpt>
      <trkpt lat="46.23041" lon="4.65959">
        <ele>512.156</ele>
        <time>2021-04-03T13:21:11Z</time>
      </trkpt>
      <trkpt lat="46.23047" lon="4.65944">
        <ele>513.858</ele>
        <time>2021-04-03T13:21:13Z</time>
      </trkpt>
      <trkpt lat="46.23057" lon="4.65928">
        <ele>515.274</ele>
        <time>2021-04-03T13:21:15Z</time>
      </trkpt>
      <trkpt lat="46.23074" lon="4.65912">
        <ele>516.841</ele>
        <time>2021-04-03T13:21:17Z</time>
      </trkpt>
      <trkpt lat="46.23092" lon="4.659">
        <ele>516.948</ele>
        <time>2021-04-03T13:21:19Z</time>
      </trkpt>
      <trkpt lat="46.23111" lon="4.6589">
        <ele>518.469</ele>
        <time>2021-04-03T13:21:21Z</time>
      </trkpt>
      <trkpt lat="46.23133" lon="4.65882">
        <ele>520.504</ele>
        <time>2021-04-03T13:21:23Z</time>
      </trkpt>
      <trkpt lat="46.23157" lon="4.65883">
        <ele>522.724</ele>
        <time>2021-04-03T13:21:25Z</time>
      </trkpt>
      <trkpt lat="46.23187" lon="4.65892">
        <ele>526.708</ele>
        <time>2021-04-03T13:21:27Z</time>
      </trkpt>
      <trkpt lat="46.23213" lon="4.65906">
        <ele>530.222</ele>
        <time>2021-04-03T13:21:29Z</time>
      </trkpt>
      <trkpt lat="46.23237" lon="4.65917">
        <ele>532.385</ele>
        <time>2021-04-03T13:21:31Z</time>
      </trkpt>
      <trkpt lat="46.23262" lon="4.65925">
        <ele>533.654</ele>
        <time>2021-04-03T13:21:33Z</time>
      </trkpt>
      <trkpt lat="46.2328" lon="4.65924">
        <ele>534.426</ele>
        <time>2021-04-03T13:21:35Z</time>
      </trkpt>
      <trkpt lat="46.23298" lon="4.65919">
        <ele>534.958</ele>
        <time>2021-04-03T13:21:37Z</time>
      </trkpt>
      <trkpt lat="46.23312" lon="4.65914">
        <ele>535.244</ele>
        <time>2021-04-03T13:21:39Z</time>
      </trkpt>
      <trkpt lat="46.23326" lon="4.65904">
        <ele>535.431</ele>
        <time>2021-04-03T13:21:41Z</time>
      </trkpt>
      <trkpt lat="46.23338" lon="4.65894">
        <ele>535.558</ele>
        <time>2021-04-03T13:21:43Z</time>
      </trkpt>
      <trkpt lat="46.23346" lon="4.65884">
        <ele>535.691</ele>
        <time>2021-04-03T13:21:45Z</time>
      </trkpt>
      <trkpt lat="46.2335" lon="4.65866">
        <ele>535.681</ele>
        <time>2021-04-03T13:21:47Z</time>
      </trkpt>
      <trkpt lat="46.23354" lon="4.65837">
        <ele>535.619</ele>
        <time>2021-04-03T13:21:49Z</time>
      </trkpt>
      <trkpt lat="46.23359" lon="4.65796">
        <ele>531.608</ele>
        <time>2021-04-03T13:21:51Z</time>
      </trkpt>
      <trkpt lat="46.23363" lon="4.6576">
        <ele>534.515</ele>
        <time>2021-04-03T13:21:53Z</time>
      </trkpt>
      <trkpt lat="46.2336" lon="4.65735">
        <ele>538.518</ele>
        <time>2021-04-03T13:21:55Z</time>
      </trkpt>
      <trkpt lat="46.23358" lon="4.6571">
        <ele>542.527</ele>
        <time>2021-04-03T13:21:57Z</time>
      </trkpt>
      <trkpt lat="46.23361" lon="4.65687">
        <ele>546.589</ele>
        <time>2021-04-03T13:21:59Z</time>
      </trkpt>
      <trkpt lat="46.23371" lon="4.65655">
        <ele>550.241</ele>
        <time>2021-04-03T13:22:01Z</time>
      </trkpt>
      <trkpt lat="46.23384" lon="4.65613">
        <ele>554.297</ele>
        <time>2021-04-03T13:22:03Z</time>
      </trkpt>
      <trkpt lat="46.23394" lon="4.65574">
        <ele>558.294</ele>
        <time>2021-04-03T13:22:05Z</time>
      </trkpt>
      <trkpt lat="46.23404" lon="4.65545">
        <ele>562.271</ele>
        <time>2021-04-03T13:22:07Z</time>
      </trkpt>
      <trkpt lat="46.23415" lon="4.65518">
        <ele>566.295</ele>
        <time>2021-04-03T13:22:09Z</time>
      </trkpt>
      <trkpt lat="46.23429" lon="4.65493">
        <ele>570.249</ele>
        <time>2021-04-03T13:22:11Z</time>
      </trkpt>
      <trkpt lat="46.23441" lon="4.65467">
        <ele>574.223</ele>
        <time>2021-04-03T13:22:13Z</time>
      </trkpt>
      <trkpt lat="46.23452" lon="4.6544">
        <ele>576.508</ele>
        <time>2021-04-03T13:22:15Z</time>
      </trkpt>
      <trkpt lat="46.23464" lon="4.65412">
        <ele>579.665</ele>
        <time>2021-04-03T13:22:17Z</time>
      </trkpt>
      <trkpt lat="46.23475" lon="4.65385">
        <ele>582.548</ele>
        <time>2021-04-03T13:22:19Z</time>
      </trkpt>
      <trkpt lat="46.23483" lon="4.65362">
        <ele>584.647</ele>
        <time>2021-04-03T13:22:21Z</time>
      </trkpt>
      <trkpt lat="46.23484" lon="4.6535">
        <ele>586.219</ele>
        <time>2021-04-03T13:22:23Z</time>
      </trkpt>
      <trkpt lat="46.23481" lon="4.65336">
        <ele>587.921</ele>
        <time>2021-04-03T13:22:25Z</time>
      </trkpt>
      <trkpt lat="46.23478" lon="4.65319">
        <ele>589.257</ele>
        <time>2021-04-03T13:22:27Z</time>
      </trkpt>
      <trkpt lat="46.23473" lon="4.65303">
        <ele>590.534</ele>
        <time>2021-04-03T13:22:29Z</time>
      </trkpt>
      <trkpt lat="46.23469" lon="4.65294">
        <ele>592.141</ele>
        <time>2021-04-03T13:22:31Z</time>
      </trkpt>
      <trkpt lat="46.23466" lon="4.65299">
        <ele>593.197</ele>
        <time>2021-04-03T13:22:35Z</time>
      </trkpt>
      <trkpt lat="46.23477" lon="4.65293">
        <ele>593.723</ele>
        <time>2021-04-03T13:22:51Z</time>
      </trkpt>
      <trkpt lat="46.23487" lon="4.65285">
        <ele>594.025</ele>
        <time>2021-04-03T13:22:53Z</time>
      </trkpt>
      <trkpt lat="46.23492" lon="4.65278">
        <ele>594.208</ele>
        <time>2021-04-03T13:22:55Z</time>
      </trkpt>
      <trkpt lat="46.23498" lon="4.65273">
        <ele>594.365</ele>
        <time>2021-04-03T13:22:57Z</time>
      </trkpt>
      <trkpt lat="46.23504" lon="4.65268">
        <ele>594.418</ele>
        <time>2021-04-03T13:22:59Z</time>
      </trkpt>
      <trkpt lat="46.23517" lon="4.65261">
        <ele>594.467</ele>
        <time>2021-04-03T13:23:11Z</time>
      </trkpt>
      <trkpt lat="46.23525" lon="4.65249">
        <ele>598.419</ele>
        <time>2021-04-03T13:23:13Z</time>
      </trkpt>
      <trkpt lat="46.23531" lon="4.65231">
        <ele>602.491</ele>
        <time>2021-04-03T13:23:15Z</time>
      </trkpt>
      <trkpt lat="46.23538" lon="4.65215">
        <ele>606.467</ele>
        <time>2021-04-03T13:23:17Z</time>
      </trkpt>
      <trkpt lat="46.23547" lon="4.652">
        <ele>610.424</ele>
        <time>2021-04-03T13:23:19Z</time>
      </trkpt>
      <trkpt lat="46.23555" lon="4.65189">
        <ele>614.421</ele>
        <time>2021-04-03T13:23:21Z</time>
      </trkpt>
      <trkpt lat="46.2356" lon="4.65185">
        <ele>618.415</ele>
        <time>2021-04-03T13:23:23Z</time>
      </trkpt>
      <trkpt lat="46.23569" lon="4.65172">
        <ele>621.965</ele>
        <time>2021-04-03T13:23:25Z</time>
      </trkpt>
      <trkpt lat="46.23578" lon="4.65154">
        <ele>624.111</ele>
        <time>2021-04-03T13:23:27Z</time>
      </trkpt>
      <trkpt lat="46.23589" lon="4.65136">
        <ele>625.108</ele>
        <time>2021-04-03T13:23:29Z</time>
      </trkpt>
      <trkpt lat="46.236" lon="4.65123">
        <ele>625.087</ele>
        <time>2021-04-03T13:23:31Z</time>
      </trkpt>
      <trkpt lat="46.23608" lon="4.6511">
        <ele>625.34</ele>
        <time>2021-04-03T13:23:33Z</time>
      </trkpt>
      <trkpt lat="46.23615" lon="4.65095">
        <ele>625.339</ele>
        <time>2021-04-03T13:23:35Z</time>
      </trkpt>
      <trkpt lat="46.23622" lon="4.65084">
        <ele>625.521</ele>
        <time>2021-04-03T13:23:37Z</time>
      </trkpt>
      <trkpt lat="46.23627" lon="4.6507">
        <ele>625.643</ele>
        <time>2021-04-03T13:23:39Z</time>
      </trkpt>
      <trkpt lat="46.23633" lon="4.65057">
        <ele>626.049</ele>
        <time>2021-04-03T13:23:41Z</time>
      </trkpt>
      <trkpt lat="46.23637" lon="4.65051">
        <ele>626.446</ele>
        <time>2021-04-03T13:23:43Z</time>
      </trkpt>
      <trkpt lat="46.23643" lon="4.6504">
        <ele>626.513</ele>
        <time>2021-04-03T13:23:45Z</time>
      </trkpt>
      <trkpt lat="46.23648" lon="4.65037">
        <ele>627.253</ele>
        <time>2021-04-03T13:23:49Z</time>
      </trkpt>
      <trkpt lat="46.23653" lon="4.65037">
        <ele>627.904</ele>
        <time>2021-04-03T13:23:51Z</time>
      </trkpt>
      <trkpt lat="46.23658" lon="4.65035">
        <ele>628.514</ele>
        <time>2021-04-03T13:23:53Z</time>
      </trkpt>
      <trkpt lat="46.23666" lon="4.65037">
        <ele>627.608</ele>
        <time>2021-04-03T13:23:57Z</time>
      </trkpt>
      <trkpt lat="46.23671" lon="4.65035">
        <ele>626.881</ele>
        <time>2021-04-03T13:23:59Z</time>
      </trkpt>
      <trkpt lat="46.23675" lon="4.6503">
        <ele>626.164</ele>
        <time>2021-04-03T13:24:01Z</time>
      </trkpt>
      <trkpt lat="46.23678" lon="4.65021">
        <ele>626.553</ele>
        <time>2021-04-03T13:24:05Z</time>
      </trkpt>
      <trkpt lat="46.23685" lon="4.65011">
        <ele>625.715</ele>
        <time>2021-04-03T13:24:09Z</time>
      </trkpt>
      <trkpt lat="46.2369" lon="4.65006">
        <ele>625.247</ele>
        <time>2021-04-03T13:24:13Z</time>
      </trkpt>
      <trkpt lat="46.23695" lon="4.65008">
        <ele>622.123</ele>
        <time>2021-04-03T13:24:19Z</time>
      </trkpt>
      <trkpt lat="46.23705" lon="4.65003">
        <ele>618.18</ele>
        <time>2021-04-03T13:24:25Z</time>
      </trkpt>
      <trkpt lat="46.23709" lon="4.64996">
        <ele>614.457</ele>
        <time>2021-04-03T13:24:27Z</time>
      </trkpt>
      <trkpt lat="46.23716" lon="4.64991">
        <ele>613.075</ele>
        <time>2021-04-03T13:24:29Z</time>
      </trkpt>
      <trkpt lat="46.23721" lon="4.64993">
        <ele>612.028</ele>
        <time>2021-04-03T13:24:31Z</time>
      </trkpt>
      <trkpt lat="46.23727" lon="4.64995">
        <ele>610.72</ele>
        <time>2021-04-03T13:24:33Z</time>
      </trkpt>
      <trkpt lat="46.23736" lon="4.64995">
        <ele>608.908</ele>
        <time>2021-04-03T13:24:35Z</time>
      </trkpt>
      <trkpt lat="46.23741" lon="4.64994">
        <ele>607.043</ele>
        <time>2021-04-03T13:24:37Z</time>
      </trkpt>
      <trkpt lat="46.23747" lon="4.64992">
        <ele>606.296</ele>
        <time>2021-04-03T13:24:39Z</time>
      </trkpt>
      <trkpt lat="46.23751" lon="4.64988">
        <ele>606.375</ele>
        <time>2021-04-03T13:24:41Z</time>
      </trkpt>
      <trkpt lat="46.23757" lon="4.64983">
        <ele>606.997</ele>
        <time>2021-04-03T13:24:43Z</time>
      </trkpt>
      <trkpt lat="46.23763" lon="4.64979">
        <ele>607.219</ele>
        <time>2021-04-03T13:24:45Z</time>
      </trkpt>
      <trkpt lat="46.2377" lon="4.64967">
        <ele>608.665</ele>
        <time>2021-04-03T13:28:45Z</time>
      </trkpt>
      <trkpt lat="46.2378" lon="4.64961">
        <ele>608.732</ele>
        <time>2021-04-03T13:28:47Z</time>
      </trkpt>
      <trkpt lat="46.23796" lon="4.6495">
        <ele>608.899</ele>
        <time>2021-04-03T13:28:49Z</time>
      </trkpt>
      <trkpt lat="46.23814" lon="4.64931">
        <ele>608.895</ele>
        <time>2021-04-03T13:28:51Z</time>
      </trkpt>
      <trkpt lat="46.23835" lon="4.64904">
        <ele>609.249</ele>
        <time>2021-04-03T13:28:53Z</time>
      </trkpt>
      <trkpt lat="46.23856" lon="4.64878">
        <ele>610.023</ele>
        <time>2021-04-03T13:28:55Z</time>
      </trkpt>
      <trkpt lat="46.23876" lon="4.64856">
        <ele>610.408</ele>
        <time>2021-04-03T13:28:57Z</time>
      </trkpt>
      <trkpt lat="46.23897" lon="4.64845">
        <ele>610.315</ele>
        <time>2021-04-03T13:28:59Z</time>
      </trkpt>
      <trkpt lat="46.23918" lon="4.64845">
        <ele>610.238</ele>
        <time>2021-04-03T13:29:01Z</time>
      </trkpt>
      <trkpt lat="46.23939" lon="4.64844">
        <ele>610.227</ele>
        <time>2021-04-03T13:29:03Z</time>
      </trkpt>
      <trkpt lat="46.23957" lon="4.64841">
        <ele>606.269</ele>
        <time>2021-04-03T13:29:05Z</time>
      </trkpt>
      <trkpt lat="46.23973" lon="4.64835">
        <ele>602.281</ele>
        <time>2021-04-03T13:29:07Z</time>
      </trkpt>
      <trkpt lat="46.23987" lon="4.64826">
        <ele>601.257</ele>
        <time>2021-04-03T13:29:09Z</time>
      </trkpt>
      <trkpt lat="46.24002" lon="4.64816">
        <ele>600.614</ele>
        <time>2021-04-03T13:29:11Z</time>
      </trkpt>
      <trkpt lat="46.2402" lon="4.648">
        <ele>600.271</ele>
        <time>2021-04-03T13:29:13Z</time>
      </trkpt>
      <trkpt lat="46.24037" lon="4.64783">
        <ele>600.057</ele>
        <time>2021-04-03T13:29:15Z</time>
      </trkpt>
      <trkpt lat="46.24051" lon="4.64765">
        <ele>596</ele>
        <time>2021-04-03T13:29:17Z</time>
      </trkpt>
      <trkpt lat="46.24064" lon="4.64739">
        <ele>592.02</ele>
        <time>2021-04-03T13:29:19Z</time>
      </trkpt>
      <trkpt lat="46.24077" lon="4.64709">
        <ele>588.008</ele>
        <time>2021-04-03T13:29:21Z</time>
      </trkpt>
      <trkpt lat="46.24082" lon="4.64677">
        <ele>588.751</ele>
        <time>2021-04-03T13:29:23Z</time>
      </trkpt>
      <trkpt lat="46.24082" lon="4.64646">
        <ele>592.744</ele>
        <time>2021-04-03T13:29:25Z</time>
      </trkpt>
      <trkpt lat="46.24086" lon="4.64627">
        <ele>596.743</ele>
        <time>2021-04-03T13:29:27Z</time>
      </trkpt>
      <trkpt lat="46.24098" lon="4.64609">
        <ele>600.715</ele>
        <time>2021-04-03T13:29:29Z</time>
      </trkpt>
      <trkpt lat="46.24114" lon="4.6459">
        <ele>604.757</ele>
        <time>2021-04-03T13:29:31Z</time>
      </trkpt>
      <trkpt lat="46.24132" lon="4.64565">
        <ele>608.743</ele>
        <time>2021-04-03T13:29:33Z</time>
      </trkpt>
      <trkpt lat="46.24148" lon="4.64544">
        <ele>612.72</ele>
        <time>2021-04-03T13:29:35Z</time>
      </trkpt>
      <trkpt lat="46.24158" lon="4.64521">
        <ele>616.717</ele>
        <time>2021-04-03T13:29:37Z</time>
      </trkpt>
      <trkpt lat="46.24168" lon="4.64491">
        <ele>620.663</ele>
        <time>2021-04-03T13:29:39Z</time>
      </trkpt>
      <trkpt lat="46.24173" lon="4.64463">
        <ele>617.144</ele>
        <time>2021-04-03T13:29:41Z</time>
      </trkpt>
      <trkpt lat="46.24175" lon="4.64431">
        <ele>617.818</ele>
        <time>2021-04-03T13:29:43Z</time>
      </trkpt>
      <trkpt lat="46.2418" lon="4.64403">
        <ele>618.208</ele>
        <time>2021-04-03T13:29:45Z</time>
      </trkpt>
      <trkpt lat="46.24186" lon="4.64382">
        <ele>618.412</ele>
        <time>2021-04-03T13:29:47Z</time>
      </trkpt>
      <trkpt lat="46.24195" lon="4.64359">
        <ele>618.595</ele>
        <time>2021-04-03T13:29:49Z</time>
      </trkpt>
      <trkpt lat="46.24204" lon="4.64333">
        <ele>615.664</ele>
        <time>2021-04-03T13:29:51Z</time>
      </trkpt>
      <trkpt lat="46.24211" lon="4.64311">
        <ele>615.136</ele>
        <time>2021-04-03T13:29:53Z</time>
      </trkpt>
      <trkpt lat="46.24218" lon="4.64295">
        <ele>616.248</ele>
        <time>2021-04-03T13:29:55Z</time>
      </trkpt>
      <trkpt lat="46.24226" lon="4.64278">
        <ele>616.944</ele>
        <time>2021-04-03T13:29:57Z</time>
      </trkpt>
      <trkpt lat="46.24238" lon="4.64262">
        <ele>617.831</ele>
        <time>2021-04-03T13:29:59Z</time>
      </trkpt>
      <trkpt lat="46.24254" lon="4.64245">
        <ele>621.878</ele>
        <time>2021-04-03T13:30:01Z</time>
      </trkpt>
      <trkpt lat="46.24265" lon="4.64231">
        <ele>625.866</ele>
        <time>2021-04-03T13:30:03Z</time>
      </trkpt>
      <trkpt lat="46.24274" lon="4.64221">
        <ele>629.429</ele>
        <time>2021-04-03T13:30:05Z</time>
      </trkpt>
      <trkpt lat="46.24283" lon="4.64223">
        <ele>631.921</ele>
        <time>2021-04-03T13:30:09Z</time>
      </trkpt>
      <trkpt lat="46.24292" lon="4.6422">
        <ele>633.908</ele>
        <time>2021-04-03T13:30:21Z</time>
      </trkpt>
      <trkpt lat="46.24305" lon="4.64222">
        <ele>635.162</ele>
        <time>2021-04-03T13:30:23Z</time>
      </trkpt>
      <trkpt lat="46.24322" lon="4.64226">
        <ele>635.855</ele>
        <time>2021-04-03T13:30:25Z</time>
      </trkpt>
      <trkpt lat="46.24338" lon="4.64228">
        <ele>636.264</ele>
        <time>2021-04-03T13:30:27Z</time>
      </trkpt>
      <trkpt lat="46.24356" lon="4.64231">
        <ele>636.396</ele>
        <time>2021-04-03T13:30:29Z</time>
      </trkpt>
      <trkpt lat="46.24376" lon="4.64233">
        <ele>635.758</ele>
        <time>2021-04-03T13:30:31Z</time>
      </trkpt>
      <trkpt lat="46.24395" lon="4.64232">
        <ele>634.964</ele>
        <time>2021-04-03T13:30:33Z</time>
      </trkpt>
      <trkpt lat="46.24412" lon="4.6423">
        <ele>633.951</ele>
        <time>2021-04-03T13:30:35Z</time>
      </trkpt>
      <trkpt lat="46.24429" lon="4.64224">
        <ele>633.548</ele>
        <time>2021-04-03T13:30:37Z</time>
      </trkpt>
      <trkpt lat="46.24444" lon="4.64214">
        <ele>633.022</ele>
        <time>2021-04-03T13:30:39Z</time>
      </trkpt>
      <trkpt lat="46.24461" lon="4.64204">
        <ele>632.562</ele>
        <time>2021-04-03T13:30:41Z</time>
      </trkpt>
      <trkpt lat="46.24478" lon="4.642">
        <ele>631.608</ele>
        <time>2021-04-03T13:30:43Z</time>
      </trkpt>
      <trkpt lat="46.24498" lon="4.642">
        <ele>631.108</ele>
        <time>2021-04-03T13:30:45Z</time>
      </trkpt>
      <trkpt lat="46.24516" lon="4.64205">
        <ele>629.748</ele>
        <time>2021-04-03T13:30:47Z</time>
      </trkpt>
      <trkpt lat="46.24531" lon="4.64217">
        <ele>629.031</ele>
        <time>2021-04-03T13:30:49Z</time>
      </trkpt>
      <trkpt lat="46.24539" lon="4.64235">
        <ele>628.98</ele>
        <time>2021-04-03T13:30:51Z</time>
      </trkpt>
      <trkpt lat="46.24541" lon="4.64256">
        <ele>629.242</ele>
        <time>2021-04-03T13:30:53Z</time>
      </trkpt>
      <trkpt lat="46.24547" lon="4.64283">
        <ele>629.444</ele>
        <time>2021-04-03T13:30:55Z</time>
      </trkpt>
      <trkpt lat="46.24555" lon="4.6431">
        <ele>629.52</ele>
        <time>2021-04-03T13:30:57Z</time>
      </trkpt>
      <trkpt lat="46.24564" lon="4.64331">
        <ele>629.697</ele>
        <time>2021-04-03T13:30:59Z</time>
      </trkpt>
      <trkpt lat="46.24576" lon="4.64347">
        <ele>625.634</ele>
        <time>2021-04-03T13:31:01Z</time>
      </trkpt>
      <trkpt lat="46.24589" lon="4.64357">
        <ele>623.732</ele>
        <time>2021-04-03T13:31:03Z</time>
      </trkpt>
      <trkpt lat="46.24602" lon="4.64357">
        <ele>625.092</ele>
        <time>2021-04-03T13:31:05Z</time>
      </trkpt>
      <trkpt lat="46.24615" lon="4.64346">
        <ele>626.411</ele>
        <time>2021-04-03T13:31:07Z</time>
      </trkpt>
      <trkpt lat="46.24631" lon="4.64326">
        <ele>627.208</ele>
        <time>2021-04-03T13:31:09Z</time>
      </trkpt>
      <trkpt lat="46.24652" lon="4.64303">
        <ele>627.819</ele>
        <time>2021-04-03T13:31:11Z</time>
      </trkpt>
      <trkpt lat="46.24671" lon="4.64284">
        <ele>628.462</ele>
        <time>2021-04-03T13:31:13Z</time>
      </trkpt>
      <trkpt lat="46.24689" lon="4.64272">
        <ele>628.281</ele>
        <time>2021-04-03T13:31:15Z</time>
      </trkpt>
      <trkpt lat="46.24711" lon="4.64265">
        <ele>627.933</ele>
        <time>2021-04-03T13:31:17Z</time>
      </trkpt>
      <trkpt lat="46.2473" lon="4.64261">
        <ele>627.625</ele>
        <time>2021-04-03T13:31:19Z</time>
      </trkpt>
      <trkpt lat="46.24746" lon="4.64252">
        <ele>627.611</ele>
        <time>2021-04-03T13:31:21Z</time>
      </trkpt>
      <trkpt lat="46.24761" lon="4.64235">
        <ele>627.738</ele>
        <time>2021-04-03T13:31:23Z</time>
      </trkpt>
      <trkpt lat="46.24776" lon="4.64212">
        <ele>627.895</ele>
        <time>2021-04-03T13:31:25Z</time>
      </trkpt>
      <trkpt lat="46.2479" lon="4.64186">
        <ele>627.874</ele>
        <time>2021-04-03T13:31:27Z</time>
      </trkpt>
      <trkpt lat="46.24801" lon="4.64165">
        <ele>627.756</ele>
        <time>2021-04-03T13:31:29Z</time>
      </trkpt>
      <trkpt lat="46.24812" lon="4.64139">
        <ele>627.621</ele>
        <time>2021-04-03T13:31:31Z</time>
      </trkpt>
      <trkpt lat="46.24821" lon="4.64111">
        <ele>628.208</ele>
        <time>2021-04-03T13:31:33Z</time>
      </trkpt>
      <trkpt lat="46.24829" lon="4.64079">
        <ele>628.743</ele>
        <time>2021-04-03T13:31:35Z</time>
      </trkpt>
      <trkpt lat="46.2484" lon="4.64051">
        <ele>629.226</ele>
        <time>2021-04-03T13:31:37Z</time>
      </trkpt>
      <trkpt lat="46.24847" lon="4.64026">
        <ele>629.195</ele>
        <time>2021-04-03T13:31:39Z</time>
      </trkpt>
      <trkpt lat="46.24853" lon="4.63998">
        <ele>628.887</ele>
        <time>2021-04-03T13:31:41Z</time>
      </trkpt>
      <trkpt lat="46.24858" lon="4.63972">
        <ele>628.269</ele>
        <time>2021-04-03T13:31:43Z</time>
      </trkpt>
      <trkpt lat="46.24862" lon="4.63944">
        <ele>627.885</ele>
        <time>2021-04-03T13:31:45Z</time>
      </trkpt>
      <trkpt lat="46.24867" lon="4.63917">
        <ele>627.372</ele>
        <time>2021-04-03T13:31:47Z</time>
      </trkpt>
      <trkpt lat="46.24872" lon="4.6389">
        <ele>627.289</ele>
        <time>2021-04-03T13:31:49Z</time>
      </trkpt>
      <trkpt lat="46.24876" lon="4.63868">
        <ele>627.161</ele>
        <time>2021-04-03T13:31:51Z</time>
      </trkpt>
      <trkpt lat="46.24885" lon="4.63853">
        <ele>626.021</ele>
        <time>2021-04-03T13:31:53Z</time>
      </trkpt>
      <trkpt lat="46.249" lon="4.6385">
        <ele>625.813</ele>
        <time>2021-04-03T13:31:55Z</time>
      </trkpt>
      <trkpt lat="46.2492" lon="4.63854">
        <ele>625.708</ele>
        <time>2021-04-03T13:31:57Z</time>
      </trkpt>
      <trkpt lat="46.24941" lon="4.63864">
        <ele>621.752</ele>
        <time>2021-04-03T13:31:59Z</time>
      </trkpt>
      <trkpt lat="46.24958" lon="4.63875">
        <ele>619.315</ele>
        <time>2021-04-03T13:32:01Z</time>
      </trkpt>
      <trkpt lat="46.24975" lon="4.63888">
        <ele>616.344</ele>
        <time>2021-04-03T13:32:03Z</time>
      </trkpt>
      <trkpt lat="46.24986" lon="4.63906">
        <ele>615.046</ele>
        <time>2021-04-03T13:32:05Z</time>
      </trkpt>
      <trkpt lat="46.24996" lon="4.63925">
        <ele>613.888</ele>
        <time>2021-04-03T13:32:07Z</time>
      </trkpt>
      <trkpt lat="46.25009" lon="4.63936">
        <ele>612.674</ele>
        <time>2021-04-03T13:32:09Z</time>
      </trkpt>
      <trkpt lat="46.25024" lon="4.6394">
        <ele>612.521</ele>
        <time>2021-04-03T13:32:11Z</time>
      </trkpt>
      <trkpt lat="46.25038" lon="4.63935">
        <ele>612.068</ele>
        <time>2021-04-03T13:32:13Z</time>
      </trkpt>
      <trkpt lat="46.25051" lon="4.63926">
        <ele>612.558</ele>
        <time>2021-04-03T13:32:15Z</time>
      </trkpt>
      <trkpt lat="46.25067" lon="4.63914">
        <ele>612.652</ele>
        <time>2021-04-03T13:32:17Z</time>
      </trkpt>
      <trkpt lat="46.25083" lon="4.639">
        <ele>613.117</ele>
        <time>2021-04-03T13:32:19Z</time>
      </trkpt>
      <trkpt lat="46.25098" lon="4.63885">
        <ele>613.708</ele>
        <time>2021-04-03T13:32:21Z</time>
      </trkpt>
      <trkpt lat="46.2511" lon="4.63868">
        <ele>614.621</ele>
        <time>2021-04-03T13:32:23Z</time>
      </trkpt>
      <trkpt lat="46.25122" lon="4.63852">
        <ele>613.814</ele>
        <time>2021-04-03T13:32:25Z</time>
      </trkpt>
      <trkpt lat="46.25132" lon="4.63836">
        <ele>613.693</ele>
        <time>2021-04-03T13:32:27Z</time>
      </trkpt>
      <trkpt lat="46.25147" lon="4.63828">
        <ele>611.045</ele>
        <time>2021-04-03T13:32:29Z</time>
      </trkpt>
      <trkpt lat="46.25164" lon="4.6383">
        <ele>608.497</ele>
        <time>2021-04-03T13:32:31Z</time>
      </trkpt>
      <trkpt lat="46.25183" lon="4.63841">
        <ele>606.843</ele>
        <time>2021-04-03T13:32:33Z</time>
      </trkpt>
      <trkpt lat="46.25204" lon="4.63862">
        <ele>604.83</ele>
        <time>2021-04-03T13:32:35Z</time>
      </trkpt>
      <trkpt lat="46.25222" lon="4.63886">
        <ele>603.317</ele>
        <time>2021-04-03T13:32:37Z</time>
      </trkpt>
      <trkpt lat="46.25232" lon="4.63917">
        <ele>601.531</ele>
        <time>2021-04-03T13:32:39Z</time>
      </trkpt>
      <trkpt lat="46.25237" lon="4.63951">
        <ele>600.861</ele>
        <time>2021-04-03T13:32:41Z</time>
      </trkpt>
      <trkpt lat="46.25243" lon="4.63979">
        <ele>598.807</ele>
        <time>2021-04-03T13:32:43Z</time>
      </trkpt>
      <trkpt lat="46.25256" lon="4.64004">
        <ele>597.408</ele>
        <time>2021-04-03T13:32:45Z</time>
      </trkpt>
      <trkpt lat="46.25269" lon="4.64031">
        <ele>597.069</ele>
        <time>2021-04-03T13:32:47Z</time>
      </trkpt>
      <trkpt lat="46.2528" lon="4.64053">
        <ele>596.782</ele>
        <time>2021-04-03T13:32:49Z</time>
      </trkpt>
      <trkpt lat="46.25286" lon="4.64066">
        <ele>597.041</ele>
        <time>2021-04-03T13:32:51Z</time>
      </trkpt>
      <trkpt lat="46.25285" lon="4.64059">
        <ele>597.253</ele>
        <time>2021-04-03T13:32:59Z</time>
      </trkpt>
      <trkpt lat="46.25293" lon="4.64066">
        <ele>597.355</ele>
        <time>2021-04-03T13:33:04Z</time>
      </trkpt>
      <trkpt lat="46.25298" lon="4.64071">
        <ele>593.351</ele>
        <time>2021-04-03T13:33:05Z</time>
      </trkpt>
      <trkpt lat="46.25302" lon="4.64075">
        <ele>591.018</ele>
        <time>2021-04-03T13:33:06Z</time>
      </trkpt>
      <trkpt lat="46.25307" lon="4.64079">
        <ele>590.015</ele>
        <time>2021-04-03T13:33:07Z</time>
      </trkpt>
      <trkpt lat="46.25312" lon="4.64089">
        <ele>590.774</ele>
        <time>2021-04-03T13:33:09Z</time>
      </trkpt>
      <trkpt lat="46.25318" lon="4.64112">
        <ele>591.956</ele>
        <time>2021-04-03T13:33:11Z</time>
      </trkpt>
      <trkpt lat="46.25324" lon="4.64142">
        <ele>593.821</ele>
        <time>2021-04-03T13:33:13Z</time>
      </trkpt>
      <trkpt lat="46.25337" lon="4.64179">
        <ele>595.008</ele>
        <time>2021-04-03T13:33:15Z</time>
      </trkpt>
      <trkpt lat="46.25357" lon="4.64214">
        <ele>596.163</ele>
        <time>2021-04-03T13:33:17Z</time>
      </trkpt>
      <trkpt lat="46.25374" lon="4.64239">
        <ele>597.276</ele>
        <time>2021-04-03T13:33:19Z</time>
      </trkpt>
      <trkpt lat="46.25382" lon="4.64268">
        <ele>598.715</ele>
        <time>2021-04-03T13:33:21Z</time>
      </trkpt>
      <trkpt lat="46.25385" lon="4.64298">
        <ele>599.167</ele>
        <time>2021-04-03T13:33:23Z</time>
      </trkpt>
      <trkpt lat="46.25393" lon="4.64321">
        <ele>600.469</ele>
        <time>2021-04-03T13:33:25Z</time>
      </trkpt>
      <trkpt lat="46.25413" lon="4.64335">
        <ele>602.135</ele>
        <time>2021-04-03T13:33:27Z</time>
      </trkpt>
      <trkpt lat="46.25433" lon="4.6434">
        <ele>603.952</ele>
        <time>2021-04-03T13:33:29Z</time>
      </trkpt>
      <trkpt lat="46.25448" lon="4.64342">
        <ele>605.069</ele>
        <time>2021-04-03T13:33:31Z</time>
      </trkpt>
      <trkpt lat="46.25459" lon="4.64341">
        <ele>605.673</ele>
        <time>2021-04-03T13:33:33Z</time>
      </trkpt>
      <trkpt lat="46.25465" lon="4.64353">
        <ele>606.085</ele>
        <time>2021-04-03T13:33:43Z</time>
      </trkpt>
      <trkpt lat="46.25465" lon="4.64376">
        <ele>606.213</ele>
        <time>2021-04-03T13:33:45Z</time>
      </trkpt>
      <trkpt lat="46.25459" lon="4.64411">
        <ele>606.008</ele>
        <time>2021-04-03T13:33:47Z</time>
      </trkpt>
      <trkpt lat="46.25453" lon="4.64454">
        <ele>605.843</ele>
        <time>2021-04-03T13:33:49Z</time>
      </trkpt>
      <trkpt lat="46.25445" lon="4.64505">
        <ele>605.256</ele>
        <time>2021-04-03T13:33:51Z</time>
      </trkpt>
      <trkpt lat="46.25437" lon="4.6455">
        <ele>604.855</ele>
        <time>2021-04-03T13:33:53Z</time>
      </trkpt>
      <trkpt lat="46.25434" lon="4.64585">
        <ele>604.497</ele>
        <time>2021-04-03T13:33:55Z</time>
      </trkpt>
      <trkpt lat="46.25437" lon="4.64612">
        <ele>604.689</ele>
        <time>2021-04-03T13:33:57Z</time>
      </trkpt>
      <trkpt lat="46.25452" lon="4.64631">
        <ele>604.715</ele>
        <time>2021-04-03T13:33:59Z</time>
      </trkpt>
      <trkpt lat="46.25475" lon="4.64637">
        <ele>605.042</ele>
        <time>2021-04-03T13:34:01Z</time>
      </trkpt>
      <trkpt lat="46.255" lon="4.64636">
        <ele>605.639</ele>
        <time>2021-04-03T13:34:03Z</time>
      </trkpt>
      <trkpt lat="46.25521" lon="4.6464">
        <ele>605.932</ele>
        <time>2021-04-03T13:34:05Z</time>
      </trkpt>
      <trkpt lat="46.2554" lon="4.64653">
        <ele>606.192</ele>
        <time>2021-04-03T13:34:07Z</time>
      </trkpt>
      <trkpt lat="46.25555" lon="4.64681">
        <ele>606.211</ele>
        <time>2021-04-03T13:34:09Z</time>
      </trkpt>
      <trkpt lat="46.25568" lon="4.64714">
        <ele>602.208</ele>
        <time>2021-04-03T13:34:11Z</time>
      </trkpt>
      <trkpt lat="46.25575" lon="4.64745">
        <ele>600.999</ele>
        <time>2021-04-03T13:34:13Z</time>
      </trkpt>
      <trkpt lat="46.25575" lon="4.64778">
        <ele>604.922</ele>
        <time>2021-04-03T13:34:15Z</time>
      </trkpt>
      <trkpt lat="46.25573" lon="4.64813">
        <ele>607.671</ele>
        <time>2021-04-03T13:34:17Z</time>
      </trkpt>
      <trkpt lat="46.25574" lon="4.6485">
        <ele>608.473</ele>
        <time>2021-04-03T13:34:19Z</time>
      </trkpt>
      <trkpt lat="46.25573" lon="4.64886">
        <ele>608.815</ele>
        <time>2021-04-03T13:34:21Z</time>
      </trkpt>
      <trkpt lat="46.25566" lon="4.64923">
        <ele>609.071</ele>
        <time>2021-04-03T13:34:23Z</time>
      </trkpt>
      <trkpt lat="46.25555" lon="4.64965">
        <ele>608.958</ele>
        <time>2021-04-03T13:34:25Z</time>
      </trkpt>
      <trkpt lat="46.2549" lon="4.65201">
        <ele>604.925</ele>
        <time>2021-04-03T13:34:33Z</time>
      </trkpt>
      <trkpt lat="46.25478" lon="4.65248">
        <ele>600.918</ele>
        <time>2021-04-03T13:34:35Z</time>
      </trkpt>
      <trkpt lat="46.2547" lon="4.65289">
        <ele>596.998</ele>
        <time>2021-04-03T13:34:37Z</time>
      </trkpt>
      <trkpt lat="46.25467" lon="4.65321">
        <ele>592.917</ele>
        <time>2021-04-03T13:34:39Z</time>
      </trkpt>
      <trkpt lat="46.25471" lon="4.6535">
        <ele>595.308</ele>
        <time>2021-04-03T13:34:41Z</time>
      </trkpt>
      <trkpt lat="46.25477" lon="4.65374">
        <ele>599.377</ele>
        <time>2021-04-03T13:34:43Z</time>
      </trkpt>
      <trkpt lat="46.25479" lon="4.65394">
        <ele>601.65</ele>
        <time>2021-04-03T13:34:45Z</time>
      </trkpt>
      <trkpt lat="46.25479" lon="4.65406">
        <ele>603.969</ele>
        <time>2021-04-03T13:34:47Z</time>
      </trkpt>
      <trkpt lat="46.25481" lon="4.65419">
        <ele>605.991</ele>
        <time>2021-04-03T13:34:49Z</time>
      </trkpt>
      <trkpt lat="46.25479" lon="4.6544">
        <ele>607.823</ele>
        <time>2021-04-03T13:34:51Z</time>
      </trkpt>
      <trkpt lat="46.25476" lon="4.65463">
        <ele>610.469</ele>
        <time>2021-04-03T13:34:53Z</time>
      </trkpt>
      <trkpt lat="46.25471" lon="4.65488">
        <ele>612.566</ele>
        <time>2021-04-03T13:34:55Z</time>
      </trkpt>
      <trkpt lat="46.25462" lon="4.65517">
        <ele>614.163</ele>
        <time>2021-04-03T13:34:57Z</time>
      </trkpt>
      <trkpt lat="46.25456" lon="4.65538">
        <ele>611.744</ele>
        <time>2021-04-03T13:34:59Z</time>
      </trkpt>
      <trkpt lat="46.25456" lon="4.65551">
        <ele>610.205</ele>
        <time>2021-04-03T13:35:01Z</time>
      </trkpt>
      <trkpt lat="46.2546" lon="4.65557">
        <ele>609.315</ele>
        <time>2021-04-03T13:35:05Z</time>
      </trkpt>
      <trkpt lat="46.2546" lon="4.65569">
        <ele>613.308</ele>
        <time>2021-04-03T13:35:09Z</time>
      </trkpt>
      <trkpt lat="46.25457" lon="4.65575">
        <ele>616.78</ele>
        <time>2021-04-03T13:35:13Z</time>
      </trkpt>
      <trkpt lat="46.25454" lon="4.65575">
        <ele>626.173</ele>
        <time>2021-04-03T14:43:43Z</time>
      </trkpt>
      <trkpt lat="46.25455" lon="4.65582">
        <ele>618.822</ele>
        <time>2021-04-03T14:46:09Z</time>
      </trkpt>
      <trkpt lat="46.25461" lon="4.6558">
        <ele>620.164</ele>
        <time>2021-04-03T14:46:39Z</time>
      </trkpt>
      <trkpt lat="46.25472" lon="4.6558">
        <ele>620.916</ele>
        <time>2021-04-03T14:46:41Z</time>
      </trkpt>
      <trkpt lat="46.25485" lon="4.65587">
        <ele>621.432</ele>
        <time>2021-04-03T14:46:43Z</time>
      </trkpt>
      <trkpt lat="46.25496" lon="4.65596">
        <ele>618.929</ele>
        <time>2021-04-03T14:46:45Z</time>
      </trkpt>
      <trkpt lat="46.25506" lon="4.65602">
        <ele>619.456</ele>
        <time>2021-04-03T14:46:47Z</time>
      </trkpt>
      <trkpt lat="46.25516" lon="4.65606">
        <ele>619.594</ele>
        <time>2021-04-03T14:46:49Z</time>
      </trkpt>
      <trkpt lat="46.25526" lon="4.6561">
        <ele>619.257</ele>
        <time>2021-04-03T14:46:51Z</time>
      </trkpt>
      <trkpt lat="46.25536" lon="4.65612">
        <ele>619.222</ele>
        <time>2021-04-03T14:46:53Z</time>
      </trkpt>
      <trkpt lat="46.25547" lon="4.65611">
        <ele>619.208</ele>
        <time>2021-04-03T14:46:55Z</time>
      </trkpt>
      <trkpt lat="46.25558" lon="4.65612">
        <ele>619.545</ele>
        <time>2021-04-03T14:46:57Z</time>
      </trkpt>
      <trkpt lat="46.25573" lon="4.65613">
        <ele>619.598</ele>
        <time>2021-04-03T14:46:59Z</time>
      </trkpt>
      <trkpt lat="46.25589" lon="4.65613">
        <ele>619.677</ele>
        <time>2021-04-03T14:47:01Z</time>
      </trkpt>
      <trkpt lat="46.25604" lon="4.65613">
        <ele>620.089</ele>
        <time>2021-04-03T14:47:03Z</time>
      </trkpt>
      <trkpt lat="46.25619" lon="4.65615">
        <ele>620.881</ele>
        <time>2021-04-03T14:47:05Z</time>
      </trkpt>
      <trkpt lat="46.25634" lon="4.65621">
        <ele>621.837</ele>
        <time>2021-04-03T14:47:07Z</time>
      </trkpt>
      <trkpt lat="46.25649" lon="4.65633">
        <ele>622.284</ele>
        <time>2021-04-03T14:47:09Z</time>
      </trkpt>
      <trkpt lat="46.25663" lon="4.65644">
        <ele>622.591</ele>
        <time>2021-04-03T14:47:11Z</time>
      </trkpt>
      <trkpt lat="46.25674" lon="4.65651">
        <ele>622.789</ele>
        <time>2021-04-03T14:47:13Z</time>
      </trkpt>
      <trkpt lat="46.25684" lon="4.6566">
        <ele>622.806</ele>
        <time>2021-04-03T14:47:15Z</time>
      </trkpt>
      <trkpt lat="46.25694" lon="4.65672">
        <ele>622.926</ele>
        <time>2021-04-03T14:47:17Z</time>
      </trkpt>
      <trkpt lat="46.25702" lon="4.6568">
        <ele>618.908</ele>
        <time>2021-04-03T14:47:19Z</time>
      </trkpt>
      <trkpt lat="46.2571" lon="4.6569">
        <ele>614.934</ele>
        <time>2021-04-03T14:47:21Z</time>
      </trkpt>
      <trkpt lat="46.2572" lon="4.65703">
        <ele>612.967</ele>
        <time>2021-04-03T14:47:23Z</time>
      </trkpt>
      <trkpt lat="46.2573" lon="4.65717">
        <ele>613.356</ele>
        <time>2021-04-03T14:47:25Z</time>
      </trkpt>
      <trkpt lat="46.25739" lon="4.65734">
        <ele>615.088</ele>
        <time>2021-04-03T14:47:27Z</time>
      </trkpt>
      <trkpt lat="46.25747" lon="4.65752">
        <ele>617.26</ele>
        <time>2021-04-03T14:47:29Z</time>
      </trkpt>
      <trkpt lat="46.25754" lon="4.65773">
        <ele>619.176</ele>
        <time>2021-04-03T14:47:31Z</time>
      </trkpt>
      <trkpt lat="46.25761" lon="4.65793">
        <ele>620.833</ele>
        <time>2021-04-03T14:47:33Z</time>
      </trkpt>
      <trkpt lat="46.25771" lon="4.65809">
        <ele>621.89</ele>
        <time>2021-04-03T14:47:35Z</time>
      </trkpt>
      <trkpt lat="46.25783" lon="4.65824">
        <ele>622.494</ele>
        <time>2021-04-03T14:47:37Z</time>
      </trkpt>
      <trkpt lat="46.25798" lon="4.65837">
        <ele>618.457</ele>
        <time>2021-04-03T14:47:39Z</time>
      </trkpt>
      <trkpt lat="46.25811" lon="4.65847">
        <ele>616.722</ele>
        <time>2021-04-03T14:47:41Z</time>
      </trkpt>
      <trkpt lat="46.25827" lon="4.65855">
        <ele>618.408</ele>
        <time>2021-04-03T14:47:43Z</time>
      </trkpt>
      <trkpt lat="46.25845" lon="4.65862">
        <ele>620.325</ele>
        <time>2021-04-03T14:47:45Z</time>
      </trkpt>
      <trkpt lat="46.25865" lon="4.65867">
        <ele>621.178</ele>
        <time>2021-04-03T14:47:47Z</time>
      </trkpt>
      <trkpt lat="46.25881" lon="4.65872">
        <ele>621.957</ele>
        <time>2021-04-03T14:47:49Z</time>
      </trkpt>
      <trkpt lat="46.25896" lon="4.6588">
        <ele>621.699</ele>
        <time>2021-04-03T14:47:51Z</time>
      </trkpt>
      <trkpt lat="46.25913" lon="4.65888">
        <ele>622.191</ele>
        <time>2021-04-03T14:47:53Z</time>
      </trkpt>
      <trkpt lat="46.25927" lon="4.65895">
        <ele>621.877</ele>
        <time>2021-04-03T14:47:55Z</time>
      </trkpt>
      <trkpt lat="46.25941" lon="4.65902">
        <ele>621.894</ele>
        <time>2021-04-03T14:47:57Z</time>
      </trkpt>
      <trkpt lat="46.2596" lon="4.65914">
        <ele>621.331</ele>
        <time>2021-04-03T14:47:59Z</time>
      </trkpt>
      <trkpt lat="46.25982" lon="4.65929">
        <ele>620.565</ele>
        <time>2021-04-03T14:48:01Z</time>
      </trkpt>
      <trkpt lat="46.26002" lon="4.65946">
        <ele>620.168</ele>
        <time>2021-04-03T14:48:03Z</time>
      </trkpt>
      <trkpt lat="46.26019" lon="4.65965">
        <ele>619.814</ele>
        <time>2021-04-03T14:48:05Z</time>
      </trkpt>
      <trkpt lat="46.26033" lon="4.65986">
        <ele>619.608</ele>
        <time>2021-04-03T14:48:07Z</time>
      </trkpt>
      <trkpt lat="46.26045" lon="4.66004">
        <ele>619.512</ele>
        <time>2021-04-03T14:48:09Z</time>
      </trkpt>
      <trkpt lat="46.26056" lon="4.66017">
        <ele>615.525</ele>
        <time>2021-04-03T14:48:11Z</time>
      </trkpt>
      <trkpt lat="46.26065" lon="4.66023">
        <ele>611.584</ele>
        <time>2021-04-03T14:48:13Z</time>
      </trkpt>
      <trkpt lat="46.26072" lon="4.66021">
        <ele>609.586</ele>
        <time>2021-04-03T14:48:15Z</time>
      </trkpt>
      <trkpt lat="46.26077" lon="4.66022">
        <ele>609.748</ele>
        <time>2021-04-03T14:48:19Z</time>
      </trkpt>
      <trkpt lat="46.26091" lon="4.66024">
        <ele>610.884</ele>
        <time>2021-04-03T14:48:27Z</time>
      </trkpt>
      <trkpt lat="46.26108" lon="4.66023">
        <ele>611.741</ele>
        <time>2021-04-03T14:48:29Z</time>
      </trkpt>
      <trkpt lat="46.26126" lon="4.66024">
        <ele>612.028</ele>
        <time>2021-04-03T14:48:31Z</time>
      </trkpt>
      <trkpt lat="46.26145" lon="4.66033">
        <ele>611.976</ele>
        <time>2021-04-03T14:48:33Z</time>
      </trkpt>
      <trkpt lat="46.26163" lon="4.66046">
        <ele>611.49</ele>
        <time>2021-04-03T14:48:35Z</time>
      </trkpt>
      <trkpt lat="46.26181" lon="4.66062">
        <ele>610.519</ele>
        <time>2021-04-03T14:48:37Z</time>
      </trkpt>
      <trkpt lat="46.26198" lon="4.66083">
        <ele>609.508</ele>
        <time>2021-04-03T14:48:39Z</time>
      </trkpt>
      <trkpt lat="46.26209" lon="4.66111">
        <ele>608.373</ele>
        <time>2021-04-03T14:48:41Z</time>
      </trkpt>
      <trkpt lat="46.26219" lon="4.66147">
        <ele>606.826</ele>
        <time>2021-04-03T14:48:43Z</time>
      </trkpt>
      <trkpt lat="46.26229" lon="4.66181">
        <ele>605.925</ele>
        <time>2021-04-03T14:48:45Z</time>
      </trkpt>
      <trkpt lat="46.2624" lon="4.66209">
        <ele>605.277</ele>
        <time>2021-04-03T14:48:47Z</time>
      </trkpt>
      <trkpt lat="46.26253" lon="4.66228">
        <ele>603.919</ele>
        <time>2021-04-03T14:48:49Z</time>
      </trkpt>
      <trkpt lat="46.26262" lon="4.66246">
        <ele>603.345</ele>
        <time>2021-04-03T14:48:51Z</time>
      </trkpt>
      <trkpt lat="46.26271" lon="4.66267">
        <ele>603.642</ele>
        <time>2021-04-03T14:48:53Z</time>
      </trkpt>
      <trkpt lat="46.26283" lon="4.66288">
        <ele>604.259</ele>
        <time>2021-04-03T14:48:55Z</time>
      </trkpt>
      <trkpt lat="46.26294" lon="4.6631">
        <ele>605.387</ele>
        <time>2021-04-03T14:48:57Z</time>
      </trkpt>
      <trkpt lat="46.26303" lon="4.66335">
        <ele>606.242</ele>
        <time>2021-04-03T14:48:59Z</time>
      </trkpt>
      <trkpt lat="46.26313" lon="4.66365">
        <ele>607.126</ele>
        <time>2021-04-03T14:49:01Z</time>
      </trkpt>
      <trkpt lat="46.26328" lon="4.66405">
        <ele>611.108</ele>
        <time>2021-04-03T14:49:03Z</time>
      </trkpt>
      <trkpt lat="46.26347" lon="4.66442">
        <ele>615.164</ele>
        <time>2021-04-03T14:49:05Z</time>
      </trkpt>
      <trkpt lat="46.26361" lon="4.6647">
        <ele>619.127</ele>
        <time>2021-04-03T14:49:07Z</time>
      </trkpt>
      <trkpt lat="46.26376" lon="4.66492">
        <ele>623.166</ele>
        <time>2021-04-03T14:49:09Z</time>
      </trkpt>
      <trkpt lat="46.26394" lon="4.66513">
        <ele>624.588</ele>
        <time>2021-04-03T14:49:11Z</time>
      </trkpt>
      <trkpt lat="46.26412" lon="4.66539">
        <ele>625.76</ele>
        <time>2021-04-03T14:49:13Z</time>
      </trkpt>
      <trkpt lat="46.26429" lon="4.66568">
        <ele>627.066</ele>
        <time>2021-04-03T14:49:15Z</time>
      </trkpt>
      <trkpt lat="46.26447" lon="4.66599">
        <ele>629.283</ele>
        <time>2021-04-03T14:49:17Z</time>
      </trkpt>
      <trkpt lat="46.26459" lon="4.66623">
        <ele>630.86</ele>
        <time>2021-04-03T14:49:19Z</time>
      </trkpt>
      <trkpt lat="46.26471" lon="4.6664">
        <ele>632.426</ele>
        <time>2021-04-03T14:49:21Z</time>
      </trkpt>
      <trkpt lat="46.26482" lon="4.66652">
        <ele>633.447</ele>
        <time>2021-04-03T14:49:23Z</time>
      </trkpt>
      <trkpt lat="46.2648" lon="4.66662">
        <ele>635.611</ele>
        <time>2021-04-03T14:49:25Z</time>
      </trkpt>
      <trkpt lat="46.26472" lon="4.66661">
        <ele>638.508</ele>
        <time>2021-04-03T14:49:27Z</time>
      </trkpt>
      <trkpt lat="46.26462" lon="4.66664">
        <ele>641.088</ele>
        <time>2021-04-03T14:49:29Z</time>
      </trkpt>
      <trkpt lat="46.2645" lon="4.66673">
        <ele>643.211</ele>
        <time>2021-04-03T14:49:31Z</time>
      </trkpt>
      <trkpt lat="46.26442" lon="4.66684">
        <ele>644.61</ele>
        <time>2021-04-03T14:49:33Z</time>
      </trkpt>
      <trkpt lat="46.26443" lon="4.66695">
        <ele>645.882</ele>
        <time>2021-04-03T14:49:35Z</time>
      </trkpt>
      <trkpt lat="46.26447" lon="4.66719">
        <ele>647.064</ele>
        <time>2021-04-03T14:49:37Z</time>
      </trkpt>
      <trkpt lat="46.2645" lon="4.66751">
        <ele>648.14</ele>
        <time>2021-04-03T14:49:39Z</time>
      </trkpt>
      <trkpt lat="46.26454" lon="4.66781">
        <ele>649.197</ele>
        <time>2021-04-03T14:49:41Z</time>
      </trkpt>
      <trkpt lat="46.26458" lon="4.66804">
        <ele>650.864</ele>
        <time>2021-04-03T14:49:43Z</time>
      </trkpt>
      <trkpt lat="46.26462" lon="4.66826">
        <ele>652.426</ele>
        <time>2021-04-03T14:49:45Z</time>
      </trkpt>
      <trkpt lat="46.26467" lon="4.66843">
        <ele>653.847</ele>
        <time>2021-04-03T14:49:47Z</time>
      </trkpt>
      <trkpt lat="46.26474" lon="4.66854">
        <ele>654.311</ele>
        <time>2021-04-03T14:49:49Z</time>
      </trkpt>
      <trkpt lat="46.26483" lon="4.66857">
        <ele>654.908</ele>
        <time>2021-04-03T14:49:51Z</time>
      </trkpt>
      <trkpt lat="46.26489" lon="4.66848">
        <ele>656.288</ele>
        <time>2021-04-03T14:49:53Z</time>
      </trkpt>
      <trkpt lat="46.26495" lon="4.66845">
        <ele>658.261</ele>
        <time>2021-04-03T14:49:55Z</time>
      </trkpt>
      <trkpt lat="46.265" lon="4.66846">
        <ele>659.42</ele>
        <time>2021-04-03T14:49:56Z</time>
      </trkpt>
      <trkpt lat="46.26519" lon="4.6684">
        <ele>660.842</ele>
        <time>2021-04-03T14:49:59Z</time>
      </trkpt>
      <trkpt lat="46.26524" lon="4.6684">
        <ele>661.724</ele>
        <time>2021-04-03T14:50:03Z</time>
      </trkpt>
      <trkpt lat="46.26513" lon="4.66838">
        <ele>659.17</ele>
        <time>2021-04-03T14:50:19Z</time>
      </trkpt>
      <trkpt lat="46.26503" lon="4.66844">
        <ele>658.297</ele>
        <time>2021-04-03T14:50:21Z</time>
      </trkpt>
      <trkpt lat="46.26496" lon="4.66845">
        <ele>657.634</ele>
        <time>2021-04-03T14:50:23Z</time>
      </trkpt>
      <trkpt lat="46.26489" lon="4.66844">
        <ele>657.332</ele>
        <time>2021-04-03T14:50:25Z</time>
      </trkpt>
      <trkpt lat="46.26483" lon="4.66851">
        <ele>653.392</ele>
        <time>2021-04-03T14:50:27Z</time>
      </trkpt>
      <trkpt lat="46.26478" lon="4.66851">
        <ele>650.311</ele>
        <time>2021-04-03T14:50:29Z</time>
      </trkpt>
      <trkpt lat="46.26475" lon="4.66844">
        <ele>649.708</ele>
        <time>2021-04-03T14:50:31Z</time>
      </trkpt>
      <trkpt lat="46.26471" lon="4.66836">
        <ele>649.879</ele>
        <time>2021-04-03T14:50:33Z</time>
      </trkpt>
      <trkpt lat="46.26467" lon="4.66824">
        <ele>647.532</ele>
        <time>2021-04-03T14:50:35Z</time>
      </trkpt>
      <trkpt lat="46.26461" lon="4.66802">
        <ele>648.571</ele>
        <time>2021-04-03T14:50:37Z</time>
      </trkpt>
      <trkpt lat="46.26455" lon="4.66764">
        <ele>649.653</ele>
        <time>2021-04-03T14:50:39Z</time>
      </trkpt>
      <trkpt lat="46.26452" lon="4.66726">
        <ele>650.595</ele>
        <time>2021-04-03T14:50:41Z</time>
      </trkpt>
      <trkpt lat="46.26448" lon="4.66697">
        <ele>646.561</ele>
        <time>2021-04-03T14:50:43Z</time>
      </trkpt>
      <trkpt lat="46.26444" lon="4.66679">
        <ele>644.288</ele>
        <time>2021-04-03T14:50:45Z</time>
      </trkpt>
      <trkpt lat="46.26446" lon="4.66673">
        <ele>645.135</ele>
        <time>2021-04-03T14:50:49Z</time>
      </trkpt>
      <trkpt lat="46.2645" lon="4.66668">
        <ele>646.594</ele>
        <time>2021-04-03T14:50:51Z</time>
      </trkpt>
      <trkpt lat="46.26454" lon="4.66664">
        <ele>647.057</ele>
        <time>2021-04-03T14:50:53Z</time>
      </trkpt>
      <trkpt lat="46.2646" lon="4.66659">
        <ele>647.122</ele>
        <time>2021-04-03T14:50:55Z</time>
      </trkpt>
      <trkpt lat="46.26468" lon="4.66653">
        <ele>646.808</ele>
        <time>2021-04-03T14:50:57Z</time>
      </trkpt>
      <trkpt lat="46.26473" lon="4.66649">
        <ele>646.775</ele>
        <time>2021-04-03T14:50:59Z</time>
      </trkpt>
      <trkpt lat="46.26477" lon="4.66643">
        <ele>646.668</ele>
        <time>2021-04-03T14:51:01Z</time>
      </trkpt>
      <trkpt lat="46.26478" lon="4.66637">
        <ele>647.077</ele>
        <time>2021-04-03T14:51:05Z</time>
      </trkpt>
      <trkpt lat="46.26472" lon="4.66639">
        <ele>647.369</ele>
        <time>2021-04-03T14:51:27Z</time>
      </trkpt>
      <trkpt lat="46.26463" lon="4.66654">
        <ele>647.721</ele>
        <time>2021-04-03T14:51:31Z</time>
      </trkpt>
      <trkpt lat="46.26454" lon="4.66662">
        <ele>648.557</ele>
        <time>2021-04-03T14:51:33Z</time>
      </trkpt>
      <trkpt lat="46.26445" lon="4.66667">
        <ele>649.354</ele>
        <time>2021-04-03T14:51:35Z</time>
      </trkpt>
      <trkpt lat="46.26442" lon="4.66675">
        <ele>650.311</ele>
        <time>2021-04-03T14:51:37Z</time>
      </trkpt>
      <trkpt lat="46.26441" lon="4.66683">
        <ele>650.952</ele>
        <time>2021-04-03T14:51:39Z</time>
      </trkpt>
      <trkpt lat="46.26441" lon="4.66701">
        <ele>651.753</ele>
        <time>2021-04-03T14:51:41Z</time>
      </trkpt>
      <trkpt lat="46.26444" lon="4.66735">
        <ele>652.208</ele>
        <time>2021-04-03T14:51:43Z</time>
      </trkpt>
      <trkpt lat="46.2645" lon="4.66778">
        <ele>653.308</ele>
        <time>2021-04-03T14:51:45Z</time>
      </trkpt>
      <trkpt lat="46.2646" lon="4.66823">
        <ele>652.091</ele>
        <time>2021-04-03T14:51:47Z</time>
      </trkpt>
      <trkpt lat="46.26468" lon="4.66847">
        <ele>652.764</ele>
        <time>2021-04-03T14:51:49Z</time>
      </trkpt>
      <trkpt lat="46.26478" lon="4.66854">
        <ele>654.013</ele>
        <time>2021-04-03T14:51:51Z</time>
      </trkpt>
      <trkpt lat="46.26486" lon="4.66852">
        <ele>655.145</ele>
        <time>2021-04-03T14:51:53Z</time>
      </trkpt>
      <trkpt lat="46.2649" lon="4.66846">
        <ele>656.667</ele>
        <time>2021-04-03T14:51:55Z</time>
      </trkpt>
      <trkpt lat="46.26497" lon="4.66847">
        <ele>658.533</ele>
        <time>2021-04-03T14:51:57Z</time>
      </trkpt>
      <trkpt lat="46.26506" lon="4.66845">
        <ele>659.92</ele>
        <time>2021-04-03T14:51:59Z</time>
      </trkpt>
      <trkpt lat="46.26516" lon="4.66841">
        <ele>661.397</ele>
        <time>2021-04-03T14:52:01Z</time>
      </trkpt>
      <trkpt lat="46.26522" lon="4.66835">
        <ele>662.026</ele>
        <time>2021-04-03T14:52:03Z</time>
      </trkpt>
      <trkpt lat="46.26527" lon="4.66832">
        <ele>663.047</ele>
        <time>2021-04-03T14:52:05Z</time>
      </trkpt>
      <trkpt lat="46.26536" lon="4.66822">
        <ele>664.111</ele>
        <time>2021-04-03T14:52:17Z</time>
      </trkpt>
      <trkpt lat="46.26549" lon="4.66812">
        <ele>665.308</ele>
        <time>2021-04-03T14:52:19Z</time>
      </trkpt>
      <trkpt lat="46.26563" lon="4.66795">
        <ele>665.918</ele>
        <time>2021-04-03T14:52:21Z</time>
      </trkpt>
      <trkpt lat="46.26576" lon="4.66775">
        <ele>666.911</ele>
        <time>2021-04-03T14:52:23Z</time>
      </trkpt>
      <trkpt lat="46.26588" lon="4.66756">
        <ele>667.08</ele>
        <time>2021-04-03T14:52:25Z</time>
      </trkpt>
      <trkpt lat="46.266" lon="4.66741">
        <ele>667.022</ele>
        <time>2021-04-03T14:52:27Z</time>
      </trkpt>
      <trkpt lat="46.2661" lon="4.66736">
        <ele>667.534</ele>
        <time>2021-04-03T14:52:29Z</time>
      </trkpt>
      <trkpt lat="46.26616" lon="4.66739">
        <ele>668.55</ele>
        <time>2021-04-03T14:52:31Z</time>
      </trkpt>
      <trkpt lat="46.26626" lon="4.66742">
        <ele>669.167</ele>
        <time>2021-04-03T14:52:33Z</time>
      </trkpt>
      <trkpt lat="46.26633" lon="4.6674">
        <ele>670.294</ele>
        <time>2021-04-03T14:52:35Z</time>
      </trkpt>
      <trkpt lat="46.26641" lon="4.66737">
        <ele>671.397</ele>
        <time>2021-04-03T14:52:37Z</time>
      </trkpt>
      <trkpt lat="46.26648" lon="4.66736">
        <ele>673.323</ele>
        <time>2021-04-03T14:52:39Z</time>
      </trkpt>
      <trkpt lat="46.26657" lon="4.66731">
        <ele>675.625</ele>
        <time>2021-04-03T14:52:43Z</time>
      </trkpt>
      <trkpt lat="46.26666" lon="4.66727">
        <ele>677.508</ele>
        <time>2021-04-03T14:52:45Z</time>
      </trkpt>
      <trkpt lat="46.26678" lon="4.66721">
        <ele>680.465</ele>
        <time>2021-04-03T14:52:47Z</time>
      </trkpt>
      <trkpt lat="46.26683" lon="4.66717">
        <ele>682.618</ele>
        <time>2021-04-03T14:52:49Z</time>
      </trkpt>
      <trkpt lat="46.26691" lon="4.66714">
        <ele>685.237</ele>
        <time>2021-04-03T14:52:51Z</time>
      </trkpt>
      <trkpt lat="46.26705" lon="4.66709">
        <ele>687.389</ele>
        <time>2021-04-03T14:52:53Z</time>
      </trkpt>
      <trkpt lat="46.2672" lon="4.66698">
        <ele>689.241</ele>
        <time>2021-04-03T14:52:55Z</time>
      </trkpt>
      <trkpt lat="46.26731" lon="4.66691">
        <ele>692.187</ele>
        <time>2021-04-03T14:52:57Z</time>
      </trkpt>
      <trkpt lat="46.26745" lon="4.66689">
        <ele>694.524</ele>
        <time>2021-04-03T14:52:59Z</time>
      </trkpt>
      <trkpt lat="46.26757" lon="4.66689">
        <ele>697.621</ele>
        <time>2021-04-03T14:53:01Z</time>
      </trkpt>
      <trkpt lat="46.26769" lon="4.66687">
        <ele>700.652</ele>
        <time>2021-04-03T14:53:03Z</time>
      </trkpt>
      <trkpt lat="46.26778" lon="4.66683">
        <ele>702.953</ele>
        <time>2021-04-03T14:53:05Z</time>
      </trkpt>
      <trkpt lat="46.26785" lon="4.66675">
        <ele>705.308</ele>
        <time>2021-04-03T14:53:07Z</time>
      </trkpt>
      <trkpt lat="46.26788" lon="4.66666">
        <ele>708.408</ele>
        <time>2021-04-03T14:53:09Z</time>
      </trkpt>
      <trkpt lat="46.26796" lon="4.6666">
        <ele>711.271</ele>
        <time>2021-04-03T14:53:11Z</time>
      </trkpt>
      <trkpt lat="46.26806" lon="4.66659">
        <ele>713.754</ele>
        <time>2021-04-03T14:53:13Z</time>
      </trkpt>
      <trkpt lat="46.26817" lon="4.66655">
        <ele>716.053</ele>
        <time>2021-04-03T14:53:15Z</time>
      </trkpt>
      <trkpt lat="46.26829" lon="4.66653">
        <ele>718.955</ele>
        <time>2021-04-03T14:53:17Z</time>
      </trkpt>
      <trkpt lat="46.26842" lon="4.66652">
        <ele>721.937</ele>
        <time>2021-04-03T14:53:19Z</time>
      </trkpt>
      <trkpt lat="46.2685" lon="4.66648">
        <ele>724.083</ele>
        <time>2021-04-03T14:53:21Z</time>
      </trkpt>
      <trkpt lat="46.26839" lon="4.66655">
        <ele>728.06</ele>
        <time>2021-04-03T14:54:53Z</time>
      </trkpt>
      <trkpt lat="46.26831" lon="4.66658">
        <ele>732.087</ele>
        <time>2021-04-03T14:54:55Z</time>
      </trkpt>
      <trkpt lat="46.26821" lon="4.66658">
        <ele>734.089</ele>
        <time>2021-04-03T14:54:57Z</time>
      </trkpt>
      <trkpt lat="46.26815" lon="4.66655">
        <ele>735.206</ele>
        <time>2021-04-03T14:54:59Z</time>
      </trkpt>
      <trkpt lat="46.26813" lon="4.6665">
        <ele>735.926</ele>
        <time>2021-04-03T14:55:07Z</time>
      </trkpt>
      <trkpt lat="46.26821" lon="4.66654">
        <ele>733.308</ele>
        <time>2021-04-03T14:55:15Z</time>
      </trkpt>
      <trkpt lat="46.26833" lon="4.66654">
        <ele>732.414</ele>
        <time>2021-04-03T14:55:17Z</time>
      </trkpt>
      <trkpt lat="46.26845" lon="4.66651">
        <ele>732.347</ele>
        <time>2021-04-03T14:55:19Z</time>
      </trkpt>
      <trkpt lat="46.26857" lon="4.6665">
        <ele>732.576</ele>
        <time>2021-04-03T14:55:21Z</time>
      </trkpt>
      <trkpt lat="46.26865" lon="4.66649">
        <ele>732.638</ele>
        <time>2021-04-03T14:55:23Z</time>
      </trkpt>
      <trkpt lat="46.26861" lon="4.66645">
        <ele>734.05</ele>
        <time>2021-04-03T14:55:27Z</time>
      </trkpt>
      <trkpt lat="46.2687" lon="4.66639">
        <ele>735.926</ele>
        <time>2021-04-03T14:55:31Z</time>
      </trkpt>
      <trkpt lat="46.26883" lon="4.66633">
        <ele>737.783</ele>
        <time>2021-04-03T14:55:33Z</time>
      </trkpt>
      <trkpt lat="46.26894" lon="4.66629">
        <ele>738.77</ele>
        <time>2021-04-03T14:55:35Z</time>
      </trkpt>
      <trkpt lat="46.26899" lon="4.66634">
        <ele>739.311</ele>
        <time>2021-04-03T14:55:37Z</time>
      </trkpt>
      <trkpt lat="46.26906" lon="4.66644">
        <ele>736.221</ele>
        <time>2021-04-03T14:55:39Z</time>
      </trkpt>
      <trkpt lat="46.26909" lon="4.66659">
        <ele>736.403</ele>
        <time>2021-04-03T14:55:41Z</time>
      </trkpt>
      <trkpt lat="46.26915" lon="4.6668">
        <ele>737.208</ele>
        <time>2021-04-03T14:55:43Z</time>
      </trkpt>
      <trkpt lat="46.26917" lon="4.66703">
        <ele>736.877</ele>
        <time>2021-04-03T14:55:45Z</time>
      </trkpt>
      <trkpt lat="46.2692" lon="4.66725">
        <ele>736.91</ele>
        <time>2021-04-03T14:55:47Z</time>
      </trkpt>
      <trkpt lat="46.26922" lon="4.66747">
        <ele>737.549</ele>
        <time>2021-04-03T14:55:49Z</time>
      </trkpt>
      <trkpt lat="46.26925" lon="4.66765">
        <ele>739.441</ele>
        <time>2021-04-03T14:55:51Z</time>
      </trkpt>
      <trkpt lat="46.2693" lon="4.66781">
        <ele>740.773</ele>
        <time>2021-04-03T14:55:53Z</time>
      </trkpt>
      <trkpt lat="46.26931" lon="4.66795">
        <ele>741.279</ele>
        <time>2021-04-03T14:55:55Z</time>
      </trkpt>
      <trkpt lat="46.26932" lon="4.66804">
        <ele>741.236</ele>
        <time>2021-04-03T14:55:57Z</time>
      </trkpt>
      <trkpt lat="46.26939" lon="4.66806">
        <ele>740.583</ele>
        <time>2021-04-03T14:56:07Z</time>
      </trkpt>
      <trkpt lat="46.26949" lon="4.66809">
        <ele>741.037</ele>
        <time>2021-04-03T14:56:09Z</time>
      </trkpt>
      <trkpt lat="46.2696" lon="4.66817">
        <ele>741.149</ele>
        <time>2021-04-03T14:56:11Z</time>
      </trkpt>
      <trkpt lat="46.26964" lon="4.6683">
        <ele>740.313</ele>
        <time>2021-04-03T14:56:13Z</time>
      </trkpt>
      <trkpt lat="46.26966" lon="4.66838">
        <ele>739.708</ele>
        <time>2021-04-03T14:56:15Z</time>
      </trkpt>
      <trkpt lat="46.26972" lon="4.66851">
        <ele>738.859</ele>
        <time>2021-04-03T14:56:17Z</time>
      </trkpt>
      <trkpt lat="46.26978" lon="4.66864">
        <ele>738.362</ele>
        <time>2021-04-03T14:56:19Z</time>
      </trkpt>
      <trkpt lat="46.26982" lon="4.66874">
        <ele>737.361</ele>
        <time>2021-04-03T14:56:21Z</time>
      </trkpt>
      <trkpt lat="46.26987" lon="4.66893">
        <ele>736.873</ele>
        <time>2021-04-03T14:56:23Z</time>
      </trkpt>
      <trkpt lat="46.26992" lon="4.66909">
        <ele>735.865</ele>
        <time>2021-04-03T14:56:25Z</time>
      </trkpt>
      <trkpt lat="46.26998" lon="4.66927">
        <ele>734.981</ele>
        <time>2021-04-03T14:56:27Z</time>
      </trkpt>
      <trkpt lat="46.27001" lon="4.66946">
        <ele>734.098</ele>
        <time>2021-04-03T14:56:29Z</time>
      </trkpt>
      <trkpt lat="46.26997" lon="4.6697">
        <ele>732.895</ele>
        <time>2021-04-03T14:56:31Z</time>
      </trkpt>
      <trkpt lat="46.26995" lon="4.66995">
        <ele>731.288</ele>
        <time>2021-04-03T14:56:33Z</time>
      </trkpt>
      <trkpt lat="46.26992" lon="4.67016">
        <ele>729.924</ele>
        <time>2021-04-03T14:56:35Z</time>
      </trkpt>
      <trkpt lat="46.26986" lon="4.67036">
        <ele>728.426</ele>
        <time>2021-04-03T14:56:37Z</time>
      </trkpt>
      <trkpt lat="46.26981" lon="4.67062">
        <ele>727.108</ele>
        <time>2021-04-03T14:56:39Z</time>
      </trkpt>
      <trkpt lat="46.26981" lon="4.67092">
        <ele>723.684</ele>
        <time>2021-04-03T14:56:41Z</time>
      </trkpt>
      <trkpt lat="46.26976" lon="4.67119">
        <ele>720.627</ele>
        <time>2021-04-03T14:56:43Z</time>
      </trkpt>
      <trkpt lat="46.26968" lon="4.67149">
        <ele>718.036</ele>
        <time>2021-04-03T14:56:45Z</time>
      </trkpt>
      <trkpt lat="46.2696" lon="4.67174">
        <ele>714.578</ele>
        <time>2021-04-03T14:56:47Z</time>
      </trkpt>
      <trkpt lat="46.2695" lon="4.67196">
        <ele>711.64</ele>
        <time>2021-04-03T14:56:49Z</time>
      </trkpt>
      <trkpt lat="46.26945" lon="4.67216">
        <ele>708.856</ele>
        <time>2021-04-03T14:56:51Z</time>
      </trkpt>
      <trkpt lat="46.26947" lon="4.67238">
        <ele>706.613</ele>
        <time>2021-04-03T14:56:53Z</time>
      </trkpt>
      <trkpt lat="46.2695" lon="4.67253">
        <ele>704.65</ele>
        <time>2021-04-03T14:56:55Z</time>
      </trkpt>
      <trkpt lat="46.26958" lon="4.6726">
        <ele>703.069</ele>
        <time>2021-04-03T14:56:57Z</time>
      </trkpt>
      <trkpt lat="46.26962" lon="4.67263">
        <ele>701.804</ele>
        <time>2021-04-03T14:56:59Z</time>
      </trkpt>
      <trkpt lat="46.26966" lon="4.67268">
        <ele>700.424</ele>
        <time>2021-04-03T14:57:01Z</time>
      </trkpt>
      <trkpt lat="46.26973" lon="4.67275">
        <ele>699.008</ele>
        <time>2021-04-03T14:57:21Z</time>
      </trkpt>
      <trkpt lat="46.2699" lon="4.67283">
        <ele>697.812</ele>
        <time>2021-04-03T14:57:23Z</time>
      </trkpt>
      <trkpt lat="46.27017" lon="4.67293">
        <ele>697.155</ele>
        <time>2021-04-03T14:57:25Z</time>
      </trkpt>
      <trkpt lat="46.27049" lon="4.67313">
        <ele>695.924</ele>
        <time>2021-04-03T14:57:27Z</time>
      </trkpt>
      <trkpt lat="46.27078" lon="4.67332">
        <ele>694.746</ele>
        <time>2021-04-03T14:57:29Z</time>
      </trkpt>
      <trkpt lat="46.27107" lon="4.67346">
        <ele>693.228</ele>
        <time>2021-04-03T14:57:31Z</time>
      </trkpt>
      <trkpt lat="46.27131" lon="4.67359">
        <ele>691.874</ele>
        <time>2021-04-03T14:57:33Z</time>
      </trkpt>
      <trkpt lat="46.27153" lon="4.67375">
        <ele>690.661</ele>
        <time>2021-04-03T14:57:35Z</time>
      </trkpt>
      <trkpt lat="46.27173" lon="4.67396">
        <ele>689.568</ele>
        <time>2021-04-03T14:57:37Z</time>
      </trkpt>
      <trkpt lat="46.27194" lon="4.67416">
        <ele>688.098</ele>
        <time>2021-04-03T14:57:39Z</time>
      </trkpt>
      <trkpt lat="46.27212" lon="4.67433">
        <ele>687.015</ele>
        <time>2021-04-03T14:57:41Z</time>
      </trkpt>
      <trkpt lat="46.27229" lon="4.6745">
        <ele>685.926</ele>
        <time>2021-04-03T14:57:43Z</time>
      </trkpt>
      <trkpt lat="46.27246" lon="4.67467">
        <ele>684.908</ele>
        <time>2021-04-03T14:57:45Z</time>
      </trkpt>
      <trkpt lat="46.27262" lon="4.67483">
        <ele>683.355</ele>
        <time>2021-04-03T14:57:47Z</time>
      </trkpt>
      <trkpt lat="46.27279" lon="4.67494">
        <ele>681.888</ele>
        <time>2021-04-03T14:57:49Z</time>
      </trkpt>
      <trkpt lat="46.27296" lon="4.67496">
        <ele>680.787</ele>
        <time>2021-04-03T14:57:51Z</time>
      </trkpt>
      <trkpt lat="46.27315" lon="4.67491">
        <ele>679.879</ele>
        <time>2021-04-03T14:57:53Z</time>
      </trkpt>
      <trkpt lat="46.27333" lon="4.67484">
        <ele>679.041</ele>
        <time>2021-04-03T14:57:55Z</time>
      </trkpt>
      <trkpt lat="46.27351" lon="4.67483">
        <ele>677.787</ele>
        <time>2021-04-03T14:57:57Z</time>
      </trkpt>
      <trkpt lat="46.2737" lon="4.67492">
        <ele>677.184</ele>
        <time>2021-04-03T14:57:59Z</time>
      </trkpt>
      <trkpt lat="46.27387" lon="4.67511">
        <ele>677.311</ele>
        <time>2021-04-03T14:58:01Z</time>
      </trkpt>
      <trkpt lat="46.27401" lon="4.67539">
        <ele>677.458</ele>
        <time>2021-04-03T14:58:03Z</time>
      </trkpt>
      <trkpt lat="46.27411" lon="4.67571">
        <ele>678.052</ele>
        <time>2021-04-03T14:58:05Z</time>
      </trkpt>
      <trkpt lat="46.27418" lon="4.67598">
        <ele>678.517</ele>
        <time>2021-04-03T14:58:07Z</time>
      </trkpt>
      <trkpt lat="46.27424" lon="4.67621">
        <ele>678.708</ele>
        <time>2021-04-03T14:58:09Z</time>
      </trkpt>
      <trkpt lat="46.27434" lon="4.67638">
        <ele>679.111</ele>
        <time>2021-04-03T14:58:11Z</time>
      </trkpt>
      <trkpt lat="46.27452" lon="4.67655">
        <ele>681.254</ele>
        <time>2021-04-03T14:58:13Z</time>
      </trkpt>
      <trkpt lat="46.27472" lon="4.67671">
        <ele>683.383</ele>
        <time>2021-04-03T14:58:15Z</time>
      </trkpt>
      <trkpt lat="46.27488" lon="4.6769">
        <ele>685.385</ele>
        <time>2021-04-03T14:58:17Z</time>
      </trkpt>
      <trkpt lat="46.27502" lon="4.67706">
        <ele>687.457</ele>
        <time>2021-04-03T14:58:19Z</time>
      </trkpt>
      <trkpt lat="46.27518" lon="4.67712">
        <ele>689.083</ele>
        <time>2021-04-03T14:58:21Z</time>
      </trkpt>
      <trkpt lat="46.2754" lon="4.67712">
        <ele>688.76</ele>
        <time>2021-04-03T14:58:23Z</time>
      </trkpt>
      <trkpt lat="46.27562" lon="4.67709">
        <ele>688.047</ele>
        <time>2021-04-03T14:58:25Z</time>
      </trkpt>
      <trkpt lat="46.27579" lon="4.67709">
        <ele>686.844</ele>
        <time>2021-04-03T14:58:27Z</time>
      </trkpt>
      <trkpt lat="46.27597" lon="4.67716">
        <ele>686.905</ele>
        <time>2021-04-03T14:58:29Z</time>
      </trkpt>
      <trkpt lat="46.27617" lon="4.67731">
        <ele>687.515</ele>
        <time>2021-04-03T14:58:31Z</time>
      </trkpt>
      <trkpt lat="46.27635" lon="4.67754">
        <ele>686.908</ele>
        <time>2021-04-03T14:58:33Z</time>
      </trkpt>
      <trkpt lat="46.27655" lon="4.67774">
        <ele>685.87</ele>
        <time>2021-04-03T14:58:35Z</time>
      </trkpt>
      <trkpt lat="46.27674" lon="4.67781">
        <ele>685.263</ele>
        <time>2021-04-03T14:58:37Z</time>
      </trkpt>
      <trkpt lat="46.27692" lon="4.67787">
        <ele>685.772</ele>
        <time>2021-04-03T14:58:39Z</time>
      </trkpt>
      <trkpt lat="46.27709" lon="4.6779">
        <ele>686.424</ele>
        <time>2021-04-03T14:58:41Z</time>
      </trkpt>
      <trkpt lat="46.27729" lon="4.67797">
        <ele>687.016</ele>
        <time>2021-04-03T14:58:43Z</time>
      </trkpt>
      <trkpt lat="46.27751" lon="4.67807">
        <ele>687.682</ele>
        <time>2021-04-03T14:58:45Z</time>
      </trkpt>
      <trkpt lat="46.27773" lon="4.67824">
        <ele>688.839</ele>
        <time>2021-04-03T14:58:47Z</time>
      </trkpt>
      <trkpt lat="46.27797" lon="4.67843">
        <ele>690.036</ele>
        <time>2021-04-03T14:58:49Z</time>
      </trkpt>
      <trkpt lat="46.27818" lon="4.67859">
        <ele>691.388</ele>
        <time>2021-04-03T14:58:51Z</time>
      </trkpt>
      <trkpt lat="46.27835" lon="4.67869">
        <ele>693.224</ele>
        <time>2021-04-03T14:58:53Z</time>
      </trkpt>
      <trkpt lat="46.27848" lon="4.67865">
        <ele>695.126</ele>
        <time>2021-04-03T14:58:55Z</time>
      </trkpt>
      <trkpt lat="46.27859" lon="4.67857">
        <ele>696.908</ele>
        <time>2021-04-03T14:58:57Z</time>
      </trkpt>
      <trkpt lat="46.27872" lon="4.6785">
        <ele>698.224</ele>
        <time>2021-04-03T14:58:59Z</time>
      </trkpt>
      <trkpt lat="46.2788" lon="4.67846">
        <ele>699.397</ele>
        <time>2021-04-03T14:59:01Z</time>
      </trkpt>
      <trkpt lat="46.27902" lon="4.67847">
        <ele>699.836</ele>
        <time>2021-04-03T14:59:09Z</time>
      </trkpt>
      <trkpt lat="46.27922" lon="4.67855">
        <ele>701.498</ele>
        <time>2021-04-03T14:59:11Z</time>
      </trkpt>
      <trkpt lat="46.27942" lon="4.67876">
        <ele>703.99</ele>
        <time>2021-04-03T14:59:13Z</time>
      </trkpt>
      <trkpt lat="46.27954" lon="4.67897">
        <ele>707.156</ele>
        <time>2021-04-03T14:59:15Z</time>
      </trkpt>
      <trkpt lat="46.27963" lon="4.67924">
        <ele>710.113</ele>
        <time>2021-04-03T14:59:17Z</time>
      </trkpt>
      <trkpt lat="46.27968" lon="4.67956">
        <ele>712.45</ele>
        <time>2021-04-03T14:59:19Z</time>
      </trkpt>
      <trkpt lat="46.27979" lon="4.67978">
        <ele>714.712</ele>
        <time>2021-04-03T14:59:21Z</time>
      </trkpt>
      <trkpt lat="46.27995" lon="4.67997">
        <ele>716.932</ele>
        <time>2021-04-03T14:59:23Z</time>
      </trkpt>
      <trkpt lat="46.28016" lon="4.68011">
        <ele>719.605</ele>
        <time>2021-04-03T14:59:25Z</time>
      </trkpt>
      <trkpt lat="46.28038" lon="4.68023">
        <ele>723.608</ele>
        <time>2021-04-03T14:59:27Z</time>
      </trkpt>
      <trkpt lat="46.2806" lon="4.68036">
        <ele>726.947</ele>
        <time>2021-04-03T14:59:29Z</time>
      </trkpt>
      <trkpt lat="46.28084" lon="4.68049">
        <ele>728.84</ele>
        <time>2021-04-03T14:59:31Z</time>
      </trkpt>
      <trkpt lat="46.28104" lon="4.68062">
        <ele>729.579</ele>
        <time>2021-04-03T14:59:33Z</time>
      </trkpt>
      <trkpt lat="46.28115" lon="4.68073">
        <ele>730.011</ele>
        <time>2021-04-03T14:59:35Z</time>
      </trkpt>
      <trkpt lat="46.28122" lon="4.68081">
        <ele>730.713</ele>
        <time>2021-04-03T14:59:37Z</time>
      </trkpt>
      <trkpt lat="46.28137" lon="4.68084">
        <ele>731.639</ele>
        <time>2021-04-03T14:59:41Z</time>
      </trkpt>
      <trkpt lat="46.28149" lon="4.68086">
        <ele>732.366</ele>
        <time>2021-04-03T14:59:43Z</time>
      </trkpt>
      <trkpt lat="46.28156" lon="4.68092">
        <ele>732.573</ele>
        <time>2021-04-03T14:59:45Z</time>
      </trkpt>
      <trkpt lat="46.2816" lon="4.68108">
        <ele>731.676</ele>
        <time>2021-04-03T15:00:13Z</time>
      </trkpt>
      <trkpt lat="46.2817" lon="4.68119">
        <ele>730.69</ele>
        <time>2021-04-03T15:00:15Z</time>
      </trkpt>
      <trkpt lat="46.28183" lon="4.68124">
        <ele>729.719</ele>
        <time>2021-04-03T15:00:17Z</time>
      </trkpt>
      <trkpt lat="46.28194" lon="4.6813">
        <ele>728.808</ele>
        <time>2021-04-03T15:00:19Z</time>
      </trkpt>
      <trkpt lat="46.28203" lon="4.68138">
        <ele>727.743</ele>
        <time>2021-04-03T15:00:21Z</time>
      </trkpt>
      <trkpt lat="46.28216" lon="4.6815">
        <ele>725.876</ele>
        <time>2021-04-03T15:00:23Z</time>
      </trkpt>
      <trkpt lat="46.28233" lon="4.68167">
        <ele>723.195</ele>
        <time>2021-04-03T15:00:25Z</time>
      </trkpt>
      <trkpt lat="46.28249" lon="4.68185">
        <ele>720.697</ele>
        <time>2021-04-03T15:00:27Z</time>
      </trkpt>
      <trkpt lat="46.28265" lon="4.68205">
        <ele>718.239</ele>
        <time>2021-04-03T15:00:29Z</time>
      </trkpt>
      <trkpt lat="46.2828" lon="4.6822">
        <ele>716.475</ele>
        <time>2021-04-03T15:00:31Z</time>
      </trkpt>
      <trkpt lat="46.28291" lon="4.68233">
        <ele>715.052</ele>
        <time>2021-04-03T15:00:33Z</time>
      </trkpt>
      <trkpt lat="46.28301" lon="4.68251">
        <ele>714.319</ele>
        <time>2021-04-03T15:00:35Z</time>
      </trkpt>
      <trkpt lat="46.28312" lon="4.68271">
        <ele>713.762</ele>
        <time>2021-04-03T15:00:37Z</time>
      </trkpt>
      <trkpt lat="46.28319" lon="4.68289">
        <ele>713.383</ele>
        <time>2021-04-03T15:00:39Z</time>
      </trkpt>
      <trkpt lat="46.28325" lon="4.68304">
        <ele>713.211</ele>
        <time>2021-04-03T15:00:41Z</time>
      </trkpt>
      <trkpt lat="46.28326" lon="4.68311">
        <ele>713.308</ele>
        <time>2021-04-03T15:00:43Z</time>
      </trkpt>
      <trkpt lat="46.28333" lon="4.68315">
        <ele>712.362</ele>
        <time>2021-04-03T15:00:49Z</time>
      </trkpt>
      <trkpt lat="46.28346" lon="4.68323">
        <ele>711.355</ele>
        <time>2021-04-03T15:00:51Z</time>
      </trkpt>
      <trkpt lat="46.28364" lon="4.68333">
        <ele>710.744</ele>
        <time>2021-04-03T15:00:53Z</time>
      </trkpt>
      <trkpt lat="46.28383" lon="4.68339">
        <ele>710.166</ele>
        <time>2021-04-03T15:00:55Z</time>
      </trkpt>
      <trkpt lat="46.28395" lon="4.68347">
        <ele>708.728</ele>
        <time>2021-04-03T15:00:57Z</time>
      </trkpt>
      <trkpt lat="46.28401" lon="4.68356">
        <ele>707.454</ele>
        <time>2021-04-03T15:00:59Z</time>
      </trkpt>
      <trkpt lat="46.28406" lon="4.68369">
        <ele>706.851</ele>
        <time>2021-04-03T15:01:01Z</time>
      </trkpt>
      <trkpt lat="46.28401" lon="4.68385">
        <ele>707.088</ele>
        <time>2021-04-03T15:01:05Z</time>
      </trkpt>
      <trkpt lat="46.28396" lon="4.684">
        <ele>707.765</ele>
        <time>2021-04-03T15:01:07Z</time>
      </trkpt>
      <trkpt lat="46.28388" lon="4.68419">
        <ele>708.168</ele>
        <time>2021-04-03T15:01:09Z</time>
      </trkpt>
      <trkpt lat="46.2838" lon="4.68433">
        <ele>707.514</ele>
        <time>2021-04-03T15:01:11Z</time>
      </trkpt>
      <trkpt lat="46.28372" lon="4.68437">
        <ele>707.408</ele>
        <time>2021-04-03T15:01:13Z</time>
      </trkpt>
      <trkpt lat="46.28363" lon="4.68443">
        <ele>709.792</ele>
        <time>2021-04-03T15:01:17Z</time>
      </trkpt>
      <trkpt lat="46.28358" lon="4.68452">
        <ele>710.095</ele>
        <time>2021-04-03T15:01:19Z</time>
      </trkpt>
      <trkpt lat="46.28354" lon="4.68463">
        <ele>709.374</ele>
        <time>2021-04-03T15:01:21Z</time>
      </trkpt>
      <trkpt lat="46.2835" lon="4.68474">
        <ele>708.446</ele>
        <time>2021-04-03T15:01:23Z</time>
      </trkpt>
      <trkpt lat="46.28347" lon="4.68491">
        <ele>706.458</ele>
        <time>2021-04-03T15:01:25Z</time>
      </trkpt>
      <trkpt lat="46.28346" lon="4.68509">
        <ele>704.384</ele>
        <time>2021-04-03T15:01:27Z</time>
      </trkpt>
      <trkpt lat="46.28345" lon="4.68529">
        <ele>701.861</ele>
        <time>2021-04-03T15:01:29Z</time>
      </trkpt>
      <trkpt lat="46.28347" lon="4.6855">
        <ele>698.868</ele>
        <time>2021-04-03T15:01:31Z</time>
      </trkpt>
      <trkpt lat="46.28348" lon="4.68571">
        <ele>696.872</ele>
        <time>2021-04-03T15:01:33Z</time>
      </trkpt>
      <trkpt lat="46.28354" lon="4.68591">
        <ele>692.813</ele>
        <time>2021-04-03T15:01:35Z</time>
      </trkpt>
      <trkpt lat="46.28361" lon="4.68611">
        <ele>688.814</ele>
        <time>2021-04-03T15:01:37Z</time>
      </trkpt>
      <trkpt lat="46.28364" lon="4.6863">
        <ele>684.808</ele>
        <time>2021-04-03T15:01:39Z</time>
      </trkpt>
      <trkpt lat="46.28367" lon="4.68651">
        <ele>680.873</ele>
        <time>2021-04-03T15:01:41Z</time>
      </trkpt>
      <trkpt lat="46.28372" lon="4.68671">
        <ele>681.686</ele>
        <time>2021-04-03T15:01:43Z</time>
      </trkpt>
      <trkpt lat="46.28375" lon="4.68694">
        <ele>677.645</ele>
        <time>2021-04-03T15:01:45Z</time>
      </trkpt>
      <trkpt lat="46.28381" lon="4.6872">
        <ele>673.697</ele>
        <time>2021-04-03T15:01:47Z</time>
      </trkpt>
      <trkpt lat="46.28387" lon="4.68745">
        <ele>669.649</ele>
        <time>2021-04-03T15:01:49Z</time>
      </trkpt>
      <trkpt lat="46.28396" lon="4.68771">
        <ele>665.675</ele>
        <time>2021-04-03T15:01:51Z</time>
      </trkpt>
      <trkpt lat="46.28404" lon="4.68795">
        <ele>661.662</ele>
        <time>2021-04-03T15:01:53Z</time>
      </trkpt>
      <trkpt lat="46.28411" lon="4.68817">
        <ele>657.659</ele>
        <time>2021-04-03T15:01:55Z</time>
      </trkpt>
      <trkpt lat="46.28418" lon="4.6884">
        <ele>653.629</ele>
        <time>2021-04-03T15:01:57Z</time>
      </trkpt>
      <trkpt lat="46.28429" lon="4.68859">
        <ele>650.4</ele>
        <time>2021-04-03T15:01:59Z</time>
      </trkpt>
      <trkpt lat="46.28437" lon="4.68877">
        <ele>648.02</ele>
        <time>2021-04-03T15:02:01Z</time>
      </trkpt>
      <trkpt lat="46.28443" lon="4.68895">
        <ele>646.308</ele>
        <time>2021-04-03T15:02:03Z</time>
      </trkpt>
      <trkpt lat="46.28445" lon="4.68915">
        <ele>644.278</ele>
        <time>2021-04-03T15:02:05Z</time>
      </trkpt>
      <trkpt lat="46.28449" lon="4.68934">
        <ele>643.081</ele>
        <time>2021-04-03T15:02:07Z</time>
      </trkpt>
      <trkpt lat="46.2845" lon="4.6895">
        <ele>641.14</ele>
        <time>2021-04-03T15:02:09Z</time>
      </trkpt>
      <trkpt lat="46.28449" lon="4.68965">
        <ele>640.012</ele>
        <time>2021-04-03T15:02:11Z</time>
      </trkpt>
      <trkpt lat="46.28449" lon="4.6898">
        <ele>642.244</ele>
        <time>2021-04-03T15:02:13Z</time>
      </trkpt>
      <trkpt lat="46.28451" lon="4.68995">
        <ele>641.82</ele>
        <time>2021-04-03T15:02:15Z</time>
      </trkpt>
      <trkpt lat="46.28454" lon="4.69012">
        <ele>640.267</ele>
        <time>2021-04-03T15:02:17Z</time>
      </trkpt>
      <trkpt lat="46.28458" lon="4.69033">
        <ele>638.884</ele>
        <time>2021-04-03T15:02:19Z</time>
      </trkpt>
      <trkpt lat="46.28463" lon="4.69049">
        <ele>637.377</ele>
        <time>2021-04-03T15:02:21Z</time>
      </trkpt>
      <trkpt lat="46.28471" lon="4.69064">
        <ele>635.861</ele>
        <time>2021-04-03T15:02:23Z</time>
      </trkpt>
      <trkpt lat="46.28481" lon="4.69077">
        <ele>634.027</ele>
        <time>2021-04-03T15:02:25Z</time>
      </trkpt>
      <trkpt lat="46.28493" lon="4.69091">
        <ele>632.508</ele>
        <time>2021-04-03T15:02:27Z</time>
      </trkpt>
      <trkpt lat="46.28506" lon="4.69102">
        <ele>631.223</ele>
        <time>2021-04-03T15:02:29Z</time>
      </trkpt>
      <trkpt lat="46.28522" lon="4.69108">
        <ele>630.226</ele>
        <time>2021-04-03T15:02:31Z</time>
      </trkpt>
      <trkpt lat="46.28544" lon="4.69106">
        <ele>629.035</ele>
        <time>2021-04-03T15:02:33Z</time>
      </trkpt>
      <trkpt lat="46.2857" lon="4.69104">
        <ele>627.987</ele>
        <time>2021-04-03T15:02:35Z</time>
      </trkpt>
      <trkpt lat="46.28591" lon="4.69107">
        <ele>631.969</ele>
        <time>2021-04-03T15:02:37Z</time>
      </trkpt>
      <trkpt lat="46.28608" lon="4.69109">
        <ele>634.245</ele>
        <time>2021-04-03T15:02:39Z</time>
      </trkpt>
      <trkpt lat="46.28614" lon="4.69111">
        <ele>633.672</ele>
        <time>2021-04-03T15:02:41Z</time>
      </trkpt>
      <trkpt lat="46.28608" lon="4.6911">
        <ele>630.679</ele>
        <time>2021-04-03T15:02:45Z</time>
      </trkpt>
      <trkpt lat="46.28614" lon="4.69114">
        <ele>627.327</ele>
        <time>2021-04-03T15:02:49Z</time>
      </trkpt>
      <trkpt lat="46.28628" lon="4.69124">
        <ele>624.668</ele>
        <time>2021-04-03T15:02:51Z</time>
      </trkpt>
      <trkpt lat="46.28647" lon="4.69142">
        <ele>628.614</ele>
        <time>2021-04-03T15:02:53Z</time>
      </trkpt>
      <trkpt lat="46.28668" lon="4.69167">
        <ele>627.608</ele>
        <time>2021-04-03T15:02:55Z</time>
      </trkpt>
      <trkpt lat="46.28689" lon="4.69191">
        <ele>623.668</ele>
        <time>2021-04-03T15:02:57Z</time>
      </trkpt>
      <trkpt lat="46.28709" lon="4.69208">
        <ele>619.621</ele>
        <time>2021-04-03T15:02:59Z</time>
      </trkpt>
      <trkpt lat="46.28722" lon="4.69222">
        <ele>616.98</ele>
        <time>2021-04-03T15:03:01Z</time>
      </trkpt>
      <trkpt lat="46.28729" lon="4.6923">
        <ele>614.182</ele>
        <time>2021-04-03T15:03:03Z</time>
      </trkpt>
      <trkpt lat="46.2874" lon="4.69238">
        <ele>611.924</ele>
        <time>2021-04-03T15:03:05Z</time>
      </trkpt>
      <trkpt lat="46.28751" lon="4.6925">
        <ele>609.85</ele>
        <time>2021-04-03T15:03:07Z</time>
      </trkpt>
      <trkpt lat="46.28759" lon="4.69267">
        <ele>608.297</ele>
        <time>2021-04-03T15:03:09Z</time>
      </trkpt>
      <trkpt lat="46.28766" lon="4.69286">
        <ele>606.214</ele>
        <time>2021-04-03T15:03:11Z</time>
      </trkpt>
      <trkpt lat="46.28771" lon="4.69303">
        <ele>604.227</ele>
        <time>2021-04-03T15:03:13Z</time>
      </trkpt>
      <trkpt lat="46.2878" lon="4.69311">
        <ele>602.668</ele>
        <time>2021-04-03T15:03:15Z</time>
      </trkpt>
      <trkpt lat="46.28792" lon="4.69313">
        <ele>601.714</ele>
        <time>2021-04-03T15:03:17Z</time>
      </trkpt>
      <trkpt lat="46.28808" lon="4.69316">
        <ele>600.808</ele>
        <time>2021-04-03T15:03:19Z</time>
      </trkpt>
      <trkpt lat="46.28823" lon="4.6932">
        <ele>599.938</ele>
        <time>2021-04-03T15:03:21Z</time>
      </trkpt>
      <trkpt lat="46.28838" lon="4.69326">
        <ele>598.741</ele>
        <time>2021-04-03T15:03:23Z</time>
      </trkpt>
      <trkpt lat="46.28852" lon="4.69327">
        <ele>596.69</ele>
        <time>2021-04-03T15:03:25Z</time>
      </trkpt>
      <trkpt lat="46.28866" lon="4.69325">
        <ele>594.872</ele>
        <time>2021-04-03T15:03:27Z</time>
      </trkpt>
      <trkpt lat="46.2888" lon="4.69329">
        <ele>592.534</ele>
        <time>2021-04-03T15:03:29Z</time>
      </trkpt>
      <trkpt lat="46.28897" lon="4.69337">
        <ele>591.16</ele>
        <time>2021-04-03T15:03:31Z</time>
      </trkpt>
      <trkpt lat="46.28914" lon="4.69345">
        <ele>594.527</ele>
        <time>2021-04-03T15:03:33Z</time>
      </trkpt>
      <trkpt lat="46.28928" lon="4.6935">
        <ele>593.454</ele>
        <time>2021-04-03T15:03:35Z</time>
      </trkpt>
      <trkpt lat="46.28944" lon="4.69356">
        <ele>589.846</ele>
        <time>2021-04-03T15:03:37Z</time>
      </trkpt>
      <trkpt lat="46.28958" lon="4.69365">
        <ele>585.988</ele>
        <time>2021-04-03T15:03:39Z</time>
      </trkpt>
      <trkpt lat="46.28968" lon="4.69377">
        <ele>583.016</ele>
        <time>2021-04-03T15:03:41Z</time>
      </trkpt>
      <trkpt lat="46.28975" lon="4.69389">
        <ele>581.308</ele>
        <time>2021-04-03T15:03:43Z</time>
      </trkpt>
      <trkpt lat="46.28979" lon="4.69403">
        <ele>584.13</ele>
        <time>2021-04-03T15:03:45Z</time>
      </trkpt>
      <trkpt lat="46.28986" lon="4.69413">
        <ele>584.513</ele>
        <time>2021-04-03T15:03:47Z</time>
      </trkpt>
      <trkpt lat="46.28996" lon="4.69423">
        <ele>582.992</ele>
        <time>2021-04-03T15:03:49Z</time>
      </trkpt>
      <trkpt lat="46.29007" lon="4.69434">
        <ele>578.954</ele>
        <time>2021-04-03T15:03:51Z</time>
      </trkpt>
      <trkpt lat="46.29017" lon="4.6945">
        <ele>574.956</ele>
        <time>2021-04-03T15:03:53Z</time>
      </trkpt>
      <trkpt lat="46.29028" lon="4.69465">
        <ele>570.952</ele>
        <time>2021-04-03T15:03:55Z</time>
      </trkpt>
      <trkpt lat="46.29037" lon="4.69476">
        <ele>566.919</ele>
        <time>2021-04-03T15:03:57Z</time>
      </trkpt>
      <trkpt lat="46.29046" lon="4.69483">
        <ele>562.986</ele>
        <time>2021-04-03T15:03:59Z</time>
      </trkpt>
      <trkpt lat="46.29055" lon="4.69488">
        <ele>559.044</ele>
        <time>2021-04-03T15:04:01Z</time>
      </trkpt>
      <trkpt lat="46.29064" lon="4.69492">
        <ele>556.705</ele>
        <time>2021-04-03T15:04:03Z</time>
      </trkpt>
      <trkpt lat="46.29074" lon="4.69498">
        <ele>554.015</ele>
        <time>2021-04-03T15:04:07Z</time>
      </trkpt>
      <trkpt lat="46.29082" lon="4.69525">
        <ele>554.508</ele>
        <time>2021-04-03T15:04:11Z</time>
      </trkpt>
      <trkpt lat="46.29083" lon="4.69542">
        <ele>554.83</ele>
        <time>2021-04-03T15:04:13Z</time>
      </trkpt>
      <trkpt lat="46.2908" lon="4.69556">
        <ele>555.073</ele>
        <time>2021-04-03T15:04:15Z</time>
      </trkpt>
      <trkpt lat="46.29075" lon="4.69564">
        <ele>555.182</ele>
        <time>2021-04-03T15:04:17Z</time>
      </trkpt>
      <trkpt lat="46.29069" lon="4.69578">
        <ele>555.264</ele>
        <time>2021-04-03T15:04:19Z</time>
      </trkpt>
      <trkpt lat="46.29062" lon="4.69588">
        <ele>555.236</ele>
        <time>2021-04-03T15:04:21Z</time>
      </trkpt>
      <trkpt lat="46.29067" lon="4.69599">
        <ele>554.932</ele>
        <time>2021-04-03T15:04:43Z</time>
      </trkpt>
      <trkpt lat="46.29077" lon="4.69603">
        <ele>554.889</ele>
        <time>2021-04-03T15:04:45Z</time>
      </trkpt>
      <trkpt lat="46.29092" lon="4.69604">
        <ele>554.776</ele>
        <time>2021-04-03T15:04:47Z</time>
      </trkpt>
      <trkpt lat="46.29105" lon="4.69601">
        <ele>554.754</ele>
        <time>2021-04-03T15:04:49Z</time>
      </trkpt>
      <trkpt lat="46.29117" lon="4.69595">
        <ele>554.756</ele>
        <time>2021-04-03T15:04:51Z</time>
      </trkpt>
      <trkpt lat="46.29127" lon="4.69587">
        <ele>554.711</ele>
        <time>2021-04-03T15:04:53Z</time>
      </trkpt>
      <trkpt lat="46.29138" lon="4.69575">
        <ele>554.708</ele>
        <time>2021-04-03T15:04:55Z</time>
      </trkpt>
      <trkpt lat="46.29149" lon="4.6956">
        <ele>554.721</ele>
        <time>2021-04-03T15:04:57Z</time>
      </trkpt>
      <trkpt lat="46.29159" lon="4.69541">
        <ele>554.744</ele>
        <time>2021-04-03T15:04:59Z</time>
      </trkpt>
      <trkpt lat="46.29167" lon="4.69522">
        <ele>554.753</ele>
        <time>2021-04-03T15:05:01Z</time>
      </trkpt>
      <trkpt lat="46.29174" lon="4.69502">
        <ele>554.775</ele>
        <time>2021-04-03T15:05:03Z</time>
      </trkpt>
      <trkpt lat="46.29182" lon="4.69486">
        <ele>554.767</ele>
        <time>2021-04-03T15:05:05Z</time>
      </trkpt>
      <trkpt lat="46.29191" lon="4.69478">
        <ele>554.723</ele>
        <time>2021-04-03T15:05:07Z</time>
      </trkpt>
      <trkpt lat="46.29198" lon="4.6948">
        <ele>554.77</ele>
        <time>2021-04-03T15:05:11Z</time>
      </trkpt>
      <trkpt lat="46.29202" lon="4.69477">
        <ele>554.717</ele>
        <time>2021-04-03T15:05:17Z</time>
      </trkpt>
      <trkpt lat="46.29208" lon="4.69473">
        <ele>554.718</ele>
        <time>2021-04-03T15:05:19Z</time>
      </trkpt>
      <trkpt lat="46.29216" lon="4.69472">
        <ele>554.798</ele>
        <time>2021-04-03T15:05:21Z</time>
      </trkpt>
      <trkpt lat="46.29223" lon="4.69476">
        <ele>554.717</ele>
        <time>2021-04-03T15:05:23Z</time>
      </trkpt>
      <trkpt lat="46.2923" lon="4.69479">
        <ele>554.708</ele>
        <time>2021-04-03T15:05:25Z</time>
      </trkpt>
      <trkpt lat="46.2924" lon="4.69478">
        <ele>554.787</ele>
        <time>2021-04-03T15:05:27Z</time>
      </trkpt>
      <trkpt lat="46.29245" lon="4.69476">
        <ele>554.72</ele>
        <time>2021-04-03T15:05:29Z</time>
      </trkpt>
      <trkpt lat="46.29253" lon="4.69472">
        <ele>554.729</ele>
        <time>2021-04-03T15:05:31Z</time>
      </trkpt>
      <trkpt lat="46.29263" lon="4.69464">
        <ele>554.721</ele>
        <time>2021-04-03T15:05:33Z</time>
      </trkpt>
      <trkpt lat="46.29267" lon="4.69462">
        <ele>554.723</ele>
        <time>2021-04-03T15:05:35Z</time>
      </trkpt>
      <trkpt lat="46.29273" lon="4.69458">
        <ele>554.829</ele>
        <time>2021-04-03T15:05:57Z</time>
      </trkpt>
      <trkpt lat="46.2929" lon="4.69454">
        <ele>554.866</ele>
        <time>2021-04-03T15:05:59Z</time>
      </trkpt>
      <trkpt lat="46.29315" lon="4.69446">
        <ele>554.823</ele>
        <time>2021-04-03T15:06:01Z</time>
      </trkpt>
      <trkpt lat="46.29332" lon="4.69433">
        <ele>554.839</ele>
        <time>2021-04-03T15:06:03Z</time>
      </trkpt>
      <trkpt lat="46.29345" lon="4.69418">
        <ele>554.801</ele>
        <time>2021-04-03T15:06:05Z</time>
      </trkpt>
      <trkpt lat="46.29361" lon="4.69406">
        <ele>554.821</ele>
        <time>2021-04-03T15:06:07Z</time>
      </trkpt>
      <trkpt lat="46.29374" lon="4.69398">
        <ele>554.808</ele>
        <time>2021-04-03T15:06:09Z</time>
      </trkpt>
      <trkpt lat="46.29387" lon="4.69395">
        <ele>554.819</ele>
        <time>2021-04-03T15:06:11Z</time>
      </trkpt>
      <trkpt lat="46.294" lon="4.69394">
        <ele>554.862</ele>
        <time>2021-04-03T15:06:13Z</time>
      </trkpt>
      <trkpt lat="46.29414" lon="4.69393">
        <ele>550.891</ele>
        <time>2021-04-03T15:06:15Z</time>
      </trkpt>
      <trkpt lat="46.29427" lon="4.69393">
        <ele>546.863</ele>
        <time>2021-04-03T15:06:17Z</time>
      </trkpt>
      <trkpt lat="46.29439" lon="4.69395">
        <ele>542.895</ele>
        <time>2021-04-03T15:06:19Z</time>
      </trkpt>
      <trkpt lat="46.29448" lon="4.69392">
        <ele>538.811</ele>
        <time>2021-04-03T15:06:21Z</time>
      </trkpt>
      <trkpt lat="46.29448" lon="4.69381">
        <ele>538.228</ele>
        <time>2021-04-03T15:06:43Z</time>
      </trkpt>
      <trkpt lat="46.29458" lon="4.69366">
        <ele>537.345</ele>
        <time>2021-04-03T15:06:45Z</time>
      </trkpt>
      <trkpt lat="46.29467" lon="4.69357">
        <ele>536.987</ele>
        <time>2021-04-03T15:06:47Z</time>
      </trkpt>
      <trkpt lat="46.29476" lon="4.69346">
        <ele>536.042</ele>
        <time>2021-04-03T15:06:49Z</time>
      </trkpt>
      <trkpt lat="46.29484" lon="4.69337">
        <ele>535.026</ele>
        <time>2021-04-03T15:06:51Z</time>
      </trkpt>
      <trkpt lat="46.29492" lon="4.69323">
        <ele>534.608</ele>
        <time>2021-04-03T15:06:53Z</time>
      </trkpt>
      <trkpt lat="46.29498" lon="4.69311">
        <ele>534.614</ele>
        <time>2021-04-03T15:06:55Z</time>
      </trkpt>
      <trkpt lat="46.29507" lon="4.69301">
        <ele>534.137</ele>
        <time>2021-04-03T15:06:57Z</time>
      </trkpt>
      <trkpt lat="46.29517" lon="4.69292">
        <ele>533.496</ele>
        <time>2021-04-03T15:06:59Z</time>
      </trkpt>
      <trkpt lat="46.29523" lon="4.69288">
        <ele>532.888</ele>
        <time>2021-04-03T15:07:01Z</time>
      </trkpt>
      <trkpt lat="46.29528" lon="4.69283">
        <ele>532.35</ele>
        <time>2021-04-03T15:07:03Z</time>
      </trkpt>
      <trkpt lat="46.29537" lon="4.69269">
        <ele>532.296</ele>
        <time>2021-04-03T15:07:05Z</time>
      </trkpt>
      <trkpt lat="46.29544" lon="4.69257">
        <ele>531.623</ele>
        <time>2021-04-03T15:07:07Z</time>
      </trkpt>
      <trkpt lat="46.29546" lon="4.6925">
        <ele>530.77</ele>
        <time>2021-04-03T15:07:10Z</time>
      </trkpt>
      <trkpt lat="46.29553" lon="4.69242">
        <ele>530.799</ele>
        <time>2021-04-03T15:07:12Z</time>
      </trkpt>
      <trkpt lat="46.29559" lon="4.69234">
        <ele>530.707</ele>
        <time>2021-04-03T15:07:13Z</time>
      </trkpt>
      <trkpt lat="46.29575" lon="4.69218">
        <ele>529.727</ele>
        <time>2021-04-03T15:07:15Z</time>
      </trkpt>
      <trkpt lat="46.29587" lon="4.69204">
        <ele>529.608</ele>
        <time>2021-04-03T15:07:17Z</time>
      </trkpt>
      <trkpt lat="46.29598" lon="4.69187">
        <ele>529.225</ele>
        <time>2021-04-03T15:07:19Z</time>
      </trkpt>
      <trkpt lat="46.29612" lon="4.69173">
        <ele>528.458</ele>
        <time>2021-04-03T15:07:21Z</time>
      </trkpt>
      <trkpt lat="46.29623" lon="4.69163">
        <ele>528.327</ele>
        <time>2021-04-03T15:07:23Z</time>
      </trkpt>
      <trkpt lat="46.29633" lon="4.6915">
        <ele>527.779</ele>
        <time>2021-04-03T15:07:25Z</time>
      </trkpt>
      <trkpt lat="46.29644" lon="4.69136">
        <ele>526.281</ele>
        <time>2021-04-03T15:07:27Z</time>
      </trkpt>
      <trkpt lat="46.29654" lon="4.69122">
        <ele>525.187</ele>
        <time>2021-04-03T15:07:29Z</time>
      </trkpt>
      <trkpt lat="46.29662" lon="4.69108">
        <ele>523.674</ele>
        <time>2021-04-03T15:07:31Z</time>
      </trkpt>
      <trkpt lat="46.29668" lon="4.69093">
        <ele>522.281</ele>
        <time>2021-04-03T15:07:33Z</time>
      </trkpt>
      <trkpt lat="46.29672" lon="4.69079">
        <ele>520.679</ele>
        <time>2021-04-03T15:07:35Z</time>
      </trkpt>
      <trkpt lat="46.29673" lon="4.69073">
        <ele>519.605</ele>
        <time>2021-04-03T15:07:37Z</time>
      </trkpt>
      <trkpt lat="46.29675" lon="4.69065">
        <ele>518.825</ele>
        <time>2021-04-03T15:07:39Z</time>
      </trkpt>
      <trkpt lat="46.29682" lon="4.69052">
        <ele>518.308</ele>
        <time>2021-04-03T15:07:43Z</time>
      </trkpt>
      <trkpt lat="46.29687" lon="4.69053">
        <ele>516.923</ele>
        <time>2021-04-03T15:07:46Z</time>
      </trkpt>
      <trkpt lat="46.29691" lon="4.69045">
        <ele>516.016</ele>
        <time>2021-04-03T15:07:47Z</time>
      </trkpt>
      <trkpt lat="46.29697" lon="4.69037">
        <ele>515.065</ele>
        <time>2021-04-03T15:07:49Z</time>
      </trkpt>
      <trkpt lat="46.29702" lon="4.69032">
        <ele>512.897</ele>
        <time>2021-04-03T15:07:50Z</time>
      </trkpt>
      <trkpt lat="46.29712" lon="4.69023">
        <ele>510.449</ele>
        <time>2021-04-03T15:07:53Z</time>
      </trkpt>
      <trkpt lat="46.29717" lon="4.6902">
        <ele>509.245</ele>
        <time>2021-04-03T15:07:54Z</time>
      </trkpt>
      <trkpt lat="46.29725" lon="4.69018">
        <ele>507.852</ele>
        <time>2021-04-03T15:07:57Z</time>
      </trkpt>
      <trkpt lat="46.2973" lon="4.69017">
        <ele>506.859</ele>
        <time>2021-04-03T15:07:58Z</time>
      </trkpt>
      <trkpt lat="46.29735" lon="4.69015">
        <ele>506.651</ele>
        <time>2021-04-03T15:07:59Z</time>
      </trkpt>
      <trkpt lat="46.2974" lon="4.69012">
        <ele>506.501</ele>
        <time>2021-04-03T15:08:01Z</time>
      </trkpt>
      <trkpt lat="46.29744" lon="4.6901">
        <ele>506.211</ele>
        <time>2021-04-03T15:08:02Z</time>
      </trkpt>
      <trkpt lat="46.29749" lon="4.69008">
        <ele>506.008</ele>
        <time>2021-04-03T15:08:03Z</time>
      </trkpt>
      <trkpt lat="46.29763" lon="4.68998">
        <ele>504.331</ele>
        <time>2021-04-03T15:08:05Z</time>
      </trkpt>
      <trkpt lat="46.29772" lon="4.68993">
        <ele>503.224</ele>
        <time>2021-04-03T15:08:07Z</time>
      </trkpt>
      <trkpt lat="46.29782" lon="4.68986">
        <ele>502.393</ele>
        <time>2021-04-03T15:08:09Z</time>
      </trkpt>
      <trkpt lat="46.2979" lon="4.68979">
        <ele>502.155</ele>
        <time>2021-04-03T15:08:11Z</time>
      </trkpt>
      <trkpt lat="46.29799" lon="4.6897">
        <ele>502.297</ele>
        <time>2021-04-03T15:08:13Z</time>
      </trkpt>
      <trkpt lat="46.29805" lon="4.68962">
        <ele>501.913</ele>
        <time>2021-04-03T15:08:15Z</time>
      </trkpt>
      <trkpt lat="46.29815" lon="4.68947">
        <ele>502.01</ele>
        <time>2021-04-03T15:08:19Z</time>
      </trkpt>
      <trkpt lat="46.29821" lon="4.68938">
        <ele>501.697</ele>
        <time>2021-04-03T15:08:21Z</time>
      </trkpt>
      <trkpt lat="46.29827" lon="4.68925">
        <ele>502.035</ele>
        <time>2021-04-03T15:08:23Z</time>
      </trkpt>
      <trkpt lat="46.29835" lon="4.68914">
        <ele>501.086</ele>
        <time>2021-04-03T15:08:25Z</time>
      </trkpt>
      <trkpt lat="46.29842" lon="4.68907">
        <ele>498.714</ele>
        <time>2021-04-03T15:08:29Z</time>
      </trkpt>
      <trkpt lat="46.29848" lon="4.68895">
        <ele>495.808</ele>
        <time>2021-04-03T15:08:31Z</time>
      </trkpt>
      <trkpt lat="46.29854" lon="4.68886">
        <ele>493.959</ele>
        <time>2021-04-03T15:08:32Z</time>
      </trkpt>
      <trkpt lat="46.2986" lon="4.68876">
        <ele>492.332</ele>
        <time>2021-04-03T15:08:34Z</time>
      </trkpt>
      <trkpt lat="46.29865" lon="4.68869">
        <ele>491.131</ele>
        <time>2021-04-03T15:08:35Z</time>
      </trkpt>
      <trkpt lat="46.2987" lon="4.68867">
        <ele>488.823</ele>
        <time>2021-04-03T15:08:38Z</time>
      </trkpt>
      <trkpt lat="46.29881" lon="4.68862">
        <ele>487.355</ele>
        <time>2021-04-03T15:08:39Z</time>
      </trkpt>
      <trkpt lat="46.29889" lon="4.68855">
        <ele>487.321</ele>
        <time>2021-04-03T15:08:41Z</time>
      </trkpt>
      <trkpt lat="46.29893" lon="4.68849">
        <ele>487.338</ele>
        <time>2021-04-03T15:08:44Z</time>
      </trkpt>
      <trkpt lat="46.29897" lon="4.68846">
        <ele>487.385</ele>
        <time>2021-04-03T15:08:45Z</time>
      </trkpt>
      <trkpt lat="46.29903" lon="4.68845">
        <ele>486.475</ele>
        <time>2021-04-03T15:08:46Z</time>
      </trkpt>
      <trkpt lat="46.29908" lon="4.68842">
        <ele>485.928</ele>
        <time>2021-04-03T15:08:47Z</time>
      </trkpt>
      <trkpt lat="46.29923" lon="4.68842">
        <ele>483.92</ele>
        <time>2021-04-03T15:08:49Z</time>
      </trkpt>
      <trkpt lat="46.2993" lon="4.68835">
        <ele>482.608</ele>
        <time>2021-04-03T15:08:53Z</time>
      </trkpt>
      <trkpt lat="46.29937" lon="4.68831">
        <ele>481.963</ele>
        <time>2021-04-03T15:08:54Z</time>
      </trkpt>
      <trkpt lat="46.29944" lon="4.68828">
        <ele>481.796</ele>
        <time>2021-04-03T15:08:55Z</time>
      </trkpt>
      <trkpt lat="46.2995" lon="4.68824">
        <ele>481.645</ele>
        <time>2021-04-03T15:08:57Z</time>
      </trkpt>
      <trkpt lat="46.29955" lon="4.68823">
        <ele>480.537</ele>
        <time>2021-04-03T15:08:58Z</time>
      </trkpt>
      <trkpt lat="46.2996" lon="4.68823">
        <ele>479.899</ele>
        <time>2021-04-03T15:08:59Z</time>
      </trkpt>
      <trkpt lat="46.29965" lon="4.68821">
        <ele>479.455</ele>
        <time>2021-04-03T15:09:01Z</time>
      </trkpt>
      <trkpt lat="46.29972" lon="4.68819">
        <ele>478.842</ele>
        <time>2021-04-03T15:09:04Z</time>
      </trkpt>
      <trkpt lat="46.29992" lon="4.68828">
        <ele>476.839</ele>
        <time>2021-04-03T15:09:11Z</time>
      </trkpt>
      <trkpt lat="46.30008" lon="4.68827">
        <ele>472.886</ele>
        <time>2021-04-03T15:09:13Z</time>
      </trkpt>
      <trkpt lat="46.30024" lon="4.68827">
        <ele>469.66</ele>
        <time>2021-04-03T15:09:15Z</time>
      </trkpt>
      <trkpt lat="46.30038" lon="4.68826">
        <ele>467.326</ele>
        <time>2021-04-03T15:09:17Z</time>
      </trkpt>
      <trkpt lat="46.30053" lon="4.68826">
        <ele>467.008</ele>
        <time>2021-04-03T15:09:19Z</time>
      </trkpt>
      <trkpt lat="46.3007" lon="4.68825">
        <ele>465.734</ele>
        <time>2021-04-03T15:09:21Z</time>
      </trkpt>
      <trkpt lat="46.30086" lon="4.6882">
        <ele>464.567</ele>
        <time>2021-04-03T15:09:23Z</time>
      </trkpt>
      <trkpt lat="46.301" lon="4.68818">
        <ele>462.316</ele>
        <time>2021-04-03T15:09:25Z</time>
      </trkpt>
      <trkpt lat="46.30114" lon="4.68818">
        <ele>460.538</ele>
        <time>2021-04-03T15:09:27Z</time>
      </trkpt>
      <trkpt lat="46.30127" lon="4.68821">
        <ele>458.65</ele>
        <time>2021-04-03T15:09:29Z</time>
      </trkpt>
      <trkpt lat="46.30142" lon="4.68824">
        <ele>457.986</ele>
        <time>2021-04-03T15:09:31Z</time>
      </trkpt>
      <trkpt lat="46.30161" lon="4.68828">
        <ele>457.833</ele>
        <time>2021-04-03T15:09:33Z</time>
      </trkpt>
      <trkpt lat="46.30184" lon="4.68822">
        <ele>457.95</ele>
        <time>2021-04-03T15:09:35Z</time>
      </trkpt>
      <trkpt lat="46.3021" lon="4.68818">
        <ele>457.384</ele>
        <time>2021-04-03T15:09:37Z</time>
      </trkpt>
      <trkpt lat="46.30235" lon="4.68814">
        <ele>457.607</ele>
        <time>2021-04-03T15:09:39Z</time>
      </trkpt>
      <trkpt lat="46.30253" lon="4.68806">
        <ele>458.617</ele>
        <time>2021-04-03T15:09:41Z</time>
      </trkpt>
      <trkpt lat="46.30263" lon="4.68801">
        <ele>458.808</ele>
        <time>2021-04-03T15:09:43Z</time>
      </trkpt>
      <trkpt lat="46.30272" lon="4.68793">
        <ele>458.714</ele>
        <time>2021-04-03T15:09:47Z</time>
      </trkpt>
      <trkpt lat="46.30286" lon="4.68775">
        <ele>457.667</ele>
        <time>2021-04-03T15:09:51Z</time>
      </trkpt>
      <trkpt lat="46.30296" lon="4.68767">
        <ele>456.236</ele>
        <time>2021-04-03T15:09:53Z</time>
      </trkpt>
      <trkpt lat="46.30307" lon="4.68757">
        <ele>454.638</ele>
        <time>2021-04-03T15:09:55Z</time>
      </trkpt>
      <trkpt lat="46.30321" lon="4.68747">
        <ele>453.03</ele>
        <time>2021-04-03T15:09:57Z</time>
      </trkpt>
      <trkpt lat="46.30334" lon="4.6874">
        <ele>452.266</ele>
        <time>2021-04-03T15:09:59Z</time>
      </trkpt>
      <trkpt lat="46.30347" lon="4.68734">
        <ele>451.023</ele>
        <time>2021-04-03T15:10:01Z</time>
      </trkpt>
      <trkpt lat="46.30358" lon="4.68722">
        <ele>450.32</ele>
        <time>2021-04-03T15:10:03Z</time>
      </trkpt>
      <trkpt lat="46.30369" lon="4.68709">
        <ele>450.115</ele>
        <time>2021-04-03T15:10:05Z</time>
      </trkpt>
      <trkpt lat="46.30378" lon="4.68697">
        <ele>449.465</ele>
        <time>2021-04-03T15:10:07Z</time>
      </trkpt>
      <trkpt lat="46.30384" lon="4.68681">
        <ele>448.611</ele>
        <time>2021-04-03T15:10:09Z</time>
      </trkpt>
      <trkpt lat="46.30387" lon="4.68664">
        <ele>446.108</ele>
        <time>2021-04-03T15:10:11Z</time>
      </trkpt>
      <trkpt lat="46.30392" lon="4.68644">
        <ele>443.787</ele>
        <time>2021-04-03T15:10:13Z</time>
      </trkpt>
      <trkpt lat="46.30396" lon="4.68624">
        <ele>441.33</ele>
        <time>2021-04-03T15:10:15Z</time>
      </trkpt>
      <trkpt lat="46.30403" lon="4.68607">
        <ele>439.489</ele>
        <time>2021-04-03T15:10:17Z</time>
      </trkpt>
      <trkpt lat="46.30416" lon="4.68592">
        <ele>438.021</ele>
        <time>2021-04-03T15:10:19Z</time>
      </trkpt>
      <trkpt lat="46.3043" lon="4.68582">
        <ele>436.773</ele>
        <time>2021-04-03T15:10:21Z</time>
      </trkpt>
      <trkpt lat="46.30444" lon="4.68576">
        <ele>435.389</ele>
        <time>2021-04-03T15:10:23Z</time>
      </trkpt>
      <trkpt lat="46.3046" lon="4.68573">
        <ele>434.086</ele>
        <time>2021-04-03T15:10:25Z</time>
      </trkpt>
      <trkpt lat="46.3048" lon="4.68571">
        <ele>433.413</ele>
        <time>2021-04-03T15:10:27Z</time>
      </trkpt>
      <trkpt lat="46.30502" lon="4.68564">
        <ele>432.195</ele>
        <time>2021-04-03T15:10:29Z</time>
      </trkpt>
      <trkpt lat="46.30528" lon="4.68556">
        <ele>430.649</ele>
        <time>2021-04-03T15:10:31Z</time>
      </trkpt>
      <trkpt lat="46.3055" lon="4.68547">
        <ele>429.823</ele>
        <time>2021-04-03T15:10:33Z</time>
      </trkpt>
      <trkpt lat="46.30567" lon="4.68537">
        <ele>429.208</ele>
        <time>2021-04-03T15:10:35Z</time>
      </trkpt>
      <trkpt lat="46.30581" lon="4.68523">
        <ele>428.025</ele>
        <time>2021-04-03T15:10:37Z</time>
      </trkpt>
      <trkpt lat="46.30595" lon="4.68513">
        <ele>426.648</ele>
        <time>2021-04-03T15:10:39Z</time>
      </trkpt>
      <trkpt lat="46.3061" lon="4.68505">
        <ele>425.827</ele>
        <time>2021-04-03T15:10:41Z</time>
      </trkpt>
      <trkpt lat="46.30625" lon="4.68497">
        <ele>424.699</ele>
        <time>2021-04-03T15:10:43Z</time>
      </trkpt>
      <trkpt lat="46.30639" lon="4.68493">
        <ele>423.221</ele>
        <time>2021-04-03T15:10:45Z</time>
      </trkpt>
      <trkpt lat="46.30649" lon="4.68493">
        <ele>421.727</ele>
        <time>2021-04-03T15:10:47Z</time>
      </trkpt>
      <trkpt lat="46.30654" lon="4.68495">
        <ele>421.124</ele>
        <time>2021-04-03T15:10:49Z</time>
      </trkpt>
      <trkpt lat="46.30661" lon="4.68498">
        <ele>420.251</ele>
        <time>2021-04-03T15:10:53Z</time>
      </trkpt>
      <trkpt lat="46.30674" lon="4.68505">
        <ele>418.118</ele>
        <time>2021-04-03T15:11:11Z</time>
      </trkpt>
      <trkpt lat="46.30689" lon="4.68515">
        <ele>416.998</ele>
        <time>2021-04-03T15:11:13Z</time>
      </trkpt>
      <trkpt lat="46.30703" lon="4.68525">
        <ele>416.217</ele>
        <time>2021-04-03T15:11:15Z</time>
      </trkpt>
      <trkpt lat="46.30718" lon="4.68535">
        <ele>420.208</ele>
        <time>2021-04-03T15:11:17Z</time>
      </trkpt>
      <trkpt lat="46.30733" lon="4.68545">
        <ele>419.297</ele>
        <time>2021-04-03T15:11:19Z</time>
      </trkpt>
      <trkpt lat="46.30748" lon="4.68556">
        <ele>416.47</ele>
        <time>2021-04-03T15:11:21Z</time>
      </trkpt>
      <trkpt lat="46.30764" lon="4.68568">
        <ele>413.079</ele>
        <time>2021-04-03T15:11:23Z</time>
      </trkpt>
      <trkpt lat="46.30781" lon="4.68579">
        <ele>409.311</ele>
        <time>2021-04-03T15:11:25Z</time>
      </trkpt>
      <trkpt lat="46.30798" lon="4.68591">
        <ele>406.113</ele>
        <time>2021-04-03T15:11:27Z</time>
      </trkpt>
      <trkpt lat="46.30815" lon="4.68603">
        <ele>402.529</ele>
        <time>2021-04-03T15:11:29Z</time>
      </trkpt>
      <trkpt lat="46.30832" lon="4.68618">
        <ele>398.996</ele>
        <time>2021-04-03T15:11:31Z</time>
      </trkpt>
      <trkpt lat="46.30847" lon="4.68634">
        <ele>395.673</ele>
        <time>2021-04-03T15:11:33Z</time>
      </trkpt>
      <trkpt lat="46.30856" lon="4.68646">
        <ele>392.975</ele>
        <time>2021-04-03T15:11:35Z</time>
      </trkpt>
      <trkpt lat="46.30857" lon="4.68637">
        <ele>390.228</ele>
        <time>2021-04-03T15:11:43Z</time>
      </trkpt>
      <trkpt lat="46.30856" lon="4.6862">
        <ele>388.42</ele>
        <time>2021-04-03T15:11:45Z</time>
      </trkpt>
      <trkpt lat="46.30856" lon="4.686">
        <ele>387.508</ele>
        <time>2021-04-03T15:11:47Z</time>
      </trkpt>
      <trkpt lat="46.30855" lon="4.68582">
        <ele>387.473</ele>
        <time>2021-04-03T15:11:49Z</time>
      </trkpt>
      <trkpt lat="46.30853" lon="4.68567">
        <ele>386.646</ele>
        <time>2021-04-03T15:11:51Z</time>
      </trkpt>
      <trkpt lat="46.30848" lon="4.68553">
        <ele>386.155</ele>
        <time>2021-04-03T15:11:53Z</time>
      </trkpt>
      <trkpt lat="46.30842" lon="4.68539">
        <ele>385.867</ele>
        <time>2021-04-03T15:11:55Z</time>
      </trkpt>
      <trkpt lat="46.30836" lon="4.68527">
        <ele>385.639</ele>
        <time>2021-04-03T15:11:57Z</time>
      </trkpt>
      <trkpt lat="46.30831" lon="4.6851">
        <ele>387.085</ele>
        <time>2021-04-03T15:11:59Z</time>
      </trkpt>
      <trkpt lat="46.30825" lon="4.6849">
        <ele>385.342</ele>
        <time>2021-04-03T15:12:01Z</time>
      </trkpt>
      <trkpt lat="46.30817" lon="4.68469">
        <ele>382.959</ele>
        <time>2021-04-03T15:12:03Z</time>
      </trkpt>
      <trkpt lat="46.30806" lon="4.68454">
        <ele>381.138</ele>
        <time>2021-04-03T15:12:05Z</time>
      </trkpt>
      <trkpt lat="46.3079" lon="4.68437">
        <ele>380.07</ele>
        <time>2021-04-03T15:12:07Z</time>
      </trkpt>
      <trkpt lat="46.30779" lon="4.68418">
        <ele>380.717</ele>
        <time>2021-04-03T15:12:09Z</time>
      </trkpt>
      <trkpt lat="46.30773" lon="4.68388">
        <ele>384.708</ele>
        <time>2021-04-03T15:12:11Z</time>
      </trkpt>
      <trkpt lat="46.30766" lon="4.68355">
        <ele>385.219</ele>
        <time>2021-04-03T15:12:13Z</time>
      </trkpt>
      <trkpt lat="46.30763" lon="4.68335">
        <ele>384.652</ele>
        <time>2021-04-03T15:12:15Z</time>
      </trkpt>
      <trkpt lat="46.30758" lon="4.68328">
        <ele>384.331</ele>
        <time>2021-04-03T15:12:20Z</time>
      </trkpt>
      <trkpt lat="46.30753" lon="4.68318">
        <ele>383.883</ele>
        <time>2021-04-03T15:12:23Z</time>
      </trkpt>
      <trkpt lat="46.3075" lon="4.68313">
        <ele>383.395</ele>
        <time>2021-04-03T15:12:25Z</time>
      </trkpt>
      <trkpt lat="46.30746" lon="4.68307">
        <ele>382.931</ele>
        <time>2021-04-03T15:12:27Z</time>
      </trkpt>
      <trkpt lat="46.30741" lon="4.68299">
        <ele>383.088</ele>
        <time>2021-04-03T15:12:29Z</time>
      </trkpt>
      <trkpt lat="46.30737" lon="4.68291">
        <ele>382.885</ele>
        <time>2021-04-03T15:12:31Z</time>
      </trkpt>
      <trkpt lat="46.30731" lon="4.68281">
        <ele>382.268</ele>
        <time>2021-04-03T15:12:33Z</time>
      </trkpt>
      <trkpt lat="46.30724" lon="4.68269">
        <ele>381.242</ele>
        <time>2021-04-03T15:12:35Z</time>
      </trkpt>
      <trkpt lat="46.30722" lon="4.6826">
        <ele>379.926</ele>
        <time>2021-04-03T15:12:37Z</time>
      </trkpt>
      <trkpt lat="46.30727" lon="4.68255">
        <ele>378.708</ele>
        <time>2021-04-03T15:12:39Z</time>
      </trkpt>
      <trkpt lat="46.30732" lon="4.68249">
        <ele>377.012</ele>
        <time>2021-04-03T15:12:41Z</time>
      </trkpt>
      <trkpt lat="46.30739" lon="4.68244">
        <ele>375.285</ele>
        <time>2021-04-03T15:12:43Z</time>
      </trkpt>
      <trkpt lat="46.30746" lon="4.68238">
        <ele>374.024</ele>
        <time>2021-04-03T15:12:45Z</time>
      </trkpt>
      <trkpt lat="46.30757" lon="4.68229">
        <ele>372.346</ele>
        <time>2021-04-03T15:12:47Z</time>
      </trkpt>
      <trkpt lat="46.30771" lon="4.68219">
        <ele>370.668</ele>
        <time>2021-04-03T15:12:49Z</time>
      </trkpt>
      <trkpt lat="46.30787" lon="4.68212">
        <ele>368.554</ele>
        <time>2021-04-03T15:12:51Z</time>
      </trkpt>
      <trkpt lat="46.30803" lon="4.68206">
        <ele>366.561</ele>
        <time>2021-04-03T15:12:53Z</time>
      </trkpt>
      <trkpt lat="46.3082" lon="4.68204">
        <ele>364.888</ele>
        <time>2021-04-03T15:12:55Z</time>
      </trkpt>
      <trkpt lat="46.30835" lon="4.68202">
        <ele>362.132</ele>
        <time>2021-04-03T15:12:57Z</time>
      </trkpt>
      <trkpt lat="46.30853" lon="4.682">
        <ele>359.492</ele>
        <time>2021-04-03T15:12:59Z</time>
      </trkpt>
      <trkpt lat="46.3087" lon="4.68198">
        <ele>356.811</ele>
        <time>2021-04-03T15:13:01Z</time>
      </trkpt>
      <trkpt lat="46.30886" lon="4.68197">
        <ele>354.508</ele>
        <time>2021-04-03T15:13:03Z</time>
      </trkpt>
      <trkpt lat="46.30899" lon="4.68194">
        <ele>352.149</ele>
        <time>2021-04-03T15:13:05Z</time>
      </trkpt>
      <trkpt lat="46.3091" lon="4.68187">
        <ele>349.632</ele>
        <time>2021-04-03T15:13:07Z</time>
      </trkpt>
      <trkpt lat="46.30919" lon="4.68174">
        <ele>347.351</ele>
        <time>2021-04-03T15:13:09Z</time>
      </trkpt>
      <trkpt lat="46.30928" lon="4.68161">
        <ele>345.593</ele>
        <time>2021-04-03T15:13:11Z</time>
      </trkpt>
      <trkpt lat="46.30934" lon="4.68146">
        <ele>343.935</ele>
        <time>2021-04-03T15:13:13Z</time>
      </trkpt>
      <trkpt lat="46.3094" lon="4.68133">
        <ele>342.641</ele>
        <time>2021-04-03T15:13:15Z</time>
      </trkpt>
      <trkpt lat="46.30946" lon="4.68122">
        <ele>341.468</ele>
        <time>2021-04-03T15:13:17Z</time>
      </trkpt>
      <trkpt lat="46.3095" lon="4.68112">
        <ele>340.525</ele>
        <time>2021-04-03T15:13:19Z</time>
      </trkpt>
      <trkpt lat="46.30946" lon="4.68097">
        <ele>339.194</ele>
        <time>2021-04-03T15:13:23Z</time>
      </trkpt>
      <trkpt lat="46.30941" lon="4.68083">
        <ele>337.557</ele>
        <time>2021-04-03T15:13:25Z</time>
      </trkpt>
      <trkpt lat="46.30935" lon="4.68073">
        <ele>336.322</ele>
        <time>2021-04-03T15:13:27Z</time>
      </trkpt>
      <trkpt lat="46.3093" lon="4.68066">
        <ele>334.908</ele>
        <time>2021-04-03T15:13:29Z</time>
      </trkpt>
      <trkpt lat="46.30923" lon="4.68056">
        <ele>333.445</ele>
        <time>2021-04-03T15:13:31Z</time>
      </trkpt>
      <trkpt lat="46.30915" lon="4.68043">
        <ele>332.118</ele>
        <time>2021-04-03T15:13:33Z</time>
      </trkpt>
      <trkpt lat="46.30906" lon="4.68032">
        <ele>330.937</ele>
        <time>2021-04-03T15:13:35Z</time>
      </trkpt>
      <trkpt lat="46.30898" lon="4.68017">
        <ele>328.229</ele>
        <time>2021-04-03T15:13:37Z</time>
      </trkpt>
      <trkpt lat="46.30888" lon="4.68">
        <ele>326.981</ele>
        <time>2021-04-03T15:13:39Z</time>
      </trkpt>
      <trkpt lat="46.30878" lon="4.67983">
        <ele>324.727</ele>
        <time>2021-04-03T15:13:41Z</time>
      </trkpt>
      <trkpt lat="46.30871" lon="4.6797">
        <ele>322.254</ele>
        <time>2021-04-03T15:13:43Z</time>
      </trkpt>
      <trkpt lat="46.30868" lon="4.6796">
        <ele>320.581</ele>
        <time>2021-04-03T15:13:45Z</time>
      </trkpt>
      <trkpt lat="46.30857" lon="4.67936">
        <ele>319.555</ele>
        <time>2021-04-03T15:13:48Z</time>
      </trkpt>
      <trkpt lat="46.30844" lon="4.67915">
        <ele>323.507</ele>
        <time>2021-04-03T15:13:51Z</time>
      </trkpt>
      <trkpt lat="46.30839" lon="4.67904">
        <ele>327.317</ele>
        <time>2021-04-03T15:14:05Z</time>
      </trkpt>
      <trkpt lat="46.30842" lon="4.67888">
        <ele>323.308</ele>
        <time>2021-04-03T15:14:07Z</time>
      </trkpt>
      <trkpt lat="46.30849" lon="4.67861">
        <ele>319.311</ele>
        <time>2021-04-03T15:14:09Z</time>
      </trkpt>
      <trkpt lat="46.30856" lon="4.6783">
        <ele>316.034</ele>
        <time>2021-04-03T15:14:11Z</time>
      </trkpt>
      <trkpt lat="46.30864" lon="4.67799">
        <ele>314.083</ele>
        <time>2021-04-03T15:14:13Z</time>
      </trkpt>
      <trkpt lat="46.30871" lon="4.67771">
        <ele>312.815</ele>
        <time>2021-04-03T15:14:15Z</time>
      </trkpt>
      <trkpt lat="46.30876" lon="4.67747">
        <ele>312.187</ele>
        <time>2021-04-03T15:14:17Z</time>
      </trkpt>
      <trkpt lat="46.3088" lon="4.67731">
        <ele>311.743</ele>
        <time>2021-04-03T15:14:19Z</time>
      </trkpt>
      <trkpt lat="46.30883" lon="4.67718">
        <ele>311.58</ele>
        <time>2021-04-03T15:14:21Z</time>
      </trkpt>
      <trkpt lat="46.30886" lon="4.67706">
        <ele>311.497</ele>
        <time>2021-04-03T15:14:23Z</time>
      </trkpt>
      <trkpt lat="46.3089" lon="4.67693">
        <ele>311.394</ele>
        <time>2021-04-03T15:14:25Z</time>
      </trkpt>
      <trkpt lat="46.30893" lon="4.67689">
        <ele>311.257</ele>
        <time>2021-04-03T15:14:29Z</time>
      </trkpt>
      <trkpt lat="46.30888" lon="4.67681">
        <ele>311.022</ele>
        <time>2021-04-03T15:14:41Z</time>
      </trkpt>
      <trkpt lat="46.30883" lon="4.67671">
        <ele>310.908</ele>
        <time>2021-04-03T15:14:43Z</time>
      </trkpt>
      <trkpt lat="46.30873" lon="4.67656">
        <ele>310.855</ele>
        <time>2021-04-03T15:14:45Z</time>
      </trkpt>
      <trkpt lat="46.30855" lon="4.67638">
        <ele>310.898</ele>
        <time>2021-04-03T15:14:47Z</time>
      </trkpt>
      <trkpt lat="46.30838" lon="4.67621">
        <ele>310.827</ele>
        <time>2021-04-03T15:14:49Z</time>
      </trkpt>
      <trkpt lat="46.30825" lon="4.67608">
        <ele>310.899</ele>
        <time>2021-04-03T15:14:51Z</time>
      </trkpt>
      <trkpt lat="46.30815" lon="4.67598">
        <ele>310.881</ele>
        <time>2021-04-03T15:14:53Z</time>
      </trkpt>
      <trkpt lat="46.30807" lon="4.67591">
        <ele>310.887</ele>
        <time>2021-04-03T15:14:55Z</time>
      </trkpt>
      <trkpt lat="46.30799" lon="4.67583">
        <ele>310.884</ele>
        <time>2021-04-03T15:14:57Z</time>
      </trkpt>
      <trkpt lat="46.30789" lon="4.67574">
        <ele>310.971</ele>
        <time>2021-04-03T15:14:59Z</time>
      </trkpt>
      <trkpt lat="46.30774" lon="4.67558">
        <ele>310.988</ele>
        <time>2021-04-03T15:15:01Z</time>
      </trkpt>
      <trkpt lat="46.30756" lon="4.67537">
        <ele>310.924</ele>
        <time>2021-04-03T15:15:03Z</time>
      </trkpt>
      <trkpt lat="46.30741" lon="4.67518">
        <ele>310.926</ele>
        <time>2021-04-03T15:15:05Z</time>
      </trkpt>
      <trkpt lat="46.30732" lon="4.67503">
        <ele>310.908</ele>
        <time>2021-04-03T15:15:07Z</time>
      </trkpt>
      <trkpt lat="46.30725" lon="4.67491">
        <ele>310.954</ele>
        <time>2021-04-03T15:15:09Z</time>
      </trkpt>
      <trkpt lat="46.30723" lon="4.67484">
        <ele>310.917</ele>
        <time>2021-04-03T15:15:11Z</time>
      </trkpt>
      <trkpt lat="46.30722" lon="4.67491">
        <ele>310.866</ele>
        <time>2021-04-03T15:15:19Z</time>
      </trkpt>
      <trkpt lat="46.30722" lon="4.67497">
        <ele>310.818</ele>
        <time>2021-04-03T15:15:21Z</time>
      </trkpt>
      <trkpt lat="46.30731" lon="4.67513">
        <ele>310.87</ele>
        <time>2021-04-03T15:15:23Z</time>
      </trkpt>
      <trkpt lat="46.30753" lon="4.67543">
        <ele>310.886</ele>
        <time>2021-04-03T15:15:25Z</time>
      </trkpt>
      <trkpt lat="46.30845" lon="4.67634">
        <ele>310.823</ele>
        <time>2021-04-03T15:15:31Z</time>
      </trkpt>
      <trkpt lat="46.30866" lon="4.67655">
        <ele>310.86</ele>
        <time>2021-04-03T15:15:33Z</time>
      </trkpt>
      <trkpt lat="46.3088" lon="4.6767">
        <ele>310.812</ele>
        <time>2021-04-03T15:15:35Z</time>
      </trkpt>
      <trkpt lat="46.3089" lon="4.67681">
        <ele>310.832</ele>
        <time>2021-04-03T15:15:37Z</time>
      </trkpt>
      <trkpt lat="46.30892" lon="4.67697">
        <ele>310.805</ele>
        <time>2021-04-03T15:15:39Z</time>
      </trkpt>
      <trkpt lat="46.30887" lon="4.67718">
        <ele>310.808</ele>
        <time>2021-04-03T15:15:41Z</time>
      </trkpt>
      <trkpt lat="46.30879" lon="4.67727">
        <ele>310.817</ele>
        <time>2021-04-03T15:15:43Z</time>
      </trkpt>
      <trkpt lat="46.30869" lon="4.6772">
        <ele>310.87</ele>
        <time>2021-04-03T15:15:45Z</time>
      </trkpt>
      <trkpt lat="46.30856" lon="4.67712">
        <ele>310.819</ele>
        <time>2021-04-03T15:15:47Z</time>
      </trkpt>
      <trkpt lat="46.30842" lon="4.67696">
        <ele>310.831</ele>
        <time>2021-04-03T15:15:49Z</time>
      </trkpt>
      <trkpt lat="46.30831" lon="4.67678">
        <ele>310.853</ele>
        <time>2021-04-03T15:15:51Z</time>
      </trkpt>
      <trkpt lat="46.3082" lon="4.67662">
        <ele>310.819</ele>
        <time>2021-04-03T15:15:53Z</time>
      </trkpt>
      <trkpt lat="46.30811" lon="4.67651">
        <ele>310.896</ele>
        <time>2021-04-03T15:15:55Z</time>
      </trkpt>
      <trkpt lat="46.30803" lon="4.67648">
        <ele>310.813</ele>
        <time>2021-04-03T15:15:57Z</time>
      </trkpt>
      <trkpt lat="46.30808" lon="4.67644">
        <ele>310.816</ele>
        <time>2021-04-03T15:16:19Z</time>
      </trkpt>
      <trkpt lat="46.30813" lon="4.67644">
        <ele>310.876</ele>
        <time>2021-04-03T15:16:23Z</time>
      </trkpt>
      <trkpt lat="46.30825" lon="4.67655">
        <ele>310.813</ele>
        <time>2021-04-03T15:16:25Z</time>
      </trkpt>
      <trkpt lat="46.30836" lon="4.67672">
        <ele>310.808</ele>
        <time>2021-04-03T15:16:27Z</time>
      </trkpt>
      <trkpt lat="46.30846" lon="4.67692">
        <ele>310.897</ele>
        <time>2021-04-03T15:16:29Z</time>
      </trkpt>
      <trkpt lat="46.30855" lon="4.6771">
        <ele>310.85</ele>
        <time>2021-04-03T15:16:31Z</time>
      </trkpt>
      <trkpt lat="46.30867" lon="4.67721">
        <ele>310.889</ele>
        <time>2021-04-03T15:16:33Z</time>
      </trkpt>
      <trkpt lat="46.30877" lon="4.67729">
        <ele>310.831</ele>
        <time>2021-04-03T15:16:35Z</time>
      </trkpt>
      <trkpt lat="46.30881" lon="4.67725">
        <ele>310.863</ele>
        <time>2021-04-03T15:16:37Z</time>
      </trkpt>
      <trkpt lat="46.30886" lon="4.67716">
        <ele>310.879</ele>
        <time>2021-04-03T15:16:39Z</time>
      </trkpt>
      <trkpt lat="46.30892" lon="4.677">
        <ele>310.876</ele>
        <time>2021-04-03T15:16:41Z</time>
      </trkpt>
      <trkpt lat="46.30895" lon="4.67689">
        <ele>310.873</ele>
        <time>2021-04-03T15:16:43Z</time>
      </trkpt>
      <trkpt lat="46.30892" lon="4.67682">
        <ele>310.782</ele>
        <time>2021-04-03T15:16:49Z</time>
      </trkpt>
      <trkpt lat="46.30878" lon="4.67659">
        <ele>310.743</ele>
        <time>2021-04-03T15:16:51Z</time>
      </trkpt>
      <trkpt lat="46.3086" lon="4.67643">
        <ele>310.717</ele>
        <time>2021-04-03T15:16:53Z</time>
      </trkpt>
      <trkpt lat="46.30837" lon="4.67621">
        <ele>310.708</ele>
        <time>2021-04-03T15:16:55Z</time>
      </trkpt>
      <trkpt lat="46.30809" lon="4.67593">
        <ele>310.734</ele>
        <time>2021-04-03T15:16:57Z</time>
      </trkpt>
      <trkpt lat="46.30784" lon="4.67566">
        <ele>310.797</ele>
        <time>2021-04-03T15:16:59Z</time>
      </trkpt>
      <trkpt lat="46.3076" lon="4.67541">
        <ele>310.786</ele>
        <time>2021-04-03T15:17:01Z</time>
      </trkpt>
      <trkpt lat="46.3074" lon="4.67515">
        <ele>310.798</ele>
        <time>2021-04-03T15:17:03Z</time>
      </trkpt>
      <trkpt lat="46.3072" lon="4.67489">
        <ele>310.72</ele>
        <time>2021-04-03T15:17:05Z</time>
      </trkpt>
      <trkpt lat="46.30696" lon="4.67467">
        <ele>310.776</ele>
        <time>2021-04-03T15:17:07Z</time>
      </trkpt>
      <trkpt lat="46.30668" lon="4.67449">
        <ele>310.713</ele>
        <time>2021-04-03T15:17:09Z</time>
      </trkpt>
      <trkpt lat="46.30644" lon="4.67433">
        <ele>310.77</ele>
        <time>2021-04-03T15:17:11Z</time>
      </trkpt>
      <trkpt lat="46.30623" lon="4.67417">
        <ele>310.779</ele>
        <time>2021-04-03T15:17:13Z</time>
      </trkpt>
      <trkpt lat="46.30604" lon="4.67395">
        <ele>310.705</ele>
        <time>2021-04-03T15:17:15Z</time>
      </trkpt>
      <trkpt lat="46.30586" lon="4.67373">
        <ele>310.725</ele>
        <time>2021-04-03T15:17:17Z</time>
      </trkpt>
      <trkpt lat="46.30571" lon="4.67354">
        <ele>310.708</ele>
        <time>2021-04-03T15:17:19Z</time>
      </trkpt>
      <trkpt lat="46.30555" lon="4.67341">
        <ele>310.793</ele>
        <time>2021-04-03T15:17:21Z</time>
      </trkpt>
      <trkpt lat="46.30537" lon="4.67325">
        <ele>310.716</ele>
        <time>2021-04-03T15:17:23Z</time>
      </trkpt>
      <trkpt lat="46.30517" lon="4.67305">
        <ele>310.745</ele>
        <time>2021-04-03T15:17:25Z</time>
      </trkpt>
      <trkpt lat="46.30498" lon="4.67287">
        <ele>310.727</ele>
        <time>2021-04-03T15:17:27Z</time>
      </trkpt>
      <trkpt lat="46.30483" lon="4.67271">
        <ele>310.789</ele>
        <time>2021-04-03T15:17:29Z</time>
      </trkpt>
      <trkpt lat="46.30471" lon="4.67261">
        <ele>310.715</ele>
        <time>2021-04-03T15:17:31Z</time>
      </trkpt>
      <trkpt lat="46.30461" lon="4.67262">
        <ele>310.732</ele>
        <time>2021-04-03T15:17:33Z</time>
      </trkpt>
      <trkpt lat="46.30451" lon="4.67276">
        <ele>310.719</ele>
        <time>2021-04-03T15:17:35Z</time>
      </trkpt>
      <trkpt lat="46.30435" lon="4.67294">
        <ele>310.763</ele>
        <time>2021-04-03T15:17:37Z</time>
      </trkpt>
      <trkpt lat="46.30417" lon="4.67314">
        <ele>310.744</ele>
        <time>2021-04-03T15:17:39Z</time>
      </trkpt>
      <trkpt lat="46.30402" lon="4.67333">
        <ele>310.718</ele>
        <time>2021-04-03T15:17:41Z</time>
      </trkpt>
      <trkpt lat="46.30389" lon="4.67347">
        <ele>310.708</ele>
        <time>2021-04-03T15:17:43Z</time>
      </trkpt>
      <trkpt lat="46.30381" lon="4.67361">
        <ele>310.782</ele>
        <time>2021-04-03T15:17:45Z</time>
      </trkpt>
      <trkpt lat="46.30379" lon="4.67373">
        <ele>310.795</ele>
        <time>2021-04-03T15:17:47Z</time>
      </trkpt>
      <trkpt lat="46.30361" lon="4.67349">
        <ele>314.714</ele>
        <time>2021-04-03T15:17:55Z</time>
      </trkpt>
      <trkpt lat="46.30349" lon="4.67333">
        <ele>318.786</ele>
        <time>2021-04-03T15:17:57Z</time>
      </trkpt>
      <trkpt lat="46.30334" lon="4.67317">
        <ele>322.458</ele>
        <time>2021-04-03T15:17:59Z</time>
      </trkpt>
      <trkpt lat="46.30319" lon="4.67303">
        <ele>324.644</ele>
        <time>2021-04-03T15:18:01Z</time>
      </trkpt>
      <trkpt lat="46.30307" lon="4.67293">
        <ele>325.971</ele>
        <time>2021-04-03T15:18:03Z</time>
      </trkpt>
      <trkpt lat="46.30298" lon="4.67287">
        <ele>326.718</ele>
        <time>2021-04-03T15:18:05Z</time>
      </trkpt>
      <trkpt lat="46.30292" lon="4.67296">
        <ele>327.292</ele>
        <time>2021-04-03T15:18:07Z</time>
      </trkpt>
      <trkpt lat="46.30283" lon="4.67314">
        <ele>327.573</ele>
        <time>2021-04-03T15:18:09Z</time>
      </trkpt>
      <trkpt lat="46.30279" lon="4.67339">
        <ele>327.72</ele>
        <time>2021-04-03T15:18:11Z</time>
      </trkpt>
      <trkpt lat="46.30279" lon="4.67361">
        <ele>327.808</ele>
        <time>2021-04-03T15:18:13Z</time>
      </trkpt>
      <trkpt lat="46.30275" lon="4.67371">
        <ele>327.845</ele>
        <time>2021-04-03T15:18:15Z</time>
      </trkpt>
      <trkpt lat="46.30269" lon="4.6737">
        <ele>327.848</ele>
        <time>2021-04-03T15:18:17Z</time>
      </trkpt>
      <trkpt lat="46.30264" lon="4.67377">
        <ele>327.827</ele>
        <time>2021-04-03T15:18:19Z</time>
      </trkpt>
      <trkpt lat="46.30274" lon="4.67372">
        <ele>327.859</ele>
        <time>2021-04-03T15:18:23Z</time>
      </trkpt>
      <trkpt lat="46.3028" lon="4.67357">
        <ele>327.861</ele>
        <time>2021-04-03T15:18:25Z</time>
      </trkpt>
      <trkpt lat="46.30282" lon="4.67338">
        <ele>327.827</ele>
        <time>2021-04-03T15:18:27Z</time>
      </trkpt>
      <trkpt lat="46.30282" lon="4.67317">
        <ele>327.894</ele>
        <time>2021-04-03T15:18:29Z</time>
      </trkpt>
      <trkpt lat="46.30288" lon="4.673">
        <ele>327.851</ele>
        <time>2021-04-03T15:18:31Z</time>
      </trkpt>
      <trkpt lat="46.30296" lon="4.67289">
        <ele>327.877</ele>
        <time>2021-04-03T15:18:33Z</time>
      </trkpt>
      <trkpt lat="46.30298" lon="4.67282">
        <ele>327.861</ele>
        <time>2021-04-03T15:18:37Z</time>
      </trkpt>
      <trkpt lat="46.30282" lon="4.67258">
        <ele>327.827</ele>
        <time>2021-04-03T15:18:41Z</time>
      </trkpt>
      <trkpt lat="46.30271" lon="4.67247">
        <ele>327.808</ele>
        <time>2021-04-03T15:18:43Z</time>
      </trkpt>
      <trkpt lat="46.30261" lon="4.67237">
        <ele>327.873</ele>
        <time>2021-04-03T15:18:45Z</time>
      </trkpt>
      <trkpt lat="46.30251" lon="4.67224">
        <ele>327.816</ele>
        <time>2021-04-03T15:18:47Z</time>
      </trkpt>
      <trkpt lat="46.30238" lon="4.67208">
        <ele>327.855</ele>
        <time>2021-04-03T15:18:49Z</time>
      </trkpt>
      <trkpt lat="46.30222" lon="4.67187">
        <ele>327.837</ele>
        <time>2021-04-03T15:18:51Z</time>
      </trkpt>
      <trkpt lat="46.3021" lon="4.6717">
        <ele>328.819</ele>
        <time>2021-04-03T15:18:53Z</time>
      </trkpt>
      <trkpt lat="46.30199" lon="4.67156">
        <ele>329.695</ele>
        <time>2021-04-03T15:18:55Z</time>
      </trkpt>
      <trkpt lat="46.30189" lon="4.67143">
        <ele>329.952</ele>
        <time>2021-04-03T15:18:57Z</time>
      </trkpt>
      <trkpt lat="46.30181" lon="4.67134">
        <ele>330.519</ele>
        <time>2021-04-03T15:18:59Z</time>
      </trkpt>
      <trkpt lat="46.30175" lon="4.67125">
        <ele>331.321</ele>
        <time>2021-04-03T15:19:01Z</time>
      </trkpt>
      <trkpt lat="46.30169" lon="4.67118">
        <ele>332.041</ele>
        <time>2021-04-03T15:19:05Z</time>
      </trkpt>
      <trkpt lat="46.30177" lon="4.6713">
        <ele>332.605</ele>
        <time>2021-04-03T15:19:23Z</time>
      </trkpt>
      <trkpt lat="46.30185" lon="4.67138">
        <ele>332.908</ele>
        <time>2021-04-03T15:19:25Z</time>
      </trkpt>
      <trkpt lat="46.30193" lon="4.67149">
        <ele>333.778</ele>
        <time>2021-04-03T15:19:27Z</time>
      </trkpt>
      <trkpt lat="46.30202" lon="4.6716">
        <ele>333.911</ele>
        <time>2021-04-03T15:19:29Z</time>
      </trkpt>
      <trkpt lat="46.30213" lon="4.67172">
        <ele>333.67</ele>
        <time>2021-04-03T15:19:31Z</time>
      </trkpt>
      <trkpt lat="46.30223" lon="4.67185">
        <ele>333.162</ele>
        <time>2021-04-03T15:19:33Z</time>
      </trkpt>
      <trkpt lat="46.30233" lon="4.67196">
        <ele>332.634</ele>
        <time>2021-04-03T15:19:35Z</time>
      </trkpt>
      <trkpt lat="46.30242" lon="4.6721">
        <ele>331.84</ele>
        <time>2021-04-03T15:19:37Z</time>
      </trkpt>
      <trkpt lat="46.30254" lon="4.67227">
        <ele>332.117</ele>
        <time>2021-04-03T15:19:39Z</time>
      </trkpt>
      <trkpt lat="46.30267" lon="4.67243">
        <ele>332.084</ele>
        <time>2021-04-03T15:19:41Z</time>
      </trkpt>
      <trkpt lat="46.30278" lon="4.67257">
        <ele>331.445</ele>
        <time>2021-04-03T15:19:43Z</time>
      </trkpt>
      <trkpt lat="46.30292" lon="4.67275">
        <ele>331.547</ele>
        <time>2021-04-03T15:19:45Z</time>
      </trkpt>
      <trkpt lat="46.30304" lon="4.67289">
        <ele>331.411</ele>
        <time>2021-04-03T15:19:47Z</time>
      </trkpt>
      <trkpt lat="46.30319" lon="4.673">
        <ele>331.208</ele>
        <time>2021-04-03T15:19:49Z</time>
      </trkpt>
      <trkpt lat="46.30335" lon="4.67315">
        <ele>331.41</ele>
        <time>2021-04-03T15:19:51Z</time>
      </trkpt>
      <trkpt lat="46.3035" lon="4.67329">
        <ele>331.513</ele>
        <time>2021-04-03T15:19:53Z</time>
      </trkpt>
      <trkpt lat="46.30361" lon="4.67343">
        <ele>335.552</ele>
        <time>2021-04-03T15:19:55Z</time>
      </trkpt>
      <trkpt lat="46.30371" lon="4.67359">
        <ele>336.094</ele>
        <time>2021-04-03T15:19:57Z</time>
      </trkpt>
      <trkpt lat="46.30382" lon="4.67375">
        <ele>335.256</ele>
        <time>2021-04-03T15:19:59Z</time>
      </trkpt>
      <trkpt lat="46.30393" lon="4.67389">
        <ele>334.522</ele>
        <time>2021-04-03T15:20:01Z</time>
      </trkpt>
      <trkpt lat="46.30409" lon="4.67404">
        <ele>334.159</ele>
        <time>2021-04-03T15:20:03Z</time>
      </trkpt>
      <trkpt lat="46.30428" lon="4.6742">
        <ele>338.166</ele>
        <time>2021-04-03T15:20:05Z</time>
      </trkpt>
      <trkpt lat="46.30447" lon="4.67436">
        <ele>338.362</ele>
        <time>2021-04-03T15:20:07Z</time>
      </trkpt>
      <trkpt lat="46.30462" lon="4.67453">
        <ele>337.683</ele>
        <time>2021-04-03T15:20:09Z</time>
      </trkpt>
      <trkpt lat="46.30474" lon="4.6747">
        <ele>336.911</ele>
        <time>2021-04-03T15:20:11Z</time>
      </trkpt>
      <trkpt lat="46.30489" lon="4.67488">
        <ele>336.508</ele>
        <time>2021-04-03T15:20:13Z</time>
      </trkpt>
      <trkpt lat="46.30506" lon="4.6751">
        <ele>336.232</ele>
        <time>2021-04-03T15:20:15Z</time>
      </trkpt>
      <trkpt lat="46.30524" lon="4.6753">
        <ele>336.225</ele>
        <time>2021-04-03T15:20:17Z</time>
      </trkpt>
      <trkpt lat="46.30538" lon="4.67551">
        <ele>336.384</ele>
        <time>2021-04-03T15:20:19Z</time>
      </trkpt>
      <trkpt lat="46.30553" lon="4.67576">
        <ele>336.116</ele>
        <time>2021-04-03T15:20:21Z</time>
      </trkpt>
      <trkpt lat="46.30566" lon="4.67602">
        <ele>336.478</ele>
        <time>2021-04-03T15:20:23Z</time>
      </trkpt>
      <trkpt lat="46.30577" lon="4.67623">
        <ele>336.554</ele>
        <time>2021-04-03T15:20:25Z</time>
      </trkpt>
      <trkpt lat="46.30584" lon="4.67639">
        <ele>337.561</ele>
        <time>2021-04-03T15:20:27Z</time>
      </trkpt>
      <trkpt lat="46.30587" lon="4.67648">
        <ele>338.558</ele>
        <time>2021-04-03T15:20:29Z</time>
      </trkpt>
      <trkpt lat="46.30582" lon="4.67648">
        <ele>339.191</ele>
        <time>2021-04-03T15:20:31Z</time>
      </trkpt>
      <trkpt lat="46.30572" lon="4.67646">
        <ele>339.581</ele>
        <time>2021-04-03T15:20:33Z</time>
      </trkpt>
      <trkpt lat="46.30555" lon="4.67643">
        <ele>343.519</ele>
        <time>2021-04-03T15:20:35Z</time>
      </trkpt>
      <trkpt lat="46.30536" lon="4.67643">
        <ele>347.508</ele>
        <time>2021-04-03T15:20:37Z</time>
      </trkpt>
      <trkpt lat="46.30519" lon="4.67647">
        <ele>349.425</ele>
        <time>2021-04-03T15:20:39Z</time>
      </trkpt>
      <trkpt lat="46.30503" lon="4.67649">
        <ele>349.838</ele>
        <time>2021-04-03T15:20:41Z</time>
      </trkpt>
      <trkpt lat="46.30486" lon="4.67651">
        <ele>350.187</ele>
        <time>2021-04-03T15:20:43Z</time>
      </trkpt>
      <trkpt lat="46.30472" lon="4.67648">
        <ele>351.069</ele>
        <time>2021-04-03T15:20:45Z</time>
      </trkpt>
      <trkpt lat="46.30455" lon="4.6764">
        <ele>352.841</ele>
        <time>2021-04-03T15:20:47Z</time>
      </trkpt>
      <trkpt lat="46.30436" lon="4.67628">
        <ele>354.077</ele>
        <time>2021-04-03T15:20:49Z</time>
      </trkpt>
      <trkpt lat="46.30415" lon="4.67615">
        <ele>354.564</ele>
        <time>2021-04-03T15:20:51Z</time>
      </trkpt>
      <trkpt lat="46.304" lon="4.67609">
        <ele>355.121</ele>
        <time>2021-04-03T15:20:53Z</time>
      </trkpt>
      <trkpt lat="46.30383" lon="4.67607">
        <ele>356.695</ele>
        <time>2021-04-03T15:20:55Z</time>
      </trkpt>
      <trkpt lat="46.30361" lon="4.67609">
        <ele>358.049</ele>
        <time>2021-04-03T15:20:57Z</time>
      </trkpt>
      <trkpt lat="46.30337" lon="4.67611">
        <ele>359.623</ele>
        <time>2021-04-03T15:20:59Z</time>
      </trkpt>
      <trkpt lat="46.30314" lon="4.6761">
        <ele>360.608</ele>
        <time>2021-04-03T15:21:01Z</time>
      </trkpt>
      <trkpt lat="46.30289" lon="4.67611">
        <ele>364.645</ele>
        <time>2021-04-03T15:21:03Z</time>
      </trkpt>
      <trkpt lat="46.30269" lon="4.67611">
        <ele>366.718</ele>
        <time>2021-04-03T15:21:05Z</time>
      </trkpt>
      <trkpt lat="46.30253" lon="4.67609">
        <ele>367.847</ele>
        <time>2021-04-03T15:21:07Z</time>
      </trkpt>
      <trkpt lat="46.30239" lon="4.67607">
        <ele>368.129</ele>
        <time>2021-04-03T15:21:09Z</time>
      </trkpt>
      <trkpt lat="46.30223" lon="4.67607">
        <ele>369.551</ele>
        <time>2021-04-03T15:21:11Z</time>
      </trkpt>
      <trkpt lat="46.30205" lon="4.67613">
        <ele>371.367</ele>
        <time>2021-04-03T15:21:13Z</time>
      </trkpt>
      <trkpt lat="46.30189" lon="4.67618">
        <ele>373.214</ele>
        <time>2021-04-03T15:21:15Z</time>
      </trkpt>
      <trkpt lat="46.30175" lon="4.67629">
        <ele>375.161</ele>
        <time>2021-04-03T15:21:17Z</time>
      </trkpt>
      <trkpt lat="46.30161" lon="4.67643">
        <ele>376.463</ele>
        <time>2021-04-03T15:21:19Z</time>
      </trkpt>
      <trkpt lat="46.30154" lon="4.67658">
        <ele>378.044</ele>
        <time>2021-04-03T15:21:21Z</time>
      </trkpt>
      <trkpt lat="46.30147" lon="4.6767">
        <ele>380.218</ele>
        <time>2021-04-03T15:21:23Z</time>
      </trkpt>
      <trkpt lat="46.30138" lon="4.67685">
        <ele>381.908</ele>
        <time>2021-04-03T15:21:25Z</time>
      </trkpt>
      <trkpt lat="46.30128" lon="4.67699">
        <ele>383.162</ele>
        <time>2021-04-03T15:21:27Z</time>
      </trkpt>
      <trkpt lat="46.30122" lon="4.67713">
        <ele>384.475</ele>
        <time>2021-04-03T15:21:31Z</time>
      </trkpt>
      <trkpt lat="46.30119" lon="4.67719">
        <ele>385.224</ele>
        <time>2021-04-03T15:21:32Z</time>
      </trkpt>
      <trkpt lat="46.30102" lon="4.67741">
        <ele>388.076</ele>
        <time>2021-04-03T15:21:35Z</time>
      </trkpt>
      <trkpt lat="46.30089" lon="4.67756">
        <ele>390.858</ele>
        <time>2021-04-03T15:21:37Z</time>
      </trkpt>
      <trkpt lat="46.30076" lon="4.67772">
        <ele>393.844</ele>
        <time>2021-04-03T15:21:39Z</time>
      </trkpt>
      <trkpt lat="46.30063" lon="4.67787">
        <ele>397.261</ele>
        <time>2021-04-03T15:21:41Z</time>
      </trkpt>
      <trkpt lat="46.30053" lon="4.678">
        <ele>400.728</ele>
        <time>2021-04-03T15:21:43Z</time>
      </trkpt>
      <trkpt lat="46.30047" lon="4.67811">
        <ele>403.767</ele>
        <time>2021-04-03T15:21:45Z</time>
      </trkpt>
      <trkpt lat="46.30047" lon="4.67827">
        <ele>406.881</ele>
        <time>2021-04-03T15:21:47Z</time>
      </trkpt>
      <trkpt lat="46.30052" lon="4.67841">
        <ele>409.019</ele>
        <time>2021-04-03T15:21:49Z</time>
      </trkpt>
      <trkpt lat="46.3005" lon="4.67834">
        <ele>410.908</ele>
        <time>2021-04-03T15:22:14Z</time>
      </trkpt>
      <trkpt lat="46.30041" lon="4.67827">
        <ele>412.062</ele>
        <time>2021-04-03T15:22:17Z</time>
      </trkpt>
      <trkpt lat="46.30028" lon="4.67824">
        <ele>412.755</ele>
        <time>2021-04-03T15:22:19Z</time>
      </trkpt>
      <trkpt lat="46.30022" lon="4.67823">
        <ele>413.124</ele>
        <time>2021-04-03T15:22:21Z</time>
      </trkpt>
      <trkpt lat="46.30016" lon="4.67817">
        <ele>413.426</ele>
        <time>2021-04-03T15:22:35Z</time>
      </trkpt>
      <trkpt lat="46.30011" lon="4.67804">
        <ele>413.648</ele>
        <time>2021-04-03T15:22:37Z</time>
      </trkpt>
      <trkpt lat="46.30012" lon="4.67784">
        <ele>413.764</ele>
        <time>2021-04-03T15:22:39Z</time>
      </trkpt>
      <trkpt lat="46.30015" lon="4.67766">
        <ele>413.871</ele>
        <time>2021-04-03T15:22:41Z</time>
      </trkpt>
      <trkpt lat="46.30019" lon="4.67747">
        <ele>413.848</ele>
        <time>2021-04-03T15:22:43Z</time>
      </trkpt>
      <trkpt lat="46.30022" lon="4.67725">
        <ele>413.884</ele>
        <time>2021-04-03T15:22:45Z</time>
      </trkpt>
      <trkpt lat="46.30026" lon="4.67701">
        <ele>413.807</ele>
        <time>2021-04-03T15:22:47Z</time>
      </trkpt>
      <trkpt lat="46.30027" lon="4.67678">
        <ele>413.817</ele>
        <time>2021-04-03T15:22:49Z</time>
      </trkpt>
      <trkpt lat="46.30027" lon="4.67658">
        <ele>413.808</ele>
        <time>2021-04-03T15:22:51Z</time>
      </trkpt>
      <trkpt lat="46.30029" lon="4.67633">
        <ele>413.844</ele>
        <time>2021-04-03T15:22:53Z</time>
      </trkpt>
      <trkpt lat="46.30031" lon="4.67606">
        <ele>413.857</ele>
        <time>2021-04-03T15:22:55Z</time>
      </trkpt>
      <trkpt lat="46.30033" lon="4.67581">
        <ele>413.866</ele>
        <time>2021-04-03T15:22:57Z</time>
      </trkpt>
      <trkpt lat="46.30032" lon="4.67558">
        <ele>413.878</ele>
        <time>2021-04-03T15:22:59Z</time>
      </trkpt>
      <trkpt lat="46.30029" lon="4.67535">
        <ele>413.89</ele>
        <time>2021-04-03T15:23:01Z</time>
      </trkpt>
      <trkpt lat="46.30025" lon="4.67513">
        <ele>413.846</ele>
        <time>2021-04-03T15:23:03Z</time>
      </trkpt>
      <trkpt lat="46.30024" lon="4.67494">
        <ele>413.873</ele>
        <time>2021-04-03T15:23:05Z</time>
      </trkpt>
      <trkpt lat="46.30021" lon="4.67476">
        <ele>413.82</ele>
        <time>2021-04-03T15:23:07Z</time>
      </trkpt>
      <trkpt lat="46.30016" lon="4.67453">
        <ele>413.859</ele>
        <time>2021-04-03T15:23:09Z</time>
      </trkpt>
      <trkpt lat="46.30009" lon="4.67428">
        <ele>413.803</ele>
        <time>2021-04-03T15:23:11Z</time>
      </trkpt>
      <trkpt lat="46.30004" lon="4.67403">
        <ele>409.823</ele>
        <time>2021-04-03T15:23:13Z</time>
      </trkpt>
      <trkpt lat="46.30002" lon="4.6738">
        <ele>405.808</ele>
        <time>2021-04-03T15:23:15Z</time>
      </trkpt>
      <trkpt lat="46.29996" lon="4.67358">
        <ele>401.891</ele>
        <time>2021-04-03T15:23:17Z</time>
      </trkpt>
      <trkpt lat="46.29985" lon="4.67335">
        <ele>397.834</ele>
        <time>2021-04-03T15:23:19Z</time>
      </trkpt>
      <trkpt lat="46.29975" lon="4.67311">
        <ele>393.833</ele>
        <time>2021-04-03T15:23:21Z</time>
      </trkpt>
      <trkpt lat="46.29964" lon="4.67287">
        <ele>390.575</ele>
        <time>2021-04-03T15:23:23Z</time>
      </trkpt>
      <trkpt lat="46.29954" lon="4.67268">
        <ele>388.457</ele>
        <time>2021-04-03T15:23:25Z</time>
      </trkpt>
      <trkpt lat="46.2994" lon="4.67253">
        <ele>385.983</ele>
        <time>2021-04-03T15:23:27Z</time>
      </trkpt>
      <trkpt lat="46.29925" lon="4.67242">
        <ele>384.25</ele>
        <time>2021-04-03T15:23:29Z</time>
      </trkpt>
      <trkpt lat="46.29913" lon="4.67232">
        <ele>383.197</ele>
        <time>2021-04-03T15:23:31Z</time>
      </trkpt>
      <trkpt lat="46.29901" lon="4.67222">
        <ele>382.071</ele>
        <time>2021-04-03T15:23:33Z</time>
      </trkpt>
      <trkpt lat="46.29891" lon="4.67213">
        <ele>381.741</ele>
        <time>2021-04-03T15:23:35Z</time>
      </trkpt>
      <trkpt lat="46.29876" lon="4.67205">
        <ele>385.715</ele>
        <time>2021-04-03T15:23:37Z</time>
      </trkpt>
      <trkpt lat="46.29856" lon="4.67204">
        <ele>384.308</ele>
        <time>2021-04-03T15:23:39Z</time>
      </trkpt>
      <trkpt lat="46.29837" lon="4.67202">
        <ele>380.373</ele>
        <time>2021-04-03T15:23:41Z</time>
      </trkpt>
      <trkpt lat="46.29818" lon="4.67203">
        <ele>376.346</ele>
        <time>2021-04-03T15:23:43Z</time>
      </trkpt>
      <trkpt lat="46.29803" lon="4.67202">
        <ele>373.645</ele>
        <time>2021-04-03T15:23:45Z</time>
      </trkpt>
      <trkpt lat="46.29791" lon="4.67189">
        <ele>372.027</ele>
        <time>2021-04-03T15:23:47Z</time>
      </trkpt>
      <trkpt lat="46.29785" lon="4.6717">
        <ele>376.099</ele>
        <time>2021-04-03T15:23:49Z</time>
      </trkpt>
      <trkpt lat="46.29789" lon="4.67155">
        <ele>380.035</ele>
        <time>2021-04-03T15:23:51Z</time>
      </trkpt>
      <trkpt lat="46.29793" lon="4.67149">
        <ele>380.722</ele>
        <time>2021-04-03T15:23:53Z</time>
      </trkpt>
      <trkpt lat="46.29795" lon="4.67135">
        <ele>378.749</ele>
        <time>2021-04-03T15:23:55Z</time>
      </trkpt>
      <trkpt lat="46.29798" lon="4.67107">
        <ele>376.544</ele>
        <time>2021-04-03T15:23:57Z</time>
      </trkpt>
      <trkpt lat="46.298" lon="4.67067">
        <ele>374.605</ele>
        <time>2021-04-03T15:23:59Z</time>
      </trkpt>
      <trkpt lat="46.29798" lon="4.67031">
        <ele>373.415</ele>
        <time>2021-04-03T15:24:01Z</time>
      </trkpt>
      <trkpt lat="46.29793" lon="4.66999">
        <ele>372.108</ele>
        <time>2021-04-03T15:24:03Z</time>
      </trkpt>
      <trkpt lat="46.29788" lon="4.66972">
        <ele>370.71</ele>
        <time>2021-04-03T15:24:05Z</time>
      </trkpt>
      <trkpt lat="46.29784" lon="4.66951">
        <ele>369.083</ele>
        <time>2021-04-03T15:24:07Z</time>
      </trkpt>
      <trkpt lat="46.2978" lon="4.66936">
        <ele>367.212</ele>
        <time>2021-04-03T15:24:09Z</time>
      </trkpt>
      <trkpt lat="46.29773" lon="4.66912">
        <ele>364.414</ele>
        <time>2021-04-03T15:24:11Z</time>
      </trkpt>
      <trkpt lat="46.29761" lon="4.66888">
        <ele>362.136</ele>
        <time>2021-04-03T15:24:13Z</time>
      </trkpt>
      <trkpt lat="46.29747" lon="4.66865">
        <ele>359.392</ele>
        <time>2021-04-03T15:24:15Z</time>
      </trkpt>
      <trkpt lat="46.29732" lon="4.66843">
        <ele>356.279</ele>
        <time>2021-04-03T15:24:17Z</time>
      </trkpt>
      <trkpt lat="46.29718" lon="4.66826">
        <ele>353.786</ele>
        <time>2021-04-03T15:24:19Z</time>
      </trkpt>
      <trkpt lat="46.29703" lon="4.66811">
        <ele>351.984</ele>
        <time>2021-04-03T15:24:21Z</time>
      </trkpt>
      <trkpt lat="46.29689" lon="4.66793">
        <ele>350.607</ele>
        <time>2021-04-03T15:24:23Z</time>
      </trkpt>
      <trkpt lat="46.29679" lon="4.66772">
        <ele>349.717</ele>
        <time>2021-04-03T15:24:25Z</time>
      </trkpt>
      <trkpt lat="46.29671" lon="4.66746">
        <ele>349.108</ele>
        <time>2021-04-03T15:24:27Z</time>
      </trkpt>
      <trkpt lat="46.29667" lon="4.66713">
        <ele>348.844</ele>
        <time>2021-04-03T15:24:29Z</time>
      </trkpt>
      <trkpt lat="46.29668" lon="4.66678">
        <ele>348.337</ele>
        <time>2021-04-03T15:24:31Z</time>
      </trkpt>
      <trkpt lat="46.29672" lon="4.66649">
        <ele>347.726</ele>
        <time>2021-04-03T15:24:33Z</time>
      </trkpt>
      <trkpt lat="46.29677" lon="4.66631">
        <ele>347.358</ele>
        <time>2021-04-03T15:24:35Z</time>
      </trkpt>
      <trkpt lat="46.29681" lon="4.6663">
        <ele>347.29</ele>
        <time>2021-04-03T15:24:37Z</time>
      </trkpt>
      <trkpt lat="46.29679" lon="4.66621">
        <ele>346.696</ele>
        <time>2021-04-03T15:24:43Z</time>
      </trkpt>
      <trkpt lat="46.29674" lon="4.66603">
        <ele>346.443</ele>
        <time>2021-04-03T15:24:45Z</time>
      </trkpt>
      <trkpt lat="46.29662" lon="4.66581">
        <ele>346.55</ele>
        <time>2021-04-03T15:24:47Z</time>
      </trkpt>
      <trkpt lat="46.29641" lon="4.66555">
        <ele>347.164</ele>
        <time>2021-04-03T15:24:49Z</time>
      </trkpt>
      <trkpt lat="46.29615" lon="4.66523">
        <ele>347.906</ele>
        <time>2021-04-03T15:24:51Z</time>
      </trkpt>
      <trkpt lat="46.29588" lon="4.66489">
        <ele>348.316</ele>
        <time>2021-04-03T15:24:53Z</time>
      </trkpt>
      <trkpt lat="46.29514" lon="4.66388">
        <ele>349.008</ele>
        <time>2021-04-03T15:24:59Z</time>
      </trkpt>
      <trkpt lat="46.29499" lon="4.66367">
        <ele>350.512</ele>
        <time>2021-04-03T15:25:01Z</time>
      </trkpt>
      <trkpt lat="46.2949" lon="4.66353">
        <ele>352.915</ele>
        <time>2021-04-03T15:25:03Z</time>
      </trkpt>
      <trkpt lat="46.29486" lon="4.66345">
        <ele>354.774</ele>
        <time>2021-04-03T15:25:05Z</time>
      </trkpt>
      <trkpt lat="46.29487" lon="4.66357">
        <ele>355.356</ele>
        <time>2021-04-03T15:25:09Z</time>
      </trkpt>
      <trkpt lat="46.29495" lon="4.66373">
        <ele>355.378</ele>
        <time>2021-04-03T15:25:11Z</time>
      </trkpt>
      <trkpt lat="46.29506" lon="4.66388">
        <ele>356.154</ele>
        <time>2021-04-03T15:25:13Z</time>
      </trkpt>
      <trkpt lat="46.29524" lon="4.6639">
        <ele>357.271</ele>
        <time>2021-04-03T15:25:15Z</time>
      </trkpt>
      <trkpt lat="46.29531" lon="4.66378">
        <ele>357.868</ele>
        <time>2021-04-03T15:25:17Z</time>
      </trkpt>
      <trkpt lat="46.29532" lon="4.66353">
        <ele>358.632</ele>
        <time>2021-04-03T15:25:19Z</time>
      </trkpt>
      <trkpt lat="46.29534" lon="4.66331">
        <ele>359.992</ele>
        <time>2021-04-03T15:25:21Z</time>
      </trkpt>
      <trkpt lat="46.29542" lon="4.66316">
        <ele>360.811</ele>
        <time>2021-04-03T15:25:23Z</time>
      </trkpt>
      <trkpt lat="46.29551" lon="4.663">
        <ele>361.908</ele>
        <time>2021-04-03T15:25:25Z</time>
      </trkpt>
      <trkpt lat="46.2956" lon="4.66289">
        <ele>362.599</ele>
        <time>2021-04-03T15:25:27Z</time>
      </trkpt>
      <trkpt lat="46.29571" lon="4.66284">
        <ele>363.932</ele>
        <time>2021-04-03T15:25:29Z</time>
      </trkpt>
      <trkpt lat="46.2958" lon="4.66271">
        <ele>366.421</ele>
        <time>2021-04-03T15:25:31Z</time>
      </trkpt>
      <trkpt lat="46.29587" lon="4.66257">
        <ele>369.453</ele>
        <time>2021-04-03T15:25:33Z</time>
      </trkpt>
      <trkpt lat="46.29597" lon="4.66241">
        <ele>367.745</ele>
        <time>2021-04-03T15:25:35Z</time>
      </trkpt>
      <trkpt lat="46.29608" lon="4.66224">
        <ele>368.161</ele>
        <time>2021-04-03T15:25:37Z</time>
      </trkpt>
      <trkpt lat="46.29619" lon="4.6621">
        <ele>370.318</ele>
        <time>2021-04-03T15:25:39Z</time>
      </trkpt>
      <trkpt lat="46.29631" lon="4.66199">
        <ele>372.785</ele>
        <time>2021-04-03T15:25:41Z</time>
      </trkpt>
      <trkpt lat="46.29638" lon="4.66185">
        <ele>376.789</ele>
        <time>2021-04-03T15:25:43Z</time>
      </trkpt>
      <trkpt lat="46.29649" lon="4.66171">
        <ele>380.306</ele>
        <time>2021-04-03T15:25:45Z</time>
      </trkpt>
      <trkpt lat="46.29656" lon="4.66162">
        <ele>384.326</ele>
        <time>2021-04-03T15:25:47Z</time>
      </trkpt>
      <trkpt lat="46.29667" lon="4.66151">
        <ele>388.308</ele>
        <time>2021-04-03T15:25:51Z</time>
      </trkpt>
      <trkpt lat="46.29681" lon="4.66136">
        <ele>392.314</ele>
        <time>2021-04-03T15:25:53Z</time>
      </trkpt>
      <trkpt lat="46.29696" lon="4.66122">
        <ele>396.387</ele>
        <time>2021-04-03T15:25:55Z</time>
      </trkpt>
      <trkpt lat="46.29706" lon="4.66114">
        <ele>400.326</ele>
        <time>2021-04-03T15:25:57Z</time>
      </trkpt>
      <trkpt lat="46.29715" lon="4.66111">
        <ele>404.048</ele>
        <time>2021-04-03T15:26:01Z</time>
      </trkpt>
      <trkpt lat="46.29717" lon="4.66104">
        <ele>407.16</ele>
        <time>2021-04-03T15:28:14Z</time>
      </trkpt>
      <trkpt lat="46.29738" lon="4.66085">
        <ele>410.216</ele>
        <time>2021-04-03T15:28:17Z</time>
      </trkpt>
      <trkpt lat="46.29752" lon="4.66069">
        <ele>412.283</ele>
        <time>2021-04-03T15:28:19Z</time>
      </trkpt>
      <trkpt lat="46.29765" lon="4.66054">
        <ele>412.54</ele>
        <time>2021-04-03T15:28:21Z</time>
      </trkpt>
      <trkpt lat="46.29777" lon="4.6604">
        <ele>412.628</ele>
        <time>2021-04-03T15:28:23Z</time>
      </trkpt>
      <trkpt lat="46.29787" lon="4.66022">
        <ele>412.889</ele>
        <time>2021-04-03T15:28:25Z</time>
      </trkpt>
      <trkpt lat="46.29796" lon="4.66005">
        <ele>413.517</ele>
        <time>2021-04-03T15:28:27Z</time>
      </trkpt>
      <trkpt lat="46.29807" lon="4.65992">
        <ele>414.308</ele>
        <time>2021-04-03T15:28:29Z</time>
      </trkpt>
      <trkpt lat="46.29819" lon="4.65979">
        <ele>415.038</ele>
        <time>2021-04-03T15:28:31Z</time>
      </trkpt>
      <trkpt lat="46.29833" lon="4.65969">
        <ele>416.391</ele>
        <time>2021-04-03T15:28:33Z</time>
      </trkpt>
      <trkpt lat="46.29848" lon="4.65961">
        <ele>417.64</ele>
        <time>2021-04-03T15:28:35Z</time>
      </trkpt>
      <trkpt lat="46.29861" lon="4.65953">
        <ele>418.622</ele>
        <time>2021-04-03T15:28:37Z</time>
      </trkpt>
      <trkpt lat="46.29874" lon="4.65943">
        <ele>419.814</ele>
        <time>2021-04-03T15:28:39Z</time>
      </trkpt>
      <trkpt lat="46.29885" lon="4.65932">
        <ele>421.29</ele>
        <time>2021-04-03T15:28:41Z</time>
      </trkpt>
      <trkpt lat="46.29895" lon="4.6592">
        <ele>423.057</ele>
        <time>2021-04-03T15:28:43Z</time>
      </trkpt>
      <trkpt lat="46.29907" lon="4.65914">
        <ele>424.744</ele>
        <time>2021-04-03T15:28:45Z</time>
      </trkpt>
      <trkpt lat="46.29921" lon="4.65905">
        <ele>425.697</ele>
        <time>2021-04-03T15:28:47Z</time>
      </trkpt>
      <trkpt lat="46.29931" lon="4.65902">
        <ele>426.223</ele>
        <time>2021-04-03T15:28:49Z</time>
      </trkpt>
      <trkpt lat="46.29936" lon="4.65905">
        <ele>426.525</ele>
        <time>2021-04-03T15:28:53Z</time>
      </trkpt>
      <trkpt lat="46.29936" lon="4.65898">
        <ele>426.708</ele>
        <time>2021-04-03T15:29:03Z</time>
      </trkpt>
      <trkpt lat="46.29938" lon="4.65883">
        <ele>430.795</ele>
        <time>2021-04-03T15:29:05Z</time>
      </trkpt>
      <trkpt lat="46.29941" lon="4.65862">
        <ele>433.978</ele>
        <time>2021-04-03T15:29:07Z</time>
      </trkpt>
      <trkpt lat="46.29944" lon="4.65845">
        <ele>435.817</ele>
        <time>2021-04-03T15:29:09Z</time>
      </trkpt>
      <trkpt lat="46.29947" lon="4.65829">
        <ele>436.929</ele>
        <time>2021-04-03T15:29:11Z</time>
      </trkpt>
      <trkpt lat="46.2995" lon="4.65813">
        <ele>437.691</ele>
        <time>2021-04-03T15:29:13Z</time>
      </trkpt>
      <trkpt lat="46.29952" lon="4.65791">
        <ele>438.077</ele>
        <time>2021-04-03T15:29:15Z</time>
      </trkpt>
      <trkpt lat="46.29954" lon="4.65763">
        <ele>438.214</ele>
        <time>2021-04-03T15:29:17Z</time>
      </trkpt>
      <trkpt lat="46.29956" lon="4.65733">
        <ele>438.321</ele>
        <time>2021-04-03T15:29:19Z</time>
      </trkpt>
      <trkpt lat="46.29953" lon="4.65706">
        <ele>438.497</ele>
        <time>2021-04-03T15:29:21Z</time>
      </trkpt>
      <trkpt lat="46.29942" lon="4.65686">
        <ele>438.523</ele>
        <time>2021-04-03T15:29:23Z</time>
      </trkpt>
      <trkpt lat="46.29924" lon="4.6567">
        <ele>438.625</ele>
        <time>2021-04-03T15:29:25Z</time>
      </trkpt>
      <trkpt lat="46.29911" lon="4.65651">
        <ele>438.608</ele>
        <time>2021-04-03T15:29:27Z</time>
      </trkpt>
      <trkpt lat="46.29908" lon="4.65631">
        <ele>438.695</ele>
        <time>2021-04-03T15:29:29Z</time>
      </trkpt>
      <trkpt lat="46.29907" lon="4.65606">
        <ele>438.678</ele>
        <time>2021-04-03T15:29:31Z</time>
      </trkpt>
      <trkpt lat="46.29907" lon="4.65575">
        <ele>438.687</ele>
        <time>2021-04-03T15:29:33Z</time>
      </trkpt>
      <trkpt lat="46.29906" lon="4.65542">
        <ele>438.619</ele>
        <time>2021-04-03T15:29:35Z</time>
      </trkpt>
      <trkpt lat="46.29903" lon="4.65511">
        <ele>438.661</ele>
        <time>2021-04-03T15:29:37Z</time>
      </trkpt>
      <trkpt lat="46.29898" lon="4.6548">
        <ele>438.697</ele>
        <time>2021-04-03T15:29:39Z</time>
      </trkpt>
      <trkpt lat="46.29894" lon="4.65451">
        <ele>438.664</ele>
        <time>2021-04-03T15:29:41Z</time>
      </trkpt>
      <trkpt lat="46.29888" lon="4.65425">
        <ele>438.671</ele>
        <time>2021-04-03T15:29:43Z</time>
      </trkpt>
      <trkpt lat="46.29875" lon="4.65402">
        <ele>438.668</ele>
        <time>2021-04-03T15:29:45Z</time>
      </trkpt>
      <trkpt lat="46.29854" lon="4.65381">
        <ele>438.642</ele>
        <time>2021-04-03T15:29:47Z</time>
      </trkpt>
      <trkpt lat="46.29837" lon="4.65361">
        <ele>438.626</ele>
        <time>2021-04-03T15:29:49Z</time>
      </trkpt>
      <trkpt lat="46.2983" lon="4.65343">
        <ele>438.608</ele>
        <time>2021-04-03T15:29:51Z</time>
      </trkpt>
      <trkpt lat="46.29825" lon="4.65328">
        <ele>438.692</ele>
        <time>2021-04-03T15:29:53Z</time>
      </trkpt>
      <trkpt lat="46.29822" lon="4.65306">
        <ele>442.385</ele>
        <time>2021-04-03T15:29:55Z</time>
      </trkpt>
      <trkpt lat="46.29818" lon="4.65277">
        <ele>444.834</ele>
        <time>2021-04-03T15:29:57Z</time>
      </trkpt>
      <trkpt lat="46.29814" lon="4.65248">
        <ele>445.996</ele>
        <time>2021-04-03T15:29:59Z</time>
      </trkpt>
      <trkpt lat="46.29811" lon="4.65221">
        <ele>446.218</ele>
        <time>2021-04-03T15:30:01Z</time>
      </trkpt>
      <trkpt lat="46.29808" lon="4.652">
        <ele>446.794</ele>
        <time>2021-04-03T15:30:03Z</time>
      </trkpt>
      <trkpt lat="46.29811" lon="4.65186">
        <ele>447.381</ele>
        <time>2021-04-03T15:30:05Z</time>
      </trkpt>
      <trkpt lat="46.29817" lon="4.65174">
        <ele>448.098</ele>
        <time>2021-04-03T15:30:07Z</time>
      </trkpt>
      <trkpt lat="46.29822" lon="4.65157">
        <ele>449.294</ele>
        <time>2021-04-03T15:30:09Z</time>
      </trkpt>
      <trkpt lat="46.29818" lon="4.65136">
        <ele>450.657</ele>
        <time>2021-04-03T15:30:11Z</time>
      </trkpt>
      <trkpt lat="46.2981" lon="4.65112">
        <ele>451.322</ele>
        <time>2021-04-03T15:30:13Z</time>
      </trkpt>
      <trkpt lat="46.29804" lon="4.65089">
        <ele>452.208</ele>
        <time>2021-04-03T15:30:15Z</time>
      </trkpt>
      <trkpt lat="46.298" lon="4.65064">
        <ele>452.985</ele>
        <time>2021-04-03T15:30:17Z</time>
      </trkpt>
      <trkpt lat="46.29801" lon="4.65037">
        <ele>454.378</ele>
        <time>2021-04-03T15:30:19Z</time>
      </trkpt>
      <trkpt lat="46.29802" lon="4.6501">
        <ele>455.637</ele>
        <time>2021-04-03T15:30:21Z</time>
      </trkpt>
      <trkpt lat="46.29803" lon="4.64984">
        <ele>457.869</ele>
        <time>2021-04-03T15:30:23Z</time>
      </trkpt>
      <trkpt lat="46.29802" lon="4.64958">
        <ele>459.271</ele>
        <time>2021-04-03T15:30:25Z</time>
      </trkpt>
      <trkpt lat="46.29798" lon="4.64935">
        <ele>460.947</ele>
        <time>2021-04-03T15:30:27Z</time>
      </trkpt>
      <trkpt lat="46.29797" lon="4.64914">
        <ele>462.984</ele>
        <time>2021-04-03T15:30:29Z</time>
      </trkpt>
      <trkpt lat="46.29799" lon="4.64888">
        <ele>463.951</ele>
        <time>2021-04-03T15:30:31Z</time>
      </trkpt>
      <trkpt lat="46.29801" lon="4.64863">
        <ele>465.685</ele>
        <time>2021-04-03T15:30:33Z</time>
      </trkpt>
      <trkpt lat="46.29799" lon="4.64843">
        <ele>465.989</ele>
        <time>2021-04-03T15:30:35Z</time>
      </trkpt>
      <trkpt lat="46.29793" lon="4.6484">
        <ele>467.017</ele>
        <time>2021-04-03T15:30:37Z</time>
      </trkpt>
      <trkpt lat="46.29781" lon="4.64842">
        <ele>468.508</ele>
        <time>2021-04-03T15:30:39Z</time>
      </trkpt>
      <trkpt lat="46.29763" lon="4.6485">
        <ele>471.074</ele>
        <time>2021-04-03T15:30:41Z</time>
      </trkpt>
      <trkpt lat="46.29743" lon="4.64856">
        <ele>473.197</ele>
        <time>2021-04-03T15:30:43Z</time>
      </trkpt>
      <trkpt lat="46.29724" lon="4.64858">
        <ele>475.856</ele>
        <time>2021-04-03T15:30:45Z</time>
      </trkpt>
      <trkpt lat="46.29706" lon="4.6486">
        <ele>479.678</ele>
        <time>2021-04-03T15:30:47Z</time>
      </trkpt>
      <trkpt lat="46.29686" lon="4.64863">
        <ele>483.52</ele>
        <time>2021-04-03T15:30:49Z</time>
      </trkpt>
      <trkpt lat="46.29669" lon="4.64862">
        <ele>486.216</ele>
        <time>2021-04-03T15:30:51Z</time>
      </trkpt>
      <trkpt lat="46.29663" lon="4.64857">
        <ele>488.383</ele>
        <time>2021-04-03T15:30:53Z</time>
      </trkpt>
      <trkpt lat="46.29667" lon="4.64852">
        <ele>490.11</ele>
        <time>2021-04-03T15:30:55Z</time>
      </trkpt>
      <trkpt lat="46.29668" lon="4.6484">
        <ele>491.755</ele>
        <time>2021-04-03T15:31:01Z</time>
      </trkpt>
      <trkpt lat="46.29675" lon="4.64828">
        <ele>493.907</ele>
        <time>2021-04-03T15:31:03Z</time>
      </trkpt>
      <trkpt lat="46.29685" lon="4.6481">
        <ele>495.217</ele>
        <time>2021-04-03T15:31:05Z</time>
      </trkpt>
      <trkpt lat="46.29696" lon="4.64789">
        <ele>497.008</ele>
        <time>2021-04-03T15:31:07Z</time>
      </trkpt>
      <trkpt lat="46.29708" lon="4.64773">
        <ele>499.231</ele>
        <time>2021-04-03T15:31:09Z</time>
      </trkpt>
      <trkpt lat="46.2972" lon="4.64758">
        <ele>500.514</ele>
        <time>2021-04-03T15:31:11Z</time>
      </trkpt>
      <trkpt lat="46.29728" lon="4.64742">
        <ele>504.593</ele>
        <time>2021-04-03T15:31:13Z</time>
      </trkpt>
      <trkpt lat="46.29734" lon="4.64731">
        <ele>508.535</ele>
        <time>2021-04-03T15:31:15Z</time>
      </trkpt>
      <trkpt lat="46.29737" lon="4.64725">
        <ele>512.227</ele>
        <time>2021-04-03T15:31:17Z</time>
      </trkpt>
      <trkpt lat="46.29743" lon="4.64706">
        <ele>513.733</ele>
        <time>2021-04-03T15:31:19Z</time>
      </trkpt>
      <trkpt lat="46.29748" lon="4.64678">
        <ele>514.74</ele>
        <time>2021-04-03T15:31:21Z</time>
      </trkpt>
      <trkpt lat="46.29749" lon="4.64649">
        <ele>516.257</ele>
        <time>2021-04-03T15:31:23Z</time>
      </trkpt>
      <trkpt lat="46.29747" lon="4.64622">
        <ele>518.028</ele>
        <time>2021-04-03T15:31:25Z</time>
      </trkpt>
      <trkpt lat="46.29742" lon="4.646">
        <ele>519.789</ele>
        <time>2021-04-03T15:31:27Z</time>
      </trkpt>
      <trkpt lat="46.29742" lon="4.64585">
        <ele>520.417</ele>
        <time>2021-04-03T15:31:29Z</time>
      </trkpt>
      <trkpt lat="46.29735" lon="4.64583">
        <ele>522.508</ele>
        <time>2021-04-03T15:31:33Z</time>
      </trkpt>
      <trkpt lat="46.2973" lon="4.64561">
        <ele>524.268</ele>
        <time>2021-04-03T15:31:37Z</time>
      </trkpt>
      <trkpt lat="46.29732" lon="4.64544">
        <ele>525.691</ele>
        <time>2021-04-03T15:31:39Z</time>
      </trkpt>
      <trkpt lat="46.29735" lon="4.64525">
        <ele>527.65</ele>
        <time>2021-04-03T15:31:41Z</time>
      </trkpt>
      <trkpt lat="46.29739" lon="4.64504">
        <ele>529.262</ele>
        <time>2021-04-03T15:31:43Z</time>
      </trkpt>
      <trkpt lat="46.29744" lon="4.64481">
        <ele>530.494</ele>
        <time>2021-04-03T15:31:45Z</time>
      </trkpt>
      <trkpt lat="46.29748" lon="4.64461">
        <ele>530.84</ele>
        <time>2021-04-03T15:31:47Z</time>
      </trkpt>
      <trkpt lat="46.2975" lon="4.6444">
        <ele>531.287</ele>
        <time>2021-04-03T15:31:49Z</time>
      </trkpt>
      <trkpt lat="46.29752" lon="4.64414">
        <ele>532.134</ele>
        <time>2021-04-03T15:31:51Z</time>
      </trkpt>
      <trkpt lat="46.29757" lon="4.64387">
        <ele>532.922</ele>
        <time>2021-04-03T15:31:53Z</time>
      </trkpt>
      <trkpt lat="46.29763" lon="4.64367">
        <ele>535.262</ele>
        <time>2021-04-03T15:31:55Z</time>
      </trkpt>
      <trkpt lat="46.29768" lon="4.6435">
        <ele>536.508</ele>
        <time>2021-04-03T15:31:57Z</time>
      </trkpt>
      <trkpt lat="46.29774" lon="4.64332">
        <ele>537.308</ele>
        <time>2021-04-03T15:31:59Z</time>
      </trkpt>
      <trkpt lat="46.29779" lon="4.64318">
        <ele>537.548</ele>
        <time>2021-04-03T15:32:01Z</time>
      </trkpt>
      <trkpt lat="46.2978" lon="4.64298">
        <ele>541.531</ele>
        <time>2021-04-03T15:32:03Z</time>
      </trkpt>
      <trkpt lat="46.29784" lon="4.64273">
        <ele>544.72</ele>
        <time>2021-04-03T15:32:05Z</time>
      </trkpt>
      <trkpt lat="46.29787" lon="4.64252">
        <ele>546.242</ele>
        <time>2021-04-03T15:32:07Z</time>
      </trkpt>
      <trkpt lat="46.29791" lon="4.64226">
        <ele>546.834</ele>
        <time>2021-04-03T15:32:09Z</time>
      </trkpt>
      <trkpt lat="46.29795" lon="4.64197">
        <ele>547.96</ele>
        <time>2021-04-03T15:32:11Z</time>
      </trkpt>
      <trkpt lat="46.298" lon="4.64175">
        <ele>550.287</ele>
        <time>2021-04-03T15:32:13Z</time>
      </trkpt>
      <trkpt lat="46.2981" lon="4.64154">
        <ele>552.734</ele>
        <time>2021-04-03T15:32:15Z</time>
      </trkpt>
      <trkpt lat="46.2982" lon="4.64129">
        <ele>555.532</ele>
        <time>2021-04-03T15:32:17Z</time>
      </trkpt>
      <trkpt lat="46.29829" lon="4.64103">
        <ele>557.592</ele>
        <time>2021-04-03T15:32:19Z</time>
      </trkpt>
      <trkpt lat="46.29834" lon="4.64076">
        <ele>560.711</ele>
        <time>2021-04-03T15:32:21Z</time>
      </trkpt>
      <trkpt lat="46.29839" lon="4.6405">
        <ele>564.008</ele>
        <time>2021-04-03T15:32:23Z</time>
      </trkpt>
      <trkpt lat="46.29841" lon="4.64031">
        <ele>566.619</ele>
        <time>2021-04-03T15:32:25Z</time>
      </trkpt>
      <trkpt lat="46.2984" lon="4.64007">
        <ele>569.292</ele>
        <time>2021-04-03T15:32:27Z</time>
      </trkpt>
      <trkpt lat="46.29837" lon="4.63986">
        <ele>570.961</ele>
        <time>2021-04-03T15:32:29Z</time>
      </trkpt>
      <trkpt lat="46.29836" lon="4.63968">
        <ele>572.633</ele>
        <time>2021-04-03T15:32:31Z</time>
      </trkpt>
      <trkpt lat="46.29841" lon="4.63945">
        <ele>574.365</ele>
        <time>2021-04-03T15:32:33Z</time>
      </trkpt>
      <trkpt lat="46.29849" lon="4.63925">
        <ele>576.811</ele>
        <time>2021-04-03T15:32:35Z</time>
      </trkpt>
      <trkpt lat="46.29857" lon="4.63918">
        <ele>579.518</ele>
        <time>2021-04-03T15:32:37Z</time>
      </trkpt>
      <trkpt lat="46.29869" lon="4.63916">
        <ele>581.595</ele>
        <time>2021-04-03T15:32:39Z</time>
      </trkpt>
      <trkpt lat="46.29883" lon="4.63913">
        <ele>583.472</ele>
        <time>2021-04-03T15:32:41Z</time>
      </trkpt>
      <trkpt lat="46.29897" lon="4.63914">
        <ele>584.813</ele>
        <time>2021-04-03T15:32:43Z</time>
      </trkpt>
      <trkpt lat="46.29912" lon="4.63914">
        <ele>586.214</ele>
        <time>2021-04-03T15:32:45Z</time>
      </trkpt>
      <trkpt lat="46.29924" lon="4.63921">
        <ele>588.108</ele>
        <time>2021-04-03T15:32:47Z</time>
      </trkpt>
      <trkpt lat="46.29936" lon="4.63933">
        <ele>589.923</ele>
        <time>2021-04-03T15:32:49Z</time>
      </trkpt>
      <trkpt lat="46.29945" lon="4.63944">
        <ele>591.416</ele>
        <time>2021-04-03T15:32:51Z</time>
      </trkpt>
      <trkpt lat="46.29953" lon="4.63953">
        <ele>593.045</ele>
        <time>2021-04-03T15:32:53Z</time>
      </trkpt>
      <trkpt lat="46.2996" lon="4.63947">
        <ele>595.147</ele>
        <time>2021-04-03T15:32:57Z</time>
      </trkpt>
      <trkpt lat="46.29963" lon="4.63941">
        <ele>596.359</ele>
        <time>2021-04-03T15:32:59Z</time>
      </trkpt>
      <trkpt lat="46.29966" lon="4.6392">
        <ele>597.085</ele>
        <time>2021-04-03T15:33:01Z</time>
      </trkpt>
      <trkpt lat="46.29967" lon="4.63902">
        <ele>597.482</ele>
        <time>2021-04-03T15:33:03Z</time>
      </trkpt>
      <trkpt lat="46.29969" lon="4.63877">
        <ele>597.719</ele>
        <time>2021-04-03T15:33:05Z</time>
      </trkpt>
      <trkpt lat="46.29971" lon="4.63848">
        <ele>597.965</ele>
        <time>2021-04-03T15:33:07Z</time>
      </trkpt>
      <trkpt lat="46.29969" lon="4.63821">
        <ele>598.068</ele>
        <time>2021-04-03T15:33:09Z</time>
      </trkpt>
      <trkpt lat="46.29963" lon="4.63801">
        <ele>598.014</ele>
        <time>2021-04-03T15:33:11Z</time>
      </trkpt>
      <trkpt lat="46.29958" lon="4.63782">
        <ele>598.008</ele>
        <time>2021-04-03T15:33:13Z</time>
      </trkpt>
      <trkpt lat="46.29958" lon="4.63759">
        <ele>598.092</ele>
        <time>2021-04-03T15:33:15Z</time>
      </trkpt>
      <trkpt lat="46.29961" lon="4.6373">
        <ele>598.085</ele>
        <time>2021-04-03T15:33:17Z</time>
      </trkpt>
      <trkpt lat="46.29964" lon="4.63701">
        <ele>598.014</ele>
        <time>2021-04-03T15:33:19Z</time>
      </trkpt>
      <trkpt lat="46.29967" lon="4.63674">
        <ele>598.096</ele>
        <time>2021-04-03T15:33:21Z</time>
      </trkpt>
      <trkpt lat="46.29966" lon="4.63655">
        <ele>598.038</ele>
        <time>2021-04-03T15:33:23Z</time>
      </trkpt>
      <trkpt lat="46.29958" lon="4.6364">
        <ele>598.024</ele>
        <time>2021-04-03T15:33:25Z</time>
      </trkpt>
      <trkpt lat="46.29945" lon="4.63622">
        <ele>598.081</ele>
        <time>2021-04-03T15:33:27Z</time>
      </trkpt>
      <trkpt lat="46.29929" lon="4.6361">
        <ele>598.078</ele>
        <time>2021-04-03T15:33:29Z</time>
      </trkpt>
      <trkpt lat="46.2991" lon="4.63603">
        <ele>598.033</ele>
        <time>2021-04-03T15:33:31Z</time>
      </trkpt>
      <trkpt lat="46.29892" lon="4.63605">
        <ele>598.023</ele>
        <time>2021-04-03T15:33:33Z</time>
      </trkpt>
      <trkpt lat="46.29877" lon="4.63614">
        <ele>598.015</ele>
        <time>2021-04-03T15:33:35Z</time>
      </trkpt>
      <trkpt lat="46.29867" lon="4.6362">
        <ele>598.008</ele>
        <time>2021-04-03T15:33:37Z</time>
      </trkpt>
      <trkpt lat="46.2986" lon="4.63618">
        <ele>598.099</ele>
        <time>2021-04-03T15:33:55Z</time>
      </trkpt>
      <trkpt lat="46.29849" lon="4.63616">
        <ele>598.022</ele>
        <time>2021-04-03T15:33:57Z</time>
      </trkpt>
      <trkpt lat="46.29833" lon="4.63612">
        <ele>598.041</ele>
        <time>2021-04-03T15:33:59Z</time>
      </trkpt>
      <trkpt lat="46.29811" lon="4.63613">
        <ele>598.073</ele>
        <time>2021-04-03T15:34:01Z</time>
      </trkpt>
      <trkpt lat="46.29792" lon="4.63613">
        <ele>602.015</ele>
        <time>2021-04-03T15:34:03Z</time>
      </trkpt>
      <trkpt lat="46.29781" lon="4.63605">
        <ele>606.031</ele>
        <time>2021-04-03T15:34:05Z</time>
      </trkpt>
      <trkpt lat="46.29773" lon="4.63581">
        <ele>610.078</ele>
        <time>2021-04-03T15:34:07Z</time>
      </trkpt>
      <trkpt lat="46.29764" lon="4.63552">
        <ele>614.055</ele>
        <time>2021-04-03T15:34:09Z</time>
      </trkpt>
      <trkpt lat="46.29756" lon="4.63525">
        <ele>618.019</ele>
        <time>2021-04-03T15:34:11Z</time>
      </trkpt>
      <trkpt lat="46.29751" lon="4.63511">
        <ele>622.009</ele>
        <time>2021-04-03T15:34:13Z</time>
      </trkpt>
      <trkpt lat="46.29737" lon="4.63513">
        <ele>626.019</ele>
        <time>2021-04-03T15:34:27Z</time>
      </trkpt>
      <trkpt lat="46.29717" lon="4.6352">
        <ele>630.008</ele>
        <time>2021-04-03T15:34:29Z</time>
      </trkpt>
      <trkpt lat="46.29696" lon="4.63528">
        <ele>634.057</ele>
        <time>2021-04-03T15:34:31Z</time>
      </trkpt>
      <trkpt lat="46.29676" lon="4.63533">
        <ele>638.08</ele>
        <time>2021-04-03T15:34:33Z</time>
      </trkpt>
      <trkpt lat="46.29657" lon="4.6354">
        <ele>642.089</ele>
        <time>2021-04-03T15:34:35Z</time>
      </trkpt>
      <trkpt lat="46.29639" lon="4.63542">
        <ele>646.041</ele>
        <time>2021-04-03T15:34:37Z</time>
      </trkpt>
      <trkpt lat="46.29623" lon="4.63538">
        <ele>650.093</ele>
        <time>2021-04-03T15:34:39Z</time>
      </trkpt>
      <trkpt lat="46.29606" lon="4.63543">
        <ele>654.029</ele>
        <time>2021-04-03T15:34:41Z</time>
      </trkpt>
      <trkpt lat="46.29588" lon="4.63556">
        <ele>658.076</ele>
        <time>2021-04-03T15:34:43Z</time>
      </trkpt>
      <trkpt lat="46.29571" lon="4.63571">
        <ele>660.053</ele>
        <time>2021-04-03T15:34:45Z</time>
      </trkpt>
      <trkpt lat="46.29554" lon="4.63583">
        <ele>661.137</ele>
        <time>2021-04-03T15:34:47Z</time>
      </trkpt>
      <trkpt lat="46.29536" lon="4.63593">
        <ele>661.849</ele>
        <time>2021-04-03T15:34:49Z</time>
      </trkpt>
      <trkpt lat="46.29515" lon="4.63602">
        <ele>662.613</ele>
        <time>2021-04-03T15:34:51Z</time>
      </trkpt>
      <trkpt lat="46.29495" lon="4.63612">
        <ele>661.808</ele>
        <time>2021-04-03T15:34:53Z</time>
      </trkpt>
      <trkpt lat="46.29475" lon="4.63625">
        <ele>661.029</ele>
        <time>2021-04-03T15:34:55Z</time>
      </trkpt>
      <trkpt lat="46.29454" lon="4.63634">
        <ele>660.552</ele>
        <time>2021-04-03T15:34:57Z</time>
      </trkpt>
      <trkpt lat="46.2943" lon="4.63647">
        <ele>660.261</ele>
        <time>2021-04-03T15:34:59Z</time>
      </trkpt>
      <trkpt lat="46.29408" lon="4.63654">
        <ele>658.813</ele>
        <time>2021-04-03T15:35:01Z</time>
      </trkpt>
      <trkpt lat="46.29391" lon="4.63658">
        <ele>661.455</ele>
        <time>2021-04-03T15:35:03Z</time>
      </trkpt>
      <trkpt lat="46.29377" lon="4.6366">
        <ele>661.091</ele>
        <time>2021-04-03T15:35:05Z</time>
      </trkpt>
      <trkpt lat="46.29358" lon="4.63658">
        <ele>659.688</ele>
        <time>2021-04-03T15:35:07Z</time>
      </trkpt>
      <trkpt lat="46.29335" lon="4.63653">
        <ele>658.995</ele>
        <time>2021-04-03T15:35:09Z</time>
      </trkpt>
      <trkpt lat="46.29314" lon="4.6365">
        <ele>658.575</ele>
        <time>2021-04-03T15:35:11Z</time>
      </trkpt>
      <trkpt lat="46.29298" lon="4.63645">
        <ele>659.028</ele>
        <time>2021-04-03T15:35:13Z</time>
      </trkpt>
      <trkpt lat="46.29282" lon="4.63631">
        <ele>659.02</ele>
        <time>2021-04-03T15:35:15Z</time>
      </trkpt>
      <trkpt lat="46.29265" lon="4.63609">
        <ele>659.508</ele>
        <time>2021-04-03T15:35:17Z</time>
      </trkpt>
      <trkpt lat="46.29249" lon="4.63587">
        <ele>659.223</ele>
        <time>2021-04-03T15:35:19Z</time>
      </trkpt>
      <trkpt lat="46.29233" lon="4.63571">
        <ele>658.616</ele>
        <time>2021-04-03T15:35:21Z</time>
      </trkpt>
      <trkpt lat="46.29215" lon="4.63557">
        <ele>658.375</ele>
        <time>2021-04-03T15:35:23Z</time>
      </trkpt>
      <trkpt lat="46.29198" lon="4.6355">
        <ele>657.797</ele>
        <time>2021-04-03T15:35:25Z</time>
      </trkpt>
      <trkpt lat="46.29178" lon="4.63551">
        <ele>657.859</ele>
        <time>2021-04-03T15:35:27Z</time>
      </trkpt>
      <trkpt lat="46.29159" lon="4.6356">
        <ele>658.035</ele>
        <time>2021-04-03T15:35:29Z</time>
      </trkpt>
      <trkpt lat="46.29141" lon="4.63568">
        <ele>657.562</ele>
        <time>2021-04-03T15:35:31Z</time>
      </trkpt>
      <trkpt lat="46.29122" lon="4.63575">
        <ele>657.439</ele>
        <time>2021-04-03T15:35:33Z</time>
      </trkpt>
      <trkpt lat="46.29101" lon="4.63584">
        <ele>656.688</ele>
        <time>2021-04-03T15:35:35Z</time>
      </trkpt>
      <trkpt lat="46.29079" lon="4.63592">
        <ele>655.424</ele>
        <time>2021-04-03T15:35:37Z</time>
      </trkpt>
      <trkpt lat="46.29056" lon="4.63601">
        <ele>653.626</ele>
        <time>2021-04-03T15:35:39Z</time>
      </trkpt>
      <trkpt lat="46.29033" lon="4.63607">
        <ele>652.608</ele>
        <time>2021-04-03T15:35:41Z</time>
      </trkpt>
      <trkpt lat="46.29015" lon="4.63612">
        <ele>651.594</ele>
        <time>2021-04-03T15:35:43Z</time>
      </trkpt>
      <trkpt lat="46.28999" lon="4.6362">
        <ele>651.087</ele>
        <time>2021-04-03T15:35:45Z</time>
      </trkpt>
      <trkpt lat="46.28984" lon="4.63631">
        <ele>650.246</ele>
        <time>2021-04-03T15:35:47Z</time>
      </trkpt>
      <trkpt lat="46.28973" lon="4.6364">
        <ele>649.198</ele>
        <time>2021-04-03T15:35:49Z</time>
      </trkpt>
      <trkpt lat="46.28963" lon="4.63635">
        <ele>647.97</ele>
        <time>2021-04-03T15:35:51Z</time>
      </trkpt>
      <trkpt lat="46.28957" lon="4.63626">
        <ele>646.016</ele>
        <time>2021-04-03T15:35:53Z</time>
      </trkpt>
      <trkpt lat="46.28954" lon="4.6362">
        <ele>644.993</ele>
        <time>2021-04-03T15:35:58Z</time>
      </trkpt>
      <trkpt lat="46.28942" lon="4.63608">
        <ele>644.22</ele>
        <time>2021-04-03T15:36:09Z</time>
      </trkpt>
      <trkpt lat="46.2892" lon="4.63597">
        <ele>641.964</ele>
        <time>2021-04-03T15:36:11Z</time>
      </trkpt>
      <trkpt lat="46.28894" lon="4.63585">
        <ele>642.806</ele>
        <time>2021-04-03T15:36:13Z</time>
      </trkpt>
      <trkpt lat="46.28871" lon="4.63578">
        <ele>645.016</ele>
        <time>2021-04-03T15:36:15Z</time>
      </trkpt>
      <trkpt lat="46.28847" lon="4.63565">
        <ele>649.008</ele>
        <time>2021-04-03T15:36:17Z</time>
      </trkpt>
      <trkpt lat="46.28816" lon="4.63553">
        <ele>653.092</ele>
        <time>2021-04-03T15:36:19Z</time>
      </trkpt>
      <trkpt lat="46.28791" lon="4.63544">
        <ele>657.055</ele>
        <time>2021-04-03T15:36:21Z</time>
      </trkpt>
      <trkpt lat="46.28772" lon="4.63529">
        <ele>660.244</ele>
        <time>2021-04-03T15:36:23Z</time>
      </trkpt>
      <trkpt lat="46.28755" lon="4.63519">
        <ele>662.756</ele>
        <time>2021-04-03T15:36:25Z</time>
      </trkpt>
      <trkpt lat="46.28746" lon="4.63519">
        <ele>664.058</ele>
        <time>2021-04-03T15:36:27Z</time>
      </trkpt>
      <trkpt lat="46.28743" lon="4.63531">
        <ele>665.084</ele>
        <time>2021-04-03T15:36:31Z</time>
      </trkpt>
      <trkpt lat="46.28735" lon="4.63546">
        <ele>669.011</ele>
        <time>2021-04-03T15:36:35Z</time>
      </trkpt>
      <trkpt lat="46.28731" lon="4.63552">
        <ele>670.658</ele>
        <time>2021-04-03T15:36:37Z</time>
      </trkpt>
      <trkpt lat="46.28721" lon="4.63568">
        <ele>670.521</ele>
        <time>2021-04-03T15:36:39Z</time>
      </trkpt>
      <trkpt lat="46.28707" lon="4.63596">
        <ele>669.941</ele>
        <time>2021-04-03T15:36:41Z</time>
      </trkpt>
      <trkpt lat="46.28688" lon="4.63636">
        <ele>669.405</ele>
        <time>2021-04-03T15:36:43Z</time>
      </trkpt>
      <trkpt lat="46.28622" lon="4.63756">
        <ele>673.408</ele>
        <time>2021-04-03T15:36:49Z</time>
      </trkpt>
      <trkpt lat="46.28604" lon="4.63777">
        <ele>676.168</ele>
        <time>2021-04-03T15:36:51Z</time>
      </trkpt>
      <trkpt lat="46.2859" lon="4.63793">
        <ele>676.681</ele>
        <time>2021-04-03T15:36:53Z</time>
      </trkpt>
      <trkpt lat="46.28577" lon="4.63805">
        <ele>676.83</ele>
        <time>2021-04-03T15:36:55Z</time>
      </trkpt>
      <trkpt lat="46.28563" lon="4.63822">
        <ele>676.712</ele>
        <time>2021-04-03T15:36:57Z</time>
      </trkpt>
      <trkpt lat="46.28541" lon="4.6384">
        <ele>676.614</ele>
        <time>2021-04-03T15:36:59Z</time>
      </trkpt>
      <trkpt lat="46.28518" lon="4.63853">
        <ele>676.79</ele>
        <time>2021-04-03T15:37:01Z</time>
      </trkpt>
      <trkpt lat="46.285" lon="4.63864">
        <ele>676.637</ele>
        <time>2021-04-03T15:37:03Z</time>
      </trkpt>
      <trkpt lat="46.28487" lon="4.63873">
        <ele>676.874</ele>
        <time>2021-04-03T15:37:05Z</time>
      </trkpt>
      <trkpt lat="46.28476" lon="4.63871">
        <ele>677.049</ele>
        <time>2021-04-03T15:37:07Z</time>
      </trkpt>
      <trkpt lat="46.28466" lon="4.63859">
        <ele>676.902</ele>
        <time>2021-04-03T15:37:11Z</time>
      </trkpt>
      <trkpt lat="46.2845" lon="4.63847">
        <ele>677.022</ele>
        <time>2021-04-03T15:37:13Z</time>
      </trkpt>
      <trkpt lat="46.28428" lon="4.63829">
        <ele>676.008</ele>
        <time>2021-04-03T15:37:15Z</time>
      </trkpt>
      <trkpt lat="46.28408" lon="4.63812">
        <ele>675.11</ele>
        <time>2021-04-03T15:37:17Z</time>
      </trkpt>
      <trkpt lat="46.28394" lon="4.638">
        <ele>674.663</ele>
        <time>2021-04-03T15:37:19Z</time>
      </trkpt>
      <trkpt lat="46.28381" lon="4.63792">
        <ele>674.352</ele>
        <time>2021-04-03T15:37:21Z</time>
      </trkpt>
      <trkpt lat="46.28366" lon="4.63782">
        <ele>674.294</ele>
        <time>2021-04-03T15:37:23Z</time>
      </trkpt>
      <trkpt lat="46.28349" lon="4.63762">
        <ele>674.456</ele>
        <time>2021-04-03T15:37:25Z</time>
      </trkpt>
      <trkpt lat="46.2833" lon="4.63745">
        <ele>674.372</ele>
        <time>2021-04-03T15:37:27Z</time>
      </trkpt>
      <trkpt lat="46.28313" lon="4.63728">
        <ele>673.999</ele>
        <time>2021-04-03T15:37:29Z</time>
      </trkpt>
      <trkpt lat="46.28296" lon="4.63714">
        <ele>674.136</ele>
        <time>2021-04-03T15:37:31Z</time>
      </trkpt>
      <trkpt lat="46.28283" lon="4.63699">
        <ele>674.279</ele>
        <time>2021-04-03T15:37:33Z</time>
      </trkpt>
      <trkpt lat="46.2827" lon="4.63692">
        <ele>674.405</ele>
        <time>2021-04-03T15:37:35Z</time>
      </trkpt>
      <trkpt lat="46.28259" lon="4.63686">
        <ele>674.325</ele>
        <time>2021-04-03T15:37:37Z</time>
      </trkpt>
      <trkpt lat="46.28248" lon="4.63676">
        <ele>672.808</ele>
        <time>2021-04-03T15:37:39Z</time>
      </trkpt>
      <trkpt lat="46.28237" lon="4.63666">
        <ele>671.043</ele>
        <time>2021-04-03T15:37:41Z</time>
      </trkpt>
      <trkpt lat="46.28226" lon="4.63659">
        <ele>669.426</ele>
        <time>2021-04-03T15:37:43Z</time>
      </trkpt>
      <trkpt lat="46.28213" lon="4.6365">
        <ele>668.495</ele>
        <time>2021-04-03T15:37:45Z</time>
      </trkpt>
      <trkpt lat="46.282" lon="4.63639">
        <ele>667.287</ele>
        <time>2021-04-03T15:37:47Z</time>
      </trkpt>
      <trkpt lat="46.28184" lon="4.63633">
        <ele>666.669</ele>
        <time>2021-04-03T15:37:49Z</time>
      </trkpt>
      <trkpt lat="46.28164" lon="4.6363">
        <ele>666.845</ele>
        <time>2021-04-03T15:37:51Z</time>
      </trkpt>
      <trkpt lat="46.28145" lon="4.63623">
        <ele>666.282</ele>
        <time>2021-04-03T15:37:53Z</time>
      </trkpt>
      <trkpt lat="46.28125" lon="4.6362">
        <ele>664.769</ele>
        <time>2021-04-03T15:37:55Z</time>
      </trkpt>
      <trkpt lat="46.28105" lon="4.6362">
        <ele>661.987</ele>
        <time>2021-04-03T15:37:57Z</time>
      </trkpt>
      <trkpt lat="46.28083" lon="4.63619">
        <ele>659.542</ele>
        <time>2021-04-03T15:37:59Z</time>
      </trkpt>
      <trkpt lat="46.28066" lon="4.63619">
        <ele>656.826</ele>
        <time>2021-04-03T15:38:01Z</time>
      </trkpt>
      <trkpt lat="46.28047" lon="4.63613">
        <ele>654.808</ele>
        <time>2021-04-03T15:38:03Z</time>
      </trkpt>
      <trkpt lat="46.28022" lon="4.63598">
        <ele>655.864</ele>
        <time>2021-04-03T15:38:05Z</time>
      </trkpt>
      <trkpt lat="46.28003" lon="4.63586">
        <ele>656.037</ele>
        <time>2021-04-03T15:38:07Z</time>
      </trkpt>
      <trkpt lat="46.27983" lon="4.6357">
        <ele>655.026</ele>
        <time>2021-04-03T15:38:09Z</time>
      </trkpt>
      <trkpt lat="46.27963" lon="4.63551">
        <ele>654.628</ele>
        <time>2021-04-03T15:38:11Z</time>
      </trkpt>
      <trkpt lat="46.27948" lon="4.63535">
        <ele>654.04</ele>
        <time>2021-04-03T15:38:13Z</time>
      </trkpt>
      <trkpt lat="46.27936" lon="4.63525">
        <ele>653.646</ele>
        <time>2021-04-03T15:38:15Z</time>
      </trkpt>
      <trkpt lat="46.27925" lon="4.63517">
        <ele>650.813</ele>
        <time>2021-04-03T15:38:17Z</time>
      </trkpt>
      <trkpt lat="46.27904" lon="4.63507">
        <ele>649.08</ele>
        <time>2021-04-03T15:38:19Z</time>
      </trkpt>
      <trkpt lat="46.2788" lon="4.63494">
        <ele>648.437</ele>
        <time>2021-04-03T15:38:21Z</time>
      </trkpt>
      <trkpt lat="46.27861" lon="4.63483">
        <ele>647.849</ele>
        <time>2021-04-03T15:38:23Z</time>
      </trkpt>
      <trkpt lat="46.27845" lon="4.63477">
        <ele>646.913</ele>
        <time>2021-04-03T15:38:25Z</time>
      </trkpt>
      <trkpt lat="46.2783" lon="4.63474">
        <ele>645.808</ele>
        <time>2021-04-03T15:38:27Z</time>
      </trkpt>
      <trkpt lat="46.27812" lon="4.63475">
        <ele>644.619</ele>
        <time>2021-04-03T15:38:29Z</time>
      </trkpt>
      <trkpt lat="46.27791" lon="4.63475">
        <ele>643.222</ele>
        <time>2021-04-03T15:38:31Z</time>
      </trkpt>
      <trkpt lat="46.27773" lon="4.63479">
        <ele>642.041</ele>
        <time>2021-04-03T15:38:33Z</time>
      </trkpt>
      <trkpt lat="46.27757" lon="4.63483">
        <ele>640.813</ele>
        <time>2021-04-03T15:38:35Z</time>
      </trkpt>
      <trkpt lat="46.27742" lon="4.63481">
        <ele>639.815</ele>
        <time>2021-04-03T15:38:37Z</time>
      </trkpt>
      <trkpt lat="46.27731" lon="4.63474">
        <ele>638.771</ele>
        <time>2021-04-03T15:38:39Z</time>
      </trkpt>
      <trkpt lat="46.27718" lon="4.63458">
        <ele>638.078</ele>
        <time>2021-04-03T15:38:41Z</time>
      </trkpt>
      <trkpt lat="46.277" lon="4.63443">
        <ele>637.635</ele>
        <time>2021-04-03T15:38:43Z</time>
      </trkpt>
      <trkpt lat="46.27682" lon="4.63432">
        <ele>637.291</ele>
        <time>2021-04-03T15:38:45Z</time>
      </trkpt>
      <trkpt lat="46.27668" lon="4.63429">
        <ele>636.881</ele>
        <time>2021-04-03T15:38:47Z</time>
      </trkpt>
      <trkpt lat="46.27662" lon="4.63431">
        <ele>636.719</ele>
        <time>2021-04-03T15:38:49Z</time>
      </trkpt>
      <trkpt lat="46.27665" lon="4.63437">
        <ele>636.908</ele>
        <time>2021-04-03T15:38:51Z</time>
      </trkpt>
      <trkpt lat="46.27667" lon="4.63449">
        <ele>637.365</ele>
        <time>2021-04-03T15:38:53Z</time>
      </trkpt>
      <trkpt lat="46.27673" lon="4.63464">
        <ele>638.368</ele>
        <time>2021-04-03T15:38:55Z</time>
      </trkpt>
      <trkpt lat="46.27676" lon="4.63482">
        <ele>639.777</ele>
        <time>2021-04-03T15:38:57Z</time>
      </trkpt>
      <trkpt lat="46.27677" lon="4.63499">
        <ele>641.589</ele>
        <time>2021-04-03T15:38:59Z</time>
      </trkpt>
      <trkpt lat="46.27672" lon="4.63518">
        <ele>643.651</ele>
        <time>2021-04-03T15:39:01Z</time>
      </trkpt>
      <trkpt lat="46.27665" lon="4.6354">
        <ele>645.827</ele>
        <time>2021-04-03T15:39:03Z</time>
      </trkpt>
      <trkpt lat="46.27659" lon="4.63564">
        <ele>648.264</ele>
        <time>2021-04-03T15:39:05Z</time>
      </trkpt>
      <trkpt lat="46.27655" lon="4.63589">
        <ele>650.871</ele>
        <time>2021-04-03T15:39:07Z</time>
      </trkpt>
      <trkpt lat="46.27651" lon="4.63614">
        <ele>653.177</ele>
        <time>2021-04-03T15:39:09Z</time>
      </trkpt>
      <trkpt lat="46.27646" lon="4.63644">
        <ele>655.361</ele>
        <time>2021-04-03T15:39:11Z</time>
      </trkpt>
      <trkpt lat="46.27638" lon="4.63669">
        <ele>657.827</ele>
        <time>2021-04-03T15:39:13Z</time>
      </trkpt>
      <trkpt lat="46.27627" lon="4.63699">
        <ele>660.508</ele>
        <time>2021-04-03T15:39:15Z</time>
      </trkpt>
      <trkpt lat="46.27617" lon="4.63725">
        <ele>663.363</ele>
        <time>2021-04-03T15:39:17Z</time>
      </trkpt>
      <trkpt lat="46.27606" lon="4.63753">
        <ele>666.076</ele>
        <time>2021-04-03T15:39:19Z</time>
      </trkpt>
      <trkpt lat="46.27598" lon="4.63791">
        <ele>668.985</ele>
        <time>2021-04-03T15:39:21Z</time>
      </trkpt>
      <trkpt lat="46.2759" lon="4.63829">
        <ele>672.357</ele>
        <time>2021-04-03T15:39:23Z</time>
      </trkpt>
      <trkpt lat="46.27583" lon="4.63863">
        <ele>675.819</ele>
        <time>2021-04-03T15:39:25Z</time>
      </trkpt>
      <trkpt lat="46.27578" lon="4.63889">
        <ele>678.915</ele>
        <time>2021-04-03T15:39:27Z</time>
      </trkpt>
      <trkpt lat="46.27572" lon="4.63912">
        <ele>682.172</ele>
        <time>2021-04-03T15:39:29Z</time>
      </trkpt>
      <trkpt lat="46.2757" lon="4.63929">
        <ele>684.839</ele>
        <time>2021-04-03T15:39:31Z</time>
      </trkpt>
      <trkpt lat="46.27579" lon="4.63944">
        <ele>687.566</ele>
        <time>2021-04-03T15:39:33Z</time>
      </trkpt>
      <trkpt lat="46.27593" lon="4.63961">
        <ele>689.729</ele>
        <time>2021-04-03T15:39:35Z</time>
      </trkpt>
      <trkpt lat="46.27604" lon="4.63976">
        <ele>691.521</ele>
        <time>2021-04-03T15:39:37Z</time>
      </trkpt>
      <trkpt lat="46.27613" lon="4.63993">
        <ele>693.408</ele>
        <time>2021-04-03T15:39:39Z</time>
      </trkpt>
      <trkpt lat="46.27618" lon="4.64008">
        <ele>694.532</ele>
        <time>2021-04-03T15:39:41Z</time>
      </trkpt>
      <trkpt lat="46.27613" lon="4.64013">
        <ele>691.485</ele>
        <time>2021-04-03T15:39:45Z</time>
      </trkpt>
      <trkpt lat="46.27606" lon="4.64013">
        <ele>693.784</ele>
        <time>2021-04-03T15:39:59Z</time>
      </trkpt>
      <trkpt lat="46.27595" lon="4.64015">
        <ele>695.636</ele>
        <time>2021-04-03T15:40:01Z</time>
      </trkpt>
      <trkpt lat="46.27574" lon="4.64017">
        <ele>697.118</ele>
        <time>2021-04-03T15:40:03Z</time>
      </trkpt>
      <trkpt lat="46.27553" lon="4.64015">
        <ele>698.174</ele>
        <time>2021-04-03T15:40:05Z</time>
      </trkpt>
      <trkpt lat="46.27534" lon="4.64013">
        <ele>698.431</ele>
        <time>2021-04-03T15:40:07Z</time>
      </trkpt>
      <trkpt lat="46.27515" lon="4.64007">
        <ele>698.458</ele>
        <time>2021-04-03T15:40:09Z</time>
      </trkpt>
      <trkpt lat="46.27496" lon="4.63991">
        <ele>698.118</ele>
        <time>2021-04-03T15:40:11Z</time>
      </trkpt>
      <trkpt lat="46.2748" lon="4.6397">
        <ele>698.098</ele>
        <time>2021-04-03T15:40:13Z</time>
      </trkpt>
      <trkpt lat="46.27468" lon="4.63947">
        <ele>698.517</ele>
        <time>2021-04-03T15:40:15Z</time>
      </trkpt>
      <trkpt lat="46.27453" lon="4.63928">
        <ele>699.508</ele>
        <time>2021-04-03T15:40:17Z</time>
      </trkpt>
      <trkpt lat="46.27436" lon="4.63913">
        <ele>700.777</ele>
        <time>2021-04-03T15:40:19Z</time>
      </trkpt>
      <trkpt lat="46.27417" lon="4.63896">
        <ele>702.25</ele>
        <time>2021-04-03T15:40:21Z</time>
      </trkpt>
      <trkpt lat="46.274" lon="4.63885">
        <ele>703.869</ele>
        <time>2021-04-03T15:40:23Z</time>
      </trkpt>
      <trkpt lat="46.2738" lon="4.6388">
        <ele>705.721</ele>
        <time>2021-04-03T15:40:25Z</time>
      </trkpt>
      <trkpt lat="46.2736" lon="4.63871">
        <ele>707.033</ele>
        <time>2021-04-03T15:40:27Z</time>
      </trkpt>
      <trkpt lat="46.2734" lon="4.63867">
        <ele>707.749</ele>
        <time>2021-04-03T15:40:29Z</time>
      </trkpt>
      <trkpt lat="46.2732" lon="4.63864">
        <ele>708.746</ele>
        <time>2021-04-03T15:40:31Z</time>
      </trkpt>
      <trkpt lat="46.27299" lon="4.63859">
        <ele>710.473</ele>
        <time>2021-04-03T15:40:33Z</time>
      </trkpt>
      <trkpt lat="46.27277" lon="4.63853">
        <ele>711.395</ele>
        <time>2021-04-03T15:40:35Z</time>
      </trkpt>
      <trkpt lat="46.27258" lon="4.63847">
        <ele>711.149</ele>
        <time>2021-04-03T15:40:37Z</time>
      </trkpt>
      <trkpt lat="46.27239" lon="4.63842">
        <ele>712.223</ele>
        <time>2021-04-03T15:40:39Z</time>
      </trkpt>
      <trkpt lat="46.27219" lon="4.63836">
        <ele>713.508</ele>
        <time>2021-04-03T15:40:41Z</time>
      </trkpt>
      <trkpt lat="46.27201" lon="4.6383">
        <ele>715.055</ele>
        <time>2021-04-03T15:40:43Z</time>
      </trkpt>
      <trkpt lat="46.27183" lon="4.63818">
        <ele>715.788</ele>
        <time>2021-04-03T15:40:45Z</time>
      </trkpt>
      <trkpt lat="46.27167" lon="4.63808">
        <ele>715.957</ele>
        <time>2021-04-03T15:40:47Z</time>
      </trkpt>
      <trkpt lat="46.2715" lon="4.63798">
        <ele>717.119</ele>
        <time>2021-04-03T15:40:49Z</time>
      </trkpt>
      <trkpt lat="46.27133" lon="4.63787">
        <ele>717.631</ele>
        <time>2021-04-03T15:40:51Z</time>
      </trkpt>
      <trkpt lat="46.27116" lon="4.63777">
        <ele>719.197</ele>
        <time>2021-04-03T15:40:53Z</time>
      </trkpt>
      <trkpt lat="46.27097" lon="4.63771">
        <ele>720.294</ele>
        <time>2021-04-03T15:40:55Z</time>
      </trkpt>
      <trkpt lat="46.2708" lon="4.63768">
        <ele>721.231</ele>
        <time>2021-04-03T15:40:57Z</time>
      </trkpt>
      <trkpt lat="46.2706" lon="4.63763">
        <ele>723.028</ele>
        <time>2021-04-03T15:40:59Z</time>
      </trkpt>
      <trkpt lat="46.27042" lon="4.63753">
        <ele>724.389</ele>
        <time>2021-04-03T15:41:01Z</time>
      </trkpt>
      <trkpt lat="46.27023" lon="4.63744">
        <ele>726.017</ele>
        <time>2021-04-03T15:41:03Z</time>
      </trkpt>
      <trkpt lat="46.27005" lon="4.63738">
        <ele>728.208</ele>
        <time>2021-04-03T15:41:05Z</time>
      </trkpt>
      <trkpt lat="46.26985" lon="4.63731">
        <ele>730.168</ele>
        <time>2021-04-03T15:41:07Z</time>
      </trkpt>
      <trkpt lat="46.26961" lon="4.63724">
        <ele>731.381</ele>
        <time>2021-04-03T15:41:09Z</time>
      </trkpt>
      <trkpt lat="46.26939" lon="4.63716">
        <ele>732.56</ele>
        <time>2021-04-03T15:41:11Z</time>
      </trkpt>
      <trkpt lat="46.26917" lon="4.63705">
        <ele>734.452</ele>
        <time>2021-04-03T15:41:13Z</time>
      </trkpt>
      <trkpt lat="46.269" lon="4.63692">
        <ele>735.224</ele>
        <time>2021-04-03T15:41:15Z</time>
      </trkpt>
      <trkpt lat="46.26885" lon="4.63682">
        <ele>735.65</ele>
        <time>2021-04-03T15:41:17Z</time>
      </trkpt>
      <trkpt lat="46.26867" lon="4.63672">
        <ele>735.567</ele>
        <time>2021-04-03T15:41:19Z</time>
      </trkpt>
      <trkpt lat="46.26847" lon="4.63661">
        <ele>734.244</ele>
        <time>2021-04-03T15:41:21Z</time>
      </trkpt>
      <trkpt lat="46.26825" lon="4.6365">
        <ele>733.186</ele>
        <time>2021-04-03T15:41:23Z</time>
      </trkpt>
      <trkpt lat="46.26805" lon="4.63639">
        <ele>732.46</ele>
        <time>2021-04-03T15:41:25Z</time>
      </trkpt>
      <trkpt lat="46.26787" lon="4.63629">
        <ele>732.026</ele>
        <time>2021-04-03T15:41:27Z</time>
      </trkpt>
      <trkpt lat="46.26768" lon="4.63619">
        <ele>731.408</ele>
        <time>2021-04-03T15:41:29Z</time>
      </trkpt>
      <trkpt lat="46.26746" lon="4.63606">
        <ele>731.234</ele>
        <time>2021-04-03T15:41:31Z</time>
      </trkpt>
      <trkpt lat="46.26725" lon="4.63593">
        <ele>731.537</ele>
        <time>2021-04-03T15:41:33Z</time>
      </trkpt>
      <trkpt lat="46.26707" lon="4.63584">
        <ele>731.636</ele>
        <time>2021-04-03T15:41:35Z</time>
      </trkpt>
      <trkpt lat="46.26692" lon="4.63574">
        <ele>731.748</ele>
        <time>2021-04-03T15:41:37Z</time>
      </trkpt>
      <trkpt lat="46.26673" lon="4.63563">
        <ele>731.59</ele>
        <time>2021-04-03T15:41:39Z</time>
      </trkpt>
      <trkpt lat="46.26654" lon="4.63554">
        <ele>731.326</ele>
        <time>2021-04-03T15:41:41Z</time>
      </trkpt>
      <trkpt lat="46.26636" lon="4.63545">
        <ele>730.963</ele>
        <time>2021-04-03T15:41:43Z</time>
      </trkpt>
      <trkpt lat="46.26618" lon="4.63535">
        <ele>730.62</ele>
        <time>2021-04-03T15:41:45Z</time>
      </trkpt>
      <trkpt lat="46.26599" lon="4.63525">
        <ele>729.956</ele>
        <time>2021-04-03T15:41:47Z</time>
      </trkpt>
      <trkpt lat="46.26579" lon="4.63517">
        <ele>729.359</ele>
        <time>2021-04-03T15:41:49Z</time>
      </trkpt>
      <trkpt lat="46.26558" lon="4.63513">
        <ele>728.614</ele>
        <time>2021-04-03T15:41:51Z</time>
      </trkpt>
      <trkpt lat="46.26543" lon="4.63502">
        <ele>728.008</ele>
        <time>2021-04-03T15:41:53Z</time>
      </trkpt>
      <trkpt lat="46.26531" lon="4.63487">
        <ele>727.671</ele>
        <time>2021-04-03T15:41:55Z</time>
      </trkpt>
      <trkpt lat="46.26521" lon="4.6347">
        <ele>728.134</ele>
        <time>2021-04-03T15:41:57Z</time>
      </trkpt>
      <trkpt lat="46.26515" lon="4.63456">
        <ele>727.883</ele>
        <time>2021-04-03T15:41:59Z</time>
      </trkpt>
      <trkpt lat="46.265" lon="4.63447">
        <ele>727.485</ele>
        <time>2021-04-03T15:42:01Z</time>
      </trkpt>
      <trkpt lat="46.26483" lon="4.63441">
        <ele>726.727</ele>
        <time>2021-04-03T15:42:03Z</time>
      </trkpt>
      <trkpt lat="46.26468" lon="4.63435">
        <ele>726.033</ele>
        <time>2021-04-03T15:42:05Z</time>
      </trkpt>
      <trkpt lat="46.26452" lon="4.63425">
        <ele>723.87</ele>
        <time>2021-04-03T15:42:07Z</time>
      </trkpt>
      <trkpt lat="46.26437" lon="4.63412">
        <ele>722.137</ele>
        <time>2021-04-03T15:42:09Z</time>
      </trkpt>
      <trkpt lat="46.26425" lon="4.63404">
        <ele>721.148</ele>
        <time>2021-04-03T15:42:11Z</time>
      </trkpt>
      <trkpt lat="46.26416" lon="4.634">
        <ele>718.861</ele>
        <time>2021-04-03T15:42:13Z</time>
      </trkpt>
      <trkpt lat="46.26412" lon="4.63402">
        <ele>717.617</ele>
        <time>2021-04-03T15:42:15Z</time>
      </trkpt>
      <trkpt lat="46.26406" lon="4.634">
        <ele>716.108</ele>
        <time>2021-04-03T15:42:17Z</time>
      </trkpt>
      <trkpt lat="46.26409" lon="4.63368">
        <ele>712.19</ele>
        <time>2021-04-03T15:42:21Z</time>
      </trkpt>
      <trkpt lat="46.26414" lon="4.63351">
        <ele>708.133</ele>
        <time>2021-04-03T15:42:23Z</time>
      </trkpt>
      <trkpt lat="46.26419" lon="4.63339">
        <ele>704.142</ele>
        <time>2021-04-03T15:42:25Z</time>
      </trkpt>
      <trkpt lat="46.26425" lon="4.63332">
        <ele>700.874</ele>
        <time>2021-04-03T15:42:27Z</time>
      </trkpt>
      <trkpt lat="46.2642" lon="4.6333">
        <ele>696.886</ele>
        <time>2021-04-03T15:42:31Z</time>
      </trkpt>
      <trkpt lat="46.26419" lon="4.63322">
        <ele>693.052</ele>
        <time>2021-04-03T15:43:19Z</time>
      </trkpt>
      <trkpt lat="46.26409" lon="4.63313">
        <ele>690.459</ele>
        <time>2021-04-03T15:43:21Z</time>
      </trkpt>
      <trkpt lat="46.26401" lon="4.63295">
        <ele>688.746</ele>
        <time>2021-04-03T15:43:23Z</time>
      </trkpt>
      <trkpt lat="46.2639" lon="4.63263">
        <ele>684.718</ele>
        <time>2021-04-03T15:43:25Z</time>
      </trkpt>
      <trkpt lat="46.26378" lon="4.63224">
        <ele>680.798</ele>
        <time>2021-04-03T15:43:27Z</time>
      </trkpt>
      <trkpt lat="46.26366" lon="4.63191">
        <ele>679.917</ele>
        <time>2021-04-03T15:43:29Z</time>
      </trkpt>
      <trkpt lat="46.26352" lon="4.63159">
        <ele>681.008</ele>
        <time>2021-04-03T15:43:31Z</time>
      </trkpt>
      <trkpt lat="46.2634" lon="4.63129">
        <ele>683.067</ele>
        <time>2021-04-03T15:43:33Z</time>
      </trkpt>
      <trkpt lat="46.26335" lon="4.63105">
        <ele>685.58</ele>
        <time>2021-04-03T15:43:35Z</time>
      </trkpt>
      <trkpt lat="46.26331" lon="4.63081">
        <ele>688.319</ele>
        <time>2021-04-03T15:43:37Z</time>
      </trkpt>
      <trkpt lat="46.26324" lon="4.63062">
        <ele>690.211</ele>
        <time>2021-04-03T15:43:39Z</time>
      </trkpt>
      <trkpt lat="46.26314" lon="4.63047">
        <ele>691.313</ele>
        <time>2021-04-03T15:43:41Z</time>
      </trkpt>
      <trkpt lat="46.26301" lon="4.63027">
        <ele>691.319</ele>
        <time>2021-04-03T15:43:43Z</time>
      </trkpt>
      <trkpt lat="46.26288" lon="4.63008">
        <ele>690.786</ele>
        <time>2021-04-03T15:43:45Z</time>
      </trkpt>
      <trkpt lat="46.26276" lon="4.62989">
        <ele>689.263</ele>
        <time>2021-04-03T15:43:47Z</time>
      </trkpt>
      <trkpt lat="46.26262" lon="4.62969">
        <ele>693.282</ele>
        <time>2021-04-03T15:43:49Z</time>
      </trkpt>
      <trkpt lat="46.26251" lon="4.62944">
        <ele>694.543</ele>
        <time>2021-04-03T15:43:51Z</time>
      </trkpt>
      <trkpt lat="46.26239" lon="4.62915">
        <ele>692.717</ele>
        <time>2021-04-03T15:43:53Z</time>
      </trkpt>
      <trkpt lat="46.26227" lon="4.62886">
        <ele>690.108</ele>
        <time>2021-04-03T15:43:55Z</time>
      </trkpt>
      <trkpt lat="46.26217" lon="4.62859">
        <ele>688.444</ele>
        <time>2021-04-03T15:43:57Z</time>
      </trkpt>
      <trkpt lat="46.26204" lon="4.62832">
        <ele>687.057</ele>
        <time>2021-04-03T15:43:59Z</time>
      </trkpt>
      <trkpt lat="46.26185" lon="4.6281">
        <ele>686.246</ele>
        <time>2021-04-03T15:44:01Z</time>
      </trkpt>
      <trkpt lat="46.26164" lon="4.62793">
        <ele>685.928</ele>
        <time>2021-04-03T15:44:03Z</time>
      </trkpt>
      <trkpt lat="46.26144" lon="4.62777">
        <ele>685.86</ele>
        <time>2021-04-03T15:44:05Z</time>
      </trkpt>
      <trkpt lat="46.26125" lon="4.62759">
        <ele>685.836</ele>
        <time>2021-04-03T15:44:07Z</time>
      </trkpt>
      <trkpt lat="46.26107" lon="4.62739">
        <ele>684.673</ele>
        <time>2021-04-03T15:44:09Z</time>
      </trkpt>
      <trkpt lat="46.26089" lon="4.62721">
        <ele>683.62</ele>
        <time>2021-04-03T15:44:11Z</time>
      </trkpt>
      <trkpt lat="46.26072" lon="4.62702">
        <ele>682.683</ele>
        <time>2021-04-03T15:44:13Z</time>
      </trkpt>
      <trkpt lat="46.26058" lon="4.62682">
        <ele>682.025</ele>
        <time>2021-04-03T15:44:15Z</time>
      </trkpt>
      <trkpt lat="46.26049" lon="4.62661">
        <ele>681.317</ele>
        <time>2021-04-03T15:44:17Z</time>
      </trkpt>
      <trkpt lat="46.26039" lon="4.62639">
        <ele>680.708</ele>
        <time>2021-04-03T15:44:19Z</time>
      </trkpt>
      <trkpt lat="46.2603" lon="4.62617">
        <ele>679.434</ele>
        <time>2021-04-03T15:44:21Z</time>
      </trkpt>
      <trkpt lat="46.26021" lon="4.62596">
        <ele>678.057</ele>
        <time>2021-04-03T15:44:23Z</time>
      </trkpt>
      <trkpt lat="46.26012" lon="4.62573">
        <ele>676.616</ele>
        <time>2021-04-03T15:44:25Z</time>
      </trkpt>
      <trkpt lat="46.26002" lon="4.62555">
        <ele>676.378</ele>
        <time>2021-04-03T15:44:27Z</time>
      </trkpt>
      <trkpt lat="46.25991" lon="4.62538">
        <ele>676.44</ele>
        <time>2021-04-03T15:44:29Z</time>
      </trkpt>
      <trkpt lat="46.2598" lon="4.62522">
        <ele>677.286</ele>
        <time>2021-04-03T15:44:31Z</time>
      </trkpt>
      <trkpt lat="46.2597" lon="4.6251">
        <ele>677.073</ele>
        <time>2021-04-03T15:44:33Z</time>
      </trkpt>
      <trkpt lat="46.25961" lon="4.62497">
        <ele>676.45</ele>
        <time>2021-04-03T15:44:35Z</time>
      </trkpt>
      <trkpt lat="46.25954" lon="4.62482">
        <ele>675.979</ele>
        <time>2021-04-03T15:44:37Z</time>
      </trkpt>
      <trkpt lat="46.25948" lon="4.62466">
        <ele>674.705</ele>
        <time>2021-04-03T15:44:39Z</time>
      </trkpt>
      <trkpt lat="46.25943" lon="4.6245">
        <ele>673.925</ele>
        <time>2021-04-03T15:44:41Z</time>
      </trkpt>
      <trkpt lat="46.25933" lon="4.62436">
        <ele>673.208</ele>
        <time>2021-04-03T15:44:43Z</time>
      </trkpt>
      <trkpt lat="46.25919" lon="4.62425">
        <ele>672.223</ele>
        <time>2021-04-03T15:44:45Z</time>
      </trkpt>
      <trkpt lat="46.25904" lon="4.62416">
        <ele>671.026</ele>
        <time>2021-04-03T15:44:47Z</time>
      </trkpt>
      <trkpt lat="46.25891" lon="4.62409">
        <ele>669.715</ele>
        <time>2021-04-03T15:44:49Z</time>
      </trkpt>
      <trkpt lat="46.25878" lon="4.62399">
        <ele>668.727</ele>
        <time>2021-04-03T15:44:51Z</time>
      </trkpt>
      <trkpt lat="46.25866" lon="4.62388">
        <ele>667.939</ele>
        <time>2021-04-03T15:44:53Z</time>
      </trkpt>
      <trkpt lat="46.25855" lon="4.62376">
        <ele>666.455</ele>
        <time>2021-04-03T15:44:55Z</time>
      </trkpt>
      <trkpt lat="46.25844" lon="4.62361">
        <ele>665.362</ele>
        <time>2021-04-03T15:44:57Z</time>
      </trkpt>
      <trkpt lat="46.25836" lon="4.62346">
        <ele>664.169</ele>
        <time>2021-04-03T15:44:59Z</time>
      </trkpt>
      <trkpt lat="46.25831" lon="4.62327">
        <ele>662.554</ele>
        <time>2021-04-03T15:45:01Z</time>
      </trkpt>
      <trkpt lat="46.25827" lon="4.62305">
        <ele>660.856</ele>
        <time>2021-04-03T15:45:03Z</time>
      </trkpt>
      <trkpt lat="46.25824" lon="4.62284">
        <ele>659.911</ele>
        <time>2021-04-03T15:45:05Z</time>
      </trkpt>
      <trkpt lat="46.25825" lon="4.62266">
        <ele>658.008</ele>
        <time>2021-04-03T15:45:07Z</time>
      </trkpt>
      <trkpt lat="46.25826" lon="4.62253">
        <ele>655.311</ele>
        <time>2021-04-03T15:45:09Z</time>
      </trkpt>
      <trkpt lat="46.2583" lon="4.62244">
        <ele>653.634</ele>
        <time>2021-04-03T15:45:33Z</time>
      </trkpt>
      <trkpt lat="46.25833" lon="4.62232">
        <ele>652.583</ele>
        <time>2021-04-03T15:45:35Z</time>
      </trkpt>
      <trkpt lat="46.25839" lon="4.62209">
        <ele>651.865</ele>
        <time>2021-04-03T15:45:37Z</time>
      </trkpt>
      <trkpt lat="46.25842" lon="4.62176">
        <ele>650.847</ele>
        <time>2021-04-03T15:45:39Z</time>
      </trkpt>
      <trkpt lat="46.25842" lon="4.62141">
        <ele>650.073</ele>
        <time>2021-04-03T15:45:41Z</time>
      </trkpt>
      <trkpt lat="46.25837" lon="4.62104">
        <ele>652.65</ele>
        <time>2021-04-03T15:45:43Z</time>
      </trkpt>
      <trkpt lat="46.2583" lon="4.6207">
        <ele>653.697</ele>
        <time>2021-04-03T15:45:45Z</time>
      </trkpt>
      <trkpt lat="46.25822" lon="4.62045">
        <ele>654.578</ele>
        <time>2021-04-03T15:45:47Z</time>
      </trkpt>
      <trkpt lat="46.25809" lon="4.62022">
        <ele>655.333</ele>
        <time>2021-04-03T15:45:49Z</time>
      </trkpt>
      <trkpt lat="46.25788" lon="4.62005">
        <ele>656.426</ele>
        <time>2021-04-03T15:45:51Z</time>
      </trkpt>
      <trkpt lat="46.25759" lon="4.61994">
        <ele>657.408</ele>
        <time>2021-04-03T15:45:53Z</time>
      </trkpt>
      <trkpt lat="46.25729" lon="4.61987">
        <ele>658.563</ele>
        <time>2021-04-03T15:45:55Z</time>
      </trkpt>
      <trkpt lat="46.25702" lon="4.6198">
        <ele>660.056</ele>
        <time>2021-04-03T15:45:57Z</time>
      </trkpt>
      <trkpt lat="46.25679" lon="4.61972">
        <ele>661.745</ele>
        <time>2021-04-03T15:45:59Z</time>
      </trkpt>
      <trkpt lat="46.25659" lon="4.6196">
        <ele>663.397</ele>
        <time>2021-04-03T15:46:01Z</time>
      </trkpt>
      <trkpt lat="46.25636" lon="4.61945">
        <ele>664.919</ele>
        <time>2021-04-03T15:46:03Z</time>
      </trkpt>
      <trkpt lat="46.25607" lon="4.61938">
        <ele>665.965</ele>
        <time>2021-04-03T15:46:05Z</time>
      </trkpt>
      <trkpt lat="46.25576" lon="4.61939">
        <ele>666.932</ele>
        <time>2021-04-03T15:46:07Z</time>
      </trkpt>
      <trkpt lat="46.2555" lon="4.61944">
        <ele>667.549</ele>
        <time>2021-04-03T15:46:09Z</time>
      </trkpt>
      <trkpt lat="46.25526" lon="4.61948">
        <ele>667.898</ele>
        <time>2021-04-03T15:46:11Z</time>
      </trkpt>
      <trkpt lat="46.25504" lon="4.61944">
        <ele>668.315</ele>
        <time>2021-04-03T15:46:13Z</time>
      </trkpt>
      <trkpt lat="46.25483" lon="4.61923">
        <ele>668.526</ele>
        <time>2021-04-03T15:46:15Z</time>
      </trkpt>
      <trkpt lat="46.25462" lon="4.61894">
        <ele>667.908</ele>
        <time>2021-04-03T15:46:17Z</time>
      </trkpt>
      <trkpt lat="46.25443" lon="4.61868">
        <ele>668.115</ele>
        <time>2021-04-03T15:46:19Z</time>
      </trkpt>
      <trkpt lat="46.25424" lon="4.61847">
        <ele>668.198</ele>
        <time>2021-04-03T15:46:21Z</time>
      </trkpt>
      <trkpt lat="46.25407" lon="4.61828">
        <ele>667.657</ele>
        <time>2021-04-03T15:46:23Z</time>
      </trkpt>
      <trkpt lat="46.25389" lon="4.61809">
        <ele>666.959</ele>
        <time>2021-04-03T15:46:25Z</time>
      </trkpt>
      <trkpt lat="46.25371" lon="4.61788">
        <ele>666.481</ele>
        <time>2021-04-03T15:46:27Z</time>
      </trkpt>
      <trkpt lat="46.25357" lon="4.61764">
        <ele>665.367</ele>
        <time>2021-04-03T15:46:29Z</time>
      </trkpt>
      <trkpt lat="46.25346" lon="4.61733">
        <ele>664.574</ele>
        <time>2021-04-03T15:46:31Z</time>
      </trkpt>
      <trkpt lat="46.25334" lon="4.61701">
        <ele>663.541</ele>
        <time>2021-04-03T15:46:33Z</time>
      </trkpt>
      <trkpt lat="46.25321" lon="4.61673">
        <ele>662.951</ele>
        <time>2021-04-03T15:46:35Z</time>
      </trkpt>
      <trkpt lat="46.25315" lon="4.6164">
        <ele>663.101</ele>
        <time>2021-04-03T15:46:37Z</time>
      </trkpt>
      <trkpt lat="46.25317" lon="4.61602">
        <ele>663.511</ele>
        <time>2021-04-03T15:46:39Z</time>
      </trkpt>
      <trkpt lat="46.25324" lon="4.61565">
        <ele>664.308</ele>
        <time>2021-04-03T15:46:41Z</time>
      </trkpt>
      <trkpt lat="46.25335" lon="4.61527">
        <ele>665.211</ele>
        <time>2021-04-03T15:46:43Z</time>
      </trkpt>
      <trkpt lat="46.25342" lon="4.6149">
        <ele>666.224</ele>
        <time>2021-04-03T15:46:45Z</time>
      </trkpt>
      <trkpt lat="46.25342" lon="4.61462">
        <ele>667.443</ele>
        <time>2021-04-03T15:46:47Z</time>
      </trkpt>
      <trkpt lat="46.25331" lon="4.61435">
        <ele>668.665</ele>
        <time>2021-04-03T15:46:49Z</time>
      </trkpt>
      <trkpt lat="46.25311" lon="4.6141">
        <ele>669.757</ele>
        <time>2021-04-03T15:46:51Z</time>
      </trkpt>
      <trkpt lat="46.25286" lon="4.61388">
        <ele>670.823</ele>
        <time>2021-04-03T15:46:53Z</time>
      </trkpt>
      <trkpt lat="46.25264" lon="4.61366">
        <ele>672.33</ele>
        <time>2021-04-03T15:46:55Z</time>
      </trkpt>
      <trkpt lat="46.25247" lon="4.61352">
        <ele>673.587</ele>
        <time>2021-04-03T15:46:57Z</time>
      </trkpt>
      <trkpt lat="46.25228" lon="4.6135">
        <ele>674.368</ele>
        <time>2021-04-03T15:46:59Z</time>
      </trkpt>
      <trkpt lat="46.25205" lon="4.61357">
        <ele>675.242</ele>
        <time>2021-04-03T15:47:01Z</time>
      </trkpt>
      <trkpt lat="46.25178" lon="4.61359">
        <ele>676.126</ele>
        <time>2021-04-03T15:47:03Z</time>
      </trkpt>
      <trkpt lat="46.25149" lon="4.61362">
        <ele>677.208</ele>
        <time>2021-04-03T15:47:05Z</time>
      </trkpt>
      <trkpt lat="46.25125" lon="4.6137">
        <ele>678.622</ele>
        <time>2021-04-03T15:47:07Z</time>
      </trkpt>
      <trkpt lat="46.25105" lon="4.61384">
        <ele>679.725</ele>
        <time>2021-04-03T15:47:09Z</time>
      </trkpt>
      <trkpt lat="46.25089" lon="4.61388">
        <ele>680.234</ele>
        <time>2021-04-03T15:47:11Z</time>
      </trkpt>
      <trkpt lat="46.25078" lon="4.61372">
        <ele>679.666</ele>
        <time>2021-04-03T15:47:13Z</time>
      </trkpt>
      <trkpt lat="46.25075" lon="4.61344">
        <ele>679.768</ele>
        <time>2021-04-03T15:47:15Z</time>
      </trkpt>
      <trkpt lat="46.25081" lon="4.61309">
        <ele>679.424</ele>
        <time>2021-04-03T15:47:17Z</time>
      </trkpt>
      <trkpt lat="46.2509" lon="4.61277">
        <ele>678.871</ele>
        <time>2021-04-03T15:47:19Z</time>
      </trkpt>
      <trkpt lat="46.25099" lon="4.61255">
        <ele>678.278</ele>
        <time>2021-04-03T15:47:21Z</time>
      </trkpt>
      <trkpt lat="46.25108" lon="4.61239">
        <ele>676.874</ele>
        <time>2021-04-03T15:47:23Z</time>
      </trkpt>
      <trkpt lat="46.25116" lon="4.61219">
        <ele>674.456</ele>
        <time>2021-04-03T15:47:25Z</time>
      </trkpt>
      <trkpt lat="46.25126" lon="4.61193">
        <ele>671.921</ele>
        <time>2021-04-03T15:47:27Z</time>
      </trkpt>
      <trkpt lat="46.25137" lon="4.61164">
        <ele>669.908</ele>
        <time>2021-04-03T15:47:29Z</time>
      </trkpt>
      <trkpt lat="46.25147" lon="4.61132">
        <ele>667.373</ele>
        <time>2021-04-03T15:47:31Z</time>
      </trkpt>
      <trkpt lat="46.25157" lon="4.611">
        <ele>664.846</ele>
        <time>2021-04-03T15:47:33Z</time>
      </trkpt>
      <trkpt lat="46.25165" lon="4.6107">
        <ele>662.245</ele>
        <time>2021-04-03T15:47:35Z</time>
      </trkpt>
      <trkpt lat="46.25173" lon="4.6104">
        <ele>659.597</ele>
        <time>2021-04-03T15:47:37Z</time>
      </trkpt>
      <trkpt lat="46.25181" lon="4.61009">
        <ele>656.989</ele>
        <time>2021-04-03T15:47:39Z</time>
      </trkpt>
      <trkpt lat="46.25185" lon="4.6098">
        <ele>654.875</ele>
        <time>2021-04-03T15:47:41Z</time>
      </trkpt>
      <trkpt lat="46.25189" lon="4.60951">
        <ele>652.422</ele>
        <time>2021-04-03T15:47:43Z</time>
      </trkpt>
      <trkpt lat="46.2519" lon="4.60924">
        <ele>650.449</ele>
        <time>2021-04-03T15:47:45Z</time>
      </trkpt>
      <trkpt lat="46.25188" lon="4.60897">
        <ele>648.782</ele>
        <time>2021-04-03T15:47:47Z</time>
      </trkpt>
      <trkpt lat="46.25187" lon="4.60868">
        <ele>647.443</ele>
        <time>2021-04-03T15:47:49Z</time>
      </trkpt>
      <trkpt lat="46.25185" lon="4.60842">
        <ele>644.817</ele>
        <time>2021-04-03T15:47:51Z</time>
      </trkpt>
      <trkpt lat="46.25181" lon="4.60817">
        <ele>642.408</ele>
        <time>2021-04-03T15:47:53Z</time>
      </trkpt>
      <trkpt lat="46.25177" lon="4.60791">
        <ele>639.734</ele>
        <time>2021-04-03T15:47:55Z</time>
      </trkpt>
      <trkpt lat="46.25174" lon="4.60763">
        <ele>637.327</ele>
        <time>2021-04-03T15:47:57Z</time>
      </trkpt>
      <trkpt lat="46.25172" lon="4.60738">
        <ele>635.736</ele>
        <time>2021-04-03T15:47:59Z</time>
      </trkpt>
      <trkpt lat="46.25171" lon="4.60714">
        <ele>633.678</ele>
        <time>2021-04-03T15:48:01Z</time>
      </trkpt>
      <trkpt lat="46.2517" lon="4.60688">
        <ele>630.97</ele>
        <time>2021-04-03T15:48:03Z</time>
      </trkpt>
      <trkpt lat="46.25169" lon="4.60664">
        <ele>627.756</ele>
        <time>2021-04-03T15:48:05Z</time>
      </trkpt>
      <trkpt lat="46.25168" lon="4.60638">
        <ele>624.273</ele>
        <time>2021-04-03T15:48:07Z</time>
      </trkpt>
      <trkpt lat="46.25167" lon="4.60613">
        <ele>620.32</ele>
        <time>2021-04-03T15:48:09Z</time>
      </trkpt>
      <trkpt lat="46.25165" lon="4.6059">
        <ele>616.364</ele>
        <time>2021-04-03T15:48:11Z</time>
      </trkpt>
      <trkpt lat="46.25163" lon="4.60565">
        <ele>612.306</ele>
        <time>2021-04-03T15:48:13Z</time>
      </trkpt>
      <trkpt lat="46.25161" lon="4.60539">
        <ele>608.316</ele>
        <time>2021-04-03T15:48:15Z</time>
      </trkpt>
      <trkpt lat="46.25161" lon="4.60516">
        <ele>604.308</ele>
        <time>2021-04-03T15:48:17Z</time>
      </trkpt>
      <trkpt lat="46.25161" lon="4.60492">
        <ele>600.382</ele>
        <time>2021-04-03T15:48:19Z</time>
      </trkpt>
      <trkpt lat="46.25163" lon="4.60466">
        <ele>596.575</ele>
        <time>2021-04-03T15:48:21Z</time>
      </trkpt>
      <trkpt lat="46.25166" lon="4.60437">
        <ele>593.784</ele>
        <time>2021-04-03T15:48:23Z</time>
      </trkpt>
      <trkpt lat="46.25169" lon="4.60412">
        <ele>590.316</ele>
        <time>2021-04-03T15:48:25Z</time>
      </trkpt>
      <trkpt lat="46.2517" lon="4.60393">
        <ele>587.048</ele>
        <time>2021-04-03T15:48:27Z</time>
      </trkpt>
      <trkpt lat="46.25167" lon="4.60375">
        <ele>583.744</ele>
        <time>2021-04-03T15:48:29Z</time>
      </trkpt>
      <trkpt lat="46.2516" lon="4.60359">
        <ele>587.781</ele>
        <time>2021-04-03T15:48:31Z</time>
      </trkpt>
      <trkpt lat="46.2515" lon="4.60356">
        <ele>585.548</ele>
        <time>2021-04-03T15:48:33Z</time>
      </trkpt>
      <trkpt lat="46.25136" lon="4.60361">
        <ele>581.821</ele>
        <time>2021-04-03T15:48:35Z</time>
      </trkpt>
      <trkpt lat="46.25127" lon="4.60363">
        <ele>578.241</ele>
        <time>2021-04-03T15:48:37Z</time>
      </trkpt>
      <trkpt lat="46.25123" lon="4.6035">
        <ele>574.305</ele>
        <time>2021-04-03T15:48:41Z</time>
      </trkpt>
      <trkpt lat="46.2512" lon="4.60325">
        <ele>570.908</ele>
        <time>2021-04-03T15:48:43Z</time>
      </trkpt>
      <trkpt lat="46.25116" lon="4.60292">
        <ele>567.778</ele>
        <time>2021-04-03T15:48:45Z</time>
      </trkpt>
      <trkpt lat="46.25113" lon="4.60257">
        <ele>564.671</ele>
        <time>2021-04-03T15:48:47Z</time>
      </trkpt>
      <trkpt lat="46.25116" lon="4.60223">
        <ele>561.46</ele>
        <time>2021-04-03T15:48:49Z</time>
      </trkpt>
      <trkpt lat="46.25124" lon="4.60194">
        <ele>559.052</ele>
        <time>2021-04-03T15:48:51Z</time>
      </trkpt>
      <trkpt lat="46.25137" lon="4.60175">
        <ele>563.054</ele>
        <time>2021-04-03T15:48:53Z</time>
      </trkpt>
      <trkpt lat="46.25152" lon="4.6017">
        <ele>563.89</ele>
        <time>2021-04-03T15:48:55Z</time>
      </trkpt>
      <trkpt lat="46.25167" lon="4.60177">
        <ele>561.087</ele>
        <time>2021-04-03T15:48:57Z</time>
      </trkpt>
      <trkpt lat="46.25183" lon="4.60191">
        <ele>557.444</ele>
        <time>2021-04-03T15:48:59Z</time>
      </trkpt>
      <trkpt lat="46.25203" lon="4.60199">
        <ele>554.329</ele>
        <time>2021-04-03T15:49:01Z</time>
      </trkpt>
      <trkpt lat="46.25226" lon="4.60191">
        <ele>550.9</ele>
        <time>2021-04-03T15:49:03Z</time>
      </trkpt>
      <trkpt lat="46.25251" lon="4.60171">
        <ele>547.82</ele>
        <time>2021-04-03T15:49:05Z</time>
      </trkpt>
      <trkpt lat="46.25277" lon="4.60152">
        <ele>545.008</ele>
        <time>2021-04-03T15:49:07Z</time>
      </trkpt>
      <trkpt lat="46.25301" lon="4.60138">
        <ele>542.578</ele>
        <time>2021-04-03T15:49:09Z</time>
      </trkpt>
      <trkpt lat="46.25324" lon="4.60129">
        <ele>540.171</ele>
        <time>2021-04-03T15:49:11Z</time>
      </trkpt>
      <trkpt lat="46.25347" lon="4.60123">
        <ele>537.91</ele>
        <time>2021-04-03T15:49:13Z</time>
      </trkpt>
      <trkpt lat="46.25369" lon="4.60118">
        <ele>535.792</ele>
        <time>2021-04-03T15:49:15Z</time>
      </trkpt>
      <trkpt lat="46.2539" lon="4.60107">
        <ele>534.224</ele>
        <time>2021-04-03T15:49:17Z</time>
      </trkpt>
      <trkpt lat="46.25409" lon="4.60088">
        <ele>532.96</ele>
        <time>2021-04-03T15:49:19Z</time>
      </trkpt>
      <trkpt lat="46.25425" lon="4.60065">
        <ele>531.537</ele>
        <time>2021-04-03T15:49:21Z</time>
      </trkpt>
      <trkpt lat="46.25436" lon="4.60045">
        <ele>530.134</ele>
        <time>2021-04-03T15:49:23Z</time>
      </trkpt>
      <trkpt lat="46.2544" lon="4.60026">
        <ele>528.428</ele>
        <time>2021-04-03T15:49:25Z</time>
      </trkpt>
      <trkpt lat="46.25438" lon="4.60003">
        <ele>526.489</ele>
        <time>2021-04-03T15:49:27Z</time>
      </trkpt>
      <trkpt lat="46.25433" lon="4.59977">
        <ele>523.917</ele>
        <time>2021-04-03T15:49:29Z</time>
      </trkpt>
      <trkpt lat="46.25426" lon="4.59955">
        <ele>521.808</ele>
        <time>2021-04-03T15:49:31Z</time>
      </trkpt>
      <trkpt lat="46.25423" lon="4.59939">
        <ele>520.268</ele>
        <time>2021-04-03T15:49:33Z</time>
      </trkpt>
      <trkpt lat="46.25428" lon="4.59927">
        <ele>518.141</ele>
        <time>2021-04-03T15:49:35Z</time>
      </trkpt>
      <trkpt lat="46.25442" lon="4.59918">
        <ele>515.67</ele>
        <time>2021-04-03T15:49:37Z</time>
      </trkpt>
      <trkpt lat="46.2546" lon="4.5991">
        <ele>512.712</ele>
        <time>2021-04-03T15:49:39Z</time>
      </trkpt>
      <trkpt lat="46.25479" lon="4.59903">
        <ele>510.164</ele>
        <time>2021-04-03T15:49:41Z</time>
      </trkpt>
      <trkpt lat="46.25496" lon="4.59891">
        <ele>507.16</ele>
        <time>2021-04-03T15:49:43Z</time>
      </trkpt>
      <trkpt lat="46.25514" lon="4.5988">
        <ele>504.557</ele>
        <time>2021-04-03T15:49:45Z</time>
      </trkpt>
      <trkpt lat="46.25527" lon="4.5987">
        <ele>501.634</ele>
        <time>2021-04-03T15:49:47Z</time>
      </trkpt>
      <trkpt lat="46.25536" lon="4.59855">
        <ele>498.856</ele>
        <time>2021-04-03T15:49:49Z</time>
      </trkpt>
      <trkpt lat="46.25542" lon="4.59832">
        <ele>496.159</ele>
        <time>2021-04-03T15:49:51Z</time>
      </trkpt>
      <trkpt lat="46.25547" lon="4.59811">
        <ele>493.914</ele>
        <time>2021-04-03T15:49:53Z</time>
      </trkpt>
      <trkpt lat="46.25553" lon="4.59791">
        <ele>491.708</ele>
        <time>2021-04-03T15:49:55Z</time>
      </trkpt>
      <trkpt lat="46.2556" lon="4.59772">
        <ele>490.281</ele>
        <time>2021-04-03T15:49:57Z</time>
      </trkpt>
      <trkpt lat="46.25568" lon="4.59752">
        <ele>489.094</ele>
        <time>2021-04-03T15:49:59Z</time>
      </trkpt>
      <trkpt lat="46.25574" lon="4.59725">
        <ele>487.623</ele>
        <time>2021-04-03T15:50:01Z</time>
      </trkpt>
      <trkpt lat="46.2558" lon="4.59701">
        <ele>486.395</ele>
        <time>2021-04-03T15:50:03Z</time>
      </trkpt>
      <trkpt lat="46.25585" lon="4.59678">
        <ele>485.177</ele>
        <time>2021-04-03T15:50:05Z</time>
      </trkpt>
      <trkpt lat="46.25592" lon="4.59657">
        <ele>483.723</ele>
        <time>2021-04-03T15:50:07Z</time>
      </trkpt>
      <trkpt lat="46.25599" lon="4.59643">
        <ele>482.81</ele>
        <time>2021-04-03T15:50:09Z</time>
      </trkpt>
      <trkpt lat="46.25605" lon="4.59631">
        <ele>481.997</ele>
        <time>2021-04-03T15:50:11Z</time>
      </trkpt>
      <trkpt lat="46.25605" lon="4.59623">
        <ele>480.813</ele>
        <time>2021-04-03T15:50:15Z</time>
      </trkpt>
      <trkpt lat="46.25616" lon="4.59595">
        <ele>480.243</ele>
        <time>2021-04-03T15:50:19Z</time>
      </trkpt>
      <trkpt lat="46.25631" lon="4.59578">
        <ele>479.807</ele>
        <time>2021-04-03T15:50:21Z</time>
      </trkpt>
      <trkpt lat="46.25647" lon="4.59559">
        <ele>479.608</ele>
        <time>2021-04-03T15:50:23Z</time>
      </trkpt>
      <trkpt lat="46.2566" lon="4.5954">
        <ele>479.587</ele>
        <time>2021-04-03T15:50:25Z</time>
      </trkpt>
      <trkpt lat="46.25669" lon="4.59515">
        <ele>479.49</ele>
        <time>2021-04-03T15:50:27Z</time>
      </trkpt>
      <trkpt lat="46.2568" lon="4.59484">
        <ele>479.479</ele>
        <time>2021-04-03T15:50:29Z</time>
      </trkpt>
      <trkpt lat="46.2569" lon="4.59452">
        <ele>479.451</ele>
        <time>2021-04-03T15:50:31Z</time>
      </trkpt>
      <trkpt lat="46.25696" lon="4.59421">
        <ele>479.423</ele>
        <time>2021-04-03T15:50:33Z</time>
      </trkpt>
      <trkpt lat="46.25701" lon="4.5939">
        <ele>479.469</ele>
        <time>2021-04-03T15:50:35Z</time>
      </trkpt>
      <trkpt lat="46.25705" lon="4.59358">
        <ele>479.436</ele>
        <time>2021-04-03T15:50:37Z</time>
      </trkpt>
      <trkpt lat="46.25706" lon="4.59326">
        <ele>479.483</ele>
        <time>2021-04-03T15:50:39Z</time>
      </trkpt>
      <trkpt lat="46.25709" lon="4.59294">
        <ele>479.418</ele>
        <time>2021-04-03T15:50:41Z</time>
      </trkpt>
      <trkpt lat="46.25711" lon="4.59259">
        <ele>479.498</ele>
        <time>2021-04-03T15:50:43Z</time>
      </trkpt>
      <trkpt lat="46.25715" lon="4.59223">
        <ele>479.417</ele>
        <time>2021-04-03T15:50:45Z</time>
      </trkpt>
      <trkpt lat="46.25719" lon="4.59186">
        <ele>479.408</ele>
        <time>2021-04-03T15:50:47Z</time>
      </trkpt>
      <trkpt lat="46.25726" lon="4.5915">
        <ele>479.487</ele>
        <time>2021-04-03T15:50:49Z</time>
      </trkpt>
      <trkpt lat="46.25733" lon="4.59114">
        <ele>479.46</ele>
        <time>2021-04-03T15:50:51Z</time>
      </trkpt>
      <trkpt lat="46.25741" lon="4.59079">
        <ele>479.419</ele>
        <time>2021-04-03T15:50:53Z</time>
      </trkpt>
      <trkpt lat="46.25748" lon="4.59044">
        <ele>479.461</ele>
        <time>2021-04-03T15:50:55Z</time>
      </trkpt>
      <trkpt lat="46.25753" lon="4.59007">
        <ele>479.443</ele>
        <time>2021-04-03T15:50:57Z</time>
      </trkpt>
      <trkpt lat="46.25758" lon="4.58968">
        <ele>479.449</ele>
        <time>2021-04-03T15:50:59Z</time>
      </trkpt>
      <trkpt lat="46.25761" lon="4.58931">
        <ele>479.496</ele>
        <time>2021-04-03T15:51:01Z</time>
      </trkpt>
      <trkpt lat="46.25763" lon="4.58896">
        <ele>479.463</ele>
        <time>2021-04-03T15:51:03Z</time>
      </trkpt>
      <trkpt lat="46.25766" lon="4.58861">
        <ele>479.449</ele>
        <time>2021-04-03T15:51:05Z</time>
      </trkpt>
      <trkpt lat="46.2577" lon="4.58826">
        <ele>479.402</ele>
        <time>2021-04-03T15:51:07Z</time>
      </trkpt>
      <trkpt lat="46.25773" lon="4.58788">
        <ele>479.422</ele>
        <time>2021-04-03T15:51:09Z</time>
      </trkpt>
      <trkpt lat="46.25776" lon="4.58747">
        <ele>479.408</ele>
        <time>2021-04-03T15:51:11Z</time>
      </trkpt>
      <trkpt lat="46.25777" lon="4.58711">
        <ele>479.48</ele>
        <time>2021-04-03T15:51:13Z</time>
      </trkpt>
      <trkpt lat="46.25779" lon="4.5868">
        <ele>479.413</ele>
        <time>2021-04-03T15:51:15Z</time>
      </trkpt>
      <trkpt lat="46.25783" lon="4.58653">
        <ele>479.492</ele>
        <time>2021-04-03T15:51:17Z</time>
      </trkpt>
      <trkpt lat="46.25787" lon="4.58634">
        <ele>479.484</ele>
        <time>2021-04-03T15:51:19Z</time>
      </trkpt>
      <trkpt lat="46.2579" lon="4.58623">
        <ele>479.416</ele>
        <time>2021-04-03T15:51:21Z</time>
      </trkpt>
      <trkpt lat="46.25782" lon="4.5862">
        <ele>479.492</ele>
        <time>2021-04-03T15:51:27Z</time>
      </trkpt>
      <trkpt lat="46.25764" lon="4.5861">
        <ele>479.469</ele>
        <time>2021-04-03T15:51:29Z</time>
      </trkpt>
      <trkpt lat="46.25745" lon="4.58604">
        <ele>475.426</ele>
        <time>2021-04-03T15:51:31Z</time>
      </trkpt>
      <trkpt lat="46.25732" lon="4.58599">
        <ele>471.433</ele>
        <time>2021-04-03T15:51:33Z</time>
      </trkpt>
      <trkpt lat="46.25729" lon="4.58585">
        <ele>467.423</ele>
        <time>2021-04-03T15:51:35Z</time>
      </trkpt>
      <trkpt lat="46.25729" lon="4.58566">
        <ele>463.415</ele>
        <time>2021-04-03T15:51:37Z</time>
      </trkpt>
      <trkpt lat="46.25732" lon="4.58545">
        <ele>459.408</ele>
        <time>2021-04-03T15:51:39Z</time>
      </trkpt>
      <trkpt lat="46.25734" lon="4.58523">
        <ele>455.469</ele>
        <time>2021-04-03T15:51:41Z</time>
      </trkpt>
      <trkpt lat="46.25734" lon="4.58503">
        <ele>451.422</ele>
        <time>2021-04-03T15:51:43Z</time>
      </trkpt>
      <trkpt lat="46.25731" lon="4.58477">
        <ele>447.471</ele>
        <time>2021-04-03T15:51:45Z</time>
      </trkpt>
      <trkpt lat="46.25727" lon="4.5845">
        <ele>443.453</ele>
        <time>2021-04-03T15:51:47Z</time>
      </trkpt>
      <trkpt lat="46.25723" lon="4.58428">
        <ele>439.495</ele>
        <time>2021-04-03T15:51:49Z</time>
      </trkpt>
      <trkpt lat="46.25722" lon="4.58405">
        <ele>435.411</ele>
        <time>2021-04-03T15:51:51Z</time>
      </trkpt>
      <trkpt lat="46.25722" lon="4.58386">
        <ele>431.478</ele>
        <time>2021-04-03T15:51:53Z</time>
      </trkpt>
      <trkpt lat="46.25729" lon="4.58369">
        <ele>427.435</ele>
        <time>2021-04-03T15:51:55Z</time>
      </trkpt>
      <trkpt lat="46.25743" lon="4.58348">
        <ele>423.475</ele>
        <time>2021-04-03T15:51:57Z</time>
      </trkpt>
      <trkpt lat="46.25758" lon="4.58324">
        <ele>419.428</ele>
        <time>2021-04-03T15:51:59Z</time>
      </trkpt>
      <trkpt lat="46.2577" lon="4.58303">
        <ele>415.42</ele>
        <time>2021-04-03T15:52:01Z</time>
      </trkpt>
      <trkpt lat="46.25779" lon="4.58286">
        <ele>411.408</ele>
        <time>2021-04-03T15:52:03Z</time>
      </trkpt>
      <trkpt lat="46.25789" lon="4.58269">
        <ele>407.493</ele>
        <time>2021-04-03T15:52:05Z</time>
      </trkpt>
      <trkpt lat="46.25801" lon="4.58266">
        <ele>403.646</ele>
        <time>2021-04-03T15:52:07Z</time>
      </trkpt>
      <trkpt lat="46.25816" lon="4.58276">
        <ele>401.795</ele>
        <time>2021-04-03T15:52:09Z</time>
      </trkpt>
      <trkpt lat="46.25836" lon="4.58287">
        <ele>401.517</ele>
        <time>2021-04-03T15:52:11Z</time>
      </trkpt>
      <trkpt lat="46.25857" lon="4.58296">
        <ele>402.499</ele>
        <time>2021-04-03T15:52:13Z</time>
      </trkpt>
      <trkpt lat="46.25872" lon="4.5829">
        <ele>403.365</ele>
        <time>2021-04-03T15:52:15Z</time>
      </trkpt>
      <trkpt lat="46.25886" lon="4.58282">
        <ele>404.652</ele>
        <time>2021-04-03T15:52:17Z</time>
      </trkpt>
      <trkpt lat="46.259" lon="4.58276">
        <ele>406.429</ele>
        <time>2021-04-03T15:52:19Z</time>
      </trkpt>
      <trkpt lat="46.25915" lon="4.58264">
        <ele>408.566</ele>
        <time>2021-04-03T15:52:21Z</time>
      </trkpt>
      <trkpt lat="46.25919" lon="4.58251">
        <ele>410.929</ele>
        <time>2021-04-03T15:52:23Z</time>
      </trkpt>
      <trkpt lat="46.25919" lon="4.58238">
        <ele>412.921</ele>
        <time>2021-04-03T15:52:27Z</time>
      </trkpt>
      <trkpt lat="46.25921" lon="4.58227">
        <ele>415.108</ele>
        <time>2021-04-03T15:52:29Z</time>
      </trkpt>
      <trkpt lat="46.25922" lon="4.58215">
        <ele>416.962</ele>
        <time>2021-04-03T15:52:31Z</time>
      </trkpt>
      <trkpt lat="46.25925" lon="4.58199">
        <ele>417.955</ele>
        <time>2021-04-03T15:52:33Z</time>
      </trkpt>
      <trkpt lat="46.25927" lon="4.58191">
        <ele>418.614</ele>
        <time>2021-04-03T15:52:35Z</time>
      </trkpt>
      <trkpt lat="46.25929" lon="4.58173">
        <ele>420.096</ele>
        <time>2021-04-03T15:52:37Z</time>
      </trkpt>
      <trkpt lat="46.25933" lon="4.58148">
        <ele>420.828</ele>
        <time>2021-04-03T15:52:39Z</time>
      </trkpt>
      <trkpt lat="46.25938" lon="4.58123">
        <ele>421.894</ele>
        <time>2021-04-03T15:52:41Z</time>
      </trkpt>
      <trkpt lat="46.25941" lon="4.58099">
        <ele>422.891</ele>
        <time>2021-04-03T15:52:43Z</time>
      </trkpt>
      <trkpt lat="46.25945" lon="4.58078">
        <ele>423.858</ele>
        <time>2021-04-03T15:52:45Z</time>
      </trkpt>
      <trkpt lat="46.25948" lon="4.58056">
        <ele>424.945</ele>
        <time>2021-04-03T15:52:47Z</time>
      </trkpt>
      <trkpt lat="46.25952" lon="4.58033">
        <ele>425.847</ele>
        <time>2021-04-03T15:52:49Z</time>
      </trkpt>
      <trkpt lat="46.25956" lon="4.5801">
        <ele>426.511</ele>
        <time>2021-04-03T15:52:51Z</time>
      </trkpt>
      <trkpt lat="46.2596" lon="4.57985">
        <ele>427.708</ele>
        <time>2021-04-03T15:52:53Z</time>
      </trkpt>
      <trkpt lat="46.25961" lon="4.57965">
        <ele>428.53</ele>
        <time>2021-04-03T15:52:55Z</time>
      </trkpt>
      <trkpt lat="46.25963" lon="4.57948">
        <ele>429.013</ele>
        <time>2021-04-03T15:52:57Z</time>
      </trkpt>
      <trkpt lat="46.25964" lon="4.5793">
        <ele>429.422</ele>
        <time>2021-04-03T15:52:59Z</time>
      </trkpt>
      <trkpt lat="46.25965" lon="4.57912">
        <ele>429.654</ele>
        <time>2021-04-03T15:53:01Z</time>
      </trkpt>
      <trkpt lat="46.25963" lon="4.57901">
        <ele>429.556</ele>
        <time>2021-04-03T15:53:03Z</time>
      </trkpt>
      <trkpt lat="46.25954" lon="4.57893">
        <ele>429.472</ele>
        <time>2021-04-03T15:53:05Z</time>
      </trkpt>
      <trkpt lat="46.25943" lon="4.57886">
        <ele>429.569</ele>
        <time>2021-04-03T15:53:07Z</time>
      </trkpt>
      <trkpt lat="46.25934" lon="4.57882">
        <ele>430.076</ele>
        <time>2021-04-03T15:53:09Z</time>
      </trkpt>
      <trkpt lat="46.25936" lon="4.57871">
        <ele>430.782</ele>
        <time>2021-04-03T15:53:13Z</time>
      </trkpt>
      <trkpt lat="46.25939" lon="4.57862">
        <ele>431.343</ele>
        <time>2021-04-03T15:53:15Z</time>
      </trkpt>
      <trkpt lat="46.25945" lon="4.57849">
        <ele>432.017</ele>
        <time>2021-04-03T15:53:17Z</time>
      </trkpt>
      <trkpt lat="46.25951" lon="4.57839">
        <ele>432.408</ele>
        <time>2021-04-03T15:53:19Z</time>
      </trkpt>
      <trkpt lat="46.25956" lon="4.57835">
        <ele>432.884</ele>
        <time>2021-04-03T15:53:21Z</time>
      </trkpt>
      <trkpt lat="46.25963" lon="4.57832">
        <ele>433.627</ele>
        <time>2021-04-03T15:53:23Z</time>
      </trkpt>
      <trkpt lat="46.25973" lon="4.57834">
        <ele>434.246</ele>
        <time>2021-04-03T15:53:25Z</time>
      </trkpt>
      <trkpt lat="46.25985" lon="4.57846">
        <ele>434.748</ele>
        <time>2021-04-03T15:53:27Z</time>
      </trkpt>
      <trkpt lat="46.25993" lon="4.57862">
        <ele>435.15</ele>
        <time>2021-04-03T15:53:29Z</time>
      </trkpt>
      <trkpt lat="46.26001" lon="4.57878">
        <ele>435.996</ele>
        <time>2021-04-03T15:53:31Z</time>
      </trkpt>
      <trkpt lat="46.26012" lon="4.57895">
        <ele>437.173</ele>
        <time>2021-04-03T15:53:33Z</time>
      </trkpt>
      <trkpt lat="46.26028" lon="4.57901">
        <ele>438.02</ele>
        <time>2021-04-03T15:53:35Z</time>
      </trkpt>
      <trkpt lat="46.26046" lon="4.57896">
        <ele>439.022</ele>
        <time>2021-04-03T15:53:37Z</time>
      </trkpt>
      <trkpt lat="46.26063" lon="4.57885">
        <ele>440.062</ele>
        <time>2021-04-03T15:53:39Z</time>
      </trkpt>
      <trkpt lat="46.26076" lon="4.5787">
        <ele>440.608</ele>
        <time>2021-04-03T15:53:41Z</time>
      </trkpt>
      <trkpt lat="46.26086" lon="4.57853">
        <ele>440.708</ele>
        <time>2021-04-03T15:53:43Z</time>
      </trkpt>
      <trkpt lat="46.26098" lon="4.57836">
        <ele>440.318</ele>
        <time>2021-04-03T15:53:45Z</time>
      </trkpt>
      <trkpt lat="46.26114" lon="4.5782">
        <ele>439.951</ele>
        <time>2021-04-03T15:53:47Z</time>
      </trkpt>
      <trkpt lat="46.26136" lon="4.57815">
        <ele>439.57</ele>
        <time>2021-04-03T15:53:49Z</time>
      </trkpt>
      <trkpt lat="46.26162" lon="4.57821">
        <ele>439.922</ele>
        <time>2021-04-03T15:53:51Z</time>
      </trkpt>
      <trkpt lat="46.26187" lon="4.57833">
        <ele>441.064</ele>
        <time>2021-04-03T15:53:53Z</time>
      </trkpt>
      <trkpt lat="46.26204" lon="4.57844">
        <ele>442.09</ele>
        <time>2021-04-03T15:53:55Z</time>
      </trkpt>
      <trkpt lat="46.26218" lon="4.57848">
        <ele>442.937</ele>
        <time>2021-04-03T15:53:57Z</time>
      </trkpt>
      <trkpt lat="46.26227" lon="4.57849">
        <ele>443.734</ele>
        <time>2021-04-03T15:53:59Z</time>
      </trkpt>
      <trkpt lat="46.26231" lon="4.57844">
        <ele>444.228</ele>
        <time>2021-04-03T15:54:01Z</time>
      </trkpt>
      <trkpt lat="46.26239" lon="4.57828">
        <ele>444.389</ele>
        <time>2021-04-03T15:54:03Z</time>
      </trkpt>
      <trkpt lat="46.26247" lon="4.57804">
        <ele>444.117</ele>
        <time>2021-04-03T15:54:05Z</time>
      </trkpt>
      <trkpt lat="46.26256" lon="4.57773">
        <ele>445.708</ele>
        <time>2021-04-03T15:54:07Z</time>
      </trkpt>
      <trkpt lat="46.26264" lon="4.57737">
        <ele>447.168</ele>
        <time>2021-04-03T15:54:09Z</time>
      </trkpt>
      <trkpt lat="46.26273" lon="4.57697">
        <ele>448.011</ele>
        <time>2021-04-03T15:54:11Z</time>
      </trkpt>
      <trkpt lat="46.26284" lon="4.57656">
        <ele>450.76</ele>
        <time>2021-04-03T15:54:13Z</time>
      </trkpt>
      <trkpt lat="46.26296" lon="4.57627">
        <ele>453.582</ele>
        <time>2021-04-03T15:54:15Z</time>
      </trkpt>
      <trkpt lat="46.26307" lon="4.57602">
        <ele>455.834</ele>
        <time>2021-04-03T15:54:17Z</time>
      </trkpt>
      <trkpt lat="46.26317" lon="4.57584">
        <ele>458.09</ele>
        <time>2021-04-03T15:54:19Z</time>
      </trkpt>
      <trkpt lat="46.26332" lon="4.57573">
        <ele>460.647</ele>
        <time>2021-04-03T15:54:21Z</time>
      </trkpt>
      <trkpt lat="46.26351" lon="4.57575">
        <ele>462.164</ele>
        <time>2021-04-03T15:54:23Z</time>
      </trkpt>
      <trkpt lat="46.26376" lon="4.57583">
        <ele>464.825</ele>
        <time>2021-04-03T15:54:25Z</time>
      </trkpt>
      <trkpt lat="46.26398" lon="4.57589">
        <ele>467.126</ele>
        <time>2021-04-03T15:54:27Z</time>
      </trkpt>
      <trkpt lat="46.26417" lon="4.57593">
        <ele>468.608</ele>
        <time>2021-04-03T15:54:29Z</time>
      </trkpt>
      <trkpt lat="46.26437" lon="4.57594">
        <ele>470.208</ele>
        <time>2021-04-03T15:54:31Z</time>
      </trkpt>
      <trkpt lat="46.26449" lon="4.576">
        <ele>472.918</ele>
        <time>2021-04-03T15:54:33Z</time>
      </trkpt>
      <trkpt lat="46.26453" lon="4.57604">
        <ele>475.991</ele>
        <time>2021-04-03T15:54:41Z</time>
      </trkpt>
      <trkpt lat="46.26461" lon="4.57608">
        <ele>478.96</ele>
        <time>2021-04-03T15:54:43Z</time>
      </trkpt>
      <trkpt lat="46.2648" lon="4.57621">
        <ele>481.992</ele>
        <time>2021-04-03T15:54:45Z</time>
      </trkpt>
      <trkpt lat="46.26505" lon="4.5764">
        <ele>484.944</ele>
        <time>2021-04-03T15:54:47Z</time>
      </trkpt>
      <trkpt lat="46.26527" lon="4.57654">
        <ele>488.43</ele>
        <time>2021-04-03T15:54:49Z</time>
      </trkpt>
      <trkpt lat="46.26545" lon="4.57662">
        <ele>492.357</ele>
        <time>2021-04-03T15:54:51Z</time>
      </trkpt>
      <trkpt lat="46.26565" lon="4.57668">
        <ele>495.614</ele>
        <time>2021-04-03T15:54:53Z</time>
      </trkpt>
      <trkpt lat="46.26582" lon="4.57664">
        <ele>498.861</ele>
        <time>2021-04-03T15:54:55Z</time>
      </trkpt>
      <trkpt lat="46.26597" lon="4.57652">
        <ele>502.221</ele>
        <time>2021-04-03T15:54:57Z</time>
      </trkpt>
      <trkpt lat="46.26614" lon="4.57626">
        <ele>505.213</ele>
        <time>2021-04-03T15:54:59Z</time>
      </trkpt>
      <trkpt lat="46.26625" lon="4.57592">
        <ele>508.408</ele>
        <time>2021-04-03T15:55:01Z</time>
      </trkpt>
      <trkpt lat="46.26633" lon="4.5756">
        <ele>511.712</ele>
        <time>2021-04-03T15:55:03Z</time>
      </trkpt>
      <trkpt lat="46.26636" lon="4.57528">
        <ele>515.255</ele>
        <time>2021-04-03T15:55:05Z</time>
      </trkpt>
      <trkpt lat="46.2664" lon="4.57502">
        <ele>517.544</ele>
        <time>2021-04-03T15:55:07Z</time>
      </trkpt>
      <trkpt lat="46.26639" lon="4.57478">
        <ele>518.996</ele>
        <time>2021-04-03T15:55:09Z</time>
      </trkpt>
      <trkpt lat="46.26635" lon="4.57447">
        <ele>519.888</ele>
        <time>2021-04-03T15:55:11Z</time>
      </trkpt>
      <trkpt lat="46.26627" lon="4.57409">
        <ele>520.724</ele>
        <time>2021-04-03T15:55:13Z</time>
      </trkpt>
      <trkpt lat="46.26618" lon="4.57376">
        <ele>522.061</ele>
        <time>2021-04-03T15:55:15Z</time>
      </trkpt>
      <trkpt lat="46.26602" lon="4.57354">
        <ele>523.988</ele>
        <time>2021-04-03T15:55:17Z</time>
      </trkpt>
      <trkpt lat="46.2658" lon="4.57329">
        <ele>526.182</ele>
        <time>2021-04-03T15:55:19Z</time>
      </trkpt>
      <trkpt lat="46.26563" lon="4.57301">
        <ele>528.643</ele>
        <time>2021-04-03T15:55:21Z</time>
      </trkpt>
      <trkpt lat="46.26552" lon="4.57278">
        <ele>530.817</ele>
        <time>2021-04-03T15:55:23Z</time>
      </trkpt>
      <trkpt lat="46.26541" lon="4.57255">
        <ele>533.708</ele>
        <time>2021-04-03T15:55:25Z</time>
      </trkpt>
      <trkpt lat="46.26534" lon="4.57239">
        <ele>535.594</ele>
        <time>2021-04-03T15:55:27Z</time>
      </trkpt>
      <trkpt lat="46.26527" lon="4.57227">
        <ele>535.857</ele>
        <time>2021-04-03T15:55:29Z</time>
      </trkpt>
      <trkpt lat="46.26516" lon="4.57211">
        <ele>536.386</ele>
        <time>2021-04-03T15:55:31Z</time>
      </trkpt>
      <trkpt lat="46.26502" lon="4.57194">
        <ele>537.138</ele>
        <time>2021-04-03T15:55:33Z</time>
      </trkpt>
      <trkpt lat="46.26493" lon="4.57181">
        <ele>537.59</ele>
        <time>2021-04-03T15:55:35Z</time>
      </trkpt>
      <trkpt lat="46.26483" lon="4.57168">
        <ele>538.556</ele>
        <time>2021-04-03T15:55:37Z</time>
      </trkpt>
      <trkpt lat="46.26475" lon="4.57156">
        <ele>539.443</ele>
        <time>2021-04-03T15:55:39Z</time>
      </trkpt>
      <trkpt lat="46.26471" lon="4.57151">
        <ele>540.91</ele>
        <time>2021-04-03T15:55:43Z</time>
      </trkpt>
      <trkpt lat="46.26466" lon="4.57145">
        <ele>542.973</ele>
        <time>2021-04-03T15:55:45Z</time>
      </trkpt>
      <trkpt lat="46.26458" lon="4.57134">
        <ele>545.185</ele>
        <time>2021-04-03T15:55:47Z</time>
      </trkpt>
      <trkpt lat="46.26448" lon="4.57126">
        <ele>546.813</ele>
        <time>2021-04-03T15:55:49Z</time>
      </trkpt>
      <trkpt lat="46.26443" lon="4.57124">
        <ele>548.608</ele>
        <time>2021-04-03T15:55:53Z</time>
      </trkpt>
      <trkpt lat="46.26438" lon="4.57116">
        <ele>549.763</ele>
        <time>2021-04-03T15:55:55Z</time>
      </trkpt>
      <trkpt lat="46.26429" lon="4.57104">
        <ele>550.986</ele>
        <time>2021-04-03T15:55:57Z</time>
      </trkpt>
      <trkpt lat="46.26417" lon="4.57081">
        <ele>551.895</ele>
        <time>2021-04-03T15:55:59Z</time>
      </trkpt>
      <trkpt lat="46.26404" lon="4.57053">
        <ele>553.397</ele>
        <time>2021-04-03T15:56:01Z</time>
      </trkpt>
      <trkpt lat="46.26395" lon="4.57029">
        <ele>554.139</ele>
        <time>2021-04-03T15:56:03Z</time>
      </trkpt>
      <trkpt lat="46.26389" lon="4.57005">
        <ele>553.685</ele>
        <time>2021-04-03T15:56:05Z</time>
      </trkpt>
      <trkpt lat="46.26383" lon="4.56984">
        <ele>554.462</ele>
        <time>2021-04-03T15:56:07Z</time>
      </trkpt>
      <trkpt lat="46.26378" lon="4.56966">
        <ele>555.469</ele>
        <time>2021-04-03T15:56:09Z</time>
      </trkpt>
      <trkpt lat="46.26377" lon="4.56949">
        <ele>557.822</ele>
        <time>2021-04-03T15:56:11Z</time>
      </trkpt>
      <trkpt lat="46.26376" lon="4.5693">
        <ele>561.062</ele>
        <time>2021-04-03T15:56:13Z</time>
      </trkpt>
      <trkpt lat="46.26375" lon="4.56909">
        <ele>564.008</ele>
        <time>2021-04-03T15:56:15Z</time>
      </trkpt>
      <trkpt lat="46.26371" lon="4.56892">
        <ele>566.908</ele>
        <time>2021-04-03T15:56:17Z</time>
      </trkpt>
      <trkpt lat="46.26368" lon="4.56875">
        <ele>570.738</ele>
        <time>2021-04-03T15:56:19Z</time>
      </trkpt>
      <trkpt lat="46.2637" lon="4.56851">
        <ele>574.111</ele>
        <time>2021-04-03T15:56:21Z</time>
      </trkpt>
      <trkpt lat="46.26371" lon="4.56825">
        <ele>576.24</ele>
        <time>2021-04-03T15:56:23Z</time>
      </trkpt>
      <trkpt lat="46.2637" lon="4.568">
        <ele>577.782</ele>
        <time>2021-04-03T15:56:25Z</time>
      </trkpt>
      <trkpt lat="46.26367" lon="4.56773">
        <ele>573.714</ele>
        <time>2021-04-03T15:56:27Z</time>
      </trkpt>
      <trkpt lat="46.26364" lon="4.56758">
        <ele>573.79</ele>
        <time>2021-04-03T15:56:29Z</time>
      </trkpt>
      <trkpt lat="46.26361" lon="4.56747">
        <ele>574.917</ele>
        <time>2021-04-03T15:56:31Z</time>
      </trkpt>
      <trkpt lat="46.2636" lon="4.5674">
        <ele>575.974</ele>
        <time>2021-04-03T15:56:33Z</time>
      </trkpt>
      <trkpt lat="46.26359" lon="4.56716">
        <ele>576.259</ele>
        <time>2021-04-03T15:56:35Z</time>
      </trkpt>
      <trkpt lat="46.26362" lon="4.5669">
        <ele>575.703</ele>
        <time>2021-04-03T15:56:37Z</time>
      </trkpt>
      <trkpt lat="46.26368" lon="4.56667">
        <ele>575.223</ele>
        <time>2021-04-03T15:56:39Z</time>
      </trkpt>
      <trkpt lat="46.26375" lon="4.56645">
        <ele>574.108</ele>
        <time>2021-04-03T15:56:41Z</time>
      </trkpt>
      <trkpt lat="46.26377" lon="4.56623">
        <ele>572.521</ele>
        <time>2021-04-03T15:56:43Z</time>
      </trkpt>
      <trkpt lat="46.26376" lon="4.56601">
        <ele>571.424</ele>
        <time>2021-04-03T15:56:45Z</time>
      </trkpt>
      <trkpt lat="46.26374" lon="4.56578">
        <ele>569.943</ele>
        <time>2021-04-03T15:56:47Z</time>
      </trkpt>
      <trkpt lat="46.26376" lon="4.56553">
        <ele>569.345</ele>
        <time>2021-04-03T15:56:49Z</time>
      </trkpt>
      <trkpt lat="46.26377" lon="4.56527">
        <ele>568.437</ele>
        <time>2021-04-03T15:56:51Z</time>
      </trkpt>
      <trkpt lat="46.2638" lon="4.56502">
        <ele>566.833</ele>
        <time>2021-04-03T15:56:53Z</time>
      </trkpt>
      <trkpt lat="46.26383" lon="4.56475">
        <ele>565.02</ele>
        <time>2021-04-03T15:56:55Z</time>
      </trkpt>
      <trkpt lat="46.26388" lon="4.56452">
        <ele>563.687</ele>
        <time>2021-04-03T15:56:57Z</time>
      </trkpt>
      <trkpt lat="46.26395" lon="4.56429">
        <ele>562.593</ele>
        <time>2021-04-03T15:56:59Z</time>
      </trkpt>
      <trkpt lat="46.26401" lon="4.56405">
        <ele>561.265</ele>
        <time>2021-04-03T15:57:01Z</time>
      </trkpt>
      <trkpt lat="46.26405" lon="4.56383">
        <ele>559.621</ele>
        <time>2021-04-03T15:57:03Z</time>
      </trkpt>
      <trkpt lat="46.2641" lon="4.5636">
        <ele>558.508</ele>
        <time>2021-04-03T15:57:05Z</time>
      </trkpt>
      <trkpt lat="46.26415" lon="4.56338">
        <ele>556.345</ele>
        <time>2021-04-03T15:57:07Z</time>
      </trkpt>
      <trkpt lat="46.26419" lon="4.56311">
        <ele>553.458</ele>
        <time>2021-04-03T15:57:09Z</time>
      </trkpt>
      <trkpt lat="46.26425" lon="4.56285">
        <ele>549.997</ele>
        <time>2021-04-03T15:57:11Z</time>
      </trkpt>
      <trkpt lat="46.26431" lon="4.56259">
        <ele>547.619</ele>
        <time>2021-04-03T15:57:13Z</time>
      </trkpt>
      <trkpt lat="46.26437" lon="4.56231">
        <ele>545.071</ele>
        <time>2021-04-03T15:57:15Z</time>
      </trkpt>
      <trkpt lat="46.26442" lon="4.56203">
        <ele>542.767</ele>
        <time>2021-04-03T15:57:17Z</time>
      </trkpt>
      <trkpt lat="46.26449" lon="4.56175">
        <ele>540.514</ele>
        <time>2021-04-03T15:57:19Z</time>
      </trkpt>
      <trkpt lat="46.26454" lon="4.56147">
        <ele>538.281</ele>
        <time>2021-04-03T15:57:21Z</time>
      </trkpt>
      <trkpt lat="46.26456" lon="4.5612">
        <ele>536.033</ele>
        <time>2021-04-03T15:57:23Z</time>
      </trkpt>
      <trkpt lat="46.26454" lon="4.56094">
        <ele>534.223</ele>
        <time>2021-04-03T15:57:25Z</time>
      </trkpt>
      <trkpt lat="46.26446" lon="4.56073">
        <ele>532.615</ele>
        <time>2021-04-03T15:57:27Z</time>
      </trkpt>
      <trkpt lat="46.2644" lon="4.56054">
        <ele>530.908</ele>
        <time>2021-04-03T15:57:29Z</time>
      </trkpt>
      <trkpt lat="46.26441" lon="4.56036">
        <ele>529.099</ele>
        <time>2021-04-03T15:57:31Z</time>
      </trkpt>
      <trkpt lat="46.26443" lon="4.56016">
        <ele>527.082</ele>
        <time>2021-04-03T15:57:33Z</time>
      </trkpt>
      <trkpt lat="46.26444" lon="4.56001">
        <ele>525.021</ele>
        <time>2021-04-03T15:57:35Z</time>
      </trkpt>
      <trkpt lat="46.26442" lon="4.55991">
        <ele>523.623</ele>
        <time>2021-04-03T15:57:37Z</time>
      </trkpt>
      <trkpt lat="46.26437" lon="4.55985">
        <ele>522.375</ele>
        <time>2021-04-03T15:57:39Z</time>
      </trkpt>
      <trkpt lat="46.2643" lon="4.55971">
        <ele>521.021</ele>
        <time>2021-04-03T15:57:41Z</time>
      </trkpt>
      <trkpt lat="46.26422" lon="4.55955">
        <ele>518.858</ele>
        <time>2021-04-03T15:57:43Z</time>
      </trkpt>
      <trkpt lat="46.26413" lon="4.55942">
        <ele>516.475</ele>
        <time>2021-04-03T15:57:45Z</time>
      </trkpt>
      <trkpt lat="46.26403" lon="4.55934">
        <ele>513.872</ele>
        <time>2021-04-03T15:57:47Z</time>
      </trkpt>
      <trkpt lat="46.26391" lon="4.55929">
        <ele>511.513</ele>
        <time>2021-04-03T15:57:49Z</time>
      </trkpt>
      <trkpt lat="46.26381" lon="4.55925">
        <ele>509.714</ele>
        <time>2021-04-03T15:57:51Z</time>
      </trkpt>
      <trkpt lat="46.26371" lon="4.55922">
        <ele>508.308</ele>
        <time>2021-04-03T15:57:53Z</time>
      </trkpt>
      <trkpt lat="46.26361" lon="4.55917">
        <ele>506.833</ele>
        <time>2021-04-03T15:57:55Z</time>
      </trkpt>
      <trkpt lat="46.2635" lon="4.55906">
        <ele>505.246</ele>
        <time>2021-04-03T15:57:57Z</time>
      </trkpt>
      <trkpt lat="46.26339" lon="4.55896">
        <ele>503.585</ele>
        <time>2021-04-03T15:57:59Z</time>
      </trkpt>
      <trkpt lat="46.26329" lon="4.55886">
        <ele>502.077</ele>
        <time>2021-04-03T15:58:01Z</time>
      </trkpt>
      <trkpt lat="46.26319" lon="4.55877">
        <ele>500.849</ele>
        <time>2021-04-03T15:58:03Z</time>
      </trkpt>
      <trkpt lat="46.26308" lon="4.55868">
        <ele>499.885</ele>
        <time>2021-04-03T15:58:05Z</time>
      </trkpt>
      <trkpt lat="46.26298" lon="4.55857">
        <ele>498.072</ele>
        <time>2021-04-03T15:58:07Z</time>
      </trkpt>
      <trkpt lat="46.26288" lon="4.55845">
        <ele>496.219</ele>
        <time>2021-04-03T15:58:09Z</time>
      </trkpt>
      <trkpt lat="46.26279" lon="4.55833">
        <ele>494.444</ele>
        <time>2021-04-03T15:58:11Z</time>
      </trkpt>
      <trkpt lat="46.26275" lon="4.55819">
        <ele>492.605</ele>
        <time>2021-04-03T15:58:13Z</time>
      </trkpt>
      <trkpt lat="46.26276" lon="4.558">
        <ele>490.515</ele>
        <time>2021-04-03T15:58:15Z</time>
      </trkpt>
      <trkpt lat="46.26276" lon="4.55782">
        <ele>488.608</ele>
        <time>2021-04-03T15:58:17Z</time>
      </trkpt>
      <trkpt lat="46.26273" lon="4.55777">
        <ele>487.02</ele>
        <time>2021-04-03T15:58:26Z</time>
      </trkpt>
      <trkpt lat="46.26267" lon="4.55772">
        <ele>485.653</ele>
        <time>2021-04-03T15:58:29Z</time>
      </trkpt>
      <trkpt lat="46.26251" lon="4.55755">
        <ele>484.062</ele>
        <time>2021-04-03T15:58:31Z</time>
      </trkpt>
      <trkpt lat="46.26241" lon="4.55747">
        <ele>482.274</ele>
        <time>2021-04-03T15:58:33Z</time>
      </trkpt>
      <trkpt lat="46.26231" lon="4.55743">
        <ele>480.826</ele>
        <time>2021-04-03T15:58:35Z</time>
      </trkpt>
      <trkpt lat="46.26228" lon="4.55734">
        <ele>479.292</ele>
        <time>2021-04-03T15:58:39Z</time>
      </trkpt>
      <trkpt lat="46.26232" lon="4.55727">
        <ele>477.849</ele>
        <time>2021-04-03T15:58:41Z</time>
      </trkpt>
      <trkpt lat="46.26237" lon="4.55717">
        <ele>477.386</ele>
        <time>2021-04-03T15:58:43Z</time>
      </trkpt>
      <trkpt lat="46.26243" lon="4.55708">
        <ele>476.541</ele>
        <time>2021-04-03T15:58:45Z</time>
      </trkpt>
      <trkpt lat="46.26251" lon="4.55697">
        <ele>475.381</ele>
        <time>2021-04-03T15:58:47Z</time>
      </trkpt>
      <trkpt lat="46.26256" lon="4.5569">
        <ele>474.009</ele>
        <time>2021-04-03T15:58:49Z</time>
      </trkpt>
      <trkpt lat="46.26264" lon="4.55678">
        <ele>472.808</ele>
        <time>2021-04-03T15:58:51Z</time>
      </trkpt>
      <trkpt lat="46.26274" lon="4.55665">
        <ele>471.43</ele>
        <time>2021-04-03T15:58:53Z</time>
      </trkpt>
      <trkpt lat="46.26287" lon="4.55657">
        <ele>469.353</ele>
        <time>2021-04-03T15:58:55Z</time>
      </trkpt>
      <trkpt lat="46.26302" lon="4.55658">
        <ele>467.012</ele>
        <time>2021-04-03T15:58:57Z</time>
      </trkpt>
      <trkpt lat="46.26316" lon="4.55662">
        <ele>465.324</ele>
        <time>2021-04-03T15:58:59Z</time>
      </trkpt>
      <trkpt lat="46.26331" lon="4.55666">
        <ele>463.626</ele>
        <time>2021-04-03T15:59:01Z</time>
      </trkpt>
      <trkpt lat="46.26343" lon="4.55667">
        <ele>462.022</ele>
        <time>2021-04-03T15:59:03Z</time>
      </trkpt>
      <trkpt lat="46.26351" lon="4.55664">
        <ele>460.749</ele>
        <time>2021-04-03T15:59:05Z</time>
      </trkpt>
      <trkpt lat="46.26352" lon="4.55654">
        <ele>459.116</ele>
        <time>2021-04-03T15:59:07Z</time>
      </trkpt>
      <trkpt lat="46.26352" lon="4.55635">
        <ele>457.282</ele>
        <time>2021-04-03T15:59:09Z</time>
      </trkpt>
      <trkpt lat="46.26354" lon="4.55612">
        <ele>454.143</ele>
        <time>2021-04-03T15:59:11Z</time>
      </trkpt>
      <trkpt lat="46.2636" lon="4.55591">
        <ele>450.717</ele>
        <time>2021-04-03T15:59:13Z</time>
      </trkpt>
      <trkpt lat="46.26365" lon="4.55572">
        <ele>447.808</ele>
        <time>2021-04-03T15:59:15Z</time>
      </trkpt>
      <trkpt lat="46.26367" lon="4.55556">
        <ele>445.194</ele>
        <time>2021-04-03T15:59:17Z</time>
      </trkpt>
      <trkpt lat="46.26364" lon="4.55538">
        <ele>442.787</ele>
        <time>2021-04-03T15:59:19Z</time>
      </trkpt>
      <trkpt lat="46.26359" lon="4.55518">
        <ele>440.486</ele>
        <time>2021-04-03T15:59:21Z</time>
      </trkpt>
      <trkpt lat="46.26356" lon="4.55495">
        <ele>437.848</ele>
        <time>2021-04-03T15:59:23Z</time>
      </trkpt>
      <trkpt lat="46.26353" lon="4.55472">
        <ele>434.92</ele>
        <time>2021-04-03T15:59:25Z</time>
      </trkpt>
      <trkpt lat="46.26353" lon="4.5545">
        <ele>432.466</ele>
        <time>2021-04-03T15:59:27Z</time>
      </trkpt>
      <trkpt lat="46.26354" lon="4.55427">
        <ele>429.893</ele>
        <time>2021-04-03T15:59:29Z</time>
      </trkpt>
      <trkpt lat="46.26351" lon="4.55406">
        <ele>427.28</ele>
        <time>2021-04-03T15:59:31Z</time>
      </trkpt>
      <trkpt lat="46.26344" lon="4.55384">
        <ele>425.062</ele>
        <time>2021-04-03T15:59:33Z</time>
      </trkpt>
      <trkpt lat="46.26338" lon="4.55361">
        <ele>422.683</ele>
        <time>2021-04-03T15:59:35Z</time>
      </trkpt>
      <trkpt lat="46.26333" lon="4.55341">
        <ele>420.011</ele>
        <time>2021-04-03T15:59:37Z</time>
      </trkpt>
      <trkpt lat="46.26325" lon="4.55321">
        <ele>416.808</ele>
        <time>2021-04-03T15:59:39Z</time>
      </trkpt>
      <trkpt lat="46.26317" lon="4.55297">
        <ele>413.712</ele>
        <time>2021-04-03T15:59:41Z</time>
      </trkpt>
      <trkpt lat="46.26311" lon="4.55271">
        <ele>410.745</ele>
        <time>2021-04-03T15:59:43Z</time>
      </trkpt>
      <trkpt lat="46.26304" lon="4.55245">
        <ele>407.554</ele>
        <time>2021-04-03T15:59:45Z</time>
      </trkpt>
      <trkpt lat="46.26298" lon="4.55217">
        <ele>404.526</ele>
        <time>2021-04-03T15:59:47Z</time>
      </trkpt>
      <trkpt lat="46.2629" lon="4.55191">
        <ele>402.118</ele>
        <time>2021-04-03T15:59:49Z</time>
      </trkpt>
      <trkpt lat="46.26281" lon="4.55168">
        <ele>400.024</ele>
        <time>2021-04-03T15:59:51Z</time>
      </trkpt>
      <trkpt lat="46.26273" lon="4.55149">
        <ele>398.281</ele>
        <time>2021-04-03T15:59:53Z</time>
      </trkpt>
      <trkpt lat="46.26264" lon="4.55129">
        <ele>397.088</ele>
        <time>2021-04-03T15:59:55Z</time>
      </trkpt>
      <trkpt lat="46.26259" lon="4.55107">
        <ele>395.918</ele>
        <time>2021-04-03T15:59:57Z</time>
      </trkpt>
      <trkpt lat="46.26256" lon="4.55087">
        <ele>395.298</ele>
        <time>2021-04-03T15:59:59Z</time>
      </trkpt>
      <trkpt lat="46.26261" lon="4.55068">
        <ele>395.017</ele>
        <time>2021-04-03T16:00:01Z</time>
      </trkpt>
      <trkpt lat="46.26266" lon="4.55046">
        <ele>394.908</ele>
        <time>2021-04-03T16:00:03Z</time>
      </trkpt>
      <trkpt lat="46.26273" lon="4.55035">
        <ele>394.877</ele>
        <time>2021-04-03T16:00:05Z</time>
      </trkpt>
      <trkpt lat="46.26278" lon="4.55037">
        <ele>394.86</ele>
        <time>2021-04-03T16:00:07Z</time>
      </trkpt>
      <trkpt lat="46.26283" lon="4.55036">
        <ele>394.879</ele>
        <time>2021-04-03T16:00:09Z</time>
      </trkpt>
      <trkpt lat="46.26289" lon="4.55032">
        <ele>394.611</ele>
        <time>2021-04-03T16:00:27Z</time>
      </trkpt>
      <trkpt lat="46.26294" lon="4.55024">
        <ele>394.663</ele>
        <time>2021-04-03T16:00:29Z</time>
      </trkpt>
      <trkpt lat="46.26295" lon="4.55006">
        <ele>394.869</ele>
        <time>2021-04-03T16:00:31Z</time>
      </trkpt>
      <trkpt lat="46.26301" lon="4.54986">
        <ele>395.596</ele>
        <time>2021-04-03T16:00:33Z</time>
      </trkpt>
      <trkpt lat="46.26317" lon="4.54971">
        <ele>396.863</ele>
        <time>2021-04-03T16:00:35Z</time>
      </trkpt>
      <trkpt lat="46.26335" lon="4.54953">
        <ele>398.361</ele>
        <time>2021-04-03T16:00:37Z</time>
      </trkpt>
      <trkpt lat="46.26345" lon="4.54934">
        <ele>399.321</ele>
        <time>2021-04-03T16:00:39Z</time>
      </trkpt>
      <trkpt lat="46.26353" lon="4.54921">
        <ele>401.313</ele>
        <time>2021-04-03T16:00:41Z</time>
      </trkpt>
      <trkpt lat="46.2636" lon="4.54912">
        <ele>402.608</ele>
        <time>2021-04-03T16:00:43Z</time>
      </trkpt>
      <trkpt lat="46.26366" lon="4.54908">
        <ele>403.772</ele>
        <time>2021-04-03T16:00:45Z</time>
      </trkpt>
      <trkpt lat="46.26386" lon="4.54898">
        <ele>404.425</ele>
        <time>2021-04-03T16:00:47Z</time>
      </trkpt>
      <trkpt lat="46.26403" lon="4.54889">
        <ele>405.314</ele>
        <time>2021-04-03T16:00:49Z</time>
      </trkpt>
      <trkpt lat="46.26418" lon="4.54881">
        <ele>407.166</ele>
        <time>2021-04-03T16:00:51Z</time>
      </trkpt>
      <trkpt lat="46.26429" lon="4.54885">
        <ele>408.568</ele>
        <time>2021-04-03T16:00:53Z</time>
      </trkpt>
      <trkpt lat="46.26439" lon="4.54892">
        <ele>409.534</ele>
        <time>2021-04-03T16:00:55Z</time>
      </trkpt>
      <trkpt lat="46.26457" lon="4.54894">
        <ele>411.941</ele>
        <time>2021-04-03T16:00:57Z</time>
      </trkpt>
      <trkpt lat="46.26477" lon="4.54894">
        <ele>414.118</ele>
        <time>2021-04-03T16:00:59Z</time>
      </trkpt>
      <trkpt lat="46.26493" lon="4.54895">
        <ele>416.762</ele>
        <time>2021-04-03T16:01:01Z</time>
      </trkpt>
      <trkpt lat="46.26511" lon="4.54907">
        <ele>419.783</ele>
        <time>2021-04-03T16:01:03Z</time>
      </trkpt>
      <trkpt lat="46.26532" lon="4.54916">
        <ele>423.111</ele>
        <time>2021-04-03T16:01:05Z</time>
      </trkpt>
      <trkpt lat="46.26546" lon="4.54921">
        <ele>425.608</ele>
        <time>2021-04-03T16:01:07Z</time>
      </trkpt>
      <trkpt lat="46.2656" lon="4.54923">
        <ele>428.052</ele>
        <time>2021-04-03T16:01:09Z</time>
      </trkpt>
      <trkpt lat="46.26574" lon="4.5492">
        <ele>430.565</ele>
        <time>2021-04-03T16:01:11Z</time>
      </trkpt>
      <trkpt lat="46.26583" lon="4.54911">
        <ele>433.424</ele>
        <time>2021-04-03T16:01:13Z</time>
      </trkpt>
      <trkpt lat="46.26592" lon="4.54894">
        <ele>436.446</ele>
        <time>2021-04-03T16:01:15Z</time>
      </trkpt>
      <trkpt lat="46.26601" lon="4.54871">
        <ele>439.918</ele>
        <time>2021-04-03T16:01:17Z</time>
      </trkpt>
      <trkpt lat="46.26611" lon="4.54847">
        <ele>443.284</ele>
        <time>2021-04-03T16:01:19Z</time>
      </trkpt>
      <trkpt lat="46.26619" lon="4.54826">
        <ele>446.041</ele>
        <time>2021-04-03T16:01:21Z</time>
      </trkpt>
      <trkpt lat="46.2663" lon="4.5481">
        <ele>448.628</ele>
        <time>2021-04-03T16:01:23Z</time>
      </trkpt>
      <trkpt lat="46.26639" lon="4.54803">
        <ele>451.147</ele>
        <time>2021-04-03T16:01:25Z</time>
      </trkpt>
      <trkpt lat="46.26653" lon="4.54798">
        <ele>453.229</ele>
        <time>2021-04-03T16:01:27Z</time>
      </trkpt>
      <trkpt lat="46.26669" lon="4.54788">
        <ele>455.521</ele>
        <time>2021-04-03T16:01:29Z</time>
      </trkpt>
      <trkpt lat="46.26682" lon="4.54779">
        <ele>458.008</ele>
        <time>2021-04-03T16:01:31Z</time>
      </trkpt>
      <trkpt lat="46.26697" lon="4.54771">
        <ele>460.59</ele>
        <time>2021-04-03T16:01:33Z</time>
      </trkpt>
      <trkpt lat="46.26715" lon="4.54762">
        <ele>462.863</ele>
        <time>2021-04-03T16:01:35Z</time>
      </trkpt>
      <trkpt lat="46.26735" lon="4.54752">
        <ele>465.032</ele>
        <time>2021-04-03T16:01:37Z</time>
      </trkpt>
      <trkpt lat="46.26754" lon="4.54743">
        <ele>467.034</ele>
        <time>2021-04-03T16:01:39Z</time>
      </trkpt>
      <trkpt lat="46.26765" lon="4.54738">
        <ele>469.186</ele>
        <time>2021-04-03T16:01:41Z</time>
      </trkpt>
      <trkpt lat="46.26776" lon="4.54738">
        <ele>471.292</ele>
        <time>2021-04-03T16:01:43Z</time>
      </trkpt>
      <trkpt lat="46.26792" lon="4.54739">
        <ele>472.739</ele>
        <time>2021-04-03T16:01:45Z</time>
      </trkpt>
      <trkpt lat="46.26809" lon="4.54741">
        <ele>474.996</ele>
        <time>2021-04-03T16:01:47Z</time>
      </trkpt>
      <trkpt lat="46.26824" lon="4.54739">
        <ele>476.749</ele>
        <time>2021-04-03T16:01:49Z</time>
      </trkpt>
      <trkpt lat="46.26836" lon="4.5473">
        <ele>477.802</ele>
        <time>2021-04-03T16:01:51Z</time>
      </trkpt>
      <trkpt lat="46.26848" lon="4.54722">
        <ele>478.922</ele>
        <time>2021-04-03T16:01:53Z</time>
      </trkpt>
      <trkpt lat="46.26859" lon="4.54715">
        <ele>480.108</ele>
        <time>2021-04-03T16:01:55Z</time>
      </trkpt>
      <trkpt lat="46.26871" lon="4.54703">
        <ele>480.96</ele>
        <time>2021-04-03T16:01:57Z</time>
      </trkpt>
      <trkpt lat="46.26885" lon="4.54689">
        <ele>481.813</ele>
        <time>2021-04-03T16:01:59Z</time>
      </trkpt>
      <trkpt lat="46.26894" lon="4.54679">
        <ele>482.792</ele>
        <time>2021-04-03T16:02:01Z</time>
      </trkpt>
      <trkpt lat="46.26899" lon="4.54676">
        <ele>482.794</ele>
        <time>2021-04-03T16:02:07Z</time>
      </trkpt>
      <trkpt lat="46.26905" lon="4.54674">
        <ele>482.346</ele>
        <time>2021-04-03T16:02:10Z</time>
      </trkpt>
      <trkpt lat="46.26936" lon="4.54686">
        <ele>482.052</ele>
        <time>2021-04-03T16:02:13Z</time>
      </trkpt>
      <trkpt lat="46.26955" lon="4.54699">
        <ele>481.689</ele>
        <time>2021-04-03T16:02:15Z</time>
      </trkpt>
      <trkpt lat="46.26969" lon="4.54714">
        <ele>480.956</ele>
        <time>2021-04-03T16:02:17Z</time>
      </trkpt>
      <trkpt lat="46.26986" lon="4.54724">
        <ele>480.895</ele>
        <time>2021-04-03T16:02:19Z</time>
      </trkpt>
      <trkpt lat="46.27005" lon="4.54736">
        <ele>481.649</ele>
        <time>2021-04-03T16:02:21Z</time>
      </trkpt>
      <trkpt lat="46.27026" lon="4.54751">
        <ele>483.423</ele>
        <time>2021-04-03T16:02:23Z</time>
      </trkpt>
      <trkpt lat="46.27046" lon="4.54763">
        <ele>485.708</ele>
        <time>2021-04-03T16:02:25Z</time>
      </trkpt>
      <trkpt lat="46.27066" lon="4.54774">
        <ele>488.145</ele>
        <time>2021-04-03T16:02:27Z</time>
      </trkpt>
      <trkpt lat="46.27085" lon="4.54783">
        <ele>490.198</ele>
        <time>2021-04-03T16:02:29Z</time>
      </trkpt>
      <trkpt lat="46.27101" lon="4.5478">
        <ele>491.677</ele>
        <time>2021-04-03T16:02:31Z</time>
      </trkpt>
      <trkpt lat="46.27119" lon="4.54775">
        <ele>493.229</ele>
        <time>2021-04-03T16:02:33Z</time>
      </trkpt>
      <trkpt lat="46.27137" lon="4.54763">
        <ele>494.451</ele>
        <time>2021-04-03T16:02:35Z</time>
      </trkpt>
      <trkpt lat="46.27152" lon="4.54748">
        <ele>495.547</ele>
        <time>2021-04-03T16:02:37Z</time>
      </trkpt>
      <trkpt lat="46.2717" lon="4.5474">
        <ele>497.154</ele>
        <time>2021-04-03T16:02:39Z</time>
      </trkpt>
      <trkpt lat="46.27188" lon="4.54744">
        <ele>499.591</ele>
        <time>2021-04-03T16:02:41Z</time>
      </trkpt>
      <trkpt lat="46.27207" lon="4.54751">
        <ele>501.973</ele>
        <time>2021-04-03T16:02:43Z</time>
      </trkpt>
      <trkpt lat="46.27225" lon="4.54761">
        <ele>503.285</ele>
        <time>2021-04-03T16:02:45Z</time>
      </trkpt>
      <trkpt lat="46.27241" lon="4.5477">
        <ele>504.113</ele>
        <time>2021-04-03T16:02:47Z</time>
      </trkpt>
      <trkpt lat="46.27261" lon="4.54776">
        <ele>504.708</ele>
        <time>2021-04-03T16:02:49Z</time>
      </trkpt>
      <trkpt lat="46.27277" lon="4.54779">
        <ele>504.673</ele>
        <time>2021-04-03T16:02:51Z</time>
      </trkpt>
      <trkpt lat="46.27293" lon="4.54779">
        <ele>504.076</ele>
        <time>2021-04-03T16:02:53Z</time>
      </trkpt>
      <trkpt lat="46.2731" lon="4.54775">
        <ele>503.265</ele>
        <time>2021-04-03T16:02:55Z</time>
      </trkpt>
      <trkpt lat="46.2733" lon="4.54766">
        <ele>501.567</ele>
        <time>2021-04-03T16:02:57Z</time>
      </trkpt>
      <trkpt lat="46.27352" lon="4.54751">
        <ele>500.129</ele>
        <time>2021-04-03T16:02:59Z</time>
      </trkpt>
      <trkpt lat="46.27371" lon="4.54732">
        <ele>504.155</ele>
        <time>2021-04-03T16:03:01Z</time>
      </trkpt>
      <trkpt lat="46.27385" lon="4.54711">
        <ele>507.852</ele>
        <time>2021-04-03T16:03:03Z</time>
      </trkpt>
      <trkpt lat="46.27395" lon="4.54687">
        <ele>506.499</ele>
        <time>2021-04-03T16:03:05Z</time>
      </trkpt>
      <trkpt lat="46.27403" lon="4.54665">
        <ele>504.061</ele>
        <time>2021-04-03T16:03:07Z</time>
      </trkpt>
      <trkpt lat="46.27409" lon="4.54644">
        <ele>501.421</ele>
        <time>2021-04-03T16:03:09Z</time>
      </trkpt>
      <trkpt lat="46.27414" lon="4.54628">
        <ele>499.213</ele>
        <time>2021-04-03T16:03:11Z</time>
      </trkpt>
      <trkpt lat="46.27422" lon="4.54611">
        <ele>495.908</ele>
        <time>2021-04-03T16:03:19Z</time>
      </trkpt>
      <trkpt lat="46.27429" lon="4.54591">
        <ele>492.672</ele>
        <time>2021-04-03T16:03:21Z</time>
      </trkpt>
      <trkpt lat="46.27439" lon="4.54569">
        <ele>490.285</ele>
        <time>2021-04-03T16:03:23Z</time>
      </trkpt>
      <trkpt lat="46.27449" lon="4.54547">
        <ele>487.884</ele>
        <time>2021-04-03T16:03:25Z</time>
      </trkpt>
      <trkpt lat="46.2746" lon="4.54529">
        <ele>485.956</ele>
        <time>2021-04-03T16:03:27Z</time>
      </trkpt>
      <trkpt lat="46.27471" lon="4.54511">
        <ele>484.298</ele>
        <time>2021-04-03T16:03:29Z</time>
      </trkpt>
      <trkpt lat="46.27483" lon="4.54494">
        <ele>482.774</ele>
        <time>2021-04-03T16:03:31Z</time>
      </trkpt>
      <trkpt lat="46.27494" lon="4.5448">
        <ele>481.461</ele>
        <time>2021-04-03T16:03:33Z</time>
      </trkpt>
      <trkpt lat="46.27506" lon="4.54465">
        <ele>480.798</ele>
        <time>2021-04-03T16:03:35Z</time>
      </trkpt>
      <trkpt lat="46.27519" lon="4.54447">
        <ele>479.673</ele>
        <time>2021-04-03T16:03:37Z</time>
      </trkpt>
      <trkpt lat="46.27529" lon="4.54429">
        <ele>478.385</ele>
        <time>2021-04-03T16:03:39Z</time>
      </trkpt>
      <trkpt lat="46.27533" lon="4.54407">
        <ele>477.213</ele>
        <time>2021-04-03T16:03:41Z</time>
      </trkpt>
      <trkpt lat="46.27537" lon="4.54388">
        <ele>475.008</ele>
        <time>2021-04-03T16:03:43Z</time>
      </trkpt>
      <trkpt lat="46.27544" lon="4.54369">
        <ele>473.393</ele>
        <time>2021-04-03T16:03:45Z</time>
      </trkpt>
      <trkpt lat="46.2755" lon="4.54347">
        <ele>470.896</ele>
        <time>2021-04-03T16:03:47Z</time>
      </trkpt>
      <trkpt lat="46.27554" lon="4.54325">
        <ele>468.095</ele>
        <time>2021-04-03T16:03:49Z</time>
      </trkpt>
      <trkpt lat="46.27558" lon="4.54301">
        <ele>465.937</ele>
        <time>2021-04-03T16:03:51Z</time>
      </trkpt>
      <trkpt lat="46.27563" lon="4.54277">
        <ele>462.699</ele>
        <time>2021-04-03T16:03:53Z</time>
      </trkpt>
      <trkpt lat="46.27568" lon="4.54256">
        <ele>460.155</ele>
        <time>2021-04-03T16:03:55Z</time>
      </trkpt>
      <trkpt lat="46.2757" lon="4.54236">
        <ele>458.022</ele>
        <time>2021-04-03T16:03:57Z</time>
      </trkpt>
      <trkpt lat="46.27576" lon="4.54219">
        <ele>456.779</ele>
        <time>2021-04-03T16:03:59Z</time>
      </trkpt>
      <trkpt lat="46.27584" lon="4.54203">
        <ele>455.262</ele>
        <time>2021-04-03T16:04:01Z</time>
      </trkpt>
      <trkpt lat="46.27595" lon="4.54191">
        <ele>454.183</ele>
        <time>2021-04-03T16:04:03Z</time>
      </trkpt>
      <trkpt lat="46.27607" lon="4.54181">
        <ele>452.711</ele>
        <time>2021-04-03T16:04:05Z</time>
      </trkpt>
      <trkpt lat="46.27619" lon="4.5417">
        <ele>451.208</ele>
        <time>2021-04-03T16:04:07Z</time>
      </trkpt>
      <trkpt lat="46.27632" lon="4.54162">
        <ele>450.412</ele>
        <time>2021-04-03T16:04:09Z</time>
      </trkpt>
      <trkpt lat="46.27644" lon="4.54157">
        <ele>449.435</ele>
        <time>2021-04-03T16:04:11Z</time>
      </trkpt>
      <trkpt lat="46.27657" lon="4.54154">
        <ele>447.554</ele>
        <time>2021-04-03T16:04:13Z</time>
      </trkpt>
      <trkpt lat="46.27667" lon="4.5415">
        <ele>445.666</ele>
        <time>2021-04-03T16:04:15Z</time>
      </trkpt>
      <trkpt lat="46.27677" lon="4.54147">
        <ele>443.868</ele>
        <time>2021-04-03T16:04:17Z</time>
      </trkpt>
      <trkpt lat="46.27688" lon="4.54146">
        <ele>442.284</ele>
        <time>2021-04-03T16:04:19Z</time>
      </trkpt>
      <trkpt lat="46.277" lon="4.54144">
        <ele>441.091</ele>
        <time>2021-04-03T16:04:21Z</time>
      </trkpt>
      <trkpt lat="46.27711" lon="4.54137">
        <ele>439.728</ele>
        <time>2021-04-03T16:04:23Z</time>
      </trkpt>
      <trkpt lat="46.27722" lon="4.54127">
        <ele>437.587</ele>
        <time>2021-04-03T16:04:25Z</time>
      </trkpt>
      <trkpt lat="46.27731" lon="4.54115">
        <ele>435.742</ele>
        <time>2021-04-03T16:04:27Z</time>
      </trkpt>
      <trkpt lat="46.27737" lon="4.54098">
        <ele>433.626</ele>
        <time>2021-04-03T16:04:29Z</time>
      </trkpt>
      <trkpt lat="46.27742" lon="4.5408">
        <ele>431.608</ele>
        <time>2021-04-03T16:04:31Z</time>
      </trkpt>
      <trkpt lat="46.27748" lon="4.54065">
        <ele>429.534</ele>
        <time>2021-04-03T16:04:33Z</time>
      </trkpt>
      <trkpt lat="46.27762" lon="4.54053">
        <ele>428.357</ele>
        <time>2021-04-03T16:04:35Z</time>
      </trkpt>
      <trkpt lat="46.27778" lon="4.54043">
        <ele>427.346</ele>
        <time>2021-04-03T16:04:37Z</time>
      </trkpt>
      <trkpt lat="46.27793" lon="4.54034">
        <ele>426.138</ele>
        <time>2021-04-03T16:04:39Z</time>
      </trkpt>
      <trkpt lat="46.27808" lon="4.54024">
        <ele>424.28</ele>
        <time>2021-04-03T16:04:41Z</time>
      </trkpt>
      <trkpt lat="46.27825" lon="4.54014">
        <ele>422.136</ele>
        <time>2021-04-03T16:04:43Z</time>
      </trkpt>
      <trkpt lat="46.27842" lon="4.54009">
        <ele>420.413</ele>
        <time>2021-04-03T16:04:45Z</time>
      </trkpt>
      <trkpt lat="46.27859" lon="4.54008">
        <ele>419.13</ele>
        <time>2021-04-03T16:04:47Z</time>
      </trkpt>
      <trkpt lat="46.27871" lon="4.54009">
        <ele>417.913</ele>
        <time>2021-04-03T16:04:49Z</time>
      </trkpt>
      <trkpt lat="46.27878" lon="4.54017">
        <ele>418.443</ele>
        <time>2021-04-03T16:04:53Z</time>
      </trkpt>
      <trkpt lat="46.27884" lon="4.5402">
        <ele>418.807</ele>
        <time>2021-04-03T16:04:55Z</time>
      </trkpt>
      <trkpt lat="46.27888" lon="4.54023">
        <ele>419.208</ele>
        <time>2021-04-03T16:04:57Z</time>
      </trkpt>
      <trkpt lat="46.27898" lon="4.54033">
        <ele>419.287</ele>
        <time>2021-04-03T16:04:59Z</time>
      </trkpt>
      <trkpt lat="46.27911" lon="4.54045">
        <ele>419.46</ele>
        <time>2021-04-03T16:05:01Z</time>
      </trkpt>
      <trkpt lat="46.27929" lon="4.54042">
        <ele>419.529</ele>
        <time>2021-04-03T16:05:03Z</time>
      </trkpt>
      <trkpt lat="46.2795" lon="4.54035">
        <ele>419.561</ele>
        <time>2021-04-03T16:05:05Z</time>
      </trkpt>
      <trkpt lat="46.27971" lon="4.54031">
        <ele>419.513</ele>
        <time>2021-04-03T16:05:07Z</time>
      </trkpt>
      <trkpt lat="46.27995" lon="4.54028">
        <ele>419.579</ele>
        <time>2021-04-03T16:05:09Z</time>
      </trkpt>
      <trkpt lat="46.2802" lon="4.54026">
        <ele>420.456</ele>
        <time>2021-04-03T16:05:11Z</time>
      </trkpt>
      <trkpt lat="46.2804" lon="4.54024">
        <ele>420.623</ele>
        <time>2021-04-03T16:05:13Z</time>
      </trkpt>
      <trkpt lat="46.2806" lon="4.54014">
        <ele>420.365</ele>
        <time>2021-04-03T16:05:15Z</time>
      </trkpt>
      <trkpt lat="46.28084" lon="4.54">
        <ele>420.968</ele>
        <time>2021-04-03T16:05:17Z</time>
      </trkpt>
      <trkpt lat="46.28106" lon="4.53987">
        <ele>421.314</ele>
        <time>2021-04-03T16:05:19Z</time>
      </trkpt>
      <trkpt lat="46.28127" lon="4.53974">
        <ele>422.008</ele>
        <time>2021-04-03T16:05:21Z</time>
      </trkpt>
      <trkpt lat="46.28148" lon="4.53959">
        <ele>423.182</ele>
        <time>2021-04-03T16:05:23Z</time>
      </trkpt>
      <trkpt lat="46.28163" lon="4.53946">
        <ele>423.625</ele>
        <time>2021-04-03T16:05:25Z</time>
      </trkpt>
      <trkpt lat="46.28174" lon="4.53933">
        <ele>423.544</ele>
        <time>2021-04-03T16:05:27Z</time>
      </trkpt>
      <trkpt lat="46.28186" lon="4.53922">
        <ele>423.036</ele>
        <time>2021-04-03T16:05:29Z</time>
      </trkpt>
      <trkpt lat="46.28197" lon="4.53912">
        <ele>422.178</ele>
        <time>2021-04-03T16:05:31Z</time>
      </trkpt>
      <trkpt lat="46.28209" lon="4.53903">
        <ele>421.764</ele>
        <time>2021-04-03T16:05:33Z</time>
      </trkpt>
      <trkpt lat="46.28224" lon="4.53893">
        <ele>420.171</ele>
        <time>2021-04-03T16:05:35Z</time>
      </trkpt>
      <trkpt lat="46.2824" lon="4.53883">
        <ele>417.998</ele>
        <time>2021-04-03T16:05:37Z</time>
      </trkpt>
      <trkpt lat="46.28256" lon="4.53877">
        <ele>415.292</ele>
        <time>2021-04-03T16:05:39Z</time>
      </trkpt>
      <trkpt lat="46.28272" lon="4.5387">
        <ele>412.273</ele>
        <time>2021-04-03T16:05:41Z</time>
      </trkpt>
      <trkpt lat="46.28288" lon="4.53865">
        <ele>409.32</ele>
        <time>2021-04-03T16:05:43Z</time>
      </trkpt>
      <trkpt lat="46.28303" lon="4.53863">
        <ele>406.808</ele>
        <time>2021-04-03T16:05:45Z</time>
      </trkpt>
      <trkpt lat="46.28318" lon="4.53874">
        <ele>404.695</ele>
        <time>2021-04-03T16:05:47Z</time>
      </trkpt>
      <trkpt lat="46.28329" lon="4.53891">
        <ele>402.468</ele>
        <time>2021-04-03T16:05:49Z</time>
      </trkpt>
      <trkpt lat="46.2834" lon="4.53906">
        <ele>400.377</ele>
        <time>2021-04-03T16:05:51Z</time>
      </trkpt>
      <trkpt lat="46.2835" lon="4.53914">
        <ele>398.979</ele>
        <time>2021-04-03T16:05:53Z</time>
      </trkpt>
      <trkpt lat="46.28364" lon="4.53906">
        <ele>397.791</ele>
        <time>2021-04-03T16:05:55Z</time>
      </trkpt>
      <trkpt lat="46.28377" lon="4.53886">
        <ele>396.517</ele>
        <time>2021-04-03T16:05:57Z</time>
      </trkpt>
      <trkpt lat="46.28388" lon="4.53873">
        <ele>395.554</ele>
        <time>2021-04-03T16:05:59Z</time>
      </trkpt>
      <trkpt lat="46.28401" lon="4.5386">
        <ele>394.791</ele>
        <time>2021-04-03T16:06:01Z</time>
      </trkpt>
      <trkpt lat="46.28414" lon="4.53848">
        <ele>392.913</ele>
        <time>2021-04-03T16:06:03Z</time>
      </trkpt>
      <trkpt lat="46.28426" lon="4.53838">
        <ele>391.543</ele>
        <time>2021-04-03T16:06:05Z</time>
      </trkpt>
      <trkpt lat="46.28438" lon="4.53827">
        <ele>390.307</ele>
        <time>2021-04-03T16:06:07Z</time>
      </trkpt>
      <trkpt lat="46.28448" lon="4.53818">
        <ele>389.408</ele>
        <time>2021-04-03T16:06:09Z</time>
      </trkpt>
      <trkpt lat="46.28455" lon="4.53809">
        <ele>388.587</ele>
        <time>2021-04-03T16:06:11Z</time>
      </trkpt>
      <trkpt lat="46.2846" lon="4.53794">
        <ele>387.56</ele>
        <time>2021-04-03T16:06:13Z</time>
      </trkpt>
      <trkpt lat="46.28468" lon="4.53778">
        <ele>385.829</ele>
        <time>2021-04-03T16:06:15Z</time>
      </trkpt>
      <trkpt lat="46.28477" lon="4.53762">
        <ele>384.841</ele>
        <time>2021-04-03T16:06:17Z</time>
      </trkpt>
      <trkpt lat="46.28484" lon="4.53744">
        <ele>388.813</ele>
        <time>2021-04-03T16:06:19Z</time>
      </trkpt>
      <trkpt lat="46.28493" lon="4.53728">
        <ele>389.999</ele>
        <time>2021-04-03T16:06:21Z</time>
      </trkpt>
      <trkpt lat="46.285" lon="4.53711">
        <ele>388.056</ele>
        <time>2021-04-03T16:06:23Z</time>
      </trkpt>
      <trkpt lat="46.28505" lon="4.53698">
        <ele>385.753</ele>
        <time>2021-04-03T16:06:25Z</time>
      </trkpt>
      <trkpt lat="46.28507" lon="4.53684">
        <ele>382.137</ele>
        <time>2021-04-03T16:06:29Z</time>
      </trkpt>
      <trkpt lat="46.28511" lon="4.53669">
        <ele>378.549</ele>
        <time>2021-04-03T16:06:31Z</time>
      </trkpt>
      <trkpt lat="46.28513" lon="4.5366">
        <ele>375.813</ele>
        <time>2021-04-03T16:06:33Z</time>
      </trkpt>
      <trkpt lat="46.28515" lon="4.53645">
        <ele>372.308</ele>
        <time>2021-04-03T16:06:43Z</time>
      </trkpt>
      <trkpt lat="46.28521" lon="4.53634">
        <ele>369.949</ele>
        <time>2021-04-03T16:06:45Z</time>
      </trkpt>
      <trkpt lat="46.28517" lon="4.53624">
        <ele>368.532</ele>
        <time>2021-04-03T16:06:49Z</time>
      </trkpt>
      <trkpt lat="46.28514" lon="4.53618">
        <ele>366.981</ele>
        <time>2021-04-03T16:06:51Z</time>
      </trkpt>
      <trkpt lat="46.28523" lon="4.53609">
        <ele>364.283</ele>
        <time>2021-04-03T16:06:55Z</time>
      </trkpt>
      <trkpt lat="46.28536" lon="4.53603">
        <ele>362.315</ele>
        <time>2021-04-03T16:06:57Z</time>
      </trkpt>
      <trkpt lat="46.28551" lon="4.53596">
        <ele>361.581</ele>
        <time>2021-04-03T16:06:59Z</time>
      </trkpt>
      <trkpt lat="46.28564" lon="4.53589">
        <ele>360.888</ele>
        <time>2021-04-03T16:07:01Z</time>
      </trkpt>
      <trkpt lat="46.28581" lon="4.5358">
        <ele>360.355</ele>
        <time>2021-04-03T16:07:03Z</time>
      </trkpt>
      <trkpt lat="46.28599" lon="4.5357">
        <ele>359.964</ele>
        <time>2021-04-03T16:07:05Z</time>
      </trkpt>
      <trkpt lat="46.28614" lon="4.53562">
        <ele>359.906</ele>
        <time>2021-04-03T16:07:07Z</time>
      </trkpt>
      <trkpt lat="46.28626" lon="4.53554">
        <ele>360.216</ele>
        <time>2021-04-03T16:07:09Z</time>
      </trkpt>
      <trkpt lat="46.28632" lon="4.53544">
        <ele>360.308</ele>
        <time>2021-04-03T16:07:11Z</time>
      </trkpt>
      <trkpt lat="46.28626" lon="4.5353">
        <ele>360.332</ele>
        <time>2021-04-03T16:07:13Z</time>
      </trkpt>
      <trkpt lat="46.28621" lon="4.53515">
        <ele>360.665</ele>
        <time>2021-04-03T16:07:15Z</time>
      </trkpt>
      <trkpt lat="46.2862" lon="4.53499">
        <ele>361.924</ele>
        <time>2021-04-03T16:07:17Z</time>
      </trkpt>
      <trkpt lat="46.28618" lon="4.53481">
        <ele>363.426</ele>
        <time>2021-04-03T16:07:19Z</time>
      </trkpt>
      <trkpt lat="46.28616" lon="4.53472">
        <ele>364.938</ele>
        <time>2021-04-03T16:07:21Z</time>
      </trkpt>
      <trkpt lat="46.28616" lon="4.53457">
        <ele>366.414</ele>
        <time>2021-04-03T16:07:23Z</time>
      </trkpt>
      <trkpt lat="46.28616" lon="4.5345">
        <ele>367.581</ele>
        <time>2021-04-03T16:07:27Z</time>
      </trkpt>
      <trkpt lat="46.28624" lon="4.53432">
        <ele>368.968</ele>
        <time>2021-04-03T16:07:31Z</time>
      </trkpt>
      <trkpt lat="46.28633" lon="4.53414">
        <ele>370.526</ele>
        <time>2021-04-03T16:07:33Z</time>
      </trkpt>
      <trkpt lat="46.28646" lon="4.53391">
        <ele>372.847</ele>
        <time>2021-04-03T16:07:35Z</time>
      </trkpt>
      <trkpt lat="46.28657" lon="4.53367">
        <ele>375.011</ele>
        <time>2021-04-03T16:07:37Z</time>
      </trkpt>
      <trkpt lat="46.28663" lon="4.5335">
        <ele>377.808</ele>
        <time>2021-04-03T16:07:39Z</time>
      </trkpt>
      <trkpt lat="46.28668" lon="4.53333">
        <ele>380.068</ele>
        <time>2021-04-03T16:07:41Z</time>
      </trkpt>
      <trkpt lat="46.28674" lon="4.53318">
        <ele>382.141</ele>
        <time>2021-04-03T16:07:43Z</time>
      </trkpt>
      <trkpt lat="46.28681" lon="4.53299">
        <ele>383.94</ele>
        <time>2021-04-03T16:07:45Z</time>
      </trkpt>
      <trkpt lat="46.28692" lon="4.53279">
        <ele>384.532</ele>
        <time>2021-04-03T16:07:47Z</time>
      </trkpt>
      <trkpt lat="46.28701" lon="4.53264">
        <ele>384.824</ele>
        <time>2021-04-03T16:07:49Z</time>
      </trkpt>
      <trkpt lat="46.28706" lon="4.53252">
        <ele>386.02</ele>
        <time>2021-04-03T16:07:51Z</time>
      </trkpt>
      <trkpt lat="46.2871" lon="4.53233">
        <ele>387.057</ele>
        <time>2021-04-03T16:07:53Z</time>
      </trkpt>
      <trkpt lat="46.28717" lon="4.53203">
        <ele>388.534</ele>
        <time>2021-04-03T16:07:55Z</time>
      </trkpt>
      <trkpt lat="46.28726" lon="4.53174">
        <ele>390.034</ele>
        <time>2021-04-03T16:07:57Z</time>
      </trkpt>
      <trkpt lat="46.28739" lon="4.53149">
        <ele>390.955</ele>
        <time>2021-04-03T16:07:59Z</time>
      </trkpt>
      <trkpt lat="46.28755" lon="4.53127">
        <ele>391.31</ele>
        <time>2021-04-03T16:08:01Z</time>
      </trkpt>
      <trkpt lat="46.28767" lon="4.53113">
        <ele>391.408</ele>
        <time>2021-04-03T16:08:03Z</time>
      </trkpt>
      <trkpt lat="46.28773" lon="4.53109">
        <ele>391.919</ele>
        <time>2021-04-03T16:08:05Z</time>
      </trkpt>
      <trkpt lat="46.2878" lon="4.53106">
        <ele>392.942</ele>
        <time>2021-04-03T16:08:09Z</time>
      </trkpt>
      <trkpt lat="46.28796" lon="4.53093">
        <ele>394.431</ele>
        <time>2021-04-03T16:08:11Z</time>
      </trkpt>
      <trkpt lat="46.28813" lon="4.53074">
        <ele>396.593</ele>
        <time>2021-04-03T16:08:13Z</time>
      </trkpt>
      <trkpt lat="46.28832" lon="4.5305">
        <ele>398.835</ele>
        <time>2021-04-03T16:08:15Z</time>
      </trkpt>
      <trkpt lat="46.28853" lon="4.53025">
        <ele>401.561</ele>
        <time>2021-04-03T16:08:17Z</time>
      </trkpt>
      <trkpt lat="46.28875" lon="4.5301">
        <ele>404.168</ele>
        <time>2021-04-03T16:08:19Z</time>
      </trkpt>
      <trkpt lat="46.28894" lon="4.52991">
        <ele>406.965</ele>
        <time>2021-04-03T16:08:21Z</time>
      </trkpt>
      <trkpt lat="46.28913" lon="4.52963">
        <ele>410.418</ele>
        <time>2021-04-03T16:08:23Z</time>
      </trkpt>
      <trkpt lat="46.2893" lon="4.52928">
        <ele>414.498</ele>
        <time>2021-04-03T16:08:25Z</time>
      </trkpt>
      <trkpt lat="46.28942" lon="4.529">
        <ele>418.017</ele>
        <time>2021-04-03T16:08:27Z</time>
      </trkpt>
      <trkpt lat="46.28955" lon="4.52883">
        <ele>420.808</ele>
        <time>2021-04-03T16:08:29Z</time>
      </trkpt>
      <trkpt lat="46.28967" lon="4.52866">
        <ele>422.887</ele>
        <time>2021-04-03T16:08:31Z</time>
      </trkpt>
      <trkpt lat="46.2898" lon="4.52844">
        <ele>424.02</ele>
        <time>2021-04-03T16:08:33Z</time>
      </trkpt>
      <trkpt lat="46.28989" lon="4.52822">
        <ele>424.799</ele>
        <time>2021-04-03T16:08:35Z</time>
      </trkpt>
      <trkpt lat="46.28994" lon="4.52788">
        <ele>424.591</ele>
        <time>2021-04-03T16:08:37Z</time>
      </trkpt>
      <trkpt lat="46.29" lon="4.52749">
        <ele>424.023</ele>
        <time>2021-04-03T16:08:39Z</time>
      </trkpt>
      <trkpt lat="46.29012" lon="4.52716">
        <ele>423.889</ele>
        <time>2021-04-03T16:08:41Z</time>
      </trkpt>
      <trkpt lat="46.2903" lon="4.52689">
        <ele>424.366</ele>
        <time>2021-04-03T16:08:43Z</time>
      </trkpt>
      <trkpt lat="46.29053" lon="4.52665">
        <ele>425.723</ele>
        <time>2021-04-03T16:08:45Z</time>
      </trkpt>
      <trkpt lat="46.2908" lon="4.52639">
        <ele>427.026</ele>
        <time>2021-04-03T16:08:47Z</time>
      </trkpt>
      <trkpt lat="46.29103" lon="4.52615">
        <ele>428.147</ele>
        <time>2021-04-03T16:08:49Z</time>
      </trkpt>
      <trkpt lat="46.29122" lon="4.52592">
        <ele>429.611</ele>
        <time>2021-04-03T16:08:51Z</time>
      </trkpt>
      <trkpt lat="46.29139" lon="4.52565">
        <ele>430.808</ele>
        <time>2021-04-03T16:08:53Z</time>
      </trkpt>
      <trkpt lat="46.29155" lon="4.52542">
        <ele>429.968</ele>
        <time>2021-04-03T16:08:55Z</time>
      </trkpt>
      <trkpt lat="46.29166" lon="4.52525">
        <ele>429.991</ele>
        <time>2021-04-03T16:08:57Z</time>
      </trkpt>
      <trkpt lat="46.29174" lon="4.5251">
        <ele>429.97</ele>
        <time>2021-04-03T16:08:59Z</time>
      </trkpt>
      <trkpt lat="46.29183" lon="4.52495">
        <ele>429.752</ele>
        <time>2021-04-03T16:09:01Z</time>
      </trkpt>
      <trkpt lat="46.29191" lon="4.52478">
        <ele>429.054</ele>
        <time>2021-04-03T16:09:03Z</time>
      </trkpt>
      <trkpt lat="46.29201" lon="4.52458">
        <ele>428.37</ele>
        <time>2021-04-03T16:09:05Z</time>
      </trkpt>
      <trkpt lat="46.29212" lon="4.52437">
        <ele>427.547</ele>
        <time>2021-04-03T16:09:07Z</time>
      </trkpt>
      <trkpt lat="46.29222" lon="4.52418">
        <ele>427.054</ele>
        <time>2021-04-03T16:09:09Z</time>
      </trkpt>
      <trkpt lat="46.29232" lon="4.52399">
        <ele>426.838</ele>
        <time>2021-04-03T16:09:11Z</time>
      </trkpt>
      <trkpt lat="46.29242" lon="4.52386">
        <ele>426.87</ele>
        <time>2021-04-03T16:09:13Z</time>
      </trkpt>
      <trkpt lat="46.29253" lon="4.52378">
        <ele>427.217</ele>
        <time>2021-04-03T16:09:15Z</time>
      </trkpt>
      <trkpt lat="46.29262" lon="4.52369">
        <ele>427.508</ele>
        <time>2021-04-03T16:09:17Z</time>
      </trkpt>
      <trkpt lat="46.29272" lon="4.5236">
        <ele>428.979</ele>
        <time>2021-04-03T16:09:43Z</time>
      </trkpt>
      <trkpt lat="46.29287" lon="4.52346">
        <ele>430.262</ele>
        <time>2021-04-03T16:09:45Z</time>
      </trkpt>
      <trkpt lat="46.29306" lon="4.52331">
        <ele>431.681</ele>
        <time>2021-04-03T16:09:47Z</time>
      </trkpt>
      <trkpt lat="46.29327" lon="4.52315">
        <ele>433.373</ele>
        <time>2021-04-03T16:09:49Z</time>
      </trkpt>
      <trkpt lat="46.2935" lon="4.52291">
        <ele>435.475</ele>
        <time>2021-04-03T16:09:51Z</time>
      </trkpt>
      <trkpt lat="46.29374" lon="4.52266">
        <ele>438.721</ele>
        <time>2021-04-03T16:09:53Z</time>
      </trkpt>
      <trkpt lat="46.29393" lon="4.52247">
        <ele>442.468</ele>
        <time>2021-04-03T16:09:55Z</time>
      </trkpt>
      <trkpt lat="46.29412" lon="4.52222">
        <ele>446.195</ele>
        <time>2021-04-03T16:09:57Z</time>
      </trkpt>
      <trkpt lat="46.29434" lon="4.52189">
        <ele>450.147</ele>
        <time>2021-04-03T16:09:59Z</time>
      </trkpt>
      <trkpt lat="46.29462" lon="4.52158">
        <ele>454.129</ele>
        <time>2021-04-03T16:10:01Z</time>
      </trkpt>
      <trkpt lat="46.2949" lon="4.52126">
        <ele>458.121</ele>
        <time>2021-04-03T16:10:03Z</time>
      </trkpt>
      <trkpt lat="46.29513" lon="4.52098">
        <ele>462.108</ele>
        <time>2021-04-03T16:10:05Z</time>
      </trkpt>
      <trkpt lat="46.29535" lon="4.52072">
        <ele>466.14</ele>
        <time>2021-04-03T16:10:07Z</time>
      </trkpt>
      <trkpt lat="46.29553" lon="4.52055">
        <ele>470.153</ele>
        <time>2021-04-03T16:10:09Z</time>
      </trkpt>
      <trkpt lat="46.29569" lon="4.52047">
        <ele>474.182</ele>
        <time>2021-04-03T16:10:11Z</time>
      </trkpt>
      <trkpt lat="46.29588" lon="4.52047">
        <ele>478.144</ele>
        <time>2021-04-03T16:10:13Z</time>
      </trkpt>
      <trkpt lat="46.29607" lon="4.52056">
        <ele>482.136</ele>
        <time>2021-04-03T16:10:15Z</time>
      </trkpt>
      <trkpt lat="46.29632" lon="4.52061">
        <ele>486.182</ele>
        <time>2021-04-03T16:10:17Z</time>
      </trkpt>
      <trkpt lat="46.29662" lon="4.52061">
        <ele>490.179</ele>
        <time>2021-04-03T16:10:19Z</time>
      </trkpt>
      <trkpt lat="46.29687" lon="4.52064">
        <ele>494.116</ele>
        <time>2021-04-03T16:10:21Z</time>
      </trkpt>
      <trkpt lat="46.29711" lon="4.52064">
        <ele>498.148</ele>
        <time>2021-04-03T16:10:23Z</time>
      </trkpt>
      <trkpt lat="46.2974" lon="4.52065">
        <ele>502.161</ele>
        <time>2021-04-03T16:10:25Z</time>
      </trkpt>
      <trkpt lat="46.29757" lon="4.52069">
        <ele>506.117</ele>
        <time>2021-04-03T16:10:27Z</time>
      </trkpt>
      <trkpt lat="46.29771" lon="4.52076">
        <ele>510.108</ele>
        <time>2021-04-03T16:10:29Z</time>
      </trkpt>
      <trkpt lat="46.29782" lon="4.52074">
        <ele>513.99</ele>
        <time>2021-04-03T16:10:31Z</time>
      </trkpt>
      <trkpt lat="46.29788" lon="4.52075">
        <ele>516.883</ele>
        <time>2021-04-03T16:10:35Z</time>
      </trkpt>
      <trkpt lat="46.29792" lon="4.52075">
        <ele>518.762</ele>
        <time>2021-04-03T16:10:39Z</time>
      </trkpt>
      <trkpt lat="46.298" lon="4.52075">
        <ele>520.434</ele>
        <time>2021-04-03T16:10:49Z</time>
      </trkpt>
      <trkpt lat="46.29814" lon="4.52073">
        <ele>522.456</ele>
        <time>2021-04-03T16:10:51Z</time>
      </trkpt>
      <trkpt lat="46.29826" lon="4.5207">
        <ele>524.612</ele>
        <time>2021-04-03T16:10:53Z</time>
      </trkpt>
      <trkpt lat="46.29837" lon="4.52069">
        <ele>526.759</ele>
        <time>2021-04-03T16:10:55Z</time>
      </trkpt>
      <trkpt lat="46.29843" lon="4.52076">
        <ele>528.536</ele>
        <time>2021-04-03T16:10:57Z</time>
      </trkpt>
      <trkpt lat="46.29858" lon="4.52087">
        <ele>524.516</ele>
        <time>2021-04-03T16:10:59Z</time>
      </trkpt>
      <trkpt lat="46.29878" lon="4.52108">
        <ele>525.076</ele>
        <time>2021-04-03T16:11:01Z</time>
      </trkpt>
      <trkpt lat="46.29898" lon="4.52128">
        <ele>528.113</ele>
        <time>2021-04-03T16:11:03Z</time>
      </trkpt>
      <trkpt lat="46.29924" lon="4.52144">
        <ele>531.008</ele>
        <time>2021-04-03T16:11:05Z</time>
      </trkpt>
      <trkpt lat="46.29952" lon="4.5216">
        <ele>533.747</ele>
        <time>2021-04-03T16:11:07Z</time>
      </trkpt>
      <trkpt lat="46.2998" lon="4.52178">
        <ele>536.19</ele>
        <time>2021-04-03T16:11:09Z</time>
      </trkpt>
      <trkpt lat="46.30013" lon="4.52191">
        <ele>537.859</ele>
        <time>2021-04-03T16:11:11Z</time>
      </trkpt>
      <trkpt lat="46.30041" lon="4.52199">
        <ele>538.411</ele>
        <time>2021-04-03T16:11:13Z</time>
      </trkpt>
      <trkpt lat="46.30065" lon="4.52198">
        <ele>539.123</ele>
        <time>2021-04-03T16:11:15Z</time>
      </trkpt>
      <trkpt lat="46.30086" lon="4.52192">
        <ele>540.169</ele>
        <time>2021-04-03T16:11:17Z</time>
      </trkpt>
      <trkpt lat="46.30109" lon="4.52191">
        <ele>540.786</ele>
        <time>2021-04-03T16:11:19Z</time>
      </trkpt>
      <trkpt lat="46.30135" lon="4.52189">
        <ele>544.743</ele>
        <time>2021-04-03T16:11:21Z</time>
      </trkpt>
      <trkpt lat="46.30163" lon="4.52181">
        <ele>548.749</ele>
        <time>2021-04-03T16:11:23Z</time>
      </trkpt>
      <trkpt lat="46.3019" lon="4.52179">
        <ele>550.102</ele>
        <time>2021-04-03T16:11:25Z</time>
      </trkpt>
      <trkpt lat="46.30214" lon="4.52184">
        <ele>548.922</ele>
        <time>2021-04-03T16:11:27Z</time>
      </trkpt>
      <trkpt lat="46.30239" lon="4.52194">
        <ele>547.708</ele>
        <time>2021-04-03T16:11:29Z</time>
      </trkpt>
      <trkpt lat="46.30263" lon="4.5221">
        <ele>546.01</ele>
        <time>2021-04-03T16:11:31Z</time>
      </trkpt>
      <trkpt lat="46.30286" lon="4.52225">
        <ele>545.763</ele>
        <time>2021-04-03T16:11:33Z</time>
      </trkpt>
      <trkpt lat="46.30308" lon="4.52237">
        <ele>546.532</ele>
        <time>2021-04-03T16:11:35Z</time>
      </trkpt>
      <trkpt lat="46.30332" lon="4.52252">
        <ele>547.294</ele>
        <time>2021-04-03T16:11:37Z</time>
      </trkpt>
      <trkpt lat="46.30351" lon="4.52265">
        <ele>547.396</ele>
        <time>2021-04-03T16:11:39Z</time>
      </trkpt>
      <trkpt lat="46.30369" lon="4.52272">
        <ele>547.242</ele>
        <time>2021-04-03T16:11:41Z</time>
      </trkpt>
      <trkpt lat="46.30393" lon="4.52279">
        <ele>547.219</ele>
        <time>2021-04-03T16:11:43Z</time>
      </trkpt>
      <trkpt lat="46.30411" lon="4.52296">
        <ele>547.756</ele>
        <time>2021-04-03T16:11:45Z</time>
      </trkpt>
      <trkpt lat="46.30425" lon="4.52315">
        <ele>547.735</ele>
        <time>2021-04-03T16:11:47Z</time>
      </trkpt>
      <trkpt lat="46.30433" lon="4.52337">
        <ele>547.486</ele>
        <time>2021-04-03T16:11:49Z</time>
      </trkpt>
      <trkpt lat="46.3044" lon="4.52366">
        <ele>551.414</ele>
        <time>2021-04-03T16:11:51Z</time>
      </trkpt>
      <trkpt lat="46.30445" lon="4.52401">
        <ele>553.408</ele>
        <time>2021-04-03T16:11:53Z</time>
      </trkpt>
      <trkpt lat="46.30448" lon="4.52436">
        <ele>553.079</ele>
        <time>2021-04-03T16:11:55Z</time>
      </trkpt>
      <trkpt lat="46.30446" lon="4.52475">
        <ele>551.832</ele>
        <time>2021-04-03T16:11:57Z</time>
      </trkpt>
      <trkpt lat="46.30442" lon="4.5251">
        <ele>550.771</ele>
        <time>2021-04-03T16:11:59Z</time>
      </trkpt>
      <trkpt lat="46.30438" lon="4.52536">
        <ele>550.073</ele>
        <time>2021-04-03T16:12:01Z</time>
      </trkpt>
      <trkpt lat="46.30439" lon="4.5255">
        <ele>549.235</ele>
        <time>2021-04-03T16:12:03Z</time>
      </trkpt>
      <trkpt lat="46.30447" lon="4.52545">
        <ele>549.231</ele>
        <time>2021-04-03T16:12:05Z</time>
      </trkpt>
      <trkpt lat="46.30457" lon="4.52536">
        <ele>548.968</ele>
        <time>2021-04-03T16:12:07Z</time>
      </trkpt>
      <trkpt lat="46.30467" lon="4.52533">
        <ele>548.755</ele>
        <time>2021-04-03T16:12:09Z</time>
      </trkpt>
      <trkpt lat="46.30475" lon="4.52527">
        <ele>548.458</ele>
        <time>2021-04-03T16:12:11Z</time>
      </trkpt>
      <trkpt lat="46.30477" lon="4.52518">
        <ele>547.952</ele>
        <time>2021-04-03T16:12:13Z</time>
      </trkpt>
      <trkpt lat="46.30478" lon="4.52496">
        <ele>546.617</ele>
        <time>2021-04-03T16:12:15Z</time>
      </trkpt>
      <trkpt lat="46.30482" lon="4.52472">
        <ele>545.308</ele>
        <time>2021-04-03T16:12:17Z</time>
      </trkpt>
      <trkpt lat="46.3049" lon="4.5245">
        <ele>544.091</ele>
        <time>2021-04-03T16:12:19Z</time>
      </trkpt>
      <trkpt lat="46.30497" lon="4.52428">
        <ele>542.474</ele>
        <time>2021-04-03T16:12:21Z</time>
      </trkpt>
      <trkpt lat="46.30503" lon="4.52407">
        <ele>541.263</ele>
        <time>2021-04-03T16:12:23Z</time>
      </trkpt>
      <trkpt lat="46.30509" lon="4.52387">
        <ele>540.515</ele>
        <time>2021-04-03T16:12:25Z</time>
      </trkpt>
      <trkpt lat="46.30516" lon="4.52369">
        <ele>540.047</ele>
        <time>2021-04-03T16:12:27Z</time>
      </trkpt>
      <trkpt lat="46.30523" lon="4.52351">
        <ele>539.513</ele>
        <time>2021-04-03T16:12:29Z</time>
      </trkpt>
      <trkpt lat="46.30529" lon="4.52334">
        <ele>538.92</ele>
        <time>2021-04-03T16:12:31Z</time>
      </trkpt>
      <trkpt lat="46.30533" lon="4.52315">
        <ele>538.277</ele>
        <time>2021-04-03T16:12:33Z</time>
      </trkpt>
      <trkpt lat="46.30536" lon="4.52298">
        <ele>537.556</ele>
        <time>2021-04-03T16:12:35Z</time>
      </trkpt>
      <trkpt lat="46.3054" lon="4.52282">
        <ele>537.359</ele>
        <time>2021-04-03T16:12:37Z</time>
      </trkpt>
      <trkpt lat="46.30542" lon="4.52264">
        <ele>537.614</ele>
        <time>2021-04-03T16:12:39Z</time>
      </trkpt>
      <trkpt lat="46.30546" lon="4.52245">
        <ele>538.108</ele>
        <time>2021-04-03T16:12:41Z</time>
      </trkpt>
      <trkpt lat="46.30549" lon="4.52223">
        <ele>538.331</ele>
        <time>2021-04-03T16:12:43Z</time>
      </trkpt>
      <trkpt lat="46.30555" lon="4.52205">
        <ele>538.344</ele>
        <time>2021-04-03T16:12:45Z</time>
      </trkpt>
      <trkpt lat="46.30564" lon="4.52189">
        <ele>537.983</ele>
        <time>2021-04-03T16:12:47Z</time>
      </trkpt>
      <trkpt lat="46.30576" lon="4.52175">
        <ele>537.375</ele>
        <time>2021-04-03T16:12:49Z</time>
      </trkpt>
      <trkpt lat="46.30588" lon="4.52158">
        <ele>536.277</ele>
        <time>2021-04-03T16:12:51Z</time>
      </trkpt>
      <trkpt lat="46.30597" lon="4.52137">
        <ele>535.183</ele>
        <time>2021-04-03T16:12:53Z</time>
      </trkpt>
      <trkpt lat="46.30602" lon="4.52114">
        <ele>533.74</ele>
        <time>2021-04-03T16:12:55Z</time>
      </trkpt>
      <trkpt lat="46.30606" lon="4.52092">
        <ele>532.567</ele>
        <time>2021-04-03T16:12:57Z</time>
      </trkpt>
      <trkpt lat="46.30611" lon="4.52072">
        <ele>531.848</ele>
        <time>2021-04-03T16:12:59Z</time>
      </trkpt>
      <trkpt lat="46.30617" lon="4.52054">
        <ele>531.461</ele>
        <time>2021-04-03T16:13:01Z</time>
      </trkpt>
      <trkpt lat="46.30631" lon="4.52043">
        <ele>530.917</ele>
        <time>2021-04-03T16:13:03Z</time>
      </trkpt>
      <trkpt lat="46.3065" lon="4.5203">
        <ele>530.508</ele>
        <time>2021-04-03T16:13:05Z</time>
      </trkpt>
      <trkpt lat="46.30666" lon="4.52008">
        <ele>529.72</ele>
        <time>2021-04-03T16:13:07Z</time>
      </trkpt>
      <trkpt lat="46.30679" lon="4.51986">
        <ele>529.343</ele>
        <time>2021-04-03T16:13:09Z</time>
      </trkpt>
      <trkpt lat="46.30701" lon="4.51968">
        <ele>529.172</ele>
        <time>2021-04-03T16:13:11Z</time>
      </trkpt>
      <trkpt lat="46.30731" lon="4.51947">
        <ele>528.184</ele>
        <time>2021-04-03T16:13:13Z</time>
      </trkpt>
      <trkpt lat="46.3076" lon="4.51932">
        <ele>526.926</ele>
        <time>2021-04-03T16:13:15Z</time>
      </trkpt>
      <trkpt lat="46.30794" lon="4.5193">
        <ele>525.612</ele>
        <time>2021-04-03T16:13:17Z</time>
      </trkpt>
      <trkpt lat="46.30826" lon="4.51932">
        <ele>529.199</ele>
        <time>2021-04-03T16:13:19Z</time>
      </trkpt>
      <trkpt lat="46.30855" lon="4.51922">
        <ele>527.396</ele>
        <time>2021-04-03T16:13:21Z</time>
      </trkpt>
      <trkpt lat="46.30888" lon="4.51903">
        <ele>524.731</ele>
        <time>2021-04-03T16:13:23Z</time>
      </trkpt>
      <trkpt lat="46.30914" lon="4.51887">
        <ele>521.861</ele>
        <time>2021-04-03T16:13:25Z</time>
      </trkpt>
      <trkpt lat="46.30931" lon="4.51865">
        <ele>519.207</ele>
        <time>2021-04-03T16:13:27Z</time>
      </trkpt>
      <trkpt lat="46.30945" lon="4.51829">
        <ele>516.708</ele>
        <time>2021-04-03T16:13:29Z</time>
      </trkpt>
      <trkpt lat="46.30957" lon="4.51794">
        <ele>514.539</ele>
        <time>2021-04-03T16:13:31Z</time>
      </trkpt>
      <trkpt lat="46.30962" lon="4.51762">
        <ele>512.692</ele>
        <time>2021-04-03T16:13:33Z</time>
      </trkpt>
      <trkpt lat="46.3096" lon="4.51728">
        <ele>511.131</ele>
        <time>2021-04-03T16:13:35Z</time>
      </trkpt>
      <trkpt lat="46.30954" lon="4.51694">
        <ele>509.573</ele>
        <time>2021-04-03T16:13:37Z</time>
      </trkpt>
      <trkpt lat="46.30946" lon="4.51667">
        <ele>507.975</ele>
        <time>2021-04-03T16:13:39Z</time>
      </trkpt>
      <trkpt lat="46.30929" lon="4.51645">
        <ele>506.421</ele>
        <time>2021-04-03T16:13:41Z</time>
      </trkpt>
      <trkpt lat="46.30906" lon="4.51629">
        <ele>507.438</ele>
        <time>2021-04-03T16:13:43Z</time>
      </trkpt>
      <trkpt lat="46.30881" lon="4.51611">
        <ele>505.825</ele>
        <time>2021-04-03T16:13:45Z</time>
      </trkpt>
      <trkpt lat="46.30862" lon="4.51588">
        <ele>503.551</ele>
        <time>2021-04-03T16:13:47Z</time>
      </trkpt>
      <trkpt lat="46.30845" lon="4.51561">
        <ele>502.201</ele>
        <time>2021-04-03T16:13:49Z</time>
      </trkpt>
      <trkpt lat="46.30829" lon="4.51533">
        <ele>500.111</ele>
        <time>2021-04-03T16:13:51Z</time>
      </trkpt>
      <trkpt lat="46.3081" lon="4.51504">
        <ele>497.408</ele>
        <time>2021-04-03T16:13:53Z</time>
      </trkpt>
      <trkpt lat="46.30792" lon="4.51475">
        <ele>495.251</ele>
        <time>2021-04-03T16:13:55Z</time>
      </trkpt>
      <trkpt lat="46.30773" lon="4.51445">
        <ele>493.664</ele>
        <time>2021-04-03T16:13:57Z</time>
      </trkpt>
      <trkpt lat="46.30755" lon="4.51415">
        <ele>497.613</ele>
        <time>2021-04-03T16:13:59Z</time>
      </trkpt>
      <trkpt lat="46.30738" lon="4.51387">
        <ele>497.855</ele>
        <time>2021-04-03T16:14:01Z</time>
      </trkpt>
      <trkpt lat="46.30722" lon="4.51358">
        <ele>495.187</ele>
        <time>2021-04-03T16:14:03Z</time>
      </trkpt>
      <trkpt lat="46.30708" lon="4.51328">
        <ele>491.863</ele>
        <time>2021-04-03T16:14:05Z</time>
      </trkpt>
      <trkpt lat="46.30696" lon="4.51299">
        <ele>488.77</ele>
        <time>2021-04-03T16:14:07Z</time>
      </trkpt>
      <trkpt lat="46.30685" lon="4.5127">
        <ele>485.757</ele>
        <time>2021-04-03T16:14:09Z</time>
      </trkpt>
      <trkpt lat="46.30675" lon="4.51242">
        <ele>482.974</ele>
        <time>2021-04-03T16:14:11Z</time>
      </trkpt>
      <trkpt lat="46.30667" lon="4.51214">
        <ele>480.456</ele>
        <time>2021-04-03T16:14:13Z</time>
      </trkpt>
      <trkpt lat="46.30661" lon="4.51185">
        <ele>478.221</ele>
        <time>2021-04-03T16:14:15Z</time>
      </trkpt>
      <trkpt lat="46.30653" lon="4.51158">
        <ele>476.408</ele>
        <time>2021-04-03T16:14:17Z</time>
      </trkpt>
      <trkpt lat="46.30639" lon="4.51136">
        <ele>474.893</ele>
        <time>2021-04-03T16:14:19Z</time>
      </trkpt>
      <trkpt lat="46.30618" lon="4.51123">
        <ele>473.136</ele>
        <time>2021-04-03T16:14:21Z</time>
      </trkpt>
      <trkpt lat="46.3059" lon="4.51115">
        <ele>471.625</ele>
        <time>2021-04-03T16:14:23Z</time>
      </trkpt>
      <trkpt lat="46.30561" lon="4.51108">
        <ele>469.627</ele>
        <time>2021-04-03T16:14:25Z</time>
      </trkpt>
      <trkpt lat="46.30536" lon="4.51101">
        <ele>468.149</ele>
        <time>2021-04-03T16:14:27Z</time>
      </trkpt>
      <trkpt lat="46.30519" lon="4.5109">
        <ele>466.725</ele>
        <time>2021-04-03T16:14:29Z</time>
      </trkpt>
      <trkpt lat="46.30512" lon="4.51067">
        <ele>465.252</ele>
        <time>2021-04-03T16:14:31Z</time>
      </trkpt>
      <trkpt lat="46.30516" lon="4.51039">
        <ele>463.899</ele>
        <time>2021-04-03T16:14:33Z</time>
      </trkpt>
      <trkpt lat="46.30528" lon="4.51015">
        <ele>462.376</ele>
        <time>2021-04-03T16:14:35Z</time>
      </trkpt>
      <trkpt lat="46.3054" lon="4.50993">
        <ele>461.09</ele>
        <time>2021-04-03T16:14:37Z</time>
      </trkpt>
      <trkpt lat="46.30544" lon="4.50969">
        <ele>460.019</ele>
        <time>2021-04-03T16:14:39Z</time>
      </trkpt>
      <trkpt lat="46.3054" lon="4.50948">
        <ele>458.808</ele>
        <time>2021-04-03T16:14:41Z</time>
      </trkpt>
      <trkpt lat="46.30532" lon="4.50935">
        <ele>458.083</ele>
        <time>2021-04-03T16:14:43Z</time>
      </trkpt>
      <trkpt lat="46.30518" lon="4.50924">
        <ele>457.546</ele>
        <time>2021-04-03T16:14:45Z</time>
      </trkpt>
      <trkpt lat="46.30498" lon="4.50901">
        <ele>457.685</ele>
        <time>2021-04-03T16:14:47Z</time>
      </trkpt>
      <trkpt lat="46.30477" lon="4.50875">
        <ele>458.197</ele>
        <time>2021-04-03T16:14:49Z</time>
      </trkpt>
      <trkpt lat="46.30458" lon="4.50858">
        <ele>458.779</ele>
        <time>2021-04-03T16:14:51Z</time>
      </trkpt>
      <trkpt lat="46.30436" lon="4.50844">
        <ele>459.845</ele>
        <time>2021-04-03T16:14:53Z</time>
      </trkpt>
      <trkpt lat="46.30415" lon="4.50832">
        <ele>460.922</ele>
        <time>2021-04-03T16:14:55Z</time>
      </trkpt>
      <trkpt lat="46.30403" lon="4.50812">
        <ele>461.339</ele>
        <time>2021-04-03T16:14:57Z</time>
      </trkpt>
      <trkpt lat="46.30389" lon="4.50789">
        <ele>462.234</ele>
        <time>2021-04-03T16:14:59Z</time>
      </trkpt>
      <trkpt lat="46.30376" lon="4.50766">
        <ele>462.955</ele>
        <time>2021-04-03T16:15:01Z</time>
      </trkpt>
      <trkpt lat="46.30374" lon="4.50741">
        <ele>463.71</ele>
        <time>2021-04-03T16:15:03Z</time>
      </trkpt>
      <trkpt lat="46.30381" lon="4.50715">
        <ele>465.608</ele>
        <time>2021-04-03T16:15:05Z</time>
      </trkpt>
      <trkpt lat="46.30397" lon="4.50681">
        <ele>467.089</ele>
        <time>2021-04-03T16:15:07Z</time>
      </trkpt>
      <trkpt lat="46.30408" lon="4.50651">
        <ele>468.052</ele>
        <time>2021-04-03T16:15:09Z</time>
      </trkpt>
      <trkpt lat="46.30413" lon="4.50624">
        <ele>469.771</ele>
        <time>2021-04-03T16:15:11Z</time>
      </trkpt>
      <trkpt lat="46.30414" lon="4.50597">
        <ele>471.533</ele>
        <time>2021-04-03T16:15:13Z</time>
      </trkpt>
      <trkpt lat="46.30422" lon="4.50568">
        <ele>472.855</ele>
        <time>2021-04-03T16:15:15Z</time>
      </trkpt>
      <trkpt lat="46.30438" lon="4.50535">
        <ele>473.981</ele>
        <time>2021-04-03T16:15:17Z</time>
      </trkpt>
      <trkpt lat="46.30453" lon="4.50502">
        <ele>474.438</ele>
        <time>2021-04-03T16:15:19Z</time>
      </trkpt>
      <trkpt lat="46.30465" lon="4.50468">
        <ele>475.485</ele>
        <time>2021-04-03T16:15:21Z</time>
      </trkpt>
      <trkpt lat="46.30476" lon="4.50439">
        <ele>476.335</ele>
        <time>2021-04-03T16:15:23Z</time>
      </trkpt>
      <trkpt lat="46.30483" lon="4.50418">
        <ele>477.586</ele>
        <time>2021-04-03T16:15:25Z</time>
      </trkpt>
      <trkpt lat="46.30486" lon="4.50411">
        <ele>478.114</ele>
        <time>2021-04-03T16:15:27Z</time>
      </trkpt>
      <trkpt lat="46.30481" lon="4.50413">
        <ele>479.208</ele>
        <time>2021-04-03T16:15:29Z</time>
      </trkpt>
      <trkpt lat="46.30467" lon="4.50414">
        <ele>480.349</ele>
        <time>2021-04-03T16:15:31Z</time>
      </trkpt>
      <trkpt lat="46.30446" lon="4.5041">
        <ele>481.732</ele>
        <time>2021-04-03T16:15:33Z</time>
      </trkpt>
      <trkpt lat="46.30417" lon="4.50395">
        <ele>483.151</ele>
        <time>2021-04-03T16:15:35Z</time>
      </trkpt>
      <trkpt lat="46.30388" lon="4.5038">
        <ele>485.273</ele>
        <time>2021-04-03T16:15:37Z</time>
      </trkpt>
      <trkpt lat="46.30372" lon="4.50371">
        <ele>487.085</ele>
        <time>2021-04-03T16:15:39Z</time>
      </trkpt>
      <trkpt lat="46.30363" lon="4.50368">
        <ele>488.451</ele>
        <time>2021-04-03T16:15:41Z</time>
      </trkpt>
      <trkpt lat="46.30363" lon="4.50375">
        <ele>489.798</ele>
        <time>2021-04-03T16:15:43Z</time>
      </trkpt>
      <trkpt lat="46.30363" lon="4.50386">
        <ele>490.545</ele>
        <time>2021-04-03T16:15:45Z</time>
      </trkpt>
      <trkpt lat="46.30362" lon="4.50393">
        <ele>491.079</ele>
        <time>2021-04-03T16:15:47Z</time>
      </trkpt>
      <trkpt lat="46.30355" lon="4.50402">
        <ele>491.705</ele>
        <time>2021-04-03T16:15:49Z</time>
      </trkpt>
      <trkpt lat="46.30347" lon="4.50409">
        <ele>493.125</ele>
        <time>2021-04-03T16:15:51Z</time>
      </trkpt>
      <trkpt lat="46.30337" lon="4.50424">
        <ele>494.308</ele>
        <time>2021-04-03T16:15:53Z</time>
      </trkpt>
      <trkpt lat="46.30332" lon="4.50428">
        <ele>495.953</ele>
        <time>2021-04-03T16:15:55Z</time>
      </trkpt>
      <trkpt lat="46.30326" lon="4.50434">
        <ele>496.996</ele>
        <time>2021-04-03T16:15:57Z</time>
      </trkpt>
      <trkpt lat="46.30322" lon="4.5043">
        <ele>497.815</ele>
        <time>2021-04-03T16:15:58Z</time>
      </trkpt>
      <trkpt lat="46.30321" lon="4.5042">
        <ele>498.647</ele>
        <time>2021-04-03T16:16:00Z</time>
      </trkpt>
      <trkpt lat="46.30318" lon="4.5041">
        <ele>499.019</ele>
        <time>2021-04-03T16:16:02Z</time>
      </trkpt>
      <trkpt lat="46.30314" lon="4.50402">
        <ele>499.545</ele>
        <time>2021-04-03T16:16:05Z</time>
      </trkpt>
      <trkpt lat="46.30309" lon="4.50395">
        <ele>500.092</ele>
        <time>2021-04-03T16:16:07Z</time>
      </trkpt>
      <trkpt lat="46.30306" lon="4.50403">
        <ele>501.029</ele>
        <time>2021-04-03T16:16:10Z</time>
      </trkpt>
      <trkpt lat="46.30313" lon="4.50409">
        <ele>501.319</ele>
        <time>2021-04-03T16:16:13Z</time>
      </trkpt>
      <trkpt lat="46.30316" lon="4.50416">
        <ele>501.509</ele>
        <time>2021-04-03T16:16:14Z</time>
      </trkpt>
      <trkpt lat="46.30321" lon="4.50427">
        <ele>501.619</ele>
        <time>2021-04-03T16:16:17Z</time>
      </trkpt>
      <trkpt lat="46.30326" lon="4.5043">
        <ele>501.908</ele>
        <time>2021-04-03T16:16:19Z</time>
      </trkpt>
      <trkpt lat="46.30332" lon="4.50428">
        <ele>501.487</ele>
        <time>2021-04-03T16:16:22Z</time>
      </trkpt>
      <trkpt lat="46.30336" lon="4.50418">
        <ele>500.79</ele>
        <time>2021-04-03T16:16:24Z</time>
      </trkpt>
      <trkpt lat="46.30341" lon="4.50414">
        <ele>499.869</ele>
        <time>2021-04-03T16:16:26Z</time>
      </trkpt>
      <trkpt lat="46.30345" lon="4.5041">
        <ele>498.691</ele>
        <time>2021-04-03T16:16:27Z</time>
      </trkpt>
      <trkpt lat="46.30352" lon="4.504">
        <ele>497.553</ele>
        <time>2021-04-03T16:16:30Z</time>
      </trkpt>
      <trkpt lat="46.30359" lon="4.50394">
        <ele>496.479</ele>
        <time>2021-04-03T16:16:33Z</time>
      </trkpt>
      <trkpt lat="46.30362" lon="4.50387">
        <ele>495.586</ele>
        <time>2021-04-03T16:16:34Z</time>
      </trkpt>
      <trkpt lat="46.30361" lon="4.50375">
        <ele>495.013</ele>
        <time>2021-04-03T16:16:37Z</time>
      </trkpt>
      <trkpt lat="46.30356" lon="4.50369">
        <ele>494.363</ele>
        <time>2021-04-03T16:16:39Z</time>
      </trkpt>
      <trkpt lat="46.30351" lon="4.50366">
        <ele>493.944</ele>
        <time>2021-04-03T16:16:43Z</time>
      </trkpt>
      <trkpt lat="46.30355" lon="4.50361">
        <ele>493.818</ele>
        <time>2021-04-03T16:16:47Z</time>
      </trkpt>
    </trkseg>
  </trk>
</gpx>